<?xml version="1.0" encoding="UTF-8" standalone="no" ?>
<gpx xmlns="http://www.topografix.com/GPX/1/1" xmlns:xsi="http://www.w3.org/2001/XMLSchema-instance" xsi:schemaLocation="http://www.topografix.com/GPX/1/1 http://www.topografix.com/GPX/1/1/gpx.xsd" version="1.1" creator="VisuGPX - https://www.visugpx.com">
  <metadata>
    <name>transmauges 2011 étape 3 - 80km</name>
    <desc><![CDATA[transmauges 2011 étape 3]]></desc>
  </metadata>
  <trk>
    <name><![CDATA[2011-07-03-01]]></name>
    <trkseg>
      <trkpt lat="47.26836" lon="-1.03071">
        <ele>94.8</ele>
        <time>2011-07-03T06:04:33Z</time>
      </trkpt>
      <trkpt lat="47.26602" lon="-1.03619">
        <ele>77.9</ele>
        <time>2011-07-03T06:05:44Z</time>
      </trkpt>
      <trkpt lat="47.26599" lon="-1.03623">
        <ele>77.8</ele>
        <time>2011-07-03T06:05:45Z</time>
      </trkpt>
      <trkpt lat="47.26596" lon="-1.03624">
        <ele>77.8</ele>
        <time>2011-07-03T06:05:46Z</time>
      </trkpt>
      <trkpt lat="47.26592" lon="-1.03622">
        <ele>77.7</ele>
        <time>2011-07-03T06:05:47Z</time>
      </trkpt>
      <trkpt lat="47.26589" lon="-1.03618">
        <ele>77.7</ele>
        <time>2011-07-03T06:05:48Z</time>
      </trkpt>
      <trkpt lat="47.26585" lon="-1.03615">
        <ele>77.7</ele>
        <time>2011-07-03T06:05:49Z</time>
      </trkpt>
      <trkpt lat="47.26581" lon="-1.03613">
        <ele>77.8</ele>
        <time>2011-07-03T06:05:50Z</time>
      </trkpt>
      <trkpt lat="47.26577" lon="-1.03613">
        <ele>77.9</ele>
        <time>2011-07-03T06:05:51Z</time>
      </trkpt>
      <trkpt lat="47.26574" lon="-1.03615">
        <ele>77.9</ele>
        <time>2011-07-03T06:05:52Z</time>
      </trkpt>
      <trkpt lat="47.2657" lon="-1.03617">
        <ele>77.8</ele>
        <time>2011-07-03T06:05:53Z</time>
      </trkpt>
      <trkpt lat="47.26566" lon="-1.0362">
        <ele>77.7</ele>
        <time>2011-07-03T06:05:54Z</time>
      </trkpt>
      <trkpt lat="47.26563" lon="-1.03623">
        <ele>77.6</ele>
        <time>2011-07-03T06:05:55Z</time>
      </trkpt>
      <trkpt lat="47.26559" lon="-1.03628">
        <ele>77.4</ele>
        <time>2011-07-03T06:05:56Z</time>
      </trkpt>
      <trkpt lat="47.26556" lon="-1.03633">
        <ele>77.2</ele>
        <time>2011-07-03T06:05:57Z</time>
      </trkpt>
      <trkpt lat="47.26554" lon="-1.0364">
        <ele>77</ele>
        <time>2011-07-03T06:05:58Z</time>
      </trkpt>
      <trkpt lat="47.26551" lon="-1.03646">
        <ele>76.8</ele>
        <time>2011-07-03T06:05:59Z</time>
      </trkpt>
      <trkpt lat="47.26548" lon="-1.03652">
        <ele>76.7</ele>
        <time>2011-07-03T06:06:00Z</time>
      </trkpt>
      <trkpt lat="47.26545" lon="-1.03656">
        <ele>76.5</ele>
        <time>2011-07-03T06:06:01Z</time>
      </trkpt>
      <trkpt lat="47.26541" lon="-1.0366">
        <ele>76.3</ele>
        <time>2011-07-03T06:06:02Z</time>
      </trkpt>
      <trkpt lat="47.26537" lon="-1.03664">
        <ele>76.1</ele>
        <time>2011-07-03T06:06:03Z</time>
      </trkpt>
      <trkpt lat="47.26532" lon="-1.03667">
        <ele>75.9</ele>
        <time>2011-07-03T06:06:04Z</time>
      </trkpt>
      <trkpt lat="47.26515" lon="-1.03677">
        <ele>75</ele>
        <time>2011-07-03T06:06:08Z</time>
      </trkpt>
      <trkpt lat="47.26512" lon="-1.03681">
        <ele>74.9</ele>
        <time>2011-07-03T06:06:09Z</time>
      </trkpt>
      <trkpt lat="47.26496" lon="-1.03699">
        <ele>74.4</ele>
        <time>2011-07-03T06:06:13Z</time>
      </trkpt>
      <trkpt lat="47.26488" lon="-1.0371">
        <ele>74.1</ele>
        <time>2011-07-03T06:06:15Z</time>
      </trkpt>
      <trkpt lat="47.26457" lon="-1.0376">
        <ele>72.6</ele>
        <time>2011-07-03T06:06:23Z</time>
      </trkpt>
      <trkpt lat="47.26397" lon="-1.03823">
        <ele>70.3</ele>
        <time>2011-07-03T06:06:35Z</time>
      </trkpt>
      <trkpt lat="47.26393" lon="-1.03829">
        <ele>70.2</ele>
        <time>2011-07-03T06:06:36Z</time>
      </trkpt>
      <trkpt lat="47.26389" lon="-1.03836">
        <ele>70.1</ele>
        <time>2011-07-03T06:06:37Z</time>
      </trkpt>
      <trkpt lat="47.2638" lon="-1.03858">
        <ele>69.9</ele>
        <time>2011-07-03T06:06:40Z</time>
      </trkpt>
      <trkpt lat="47.26371" lon="-1.03881">
        <ele>69.8</ele>
        <time>2011-07-03T06:06:43Z</time>
      </trkpt>
      <trkpt lat="47.26366" lon="-1.03897">
        <ele>69.9</ele>
        <time>2011-07-03T06:06:45Z</time>
      </trkpt>
      <trkpt lat="47.26364" lon="-1.03906">
        <ele>69.9</ele>
        <time>2011-07-03T06:06:46Z</time>
      </trkpt>
      <trkpt lat="47.26358" lon="-1.03942">
        <ele>69.5</ele>
        <time>2011-07-03T06:06:50Z</time>
      </trkpt>
      <trkpt lat="47.26357" lon="-1.03958">
        <ele>69.1</ele>
        <time>2011-07-03T06:06:52Z</time>
      </trkpt>
      <trkpt lat="47.26358" lon="-1.03963">
        <ele>68.9</ele>
        <time>2011-07-03T06:06:53Z</time>
      </trkpt>
      <trkpt lat="47.2636" lon="-1.03967">
        <ele>68.7</ele>
        <time>2011-07-03T06:06:54Z</time>
      </trkpt>
      <trkpt lat="47.26363" lon="-1.03969">
        <ele>68.5</ele>
        <time>2011-07-03T06:06:55Z</time>
      </trkpt>
      <trkpt lat="47.26395" lon="-1.03983">
        <ele>66.4</ele>
        <time>2011-07-03T06:07:02Z</time>
      </trkpt>
      <trkpt lat="47.264" lon="-1.03987">
        <ele>66.2</ele>
        <time>2011-07-03T06:07:03Z</time>
      </trkpt>
      <trkpt lat="47.26474" lon="-1.04044">
        <ele>66.1</ele>
        <time>2011-07-03T06:07:17Z</time>
      </trkpt>
      <trkpt lat="47.26504" lon="-1.04071">
        <ele>66</ele>
        <time>2011-07-03T06:07:23Z</time>
      </trkpt>
      <trkpt lat="47.26514" lon="-1.04075">
        <ele>66.5</ele>
        <time>2011-07-03T06:07:26Z</time>
      </trkpt>
      <trkpt lat="47.26518" lon="-1.04078">
        <ele>66.6</ele>
        <time>2011-07-03T06:07:27Z</time>
      </trkpt>
      <trkpt lat="47.26521" lon="-1.04083">
        <ele>66.7</ele>
        <time>2011-07-03T06:07:28Z</time>
      </trkpt>
      <trkpt lat="47.26523" lon="-1.04089">
        <ele>66.8</ele>
        <time>2011-07-03T06:07:29Z</time>
      </trkpt>
      <trkpt lat="47.26525" lon="-1.04097">
        <ele>66.7</ele>
        <time>2011-07-03T06:07:30Z</time>
      </trkpt>
      <trkpt lat="47.26526" lon="-1.04105">
        <ele>66.7</ele>
        <time>2011-07-03T06:07:31Z</time>
      </trkpt>
      <trkpt lat="47.26527" lon="-1.04122">
        <ele>66.6</ele>
        <time>2011-07-03T06:07:33Z</time>
      </trkpt>
      <trkpt lat="47.26527" lon="-1.04131">
        <ele>66.4</ele>
        <time>2011-07-03T06:07:34Z</time>
      </trkpt>
      <trkpt lat="47.26526" lon="-1.04141">
        <ele>66.3</ele>
        <time>2011-07-03T06:07:35Z</time>
      </trkpt>
      <trkpt lat="47.26525" lon="-1.04151">
        <ele>66.1</ele>
        <time>2011-07-03T06:07:36Z</time>
      </trkpt>
      <trkpt lat="47.26522" lon="-1.04161">
        <ele>65.8</ele>
        <time>2011-07-03T06:07:37Z</time>
      </trkpt>
      <trkpt lat="47.26519" lon="-1.04171">
        <ele>65.6</ele>
        <time>2011-07-03T06:07:38Z</time>
      </trkpt>
      <trkpt lat="47.26515" lon="-1.04181">
        <ele>65.3</ele>
        <time>2011-07-03T06:07:39Z</time>
      </trkpt>
      <trkpt lat="47.26501" lon="-1.0421">
        <ele>64.3</ele>
        <time>2011-07-03T06:07:42Z</time>
      </trkpt>
      <trkpt lat="47.26495" lon="-1.0422">
        <ele>63.9</ele>
        <time>2011-07-03T06:07:43Z</time>
      </trkpt>
      <trkpt lat="47.26489" lon="-1.04229">
        <ele>63.6</ele>
        <time>2011-07-03T06:07:44Z</time>
      </trkpt>
      <trkpt lat="47.26482" lon="-1.04235">
        <ele>63.1</ele>
        <time>2011-07-03T06:07:45Z</time>
      </trkpt>
      <trkpt lat="47.26473" lon="-1.04238">
        <ele>62.6</ele>
        <time>2011-07-03T06:07:46Z</time>
      </trkpt>
      <trkpt lat="47.26464" lon="-1.04238">
        <ele>62.2</ele>
        <time>2011-07-03T06:07:47Z</time>
      </trkpt>
      <trkpt lat="47.26456" lon="-1.04234">
        <ele>61.7</ele>
        <time>2011-07-03T06:07:48Z</time>
      </trkpt>
      <trkpt lat="47.26391" lon="-1.04189">
        <ele>59.8</ele>
        <time>2011-07-03T06:07:57Z</time>
      </trkpt>
      <trkpt lat="47.26387" lon="-1.04187">
        <ele>60</ele>
        <time>2011-07-03T06:07:59Z</time>
      </trkpt>
      <trkpt lat="47.26386" lon="-1.04187">
        <ele>60.1</ele>
        <time>2011-07-03T06:08:00Z</time>
      </trkpt>
      <trkpt lat="47.26385" lon="-1.04187">
        <ele>60.1</ele>
        <time>2011-07-03T06:08:01Z</time>
      </trkpt>
      <trkpt lat="47.26384" lon="-1.04187">
        <ele>60.1</ele>
        <time>2011-07-03T06:08:03Z</time>
      </trkpt>
      <trkpt lat="47.26384" lon="-1.04187">
        <ele>59.9</ele>
        <time>2011-07-03T06:08:08Z</time>
      </trkpt>
      <trkpt lat="47.26385" lon="-1.04187">
        <ele>60.3</ele>
        <time>2011-07-03T06:08:14Z</time>
      </trkpt>
      <trkpt lat="47.26385" lon="-1.04187">
        <ele>60.2</ele>
        <time>2011-07-03T06:08:16Z</time>
      </trkpt>
      <trkpt lat="47.26385" lon="-1.04187">
        <ele>60.1</ele>
        <time>2011-07-03T06:08:20Z</time>
      </trkpt>
      <trkpt lat="47.26385" lon="-1.04187">
        <ele>60</ele>
        <time>2011-07-03T06:08:25Z</time>
      </trkpt>
      <trkpt lat="47.26385" lon="-1.04188">
        <ele>60</ele>
        <time>2011-07-03T06:08:26Z</time>
      </trkpt>
      <trkpt lat="47.26384" lon="-1.04188">
        <ele>60</ele>
        <time>2011-07-03T06:08:27Z</time>
      </trkpt>
      <trkpt lat="47.26381" lon="-1.04188">
        <ele>59.8</ele>
        <time>2011-07-03T06:08:29Z</time>
      </trkpt>
      <trkpt lat="47.26379" lon="-1.04189">
        <ele>59.7</ele>
        <time>2011-07-03T06:08:30Z</time>
      </trkpt>
      <trkpt lat="47.26376" lon="-1.04191">
        <ele>59.5</ele>
        <time>2011-07-03T06:08:31Z</time>
      </trkpt>
      <trkpt lat="47.26374" lon="-1.04194">
        <ele>59.3</ele>
        <time>2011-07-03T06:08:32Z</time>
      </trkpt>
      <trkpt lat="47.26371" lon="-1.04198">
        <ele>59.1</ele>
        <time>2011-07-03T06:08:33Z</time>
      </trkpt>
      <trkpt lat="47.26369" lon="-1.04203">
        <ele>58.8</ele>
        <time>2011-07-03T06:08:34Z</time>
      </trkpt>
      <trkpt lat="47.26368" lon="-1.04209">
        <ele>58.6</ele>
        <time>2011-07-03T06:08:35Z</time>
      </trkpt>
      <trkpt lat="47.26369" lon="-1.04217">
        <ele>58.3</ele>
        <time>2011-07-03T06:08:36Z</time>
      </trkpt>
      <trkpt lat="47.2637" lon="-1.04224">
        <ele>58.1</ele>
        <time>2011-07-03T06:08:37Z</time>
      </trkpt>
      <trkpt lat="47.2639" lon="-1.04303">
        <ele>58.9</ele>
        <time>2011-07-03T06:08:48Z</time>
      </trkpt>
      <trkpt lat="47.2639" lon="-1.04311">
        <ele>58.9</ele>
        <time>2011-07-03T06:08:49Z</time>
      </trkpt>
      <trkpt lat="47.2639" lon="-1.0432">
        <ele>58.9</ele>
        <time>2011-07-03T06:08:50Z</time>
      </trkpt>
      <trkpt lat="47.26389" lon="-1.04328">
        <ele>58.8</ele>
        <time>2011-07-03T06:08:51Z</time>
      </trkpt>
      <trkpt lat="47.26366" lon="-1.04443">
        <ele>57.8</ele>
        <time>2011-07-03T06:09:04Z</time>
      </trkpt>
      <trkpt lat="47.26365" lon="-1.0445">
        <ele>57.7</ele>
        <time>2011-07-03T06:09:05Z</time>
      </trkpt>
      <trkpt lat="47.26364" lon="-1.045">
        <ele>58.2</ele>
        <time>2011-07-03T06:09:12Z</time>
      </trkpt>
      <trkpt lat="47.26362" lon="-1.04507">
        <ele>58.2</ele>
        <time>2011-07-03T06:09:13Z</time>
      </trkpt>
      <trkpt lat="47.26359" lon="-1.04513">
        <ele>58.2</ele>
        <time>2011-07-03T06:09:14Z</time>
      </trkpt>
      <trkpt lat="47.26356" lon="-1.04518">
        <ele>58.2</ele>
        <time>2011-07-03T06:09:15Z</time>
      </trkpt>
      <trkpt lat="47.26352" lon="-1.04522">
        <ele>58.2</ele>
        <time>2011-07-03T06:09:16Z</time>
      </trkpt>
      <trkpt lat="47.26346" lon="-1.04524">
        <ele>58.2</ele>
        <time>2011-07-03T06:09:17Z</time>
      </trkpt>
      <trkpt lat="47.26341" lon="-1.04525">
        <ele>58.2</ele>
        <time>2011-07-03T06:09:18Z</time>
      </trkpt>
      <trkpt lat="47.26283" lon="-1.04531">
        <ele>59.8</ele>
        <time>2011-07-03T06:09:29Z</time>
      </trkpt>
      <trkpt lat="47.26251" lon="-1.04541">
        <ele>59.4</ele>
        <time>2011-07-03T06:09:36Z</time>
      </trkpt>
      <trkpt lat="47.26249" lon="-1.04543">
        <ele>59.3</ele>
        <time>2011-07-03T06:09:37Z</time>
      </trkpt>
      <trkpt lat="47.26247" lon="-1.04545">
        <ele>59.3</ele>
        <time>2011-07-03T06:09:38Z</time>
      </trkpt>
      <trkpt lat="47.26247" lon="-1.04548">
        <ele>59.2</ele>
        <time>2011-07-03T06:09:39Z</time>
      </trkpt>
      <trkpt lat="47.26247" lon="-1.04551">
        <ele>59.1</ele>
        <time>2011-07-03T06:09:40Z</time>
      </trkpt>
      <trkpt lat="47.26247" lon="-1.04555">
        <ele>58.8</ele>
        <time>2011-07-03T06:09:41Z</time>
      </trkpt>
      <trkpt lat="47.26248" lon="-1.04558">
        <ele>58.4</ele>
        <time>2011-07-03T06:09:42Z</time>
      </trkpt>
      <trkpt lat="47.26266" lon="-1.04597">
        <ele>53</ele>
        <time>2011-07-03T06:09:52Z</time>
      </trkpt>
      <trkpt lat="47.26268" lon="-1.046">
        <ele>52.2</ele>
        <time>2011-07-03T06:09:53Z</time>
      </trkpt>
      <trkpt lat="47.2627" lon="-1.04602">
        <ele>51.4</ele>
        <time>2011-07-03T06:09:54Z</time>
      </trkpt>
      <trkpt lat="47.26273" lon="-1.04604">
        <ele>50.6</ele>
        <time>2011-07-03T06:09:55Z</time>
      </trkpt>
      <trkpt lat="47.26283" lon="-1.04605">
        <ele>48.9</ele>
        <time>2011-07-03T06:09:57Z</time>
      </trkpt>
      <trkpt lat="47.26302" lon="-1.04605">
        <ele>45.7</ele>
        <time>2011-07-03T06:10:00Z</time>
      </trkpt>
      <trkpt lat="47.26308" lon="-1.04605">
        <ele>44.5</ele>
        <time>2011-07-03T06:10:01Z</time>
      </trkpt>
      <trkpt lat="47.26315" lon="-1.04605">
        <ele>43.3</ele>
        <time>2011-07-03T06:10:02Z</time>
      </trkpt>
      <trkpt lat="47.26332" lon="-1.04602">
        <ele>39.6</ele>
        <time>2011-07-03T06:10:05Z</time>
      </trkpt>
      <trkpt lat="47.26337" lon="-1.04604">
        <ele>38.5</ele>
        <time>2011-07-03T06:10:06Z</time>
      </trkpt>
      <trkpt lat="47.26343" lon="-1.04608">
        <ele>37.4</ele>
        <time>2011-07-03T06:10:07Z</time>
      </trkpt>
      <trkpt lat="47.26349" lon="-1.04613">
        <ele>36.5</ele>
        <time>2011-07-03T06:10:08Z</time>
      </trkpt>
      <trkpt lat="47.26354" lon="-1.04619">
        <ele>35.8</ele>
        <time>2011-07-03T06:10:09Z</time>
      </trkpt>
      <trkpt lat="47.2639" lon="-1.04665">
        <ele>34.6</ele>
        <time>2011-07-03T06:10:17Z</time>
      </trkpt>
      <trkpt lat="47.26399" lon="-1.04681">
        <ele>34.2</ele>
        <time>2011-07-03T06:10:19Z</time>
      </trkpt>
      <trkpt lat="47.26403" lon="-1.04689">
        <ele>34</ele>
        <time>2011-07-03T06:10:20Z</time>
      </trkpt>
      <trkpt lat="47.26406" lon="-1.04697">
        <ele>33.9</ele>
        <time>2011-07-03T06:10:21Z</time>
      </trkpt>
      <trkpt lat="47.26408" lon="-1.04706">
        <ele>33.9</ele>
        <time>2011-07-03T06:10:22Z</time>
      </trkpt>
      <trkpt lat="47.26414" lon="-1.04746">
        <ele>35</ele>
        <time>2011-07-03T06:10:28Z</time>
      </trkpt>
      <trkpt lat="47.26418" lon="-1.04792">
        <ele>37.6</ele>
        <time>2011-07-03T06:10:38Z</time>
      </trkpt>
      <trkpt lat="47.26422" lon="-1.04808">
        <ele>38.5</ele>
        <time>2011-07-03T06:10:42Z</time>
      </trkpt>
      <trkpt lat="47.26422" lon="-1.04813">
        <ele>38.7</ele>
        <time>2011-07-03T06:10:43Z</time>
      </trkpt>
      <trkpt lat="47.26423" lon="-1.04817">
        <ele>38.9</ele>
        <time>2011-07-03T06:10:44Z</time>
      </trkpt>
      <trkpt lat="47.26423" lon="-1.04825">
        <ele>39.1</ele>
        <time>2011-07-03T06:10:46Z</time>
      </trkpt>
      <trkpt lat="47.26415" lon="-1.04897">
        <ele>39.4</ele>
        <time>2011-07-03T06:11:03Z</time>
      </trkpt>
      <trkpt lat="47.26415" lon="-1.04901">
        <ele>39.5</ele>
        <time>2011-07-03T06:11:04Z</time>
      </trkpt>
      <trkpt lat="47.26415" lon="-1.04954">
        <ele>41.4</ele>
        <time>2011-07-03T06:11:14Z</time>
      </trkpt>
      <trkpt lat="47.26415" lon="-1.0496">
        <ele>41.6</ele>
        <time>2011-07-03T06:11:15Z</time>
      </trkpt>
      <trkpt lat="47.26401" lon="-1.05097">
        <ele>46.5</ele>
        <time>2011-07-03T06:11:38Z</time>
      </trkpt>
      <trkpt lat="47.26401" lon="-1.05103">
        <ele>46.7</ele>
        <time>2011-07-03T06:11:39Z</time>
      </trkpt>
      <trkpt lat="47.26396" lon="-1.05292">
        <ele>53.9</ele>
        <time>2011-07-03T06:12:14Z</time>
      </trkpt>
      <trkpt lat="47.26396" lon="-1.05297">
        <ele>56.9</ele>
        <time>2011-07-03T06:12:15Z</time>
      </trkpt>
      <trkpt lat="47.2639" lon="-1.05406">
        <ele>66.2</ele>
        <time>2011-07-03T06:12:35Z</time>
      </trkpt>
      <trkpt lat="47.26386" lon="-1.05422">
        <ele>65.7</ele>
        <time>2011-07-03T06:12:38Z</time>
      </trkpt>
      <trkpt lat="47.26384" lon="-1.05427">
        <ele>65.8</ele>
        <time>2011-07-03T06:12:39Z</time>
      </trkpt>
      <trkpt lat="47.26381" lon="-1.05433">
        <ele>65.9</ele>
        <time>2011-07-03T06:12:40Z</time>
      </trkpt>
      <trkpt lat="47.26364" lon="-1.05457">
        <ele>65.7</ele>
        <time>2011-07-03T06:12:45Z</time>
      </trkpt>
      <trkpt lat="47.26361" lon="-1.05462">
        <ele>66</ele>
        <time>2011-07-03T06:12:46Z</time>
      </trkpt>
      <trkpt lat="47.26359" lon="-1.05468">
        <ele>66.2</ele>
        <time>2011-07-03T06:12:47Z</time>
      </trkpt>
      <trkpt lat="47.2632" lon="-1.05642">
        <ele>67.3</ele>
        <time>2011-07-03T06:13:18Z</time>
      </trkpt>
      <trkpt lat="47.26319" lon="-1.05648">
        <ele>67.3</ele>
        <time>2011-07-03T06:13:19Z</time>
      </trkpt>
      <trkpt lat="47.26293" lon="-1.0579">
        <ele>67.5</ele>
        <time>2011-07-03T06:13:43Z</time>
      </trkpt>
      <trkpt lat="47.26293" lon="-1.05803">
        <ele>67.4</ele>
        <time>2011-07-03T06:13:45Z</time>
      </trkpt>
      <trkpt lat="47.26293" lon="-1.0581">
        <ele>67.5</ele>
        <time>2011-07-03T06:13:46Z</time>
      </trkpt>
      <trkpt lat="47.26296" lon="-1.05851">
        <ele>68.7</ele>
        <time>2011-07-03T06:13:52Z</time>
      </trkpt>
      <trkpt lat="47.26296" lon="-1.05858">
        <ele>68.5</ele>
        <time>2011-07-03T06:13:53Z</time>
      </trkpt>
      <trkpt lat="47.26293" lon="-1.05899">
        <ele>67.9</ele>
        <time>2011-07-03T06:14:00Z</time>
      </trkpt>
      <trkpt lat="47.26292" lon="-1.05903">
        <ele>67.9</ele>
        <time>2011-07-03T06:14:01Z</time>
      </trkpt>
      <trkpt lat="47.2629" lon="-1.05906">
        <ele>68.1</ele>
        <time>2011-07-03T06:14:02Z</time>
      </trkpt>
      <trkpt lat="47.2628" lon="-1.05981">
        <ele>71.9</ele>
        <time>2011-07-03T06:14:23Z</time>
      </trkpt>
      <trkpt lat="47.2628" lon="-1.05983">
        <ele>72</ele>
        <time>2011-07-03T06:14:24Z</time>
      </trkpt>
      <trkpt lat="47.26266" lon="-1.06062">
        <ele>77.6</ele>
        <time>2011-07-03T06:14:51Z</time>
      </trkpt>
      <trkpt lat="47.26248" lon="-1.06126">
        <ele>81.7</ele>
        <time>2011-07-03T06:15:14Z</time>
      </trkpt>
      <trkpt lat="47.26248" lon="-1.06127">
        <ele>81.7</ele>
        <time>2011-07-03T06:15:15Z</time>
      </trkpt>
      <trkpt lat="47.26247" lon="-1.06129">
        <ele>81.8</ele>
        <time>2011-07-03T06:15:16Z</time>
      </trkpt>
      <trkpt lat="47.26247" lon="-1.0613">
        <ele>81.8</ele>
        <time>2011-07-03T06:15:17Z</time>
      </trkpt>
      <trkpt lat="47.26246" lon="-1.06132">
        <ele>82.4</ele>
        <time>2011-07-03T06:15:20Z</time>
      </trkpt>
      <trkpt lat="47.26246" lon="-1.06134">
        <ele>82.6</ele>
        <time>2011-07-03T06:15:22Z</time>
      </trkpt>
      <trkpt lat="47.26245" lon="-1.06134">
        <ele>82.5</ele>
        <time>2011-07-03T06:15:23Z</time>
      </trkpt>
      <trkpt lat="47.26245" lon="-1.06135">
        <ele>82.5</ele>
        <time>2011-07-03T06:15:24Z</time>
      </trkpt>
      <trkpt lat="47.26245" lon="-1.06136">
        <ele>82.7</ele>
        <time>2011-07-03T06:15:26Z</time>
      </trkpt>
      <trkpt lat="47.26244" lon="-1.06137">
        <ele>83.1</ele>
        <time>2011-07-03T06:15:27Z</time>
      </trkpt>
      <trkpt lat="47.26244" lon="-1.06137">
        <ele>83.4</ele>
        <time>2011-07-03T06:15:28Z</time>
      </trkpt>
      <trkpt lat="47.26244" lon="-1.06138">
        <ele>83.6</ele>
        <time>2011-07-03T06:15:29Z</time>
      </trkpt>
      <trkpt lat="47.26244" lon="-1.06138">
        <ele>83.7</ele>
        <time>2011-07-03T06:15:30Z</time>
      </trkpt>
      <trkpt lat="47.26244" lon="-1.06139">
        <ele>84</ele>
        <time>2011-07-03T06:15:31Z</time>
      </trkpt>
      <trkpt lat="47.26243" lon="-1.0614">
        <ele>84.1</ele>
        <time>2011-07-03T06:15:32Z</time>
      </trkpt>
      <trkpt lat="47.26243" lon="-1.0614">
        <ele>84.3</ele>
        <time>2011-07-03T06:15:33Z</time>
      </trkpt>
      <trkpt lat="47.26241" lon="-1.06143">
        <ele>83.4</ele>
        <time>2011-07-03T06:15:36Z</time>
      </trkpt>
      <trkpt lat="47.26239" lon="-1.0615">
        <ele>82.8</ele>
        <time>2011-07-03T06:15:42Z</time>
      </trkpt>
      <trkpt lat="47.26239" lon="-1.0615">
        <ele>82.9</ele>
        <time>2011-07-03T06:15:43Z</time>
      </trkpt>
      <trkpt lat="47.26239" lon="-1.0615">
        <ele>83</ele>
        <time>2011-07-03T06:15:44Z</time>
      </trkpt>
      <trkpt lat="47.26238" lon="-1.06151">
        <ele>83.1</ele>
        <time>2011-07-03T06:15:45Z</time>
      </trkpt>
      <trkpt lat="47.26238" lon="-1.06153">
        <ele>83.1</ele>
        <time>2011-07-03T06:15:46Z</time>
      </trkpt>
      <trkpt lat="47.26233" lon="-1.06171">
        <ele>84.4</ele>
        <time>2011-07-03T06:15:52Z</time>
      </trkpt>
      <trkpt lat="47.26201" lon="-1.06331">
        <ele>84.5</ele>
        <time>2011-07-03T06:16:21Z</time>
      </trkpt>
      <trkpt lat="47.26169" lon="-1.06417">
        <ele>84.8</ele>
        <time>2011-07-03T06:16:37Z</time>
      </trkpt>
      <trkpt lat="47.26167" lon="-1.06423">
        <ele>84.6</ele>
        <time>2011-07-03T06:16:38Z</time>
      </trkpt>
      <trkpt lat="47.26166" lon="-1.06429">
        <ele>84.5</ele>
        <time>2011-07-03T06:16:39Z</time>
      </trkpt>
      <trkpt lat="47.26163" lon="-1.06492">
        <ele>85.2</ele>
        <time>2011-07-03T06:16:50Z</time>
      </trkpt>
      <trkpt lat="47.26161" lon="-1.06502">
        <ele>85.5</ele>
        <time>2011-07-03T06:16:54Z</time>
      </trkpt>
      <trkpt lat="47.26161" lon="-1.06503">
        <ele>85.5</ele>
        <time>2011-07-03T06:16:55Z</time>
      </trkpt>
      <trkpt lat="47.26161" lon="-1.06503">
        <ele>85.6</ele>
        <time>2011-07-03T06:16:56Z</time>
      </trkpt>
      <trkpt lat="47.2616" lon="-1.06505">
        <ele>85.3</ele>
        <time>2011-07-03T06:16:58Z</time>
      </trkpt>
      <trkpt lat="47.2616" lon="-1.06505">
        <ele>85.1</ele>
        <time>2011-07-03T06:16:59Z</time>
      </trkpt>
      <trkpt lat="47.26161" lon="-1.06506">
        <ele>85</ele>
        <time>2011-07-03T06:17:00Z</time>
      </trkpt>
      <trkpt lat="47.2616" lon="-1.06507">
        <ele>85.3</ele>
        <time>2011-07-03T06:17:02Z</time>
      </trkpt>
      <trkpt lat="47.2616" lon="-1.0651">
        <ele>85.7</ele>
        <time>2011-07-03T06:17:05Z</time>
      </trkpt>
      <trkpt lat="47.26159" lon="-1.06519">
        <ele>85.5</ele>
        <time>2011-07-03T06:17:10Z</time>
      </trkpt>
      <trkpt lat="47.2616" lon="-1.06526">
        <ele>86.2</ele>
        <time>2011-07-03T06:17:13Z</time>
      </trkpt>
      <trkpt lat="47.26159" lon="-1.06531">
        <ele>85.8</ele>
        <time>2011-07-03T06:17:15Z</time>
      </trkpt>
      <trkpt lat="47.26159" lon="-1.06544">
        <ele>85.2</ele>
        <time>2011-07-03T06:17:19Z</time>
      </trkpt>
      <trkpt lat="47.26155" lon="-1.06576">
        <ele>87.1</ele>
        <time>2011-07-03T06:17:29Z</time>
      </trkpt>
      <trkpt lat="47.26154" lon="-1.06578">
        <ele>87.4</ele>
        <time>2011-07-03T06:17:30Z</time>
      </trkpt>
      <trkpt lat="47.26154" lon="-1.06581">
        <ele>87.7</ele>
        <time>2011-07-03T06:17:31Z</time>
      </trkpt>
      <trkpt lat="47.26153" lon="-1.06616">
        <ele>91.2</ele>
        <time>2011-07-03T06:17:44Z</time>
      </trkpt>
      <trkpt lat="47.26152" lon="-1.06626">
        <ele>92.1</ele>
        <time>2011-07-03T06:17:47Z</time>
      </trkpt>
      <trkpt lat="47.26152" lon="-1.06629">
        <ele>92.2</ele>
        <time>2011-07-03T06:17:48Z</time>
      </trkpt>
      <trkpt lat="47.26152" lon="-1.06644">
        <ele>93.4</ele>
        <time>2011-07-03T06:17:52Z</time>
      </trkpt>
      <trkpt lat="47.26151" lon="-1.06648">
        <ele>93.6</ele>
        <time>2011-07-03T06:17:53Z</time>
      </trkpt>
      <trkpt lat="47.2615" lon="-1.06651">
        <ele>93.7</ele>
        <time>2011-07-03T06:17:54Z</time>
      </trkpt>
      <trkpt lat="47.26146" lon="-1.06654">
        <ele>94.3</ele>
        <time>2011-07-03T06:17:56Z</time>
      </trkpt>
      <trkpt lat="47.26144" lon="-1.06657">
        <ele>94.5</ele>
        <time>2011-07-03T06:17:57Z</time>
      </trkpt>
      <trkpt lat="47.26144" lon="-1.0666">
        <ele>95.3</ele>
        <time>2011-07-03T06:17:58Z</time>
      </trkpt>
      <trkpt lat="47.26143" lon="-1.06675">
        <ele>96.4</ele>
        <time>2011-07-03T06:18:02Z</time>
      </trkpt>
      <trkpt lat="47.26142" lon="-1.06683">
        <ele>96.4</ele>
        <time>2011-07-03T06:18:04Z</time>
      </trkpt>
      <trkpt lat="47.26104" lon="-1.06907">
        <ele>103</ele>
        <time>2011-07-03T06:18:56Z</time>
      </trkpt>
      <trkpt lat="47.26104" lon="-1.06911">
        <ele>103.2</ele>
        <time>2011-07-03T06:18:57Z</time>
      </trkpt>
      <trkpt lat="47.26105" lon="-1.06914">
        <ele>103.5</ele>
        <time>2011-07-03T06:18:58Z</time>
      </trkpt>
      <trkpt lat="47.26107" lon="-1.06917">
        <ele>103.7</ele>
        <time>2011-07-03T06:18:59Z</time>
      </trkpt>
      <trkpt lat="47.26108" lon="-1.06919">
        <ele>103.8</ele>
        <time>2011-07-03T06:19:00Z</time>
      </trkpt>
      <trkpt lat="47.26109" lon="-1.06922">
        <ele>103.9</ele>
        <time>2011-07-03T06:19:01Z</time>
      </trkpt>
      <trkpt lat="47.26109" lon="-1.06926">
        <ele>104.1</ele>
        <time>2011-07-03T06:19:02Z</time>
      </trkpt>
      <trkpt lat="47.26108" lon="-1.0693">
        <ele>104.2</ele>
        <time>2011-07-03T06:19:03Z</time>
      </trkpt>
      <trkpt lat="47.26102" lon="-1.06956">
        <ele>105.3</ele>
        <time>2011-07-03T06:19:09Z</time>
      </trkpt>
      <trkpt lat="47.26098" lon="-1.06974">
        <ele>105.6</ele>
        <time>2011-07-03T06:19:13Z</time>
      </trkpt>
      <trkpt lat="47.26089" lon="-1.07105">
        <ele>110.9</ele>
        <time>2011-07-03T06:19:45Z</time>
      </trkpt>
      <trkpt lat="47.26088" lon="-1.07109">
        <ele>111.2</ele>
        <time>2011-07-03T06:19:46Z</time>
      </trkpt>
      <trkpt lat="47.26077" lon="-1.07157">
        <ele>112.9</ele>
        <time>2011-07-03T06:19:58Z</time>
      </trkpt>
      <trkpt lat="47.26076" lon="-1.07161">
        <ele>112.9</ele>
        <time>2011-07-03T06:19:59Z</time>
      </trkpt>
      <trkpt lat="47.26071" lon="-1.07172">
        <ele>113.6</ele>
        <time>2011-07-03T06:20:02Z</time>
      </trkpt>
      <trkpt lat="47.26062" lon="-1.07194">
        <ele>114.3</ele>
        <time>2011-07-03T06:20:10Z</time>
      </trkpt>
      <trkpt lat="47.26061" lon="-1.07194">
        <ele>114.3</ele>
        <time>2011-07-03T06:20:11Z</time>
      </trkpt>
      <trkpt lat="47.26061" lon="-1.07195">
        <ele>114.1</ele>
        <time>2011-07-03T06:20:14Z</time>
      </trkpt>
      <trkpt lat="47.2606" lon="-1.07196">
        <ele>113.6</ele>
        <time>2011-07-03T06:20:24Z</time>
      </trkpt>
      <trkpt lat="47.2606" lon="-1.07197">
        <ele>113.8</ele>
        <time>2011-07-03T06:20:31Z</time>
      </trkpt>
      <trkpt lat="47.2606" lon="-1.07197">
        <ele>113.5</ele>
        <time>2011-07-03T06:20:37Z</time>
      </trkpt>
      <trkpt lat="47.2606" lon="-1.07198">
        <ele>113.6</ele>
        <time>2011-07-03T06:20:46Z</time>
      </trkpt>
      <trkpt lat="47.26059" lon="-1.07198">
        <ele>113.9</ele>
        <time>2011-07-03T06:20:49Z</time>
      </trkpt>
      <trkpt lat="47.26059" lon="-1.07198">
        <ele>114.2</ele>
        <time>2011-07-03T06:20:55Z</time>
      </trkpt>
      <trkpt lat="47.26059" lon="-1.07198">
        <ele>114.1</ele>
        <time>2011-07-03T06:20:57Z</time>
      </trkpt>
      <trkpt lat="47.26058" lon="-1.07198">
        <ele>113.9</ele>
        <time>2011-07-03T06:21:00Z</time>
      </trkpt>
      <trkpt lat="47.26057" lon="-1.07198">
        <ele>113.8</ele>
        <time>2011-07-03T06:21:02Z</time>
      </trkpt>
      <trkpt lat="47.26056" lon="-1.07199">
        <ele>114</ele>
        <time>2011-07-03T06:21:03Z</time>
      </trkpt>
      <trkpt lat="47.26053" lon="-1.07203">
        <ele>114.2</ele>
        <time>2011-07-03T06:21:05Z</time>
      </trkpt>
      <trkpt lat="47.26052" lon="-1.07206">
        <ele>113.8</ele>
        <time>2011-07-03T06:21:06Z</time>
      </trkpt>
      <trkpt lat="47.26023" lon="-1.07255">
        <ele>112.6</ele>
        <time>2011-07-03T06:21:17Z</time>
      </trkpt>
      <trkpt lat="47.26017" lon="-1.07267">
        <ele>112.6</ele>
        <time>2011-07-03T06:21:19Z</time>
      </trkpt>
      <trkpt lat="47.26003" lon="-1.07297">
        <ele>111.4</ele>
        <time>2011-07-03T06:21:24Z</time>
      </trkpt>
      <trkpt lat="47.25999" lon="-1.07301">
        <ele>111.2</ele>
        <time>2011-07-03T06:21:25Z</time>
      </trkpt>
      <trkpt lat="47.25995" lon="-1.07306">
        <ele>111.1</ele>
        <time>2011-07-03T06:21:26Z</time>
      </trkpt>
      <trkpt lat="47.25992" lon="-1.07312">
        <ele>111</ele>
        <time>2011-07-03T06:21:27Z</time>
      </trkpt>
      <trkpt lat="47.25813" lon="-1.07663">
        <ele>107.7</ele>
        <time>2011-07-03T06:22:16Z</time>
      </trkpt>
      <trkpt lat="47.25811" lon="-1.07669">
        <ele>107.6</ele>
        <time>2011-07-03T06:22:17Z</time>
      </trkpt>
      <trkpt lat="47.25768" lon="-1.07749">
        <ele>108.9</ele>
        <time>2011-07-03T06:22:32Z</time>
      </trkpt>
      <trkpt lat="47.25762" lon="-1.07757">
        <ele>109.4</ele>
        <time>2011-07-03T06:22:34Z</time>
      </trkpt>
      <trkpt lat="47.25759" lon="-1.07761">
        <ele>109.6</ele>
        <time>2011-07-03T06:22:35Z</time>
      </trkpt>
      <trkpt lat="47.25755" lon="-1.07762">
        <ele>109.3</ele>
        <time>2011-07-03T06:22:36Z</time>
      </trkpt>
      <trkpt lat="47.25752" lon="-1.07762">
        <ele>109.1</ele>
        <time>2011-07-03T06:22:37Z</time>
      </trkpt>
      <trkpt lat="47.25748" lon="-1.07759">
        <ele>108.9</ele>
        <time>2011-07-03T06:22:38Z</time>
      </trkpt>
      <trkpt lat="47.25724" lon="-1.0774">
        <ele>108.7</ele>
        <time>2011-07-03T06:22:44Z</time>
      </trkpt>
      <trkpt lat="47.25721" lon="-1.0774">
        <ele>108.2</ele>
        <time>2011-07-03T06:22:45Z</time>
      </trkpt>
      <trkpt lat="47.25719" lon="-1.0774">
        <ele>107.8</ele>
        <time>2011-07-03T06:22:46Z</time>
      </trkpt>
      <trkpt lat="47.25717" lon="-1.07741">
        <ele>107.5</ele>
        <time>2011-07-03T06:22:47Z</time>
      </trkpt>
      <trkpt lat="47.25714" lon="-1.07743">
        <ele>107.3</ele>
        <time>2011-07-03T06:22:48Z</time>
      </trkpt>
      <trkpt lat="47.25712" lon="-1.07744">
        <ele>106.7</ele>
        <time>2011-07-03T06:22:49Z</time>
      </trkpt>
      <trkpt lat="47.25709" lon="-1.07742">
        <ele>106.2</ele>
        <time>2011-07-03T06:22:50Z</time>
      </trkpt>
      <trkpt lat="47.25707" lon="-1.07739">
        <ele>105.9</ele>
        <time>2011-07-03T06:22:51Z</time>
      </trkpt>
      <trkpt lat="47.25702" lon="-1.0773">
        <ele>106.2</ele>
        <time>2011-07-03T06:22:53Z</time>
      </trkpt>
      <trkpt lat="47.25689" lon="-1.07717">
        <ele>106.2</ele>
        <time>2011-07-03T06:22:56Z</time>
      </trkpt>
      <trkpt lat="47.25682" lon="-1.07707">
        <ele>106</ele>
        <time>2011-07-03T06:22:58Z</time>
      </trkpt>
      <trkpt lat="47.25678" lon="-1.07706">
        <ele>105.8</ele>
        <time>2011-07-03T06:22:59Z</time>
      </trkpt>
      <trkpt lat="47.25674" lon="-1.07707">
        <ele>105.7</ele>
        <time>2011-07-03T06:23:00Z</time>
      </trkpt>
      <trkpt lat="47.2567" lon="-1.0771">
        <ele>105.1</ele>
        <time>2011-07-03T06:23:01Z</time>
      </trkpt>
      <trkpt lat="47.25621" lon="-1.07765">
        <ele>103.2</ele>
        <time>2011-07-03T06:23:14Z</time>
      </trkpt>
      <trkpt lat="47.25582" lon="-1.07799">
        <ele>103.5</ele>
        <time>2011-07-03T06:23:23Z</time>
      </trkpt>
      <trkpt lat="47.25578" lon="-1.07802">
        <ele>103.2</ele>
        <time>2011-07-03T06:23:24Z</time>
      </trkpt>
      <trkpt lat="47.25568" lon="-1.07813">
        <ele>103</ele>
        <time>2011-07-03T06:23:27Z</time>
      </trkpt>
      <trkpt lat="47.25567" lon="-1.07817">
        <ele>103.1</ele>
        <time>2011-07-03T06:23:28Z</time>
      </trkpt>
      <trkpt lat="47.25587" lon="-1.07968">
        <ele>104.7</ele>
        <time>2011-07-03T06:23:53Z</time>
      </trkpt>
      <trkpt lat="47.25587" lon="-1.07975">
        <ele>105</ele>
        <time>2011-07-03T06:23:54Z</time>
      </trkpt>
      <trkpt lat="47.25585" lon="-1.08031">
        <ele>105.6</ele>
        <time>2011-07-03T06:24:03Z</time>
      </trkpt>
      <trkpt lat="47.25583" lon="-1.08043">
        <ele>105.4</ele>
        <time>2011-07-03T06:24:05Z</time>
      </trkpt>
      <trkpt lat="47.25542" lon="-1.08267">
        <ele>111.3</ele>
        <time>2011-07-03T06:24:44Z</time>
      </trkpt>
      <trkpt lat="47.25542" lon="-1.08272">
        <ele>111.1</ele>
        <time>2011-07-03T06:24:45Z</time>
      </trkpt>
      <trkpt lat="47.25543" lon="-1.08277">
        <ele>111.1</ele>
        <time>2011-07-03T06:24:46Z</time>
      </trkpt>
      <trkpt lat="47.25544" lon="-1.08281">
        <ele>111.2</ele>
        <time>2011-07-03T06:24:47Z</time>
      </trkpt>
      <trkpt lat="47.25546" lon="-1.08285">
        <ele>111.2</ele>
        <time>2011-07-03T06:24:48Z</time>
      </trkpt>
      <trkpt lat="47.25548" lon="-1.08287">
        <ele>111.2</ele>
        <time>2011-07-03T06:24:49Z</time>
      </trkpt>
      <trkpt lat="47.25551" lon="-1.08287">
        <ele>111.4</ele>
        <time>2011-07-03T06:24:50Z</time>
      </trkpt>
      <trkpt lat="47.25697" lon="-1.08207">
        <ele>117</ele>
        <time>2011-07-03T06:25:36Z</time>
      </trkpt>
      <trkpt lat="47.25774" lon="-1.08146">
        <ele>121.3</ele>
        <time>2011-07-03T06:26:06Z</time>
      </trkpt>
      <trkpt lat="47.25777" lon="-1.08145">
        <ele>121.5</ele>
        <time>2011-07-03T06:26:07Z</time>
      </trkpt>
      <trkpt lat="47.2578" lon="-1.08144">
        <ele>121.7</ele>
        <time>2011-07-03T06:26:08Z</time>
      </trkpt>
      <trkpt lat="47.25783" lon="-1.08145">
        <ele>121.9</ele>
        <time>2011-07-03T06:26:09Z</time>
      </trkpt>
      <trkpt lat="47.25785" lon="-1.08148">
        <ele>121.6</ele>
        <time>2011-07-03T06:26:10Z</time>
      </trkpt>
      <trkpt lat="47.25798" lon="-1.08183">
        <ele>123</ele>
        <time>2011-07-03T06:26:19Z</time>
      </trkpt>
      <trkpt lat="47.25807" lon="-1.08219">
        <ele>123.3</ele>
        <time>2011-07-03T06:26:27Z</time>
      </trkpt>
      <trkpt lat="47.25808" lon="-1.08224">
        <ele>123.2</ele>
        <time>2011-07-03T06:26:28Z</time>
      </trkpt>
      <trkpt lat="47.25807" lon="-1.08229">
        <ele>123.3</ele>
        <time>2011-07-03T06:26:29Z</time>
      </trkpt>
      <trkpt lat="47.25807" lon="-1.08234">
        <ele>123.3</ele>
        <time>2011-07-03T06:26:30Z</time>
      </trkpt>
      <trkpt lat="47.25806" lon="-1.08238">
        <ele>123.3</ele>
        <time>2011-07-03T06:26:31Z</time>
      </trkpt>
      <trkpt lat="47.25804" lon="-1.08243">
        <ele>123.1</ele>
        <time>2011-07-03T06:26:32Z</time>
      </trkpt>
      <trkpt lat="47.25803" lon="-1.08248">
        <ele>123</ele>
        <time>2011-07-03T06:26:33Z</time>
      </trkpt>
      <trkpt lat="47.2579" lon="-1.08277">
        <ele>122.5</ele>
        <time>2011-07-03T06:26:39Z</time>
      </trkpt>
      <trkpt lat="47.25787" lon="-1.08282">
        <ele>122.3</ele>
        <time>2011-07-03T06:26:40Z</time>
      </trkpt>
      <trkpt lat="47.25771" lon="-1.08314">
        <ele>122.5</ele>
        <time>2011-07-03T06:26:46Z</time>
      </trkpt>
      <trkpt lat="47.25765" lon="-1.08331">
        <ele>122.6</ele>
        <time>2011-07-03T06:26:49Z</time>
      </trkpt>
      <trkpt lat="47.25764" lon="-1.08337">
        <ele>122.7</ele>
        <time>2011-07-03T06:26:50Z</time>
      </trkpt>
      <trkpt lat="47.2575" lon="-1.08416">
        <ele>122.3</ele>
        <time>2011-07-03T06:27:03Z</time>
      </trkpt>
      <trkpt lat="47.2575" lon="-1.0842">
        <ele>122.5</ele>
        <time>2011-07-03T06:27:04Z</time>
      </trkpt>
      <trkpt lat="47.25751" lon="-1.08423">
        <ele>122.7</ele>
        <time>2011-07-03T06:27:05Z</time>
      </trkpt>
      <trkpt lat="47.25753" lon="-1.08425">
        <ele>122.9</ele>
        <time>2011-07-03T06:27:06Z</time>
      </trkpt>
      <trkpt lat="47.25756" lon="-1.08426">
        <ele>122.8</ele>
        <time>2011-07-03T06:27:07Z</time>
      </trkpt>
      <trkpt lat="47.25762" lon="-1.08427">
        <ele>122.6</ele>
        <time>2011-07-03T06:27:09Z</time>
      </trkpt>
      <trkpt lat="47.25769" lon="-1.08429">
        <ele>122.5</ele>
        <time>2011-07-03T06:27:11Z</time>
      </trkpt>
      <trkpt lat="47.25834" lon="-1.08466">
        <ele>123.2</ele>
        <time>2011-07-03T06:27:26Z</time>
      </trkpt>
      <trkpt lat="47.25839" lon="-1.08467">
        <ele>123</ele>
        <time>2011-07-03T06:27:27Z</time>
      </trkpt>
      <trkpt lat="47.25845" lon="-1.08467">
        <ele>122.9</ele>
        <time>2011-07-03T06:27:28Z</time>
      </trkpt>
      <trkpt lat="47.2585" lon="-1.08466">
        <ele>123</ele>
        <time>2011-07-03T06:27:29Z</time>
      </trkpt>
      <trkpt lat="47.25918" lon="-1.08446">
        <ele>123.1</ele>
        <time>2011-07-03T06:27:43Z</time>
      </trkpt>
      <trkpt lat="47.25934" lon="-1.08445">
        <ele>123.2</ele>
        <time>2011-07-03T06:27:46Z</time>
      </trkpt>
      <trkpt lat="47.25969" lon="-1.08446">
        <ele>123</ele>
        <time>2011-07-03T06:27:53Z</time>
      </trkpt>
      <trkpt lat="47.26015" lon="-1.08444">
        <ele>122.5</ele>
        <time>2011-07-03T06:28:02Z</time>
      </trkpt>
      <trkpt lat="47.2602" lon="-1.08442">
        <ele>122.4</ele>
        <time>2011-07-03T06:28:03Z</time>
      </trkpt>
      <trkpt lat="47.26029" lon="-1.08439">
        <ele>122.7</ele>
        <time>2011-07-03T06:28:05Z</time>
      </trkpt>
      <trkpt lat="47.26034" lon="-1.08437">
        <ele>123</ele>
        <time>2011-07-03T06:28:06Z</time>
      </trkpt>
      <trkpt lat="47.26068" lon="-1.08414">
        <ele>123.7</ele>
        <time>2011-07-03T06:28:14Z</time>
      </trkpt>
      <trkpt lat="47.26106" lon="-1.08389">
        <ele>124.1</ele>
        <time>2011-07-03T06:28:23Z</time>
      </trkpt>
      <trkpt lat="47.26115" lon="-1.08386">
        <ele>123.9</ele>
        <time>2011-07-03T06:28:25Z</time>
      </trkpt>
      <trkpt lat="47.2612" lon="-1.08386">
        <ele>123.9</ele>
        <time>2011-07-03T06:28:26Z</time>
      </trkpt>
      <trkpt lat="47.26162" lon="-1.08387">
        <ele>125</ele>
        <time>2011-07-03T06:28:35Z</time>
      </trkpt>
      <trkpt lat="47.26175" lon="-1.08387">
        <ele>125.2</ele>
        <time>2011-07-03T06:28:38Z</time>
      </trkpt>
      <trkpt lat="47.2618" lon="-1.08388">
        <ele>125.2</ele>
        <time>2011-07-03T06:28:39Z</time>
      </trkpt>
      <trkpt lat="47.26184" lon="-1.0839">
        <ele>125.4</ele>
        <time>2011-07-03T06:28:40Z</time>
      </trkpt>
      <trkpt lat="47.26188" lon="-1.08395">
        <ele>125.5</ele>
        <time>2011-07-03T06:28:41Z</time>
      </trkpt>
      <trkpt lat="47.2619" lon="-1.08401">
        <ele>125.6</ele>
        <time>2011-07-03T06:28:42Z</time>
      </trkpt>
      <trkpt lat="47.26192" lon="-1.08408">
        <ele>125.2</ele>
        <time>2011-07-03T06:28:43Z</time>
      </trkpt>
      <trkpt lat="47.26192" lon="-1.08416">
        <ele>125</ele>
        <time>2011-07-03T06:28:44Z</time>
      </trkpt>
      <trkpt lat="47.2619" lon="-1.08528">
        <ele>124</ele>
        <time>2011-07-03T06:28:57Z</time>
      </trkpt>
      <trkpt lat="47.26168" lon="-1.08742">
        <ele>120.8</ele>
        <time>2011-07-03T06:29:19Z</time>
      </trkpt>
      <trkpt lat="47.26169" lon="-1.08752">
        <ele>120.7</ele>
        <time>2011-07-03T06:29:20Z</time>
      </trkpt>
      <trkpt lat="47.26171" lon="-1.0876">
        <ele>120.5</ele>
        <time>2011-07-03T06:29:21Z</time>
      </trkpt>
      <trkpt lat="47.26197" lon="-1.08856">
        <ele>119.8</ele>
        <time>2011-07-03T06:29:31Z</time>
      </trkpt>
      <trkpt lat="47.2623" lon="-1.08957">
        <ele>115</ele>
        <time>2011-07-03T06:29:42Z</time>
      </trkpt>
      <trkpt lat="47.2623" lon="-1.08962">
        <ele>114.9</ele>
        <time>2011-07-03T06:29:43Z</time>
      </trkpt>
      <trkpt lat="47.26229" lon="-1.08968">
        <ele>114.6</ele>
        <time>2011-07-03T06:29:44Z</time>
      </trkpt>
      <trkpt lat="47.26227" lon="-1.08972">
        <ele>114.3</ele>
        <time>2011-07-03T06:29:45Z</time>
      </trkpt>
      <trkpt lat="47.26224" lon="-1.08976">
        <ele>114.1</ele>
        <time>2011-07-03T06:29:46Z</time>
      </trkpt>
      <trkpt lat="47.26212" lon="-1.08986">
        <ele>112.7</ele>
        <time>2011-07-03T06:29:49Z</time>
      </trkpt>
      <trkpt lat="47.26207" lon="-1.08989">
        <ele>112.5</ele>
        <time>2011-07-03T06:29:50Z</time>
      </trkpt>
      <trkpt lat="47.26161" lon="-1.09024">
        <ele>112.5</ele>
        <time>2011-07-03T06:30:01Z</time>
      </trkpt>
      <trkpt lat="47.2615" lon="-1.09035">
        <ele>112.1</ele>
        <time>2011-07-03T06:30:04Z</time>
      </trkpt>
      <trkpt lat="47.26147" lon="-1.09039">
        <ele>112</ele>
        <time>2011-07-03T06:30:05Z</time>
      </trkpt>
      <trkpt lat="47.26145" lon="-1.09045">
        <ele>111.8</ele>
        <time>2011-07-03T06:30:06Z</time>
      </trkpt>
      <trkpt lat="47.26145" lon="-1.09051">
        <ele>111.7</ele>
        <time>2011-07-03T06:30:07Z</time>
      </trkpt>
      <trkpt lat="47.26146" lon="-1.09057">
        <ele>111.6</ele>
        <time>2011-07-03T06:30:08Z</time>
      </trkpt>
      <trkpt lat="47.2616" lon="-1.09109">
        <ele>111.6</ele>
        <time>2011-07-03T06:30:15Z</time>
      </trkpt>
      <trkpt lat="47.2616" lon="-1.09117">
        <ele>111</ele>
        <time>2011-07-03T06:30:16Z</time>
      </trkpt>
      <trkpt lat="47.26161" lon="-1.09126">
        <ele>110.5</ele>
        <time>2011-07-03T06:30:17Z</time>
      </trkpt>
      <trkpt lat="47.2616" lon="-1.09134">
        <ele>110.2</ele>
        <time>2011-07-03T06:30:18Z</time>
      </trkpt>
      <trkpt lat="47.26159" lon="-1.09142">
        <ele>110</ele>
        <time>2011-07-03T06:30:19Z</time>
      </trkpt>
      <trkpt lat="47.26157" lon="-1.09151">
        <ele>109.8</ele>
        <time>2011-07-03T06:30:20Z</time>
      </trkpt>
      <trkpt lat="47.26155" lon="-1.09159">
        <ele>109.7</ele>
        <time>2011-07-03T06:30:21Z</time>
      </trkpt>
      <trkpt lat="47.26152" lon="-1.09167">
        <ele>109.7</ele>
        <time>2011-07-03T06:30:22Z</time>
      </trkpt>
      <trkpt lat="47.26145" lon="-1.09183">
        <ele>109.7</ele>
        <time>2011-07-03T06:30:24Z</time>
      </trkpt>
      <trkpt lat="47.26097" lon="-1.0927">
        <ele>106.4</ele>
        <time>2011-07-03T06:30:36Z</time>
      </trkpt>
      <trkpt lat="47.26094" lon="-1.09278">
        <ele>106.5</ele>
        <time>2011-07-03T06:30:37Z</time>
      </trkpt>
      <trkpt lat="47.26081" lon="-1.09321">
        <ele>106.5</ele>
        <time>2011-07-03T06:30:43Z</time>
      </trkpt>
      <trkpt lat="47.26077" lon="-1.09332">
        <ele>106.3</ele>
        <time>2011-07-03T06:30:45Z</time>
      </trkpt>
      <trkpt lat="47.26065" lon="-1.09358">
        <ele>107.1</ele>
        <time>2011-07-03T06:30:50Z</time>
      </trkpt>
      <trkpt lat="47.26043" lon="-1.094">
        <ele>107.1</ele>
        <time>2011-07-03T06:30:59Z</time>
      </trkpt>
      <trkpt lat="47.25985" lon="-1.09495">
        <ele>110.1</ele>
        <time>2011-07-03T06:31:21Z</time>
      </trkpt>
      <trkpt lat="47.25969" lon="-1.09518">
        <ele>111.5</ele>
        <time>2011-07-03T06:31:27Z</time>
      </trkpt>
      <trkpt lat="47.25916" lon="-1.09576">
        <ele>113</ele>
        <time>2011-07-03T06:31:44Z</time>
      </trkpt>
      <trkpt lat="47.2588" lon="-1.09599">
        <ele>115.4</ele>
        <time>2011-07-03T06:31:54Z</time>
      </trkpt>
      <trkpt lat="47.25758" lon="-1.0965">
        <ele>117</ele>
        <time>2011-07-03T06:32:22Z</time>
      </trkpt>
      <trkpt lat="47.25594" lon="-1.0977">
        <ele>118</ele>
        <time>2011-07-03T06:33:01Z</time>
      </trkpt>
      <trkpt lat="47.2559" lon="-1.09772">
        <ele>118.2</ele>
        <time>2011-07-03T06:33:02Z</time>
      </trkpt>
      <trkpt lat="47.25571" lon="-1.09777">
        <ele>118.8</ele>
        <time>2011-07-03T06:33:06Z</time>
      </trkpt>
      <trkpt lat="47.25558" lon="-1.09779">
        <ele>119.1</ele>
        <time>2011-07-03T06:33:09Z</time>
      </trkpt>
      <trkpt lat="47.25535" lon="-1.0978">
        <ele>119.1</ele>
        <time>2011-07-03T06:33:14Z</time>
      </trkpt>
      <trkpt lat="47.25379" lon="-1.09775">
        <ele>118.3</ele>
        <time>2011-07-03T06:33:44Z</time>
      </trkpt>
      <trkpt lat="47.25364" lon="-1.09777">
        <ele>118.2</ele>
        <time>2011-07-03T06:33:47Z</time>
      </trkpt>
      <trkpt lat="47.25217" lon="-1.09812">
        <ele>119.6</ele>
        <time>2011-07-03T06:34:21Z</time>
      </trkpt>
      <trkpt lat="47.25132" lon="-1.09811">
        <ele>117.5</ele>
        <time>2011-07-03T06:34:44Z</time>
      </trkpt>
      <trkpt lat="47.25129" lon="-1.09809">
        <ele>114.3</ele>
        <time>2011-07-03T06:34:45Z</time>
      </trkpt>
      <trkpt lat="47.25126" lon="-1.09806">
        <ele>112</ele>
        <time>2011-07-03T06:34:46Z</time>
      </trkpt>
      <trkpt lat="47.25125" lon="-1.09802">
        <ele>110</ele>
        <time>2011-07-03T06:34:47Z</time>
      </trkpt>
      <trkpt lat="47.25121" lon="-1.09787">
        <ele>106.8</ele>
        <time>2011-07-03T06:34:50Z</time>
      </trkpt>
      <trkpt lat="47.25119" lon="-1.09783">
        <ele>106.4</ele>
        <time>2011-07-03T06:34:51Z</time>
      </trkpt>
      <trkpt lat="47.25115" lon="-1.09779">
        <ele>106.1</ele>
        <time>2011-07-03T06:34:52Z</time>
      </trkpt>
      <trkpt lat="47.25111" lon="-1.09777">
        <ele>105.7</ele>
        <time>2011-07-03T06:34:53Z</time>
      </trkpt>
      <trkpt lat="47.25027" lon="-1.09749">
        <ele>105.6</ele>
        <time>2011-07-03T06:35:16Z</time>
      </trkpt>
      <trkpt lat="47.25024" lon="-1.09751">
        <ele>105.7</ele>
        <time>2011-07-03T06:35:17Z</time>
      </trkpt>
      <trkpt lat="47.25023" lon="-1.09753">
        <ele>105.8</ele>
        <time>2011-07-03T06:35:18Z</time>
      </trkpt>
      <trkpt lat="47.25022" lon="-1.09754">
        <ele>105.6</ele>
        <time>2011-07-03T06:35:19Z</time>
      </trkpt>
      <trkpt lat="47.25021" lon="-1.09755">
        <ele>105.4</ele>
        <time>2011-07-03T06:35:20Z</time>
      </trkpt>
      <trkpt lat="47.25019" lon="-1.09757">
        <ele>105.3</ele>
        <time>2011-07-03T06:35:22Z</time>
      </trkpt>
      <trkpt lat="47.25017" lon="-1.09757">
        <ele>105.3</ele>
        <time>2011-07-03T06:35:23Z</time>
      </trkpt>
      <trkpt lat="47.25016" lon="-1.0976">
        <ele>105.4</ele>
        <time>2011-07-03T06:35:24Z</time>
      </trkpt>
      <trkpt lat="47.25015" lon="-1.09762">
        <ele>105.4</ele>
        <time>2011-07-03T06:35:25Z</time>
      </trkpt>
      <trkpt lat="47.25014" lon="-1.09766">
        <ele>105.5</ele>
        <time>2011-07-03T06:35:26Z</time>
      </trkpt>
      <trkpt lat="47.25012" lon="-1.09776">
        <ele>105.6</ele>
        <time>2011-07-03T06:35:28Z</time>
      </trkpt>
      <trkpt lat="47.25006" lon="-1.0979">
        <ele>105.7</ele>
        <time>2011-07-03T06:35:31Z</time>
      </trkpt>
      <trkpt lat="47.25003" lon="-1.098">
        <ele>105.9</ele>
        <time>2011-07-03T06:35:33Z</time>
      </trkpt>
      <trkpt lat="47.25002" lon="-1.09805">
        <ele>105.9</ele>
        <time>2011-07-03T06:35:34Z</time>
      </trkpt>
      <trkpt lat="47.25002" lon="-1.09811">
        <ele>106.2</ele>
        <time>2011-07-03T06:35:35Z</time>
      </trkpt>
      <trkpt lat="47.25002" lon="-1.09815">
        <ele>106.4</ele>
        <time>2011-07-03T06:35:36Z</time>
      </trkpt>
      <trkpt lat="47.25001" lon="-1.0982">
        <ele>106.5</ele>
        <time>2011-07-03T06:35:37Z</time>
      </trkpt>
      <trkpt lat="47.25" lon="-1.09825">
        <ele>106.3</ele>
        <time>2011-07-03T06:35:38Z</time>
      </trkpt>
      <trkpt lat="47.24995" lon="-1.09834">
        <ele>106</ele>
        <time>2011-07-03T06:35:40Z</time>
      </trkpt>
      <trkpt lat="47.24992" lon="-1.09845">
        <ele>106.8</ele>
        <time>2011-07-03T06:35:42Z</time>
      </trkpt>
      <trkpt lat="47.2499" lon="-1.09861">
        <ele>106.1</ele>
        <time>2011-07-03T06:35:45Z</time>
      </trkpt>
      <trkpt lat="47.24988" lon="-1.09867">
        <ele>105.8</ele>
        <time>2011-07-03T06:35:46Z</time>
      </trkpt>
      <trkpt lat="47.24983" lon="-1.0989">
        <ele>106</ele>
        <time>2011-07-03T06:35:50Z</time>
      </trkpt>
      <trkpt lat="47.24983" lon="-1.09895">
        <ele>105.5</ele>
        <time>2011-07-03T06:35:51Z</time>
      </trkpt>
      <trkpt lat="47.24982" lon="-1.09916">
        <ele>105.3</ele>
        <time>2011-07-03T06:35:55Z</time>
      </trkpt>
      <trkpt lat="47.2498" lon="-1.09922">
        <ele>105.5</ele>
        <time>2011-07-03T06:35:56Z</time>
      </trkpt>
      <trkpt lat="47.24978" lon="-1.09931">
        <ele>104.9</ele>
        <time>2011-07-03T06:35:58Z</time>
      </trkpt>
      <trkpt lat="47.24978" lon="-1.09935">
        <ele>104.7</ele>
        <time>2011-07-03T06:35:59Z</time>
      </trkpt>
      <trkpt lat="47.24979" lon="-1.09952">
        <ele>105.2</ele>
        <time>2011-07-03T06:36:03Z</time>
      </trkpt>
      <trkpt lat="47.24978" lon="-1.09957">
        <ele>105.2</ele>
        <time>2011-07-03T06:36:04Z</time>
      </trkpt>
      <trkpt lat="47.24977" lon="-1.09961">
        <ele>105.1</ele>
        <time>2011-07-03T06:36:05Z</time>
      </trkpt>
      <trkpt lat="47.24977" lon="-1.09965">
        <ele>105.1</ele>
        <time>2011-07-03T06:36:06Z</time>
      </trkpt>
      <trkpt lat="47.24977" lon="-1.09978">
        <ele>105</ele>
        <time>2011-07-03T06:36:09Z</time>
      </trkpt>
      <trkpt lat="47.24976" lon="-1.0999">
        <ele>104.4</ele>
        <time>2011-07-03T06:36:12Z</time>
      </trkpt>
      <trkpt lat="47.24973" lon="-1.10018">
        <ele>105.4</ele>
        <time>2011-07-03T06:36:18Z</time>
      </trkpt>
      <trkpt lat="47.24974" lon="-1.10029">
        <ele>105.3</ele>
        <time>2011-07-03T06:36:20Z</time>
      </trkpt>
      <trkpt lat="47.24973" lon="-1.10034">
        <ele>105.2</ele>
        <time>2011-07-03T06:36:21Z</time>
      </trkpt>
      <trkpt lat="47.2497" lon="-1.10055">
        <ele>104.6</ele>
        <time>2011-07-03T06:36:25Z</time>
      </trkpt>
      <trkpt lat="47.24968" lon="-1.10059">
        <ele>104.7</ele>
        <time>2011-07-03T06:36:26Z</time>
      </trkpt>
      <trkpt lat="47.24963" lon="-1.1007">
        <ele>104.9</ele>
        <time>2011-07-03T06:36:29Z</time>
      </trkpt>
      <trkpt lat="47.24962" lon="-1.10074">
        <ele>105</ele>
        <time>2011-07-03T06:36:30Z</time>
      </trkpt>
      <trkpt lat="47.24961" lon="-1.10083">
        <ele>105</ele>
        <time>2011-07-03T06:36:32Z</time>
      </trkpt>
      <trkpt lat="47.24953" lon="-1.10112">
        <ele>105.5</ele>
        <time>2011-07-03T06:36:37Z</time>
      </trkpt>
      <trkpt lat="47.24952" lon="-1.10123">
        <ele>105.1</ele>
        <time>2011-07-03T06:36:39Z</time>
      </trkpt>
      <trkpt lat="47.2495" lon="-1.10127">
        <ele>104.7</ele>
        <time>2011-07-03T06:36:40Z</time>
      </trkpt>
      <trkpt lat="47.24948" lon="-1.10133">
        <ele>104.4</ele>
        <time>2011-07-03T06:36:41Z</time>
      </trkpt>
      <trkpt lat="47.2494" lon="-1.10182">
        <ele>102.5</ele>
        <time>2011-07-03T06:36:51Z</time>
      </trkpt>
      <trkpt lat="47.2494" lon="-1.10185">
        <ele>102.5</ele>
        <time>2011-07-03T06:36:52Z</time>
      </trkpt>
      <trkpt lat="47.24941" lon="-1.1019">
        <ele>102.5</ele>
        <time>2011-07-03T06:36:54Z</time>
      </trkpt>
      <trkpt lat="47.24937" lon="-1.10223">
        <ele>102.5</ele>
        <time>2011-07-03T06:37:01Z</time>
      </trkpt>
      <trkpt lat="47.24936" lon="-1.10237">
        <ele>102.1</ele>
        <time>2011-07-03T06:37:04Z</time>
      </trkpt>
      <trkpt lat="47.24934" lon="-1.10239">
        <ele>102.1</ele>
        <time>2011-07-03T06:37:05Z</time>
      </trkpt>
      <trkpt lat="47.24932" lon="-1.1024">
        <ele>102.1</ele>
        <time>2011-07-03T06:37:06Z</time>
      </trkpt>
      <trkpt lat="47.24924" lon="-1.10239">
        <ele>102.5</ele>
        <time>2011-07-03T06:37:09Z</time>
      </trkpt>
      <trkpt lat="47.24922" lon="-1.10237">
        <ele>102.6</ele>
        <time>2011-07-03T06:37:10Z</time>
      </trkpt>
      <trkpt lat="47.24911" lon="-1.1023">
        <ele>101.3</ele>
        <time>2011-07-03T06:37:13Z</time>
      </trkpt>
      <trkpt lat="47.24878" lon="-1.10212">
        <ele>101.5</ele>
        <time>2011-07-03T06:37:23Z</time>
      </trkpt>
      <trkpt lat="47.24864" lon="-1.10207">
        <ele>101.1</ele>
        <time>2011-07-03T06:37:27Z</time>
      </trkpt>
      <trkpt lat="47.24851" lon="-1.10197">
        <ele>100.7</ele>
        <time>2011-07-03T06:37:31Z</time>
      </trkpt>
      <trkpt lat="47.24778" lon="-1.1015">
        <ele>100.2</ele>
        <time>2011-07-03T06:37:49Z</time>
      </trkpt>
      <trkpt lat="47.24752" lon="-1.10123">
        <ele>100.8</ele>
        <time>2011-07-03T06:37:56Z</time>
      </trkpt>
      <trkpt lat="47.24749" lon="-1.10119">
        <ele>100.7</ele>
        <time>2011-07-03T06:37:57Z</time>
      </trkpt>
      <trkpt lat="47.24551" lon="-1.0982">
        <ele>105.1</ele>
        <time>2011-07-03T06:39:02Z</time>
      </trkpt>
      <trkpt lat="47.24549" lon="-1.09816">
        <ele>105</ele>
        <time>2011-07-03T06:39:03Z</time>
      </trkpt>
      <trkpt lat="47.24274" lon="-1.09383">
        <ele>105.6</ele>
        <time>2011-07-03T06:40:32Z</time>
      </trkpt>
      <trkpt lat="47.2427" lon="-1.09374">
        <ele>105</ele>
        <time>2011-07-03T06:40:34Z</time>
      </trkpt>
      <trkpt lat="47.24252" lon="-1.09351">
        <ele>104.9</ele>
        <time>2011-07-03T06:40:40Z</time>
      </trkpt>
      <trkpt lat="47.23755" lon="-1.08628">
        <ele>97.8</ele>
        <time>2011-07-03T06:42:29Z</time>
      </trkpt>
      <trkpt lat="47.2375" lon="-1.08622">
        <ele>98</ele>
        <time>2011-07-03T06:42:30Z</time>
      </trkpt>
      <trkpt lat="47.23686" lon="-1.08527">
        <ele>99.7</ele>
        <time>2011-07-03T06:42:46Z</time>
      </trkpt>
      <trkpt lat="47.23686" lon="-1.0852">
        <ele>99.8</ele>
        <time>2011-07-03T06:42:47Z</time>
      </trkpt>
      <trkpt lat="47.23686" lon="-1.08515">
        <ele>99.9</ele>
        <time>2011-07-03T06:42:48Z</time>
      </trkpt>
      <trkpt lat="47.23695" lon="-1.08495">
        <ele>97.7</ele>
        <time>2011-07-03T06:42:52Z</time>
      </trkpt>
      <trkpt lat="47.23703" lon="-1.08479">
        <ele>97.4</ele>
        <time>2011-07-03T06:42:55Z</time>
      </trkpt>
      <trkpt lat="47.23706" lon="-1.08475">
        <ele>97.5</ele>
        <time>2011-07-03T06:42:56Z</time>
      </trkpt>
      <trkpt lat="47.2374" lon="-1.0843">
        <ele>95.9</ele>
        <time>2011-07-03T06:43:06Z</time>
      </trkpt>
      <trkpt lat="47.23744" lon="-1.08423">
        <ele>95.7</ele>
        <time>2011-07-03T06:43:07Z</time>
      </trkpt>
      <trkpt lat="47.23752" lon="-1.08408">
        <ele>95.6</ele>
        <time>2011-07-03T06:43:09Z</time>
      </trkpt>
      <trkpt lat="47.23765" lon="-1.08377">
        <ele>95.3</ele>
        <time>2011-07-03T06:43:13Z</time>
      </trkpt>
      <trkpt lat="47.23769" lon="-1.08371">
        <ele>94.9</ele>
        <time>2011-07-03T06:43:14Z</time>
      </trkpt>
      <trkpt lat="47.23774" lon="-1.08366">
        <ele>94.6</ele>
        <time>2011-07-03T06:43:15Z</time>
      </trkpt>
      <trkpt lat="47.23807" lon="-1.0834">
        <ele>94</ele>
        <time>2011-07-03T06:43:21Z</time>
      </trkpt>
      <trkpt lat="47.23825" lon="-1.08315">
        <ele>92.8</ele>
        <time>2011-07-03T06:43:25Z</time>
      </trkpt>
      <trkpt lat="47.23831" lon="-1.08308">
        <ele>92.5</ele>
        <time>2011-07-03T06:43:26Z</time>
      </trkpt>
      <trkpt lat="47.23837" lon="-1.08301">
        <ele>91.9</ele>
        <time>2011-07-03T06:43:27Z</time>
      </trkpt>
      <trkpt lat="47.23843" lon="-1.08298">
        <ele>91.5</ele>
        <time>2011-07-03T06:43:28Z</time>
      </trkpt>
      <trkpt lat="47.2385" lon="-1.08296">
        <ele>91.2</ele>
        <time>2011-07-03T06:43:29Z</time>
      </trkpt>
      <trkpt lat="47.23855" lon="-1.08296">
        <ele>90.3</ele>
        <time>2011-07-03T06:43:30Z</time>
      </trkpt>
      <trkpt lat="47.23861" lon="-1.08296">
        <ele>89.2</ele>
        <time>2011-07-03T06:43:32Z</time>
      </trkpt>
      <trkpt lat="47.23863" lon="-1.08296">
        <ele>88.9</ele>
        <time>2011-07-03T06:43:33Z</time>
      </trkpt>
      <trkpt lat="47.23864" lon="-1.08296">
        <ele>88.3</ele>
        <time>2011-07-03T06:43:34Z</time>
      </trkpt>
      <trkpt lat="47.23865" lon="-1.08295">
        <ele>87.8</ele>
        <time>2011-07-03T06:43:35Z</time>
      </trkpt>
      <trkpt lat="47.23868" lon="-1.08296">
        <ele>87.2</ele>
        <time>2011-07-03T06:43:37Z</time>
      </trkpt>
      <trkpt lat="47.2387" lon="-1.08296">
        <ele>86.9</ele>
        <time>2011-07-03T06:43:38Z</time>
      </trkpt>
      <trkpt lat="47.23875" lon="-1.08296">
        <ele>86.6</ele>
        <time>2011-07-03T06:43:41Z</time>
      </trkpt>
      <trkpt lat="47.23882" lon="-1.08295">
        <ele>86.6</ele>
        <time>2011-07-03T06:43:46Z</time>
      </trkpt>
      <trkpt lat="47.23884" lon="-1.08295">
        <ele>86.6</ele>
        <time>2011-07-03T06:43:48Z</time>
      </trkpt>
      <trkpt lat="47.23887" lon="-1.08295">
        <ele>86.5</ele>
        <time>2011-07-03T06:43:50Z</time>
      </trkpt>
      <trkpt lat="47.2389" lon="-1.08295">
        <ele>86.6</ele>
        <time>2011-07-03T06:43:53Z</time>
      </trkpt>
      <trkpt lat="47.23891" lon="-1.08295">
        <ele>86.8</ele>
        <time>2011-07-03T06:43:54Z</time>
      </trkpt>
      <trkpt lat="47.23891" lon="-1.08295">
        <ele>87</ele>
        <time>2011-07-03T06:43:55Z</time>
      </trkpt>
      <trkpt lat="47.23897" lon="-1.08298">
        <ele>86.7</ele>
        <time>2011-07-03T06:44:00Z</time>
      </trkpt>
      <trkpt lat="47.23897" lon="-1.08298">
        <ele>86.7</ele>
        <time>2011-07-03T06:44:01Z</time>
      </trkpt>
      <trkpt lat="47.23904" lon="-1.083">
        <ele>87.4</ele>
        <time>2011-07-03T06:44:07Z</time>
      </trkpt>
      <trkpt lat="47.23906" lon="-1.083">
        <ele>87.8</ele>
        <time>2011-07-03T06:44:09Z</time>
      </trkpt>
      <trkpt lat="47.23939" lon="-1.08284">
        <ele>90.3</ele>
        <time>2011-07-03T06:44:26Z</time>
      </trkpt>
      <trkpt lat="47.23941" lon="-1.08283">
        <ele>90.6</ele>
        <time>2011-07-03T06:44:27Z</time>
      </trkpt>
      <trkpt lat="47.23959" lon="-1.08267">
        <ele>92.1</ele>
        <time>2011-07-03T06:44:35Z</time>
      </trkpt>
      <trkpt lat="47.23961" lon="-1.08265">
        <ele>92.1</ele>
        <time>2011-07-03T06:44:36Z</time>
      </trkpt>
      <trkpt lat="47.23966" lon="-1.08262">
        <ele>92.4</ele>
        <time>2011-07-03T06:44:38Z</time>
      </trkpt>
      <trkpt lat="47.24033" lon="-1.08235">
        <ele>96</ele>
        <time>2011-07-03T06:44:54Z</time>
      </trkpt>
      <trkpt lat="47.24057" lon="-1.08219">
        <ele>95.9</ele>
        <time>2011-07-03T06:45:00Z</time>
      </trkpt>
      <trkpt lat="47.24079" lon="-1.08208">
        <ele>96.6</ele>
        <time>2011-07-03T06:45:05Z</time>
      </trkpt>
      <trkpt lat="47.24083" lon="-1.08205">
        <ele>97</ele>
        <time>2011-07-03T06:45:06Z</time>
      </trkpt>
      <trkpt lat="47.24086" lon="-1.08201">
        <ele>97.3</ele>
        <time>2011-07-03T06:45:07Z</time>
      </trkpt>
      <trkpt lat="47.24089" lon="-1.08196">
        <ele>97.5</ele>
        <time>2011-07-03T06:45:08Z</time>
      </trkpt>
      <trkpt lat="47.24091" lon="-1.08192">
        <ele>97.5</ele>
        <time>2011-07-03T06:45:09Z</time>
      </trkpt>
      <trkpt lat="47.24092" lon="-1.08187">
        <ele>97.6</ele>
        <time>2011-07-03T06:45:10Z</time>
      </trkpt>
      <trkpt lat="47.24093" lon="-1.08179">
        <ele>97.4</ele>
        <time>2011-07-03T06:45:12Z</time>
      </trkpt>
      <trkpt lat="47.24094" lon="-1.08129">
        <ele>97.2</ele>
        <time>2011-07-03T06:45:21Z</time>
      </trkpt>
      <trkpt lat="47.24093" lon="-1.0812">
        <ele>97.1</ele>
        <time>2011-07-03T06:45:22Z</time>
      </trkpt>
      <trkpt lat="47.24091" lon="-1.08078">
        <ele>95.9</ele>
        <time>2011-07-03T06:45:27Z</time>
      </trkpt>
      <trkpt lat="47.24092" lon="-1.08061">
        <ele>95.3</ele>
        <time>2011-07-03T06:45:29Z</time>
      </trkpt>
      <trkpt lat="47.24092" lon="-1.08052">
        <ele>95.2</ele>
        <time>2011-07-03T06:45:30Z</time>
      </trkpt>
      <trkpt lat="47.24095" lon="-1.08035">
        <ele>94.9</ele>
        <time>2011-07-03T06:45:32Z</time>
      </trkpt>
      <trkpt lat="47.24094" lon="-1.08027">
        <ele>94.8</ele>
        <time>2011-07-03T06:45:33Z</time>
      </trkpt>
      <trkpt lat="47.24092" lon="-1.0802">
        <ele>94.8</ele>
        <time>2011-07-03T06:45:34Z</time>
      </trkpt>
      <trkpt lat="47.2408" lon="-1.07992">
        <ele>95.2</ele>
        <time>2011-07-03T06:45:39Z</time>
      </trkpt>
      <trkpt lat="47.24078" lon="-1.07986">
        <ele>95.6</ele>
        <time>2011-07-03T06:45:40Z</time>
      </trkpt>
      <trkpt lat="47.24076" lon="-1.07967">
        <ele>96.1</ele>
        <time>2011-07-03T06:45:43Z</time>
      </trkpt>
      <trkpt lat="47.24074" lon="-1.07955">
        <ele>96.4</ele>
        <time>2011-07-03T06:45:45Z</time>
      </trkpt>
      <trkpt lat="47.24059" lon="-1.07912">
        <ele>98</ele>
        <time>2011-07-03T06:45:54Z</time>
      </trkpt>
      <trkpt lat="47.24059" lon="-1.07906">
        <ele>97.9</ele>
        <time>2011-07-03T06:45:55Z</time>
      </trkpt>
      <trkpt lat="47.24057" lon="-1.07834">
        <ele>99.2</ele>
        <time>2011-07-03T06:46:05Z</time>
      </trkpt>
      <trkpt lat="47.24069" lon="-1.07757">
        <ele>100.8</ele>
        <time>2011-07-03T06:46:15Z</time>
      </trkpt>
      <trkpt lat="47.24082" lon="-1.07683">
        <ele>101.6</ele>
        <time>2011-07-03T06:46:25Z</time>
      </trkpt>
      <trkpt lat="47.24109" lon="-1.07589">
        <ele>101</ele>
        <time>2011-07-03T06:46:40Z</time>
      </trkpt>
      <trkpt lat="47.24112" lon="-1.07568">
        <ele>100.5</ele>
        <time>2011-07-03T06:46:43Z</time>
      </trkpt>
      <trkpt lat="47.24114" lon="-1.07563">
        <ele>100.3</ele>
        <time>2011-07-03T06:46:44Z</time>
      </trkpt>
      <trkpt lat="47.24149" lon="-1.07491">
        <ele>100.6</ele>
        <time>2011-07-03T06:46:57Z</time>
      </trkpt>
      <trkpt lat="47.24206" lon="-1.07415">
        <ele>101.3</ele>
        <time>2011-07-03T06:47:14Z</time>
      </trkpt>
      <trkpt lat="47.24261" lon="-1.07329">
        <ele>103.1</ele>
        <time>2011-07-03T06:47:34Z</time>
      </trkpt>
      <trkpt lat="47.24262" lon="-1.07325">
        <ele>103</ele>
        <time>2011-07-03T06:47:35Z</time>
      </trkpt>
      <trkpt lat="47.24263" lon="-1.07321">
        <ele>103</ele>
        <time>2011-07-03T06:47:36Z</time>
      </trkpt>
      <trkpt lat="47.24264" lon="-1.07313">
        <ele>103</ele>
        <time>2011-07-03T06:47:38Z</time>
      </trkpt>
      <trkpt lat="47.24264" lon="-1.0731">
        <ele>103.1</ele>
        <time>2011-07-03T06:47:39Z</time>
      </trkpt>
      <trkpt lat="47.24264" lon="-1.07307">
        <ele>103.2</ele>
        <time>2011-07-03T06:47:40Z</time>
      </trkpt>
      <trkpt lat="47.24263" lon="-1.07305">
        <ele>103.3</ele>
        <time>2011-07-03T06:47:41Z</time>
      </trkpt>
      <trkpt lat="47.24262" lon="-1.07302">
        <ele>103.5</ele>
        <time>2011-07-03T06:47:42Z</time>
      </trkpt>
      <trkpt lat="47.2426" lon="-1.073">
        <ele>103.7</ele>
        <time>2011-07-03T06:47:43Z</time>
      </trkpt>
      <trkpt lat="47.24255" lon="-1.07294">
        <ele>104.2</ele>
        <time>2011-07-03T06:47:46Z</time>
      </trkpt>
      <trkpt lat="47.24254" lon="-1.07292">
        <ele>104.4</ele>
        <time>2011-07-03T06:47:47Z</time>
      </trkpt>
      <trkpt lat="47.24253" lon="-1.07289">
        <ele>104</ele>
        <time>2011-07-03T06:47:48Z</time>
      </trkpt>
      <trkpt lat="47.24253" lon="-1.07286">
        <ele>103.7</ele>
        <time>2011-07-03T06:47:49Z</time>
      </trkpt>
      <trkpt lat="47.24254" lon="-1.07283">
        <ele>103.5</ele>
        <time>2011-07-03T06:47:50Z</time>
      </trkpt>
      <trkpt lat="47.24255" lon="-1.07281">
        <ele>103.3</ele>
        <time>2011-07-03T06:47:51Z</time>
      </trkpt>
      <trkpt lat="47.24261" lon="-1.07275">
        <ele>104</ele>
        <time>2011-07-03T06:47:55Z</time>
      </trkpt>
      <trkpt lat="47.24263" lon="-1.07272">
        <ele>104.1</ele>
        <time>2011-07-03T06:47:56Z</time>
      </trkpt>
      <trkpt lat="47.24267" lon="-1.07267">
        <ele>104.2</ele>
        <time>2011-07-03T06:47:58Z</time>
      </trkpt>
      <trkpt lat="47.24269" lon="-1.07263">
        <ele>104.2</ele>
        <time>2011-07-03T06:47:59Z</time>
      </trkpt>
      <trkpt lat="47.24273" lon="-1.07252">
        <ele>104.2</ele>
        <time>2011-07-03T06:48:02Z</time>
      </trkpt>
      <trkpt lat="47.24305" lon="-1.07181">
        <ele>105.6</ele>
        <time>2011-07-03T06:48:18Z</time>
      </trkpt>
      <trkpt lat="47.24322" lon="-1.07149">
        <ele>106</ele>
        <time>2011-07-03T06:48:25Z</time>
      </trkpt>
      <trkpt lat="47.24418" lon="-1.06984">
        <ele>105.4</ele>
        <time>2011-07-03T06:48:53Z</time>
      </trkpt>
      <trkpt lat="47.24422" lon="-1.06976">
        <ele>105.3</ele>
        <time>2011-07-03T06:48:54Z</time>
      </trkpt>
      <trkpt lat="47.24468" lon="-1.06891">
        <ele>104.2</ele>
        <time>2011-07-03T06:49:07Z</time>
      </trkpt>
      <trkpt lat="47.24527" lon="-1.06756">
        <ele>102.7</ele>
        <time>2011-07-03T06:49:26Z</time>
      </trkpt>
      <trkpt lat="47.24609" lon="-1.06608">
        <ele>102.9</ele>
        <time>2011-07-03T06:49:49Z</time>
      </trkpt>
      <trkpt lat="47.24628" lon="-1.06555">
        <ele>102.5</ele>
        <time>2011-07-03T06:49:57Z</time>
      </trkpt>
      <trkpt lat="47.24631" lon="-1.06549">
        <ele>102.6</ele>
        <time>2011-07-03T06:49:58Z</time>
      </trkpt>
      <trkpt lat="47.24641" lon="-1.06537">
        <ele>102.4</ele>
        <time>2011-07-03T06:50:01Z</time>
      </trkpt>
      <trkpt lat="47.24643" lon="-1.06531">
        <ele>102.3</ele>
        <time>2011-07-03T06:50:02Z</time>
      </trkpt>
      <trkpt lat="47.24643" lon="-1.06525">
        <ele>102.1</ele>
        <time>2011-07-03T06:50:03Z</time>
      </trkpt>
      <trkpt lat="47.24643" lon="-1.06518">
        <ele>101.9</ele>
        <time>2011-07-03T06:50:04Z</time>
      </trkpt>
      <trkpt lat="47.24642" lon="-1.06511">
        <ele>101.8</ele>
        <time>2011-07-03T06:50:05Z</time>
      </trkpt>
      <trkpt lat="47.24641" lon="-1.06504">
        <ele>101.6</ele>
        <time>2011-07-03T06:50:06Z</time>
      </trkpt>
      <trkpt lat="47.24639" lon="-1.06498">
        <ele>101.5</ele>
        <time>2011-07-03T06:50:07Z</time>
      </trkpt>
      <trkpt lat="47.24637" lon="-1.06492">
        <ele>101.4</ele>
        <time>2011-07-03T06:50:08Z</time>
      </trkpt>
      <trkpt lat="47.24634" lon="-1.06486">
        <ele>101.7</ele>
        <time>2011-07-03T06:50:09Z</time>
      </trkpt>
      <trkpt lat="47.24613" lon="-1.06458">
        <ele>102.3</ele>
        <time>2011-07-03T06:50:15Z</time>
      </trkpt>
      <trkpt lat="47.24611" lon="-1.06452">
        <ele>102.3</ele>
        <time>2011-07-03T06:50:16Z</time>
      </trkpt>
      <trkpt lat="47.2461" lon="-1.06445">
        <ele>102.3</ele>
        <time>2011-07-03T06:50:17Z</time>
      </trkpt>
      <trkpt lat="47.24609" lon="-1.06438">
        <ele>102.3</ele>
        <time>2011-07-03T06:50:18Z</time>
      </trkpt>
      <trkpt lat="47.24607" lon="-1.06388">
        <ele>102</ele>
        <time>2011-07-03T06:50:25Z</time>
      </trkpt>
      <trkpt lat="47.24609" lon="-1.06305">
        <ele>102.2</ele>
        <time>2011-07-03T06:50:36Z</time>
      </trkpt>
      <trkpt lat="47.2461" lon="-1.06298">
        <ele>102.4</ele>
        <time>2011-07-03T06:50:37Z</time>
      </trkpt>
      <trkpt lat="47.24612" lon="-1.06291">
        <ele>102.5</ele>
        <time>2011-07-03T06:50:38Z</time>
      </trkpt>
      <trkpt lat="47.24616" lon="-1.06279">
        <ele>102.8</ele>
        <time>2011-07-03T06:50:40Z</time>
      </trkpt>
      <trkpt lat="47.24619" lon="-1.06273">
        <ele>102.4</ele>
        <time>2011-07-03T06:50:41Z</time>
      </trkpt>
      <trkpt lat="47.24652" lon="-1.06219">
        <ele>101.9</ele>
        <time>2011-07-03T06:50:51Z</time>
      </trkpt>
      <trkpt lat="47.24694" lon="-1.06165">
        <ele>101.5</ele>
        <time>2011-07-03T06:51:01Z</time>
      </trkpt>
      <trkpt lat="47.24698" lon="-1.06159">
        <ele>101.5</ele>
        <time>2011-07-03T06:51:02Z</time>
      </trkpt>
      <trkpt lat="47.24709" lon="-1.06131">
        <ele>101.1</ele>
        <time>2011-07-03T06:51:06Z</time>
      </trkpt>
      <trkpt lat="47.24766" lon="-1.06026">
        <ele>97.2</ele>
        <time>2011-07-03T06:51:21Z</time>
      </trkpt>
      <trkpt lat="47.24769" lon="-1.06017">
        <ele>97.1</ele>
        <time>2011-07-03T06:51:22Z</time>
      </trkpt>
      <trkpt lat="47.24776" lon="-1.06">
        <ele>96.7</ele>
        <time>2011-07-03T06:51:24Z</time>
      </trkpt>
      <trkpt lat="47.2487" lon="-1.05648">
        <ele>89.8</ele>
        <time>2011-07-03T06:52:07Z</time>
      </trkpt>
      <trkpt lat="47.2488" lon="-1.05585">
        <ele>88.3</ele>
        <time>2011-07-03T06:52:16Z</time>
      </trkpt>
      <trkpt lat="47.24953" lon="-1.05001">
        <ele>80.9</ele>
        <time>2011-07-03T06:53:29Z</time>
      </trkpt>
      <trkpt lat="47.24953" lon="-1.04993">
        <ele>81.1</ele>
        <time>2011-07-03T06:53:30Z</time>
      </trkpt>
      <trkpt lat="47.24953" lon="-1.04889">
        <ele>79</ele>
        <time>2011-07-03T06:53:43Z</time>
      </trkpt>
      <trkpt lat="47.24945" lon="-1.04769">
        <ele>76.6</ele>
        <time>2011-07-03T06:53:55Z</time>
      </trkpt>
      <trkpt lat="47.24944" lon="-1.04764">
        <ele>76.1</ele>
        <time>2011-07-03T06:53:56Z</time>
      </trkpt>
      <trkpt lat="47.24941" lon="-1.04762">
        <ele>75.7</ele>
        <time>2011-07-03T06:53:57Z</time>
      </trkpt>
      <trkpt lat="47.24938" lon="-1.04762">
        <ele>75.4</ele>
        <time>2011-07-03T06:53:58Z</time>
      </trkpt>
      <trkpt lat="47.24935" lon="-1.04764">
        <ele>74.9</ele>
        <time>2011-07-03T06:53:59Z</time>
      </trkpt>
      <trkpt lat="47.24897" lon="-1.04785">
        <ele>73.4</ele>
        <time>2011-07-03T06:54:08Z</time>
      </trkpt>
      <trkpt lat="47.24893" lon="-1.04785">
        <ele>73.8</ele>
        <time>2011-07-03T06:54:09Z</time>
      </trkpt>
      <trkpt lat="47.24889" lon="-1.04783">
        <ele>74.1</ele>
        <time>2011-07-03T06:54:10Z</time>
      </trkpt>
      <trkpt lat="47.24885" lon="-1.04779">
        <ele>74.4</ele>
        <time>2011-07-03T06:54:11Z</time>
      </trkpt>
      <trkpt lat="47.24871" lon="-1.04767">
        <ele>74.7</ele>
        <time>2011-07-03T06:54:14Z</time>
      </trkpt>
      <trkpt lat="47.24762" lon="-1.047">
        <ele>66.7</ele>
        <time>2011-07-03T06:54:29Z</time>
      </trkpt>
      <trkpt lat="47.24757" lon="-1.04694">
        <ele>65.9</ele>
        <time>2011-07-03T06:54:30Z</time>
      </trkpt>
      <trkpt lat="47.24753" lon="-1.04687">
        <ele>64.6</ele>
        <time>2011-07-03T06:54:31Z</time>
      </trkpt>
      <trkpt lat="47.24736" lon="-1.04646">
        <ele>60.4</ele>
        <time>2011-07-03T06:54:36Z</time>
      </trkpt>
      <trkpt lat="47.24709" lon="-1.04594">
        <ele>58.6</ele>
        <time>2011-07-03T06:54:42Z</time>
      </trkpt>
      <trkpt lat="47.24703" lon="-1.04585">
        <ele>58.2</ele>
        <time>2011-07-03T06:54:43Z</time>
      </trkpt>
      <trkpt lat="47.24696" lon="-1.04577">
        <ele>57.2</ele>
        <time>2011-07-03T06:54:44Z</time>
      </trkpt>
      <trkpt lat="47.24689" lon="-1.04569">
        <ele>56.5</ele>
        <time>2011-07-03T06:54:45Z</time>
      </trkpt>
      <trkpt lat="47.24681" lon="-1.04563">
        <ele>55.9</ele>
        <time>2011-07-03T06:54:46Z</time>
      </trkpt>
      <trkpt lat="47.2466" lon="-1.0455">
        <ele>52.7</ele>
        <time>2011-07-03T06:54:49Z</time>
      </trkpt>
      <trkpt lat="47.24653" lon="-1.04544">
        <ele>51.6</ele>
        <time>2011-07-03T06:54:50Z</time>
      </trkpt>
      <trkpt lat="47.24649" lon="-1.04538">
        <ele>50.8</ele>
        <time>2011-07-03T06:54:51Z</time>
      </trkpt>
      <trkpt lat="47.24647" lon="-1.04532">
        <ele>50.2</ele>
        <time>2011-07-03T06:54:52Z</time>
      </trkpt>
      <trkpt lat="47.24645" lon="-1.04522">
        <ele>48.5</ele>
        <time>2011-07-03T06:54:53Z</time>
      </trkpt>
      <trkpt lat="47.24646" lon="-1.04514">
        <ele>47.2</ele>
        <time>2011-07-03T06:54:54Z</time>
      </trkpt>
      <trkpt lat="47.24656" lon="-1.04445">
        <ele>38.4</ele>
        <time>2011-07-03T06:55:01Z</time>
      </trkpt>
      <trkpt lat="47.24656" lon="-1.04434">
        <ele>37.8</ele>
        <time>2011-07-03T06:55:02Z</time>
      </trkpt>
      <trkpt lat="47.24655" lon="-1.04411">
        <ele>33.6</ele>
        <time>2011-07-03T06:55:05Z</time>
      </trkpt>
      <trkpt lat="47.24656" lon="-1.04404">
        <ele>31.5</ele>
        <time>2011-07-03T06:55:07Z</time>
      </trkpt>
      <trkpt lat="47.24657" lon="-1.044">
        <ele>30.8</ele>
        <time>2011-07-03T06:55:08Z</time>
      </trkpt>
      <trkpt lat="47.24659" lon="-1.04392">
        <ele>30.1</ele>
        <time>2011-07-03T06:55:11Z</time>
      </trkpt>
      <trkpt lat="47.24659" lon="-1.04389">
        <ele>29.4</ele>
        <time>2011-07-03T06:55:13Z</time>
      </trkpt>
      <trkpt lat="47.2466" lon="-1.04379">
        <ele>28.6</ele>
        <time>2011-07-03T06:55:17Z</time>
      </trkpt>
      <trkpt lat="47.2466" lon="-1.04376">
        <ele>28.4</ele>
        <time>2011-07-03T06:55:18Z</time>
      </trkpt>
      <trkpt lat="47.24661" lon="-1.04374">
        <ele>28.9</ele>
        <time>2011-07-03T06:55:19Z</time>
      </trkpt>
      <trkpt lat="47.24663" lon="-1.04372">
        <ele>29.3</ele>
        <time>2011-07-03T06:55:20Z</time>
      </trkpt>
      <trkpt lat="47.2467" lon="-1.04363">
        <ele>29.2</ele>
        <time>2011-07-03T06:55:24Z</time>
      </trkpt>
      <trkpt lat="47.24678" lon="-1.04352">
        <ele>29.4</ele>
        <time>2011-07-03T06:55:27Z</time>
      </trkpt>
      <trkpt lat="47.2468" lon="-1.04348">
        <ele>29.9</ele>
        <time>2011-07-03T06:55:28Z</time>
      </trkpt>
      <trkpt lat="47.24735" lon="-1.04219">
        <ele>30.8</ele>
        <time>2011-07-03T06:55:56Z</time>
      </trkpt>
      <trkpt lat="47.24738" lon="-1.04215">
        <ele>30.5</ele>
        <time>2011-07-03T06:55:57Z</time>
      </trkpt>
      <trkpt lat="47.24741" lon="-1.04208">
        <ele>30.2</ele>
        <time>2011-07-03T06:55:59Z</time>
      </trkpt>
      <trkpt lat="47.24741" lon="-1.04205">
        <ele>30.5</ele>
        <time>2011-07-03T06:56:00Z</time>
      </trkpt>
      <trkpt lat="47.2474" lon="-1.04202">
        <ele>30.8</ele>
        <time>2011-07-03T06:56:01Z</time>
      </trkpt>
      <trkpt lat="47.2472" lon="-1.0418">
        <ele>31.9</ele>
        <time>2011-07-03T06:56:10Z</time>
      </trkpt>
      <trkpt lat="47.24662" lon="-1.04136">
        <ele>38.1</ele>
        <time>2011-07-03T06:56:32Z</time>
      </trkpt>
      <trkpt lat="47.24644" lon="-1.04128">
        <ele>39.6</ele>
        <time>2011-07-03T06:56:38Z</time>
      </trkpt>
      <trkpt lat="47.24641" lon="-1.04127">
        <ele>39.1</ele>
        <time>2011-07-03T06:56:39Z</time>
      </trkpt>
      <trkpt lat="47.24634" lon="-1.04126">
        <ele>38.6</ele>
        <time>2011-07-03T06:56:41Z</time>
      </trkpt>
      <trkpt lat="47.24608" lon="-1.04126">
        <ele>40.7</ele>
        <time>2011-07-03T06:56:50Z</time>
      </trkpt>
      <trkpt lat="47.24606" lon="-1.04128">
        <ele>41</ele>
        <time>2011-07-03T06:56:51Z</time>
      </trkpt>
      <trkpt lat="47.24604" lon="-1.04131">
        <ele>41.2</ele>
        <time>2011-07-03T06:56:52Z</time>
      </trkpt>
      <trkpt lat="47.24603" lon="-1.04134">
        <ele>41.4</ele>
        <time>2011-07-03T06:56:53Z</time>
      </trkpt>
      <trkpt lat="47.24599" lon="-1.04141">
        <ele>42</ele>
        <time>2011-07-03T06:56:56Z</time>
      </trkpt>
      <trkpt lat="47.24596" lon="-1.04146">
        <ele>42.2</ele>
        <time>2011-07-03T06:56:58Z</time>
      </trkpt>
      <trkpt lat="47.24594" lon="-1.04148">
        <ele>42.2</ele>
        <time>2011-07-03T06:56:59Z</time>
      </trkpt>
      <trkpt lat="47.24553" lon="-1.04185">
        <ele>47.8</ele>
        <time>2011-07-03T06:57:23Z</time>
      </trkpt>
      <trkpt lat="47.24552" lon="-1.04186">
        <ele>48</ele>
        <time>2011-07-03T06:57:24Z</time>
      </trkpt>
      <trkpt lat="47.2453" lon="-1.04223">
        <ele>52.7</ele>
        <time>2011-07-03T06:57:41Z</time>
      </trkpt>
      <trkpt lat="47.24484" lon="-1.04278">
        <ele>57.1</ele>
        <time>2011-07-03T06:58:06Z</time>
      </trkpt>
      <trkpt lat="47.24475" lon="-1.04285">
        <ele>57.7</ele>
        <time>2011-07-03T06:58:09Z</time>
      </trkpt>
      <trkpt lat="47.24451" lon="-1.04299">
        <ele>57.9</ele>
        <time>2011-07-03T06:58:17Z</time>
      </trkpt>
      <trkpt lat="47.24448" lon="-1.043">
        <ele>58</ele>
        <time>2011-07-03T06:58:18Z</time>
      </trkpt>
      <trkpt lat="47.24445" lon="-1.043">
        <ele>58.1</ele>
        <time>2011-07-03T06:58:19Z</time>
      </trkpt>
      <trkpt lat="47.24442" lon="-1.043">
        <ele>58.2</ele>
        <time>2011-07-03T06:58:20Z</time>
      </trkpt>
      <trkpt lat="47.24439" lon="-1.04299">
        <ele>58.5</ele>
        <time>2011-07-03T06:58:21Z</time>
      </trkpt>
      <trkpt lat="47.24437" lon="-1.04298">
        <ele>58.7</ele>
        <time>2011-07-03T06:58:22Z</time>
      </trkpt>
      <trkpt lat="47.2442" lon="-1.04282">
        <ele>59.2</ele>
        <time>2011-07-03T06:58:29Z</time>
      </trkpt>
      <trkpt lat="47.24414" lon="-1.04273">
        <ele>59.5</ele>
        <time>2011-07-03T06:58:33Z</time>
      </trkpt>
      <trkpt lat="47.24412" lon="-1.04271">
        <ele>59.5</ele>
        <time>2011-07-03T06:58:34Z</time>
      </trkpt>
      <trkpt lat="47.24407" lon="-1.04267">
        <ele>59.2</ele>
        <time>2011-07-03T06:58:38Z</time>
      </trkpt>
      <trkpt lat="47.24406" lon="-1.04267">
        <ele>59.1</ele>
        <time>2011-07-03T06:58:40Z</time>
      </trkpt>
      <trkpt lat="47.24406" lon="-1.04265">
        <ele>58.8</ele>
        <time>2011-07-03T06:58:54Z</time>
      </trkpt>
      <trkpt lat="47.24406" lon="-1.04263">
        <ele>58.9</ele>
        <time>2011-07-03T06:59:03Z</time>
      </trkpt>
      <trkpt lat="47.24406" lon="-1.04253">
        <ele>58.8</ele>
        <time>2011-07-03T06:59:15Z</time>
      </trkpt>
      <trkpt lat="47.24405" lon="-1.04243">
        <ele>58.7</ele>
        <time>2011-07-03T06:59:18Z</time>
      </trkpt>
      <trkpt lat="47.24405" lon="-1.04239">
        <ele>58.6</ele>
        <time>2011-07-03T06:59:19Z</time>
      </trkpt>
      <trkpt lat="47.24406" lon="-1.04235">
        <ele>58.5</ele>
        <time>2011-07-03T06:59:20Z</time>
      </trkpt>
      <trkpt lat="47.24408" lon="-1.04227">
        <ele>59</ele>
        <time>2011-07-03T06:59:22Z</time>
      </trkpt>
      <trkpt lat="47.24409" lon="-1.04223">
        <ele>59.1</ele>
        <time>2011-07-03T06:59:23Z</time>
      </trkpt>
      <trkpt lat="47.24409" lon="-1.04218">
        <ele>59.2</ele>
        <time>2011-07-03T06:59:24Z</time>
      </trkpt>
      <trkpt lat="47.24407" lon="-1.04213">
        <ele>59.2</ele>
        <time>2011-07-03T06:59:25Z</time>
      </trkpt>
      <trkpt lat="47.24404" lon="-1.0421">
        <ele>59.1</ele>
        <time>2011-07-03T06:59:26Z</time>
      </trkpt>
      <trkpt lat="47.24386" lon="-1.0419">
        <ele>59.5</ele>
        <time>2011-07-03T06:59:31Z</time>
      </trkpt>
      <trkpt lat="47.24382" lon="-1.04185">
        <ele>59.2</ele>
        <time>2011-07-03T06:59:32Z</time>
      </trkpt>
      <trkpt lat="47.24374" lon="-1.04172">
        <ele>58.6</ele>
        <time>2011-07-03T06:59:34Z</time>
      </trkpt>
      <trkpt lat="47.2437" lon="-1.04164">
        <ele>58.4</ele>
        <time>2011-07-03T06:59:35Z</time>
      </trkpt>
      <trkpt lat="47.24283" lon="-1.03957">
        <ele>52</ele>
        <time>2011-07-03T06:59:56Z</time>
      </trkpt>
      <trkpt lat="47.2428" lon="-1.03948">
        <ele>51.7</ele>
        <time>2011-07-03T06:59:57Z</time>
      </trkpt>
      <trkpt lat="47.2427" lon="-1.03907">
        <ele>50.8</ele>
        <time>2011-07-03T07:00:02Z</time>
      </trkpt>
      <trkpt lat="47.24267" lon="-1.03901">
        <ele>51.1</ele>
        <time>2011-07-03T07:00:03Z</time>
      </trkpt>
      <trkpt lat="47.24264" lon="-1.03897">
        <ele>51.3</ele>
        <time>2011-07-03T07:00:04Z</time>
      </trkpt>
      <trkpt lat="47.24262" lon="-1.03894">
        <ele>51.5</ele>
        <time>2011-07-03T07:00:05Z</time>
      </trkpt>
      <trkpt lat="47.24255" lon="-1.03886">
        <ele>52</ele>
        <time>2011-07-03T07:00:08Z</time>
      </trkpt>
      <trkpt lat="47.24252" lon="-1.03884">
        <ele>52.1</ele>
        <time>2011-07-03T07:00:09Z</time>
      </trkpt>
      <trkpt lat="47.24249" lon="-1.03882">
        <ele>52.2</ele>
        <time>2011-07-03T07:00:10Z</time>
      </trkpt>
      <trkpt lat="47.24179" lon="-1.03852">
        <ele>59.3</ele>
        <time>2011-07-03T07:00:34Z</time>
      </trkpt>
      <trkpt lat="47.24167" lon="-1.03852">
        <ele>60.3</ele>
        <time>2011-07-03T07:00:38Z</time>
      </trkpt>
      <trkpt lat="47.24161" lon="-1.03852">
        <ele>60.6</ele>
        <time>2011-07-03T07:00:40Z</time>
      </trkpt>
      <trkpt lat="47.24145" lon="-1.03856">
        <ele>62.1</ele>
        <time>2011-07-03T07:00:45Z</time>
      </trkpt>
      <trkpt lat="47.24099" lon="-1.03872">
        <ele>66.5</ele>
        <time>2011-07-03T07:01:02Z</time>
      </trkpt>
      <trkpt lat="47.24089" lon="-1.03876">
        <ele>67.4</ele>
        <time>2011-07-03T07:01:06Z</time>
      </trkpt>
      <trkpt lat="47.24024" lon="-1.03916">
        <ele>74.4</ele>
        <time>2011-07-03T07:01:33Z</time>
      </trkpt>
      <trkpt lat="47.24016" lon="-1.03918">
        <ele>75.5</ele>
        <time>2011-07-03T07:01:36Z</time>
      </trkpt>
      <trkpt lat="47.24009" lon="-1.03921">
        <ele>76.6</ele>
        <time>2011-07-03T07:01:39Z</time>
      </trkpt>
      <trkpt lat="47.24007" lon="-1.03923">
        <ele>77</ele>
        <time>2011-07-03T07:01:40Z</time>
      </trkpt>
      <trkpt lat="47.24005" lon="-1.03926">
        <ele>77.3</ele>
        <time>2011-07-03T07:01:41Z</time>
      </trkpt>
      <trkpt lat="47.24004" lon="-1.03929">
        <ele>77.3</ele>
        <time>2011-07-03T07:01:42Z</time>
      </trkpt>
      <trkpt lat="47.24002" lon="-1.03932">
        <ele>77.4</ele>
        <time>2011-07-03T07:01:43Z</time>
      </trkpt>
      <trkpt lat="47.24001" lon="-1.03936">
        <ele>77.4</ele>
        <time>2011-07-03T07:01:44Z</time>
      </trkpt>
      <trkpt lat="47.2396" lon="-1.04082">
        <ele>78.3</ele>
        <time>2011-07-03T07:02:10Z</time>
      </trkpt>
      <trkpt lat="47.23958" lon="-1.04088">
        <ele>78.4</ele>
        <time>2011-07-03T07:02:11Z</time>
      </trkpt>
      <trkpt lat="47.23955" lon="-1.04092">
        <ele>78.4</ele>
        <time>2011-07-03T07:02:12Z</time>
      </trkpt>
      <trkpt lat="47.23953" lon="-1.04096">
        <ele>78.5</ele>
        <time>2011-07-03T07:02:13Z</time>
      </trkpt>
      <trkpt lat="47.23951" lon="-1.04099">
        <ele>78.8</ele>
        <time>2011-07-03T07:02:14Z</time>
      </trkpt>
      <trkpt lat="47.23948" lon="-1.04101">
        <ele>79.1</ele>
        <time>2011-07-03T07:02:15Z</time>
      </trkpt>
      <trkpt lat="47.23943" lon="-1.04105">
        <ele>79.6</ele>
        <time>2011-07-03T07:02:17Z</time>
      </trkpt>
      <trkpt lat="47.23941" lon="-1.04107">
        <ele>79.8</ele>
        <time>2011-07-03T07:02:18Z</time>
      </trkpt>
      <trkpt lat="47.23908" lon="-1.0412">
        <ele>82.8</ele>
        <time>2011-07-03T07:02:31Z</time>
      </trkpt>
      <trkpt lat="47.23906" lon="-1.04122">
        <ele>82.9</ele>
        <time>2011-07-03T07:02:32Z</time>
      </trkpt>
      <trkpt lat="47.23896" lon="-1.0413">
        <ele>84</ele>
        <time>2011-07-03T07:02:36Z</time>
      </trkpt>
      <trkpt lat="47.23893" lon="-1.04132">
        <ele>84.2</ele>
        <time>2011-07-03T07:02:37Z</time>
      </trkpt>
      <trkpt lat="47.23824" lon="-1.04159">
        <ele>83.3</ele>
        <time>2011-07-03T07:02:55Z</time>
      </trkpt>
      <trkpt lat="47.23821" lon="-1.0416">
        <ele>82.5</ele>
        <time>2011-07-03T07:02:56Z</time>
      </trkpt>
      <trkpt lat="47.23819" lon="-1.04159">
        <ele>81.8</ele>
        <time>2011-07-03T07:02:57Z</time>
      </trkpt>
      <trkpt lat="47.23817" lon="-1.04157">
        <ele>81.5</ele>
        <time>2011-07-03T07:02:58Z</time>
      </trkpt>
      <trkpt lat="47.23816" lon="-1.04153">
        <ele>81.3</ele>
        <time>2011-07-03T07:02:59Z</time>
      </trkpt>
      <trkpt lat="47.23796" lon="-1.04011">
        <ele>77.6</ele>
        <time>2011-07-03T07:03:23Z</time>
      </trkpt>
      <trkpt lat="47.23795" lon="-1.04004">
        <ele>77.3</ele>
        <time>2011-07-03T07:03:24Z</time>
      </trkpt>
      <trkpt lat="47.23795" lon="-1.03972">
        <ele>75.7</ele>
        <time>2011-07-03T07:03:29Z</time>
      </trkpt>
      <trkpt lat="47.23797" lon="-1.03942">
        <ele>75.7</ele>
        <time>2011-07-03T07:03:35Z</time>
      </trkpt>
      <trkpt lat="47.238" lon="-1.03879">
        <ele>75.9</ele>
        <time>2011-07-03T07:03:49Z</time>
      </trkpt>
      <trkpt lat="47.23799" lon="-1.03847">
        <ele>76.3</ele>
        <time>2011-07-03T07:03:57Z</time>
      </trkpt>
      <trkpt lat="47.23794" lon="-1.03803">
        <ele>77.7</ele>
        <time>2011-07-03T07:04:09Z</time>
      </trkpt>
      <trkpt lat="47.23794" lon="-1.03798">
        <ele>78</ele>
        <time>2011-07-03T07:04:11Z</time>
      </trkpt>
      <trkpt lat="47.23794" lon="-1.03791">
        <ele>77.8</ele>
        <time>2011-07-03T07:04:14Z</time>
      </trkpt>
      <trkpt lat="47.23795" lon="-1.03789">
        <ele>77.9</ele>
        <time>2011-07-03T07:04:15Z</time>
      </trkpt>
      <trkpt lat="47.23795" lon="-1.03787">
        <ele>78</ele>
        <time>2011-07-03T07:04:16Z</time>
      </trkpt>
      <trkpt lat="47.23796" lon="-1.03785">
        <ele>78.1</ele>
        <time>2011-07-03T07:04:17Z</time>
      </trkpt>
      <trkpt lat="47.23797" lon="-1.03784">
        <ele>78.2</ele>
        <time>2011-07-03T07:04:18Z</time>
      </trkpt>
      <trkpt lat="47.23797" lon="-1.03782">
        <ele>78.3</ele>
        <time>2011-07-03T07:04:19Z</time>
      </trkpt>
      <trkpt lat="47.23798" lon="-1.0378">
        <ele>78.4</ele>
        <time>2011-07-03T07:04:20Z</time>
      </trkpt>
      <trkpt lat="47.23797" lon="-1.03777">
        <ele>78.9</ele>
        <time>2011-07-03T07:04:21Z</time>
      </trkpt>
      <trkpt lat="47.23797" lon="-1.03775">
        <ele>79.3</ele>
        <time>2011-07-03T07:04:22Z</time>
      </trkpt>
      <trkpt lat="47.23796" lon="-1.03775">
        <ele>79.6</ele>
        <time>2011-07-03T07:04:23Z</time>
      </trkpt>
      <trkpt lat="47.23795" lon="-1.03775">
        <ele>79.8</ele>
        <time>2011-07-03T07:04:24Z</time>
      </trkpt>
      <trkpt lat="47.23794" lon="-1.03775">
        <ele>79.7</ele>
        <time>2011-07-03T07:04:25Z</time>
      </trkpt>
      <trkpt lat="47.23794" lon="-1.03775">
        <ele>79.6</ele>
        <time>2011-07-03T07:04:26Z</time>
      </trkpt>
      <trkpt lat="47.23794" lon="-1.03774">
        <ele>79.6</ele>
        <time>2011-07-03T07:04:27Z</time>
      </trkpt>
      <trkpt lat="47.23794" lon="-1.03774">
        <ele>79.5</ele>
        <time>2011-07-03T07:04:28Z</time>
      </trkpt>
      <trkpt lat="47.23794" lon="-1.03773">
        <ele>79.4</ele>
        <time>2011-07-03T07:04:32Z</time>
      </trkpt>
      <trkpt lat="47.23794" lon="-1.03772">
        <ele>78.3</ele>
        <time>2011-07-03T07:04:40Z</time>
      </trkpt>
      <trkpt lat="47.23794" lon="-1.03772">
        <ele>78.3</ele>
        <time>2011-07-03T07:04:44Z</time>
      </trkpt>
      <trkpt lat="47.23794" lon="-1.03772">
        <ele>77.8</ele>
        <time>2011-07-03T07:04:49Z</time>
      </trkpt>
      <trkpt lat="47.23794" lon="-1.03772">
        <ele>78.3</ele>
        <time>2011-07-03T07:04:52Z</time>
      </trkpt>
      <trkpt lat="47.23794" lon="-1.03772">
        <ele>78</ele>
        <time>2011-07-03T07:04:55Z</time>
      </trkpt>
      <trkpt lat="47.23794" lon="-1.03772">
        <ele>78.2</ele>
        <time>2011-07-03T07:05:02Z</time>
      </trkpt>
      <trkpt lat="47.23794" lon="-1.03772">
        <ele>78.9</ele>
        <time>2011-07-03T07:05:04Z</time>
      </trkpt>
      <trkpt lat="47.23795" lon="-1.03773">
        <ele>78.4</ele>
        <time>2011-07-03T07:05:11Z</time>
      </trkpt>
      <trkpt lat="47.23796" lon="-1.03774">
        <ele>78.3</ele>
        <time>2011-07-03T07:05:19Z</time>
      </trkpt>
      <trkpt lat="47.23796" lon="-1.03774">
        <ele>78.9</ele>
        <time>2011-07-03T07:05:21Z</time>
      </trkpt>
      <trkpt lat="47.23797" lon="-1.03775">
        <ele>78.3</ele>
        <time>2011-07-03T07:05:27Z</time>
      </trkpt>
      <trkpt lat="47.23797" lon="-1.03775">
        <ele>78.3</ele>
        <time>2011-07-03T07:05:28Z</time>
      </trkpt>
      <trkpt lat="47.23797" lon="-1.03775">
        <ele>78.5</ele>
        <time>2011-07-03T07:05:33Z</time>
      </trkpt>
      <trkpt lat="47.23798" lon="-1.03776">
        <ele>78.6</ele>
        <time>2011-07-03T07:05:36Z</time>
      </trkpt>
      <trkpt lat="47.23798" lon="-1.03776">
        <ele>78.6</ele>
        <time>2011-07-03T07:05:37Z</time>
      </trkpt>
      <trkpt lat="47.23798" lon="-1.03776">
        <ele>78.5</ele>
        <time>2011-07-03T07:05:42Z</time>
      </trkpt>
      <trkpt lat="47.23799" lon="-1.03776">
        <ele>77.9</ele>
        <time>2011-07-03T07:05:45Z</time>
      </trkpt>
      <trkpt lat="47.23799" lon="-1.03776">
        <ele>77.7</ele>
        <time>2011-07-03T07:05:46Z</time>
      </trkpt>
      <trkpt lat="47.23799" lon="-1.03776">
        <ele>78.1</ele>
        <time>2011-07-03T07:05:50Z</time>
      </trkpt>
      <trkpt lat="47.23799" lon="-1.03776">
        <ele>78.6</ele>
        <time>2011-07-03T07:05:58Z</time>
      </trkpt>
      <trkpt lat="47.23799" lon="-1.03776">
        <ele>78.1</ele>
        <time>2011-07-03T07:06:05Z</time>
      </trkpt>
      <trkpt lat="47.238" lon="-1.03776">
        <ele>78</ele>
        <time>2011-07-03T07:06:19Z</time>
      </trkpt>
      <trkpt lat="47.238" lon="-1.03776">
        <ele>78.6</ele>
        <time>2011-07-03T07:06:25Z</time>
      </trkpt>
      <trkpt lat="47.238" lon="-1.03776">
        <ele>78.8</ele>
        <time>2011-07-03T07:06:27Z</time>
      </trkpt>
      <trkpt lat="47.238" lon="-1.03776">
        <ele>78.5</ele>
        <time>2011-07-03T07:06:32Z</time>
      </trkpt>
      <trkpt lat="47.238" lon="-1.03776">
        <ele>78.3</ele>
        <time>2011-07-03T07:06:38Z</time>
      </trkpt>
      <trkpt lat="47.238" lon="-1.03777">
        <ele>78.4</ele>
        <time>2011-07-03T07:06:55Z</time>
      </trkpt>
      <trkpt lat="47.238" lon="-1.03777">
        <ele>78.4</ele>
        <time>2011-07-03T07:06:57Z</time>
      </trkpt>
      <trkpt lat="47.238" lon="-1.03777">
        <ele>79.2</ele>
        <time>2011-07-03T07:07:07Z</time>
      </trkpt>
      <trkpt lat="47.238" lon="-1.03777">
        <ele>79</ele>
        <time>2011-07-03T07:07:09Z</time>
      </trkpt>
      <trkpt lat="47.238" lon="-1.03778">
        <ele>78.8</ele>
        <time>2011-07-03T07:07:15Z</time>
      </trkpt>
      <trkpt lat="47.238" lon="-1.03778">
        <ele>78.4</ele>
        <time>2011-07-03T07:07:23Z</time>
      </trkpt>
      <trkpt lat="47.238" lon="-1.03778">
        <ele>78.4</ele>
        <time>2011-07-03T07:07:30Z</time>
      </trkpt>
      <trkpt lat="47.238" lon="-1.03778">
        <ele>78.3</ele>
        <time>2011-07-03T07:07:32Z</time>
      </trkpt>
      <trkpt lat="47.23801" lon="-1.03777">
        <ele>78.4</ele>
        <time>2011-07-03T07:07:38Z</time>
      </trkpt>
      <trkpt lat="47.23801" lon="-1.03777">
        <ele>78.8</ele>
        <time>2011-07-03T07:07:41Z</time>
      </trkpt>
      <trkpt lat="47.23801" lon="-1.03776">
        <ele>78.9</ele>
        <time>2011-07-03T07:07:44Z</time>
      </trkpt>
      <trkpt lat="47.23801" lon="-1.03776">
        <ele>79</ele>
        <time>2011-07-03T07:07:45Z</time>
      </trkpt>
      <trkpt lat="47.23801" lon="-1.03775">
        <ele>78.7</ele>
        <time>2011-07-03T07:07:46Z</time>
      </trkpt>
      <trkpt lat="47.23802" lon="-1.03775">
        <ele>78.6</ele>
        <time>2011-07-03T07:07:47Z</time>
      </trkpt>
      <trkpt lat="47.23802" lon="-1.03775">
        <ele>78.5</ele>
        <time>2011-07-03T07:07:48Z</time>
      </trkpt>
      <trkpt lat="47.23802" lon="-1.03775">
        <ele>78.4</ele>
        <time>2011-07-03T07:07:49Z</time>
      </trkpt>
      <trkpt lat="47.23802" lon="-1.03775">
        <ele>78.4</ele>
        <time>2011-07-03T07:07:50Z</time>
      </trkpt>
      <trkpt lat="47.23802" lon="-1.03774">
        <ele>78.4</ele>
        <time>2011-07-03T07:07:51Z</time>
      </trkpt>
      <trkpt lat="47.23803" lon="-1.03774">
        <ele>78</ele>
        <time>2011-07-03T07:07:54Z</time>
      </trkpt>
      <trkpt lat="47.23803" lon="-1.03774">
        <ele>78.5</ele>
        <time>2011-07-03T07:07:56Z</time>
      </trkpt>
      <trkpt lat="47.23803" lon="-1.03774">
        <ele>78.6</ele>
        <time>2011-07-03T07:07:58Z</time>
      </trkpt>
      <trkpt lat="47.23803" lon="-1.03774">
        <ele>78.6</ele>
        <time>2011-07-03T07:07:59Z</time>
      </trkpt>
      <trkpt lat="47.23804" lon="-1.03774">
        <ele>78.5</ele>
        <time>2011-07-03T07:08:03Z</time>
      </trkpt>
      <trkpt lat="47.23804" lon="-1.03774">
        <ele>78.3</ele>
        <time>2011-07-03T07:08:06Z</time>
      </trkpt>
      <trkpt lat="47.23804" lon="-1.03774">
        <ele>78.7</ele>
        <time>2011-07-03T07:08:18Z</time>
      </trkpt>
      <trkpt lat="47.23804" lon="-1.03773">
        <ele>78.6</ele>
        <time>2011-07-03T07:08:19Z</time>
      </trkpt>
      <trkpt lat="47.23804" lon="-1.03773">
        <ele>78.5</ele>
        <time>2011-07-03T07:08:21Z</time>
      </trkpt>
      <trkpt lat="47.23804" lon="-1.03772">
        <ele>78.7</ele>
        <time>2011-07-03T07:08:23Z</time>
      </trkpt>
      <trkpt lat="47.23804" lon="-1.03772">
        <ele>78.3</ele>
        <time>2011-07-03T07:08:25Z</time>
      </trkpt>
      <trkpt lat="47.23804" lon="-1.03771">
        <ele>78.3</ele>
        <time>2011-07-03T07:08:28Z</time>
      </trkpt>
      <trkpt lat="47.23803" lon="-1.03771">
        <ele>78.1</ele>
        <time>2011-07-03T07:08:30Z</time>
      </trkpt>
      <trkpt lat="47.23803" lon="-1.03771">
        <ele>78</ele>
        <time>2011-07-03T07:08:35Z</time>
      </trkpt>
      <trkpt lat="47.23803" lon="-1.03772">
        <ele>78.4</ele>
        <time>2011-07-03T07:08:39Z</time>
      </trkpt>
      <trkpt lat="47.23803" lon="-1.03773">
        <ele>78.3</ele>
        <time>2011-07-03T07:08:40Z</time>
      </trkpt>
      <trkpt lat="47.23803" lon="-1.03773">
        <ele>78.1</ele>
        <time>2011-07-03T07:08:42Z</time>
      </trkpt>
      <trkpt lat="47.23803" lon="-1.03774">
        <ele>78.3</ele>
        <time>2011-07-03T07:08:44Z</time>
      </trkpt>
      <trkpt lat="47.23803" lon="-1.03774">
        <ele>78.3</ele>
        <time>2011-07-03T07:08:45Z</time>
      </trkpt>
      <trkpt lat="47.23803" lon="-1.03775">
        <ele>78.6</ele>
        <time>2011-07-03T07:08:46Z</time>
      </trkpt>
      <trkpt lat="47.23802" lon="-1.03775">
        <ele>78.8</ele>
        <time>2011-07-03T07:08:47Z</time>
      </trkpt>
      <trkpt lat="47.23802" lon="-1.03775">
        <ele>78.7</ele>
        <time>2011-07-03T07:08:49Z</time>
      </trkpt>
      <trkpt lat="47.23802" lon="-1.03775">
        <ele>78.4</ele>
        <time>2011-07-03T07:08:50Z</time>
      </trkpt>
      <trkpt lat="47.23801" lon="-1.03776">
        <ele>78.1</ele>
        <time>2011-07-03T07:08:52Z</time>
      </trkpt>
      <trkpt lat="47.23801" lon="-1.03776">
        <ele>78.2</ele>
        <time>2011-07-03T07:08:53Z</time>
      </trkpt>
      <trkpt lat="47.23801" lon="-1.03776">
        <ele>78.3</ele>
        <time>2011-07-03T07:08:54Z</time>
      </trkpt>
      <trkpt lat="47.238" lon="-1.03776">
        <ele>78.3</ele>
        <time>2011-07-03T07:08:55Z</time>
      </trkpt>
      <trkpt lat="47.238" lon="-1.03777">
        <ele>78.4</ele>
        <time>2011-07-03T07:08:57Z</time>
      </trkpt>
      <trkpt lat="47.238" lon="-1.03777">
        <ele>78.5</ele>
        <time>2011-07-03T07:08:58Z</time>
      </trkpt>
      <trkpt lat="47.238" lon="-1.03777">
        <ele>78.4</ele>
        <time>2011-07-03T07:08:59Z</time>
      </trkpt>
      <trkpt lat="47.23799" lon="-1.03777">
        <ele>78.3</ele>
        <time>2011-07-03T07:09:00Z</time>
      </trkpt>
      <trkpt lat="47.23799" lon="-1.03777">
        <ele>78.4</ele>
        <time>2011-07-03T07:09:01Z</time>
      </trkpt>
      <trkpt lat="47.23799" lon="-1.03777">
        <ele>78.4</ele>
        <time>2011-07-03T07:09:02Z</time>
      </trkpt>
      <trkpt lat="47.23798" lon="-1.03777">
        <ele>78.4</ele>
        <time>2011-07-03T07:09:03Z</time>
      </trkpt>
      <trkpt lat="47.23798" lon="-1.03778">
        <ele>78.4</ele>
        <time>2011-07-03T07:09:04Z</time>
      </trkpt>
      <trkpt lat="47.23797" lon="-1.03778">
        <ele>79</ele>
        <time>2011-07-03T07:09:05Z</time>
      </trkpt>
      <trkpt lat="47.23797" lon="-1.03778">
        <ele>79.5</ele>
        <time>2011-07-03T07:09:06Z</time>
      </trkpt>
      <trkpt lat="47.23797" lon="-1.03778">
        <ele>79.9</ele>
        <time>2011-07-03T07:09:07Z</time>
      </trkpt>
      <trkpt lat="47.23796" lon="-1.03779">
        <ele>79.7</ele>
        <time>2011-07-03T07:09:09Z</time>
      </trkpt>
      <trkpt lat="47.23796" lon="-1.03779">
        <ele>79.3</ele>
        <time>2011-07-03T07:09:10Z</time>
      </trkpt>
      <trkpt lat="47.23796" lon="-1.03779">
        <ele>79.1</ele>
        <time>2011-07-03T07:09:11Z</time>
      </trkpt>
      <trkpt lat="47.23795" lon="-1.0378">
        <ele>79.1</ele>
        <time>2011-07-03T07:09:12Z</time>
      </trkpt>
      <trkpt lat="47.23795" lon="-1.0378">
        <ele>78.9</ele>
        <time>2011-07-03T07:09:15Z</time>
      </trkpt>
      <trkpt lat="47.23795" lon="-1.0378">
        <ele>78.7</ele>
        <time>2011-07-03T07:09:16Z</time>
      </trkpt>
      <trkpt lat="47.23795" lon="-1.0378">
        <ele>78.4</ele>
        <time>2011-07-03T07:09:19Z</time>
      </trkpt>
      <trkpt lat="47.23795" lon="-1.03781">
        <ele>78.4</ele>
        <time>2011-07-03T07:09:21Z</time>
      </trkpt>
      <trkpt lat="47.23794" lon="-1.03781">
        <ele>78.5</ele>
        <time>2011-07-03T07:09:22Z</time>
      </trkpt>
      <trkpt lat="47.23794" lon="-1.03781">
        <ele>78.7</ele>
        <time>2011-07-03T07:09:25Z</time>
      </trkpt>
      <trkpt lat="47.23794" lon="-1.03782">
        <ele>78.9</ele>
        <time>2011-07-03T07:09:27Z</time>
      </trkpt>
      <trkpt lat="47.23794" lon="-1.03782">
        <ele>79</ele>
        <time>2011-07-03T07:09:28Z</time>
      </trkpt>
      <trkpt lat="47.23794" lon="-1.03782">
        <ele>79.2</ele>
        <time>2011-07-03T07:09:30Z</time>
      </trkpt>
      <trkpt lat="47.23793" lon="-1.03782">
        <ele>79.5</ele>
        <time>2011-07-03T07:09:32Z</time>
      </trkpt>
      <trkpt lat="47.23793" lon="-1.03781">
        <ele>79.3</ele>
        <time>2011-07-03T07:09:34Z</time>
      </trkpt>
      <trkpt lat="47.23793" lon="-1.03782">
        <ele>79.2</ele>
        <time>2011-07-03T07:09:35Z</time>
      </trkpt>
      <trkpt lat="47.23793" lon="-1.03782">
        <ele>79</ele>
        <time>2011-07-03T07:09:36Z</time>
      </trkpt>
      <trkpt lat="47.23792" lon="-1.03782">
        <ele>78.2</ele>
        <time>2011-07-03T07:09:39Z</time>
      </trkpt>
      <trkpt lat="47.23791" lon="-1.03782">
        <ele>78.3</ele>
        <time>2011-07-03T07:09:41Z</time>
      </trkpt>
      <trkpt lat="47.23791" lon="-1.03782">
        <ele>78.5</ele>
        <time>2011-07-03T07:09:42Z</time>
      </trkpt>
      <trkpt lat="47.2379" lon="-1.03782">
        <ele>78.6</ele>
        <time>2011-07-03T07:09:43Z</time>
      </trkpt>
      <trkpt lat="47.2379" lon="-1.03783">
        <ele>78.5</ele>
        <time>2011-07-03T07:09:44Z</time>
      </trkpt>
      <trkpt lat="47.2379" lon="-1.03783">
        <ele>78.3</ele>
        <time>2011-07-03T07:09:46Z</time>
      </trkpt>
      <trkpt lat="47.23789" lon="-1.03782">
        <ele>78.3</ele>
        <time>2011-07-03T07:09:47Z</time>
      </trkpt>
      <trkpt lat="47.23789" lon="-1.03782">
        <ele>78.5</ele>
        <time>2011-07-03T07:09:50Z</time>
      </trkpt>
      <trkpt lat="47.23789" lon="-1.03782">
        <ele>78.6</ele>
        <time>2011-07-03T07:09:51Z</time>
      </trkpt>
      <trkpt lat="47.23789" lon="-1.03781">
        <ele>78.7</ele>
        <time>2011-07-03T07:09:54Z</time>
      </trkpt>
      <trkpt lat="47.23789" lon="-1.03781">
        <ele>78.2</ele>
        <time>2011-07-03T07:09:59Z</time>
      </trkpt>
      <trkpt lat="47.23788" lon="-1.03781">
        <ele>78.3</ele>
        <time>2011-07-03T07:10:01Z</time>
      </trkpt>
      <trkpt lat="47.23788" lon="-1.03781">
        <ele>78.6</ele>
        <time>2011-07-03T07:10:03Z</time>
      </trkpt>
      <trkpt lat="47.23788" lon="-1.03781">
        <ele>78.8</ele>
        <time>2011-07-03T07:10:04Z</time>
      </trkpt>
      <trkpt lat="47.23788" lon="-1.0378">
        <ele>79.2</ele>
        <time>2011-07-03T07:10:07Z</time>
      </trkpt>
      <trkpt lat="47.23787" lon="-1.0378">
        <ele>79.2</ele>
        <time>2011-07-03T07:10:08Z</time>
      </trkpt>
      <trkpt lat="47.23787" lon="-1.0378">
        <ele>79.1</ele>
        <time>2011-07-03T07:10:09Z</time>
      </trkpt>
      <trkpt lat="47.23787" lon="-1.0378">
        <ele>79</ele>
        <time>2011-07-03T07:10:10Z</time>
      </trkpt>
      <trkpt lat="47.23786" lon="-1.03779">
        <ele>78.9</ele>
        <time>2011-07-03T07:10:12Z</time>
      </trkpt>
      <trkpt lat="47.23786" lon="-1.03779">
        <ele>78.8</ele>
        <time>2011-07-03T07:10:15Z</time>
      </trkpt>
      <trkpt lat="47.23786" lon="-1.03778">
        <ele>78.8</ele>
        <time>2011-07-03T07:10:17Z</time>
      </trkpt>
      <trkpt lat="47.23786" lon="-1.03778">
        <ele>78.7</ele>
        <time>2011-07-03T07:10:19Z</time>
      </trkpt>
      <trkpt lat="47.23786" lon="-1.03778">
        <ele>78.6</ele>
        <time>2011-07-03T07:10:20Z</time>
      </trkpt>
      <trkpt lat="47.23785" lon="-1.03777">
        <ele>78.7</ele>
        <time>2011-07-03T07:10:22Z</time>
      </trkpt>
      <trkpt lat="47.23785" lon="-1.03777">
        <ele>79.1</ele>
        <time>2011-07-03T07:10:29Z</time>
      </trkpt>
      <trkpt lat="47.23785" lon="-1.03777">
        <ele>79.1</ele>
        <time>2011-07-03T07:10:32Z</time>
      </trkpt>
      <trkpt lat="47.23785" lon="-1.03776">
        <ele>78.6</ele>
        <time>2011-07-03T07:10:36Z</time>
      </trkpt>
      <trkpt lat="47.23785" lon="-1.03776">
        <ele>78.7</ele>
        <time>2011-07-03T07:10:41Z</time>
      </trkpt>
      <trkpt lat="47.23785" lon="-1.03775">
        <ele>78.3</ele>
        <time>2011-07-03T07:10:44Z</time>
      </trkpt>
      <trkpt lat="47.23786" lon="-1.03775">
        <ele>78.8</ele>
        <time>2011-07-03T07:10:49Z</time>
      </trkpt>
      <trkpt lat="47.23786" lon="-1.03774">
        <ele>79</ele>
        <time>2011-07-03T07:10:50Z</time>
      </trkpt>
      <trkpt lat="47.23786" lon="-1.03774">
        <ele>78.6</ele>
        <time>2011-07-03T07:10:53Z</time>
      </trkpt>
      <trkpt lat="47.23786" lon="-1.03774">
        <ele>78.5</ele>
        <time>2011-07-03T07:10:54Z</time>
      </trkpt>
      <trkpt lat="47.23787" lon="-1.03773">
        <ele>79.2</ele>
        <time>2011-07-03T07:10:59Z</time>
      </trkpt>
      <trkpt lat="47.23787" lon="-1.03773">
        <ele>78.9</ele>
        <time>2011-07-03T07:11:02Z</time>
      </trkpt>
      <trkpt lat="47.23787" lon="-1.03773">
        <ele>77.9</ele>
        <time>2011-07-03T07:11:09Z</time>
      </trkpt>
      <trkpt lat="47.23786" lon="-1.03773">
        <ele>78.2</ele>
        <time>2011-07-03T07:11:11Z</time>
      </trkpt>
      <trkpt lat="47.23786" lon="-1.03774">
        <ele>78.2</ele>
        <time>2011-07-03T07:11:13Z</time>
      </trkpt>
      <trkpt lat="47.23786" lon="-1.03774">
        <ele>78.2</ele>
        <time>2011-07-03T07:11:15Z</time>
      </trkpt>
      <trkpt lat="47.23786" lon="-1.03774">
        <ele>77.5</ele>
        <time>2011-07-03T07:11:19Z</time>
      </trkpt>
      <trkpt lat="47.23786" lon="-1.03774">
        <ele>78.4</ele>
        <time>2011-07-03T07:11:25Z</time>
      </trkpt>
      <trkpt lat="47.23786" lon="-1.03774">
        <ele>78.5</ele>
        <time>2011-07-03T07:11:29Z</time>
      </trkpt>
      <trkpt lat="47.23785" lon="-1.03775">
        <ele>78.6</ele>
        <time>2011-07-03T07:11:33Z</time>
      </trkpt>
      <trkpt lat="47.23785" lon="-1.03775">
        <ele>78.6</ele>
        <time>2011-07-03T07:11:35Z</time>
      </trkpt>
      <trkpt lat="47.23785" lon="-1.03775">
        <ele>78.5</ele>
        <time>2011-07-03T07:11:40Z</time>
      </trkpt>
      <trkpt lat="47.23786" lon="-1.03775">
        <ele>79</ele>
        <time>2011-07-03T07:11:42Z</time>
      </trkpt>
      <trkpt lat="47.23786" lon="-1.03774">
        <ele>79.3</ele>
        <time>2011-07-03T07:11:43Z</time>
      </trkpt>
      <trkpt lat="47.23786" lon="-1.03774">
        <ele>79.7</ele>
        <time>2011-07-03T07:11:45Z</time>
      </trkpt>
      <trkpt lat="47.23786" lon="-1.03774">
        <ele>79.8</ele>
        <time>2011-07-03T07:11:46Z</time>
      </trkpt>
      <trkpt lat="47.23787" lon="-1.03773">
        <ele>79.3</ele>
        <time>2011-07-03T07:11:55Z</time>
      </trkpt>
      <trkpt lat="47.23787" lon="-1.03773">
        <ele>79</ele>
        <time>2011-07-03T07:12:00Z</time>
      </trkpt>
      <trkpt lat="47.23787" lon="-1.03773">
        <ele>79.1</ele>
        <time>2011-07-03T07:12:06Z</time>
      </trkpt>
      <trkpt lat="47.23787" lon="-1.03774">
        <ele>79.4</ele>
        <time>2011-07-03T07:12:11Z</time>
      </trkpt>
      <trkpt lat="47.23788" lon="-1.03774">
        <ele>79.8</ele>
        <time>2011-07-03T07:12:13Z</time>
      </trkpt>
      <trkpt lat="47.23787" lon="-1.03774">
        <ele>79.3</ele>
        <time>2011-07-03T07:12:14Z</time>
      </trkpt>
      <trkpt lat="47.23787" lon="-1.03775">
        <ele>79</ele>
        <time>2011-07-03T07:12:15Z</time>
      </trkpt>
      <trkpt lat="47.23787" lon="-1.03776">
        <ele>78.7</ele>
        <time>2011-07-03T07:12:16Z</time>
      </trkpt>
      <trkpt lat="47.23787" lon="-1.03777">
        <ele>78.8</ele>
        <time>2011-07-03T07:12:17Z</time>
      </trkpt>
      <trkpt lat="47.23787" lon="-1.03778">
        <ele>78.9</ele>
        <time>2011-07-03T07:12:18Z</time>
      </trkpt>
      <trkpt lat="47.23787" lon="-1.03778">
        <ele>79</ele>
        <time>2011-07-03T07:12:19Z</time>
      </trkpt>
      <trkpt lat="47.23786" lon="-1.03779">
        <ele>78.9</ele>
        <time>2011-07-03T07:12:20Z</time>
      </trkpt>
      <trkpt lat="47.23786" lon="-1.0378">
        <ele>78.9</ele>
        <time>2011-07-03T07:12:21Z</time>
      </trkpt>
      <trkpt lat="47.23785" lon="-1.0378">
        <ele>78.8</ele>
        <time>2011-07-03T07:12:22Z</time>
      </trkpt>
      <trkpt lat="47.23782" lon="-1.03778">
        <ele>78.9</ele>
        <time>2011-07-03T07:12:24Z</time>
      </trkpt>
      <trkpt lat="47.23778" lon="-1.0377">
        <ele>78.7</ele>
        <time>2011-07-03T07:12:28Z</time>
      </trkpt>
      <trkpt lat="47.23776" lon="-1.03765">
        <ele>78.6</ele>
        <time>2011-07-03T07:12:29Z</time>
      </trkpt>
      <trkpt lat="47.2376" lon="-1.03705">
        <ele>79.7</ele>
        <time>2011-07-03T07:12:39Z</time>
      </trkpt>
      <trkpt lat="47.23754" lon="-1.03671">
        <ele>80</ele>
        <time>2011-07-03T07:12:44Z</time>
      </trkpt>
      <trkpt lat="47.23753" lon="-1.03663">
        <ele>80</ele>
        <time>2011-07-03T07:12:45Z</time>
      </trkpt>
      <trkpt lat="47.23752" lon="-1.03656">
        <ele>79.9</ele>
        <time>2011-07-03T07:12:46Z</time>
      </trkpt>
      <trkpt lat="47.23752" lon="-1.03648">
        <ele>79.7</ele>
        <time>2011-07-03T07:12:47Z</time>
      </trkpt>
      <trkpt lat="47.23752" lon="-1.03633">
        <ele>79.6</ele>
        <time>2011-07-03T07:12:49Z</time>
      </trkpt>
      <trkpt lat="47.23752" lon="-1.03625">
        <ele>79.6</ele>
        <time>2011-07-03T07:12:50Z</time>
      </trkpt>
      <trkpt lat="47.23755" lon="-1.03608">
        <ele>78.9</ele>
        <time>2011-07-03T07:12:52Z</time>
      </trkpt>
      <trkpt lat="47.2376" lon="-1.0358">
        <ele>77.5</ele>
        <time>2011-07-03T07:12:55Z</time>
      </trkpt>
      <trkpt lat="47.23765" lon="-1.03562">
        <ele>76.8</ele>
        <time>2011-07-03T07:12:57Z</time>
      </trkpt>
      <trkpt lat="47.23799" lon="-1.03484">
        <ele>73.1</ele>
        <time>2011-07-03T07:13:06Z</time>
      </trkpt>
      <trkpt lat="47.23805" lon="-1.03475">
        <ele>72.9</ele>
        <time>2011-07-03T07:13:07Z</time>
      </trkpt>
      <trkpt lat="47.23816" lon="-1.03457">
        <ele>72</ele>
        <time>2011-07-03T07:13:09Z</time>
      </trkpt>
      <trkpt lat="47.23823" lon="-1.03448">
        <ele>71.7</ele>
        <time>2011-07-03T07:13:10Z</time>
      </trkpt>
      <trkpt lat="47.2383" lon="-1.03442">
        <ele>70.7</ele>
        <time>2011-07-03T07:13:11Z</time>
      </trkpt>
      <trkpt lat="47.23837" lon="-1.03437">
        <ele>70</ele>
        <time>2011-07-03T07:13:12Z</time>
      </trkpt>
      <trkpt lat="47.23853" lon="-1.0343">
        <ele>68.3</ele>
        <time>2011-07-03T07:13:14Z</time>
      </trkpt>
      <trkpt lat="47.2386" lon="-1.03429">
        <ele>67.5</ele>
        <time>2011-07-03T07:13:15Z</time>
      </trkpt>
      <trkpt lat="47.23876" lon="-1.03428">
        <ele>66.4</ele>
        <time>2011-07-03T07:13:17Z</time>
      </trkpt>
      <trkpt lat="47.23915" lon="-1.03429">
        <ele>62.9</ele>
        <time>2011-07-03T07:13:22Z</time>
      </trkpt>
      <trkpt lat="47.23932" lon="-1.03427">
        <ele>60.7</ele>
        <time>2011-07-03T07:13:25Z</time>
      </trkpt>
      <trkpt lat="47.23935" lon="-1.03425">
        <ele>60.2</ele>
        <time>2011-07-03T07:13:26Z</time>
      </trkpt>
      <trkpt lat="47.23937" lon="-1.03422">
        <ele>59.5</ele>
        <time>2011-07-03T07:13:27Z</time>
      </trkpt>
      <trkpt lat="47.23937" lon="-1.03417">
        <ele>59</ele>
        <time>2011-07-03T07:13:28Z</time>
      </trkpt>
      <trkpt lat="47.23937" lon="-1.03412">
        <ele>58.6</ele>
        <time>2011-07-03T07:13:29Z</time>
      </trkpt>
      <trkpt lat="47.23936" lon="-1.03406">
        <ele>58</ele>
        <time>2011-07-03T07:13:30Z</time>
      </trkpt>
      <trkpt lat="47.23934" lon="-1.03399">
        <ele>57.6</ele>
        <time>2011-07-03T07:13:31Z</time>
      </trkpt>
      <trkpt lat="47.23932" lon="-1.03391">
        <ele>57.3</ele>
        <time>2011-07-03T07:13:32Z</time>
      </trkpt>
      <trkpt lat="47.23926" lon="-1.03374">
        <ele>56.4</ele>
        <time>2011-07-03T07:13:34Z</time>
      </trkpt>
      <trkpt lat="47.23922" lon="-1.03367">
        <ele>55.8</ele>
        <time>2011-07-03T07:13:35Z</time>
      </trkpt>
      <trkpt lat="47.23918" lon="-1.03361">
        <ele>55.5</ele>
        <time>2011-07-03T07:13:36Z</time>
      </trkpt>
      <trkpt lat="47.23913" lon="-1.03357">
        <ele>54.3</ele>
        <time>2011-07-03T07:13:37Z</time>
      </trkpt>
      <trkpt lat="47.23826" lon="-1.03309">
        <ele>44.6</ele>
        <time>2011-07-03T07:13:51Z</time>
      </trkpt>
      <trkpt lat="47.2382" lon="-1.03308">
        <ele>44</ele>
        <time>2011-07-03T07:13:52Z</time>
      </trkpt>
      <trkpt lat="47.23815" lon="-1.03309">
        <ele>42.6</ele>
        <time>2011-07-03T07:13:53Z</time>
      </trkpt>
      <trkpt lat="47.2381" lon="-1.03311">
        <ele>41.6</ele>
        <time>2011-07-03T07:13:54Z</time>
      </trkpt>
      <trkpt lat="47.23805" lon="-1.03315">
        <ele>40.8</ele>
        <time>2011-07-03T07:13:55Z</time>
      </trkpt>
      <trkpt lat="47.23785" lon="-1.03335">
        <ele>38.3</ele>
        <time>2011-07-03T07:13:59Z</time>
      </trkpt>
      <trkpt lat="47.23732" lon="-1.03395">
        <ele>34.3</ele>
        <time>2011-07-03T07:14:11Z</time>
      </trkpt>
      <trkpt lat="47.23729" lon="-1.03397">
        <ele>33.7</ele>
        <time>2011-07-03T07:14:12Z</time>
      </trkpt>
      <trkpt lat="47.23724" lon="-1.034">
        <ele>32.3</ele>
        <time>2011-07-03T07:14:15Z</time>
      </trkpt>
      <trkpt lat="47.23723" lon="-1.034">
        <ele>31.6</ele>
        <time>2011-07-03T07:14:17Z</time>
      </trkpt>
      <trkpt lat="47.23722" lon="-1.034">
        <ele>31.3</ele>
        <time>2011-07-03T07:14:18Z</time>
      </trkpt>
      <trkpt lat="47.2372" lon="-1.03401">
        <ele>31.1</ele>
        <time>2011-07-03T07:14:21Z</time>
      </trkpt>
      <trkpt lat="47.23719" lon="-1.03401">
        <ele>31.2</ele>
        <time>2011-07-03T07:14:22Z</time>
      </trkpt>
      <trkpt lat="47.23718" lon="-1.03401">
        <ele>31.3</ele>
        <time>2011-07-03T07:14:23Z</time>
      </trkpt>
      <trkpt lat="47.23718" lon="-1.03401">
        <ele>31.2</ele>
        <time>2011-07-03T07:14:25Z</time>
      </trkpt>
      <trkpt lat="47.23717" lon="-1.03401">
        <ele>31</ele>
        <time>2011-07-03T07:14:26Z</time>
      </trkpt>
      <trkpt lat="47.23717" lon="-1.03401">
        <ele>30.9</ele>
        <time>2011-07-03T07:14:27Z</time>
      </trkpt>
      <trkpt lat="47.23716" lon="-1.03401">
        <ele>31.4</ele>
        <time>2011-07-03T07:14:28Z</time>
      </trkpt>
      <trkpt lat="47.23716" lon="-1.03401">
        <ele>32.1</ele>
        <time>2011-07-03T07:14:30Z</time>
      </trkpt>
      <trkpt lat="47.23716" lon="-1.03401">
        <ele>32.2</ele>
        <time>2011-07-03T07:14:31Z</time>
      </trkpt>
      <trkpt lat="47.23715" lon="-1.03401">
        <ele>32.2</ele>
        <time>2011-07-03T07:14:33Z</time>
      </trkpt>
      <trkpt lat="47.23715" lon="-1.03401">
        <ele>32.3</ele>
        <time>2011-07-03T07:14:34Z</time>
      </trkpt>
      <trkpt lat="47.23714" lon="-1.034">
        <ele>32.4</ele>
        <time>2011-07-03T07:14:35Z</time>
      </trkpt>
      <trkpt lat="47.23714" lon="-1.034">
        <ele>32.5</ele>
        <time>2011-07-03T07:14:36Z</time>
      </trkpt>
      <trkpt lat="47.23714" lon="-1.034">
        <ele>32.5</ele>
        <time>2011-07-03T07:14:37Z</time>
      </trkpt>
      <trkpt lat="47.23714" lon="-1.03399">
        <ele>32.5</ele>
        <time>2011-07-03T07:14:38Z</time>
      </trkpt>
      <trkpt lat="47.23714" lon="-1.03399">
        <ele>32.5</ele>
        <time>2011-07-03T07:14:40Z</time>
      </trkpt>
      <trkpt lat="47.23714" lon="-1.03399">
        <ele>32.6</ele>
        <time>2011-07-03T07:14:41Z</time>
      </trkpt>
      <trkpt lat="47.23713" lon="-1.03399">
        <ele>32.7</ele>
        <time>2011-07-03T07:14:42Z</time>
      </trkpt>
      <trkpt lat="47.23713" lon="-1.03398">
        <ele>32.8</ele>
        <time>2011-07-03T07:14:44Z</time>
      </trkpt>
      <trkpt lat="47.23712" lon="-1.03398">
        <ele>32.8</ele>
        <time>2011-07-03T07:14:45Z</time>
      </trkpt>
      <trkpt lat="47.23711" lon="-1.03399">
        <ele>32.8</ele>
        <time>2011-07-03T07:14:46Z</time>
      </trkpt>
      <trkpt lat="47.23711" lon="-1.03399">
        <ele>32.5</ele>
        <time>2011-07-03T07:14:47Z</time>
      </trkpt>
      <trkpt lat="47.23709" lon="-1.03399">
        <ele>32.3</ele>
        <time>2011-07-03T07:14:48Z</time>
      </trkpt>
      <trkpt lat="47.23707" lon="-1.034">
        <ele>32.1</ele>
        <time>2011-07-03T07:14:49Z</time>
      </trkpt>
      <trkpt lat="47.23705" lon="-1.03403">
        <ele>32.1</ele>
        <time>2011-07-03T07:14:51Z</time>
      </trkpt>
      <trkpt lat="47.23699" lon="-1.0341">
        <ele>32.5</ele>
        <time>2011-07-03T07:14:56Z</time>
      </trkpt>
      <trkpt lat="47.23694" lon="-1.03414">
        <ele>31.6</ele>
        <time>2011-07-03T07:14:59Z</time>
      </trkpt>
      <trkpt lat="47.23687" lon="-1.03421">
        <ele>33.3</ele>
        <time>2011-07-03T07:15:04Z</time>
      </trkpt>
      <trkpt lat="47.2367" lon="-1.03432">
        <ele>36</ele>
        <time>2011-07-03T07:15:15Z</time>
      </trkpt>
      <trkpt lat="47.23659" lon="-1.03438">
        <ele>38.9</ele>
        <time>2011-07-03T07:15:23Z</time>
      </trkpt>
      <trkpt lat="47.23656" lon="-1.03439">
        <ele>39.3</ele>
        <time>2011-07-03T07:15:25Z</time>
      </trkpt>
      <trkpt lat="47.23651" lon="-1.0344">
        <ele>39.8</ele>
        <time>2011-07-03T07:15:29Z</time>
      </trkpt>
      <trkpt lat="47.2365" lon="-1.0344">
        <ele>39.8</ele>
        <time>2011-07-03T07:15:30Z</time>
      </trkpt>
      <trkpt lat="47.2365" lon="-1.03441">
        <ele>39.8</ele>
        <time>2011-07-03T07:15:31Z</time>
      </trkpt>
      <trkpt lat="47.23649" lon="-1.03441">
        <ele>39.9</ele>
        <time>2011-07-03T07:15:32Z</time>
      </trkpt>
      <trkpt lat="47.23647" lon="-1.03441">
        <ele>39.9</ele>
        <time>2011-07-03T07:15:34Z</time>
      </trkpt>
      <trkpt lat="47.23646" lon="-1.03441">
        <ele>41.6</ele>
        <time>2011-07-03T07:15:40Z</time>
      </trkpt>
      <trkpt lat="47.23646" lon="-1.03441">
        <ele>41.6</ele>
        <time>2011-07-03T07:15:41Z</time>
      </trkpt>
      <trkpt lat="47.23645" lon="-1.03442">
        <ele>41.5</ele>
        <time>2011-07-03T07:15:44Z</time>
      </trkpt>
      <trkpt lat="47.23644" lon="-1.03442">
        <ele>41.3</ele>
        <time>2011-07-03T07:15:47Z</time>
      </trkpt>
      <trkpt lat="47.23644" lon="-1.03442">
        <ele>41.4</ele>
        <time>2011-07-03T07:15:49Z</time>
      </trkpt>
      <trkpt lat="47.23644" lon="-1.03443">
        <ele>41.4</ele>
        <time>2011-07-03T07:15:51Z</time>
      </trkpt>
      <trkpt lat="47.23643" lon="-1.03443">
        <ele>41.4</ele>
        <time>2011-07-03T07:15:52Z</time>
      </trkpt>
      <trkpt lat="47.23643" lon="-1.03443">
        <ele>41.4</ele>
        <time>2011-07-03T07:15:53Z</time>
      </trkpt>
      <trkpt lat="47.23643" lon="-1.03443">
        <ele>41.2</ele>
        <time>2011-07-03T07:15:54Z</time>
      </trkpt>
      <trkpt lat="47.23642" lon="-1.03442">
        <ele>41</ele>
        <time>2011-07-03T07:15:55Z</time>
      </trkpt>
      <trkpt lat="47.23643" lon="-1.03442">
        <ele>40.8</ele>
        <time>2011-07-03T07:15:56Z</time>
      </trkpt>
      <trkpt lat="47.23643" lon="-1.03442">
        <ele>41</ele>
        <time>2011-07-03T07:15:57Z</time>
      </trkpt>
      <trkpt lat="47.23643" lon="-1.03441">
        <ele>41.1</ele>
        <time>2011-07-03T07:15:58Z</time>
      </trkpt>
      <trkpt lat="47.23642" lon="-1.03441">
        <ele>41.2</ele>
        <time>2011-07-03T07:15:59Z</time>
      </trkpt>
      <trkpt lat="47.23642" lon="-1.03441">
        <ele>41</ele>
        <time>2011-07-03T07:16:01Z</time>
      </trkpt>
      <trkpt lat="47.23642" lon="-1.0344">
        <ele>40.9</ele>
        <time>2011-07-03T07:16:02Z</time>
      </trkpt>
      <trkpt lat="47.23643" lon="-1.03438">
        <ele>41</ele>
        <time>2011-07-03T07:16:04Z</time>
      </trkpt>
      <trkpt lat="47.23643" lon="-1.03437">
        <ele>41.1</ele>
        <time>2011-07-03T07:16:05Z</time>
      </trkpt>
      <trkpt lat="47.23643" lon="-1.03437">
        <ele>41.9</ele>
        <time>2011-07-03T07:16:08Z</time>
      </trkpt>
      <trkpt lat="47.23643" lon="-1.03436">
        <ele>42</ele>
        <time>2011-07-03T07:16:11Z</time>
      </trkpt>
      <trkpt lat="47.23644" lon="-1.03435">
        <ele>42.6</ele>
        <time>2011-07-03T07:16:21Z</time>
      </trkpt>
      <trkpt lat="47.23644" lon="-1.03435">
        <ele>42.7</ele>
        <time>2011-07-03T07:16:25Z</time>
      </trkpt>
      <trkpt lat="47.23644" lon="-1.03435">
        <ele>42</ele>
        <time>2011-07-03T07:16:28Z</time>
      </trkpt>
      <trkpt lat="47.23644" lon="-1.03435">
        <ele>41.9</ele>
        <time>2011-07-03T07:16:29Z</time>
      </trkpt>
      <trkpt lat="47.23645" lon="-1.03434">
        <ele>41.8</ele>
        <time>2011-07-03T07:16:30Z</time>
      </trkpt>
      <trkpt lat="47.23647" lon="-1.03432">
        <ele>41.9</ele>
        <time>2011-07-03T07:16:32Z</time>
      </trkpt>
      <trkpt lat="47.23647" lon="-1.03431">
        <ele>42</ele>
        <time>2011-07-03T07:16:33Z</time>
      </trkpt>
      <trkpt lat="47.23656" lon="-1.03418">
        <ele>43.8</ele>
        <time>2011-07-03T07:16:41Z</time>
      </trkpt>
      <trkpt lat="47.23677" lon="-1.03376">
        <ele>47.7</ele>
        <time>2011-07-03T07:16:59Z</time>
      </trkpt>
      <trkpt lat="47.23678" lon="-1.03374">
        <ele>47.8</ele>
        <time>2011-07-03T07:17:00Z</time>
      </trkpt>
      <trkpt lat="47.23689" lon="-1.03335">
        <ele>54.2</ele>
        <time>2011-07-03T07:17:18Z</time>
      </trkpt>
      <trkpt lat="47.2369" lon="-1.0333">
        <ele>55.1</ele>
        <time>2011-07-03T07:17:20Z</time>
      </trkpt>
      <trkpt lat="47.2369" lon="-1.03328">
        <ele>55.4</ele>
        <time>2011-07-03T07:17:21Z</time>
      </trkpt>
      <trkpt lat="47.23689" lon="-1.03325">
        <ele>55.9</ele>
        <time>2011-07-03T07:17:22Z</time>
      </trkpt>
      <trkpt lat="47.23688" lon="-1.03323">
        <ele>56.2</ele>
        <time>2011-07-03T07:17:23Z</time>
      </trkpt>
      <trkpt lat="47.23688" lon="-1.03321">
        <ele>56.5</ele>
        <time>2011-07-03T07:17:24Z</time>
      </trkpt>
      <trkpt lat="47.23684" lon="-1.03317">
        <ele>56.8</ele>
        <time>2011-07-03T07:17:27Z</time>
      </trkpt>
      <trkpt lat="47.23683" lon="-1.03315">
        <ele>56.8</ele>
        <time>2011-07-03T07:17:28Z</time>
      </trkpt>
      <trkpt lat="47.23681" lon="-1.03314">
        <ele>56.9</ele>
        <time>2011-07-03T07:17:29Z</time>
      </trkpt>
      <trkpt lat="47.2368" lon="-1.03314">
        <ele>56.9</ele>
        <time>2011-07-03T07:17:30Z</time>
      </trkpt>
      <trkpt lat="47.23671" lon="-1.03314">
        <ele>58.3</ele>
        <time>2011-07-03T07:17:36Z</time>
      </trkpt>
      <trkpt lat="47.2367" lon="-1.03313">
        <ele>58.4</ele>
        <time>2011-07-03T07:17:37Z</time>
      </trkpt>
      <trkpt lat="47.23666" lon="-1.03313">
        <ele>58.8</ele>
        <time>2011-07-03T07:17:39Z</time>
      </trkpt>
      <trkpt lat="47.23654" lon="-1.03313">
        <ele>60.3</ele>
        <time>2011-07-03T07:17:47Z</time>
      </trkpt>
      <trkpt lat="47.23654" lon="-1.03313">
        <ele>60.4</ele>
        <time>2011-07-03T07:17:48Z</time>
      </trkpt>
      <trkpt lat="47.23654" lon="-1.03313">
        <ele>60.5</ele>
        <time>2011-07-03T07:17:52Z</time>
      </trkpt>
      <trkpt lat="47.23653" lon="-1.03314">
        <ele>61.3</ele>
        <time>2011-07-03T07:17:56Z</time>
      </trkpt>
      <trkpt lat="47.23654" lon="-1.03314">
        <ele>61.5</ele>
        <time>2011-07-03T07:17:57Z</time>
      </trkpt>
      <trkpt lat="47.23655" lon="-1.03314">
        <ele>61.2</ele>
        <time>2011-07-03T07:17:59Z</time>
      </trkpt>
      <trkpt lat="47.23658" lon="-1.03314">
        <ele>61</ele>
        <time>2011-07-03T07:18:01Z</time>
      </trkpt>
      <trkpt lat="47.2366" lon="-1.03315">
        <ele>60.9</ele>
        <time>2011-07-03T07:18:02Z</time>
      </trkpt>
      <trkpt lat="47.23661" lon="-1.03316">
        <ele>60.9</ele>
        <time>2011-07-03T07:18:03Z</time>
      </trkpt>
      <trkpt lat="47.23663" lon="-1.03318">
        <ele>60.8</ele>
        <time>2011-07-03T07:18:04Z</time>
      </trkpt>
      <trkpt lat="47.23664" lon="-1.0332">
        <ele>60.6</ele>
        <time>2011-07-03T07:18:05Z</time>
      </trkpt>
      <trkpt lat="47.23665" lon="-1.03323">
        <ele>60.4</ele>
        <time>2011-07-03T07:18:06Z</time>
      </trkpt>
      <trkpt lat="47.23665" lon="-1.03326">
        <ele>60.3</ele>
        <time>2011-07-03T07:18:07Z</time>
      </trkpt>
      <trkpt lat="47.23665" lon="-1.0333">
        <ele>60.5</ele>
        <time>2011-07-03T07:18:08Z</time>
      </trkpt>
      <trkpt lat="47.23665" lon="-1.03333">
        <ele>60.6</ele>
        <time>2011-07-03T07:18:09Z</time>
      </trkpt>
      <trkpt lat="47.23665" lon="-1.03337">
        <ele>60.7</ele>
        <time>2011-07-03T07:18:10Z</time>
      </trkpt>
      <trkpt lat="47.23664" lon="-1.03342">
        <ele>60.8</ele>
        <time>2011-07-03T07:18:12Z</time>
      </trkpt>
      <trkpt lat="47.2366" lon="-1.03352">
        <ele>60.5</ele>
        <time>2011-07-03T07:18:16Z</time>
      </trkpt>
      <trkpt lat="47.23657" lon="-1.03362">
        <ele>60.4</ele>
        <time>2011-07-03T07:18:19Z</time>
      </trkpt>
      <trkpt lat="47.23654" lon="-1.03373">
        <ele>59.1</ele>
        <time>2011-07-03T07:18:22Z</time>
      </trkpt>
      <trkpt lat="47.23651" lon="-1.03378">
        <ele>58.7</ele>
        <time>2011-07-03T07:18:23Z</time>
      </trkpt>
      <trkpt lat="47.23649" lon="-1.03383">
        <ele>58</ele>
        <time>2011-07-03T07:18:24Z</time>
      </trkpt>
      <trkpt lat="47.23645" lon="-1.03388">
        <ele>57.5</ele>
        <time>2011-07-03T07:18:25Z</time>
      </trkpt>
      <trkpt lat="47.23633" lon="-1.03403">
        <ele>55.7</ele>
        <time>2011-07-03T07:18:28Z</time>
      </trkpt>
      <trkpt lat="47.23628" lon="-1.03406">
        <ele>55.3</ele>
        <time>2011-07-03T07:18:29Z</time>
      </trkpt>
      <trkpt lat="47.23624" lon="-1.03408">
        <ele>54.8</ele>
        <time>2011-07-03T07:18:30Z</time>
      </trkpt>
      <trkpt lat="47.23566" lon="-1.03434">
        <ele>54.2</ele>
        <time>2011-07-03T07:18:48Z</time>
      </trkpt>
      <trkpt lat="47.23545" lon="-1.03446">
        <ele>54.8</ele>
        <time>2011-07-03T07:18:57Z</time>
      </trkpt>
      <trkpt lat="47.23543" lon="-1.03447">
        <ele>54.4</ele>
        <time>2011-07-03T07:18:58Z</time>
      </trkpt>
      <trkpt lat="47.23542" lon="-1.03448">
        <ele>54.1</ele>
        <time>2011-07-03T07:18:59Z</time>
      </trkpt>
      <trkpt lat="47.23541" lon="-1.03449">
        <ele>53.9</ele>
        <time>2011-07-03T07:19:00Z</time>
      </trkpt>
      <trkpt lat="47.23541" lon="-1.03452">
        <ele>53.8</ele>
        <time>2011-07-03T07:19:01Z</time>
      </trkpt>
      <trkpt lat="47.2354" lon="-1.03455">
        <ele>53.5</ele>
        <time>2011-07-03T07:19:02Z</time>
      </trkpt>
      <trkpt lat="47.23539" lon="-1.03458">
        <ele>53.4</ele>
        <time>2011-07-03T07:19:03Z</time>
      </trkpt>
      <trkpt lat="47.23537" lon="-1.0346">
        <ele>53.3</ele>
        <time>2011-07-03T07:19:04Z</time>
      </trkpt>
      <trkpt lat="47.23534" lon="-1.03462">
        <ele>52.6</ele>
        <time>2011-07-03T07:19:05Z</time>
      </trkpt>
      <trkpt lat="47.23531" lon="-1.03462">
        <ele>52.1</ele>
        <time>2011-07-03T07:19:06Z</time>
      </trkpt>
      <trkpt lat="47.23527" lon="-1.03461">
        <ele>51.7</ele>
        <time>2011-07-03T07:19:07Z</time>
      </trkpt>
      <trkpt lat="47.23525" lon="-1.03463">
        <ele>51.5</ele>
        <time>2011-07-03T07:19:08Z</time>
      </trkpt>
      <trkpt lat="47.23523" lon="-1.03465">
        <ele>51</ele>
        <time>2011-07-03T07:19:09Z</time>
      </trkpt>
      <trkpt lat="47.23512" lon="-1.03487">
        <ele>45.4</ele>
        <time>2011-07-03T07:19:16Z</time>
      </trkpt>
      <trkpt lat="47.23511" lon="-1.0349">
        <ele>44.7</ele>
        <time>2011-07-03T07:19:17Z</time>
      </trkpt>
      <trkpt lat="47.23512" lon="-1.03491">
        <ele>43.5</ele>
        <time>2011-07-03T07:19:18Z</time>
      </trkpt>
      <trkpt lat="47.23513" lon="-1.03491">
        <ele>42.6</ele>
        <time>2011-07-03T07:19:19Z</time>
      </trkpt>
      <trkpt lat="47.23516" lon="-1.03492">
        <ele>40.9</ele>
        <time>2011-07-03T07:19:21Z</time>
      </trkpt>
      <trkpt lat="47.23518" lon="-1.03492">
        <ele>40.2</ele>
        <time>2011-07-03T07:19:22Z</time>
      </trkpt>
      <trkpt lat="47.23519" lon="-1.03492">
        <ele>39.6</ele>
        <time>2011-07-03T07:19:23Z</time>
      </trkpt>
      <trkpt lat="47.23525" lon="-1.03488">
        <ele>39.1</ele>
        <time>2011-07-03T07:19:28Z</time>
      </trkpt>
      <trkpt lat="47.23527" lon="-1.03487">
        <ele>39.5</ele>
        <time>2011-07-03T07:19:29Z</time>
      </trkpt>
      <trkpt lat="47.23534" lon="-1.03482">
        <ele>41.2</ele>
        <time>2011-07-03T07:19:35Z</time>
      </trkpt>
      <trkpt lat="47.23536" lon="-1.03481">
        <ele>41.5</ele>
        <time>2011-07-03T07:19:36Z</time>
      </trkpt>
      <trkpt lat="47.23543" lon="-1.03479">
        <ele>42.8</ele>
        <time>2011-07-03T07:19:41Z</time>
      </trkpt>
      <trkpt lat="47.23564" lon="-1.0347">
        <ele>45.5</ele>
        <time>2011-07-03T07:19:52Z</time>
      </trkpt>
      <trkpt lat="47.23566" lon="-1.0347">
        <ele>45.4</ele>
        <time>2011-07-03T07:19:53Z</time>
      </trkpt>
      <trkpt lat="47.23578" lon="-1.03467">
        <ele>45.1</ele>
        <time>2011-07-03T07:19:56Z</time>
      </trkpt>
      <trkpt lat="47.23609" lon="-1.03449">
        <ele>43</ele>
        <time>2011-07-03T07:20:08Z</time>
      </trkpt>
      <trkpt lat="47.23612" lon="-1.03449">
        <ele>43</ele>
        <time>2011-07-03T07:20:09Z</time>
      </trkpt>
      <trkpt lat="47.23614" lon="-1.0345">
        <ele>43</ele>
        <time>2011-07-03T07:20:10Z</time>
      </trkpt>
      <trkpt lat="47.23615" lon="-1.03451">
        <ele>43</ele>
        <time>2011-07-03T07:20:11Z</time>
      </trkpt>
      <trkpt lat="47.23615" lon="-1.03452">
        <ele>43</ele>
        <time>2011-07-03T07:20:12Z</time>
      </trkpt>
      <trkpt lat="47.23615" lon="-1.03453">
        <ele>43.1</ele>
        <time>2011-07-03T07:20:13Z</time>
      </trkpt>
      <trkpt lat="47.23614" lon="-1.03453">
        <ele>43.1</ele>
        <time>2011-07-03T07:20:14Z</time>
      </trkpt>
      <trkpt lat="47.23613" lon="-1.03452">
        <ele>43.1</ele>
        <time>2011-07-03T07:20:15Z</time>
      </trkpt>
      <trkpt lat="47.23613" lon="-1.03452">
        <ele>43</ele>
        <time>2011-07-03T07:20:16Z</time>
      </trkpt>
      <trkpt lat="47.23612" lon="-1.03452">
        <ele>42.9</ele>
        <time>2011-07-03T07:20:17Z</time>
      </trkpt>
      <trkpt lat="47.23612" lon="-1.03453">
        <ele>42.8</ele>
        <time>2011-07-03T07:20:18Z</time>
      </trkpt>
      <trkpt lat="47.23612" lon="-1.03452">
        <ele>42.7</ele>
        <time>2011-07-03T07:20:20Z</time>
      </trkpt>
      <trkpt lat="47.23613" lon="-1.03452">
        <ele>42.6</ele>
        <time>2011-07-03T07:20:22Z</time>
      </trkpt>
      <trkpt lat="47.23613" lon="-1.03453">
        <ele>42.6</ele>
        <time>2011-07-03T07:20:23Z</time>
      </trkpt>
      <trkpt lat="47.23613" lon="-1.03453">
        <ele>41.7</ele>
        <time>2011-07-03T07:20:26Z</time>
      </trkpt>
      <trkpt lat="47.23614" lon="-1.03453">
        <ele>41.2</ele>
        <time>2011-07-03T07:20:28Z</time>
      </trkpt>
      <trkpt lat="47.23614" lon="-1.03453">
        <ele>41.2</ele>
        <time>2011-07-03T07:20:29Z</time>
      </trkpt>
      <trkpt lat="47.23614" lon="-1.03453">
        <ele>41.2</ele>
        <time>2011-07-03T07:20:30Z</time>
      </trkpt>
      <trkpt lat="47.23614" lon="-1.03453">
        <ele>41.2</ele>
        <time>2011-07-03T07:20:31Z</time>
      </trkpt>
      <trkpt lat="47.23615" lon="-1.03452">
        <ele>41.6</ele>
        <time>2011-07-03T07:20:33Z</time>
      </trkpt>
      <trkpt lat="47.23615" lon="-1.03452">
        <ele>41.9</ele>
        <time>2011-07-03T07:20:35Z</time>
      </trkpt>
      <trkpt lat="47.23615" lon="-1.03452">
        <ele>42</ele>
        <time>2011-07-03T07:20:36Z</time>
      </trkpt>
      <trkpt lat="47.23616" lon="-1.03452">
        <ele>42.1</ele>
        <time>2011-07-03T07:20:38Z</time>
      </trkpt>
      <trkpt lat="47.23616" lon="-1.03452">
        <ele>42.1</ele>
        <time>2011-07-03T07:20:39Z</time>
      </trkpt>
      <trkpt lat="47.23615" lon="-1.03453">
        <ele>41.6</ele>
        <time>2011-07-03T07:20:43Z</time>
      </trkpt>
      <trkpt lat="47.23564" lon="-1.03492">
        <ele>39.2</ele>
        <time>2011-07-03T07:20:59Z</time>
      </trkpt>
      <trkpt lat="47.23559" lon="-1.03497">
        <ele>38.4</ele>
        <time>2011-07-03T07:21:00Z</time>
      </trkpt>
      <trkpt lat="47.23556" lon="-1.03505">
        <ele>37.8</ele>
        <time>2011-07-03T07:21:01Z</time>
      </trkpt>
      <trkpt lat="47.23555" lon="-1.03512">
        <ele>37.3</ele>
        <time>2011-07-03T07:21:02Z</time>
      </trkpt>
      <trkpt lat="47.23554" lon="-1.03519">
        <ele>37</ele>
        <time>2011-07-03T07:21:03Z</time>
      </trkpt>
      <trkpt lat="47.23552" lon="-1.03523">
        <ele>36.3</ele>
        <time>2011-07-03T07:21:04Z</time>
      </trkpt>
      <trkpt lat="47.2355" lon="-1.03524">
        <ele>35.8</ele>
        <time>2011-07-03T07:21:05Z</time>
      </trkpt>
      <trkpt lat="47.23519" lon="-1.03528">
        <ele>34.6</ele>
        <time>2011-07-03T07:21:16Z</time>
      </trkpt>
      <trkpt lat="47.23516" lon="-1.03529">
        <ele>34.6</ele>
        <time>2011-07-03T07:21:17Z</time>
      </trkpt>
      <trkpt lat="47.23507" lon="-1.03534">
        <ele>34.8</ele>
        <time>2011-07-03T07:21:22Z</time>
      </trkpt>
      <trkpt lat="47.23504" lon="-1.03536">
        <ele>34.5</ele>
        <time>2011-07-03T07:21:24Z</time>
      </trkpt>
      <trkpt lat="47.23503" lon="-1.03537">
        <ele>34.4</ele>
        <time>2011-07-03T07:21:25Z</time>
      </trkpt>
      <trkpt lat="47.23502" lon="-1.03538">
        <ele>34.2</ele>
        <time>2011-07-03T07:21:26Z</time>
      </trkpt>
      <trkpt lat="47.235" lon="-1.03539">
        <ele>34</ele>
        <time>2011-07-03T07:21:27Z</time>
      </trkpt>
      <trkpt lat="47.23499" lon="-1.0354">
        <ele>33.8</ele>
        <time>2011-07-03T07:21:28Z</time>
      </trkpt>
      <trkpt lat="47.23495" lon="-1.03541">
        <ele>33.9</ele>
        <time>2011-07-03T07:21:30Z</time>
      </trkpt>
      <trkpt lat="47.23494" lon="-1.03541">
        <ele>33.9</ele>
        <time>2011-07-03T07:21:31Z</time>
      </trkpt>
      <trkpt lat="47.23486" lon="-1.03546">
        <ele>34.8</ele>
        <time>2011-07-03T07:21:34Z</time>
      </trkpt>
      <trkpt lat="47.23467" lon="-1.03561">
        <ele>35.1</ele>
        <time>2011-07-03T07:21:41Z</time>
      </trkpt>
      <trkpt lat="47.23456" lon="-1.03573">
        <ele>35.1</ele>
        <time>2011-07-03T07:21:45Z</time>
      </trkpt>
      <trkpt lat="47.23449" lon="-1.03583">
        <ele>35.2</ele>
        <time>2011-07-03T07:21:48Z</time>
      </trkpt>
      <trkpt lat="47.23446" lon="-1.03587">
        <ele>35.1</ele>
        <time>2011-07-03T07:21:49Z</time>
      </trkpt>
      <trkpt lat="47.23434" lon="-1.03607">
        <ele>35.9</ele>
        <time>2011-07-03T07:21:54Z</time>
      </trkpt>
      <trkpt lat="47.23412" lon="-1.03651">
        <ele>36.3</ele>
        <time>2011-07-03T07:22:05Z</time>
      </trkpt>
      <trkpt lat="47.23411" lon="-1.03655">
        <ele>36.7</ele>
        <time>2011-07-03T07:22:06Z</time>
      </trkpt>
      <trkpt lat="47.2341" lon="-1.03658">
        <ele>36.5</ele>
        <time>2011-07-03T07:22:07Z</time>
      </trkpt>
      <trkpt lat="47.2341" lon="-1.03661">
        <ele>36.4</ele>
        <time>2011-07-03T07:22:08Z</time>
      </trkpt>
      <trkpt lat="47.23411" lon="-1.03664">
        <ele>36.3</ele>
        <time>2011-07-03T07:22:09Z</time>
      </trkpt>
      <trkpt lat="47.23413" lon="-1.03674">
        <ele>37.1</ele>
        <time>2011-07-03T07:22:13Z</time>
      </trkpt>
      <trkpt lat="47.23413" lon="-1.03677">
        <ele>37.3</ele>
        <time>2011-07-03T07:22:14Z</time>
      </trkpt>
      <trkpt lat="47.23413" lon="-1.03681">
        <ele>37.5</ele>
        <time>2011-07-03T07:22:15Z</time>
      </trkpt>
      <trkpt lat="47.23412" lon="-1.03688">
        <ele>38.2</ele>
        <time>2011-07-03T07:22:17Z</time>
      </trkpt>
      <trkpt lat="47.23411" lon="-1.03692">
        <ele>38.6</ele>
        <time>2011-07-03T07:22:18Z</time>
      </trkpt>
      <trkpt lat="47.23409" lon="-1.03697">
        <ele>38.9</ele>
        <time>2011-07-03T07:22:19Z</time>
      </trkpt>
      <trkpt lat="47.23407" lon="-1.03701">
        <ele>39.1</ele>
        <time>2011-07-03T07:22:20Z</time>
      </trkpt>
      <trkpt lat="47.23404" lon="-1.03707">
        <ele>39.2</ele>
        <time>2011-07-03T07:22:21Z</time>
      </trkpt>
      <trkpt lat="47.234" lon="-1.03712">
        <ele>39.4</ele>
        <time>2011-07-03T07:22:22Z</time>
      </trkpt>
      <trkpt lat="47.23392" lon="-1.03722">
        <ele>39</ele>
        <time>2011-07-03T07:22:24Z</time>
      </trkpt>
      <trkpt lat="47.23371" lon="-1.03743">
        <ele>37.5</ele>
        <time>2011-07-03T07:22:29Z</time>
      </trkpt>
      <trkpt lat="47.23368" lon="-1.03745">
        <ele>37</ele>
        <time>2011-07-03T07:22:30Z</time>
      </trkpt>
      <trkpt lat="47.23354" lon="-1.03752">
        <ele>36.6</ele>
        <time>2011-07-03T07:22:35Z</time>
      </trkpt>
      <trkpt lat="47.2335" lon="-1.03755">
        <ele>37.3</ele>
        <time>2011-07-03T07:22:37Z</time>
      </trkpt>
      <trkpt lat="47.23346" lon="-1.03759">
        <ele>37.6</ele>
        <time>2011-07-03T07:22:39Z</time>
      </trkpt>
      <trkpt lat="47.23345" lon="-1.03761">
        <ele>37.7</ele>
        <time>2011-07-03T07:22:40Z</time>
      </trkpt>
      <trkpt lat="47.23338" lon="-1.0377">
        <ele>38.8</ele>
        <time>2011-07-03T07:22:44Z</time>
      </trkpt>
      <trkpt lat="47.23337" lon="-1.03773">
        <ele>39</ele>
        <time>2011-07-03T07:22:45Z</time>
      </trkpt>
      <trkpt lat="47.23336" lon="-1.03776">
        <ele>39.2</ele>
        <time>2011-07-03T07:22:46Z</time>
      </trkpt>
      <trkpt lat="47.23337" lon="-1.0378">
        <ele>39.4</ele>
        <time>2011-07-03T07:22:47Z</time>
      </trkpt>
      <trkpt lat="47.23337" lon="-1.03789">
        <ele>39.6</ele>
        <time>2011-07-03T07:22:49Z</time>
      </trkpt>
      <trkpt lat="47.23336" lon="-1.03793">
        <ele>39.7</ele>
        <time>2011-07-03T07:22:50Z</time>
      </trkpt>
      <trkpt lat="47.23334" lon="-1.03796">
        <ele>39.8</ele>
        <time>2011-07-03T07:22:51Z</time>
      </trkpt>
      <trkpt lat="47.23332" lon="-1.03798">
        <ele>39.4</ele>
        <time>2011-07-03T07:22:52Z</time>
      </trkpt>
      <trkpt lat="47.23299" lon="-1.03831">
        <ele>37.1</ele>
        <time>2011-07-03T07:23:06Z</time>
      </trkpt>
      <trkpt lat="47.23299" lon="-1.03832">
        <ele>36.8</ele>
        <time>2011-07-03T07:23:07Z</time>
      </trkpt>
      <trkpt lat="47.23298" lon="-1.03832">
        <ele>36.6</ele>
        <time>2011-07-03T07:23:08Z</time>
      </trkpt>
      <trkpt lat="47.23298" lon="-1.03832">
        <ele>36.4</ele>
        <time>2011-07-03T07:23:09Z</time>
      </trkpt>
      <trkpt lat="47.23298" lon="-1.03833">
        <ele>36.3</ele>
        <time>2011-07-03T07:23:10Z</time>
      </trkpt>
      <trkpt lat="47.23295" lon="-1.03836">
        <ele>36.7</ele>
        <time>2011-07-03T07:23:13Z</time>
      </trkpt>
      <trkpt lat="47.23294" lon="-1.03838">
        <ele>37</ele>
        <time>2011-07-03T07:23:15Z</time>
      </trkpt>
      <trkpt lat="47.23293" lon="-1.03838">
        <ele>37.1</ele>
        <time>2011-07-03T07:23:16Z</time>
      </trkpt>
      <trkpt lat="47.23291" lon="-1.03839">
        <ele>37.4</ele>
        <time>2011-07-03T07:23:18Z</time>
      </trkpt>
      <trkpt lat="47.23291" lon="-1.0384">
        <ele>37.5</ele>
        <time>2011-07-03T07:23:19Z</time>
      </trkpt>
      <trkpt lat="47.23288" lon="-1.03842">
        <ele>37.3</ele>
        <time>2011-07-03T07:23:21Z</time>
      </trkpt>
      <trkpt lat="47.23286" lon="-1.03843">
        <ele>37</ele>
        <time>2011-07-03T07:23:22Z</time>
      </trkpt>
      <trkpt lat="47.23284" lon="-1.03845">
        <ele>36.9</ele>
        <time>2011-07-03T07:23:23Z</time>
      </trkpt>
      <trkpt lat="47.23282" lon="-1.03847">
        <ele>37.4</ele>
        <time>2011-07-03T07:23:24Z</time>
      </trkpt>
      <trkpt lat="47.23282" lon="-1.0385">
        <ele>37.9</ele>
        <time>2011-07-03T07:23:25Z</time>
      </trkpt>
      <trkpt lat="47.23281" lon="-1.03853">
        <ele>38.2</ele>
        <time>2011-07-03T07:23:26Z</time>
      </trkpt>
      <trkpt lat="47.23279" lon="-1.03864">
        <ele>37.2</ele>
        <time>2011-07-03T07:23:30Z</time>
      </trkpt>
      <trkpt lat="47.23279" lon="-1.03867">
        <ele>37.2</ele>
        <time>2011-07-03T07:23:31Z</time>
      </trkpt>
      <trkpt lat="47.2328" lon="-1.0387">
        <ele>37.1</ele>
        <time>2011-07-03T07:23:32Z</time>
      </trkpt>
      <trkpt lat="47.23283" lon="-1.03874">
        <ele>37.2</ele>
        <time>2011-07-03T07:23:34Z</time>
      </trkpt>
      <trkpt lat="47.23284" lon="-1.03877">
        <ele>37.2</ele>
        <time>2011-07-03T07:23:35Z</time>
      </trkpt>
      <trkpt lat="47.23284" lon="-1.0388">
        <ele>37.3</ele>
        <time>2011-07-03T07:23:36Z</time>
      </trkpt>
      <trkpt lat="47.23283" lon="-1.03882">
        <ele>37.2</ele>
        <time>2011-07-03T07:23:37Z</time>
      </trkpt>
      <trkpt lat="47.23282" lon="-1.03885">
        <ele>37.2</ele>
        <time>2011-07-03T07:23:38Z</time>
      </trkpt>
      <trkpt lat="47.23274" lon="-1.03898">
        <ele>38.8</ele>
        <time>2011-07-03T07:23:43Z</time>
      </trkpt>
      <trkpt lat="47.23261" lon="-1.03914">
        <ele>39.4</ele>
        <time>2011-07-03T07:23:51Z</time>
      </trkpt>
      <trkpt lat="47.23245" lon="-1.03942">
        <ele>43.2</ele>
        <time>2011-07-03T07:24:04Z</time>
      </trkpt>
      <trkpt lat="47.23244" lon="-1.03944">
        <ele>43.2</ele>
        <time>2011-07-03T07:24:05Z</time>
      </trkpt>
      <trkpt lat="47.23242" lon="-1.03945">
        <ele>43.6</ele>
        <time>2011-07-03T07:24:06Z</time>
      </trkpt>
      <trkpt lat="47.23241" lon="-1.03946">
        <ele>43.9</ele>
        <time>2011-07-03T07:24:07Z</time>
      </trkpt>
      <trkpt lat="47.23239" lon="-1.03945">
        <ele>44.2</ele>
        <time>2011-07-03T07:24:08Z</time>
      </trkpt>
      <trkpt lat="47.2323" lon="-1.0394">
        <ele>44.6</ele>
        <time>2011-07-03T07:24:11Z</time>
      </trkpt>
      <trkpt lat="47.2322" lon="-1.03936">
        <ele>42.1</ele>
        <time>2011-07-03T07:24:14Z</time>
      </trkpt>
      <trkpt lat="47.23217" lon="-1.03936">
        <ele>41</ele>
        <time>2011-07-03T07:24:15Z</time>
      </trkpt>
      <trkpt lat="47.23214" lon="-1.03937">
        <ele>40.2</ele>
        <time>2011-07-03T07:24:16Z</time>
      </trkpt>
      <trkpt lat="47.23212" lon="-1.03938">
        <ele>39.5</ele>
        <time>2011-07-03T07:24:17Z</time>
      </trkpt>
      <trkpt lat="47.2321" lon="-1.03939">
        <ele>38.8</ele>
        <time>2011-07-03T07:24:18Z</time>
      </trkpt>
      <trkpt lat="47.23209" lon="-1.0394">
        <ele>38.3</ele>
        <time>2011-07-03T07:24:19Z</time>
      </trkpt>
      <trkpt lat="47.23208" lon="-1.0394">
        <ele>37.9</ele>
        <time>2011-07-03T07:24:20Z</time>
      </trkpt>
      <trkpt lat="47.23206" lon="-1.0394">
        <ele>37.6</ele>
        <time>2011-07-03T07:24:21Z</time>
      </trkpt>
      <trkpt lat="47.23185" lon="-1.03945">
        <ele>37.1</ele>
        <time>2011-07-03T07:24:27Z</time>
      </trkpt>
      <trkpt lat="47.23182" lon="-1.03947">
        <ele>37.2</ele>
        <time>2011-07-03T07:24:28Z</time>
      </trkpt>
      <trkpt lat="47.2318" lon="-1.0395">
        <ele>37.3</ele>
        <time>2011-07-03T07:24:29Z</time>
      </trkpt>
      <trkpt lat="47.23176" lon="-1.03957">
        <ele>37.8</ele>
        <time>2011-07-03T07:24:32Z</time>
      </trkpt>
      <trkpt lat="47.23174" lon="-1.03959">
        <ele>38</ele>
        <time>2011-07-03T07:24:33Z</time>
      </trkpt>
      <trkpt lat="47.23145" lon="-1.03995">
        <ele>40.3</ele>
        <time>2011-07-03T07:24:48Z</time>
      </trkpt>
      <trkpt lat="47.23143" lon="-1.03998">
        <ele>40.5</ele>
        <time>2011-07-03T07:24:49Z</time>
      </trkpt>
      <trkpt lat="47.23137" lon="-1.04006">
        <ele>40.8</ele>
        <time>2011-07-03T07:24:53Z</time>
      </trkpt>
      <trkpt lat="47.23137" lon="-1.04009">
        <ele>40.8</ele>
        <time>2011-07-03T07:24:54Z</time>
      </trkpt>
      <trkpt lat="47.23138" lon="-1.0401">
        <ele>40.8</ele>
        <time>2011-07-03T07:24:55Z</time>
      </trkpt>
      <trkpt lat="47.2314" lon="-1.04012">
        <ele>40.8</ele>
        <time>2011-07-03T07:24:56Z</time>
      </trkpt>
      <trkpt lat="47.23141" lon="-1.04013">
        <ele>40.9</ele>
        <time>2011-07-03T07:24:57Z</time>
      </trkpt>
      <trkpt lat="47.23143" lon="-1.04013">
        <ele>41</ele>
        <time>2011-07-03T07:24:58Z</time>
      </trkpt>
      <trkpt lat="47.23146" lon="-1.04013">
        <ele>41</ele>
        <time>2011-07-03T07:25:00Z</time>
      </trkpt>
      <trkpt lat="47.23147" lon="-1.04013">
        <ele>41</ele>
        <time>2011-07-03T07:25:01Z</time>
      </trkpt>
      <trkpt lat="47.23175" lon="-1.04001">
        <ele>44</ele>
        <time>2011-07-03T07:25:19Z</time>
      </trkpt>
      <trkpt lat="47.2318" lon="-1.04">
        <ele>45</ele>
        <time>2011-07-03T07:25:23Z</time>
      </trkpt>
      <trkpt lat="47.23187" lon="-1.03998">
        <ele>46.5</ele>
        <time>2011-07-03T07:25:28Z</time>
      </trkpt>
      <trkpt lat="47.2319" lon="-1.03998">
        <ele>47.1</ele>
        <time>2011-07-03T07:25:30Z</time>
      </trkpt>
      <trkpt lat="47.23191" lon="-1.03999">
        <ele>47.3</ele>
        <time>2011-07-03T07:25:31Z</time>
      </trkpt>
      <trkpt lat="47.23192" lon="-1.04">
        <ele>47.7</ele>
        <time>2011-07-03T07:25:32Z</time>
      </trkpt>
      <trkpt lat="47.23192" lon="-1.04002">
        <ele>48</ele>
        <time>2011-07-03T07:25:33Z</time>
      </trkpt>
      <trkpt lat="47.23192" lon="-1.04003">
        <ele>48.3</ele>
        <time>2011-07-03T07:25:34Z</time>
      </trkpt>
      <trkpt lat="47.23191" lon="-1.04005">
        <ele>48.6</ele>
        <time>2011-07-03T07:25:35Z</time>
      </trkpt>
      <trkpt lat="47.23182" lon="-1.04018">
        <ele>50.2</ele>
        <time>2011-07-03T07:25:44Z</time>
      </trkpt>
      <trkpt lat="47.23182" lon="-1.04019">
        <ele>50.3</ele>
        <time>2011-07-03T07:25:45Z</time>
      </trkpt>
      <trkpt lat="47.23182" lon="-1.04021">
        <ele>50.3</ele>
        <time>2011-07-03T07:25:46Z</time>
      </trkpt>
      <trkpt lat="47.23181" lon="-1.04023">
        <ele>50.4</ele>
        <time>2011-07-03T07:25:47Z</time>
      </trkpt>
      <trkpt lat="47.23181" lon="-1.04025">
        <ele>50.4</ele>
        <time>2011-07-03T07:25:48Z</time>
      </trkpt>
      <trkpt lat="47.23179" lon="-1.04027">
        <ele>50.6</ele>
        <time>2011-07-03T07:25:50Z</time>
      </trkpt>
      <trkpt lat="47.23178" lon="-1.04029">
        <ele>50.7</ele>
        <time>2011-07-03T07:25:53Z</time>
      </trkpt>
      <trkpt lat="47.23178" lon="-1.0403">
        <ele>52.1</ele>
        <time>2011-07-03T07:25:58Z</time>
      </trkpt>
      <trkpt lat="47.23178" lon="-1.0403">
        <ele>52</ele>
        <time>2011-07-03T07:26:00Z</time>
      </trkpt>
      <trkpt lat="47.23178" lon="-1.0403">
        <ele>52.2</ele>
        <time>2011-07-03T07:26:12Z</time>
      </trkpt>
      <trkpt lat="47.23177" lon="-1.0403">
        <ele>51.8</ele>
        <time>2011-07-03T07:26:31Z</time>
      </trkpt>
      <trkpt lat="47.23178" lon="-1.04031">
        <ele>52.1</ele>
        <time>2011-07-03T07:26:42Z</time>
      </trkpt>
      <trkpt lat="47.23178" lon="-1.04031">
        <ele>51.5</ele>
        <time>2011-07-03T07:26:44Z</time>
      </trkpt>
      <trkpt lat="47.23178" lon="-1.04032">
        <ele>51.6</ele>
        <time>2011-07-03T07:26:48Z</time>
      </trkpt>
      <trkpt lat="47.23176" lon="-1.04035">
        <ele>51.7</ele>
        <time>2011-07-03T07:26:51Z</time>
      </trkpt>
      <trkpt lat="47.23175" lon="-1.04035">
        <ele>51.5</ele>
        <time>2011-07-03T07:26:52Z</time>
      </trkpt>
      <trkpt lat="47.23174" lon="-1.04035">
        <ele>51.4</ele>
        <time>2011-07-03T07:26:53Z</time>
      </trkpt>
      <trkpt lat="47.23172" lon="-1.04036">
        <ele>51.7</ele>
        <time>2011-07-03T07:26:54Z</time>
      </trkpt>
      <trkpt lat="47.23151" lon="-1.04058">
        <ele>52.5</ele>
        <time>2011-07-03T07:27:05Z</time>
      </trkpt>
      <trkpt lat="47.2314" lon="-1.04072">
        <ele>52.2</ele>
        <time>2011-07-03T07:27:11Z</time>
      </trkpt>
      <trkpt lat="47.23114" lon="-1.04117">
        <ele>53.6</ele>
        <time>2011-07-03T07:27:27Z</time>
      </trkpt>
      <trkpt lat="47.23108" lon="-1.0413">
        <ele>53.1</ele>
        <time>2011-07-03T07:27:32Z</time>
      </trkpt>
      <trkpt lat="47.23106" lon="-1.04132">
        <ele>53.3</ele>
        <time>2011-07-03T07:27:33Z</time>
      </trkpt>
      <trkpt lat="47.23106" lon="-1.04134">
        <ele>53.5</ele>
        <time>2011-07-03T07:27:34Z</time>
      </trkpt>
      <trkpt lat="47.23105" lon="-1.04136">
        <ele>53.6</ele>
        <time>2011-07-03T07:27:35Z</time>
      </trkpt>
      <trkpt lat="47.23102" lon="-1.04142">
        <ele>54</ele>
        <time>2011-07-03T07:27:37Z</time>
      </trkpt>
      <trkpt lat="47.23101" lon="-1.04144">
        <ele>54.2</ele>
        <time>2011-07-03T07:27:38Z</time>
      </trkpt>
      <trkpt lat="47.231" lon="-1.04147">
        <ele>54.1</ele>
        <time>2011-07-03T07:27:39Z</time>
      </trkpt>
      <trkpt lat="47.23091" lon="-1.04169">
        <ele>53.6</ele>
        <time>2011-07-03T07:27:47Z</time>
      </trkpt>
      <trkpt lat="47.23086" lon="-1.04175">
        <ele>53</ele>
        <time>2011-07-03T07:27:50Z</time>
      </trkpt>
      <trkpt lat="47.23082" lon="-1.04187">
        <ele>51.9</ele>
        <time>2011-07-03T07:27:54Z</time>
      </trkpt>
      <trkpt lat="47.23081" lon="-1.04191">
        <ele>51.8</ele>
        <time>2011-07-03T07:27:55Z</time>
      </trkpt>
      <trkpt lat="47.2308" lon="-1.04195">
        <ele>51.7</ele>
        <time>2011-07-03T07:27:56Z</time>
      </trkpt>
      <trkpt lat="47.23081" lon="-1.04206">
        <ele>51.9</ele>
        <time>2011-07-03T07:28:00Z</time>
      </trkpt>
      <trkpt lat="47.23081" lon="-1.04208">
        <ele>52</ele>
        <time>2011-07-03T07:28:01Z</time>
      </trkpt>
      <trkpt lat="47.23082" lon="-1.0421">
        <ele>51.5</ele>
        <time>2011-07-03T07:28:02Z</time>
      </trkpt>
      <trkpt lat="47.23081" lon="-1.04212">
        <ele>51</ele>
        <time>2011-07-03T07:28:03Z</time>
      </trkpt>
      <trkpt lat="47.23081" lon="-1.04213">
        <ele>50.7</ele>
        <time>2011-07-03T07:28:04Z</time>
      </trkpt>
      <trkpt lat="47.2308" lon="-1.04214">
        <ele>50.9</ele>
        <time>2011-07-03T07:28:05Z</time>
      </trkpt>
      <trkpt lat="47.23079" lon="-1.04214">
        <ele>51</ele>
        <time>2011-07-03T07:28:06Z</time>
      </trkpt>
      <trkpt lat="47.23077" lon="-1.04214">
        <ele>50.8</ele>
        <time>2011-07-03T07:28:08Z</time>
      </trkpt>
      <trkpt lat="47.23076" lon="-1.04214">
        <ele>50.6</ele>
        <time>2011-07-03T07:28:09Z</time>
      </trkpt>
      <trkpt lat="47.23075" lon="-1.04214">
        <ele>50.5</ele>
        <time>2011-07-03T07:28:10Z</time>
      </trkpt>
      <trkpt lat="47.23074" lon="-1.04214">
        <ele>50.6</ele>
        <time>2011-07-03T07:28:11Z</time>
      </trkpt>
      <trkpt lat="47.23073" lon="-1.04214">
        <ele>50.7</ele>
        <time>2011-07-03T07:28:12Z</time>
      </trkpt>
      <trkpt lat="47.23073" lon="-1.04215">
        <ele>50.8</ele>
        <time>2011-07-03T07:28:13Z</time>
      </trkpt>
      <trkpt lat="47.23073" lon="-1.04217">
        <ele>50</ele>
        <time>2011-07-03T07:28:14Z</time>
      </trkpt>
      <trkpt lat="47.23073" lon="-1.04218">
        <ele>49.4</ele>
        <time>2011-07-03T07:28:15Z</time>
      </trkpt>
      <trkpt lat="47.23073" lon="-1.04219">
        <ele>48.9</ele>
        <time>2011-07-03T07:28:16Z</time>
      </trkpt>
      <trkpt lat="47.23072" lon="-1.0422">
        <ele>48.7</ele>
        <time>2011-07-03T07:28:18Z</time>
      </trkpt>
      <trkpt lat="47.23072" lon="-1.04221">
        <ele>48.8</ele>
        <time>2011-07-03T07:28:19Z</time>
      </trkpt>
      <trkpt lat="47.23072" lon="-1.04222">
        <ele>48.8</ele>
        <time>2011-07-03T07:28:20Z</time>
      </trkpt>
      <trkpt lat="47.23072" lon="-1.04224">
        <ele>48.6</ele>
        <time>2011-07-03T07:28:21Z</time>
      </trkpt>
      <trkpt lat="47.23072" lon="-1.04225">
        <ele>48.5</ele>
        <time>2011-07-03T07:28:22Z</time>
      </trkpt>
      <trkpt lat="47.23072" lon="-1.04228">
        <ele>48.3</ele>
        <time>2011-07-03T07:28:24Z</time>
      </trkpt>
      <trkpt lat="47.23072" lon="-1.04229">
        <ele>48.2</ele>
        <time>2011-07-03T07:28:25Z</time>
      </trkpt>
      <trkpt lat="47.23071" lon="-1.04231">
        <ele>48.1</ele>
        <time>2011-07-03T07:28:26Z</time>
      </trkpt>
      <trkpt lat="47.2307" lon="-1.04233">
        <ele>48</ele>
        <time>2011-07-03T07:28:27Z</time>
      </trkpt>
      <trkpt lat="47.2307" lon="-1.04235">
        <ele>47.8</ele>
        <time>2011-07-03T07:28:29Z</time>
      </trkpt>
      <trkpt lat="47.23069" lon="-1.04236">
        <ele>48</ele>
        <time>2011-07-03T07:28:30Z</time>
      </trkpt>
      <trkpt lat="47.23069" lon="-1.04237">
        <ele>48.2</ele>
        <time>2011-07-03T07:28:31Z</time>
      </trkpt>
      <trkpt lat="47.2307" lon="-1.04239">
        <ele>48.3</ele>
        <time>2011-07-03T07:28:32Z</time>
      </trkpt>
      <trkpt lat="47.2307" lon="-1.04239">
        <ele>48.3</ele>
        <time>2011-07-03T07:28:33Z</time>
      </trkpt>
      <trkpt lat="47.23071" lon="-1.0424">
        <ele>48.4</ele>
        <time>2011-07-03T07:28:35Z</time>
      </trkpt>
      <trkpt lat="47.23072" lon="-1.0424">
        <ele>48.6</ele>
        <time>2011-07-03T07:28:37Z</time>
      </trkpt>
      <trkpt lat="47.23073" lon="-1.0424">
        <ele>48.8</ele>
        <time>2011-07-03T07:28:38Z</time>
      </trkpt>
      <trkpt lat="47.23075" lon="-1.04242">
        <ele>49.3</ele>
        <time>2011-07-03T07:28:40Z</time>
      </trkpt>
      <trkpt lat="47.23077" lon="-1.04243">
        <ele>49.6</ele>
        <time>2011-07-03T07:28:41Z</time>
      </trkpt>
      <trkpt lat="47.23081" lon="-1.04248">
        <ele>50</ele>
        <time>2011-07-03T07:28:44Z</time>
      </trkpt>
      <trkpt lat="47.23092" lon="-1.04256">
        <ele>51.8</ele>
        <time>2011-07-03T07:28:51Z</time>
      </trkpt>
      <trkpt lat="47.23093" lon="-1.04256">
        <ele>51.9</ele>
        <time>2011-07-03T07:28:52Z</time>
      </trkpt>
      <trkpt lat="47.23099" lon="-1.0426">
        <ele>53.3</ele>
        <time>2011-07-03T07:28:56Z</time>
      </trkpt>
      <trkpt lat="47.231" lon="-1.04261">
        <ele>53.5</ele>
        <time>2011-07-03T07:28:57Z</time>
      </trkpt>
      <trkpt lat="47.23159" lon="-1.04299">
        <ele>65.5</ele>
        <time>2011-07-03T07:29:42Z</time>
      </trkpt>
      <trkpt lat="47.23161" lon="-1.043">
        <ele>65.5</ele>
        <time>2011-07-03T07:29:43Z</time>
      </trkpt>
      <trkpt lat="47.23217" lon="-1.04313">
        <ele>72.3</ele>
        <time>2011-07-03T07:30:15Z</time>
      </trkpt>
      <trkpt lat="47.23218" lon="-1.04313">
        <ele>72.2</ele>
        <time>2011-07-03T07:30:16Z</time>
      </trkpt>
      <trkpt lat="47.23231" lon="-1.04316">
        <ele>72.8</ele>
        <time>2011-07-03T07:30:23Z</time>
      </trkpt>
      <trkpt lat="47.23234" lon="-1.04318">
        <ele>73.2</ele>
        <time>2011-07-03T07:30:25Z</time>
      </trkpt>
      <trkpt lat="47.23268" lon="-1.04332">
        <ele>75.6</ele>
        <time>2011-07-03T07:30:44Z</time>
      </trkpt>
      <trkpt lat="47.23317" lon="-1.04361">
        <ele>79</ele>
        <time>2011-07-03T07:31:09Z</time>
      </trkpt>
      <trkpt lat="47.23319" lon="-1.04361">
        <ele>79.1</ele>
        <time>2011-07-03T07:31:10Z</time>
      </trkpt>
      <trkpt lat="47.23327" lon="-1.04359">
        <ele>79.4</ele>
        <time>2011-07-03T07:31:13Z</time>
      </trkpt>
      <trkpt lat="47.23329" lon="-1.04359">
        <ele>79.5</ele>
        <time>2011-07-03T07:31:14Z</time>
      </trkpt>
      <trkpt lat="47.23334" lon="-1.0436">
        <ele>79.6</ele>
        <time>2011-07-03T07:31:16Z</time>
      </trkpt>
      <trkpt lat="47.23339" lon="-1.04363">
        <ele>79.6</ele>
        <time>2011-07-03T07:31:18Z</time>
      </trkpt>
      <trkpt lat="47.23369" lon="-1.04386">
        <ele>81</ele>
        <time>2011-07-03T07:31:30Z</time>
      </trkpt>
      <trkpt lat="47.23379" lon="-1.04395">
        <ele>82.1</ele>
        <time>2011-07-03T07:31:34Z</time>
      </trkpt>
      <trkpt lat="47.23384" lon="-1.04401">
        <ele>82.6</ele>
        <time>2011-07-03T07:31:36Z</time>
      </trkpt>
      <trkpt lat="47.23398" lon="-1.0442">
        <ele>84.1</ele>
        <time>2011-07-03T07:31:43Z</time>
      </trkpt>
      <trkpt lat="47.23399" lon="-1.04423">
        <ele>84.2</ele>
        <time>2011-07-03T07:31:44Z</time>
      </trkpt>
      <trkpt lat="47.23402" lon="-1.04429">
        <ele>84.5</ele>
        <time>2011-07-03T07:31:46Z</time>
      </trkpt>
      <trkpt lat="47.23402" lon="-1.04434">
        <ele>84.6</ele>
        <time>2011-07-03T07:31:47Z</time>
      </trkpt>
      <trkpt lat="47.23402" lon="-1.04438">
        <ele>84.5</ele>
        <time>2011-07-03T07:31:48Z</time>
      </trkpt>
      <trkpt lat="47.23402" lon="-1.04443">
        <ele>84.5</ele>
        <time>2011-07-03T07:31:49Z</time>
      </trkpt>
      <trkpt lat="47.23401" lon="-1.04447">
        <ele>84.5</ele>
        <time>2011-07-03T07:31:50Z</time>
      </trkpt>
      <trkpt lat="47.23318" lon="-1.04645">
        <ele>89.5</ele>
        <time>2011-07-03T07:32:36Z</time>
      </trkpt>
      <trkpt lat="47.23317" lon="-1.0465">
        <ele>89.7</ele>
        <time>2011-07-03T07:32:37Z</time>
      </trkpt>
      <trkpt lat="47.23242" lon="-1.0485">
        <ele>91.9</ele>
        <time>2011-07-03T07:33:14Z</time>
      </trkpt>
      <trkpt lat="47.23241" lon="-1.04856">
        <ele>92</ele>
        <time>2011-07-03T07:33:15Z</time>
      </trkpt>
      <trkpt lat="47.2324" lon="-1.04862">
        <ele>92</ele>
        <time>2011-07-03T07:33:16Z</time>
      </trkpt>
      <trkpt lat="47.23241" lon="-1.04875">
        <ele>91.9</ele>
        <time>2011-07-03T07:33:18Z</time>
      </trkpt>
      <trkpt lat="47.2324" lon="-1.0488">
        <ele>91.8</ele>
        <time>2011-07-03T07:33:19Z</time>
      </trkpt>
      <trkpt lat="47.23238" lon="-1.04885">
        <ele>91.7</ele>
        <time>2011-07-03T07:33:20Z</time>
      </trkpt>
      <trkpt lat="47.23235" lon="-1.04887">
        <ele>91.8</ele>
        <time>2011-07-03T07:33:21Z</time>
      </trkpt>
      <trkpt lat="47.23231" lon="-1.04889">
        <ele>91.9</ele>
        <time>2011-07-03T07:33:22Z</time>
      </trkpt>
      <trkpt lat="47.23195" lon="-1.04905">
        <ele>91.4</ele>
        <time>2011-07-03T07:33:30Z</time>
      </trkpt>
      <trkpt lat="47.23192" lon="-1.04905">
        <ele>91.4</ele>
        <time>2011-07-03T07:33:31Z</time>
      </trkpt>
      <trkpt lat="47.23188" lon="-1.04903">
        <ele>91.3</ele>
        <time>2011-07-03T07:33:32Z</time>
      </trkpt>
      <trkpt lat="47.23143" lon="-1.0487">
        <ele>90.3</ele>
        <time>2011-07-03T07:33:42Z</time>
      </trkpt>
      <trkpt lat="47.23138" lon="-1.04866">
        <ele>90.2</ele>
        <time>2011-07-03T07:33:43Z</time>
      </trkpt>
      <trkpt lat="47.23126" lon="-1.0485">
        <ele>89.6</ele>
        <time>2011-07-03T07:33:46Z</time>
      </trkpt>
      <trkpt lat="47.23099" lon="-1.04806">
        <ele>87</ele>
        <time>2011-07-03T07:33:52Z</time>
      </trkpt>
      <trkpt lat="47.23092" lon="-1.04799">
        <ele>86.6</ele>
        <time>2011-07-03T07:33:53Z</time>
      </trkpt>
      <trkpt lat="47.23062" lon="-1.04772">
        <ele>84.2</ele>
        <time>2011-07-03T07:33:58Z</time>
      </trkpt>
      <trkpt lat="47.23056" lon="-1.04768">
        <ele>83.3</ele>
        <time>2011-07-03T07:33:59Z</time>
      </trkpt>
      <trkpt lat="47.23009" lon="-1.04741">
        <ele>79.5</ele>
        <time>2011-07-03T07:34:06Z</time>
      </trkpt>
      <trkpt lat="47.22982" lon="-1.04728">
        <ele>76.5</ele>
        <time>2011-07-03T07:34:10Z</time>
      </trkpt>
      <trkpt lat="47.22978" lon="-1.04726">
        <ele>75.9</ele>
        <time>2011-07-03T07:34:11Z</time>
      </trkpt>
      <trkpt lat="47.22976" lon="-1.04726">
        <ele>74.3</ele>
        <time>2011-07-03T07:34:12Z</time>
      </trkpt>
      <trkpt lat="47.22974" lon="-1.04726">
        <ele>72.3</ele>
        <time>2011-07-03T07:34:14Z</time>
      </trkpt>
      <trkpt lat="47.22973" lon="-1.04726">
        <ele>71.5</ele>
        <time>2011-07-03T07:34:15Z</time>
      </trkpt>
      <trkpt lat="47.22963" lon="-1.04721">
        <ele>70.4</ele>
        <time>2011-07-03T07:34:20Z</time>
      </trkpt>
      <trkpt lat="47.22959" lon="-1.0472">
        <ele>70.2</ele>
        <time>2011-07-03T07:34:21Z</time>
      </trkpt>
      <trkpt lat="47.22954" lon="-1.04721">
        <ele>70</ele>
        <time>2011-07-03T07:34:22Z</time>
      </trkpt>
      <trkpt lat="47.22949" lon="-1.04723">
        <ele>69.8</ele>
        <time>2011-07-03T07:34:23Z</time>
      </trkpt>
      <trkpt lat="47.22944" lon="-1.04726">
        <ele>69.7</ele>
        <time>2011-07-03T07:34:24Z</time>
      </trkpt>
      <trkpt lat="47.22938" lon="-1.04731">
        <ele>69.3</ele>
        <time>2011-07-03T07:34:25Z</time>
      </trkpt>
      <trkpt lat="47.22928" lon="-1.04743">
        <ele>68.9</ele>
        <time>2011-07-03T07:34:27Z</time>
      </trkpt>
      <trkpt lat="47.22924" lon="-1.04751">
        <ele>67.7</ele>
        <time>2011-07-03T07:34:28Z</time>
      </trkpt>
      <trkpt lat="47.22912" lon="-1.04776">
        <ele>64.5</ele>
        <time>2011-07-03T07:34:31Z</time>
      </trkpt>
      <trkpt lat="47.22887" lon="-1.0484">
        <ele>57.2</ele>
        <time>2011-07-03T07:34:38Z</time>
      </trkpt>
      <trkpt lat="47.22848" lon="-1.04907">
        <ele>52.1</ele>
        <time>2011-07-03T07:34:46Z</time>
      </trkpt>
      <trkpt lat="47.22845" lon="-1.04912">
        <ele>51.1</ele>
        <time>2011-07-03T07:34:47Z</time>
      </trkpt>
      <trkpt lat="47.22843" lon="-1.0492">
        <ele>49</ele>
        <time>2011-07-03T07:34:50Z</time>
      </trkpt>
      <trkpt lat="47.22843" lon="-1.0492">
        <ele>48.5</ele>
        <time>2011-07-03T07:34:51Z</time>
      </trkpt>
      <trkpt lat="47.22842" lon="-1.04921">
        <ele>48</ele>
        <time>2011-07-03T07:34:52Z</time>
      </trkpt>
      <trkpt lat="47.22842" lon="-1.04922">
        <ele>47.8</ele>
        <time>2011-07-03T07:34:53Z</time>
      </trkpt>
      <trkpt lat="47.22841" lon="-1.04922">
        <ele>47.6</ele>
        <time>2011-07-03T07:34:54Z</time>
      </trkpt>
      <trkpt lat="47.22841" lon="-1.04923">
        <ele>47.5</ele>
        <time>2011-07-03T07:34:55Z</time>
      </trkpt>
      <trkpt lat="47.22841" lon="-1.04924">
        <ele>47.4</ele>
        <time>2011-07-03T07:34:56Z</time>
      </trkpt>
      <trkpt lat="47.2284" lon="-1.04924">
        <ele>47.5</ele>
        <time>2011-07-03T07:34:57Z</time>
      </trkpt>
      <trkpt lat="47.2284" lon="-1.04924">
        <ele>47.6</ele>
        <time>2011-07-03T07:34:58Z</time>
      </trkpt>
      <trkpt lat="47.22839" lon="-1.04925">
        <ele>47.6</ele>
        <time>2011-07-03T07:34:59Z</time>
      </trkpt>
      <trkpt lat="47.22839" lon="-1.04926">
        <ele>47.5</ele>
        <time>2011-07-03T07:35:00Z</time>
      </trkpt>
      <trkpt lat="47.22839" lon="-1.04926">
        <ele>47.4</ele>
        <time>2011-07-03T07:35:01Z</time>
      </trkpt>
      <trkpt lat="47.22838" lon="-1.04927">
        <ele>47.3</ele>
        <time>2011-07-03T07:35:02Z</time>
      </trkpt>
      <trkpt lat="47.22836" lon="-1.0493">
        <ele>47.8</ele>
        <time>2011-07-03T07:35:06Z</time>
      </trkpt>
      <trkpt lat="47.22836" lon="-1.0493">
        <ele>47.8</ele>
        <time>2011-07-03T07:35:07Z</time>
      </trkpt>
      <trkpt lat="47.22835" lon="-1.0493">
        <ele>47.9</ele>
        <time>2011-07-03T07:35:08Z</time>
      </trkpt>
      <trkpt lat="47.22835" lon="-1.0493">
        <ele>47.3</ele>
        <time>2011-07-03T07:35:10Z</time>
      </trkpt>
      <trkpt lat="47.22833" lon="-1.0493">
        <ele>47.5</ele>
        <time>2011-07-03T07:35:13Z</time>
      </trkpt>
      <trkpt lat="47.22831" lon="-1.04931">
        <ele>47.8</ele>
        <time>2011-07-03T07:35:16Z</time>
      </trkpt>
      <trkpt lat="47.2283" lon="-1.04931">
        <ele>47.7</ele>
        <time>2011-07-03T07:35:20Z</time>
      </trkpt>
      <trkpt lat="47.22829" lon="-1.04931">
        <ele>47.6</ele>
        <time>2011-07-03T07:35:21Z</time>
      </trkpt>
      <trkpt lat="47.22829" lon="-1.0493">
        <ele>47.5</ele>
        <time>2011-07-03T07:35:23Z</time>
      </trkpt>
      <trkpt lat="47.22829" lon="-1.0493">
        <ele>47.5</ele>
        <time>2011-07-03T07:35:25Z</time>
      </trkpt>
      <trkpt lat="47.22828" lon="-1.0493">
        <ele>47.5</ele>
        <time>2011-07-03T07:35:26Z</time>
      </trkpt>
      <trkpt lat="47.22828" lon="-1.0493">
        <ele>47.5</ele>
        <time>2011-07-03T07:35:27Z</time>
      </trkpt>
      <trkpt lat="47.22828" lon="-1.0493">
        <ele>47.8</ele>
        <time>2011-07-03T07:35:29Z</time>
      </trkpt>
      <trkpt lat="47.22828" lon="-1.0493">
        <ele>47.9</ele>
        <time>2011-07-03T07:35:32Z</time>
      </trkpt>
      <trkpt lat="47.22827" lon="-1.04929">
        <ele>47.6</ele>
        <time>2011-07-03T07:35:35Z</time>
      </trkpt>
      <trkpt lat="47.22826" lon="-1.04929">
        <ele>47.4</ele>
        <time>2011-07-03T07:35:36Z</time>
      </trkpt>
      <trkpt lat="47.22825" lon="-1.04929">
        <ele>47.2</ele>
        <time>2011-07-03T07:35:37Z</time>
      </trkpt>
      <trkpt lat="47.22824" lon="-1.04929">
        <ele>46.9</ele>
        <time>2011-07-03T07:35:38Z</time>
      </trkpt>
      <trkpt lat="47.22823" lon="-1.04929">
        <ele>46.6</ele>
        <time>2011-07-03T07:35:39Z</time>
      </trkpt>
      <trkpt lat="47.22822" lon="-1.04929">
        <ele>46.4</ele>
        <time>2011-07-03T07:35:40Z</time>
      </trkpt>
      <trkpt lat="47.22821" lon="-1.04929">
        <ele>46.4</ele>
        <time>2011-07-03T07:35:41Z</time>
      </trkpt>
      <trkpt lat="47.22821" lon="-1.04929">
        <ele>46.4</ele>
        <time>2011-07-03T07:35:43Z</time>
      </trkpt>
      <trkpt lat="47.22818" lon="-1.0493">
        <ele>46.3</ele>
        <time>2011-07-03T07:35:46Z</time>
      </trkpt>
      <trkpt lat="47.22807" lon="-1.04932">
        <ele>46.2</ele>
        <time>2011-07-03T07:35:53Z</time>
      </trkpt>
      <trkpt lat="47.22806" lon="-1.04932">
        <ele>46.4</ele>
        <time>2011-07-03T07:35:54Z</time>
      </trkpt>
      <trkpt lat="47.22805" lon="-1.04932">
        <ele>46.6</ele>
        <time>2011-07-03T07:35:55Z</time>
      </trkpt>
      <trkpt lat="47.22804" lon="-1.04932">
        <ele>46.7</ele>
        <time>2011-07-03T07:35:56Z</time>
      </trkpt>
      <trkpt lat="47.22804" lon="-1.04931">
        <ele>46.8</ele>
        <time>2011-07-03T07:35:57Z</time>
      </trkpt>
      <trkpt lat="47.22803" lon="-1.04931">
        <ele>46.8</ele>
        <time>2011-07-03T07:35:58Z</time>
      </trkpt>
      <trkpt lat="47.22803" lon="-1.04931">
        <ele>47.3</ele>
        <time>2011-07-03T07:36:03Z</time>
      </trkpt>
      <trkpt lat="47.22803" lon="-1.04931">
        <ele>46.9</ele>
        <time>2011-07-03T07:36:05Z</time>
      </trkpt>
      <trkpt lat="47.22802" lon="-1.04932">
        <ele>46.7</ele>
        <time>2011-07-03T07:36:06Z</time>
      </trkpt>
      <trkpt lat="47.22802" lon="-1.04931">
        <ele>47.5</ele>
        <time>2011-07-03T07:36:10Z</time>
      </trkpt>
      <trkpt lat="47.22802" lon="-1.04932">
        <ele>47.5</ele>
        <time>2011-07-03T07:36:11Z</time>
      </trkpt>
      <trkpt lat="47.22801" lon="-1.04932">
        <ele>47.3</ele>
        <time>2011-07-03T07:36:13Z</time>
      </trkpt>
      <trkpt lat="47.228" lon="-1.04932">
        <ele>46.9</ele>
        <time>2011-07-03T07:36:16Z</time>
      </trkpt>
      <trkpt lat="47.22799" lon="-1.04932">
        <ele>47.5</ele>
        <time>2011-07-03T07:36:20Z</time>
      </trkpt>
      <trkpt lat="47.22799" lon="-1.04933">
        <ele>47.7</ele>
        <time>2011-07-03T07:36:21Z</time>
      </trkpt>
      <trkpt lat="47.22798" lon="-1.04933">
        <ele>47.9</ele>
        <time>2011-07-03T07:36:22Z</time>
      </trkpt>
      <trkpt lat="47.22798" lon="-1.04934">
        <ele>47.8</ele>
        <time>2011-07-03T07:36:24Z</time>
      </trkpt>
      <trkpt lat="47.22797" lon="-1.04934">
        <ele>47.7</ele>
        <time>2011-07-03T07:36:25Z</time>
      </trkpt>
      <trkpt lat="47.22796" lon="-1.04934">
        <ele>47.9</ele>
        <time>2011-07-03T07:36:26Z</time>
      </trkpt>
      <trkpt lat="47.22795" lon="-1.04933">
        <ele>48</ele>
        <time>2011-07-03T07:36:27Z</time>
      </trkpt>
      <trkpt lat="47.22795" lon="-1.04933">
        <ele>48.1</ele>
        <time>2011-07-03T07:36:28Z</time>
      </trkpt>
      <trkpt lat="47.2279" lon="-1.04931">
        <ele>47.8</ele>
        <time>2011-07-03T07:36:32Z</time>
      </trkpt>
      <trkpt lat="47.22785" lon="-1.04929">
        <ele>47.4</ele>
        <time>2011-07-03T07:36:36Z</time>
      </trkpt>
      <trkpt lat="47.22781" lon="-1.04926">
        <ele>47.7</ele>
        <time>2011-07-03T07:36:40Z</time>
      </trkpt>
      <trkpt lat="47.22779" lon="-1.04925">
        <ele>47.7</ele>
        <time>2011-07-03T07:36:42Z</time>
      </trkpt>
      <trkpt lat="47.22777" lon="-1.04923">
        <ele>47.6</ele>
        <time>2011-07-03T07:36:44Z</time>
      </trkpt>
      <trkpt lat="47.22776" lon="-1.04922">
        <ele>47.9</ele>
        <time>2011-07-03T07:36:45Z</time>
      </trkpt>
      <trkpt lat="47.22775" lon="-1.04922">
        <ele>48.1</ele>
        <time>2011-07-03T07:36:46Z</time>
      </trkpt>
      <trkpt lat="47.22775" lon="-1.0492">
        <ele>48.4</ele>
        <time>2011-07-03T07:36:48Z</time>
      </trkpt>
      <trkpt lat="47.22774" lon="-1.04919">
        <ele>48.5</ele>
        <time>2011-07-03T07:36:49Z</time>
      </trkpt>
      <trkpt lat="47.22773" lon="-1.04918">
        <ele>48.6</ele>
        <time>2011-07-03T07:36:50Z</time>
      </trkpt>
      <trkpt lat="47.22773" lon="-1.04917">
        <ele>48.6</ele>
        <time>2011-07-03T07:36:51Z</time>
      </trkpt>
      <trkpt lat="47.22771" lon="-1.04915">
        <ele>48.5</ele>
        <time>2011-07-03T07:36:53Z</time>
      </trkpt>
      <trkpt lat="47.22771" lon="-1.04914">
        <ele>48.5</ele>
        <time>2011-07-03T07:36:54Z</time>
      </trkpt>
      <trkpt lat="47.2277" lon="-1.04913">
        <ele>48.9</ele>
        <time>2011-07-03T07:36:55Z</time>
      </trkpt>
      <trkpt lat="47.2277" lon="-1.0491">
        <ele>49.3</ele>
        <time>2011-07-03T07:36:57Z</time>
      </trkpt>
      <trkpt lat="47.22769" lon="-1.0491">
        <ele>49.6</ele>
        <time>2011-07-03T07:36:58Z</time>
      </trkpt>
      <trkpt lat="47.22769" lon="-1.04908">
        <ele>49.7</ele>
        <time>2011-07-03T07:36:59Z</time>
      </trkpt>
      <trkpt lat="47.22769" lon="-1.04905">
        <ele>49.8</ele>
        <time>2011-07-03T07:37:02Z</time>
      </trkpt>
      <trkpt lat="47.22769" lon="-1.04904">
        <ele>49.8</ele>
        <time>2011-07-03T07:37:03Z</time>
      </trkpt>
      <trkpt lat="47.22769" lon="-1.04903">
        <ele>49.7</ele>
        <time>2011-07-03T07:37:04Z</time>
      </trkpt>
      <trkpt lat="47.22769" lon="-1.04902">
        <ele>49.7</ele>
        <time>2011-07-03T07:37:05Z</time>
      </trkpt>
      <trkpt lat="47.22769" lon="-1.04902">
        <ele>49.7</ele>
        <time>2011-07-03T07:37:06Z</time>
      </trkpt>
      <trkpt lat="47.22769" lon="-1.04902">
        <ele>49.7</ele>
        <time>2011-07-03T07:37:07Z</time>
      </trkpt>
      <trkpt lat="47.22769" lon="-1.04901">
        <ele>49.7</ele>
        <time>2011-07-03T07:37:08Z</time>
      </trkpt>
      <trkpt lat="47.22769" lon="-1.049">
        <ele>49.6</ele>
        <time>2011-07-03T07:37:10Z</time>
      </trkpt>
      <trkpt lat="47.22769" lon="-1.049">
        <ele>50</ele>
        <time>2011-07-03T07:37:11Z</time>
      </trkpt>
      <trkpt lat="47.22769" lon="-1.04899">
        <ele>50.2</ele>
        <time>2011-07-03T07:37:12Z</time>
      </trkpt>
      <trkpt lat="47.2277" lon="-1.04897">
        <ele>50.4</ele>
        <time>2011-07-03T07:37:13Z</time>
      </trkpt>
      <trkpt lat="47.2277" lon="-1.04896">
        <ele>50.6</ele>
        <time>2011-07-03T07:37:14Z</time>
      </trkpt>
      <trkpt lat="47.2277" lon="-1.04894">
        <ele>50.8</ele>
        <time>2011-07-03T07:37:16Z</time>
      </trkpt>
      <trkpt lat="47.2277" lon="-1.04893">
        <ele>51.2</ele>
        <time>2011-07-03T07:37:17Z</time>
      </trkpt>
      <trkpt lat="47.22771" lon="-1.04892">
        <ele>51.5</ele>
        <time>2011-07-03T07:37:18Z</time>
      </trkpt>
      <trkpt lat="47.2277" lon="-1.04891">
        <ele>51.9</ele>
        <time>2011-07-03T07:37:20Z</time>
      </trkpt>
      <trkpt lat="47.2277" lon="-1.04891">
        <ele>52.1</ele>
        <time>2011-07-03T07:37:21Z</time>
      </trkpt>
      <trkpt lat="47.22771" lon="-1.0489">
        <ele>52.3</ele>
        <time>2011-07-03T07:37:22Z</time>
      </trkpt>
      <trkpt lat="47.22772" lon="-1.04889">
        <ele>52.5</ele>
        <time>2011-07-03T07:37:24Z</time>
      </trkpt>
      <trkpt lat="47.22772" lon="-1.04888">
        <ele>52.6</ele>
        <time>2011-07-03T07:37:25Z</time>
      </trkpt>
      <trkpt lat="47.22778" lon="-1.04876">
        <ele>53.2</ele>
        <time>2011-07-03T07:37:31Z</time>
      </trkpt>
      <trkpt lat="47.22782" lon="-1.04863">
        <ele>55.3</ele>
        <time>2011-07-03T07:37:39Z</time>
      </trkpt>
      <trkpt lat="47.22784" lon="-1.04859">
        <ele>55.5</ele>
        <time>2011-07-03T07:37:41Z</time>
      </trkpt>
      <trkpt lat="47.22784" lon="-1.04857">
        <ele>55.6</ele>
        <time>2011-07-03T07:37:42Z</time>
      </trkpt>
      <trkpt lat="47.22784" lon="-1.04855">
        <ele>56</ele>
        <time>2011-07-03T07:37:43Z</time>
      </trkpt>
      <trkpt lat="47.22784" lon="-1.04853">
        <ele>56.3</ele>
        <time>2011-07-03T07:37:44Z</time>
      </trkpt>
      <trkpt lat="47.22784" lon="-1.04847">
        <ele>56.9</ele>
        <time>2011-07-03T07:37:47Z</time>
      </trkpt>
      <trkpt lat="47.22784" lon="-1.04845">
        <ele>57</ele>
        <time>2011-07-03T07:37:48Z</time>
      </trkpt>
      <trkpt lat="47.22782" lon="-1.04816">
        <ele>61.3</ele>
        <time>2011-07-03T07:38:01Z</time>
      </trkpt>
      <trkpt lat="47.22781" lon="-1.04814">
        <ele>61.4</ele>
        <time>2011-07-03T07:38:02Z</time>
      </trkpt>
      <trkpt lat="47.22781" lon="-1.04809">
        <ele>61.5</ele>
        <time>2011-07-03T07:38:04Z</time>
      </trkpt>
      <trkpt lat="47.22779" lon="-1.04783">
        <ele>63.8</ele>
        <time>2011-07-03T07:38:14Z</time>
      </trkpt>
      <trkpt lat="47.22778" lon="-1.04778">
        <ele>64.5</ele>
        <time>2011-07-03T07:38:16Z</time>
      </trkpt>
      <trkpt lat="47.22777" lon="-1.04772">
        <ele>64.9</ele>
        <time>2011-07-03T07:38:18Z</time>
      </trkpt>
      <trkpt lat="47.22776" lon="-1.04744">
        <ele>66.5</ele>
        <time>2011-07-03T07:38:28Z</time>
      </trkpt>
      <trkpt lat="47.22776" lon="-1.04736">
        <ele>67.4</ele>
        <time>2011-07-03T07:38:31Z</time>
      </trkpt>
      <trkpt lat="47.22772" lon="-1.04717">
        <ele>69.4</ele>
        <time>2011-07-03T07:38:38Z</time>
      </trkpt>
      <trkpt lat="47.22767" lon="-1.04701">
        <ele>69.8</ele>
        <time>2011-07-03T07:38:44Z</time>
      </trkpt>
      <trkpt lat="47.22765" lon="-1.04697">
        <ele>70.2</ele>
        <time>2011-07-03T07:38:46Z</time>
      </trkpt>
      <trkpt lat="47.22763" lon="-1.04693">
        <ele>70.6</ele>
        <time>2011-07-03T07:38:48Z</time>
      </trkpt>
      <trkpt lat="47.22762" lon="-1.04691">
        <ele>70.7</ele>
        <time>2011-07-03T07:38:49Z</time>
      </trkpt>
      <trkpt lat="47.22759" lon="-1.04688">
        <ele>71.2</ele>
        <time>2011-07-03T07:38:51Z</time>
      </trkpt>
      <trkpt lat="47.22756" lon="-1.04686">
        <ele>71.6</ele>
        <time>2011-07-03T07:38:53Z</time>
      </trkpt>
      <trkpt lat="47.22754" lon="-1.04685">
        <ele>71.9</ele>
        <time>2011-07-03T07:38:54Z</time>
      </trkpt>
      <trkpt lat="47.22741" lon="-1.04678">
        <ele>73.1</ele>
        <time>2011-07-03T07:39:01Z</time>
      </trkpt>
      <trkpt lat="47.22738" lon="-1.04677">
        <ele>74</ele>
        <time>2011-07-03T07:39:03Z</time>
      </trkpt>
      <trkpt lat="47.22721" lon="-1.04672">
        <ele>75.4</ele>
        <time>2011-07-03T07:39:12Z</time>
      </trkpt>
      <trkpt lat="47.22716" lon="-1.04671">
        <ele>75.1</ele>
        <time>2011-07-03T07:39:15Z</time>
      </trkpt>
      <trkpt lat="47.22691" lon="-1.04665">
        <ele>78.4</ele>
        <time>2011-07-03T07:39:29Z</time>
      </trkpt>
      <trkpt lat="47.22689" lon="-1.04663">
        <ele>78.5</ele>
        <time>2011-07-03T07:39:30Z</time>
      </trkpt>
      <trkpt lat="47.22687" lon="-1.04662">
        <ele>79</ele>
        <time>2011-07-03T07:39:31Z</time>
      </trkpt>
      <trkpt lat="47.22686" lon="-1.0466">
        <ele>79.4</ele>
        <time>2011-07-03T07:39:32Z</time>
      </trkpt>
      <trkpt lat="47.22685" lon="-1.04654">
        <ele>80</ele>
        <time>2011-07-03T07:39:34Z</time>
      </trkpt>
      <trkpt lat="47.22683" lon="-1.04634">
        <ele>81.2</ele>
        <time>2011-07-03T07:39:41Z</time>
      </trkpt>
      <trkpt lat="47.22683" lon="-1.04631">
        <ele>81.3</ele>
        <time>2011-07-03T07:39:42Z</time>
      </trkpt>
      <trkpt lat="47.22682" lon="-1.04629">
        <ele>81.4</ele>
        <time>2011-07-03T07:39:43Z</time>
      </trkpt>
      <trkpt lat="47.22681" lon="-1.0461">
        <ele>82.2</ele>
        <time>2011-07-03T07:39:49Z</time>
      </trkpt>
      <trkpt lat="47.22683" lon="-1.04544">
        <ele>84.1</ele>
        <time>2011-07-03T07:40:05Z</time>
      </trkpt>
      <trkpt lat="47.22682" lon="-1.0454">
        <ele>84.3</ele>
        <time>2011-07-03T07:40:06Z</time>
      </trkpt>
      <trkpt lat="47.22681" lon="-1.04536">
        <ele>84.5</ele>
        <time>2011-07-03T07:40:07Z</time>
      </trkpt>
      <trkpt lat="47.2268" lon="-1.04533">
        <ele>84.7</ele>
        <time>2011-07-03T07:40:08Z</time>
      </trkpt>
      <trkpt lat="47.22678" lon="-1.04531">
        <ele>84.9</ele>
        <time>2011-07-03T07:40:09Z</time>
      </trkpt>
      <trkpt lat="47.22676" lon="-1.04529">
        <ele>85</ele>
        <time>2011-07-03T07:40:10Z</time>
      </trkpt>
      <trkpt lat="47.22674" lon="-1.04527">
        <ele>85.1</ele>
        <time>2011-07-03T07:40:11Z</time>
      </trkpt>
      <trkpt lat="47.22588" lon="-1.04474">
        <ele>89.8</ele>
        <time>2011-07-03T07:40:45Z</time>
      </trkpt>
      <trkpt lat="47.22576" lon="-1.0447">
        <ele>90.2</ele>
        <time>2011-07-03T07:40:49Z</time>
      </trkpt>
      <trkpt lat="47.22573" lon="-1.04468">
        <ele>90.3</ele>
        <time>2011-07-03T07:40:50Z</time>
      </trkpt>
      <trkpt lat="47.22556" lon="-1.0446">
        <ele>91.5</ele>
        <time>2011-07-03T07:40:56Z</time>
      </trkpt>
      <trkpt lat="47.22519" lon="-1.04446">
        <ele>92.5</ele>
        <time>2011-07-03T07:41:08Z</time>
      </trkpt>
      <trkpt lat="47.22516" lon="-1.04446">
        <ele>92.5</ele>
        <time>2011-07-03T07:41:09Z</time>
      </trkpt>
      <trkpt lat="47.22508" lon="-1.04441">
        <ele>92.8</ele>
        <time>2011-07-03T07:41:12Z</time>
      </trkpt>
      <trkpt lat="47.22506" lon="-1.04439">
        <ele>92.8</ele>
        <time>2011-07-03T07:41:13Z</time>
      </trkpt>
      <trkpt lat="47.22504" lon="-1.04436">
        <ele>92.9</ele>
        <time>2011-07-03T07:41:14Z</time>
      </trkpt>
      <trkpt lat="47.22503" lon="-1.04433">
        <ele>92.9</ele>
        <time>2011-07-03T07:41:15Z</time>
      </trkpt>
      <trkpt lat="47.225" lon="-1.04421">
        <ele>93.6</ele>
        <time>2011-07-03T07:41:18Z</time>
      </trkpt>
      <trkpt lat="47.22498" lon="-1.04409">
        <ele>94.3</ele>
        <time>2011-07-03T07:41:21Z</time>
      </trkpt>
      <trkpt lat="47.22497" lon="-1.04406">
        <ele>94.5</ele>
        <time>2011-07-03T07:41:22Z</time>
      </trkpt>
      <trkpt lat="47.22495" lon="-1.04404">
        <ele>94.2</ele>
        <time>2011-07-03T07:41:23Z</time>
      </trkpt>
      <trkpt lat="47.22492" lon="-1.04404">
        <ele>94</ele>
        <time>2011-07-03T07:41:24Z</time>
      </trkpt>
      <trkpt lat="47.2249" lon="-1.04404">
        <ele>93.8</ele>
        <time>2011-07-03T07:41:25Z</time>
      </trkpt>
      <trkpt lat="47.22487" lon="-1.04405">
        <ele>93.7</ele>
        <time>2011-07-03T07:41:26Z</time>
      </trkpt>
      <trkpt lat="47.22449" lon="-1.04419">
        <ele>94.6</ele>
        <time>2011-07-03T07:41:40Z</time>
      </trkpt>
      <trkpt lat="47.22401" lon="-1.04441">
        <ele>94</ele>
        <time>2011-07-03T07:41:57Z</time>
      </trkpt>
      <trkpt lat="47.22398" lon="-1.04443">
        <ele>94.2</ele>
        <time>2011-07-03T07:41:58Z</time>
      </trkpt>
      <trkpt lat="47.22396" lon="-1.04446">
        <ele>94.4</ele>
        <time>2011-07-03T07:41:59Z</time>
      </trkpt>
      <trkpt lat="47.22395" lon="-1.04449">
        <ele>94.5</ele>
        <time>2011-07-03T07:42:00Z</time>
      </trkpt>
      <trkpt lat="47.22395" lon="-1.04452">
        <ele>94.6</ele>
        <time>2011-07-03T07:42:01Z</time>
      </trkpt>
      <trkpt lat="47.22395" lon="-1.04455">
        <ele>94.7</ele>
        <time>2011-07-03T07:42:02Z</time>
      </trkpt>
      <trkpt lat="47.22402" lon="-1.0452">
        <ele>95.1</ele>
        <time>2011-07-03T07:42:17Z</time>
      </trkpt>
      <trkpt lat="47.22403" lon="-1.04525">
        <ele>95.2</ele>
        <time>2011-07-03T07:42:18Z</time>
      </trkpt>
      <trkpt lat="47.22431" lon="-1.04703">
        <ele>93.3</ele>
        <time>2011-07-03T07:42:46Z</time>
      </trkpt>
      <trkpt lat="47.22431" lon="-1.04711">
        <ele>93.1</ele>
        <time>2011-07-03T07:42:47Z</time>
      </trkpt>
      <trkpt lat="47.22431" lon="-1.0472">
        <ele>92.9</ele>
        <time>2011-07-03T07:42:48Z</time>
      </trkpt>
      <trkpt lat="47.22429" lon="-1.04727">
        <ele>92.9</ele>
        <time>2011-07-03T07:42:49Z</time>
      </trkpt>
      <trkpt lat="47.22426" lon="-1.04731">
        <ele>92.8</ele>
        <time>2011-07-03T07:42:50Z</time>
      </trkpt>
      <trkpt lat="47.22421" lon="-1.04734">
        <ele>92.8</ele>
        <time>2011-07-03T07:42:51Z</time>
      </trkpt>
      <trkpt lat="47.22356" lon="-1.04768">
        <ele>94.2</ele>
        <time>2011-07-03T07:43:07Z</time>
      </trkpt>
      <trkpt lat="47.22352" lon="-1.04771">
        <ele>94.1</ele>
        <time>2011-07-03T07:43:08Z</time>
      </trkpt>
      <trkpt lat="47.22349" lon="-1.04774">
        <ele>94.1</ele>
        <time>2011-07-03T07:43:09Z</time>
      </trkpt>
      <trkpt lat="47.22347" lon="-1.04779">
        <ele>94.1</ele>
        <time>2011-07-03T07:43:10Z</time>
      </trkpt>
      <trkpt lat="47.22347" lon="-1.04785">
        <ele>94.8</ele>
        <time>2011-07-03T07:43:11Z</time>
      </trkpt>
      <trkpt lat="47.22347" lon="-1.04791">
        <ele>95.4</ele>
        <time>2011-07-03T07:43:12Z</time>
      </trkpt>
      <trkpt lat="47.22348" lon="-1.04797">
        <ele>95.8</ele>
        <time>2011-07-03T07:43:13Z</time>
      </trkpt>
      <trkpt lat="47.2235" lon="-1.04825">
        <ele>96.3</ele>
        <time>2011-07-03T07:43:17Z</time>
      </trkpt>
      <trkpt lat="47.22349" lon="-1.04832">
        <ele>96.4</ele>
        <time>2011-07-03T07:43:18Z</time>
      </trkpt>
      <trkpt lat="47.22349" lon="-1.04991">
        <ele>93.7</ele>
        <time>2011-07-03T07:43:36Z</time>
      </trkpt>
      <trkpt lat="47.22347" lon="-1.04999">
        <ele>93.3</ele>
        <time>2011-07-03T07:43:37Z</time>
      </trkpt>
      <trkpt lat="47.22345" lon="-1.05006">
        <ele>93.1</ele>
        <time>2011-07-03T07:43:38Z</time>
      </trkpt>
      <trkpt lat="47.22341" lon="-1.05012">
        <ele>92.8</ele>
        <time>2011-07-03T07:43:39Z</time>
      </trkpt>
      <trkpt lat="47.22337" lon="-1.05016">
        <ele>92.3</ele>
        <time>2011-07-03T07:43:40Z</time>
      </trkpt>
      <trkpt lat="47.22332" lon="-1.05019">
        <ele>91.9</ele>
        <time>2011-07-03T07:43:41Z</time>
      </trkpt>
      <trkpt lat="47.22299" lon="-1.0503">
        <ele>91.1</ele>
        <time>2011-07-03T07:43:48Z</time>
      </trkpt>
      <trkpt lat="47.22294" lon="-1.05033">
        <ele>91.1</ele>
        <time>2011-07-03T07:43:49Z</time>
      </trkpt>
      <trkpt lat="47.22283" lon="-1.05045">
        <ele>91.9</ele>
        <time>2011-07-03T07:43:52Z</time>
      </trkpt>
      <trkpt lat="47.22278" lon="-1.05049">
        <ele>91.8</ele>
        <time>2011-07-03T07:43:53Z</time>
      </trkpt>
      <trkpt lat="47.22273" lon="-1.05051">
        <ele>91.8</ele>
        <time>2011-07-03T07:43:54Z</time>
      </trkpt>
      <trkpt lat="47.22132" lon="-1.05098">
        <ele>92.3</ele>
        <time>2011-07-03T07:44:25Z</time>
      </trkpt>
      <trkpt lat="47.22129" lon="-1.051">
        <ele>92.4</ele>
        <time>2011-07-03T07:44:26Z</time>
      </trkpt>
      <trkpt lat="47.22127" lon="-1.05103">
        <ele>92.5</ele>
        <time>2011-07-03T07:44:27Z</time>
      </trkpt>
      <trkpt lat="47.22126" lon="-1.05107">
        <ele>92.6</ele>
        <time>2011-07-03T07:44:28Z</time>
      </trkpt>
      <trkpt lat="47.22134" lon="-1.05463">
        <ele>91.5</ele>
        <time>2011-07-03T07:45:15Z</time>
      </trkpt>
      <trkpt lat="47.22132" lon="-1.0547">
        <ele>91.4</ele>
        <time>2011-07-03T07:45:16Z</time>
      </trkpt>
      <trkpt lat="47.22129" lon="-1.05477">
        <ele>91.4</ele>
        <time>2011-07-03T07:45:17Z</time>
      </trkpt>
      <trkpt lat="47.22125" lon="-1.05482">
        <ele>91.3</ele>
        <time>2011-07-03T07:45:18Z</time>
      </trkpt>
      <trkpt lat="47.22121" lon="-1.05486">
        <ele>91.2</ele>
        <time>2011-07-03T07:45:19Z</time>
      </trkpt>
      <trkpt lat="47.22013" lon="-1.05581">
        <ele>93.7</ele>
        <time>2011-07-03T07:45:47Z</time>
      </trkpt>
      <trkpt lat="47.2198" lon="-1.05606">
        <ele>94.1</ele>
        <time>2011-07-03T07:45:57Z</time>
      </trkpt>
      <trkpt lat="47.21934" lon="-1.05649">
        <ele>95.9</ele>
        <time>2011-07-03T07:46:11Z</time>
      </trkpt>
      <trkpt lat="47.21909" lon="-1.05681">
        <ele>96.9</ele>
        <time>2011-07-03T07:46:19Z</time>
      </trkpt>
      <trkpt lat="47.21906" lon="-1.05684">
        <ele>96.7</ele>
        <time>2011-07-03T07:46:20Z</time>
      </trkpt>
      <trkpt lat="47.21878" lon="-1.05723">
        <ele>96.7</ele>
        <time>2011-07-03T07:46:30Z</time>
      </trkpt>
      <trkpt lat="47.21872" lon="-1.05736">
        <ele>96.8</ele>
        <time>2011-07-03T07:46:33Z</time>
      </trkpt>
      <trkpt lat="47.21863" lon="-1.05756">
        <ele>97.1</ele>
        <time>2011-07-03T07:46:37Z</time>
      </trkpt>
      <trkpt lat="47.21861" lon="-1.05761">
        <ele>97.2</ele>
        <time>2011-07-03T07:46:38Z</time>
      </trkpt>
      <trkpt lat="47.21854" lon="-1.05786">
        <ele>96.7</ele>
        <time>2011-07-03T07:46:43Z</time>
      </trkpt>
      <trkpt lat="47.21851" lon="-1.0579">
        <ele>96.7</ele>
        <time>2011-07-03T07:46:44Z</time>
      </trkpt>
      <trkpt lat="47.21848" lon="-1.05793">
        <ele>96.7</ele>
        <time>2011-07-03T07:46:45Z</time>
      </trkpt>
      <trkpt lat="47.21845" lon="-1.05794">
        <ele>96.6</ele>
        <time>2011-07-03T07:46:46Z</time>
      </trkpt>
      <trkpt lat="47.21841" lon="-1.05795">
        <ele>96.6</ele>
        <time>2011-07-03T07:46:47Z</time>
      </trkpt>
      <trkpt lat="47.21678" lon="-1.05807">
        <ele>98</ele>
        <time>2011-07-03T07:47:24Z</time>
      </trkpt>
      <trkpt lat="47.21673" lon="-1.05807">
        <ele>98</ele>
        <time>2011-07-03T07:47:25Z</time>
      </trkpt>
      <trkpt lat="47.21636" lon="-1.05808">
        <ele>98</ele>
        <time>2011-07-03T07:47:33Z</time>
      </trkpt>
      <trkpt lat="47.21632" lon="-1.05809">
        <ele>97.7</ele>
        <time>2011-07-03T07:47:34Z</time>
      </trkpt>
      <trkpt lat="47.21627" lon="-1.05808">
        <ele>97.6</ele>
        <time>2011-07-03T07:47:35Z</time>
      </trkpt>
      <trkpt lat="47.2158" lon="-1.05794">
        <ele>98.9</ele>
        <time>2011-07-03T07:47:45Z</time>
      </trkpt>
      <trkpt lat="47.21576" lon="-1.05794">
        <ele>98.8</ele>
        <time>2011-07-03T07:47:46Z</time>
      </trkpt>
      <trkpt lat="47.21561" lon="-1.05794">
        <ele>98.7</ele>
        <time>2011-07-03T07:47:49Z</time>
      </trkpt>
      <trkpt lat="47.21556" lon="-1.05795">
        <ele>98.6</ele>
        <time>2011-07-03T07:47:50Z</time>
      </trkpt>
      <trkpt lat="47.21541" lon="-1.058">
        <ele>98.4</ele>
        <time>2011-07-03T07:47:53Z</time>
      </trkpt>
      <trkpt lat="47.21477" lon="-1.0583">
        <ele>99.2</ele>
        <time>2011-07-03T07:48:07Z</time>
      </trkpt>
      <trkpt lat="47.21475" lon="-1.0583">
        <ele>99.3</ele>
        <time>2011-07-03T07:48:08Z</time>
      </trkpt>
      <trkpt lat="47.21473" lon="-1.05829">
        <ele>99.3</ele>
        <time>2011-07-03T07:48:09Z</time>
      </trkpt>
      <trkpt lat="47.2147" lon="-1.05826">
        <ele>99.2</ele>
        <time>2011-07-03T07:48:11Z</time>
      </trkpt>
      <trkpt lat="47.21467" lon="-1.05826">
        <ele>99.1</ele>
        <time>2011-07-03T07:48:12Z</time>
      </trkpt>
      <trkpt lat="47.21464" lon="-1.05826">
        <ele>99</ele>
        <time>2011-07-03T07:48:13Z</time>
      </trkpt>
      <trkpt lat="47.21461" lon="-1.05825">
        <ele>99.2</ele>
        <time>2011-07-03T07:48:14Z</time>
      </trkpt>
      <trkpt lat="47.21459" lon="-1.05822">
        <ele>99.2</ele>
        <time>2011-07-03T07:48:15Z</time>
      </trkpt>
      <trkpt lat="47.21458" lon="-1.05818">
        <ele>99.3</ele>
        <time>2011-07-03T07:48:16Z</time>
      </trkpt>
      <trkpt lat="47.21459" lon="-1.05815">
        <ele>99.4</ele>
        <time>2011-07-03T07:48:17Z</time>
      </trkpt>
      <trkpt lat="47.2146" lon="-1.05811">
        <ele>99.3</ele>
        <time>2011-07-03T07:48:18Z</time>
      </trkpt>
      <trkpt lat="47.21479" lon="-1.05757">
        <ele>100.6</ele>
        <time>2011-07-03T07:48:28Z</time>
      </trkpt>
      <trkpt lat="47.2148" lon="-1.05751">
        <ele>100.7</ele>
        <time>2011-07-03T07:48:29Z</time>
      </trkpt>
      <trkpt lat="47.2148" lon="-1.05744">
        <ele>100.5</ele>
        <time>2011-07-03T07:48:30Z</time>
      </trkpt>
      <trkpt lat="47.21479" lon="-1.05738">
        <ele>100.4</ele>
        <time>2011-07-03T07:48:31Z</time>
      </trkpt>
      <trkpt lat="47.21476" lon="-1.05733">
        <ele>100.3</ele>
        <time>2011-07-03T07:48:32Z</time>
      </trkpt>
      <trkpt lat="47.21318" lon="-1.05539">
        <ele>97.7</ele>
        <time>2011-07-03T07:49:10Z</time>
      </trkpt>
      <trkpt lat="47.21288" lon="-1.05511">
        <ele>97.9</ele>
        <time>2011-07-03T07:49:16Z</time>
      </trkpt>
      <trkpt lat="47.21283" lon="-1.05505">
        <ele>98.1</ele>
        <time>2011-07-03T07:49:17Z</time>
      </trkpt>
      <trkpt lat="47.2128" lon="-1.05499">
        <ele>97.6</ele>
        <time>2011-07-03T07:49:18Z</time>
      </trkpt>
      <trkpt lat="47.21177" lon="-1.05299">
        <ele>96.5</ele>
        <time>2011-07-03T07:49:49Z</time>
      </trkpt>
      <trkpt lat="47.21175" lon="-1.05293">
        <ele>96.4</ele>
        <time>2011-07-03T07:49:50Z</time>
      </trkpt>
      <trkpt lat="47.21175" lon="-1.05287">
        <ele>96.4</ele>
        <time>2011-07-03T07:49:51Z</time>
      </trkpt>
      <trkpt lat="47.21176" lon="-1.05282">
        <ele>96.4</ele>
        <time>2011-07-03T07:49:52Z</time>
      </trkpt>
      <trkpt lat="47.21179" lon="-1.05276">
        <ele>95.8</ele>
        <time>2011-07-03T07:49:53Z</time>
      </trkpt>
      <trkpt lat="47.21183" lon="-1.05272">
        <ele>95.4</ele>
        <time>2011-07-03T07:49:54Z</time>
      </trkpt>
      <trkpt lat="47.21192" lon="-1.05263">
        <ele>94.9</ele>
        <time>2011-07-03T07:49:56Z</time>
      </trkpt>
      <trkpt lat="47.21196" lon="-1.05259">
        <ele>95</ele>
        <time>2011-07-03T07:49:57Z</time>
      </trkpt>
      <trkpt lat="47.21201" lon="-1.05256">
        <ele>95</ele>
        <time>2011-07-03T07:49:58Z</time>
      </trkpt>
      <trkpt lat="47.21205" lon="-1.05256">
        <ele>95</ele>
        <time>2011-07-03T07:49:59Z</time>
      </trkpt>
      <trkpt lat="47.21209" lon="-1.05258">
        <ele>94.5</ele>
        <time>2011-07-03T07:50:00Z</time>
      </trkpt>
      <trkpt lat="47.21211" lon="-1.05263">
        <ele>94.1</ele>
        <time>2011-07-03T07:50:01Z</time>
      </trkpt>
      <trkpt lat="47.21213" lon="-1.05268">
        <ele>93.9</ele>
        <time>2011-07-03T07:50:02Z</time>
      </trkpt>
      <trkpt lat="47.21217" lon="-1.05292">
        <ele>94</ele>
        <time>2011-07-03T07:50:06Z</time>
      </trkpt>
      <trkpt lat="47.21219" lon="-1.05297">
        <ele>93.9</ele>
        <time>2011-07-03T07:50:07Z</time>
      </trkpt>
      <trkpt lat="47.21222" lon="-1.053">
        <ele>93.8</ele>
        <time>2011-07-03T07:50:08Z</time>
      </trkpt>
      <trkpt lat="47.21226" lon="-1.053">
        <ele>93.7</ele>
        <time>2011-07-03T07:50:09Z</time>
      </trkpt>
      <trkpt lat="47.21229" lon="-1.05297">
        <ele>93.6</ele>
        <time>2011-07-03T07:50:10Z</time>
      </trkpt>
      <trkpt lat="47.21455" lon="-1.04923">
        <ele>83.8</ele>
        <time>2011-07-03T07:51:04Z</time>
      </trkpt>
      <trkpt lat="47.21459" lon="-1.0492">
        <ele>83.3</ele>
        <time>2011-07-03T07:51:05Z</time>
      </trkpt>
      <trkpt lat="47.21461" lon="-1.0492">
        <ele>82</ele>
        <time>2011-07-03T07:51:06Z</time>
      </trkpt>
      <trkpt lat="47.21462" lon="-1.04921">
        <ele>81</ele>
        <time>2011-07-03T07:51:07Z</time>
      </trkpt>
      <trkpt lat="47.21462" lon="-1.04922">
        <ele>80.2</ele>
        <time>2011-07-03T07:51:08Z</time>
      </trkpt>
      <trkpt lat="47.21461" lon="-1.04924">
        <ele>79.7</ele>
        <time>2011-07-03T07:51:09Z</time>
      </trkpt>
      <trkpt lat="47.2146" lon="-1.04925">
        <ele>79.2</ele>
        <time>2011-07-03T07:51:10Z</time>
      </trkpt>
      <trkpt lat="47.2146" lon="-1.04928">
        <ele>78.9</ele>
        <time>2011-07-03T07:51:11Z</time>
      </trkpt>
      <trkpt lat="47.2146" lon="-1.04931">
        <ele>78.6</ele>
        <time>2011-07-03T07:51:12Z</time>
      </trkpt>
      <trkpt lat="47.2146" lon="-1.04936">
        <ele>77.8</ele>
        <time>2011-07-03T07:51:14Z</time>
      </trkpt>
      <trkpt lat="47.21478" lon="-1.05044">
        <ele>82.3</ele>
        <time>2011-07-03T07:51:40Z</time>
      </trkpt>
      <trkpt lat="47.21479" lon="-1.05048">
        <ele>82.6</ele>
        <time>2011-07-03T07:51:41Z</time>
      </trkpt>
      <trkpt lat="47.21481" lon="-1.05051">
        <ele>83</ele>
        <time>2011-07-03T07:51:42Z</time>
      </trkpt>
      <trkpt lat="47.21484" lon="-1.05053">
        <ele>83.3</ele>
        <time>2011-07-03T07:51:43Z</time>
      </trkpt>
      <trkpt lat="47.21487" lon="-1.05053">
        <ele>83.5</ele>
        <time>2011-07-03T07:51:44Z</time>
      </trkpt>
      <trkpt lat="47.2149" lon="-1.05051">
        <ele>83.8</ele>
        <time>2011-07-03T07:51:45Z</time>
      </trkpt>
      <trkpt lat="47.21542" lon="-1.04998">
        <ele>84.3</ele>
        <time>2011-07-03T07:52:01Z</time>
      </trkpt>
      <trkpt lat="47.21651" lon="-1.04882">
        <ele>85.4</ele>
        <time>2011-07-03T07:52:33Z</time>
      </trkpt>
      <trkpt lat="47.21655" lon="-1.04879">
        <ele>85.2</ele>
        <time>2011-07-03T07:52:34Z</time>
      </trkpt>
      <trkpt lat="47.21739" lon="-1.04838">
        <ele>83.8</ele>
        <time>2011-07-03T07:52:51Z</time>
      </trkpt>
      <trkpt lat="47.21743" lon="-1.04834">
        <ele>83.9</ele>
        <time>2011-07-03T07:52:52Z</time>
      </trkpt>
      <trkpt lat="47.21745" lon="-1.04828">
        <ele>84</ele>
        <time>2011-07-03T07:52:53Z</time>
      </trkpt>
      <trkpt lat="47.21746" lon="-1.04822">
        <ele>84</ele>
        <time>2011-07-03T07:52:54Z</time>
      </trkpt>
      <trkpt lat="47.21746" lon="-1.04816">
        <ele>84.1</ele>
        <time>2011-07-03T07:52:55Z</time>
      </trkpt>
      <trkpt lat="47.21745" lon="-1.04809">
        <ele>84.2</ele>
        <time>2011-07-03T07:52:56Z</time>
      </trkpt>
      <trkpt lat="47.2174" lon="-1.04774">
        <ele>83.8</ele>
        <time>2011-07-03T07:53:01Z</time>
      </trkpt>
      <trkpt lat="47.21737" lon="-1.04761">
        <ele>83.7</ele>
        <time>2011-07-03T07:53:03Z</time>
      </trkpt>
      <trkpt lat="47.21737" lon="-1.04755">
        <ele>83.7</ele>
        <time>2011-07-03T07:53:04Z</time>
      </trkpt>
      <trkpt lat="47.21738" lon="-1.04751">
        <ele>83.2</ele>
        <time>2011-07-03T07:53:05Z</time>
      </trkpt>
      <trkpt lat="47.21739" lon="-1.04748">
        <ele>82.9</ele>
        <time>2011-07-03T07:53:06Z</time>
      </trkpt>
      <trkpt lat="47.21756" lon="-1.04728">
        <ele>81.1</ele>
        <time>2011-07-03T07:53:13Z</time>
      </trkpt>
      <trkpt lat="47.21771" lon="-1.04716">
        <ele>80.6</ele>
        <time>2011-07-03T07:53:17Z</time>
      </trkpt>
      <trkpt lat="47.21775" lon="-1.04714">
        <ele>80.4</ele>
        <time>2011-07-03T07:53:18Z</time>
      </trkpt>
      <trkpt lat="47.2178" lon="-1.04712">
        <ele>80.3</ele>
        <time>2011-07-03T07:53:19Z</time>
      </trkpt>
      <trkpt lat="47.21785" lon="-1.04713">
        <ele>80.2</ele>
        <time>2011-07-03T07:53:20Z</time>
      </trkpt>
      <trkpt lat="47.21789" lon="-1.04715">
        <ele>79.9</ele>
        <time>2011-07-03T07:53:21Z</time>
      </trkpt>
      <trkpt lat="47.21792" lon="-1.04718">
        <ele>79.7</ele>
        <time>2011-07-03T07:53:22Z</time>
      </trkpt>
      <trkpt lat="47.21794" lon="-1.04722">
        <ele>79.5</ele>
        <time>2011-07-03T07:53:23Z</time>
      </trkpt>
      <trkpt lat="47.21797" lon="-1.04731">
        <ele>79.4</ele>
        <time>2011-07-03T07:53:25Z</time>
      </trkpt>
      <trkpt lat="47.21849" lon="-1.04908">
        <ele>83.9</ele>
        <time>2011-07-03T07:53:56Z</time>
      </trkpt>
      <trkpt lat="47.21852" lon="-1.04913">
        <ele>83.9</ele>
        <time>2011-07-03T07:53:57Z</time>
      </trkpt>
      <trkpt lat="47.21855" lon="-1.04915">
        <ele>84</ele>
        <time>2011-07-03T07:53:58Z</time>
      </trkpt>
      <trkpt lat="47.21859" lon="-1.04914">
        <ele>84.1</ele>
        <time>2011-07-03T07:53:59Z</time>
      </trkpt>
      <trkpt lat="47.21892" lon="-1.04898">
        <ele>83.4</ele>
        <time>2011-07-03T07:54:05Z</time>
      </trkpt>
      <trkpt lat="47.21915" lon="-1.04891">
        <ele>82.1</ele>
        <time>2011-07-03T07:54:08Z</time>
      </trkpt>
      <trkpt lat="47.21922" lon="-1.04885">
        <ele>81.6</ele>
        <time>2011-07-03T07:54:09Z</time>
      </trkpt>
      <trkpt lat="47.21925" lon="-1.04878">
        <ele>81.2</ele>
        <time>2011-07-03T07:54:10Z</time>
      </trkpt>
      <trkpt lat="47.21932" lon="-1.04857">
        <ele>79.9</ele>
        <time>2011-07-03T07:54:13Z</time>
      </trkpt>
      <trkpt lat="47.21935" lon="-1.04851">
        <ele>79.5</ele>
        <time>2011-07-03T07:54:14Z</time>
      </trkpt>
      <trkpt lat="47.21939" lon="-1.04847">
        <ele>79.5</ele>
        <time>2011-07-03T07:54:15Z</time>
      </trkpt>
      <trkpt lat="47.21943" lon="-1.04843">
        <ele>79.5</ele>
        <time>2011-07-03T07:54:16Z</time>
      </trkpt>
      <trkpt lat="47.21947" lon="-1.04843">
        <ele>79.5</ele>
        <time>2011-07-03T07:54:17Z</time>
      </trkpt>
      <trkpt lat="47.21949" lon="-1.04844">
        <ele>79.4</ele>
        <time>2011-07-03T07:54:18Z</time>
      </trkpt>
      <trkpt lat="47.21949" lon="-1.04847">
        <ele>79.4</ele>
        <time>2011-07-03T07:54:19Z</time>
      </trkpt>
      <trkpt lat="47.21998" lon="-1.05023">
        <ele>87.2</ele>
        <time>2011-07-03T07:54:59Z</time>
      </trkpt>
      <trkpt lat="47.22" lon="-1.05025">
        <ele>87.3</ele>
        <time>2011-07-03T07:55:00Z</time>
      </trkpt>
      <trkpt lat="47.22003" lon="-1.05025">
        <ele>87.3</ele>
        <time>2011-07-03T07:55:01Z</time>
      </trkpt>
      <trkpt lat="47.22017" lon="-1.05011">
        <ele>88.5</ele>
        <time>2011-07-03T07:55:06Z</time>
      </trkpt>
      <trkpt lat="47.22068" lon="-1.04957">
        <ele>91.9</ele>
        <time>2011-07-03T07:55:24Z</time>
      </trkpt>
      <trkpt lat="47.22113" lon="-1.04901">
        <ele>93.3</ele>
        <time>2011-07-03T07:55:40Z</time>
      </trkpt>
      <trkpt lat="47.22117" lon="-1.04898">
        <ele>93.3</ele>
        <time>2011-07-03T07:55:42Z</time>
      </trkpt>
      <trkpt lat="47.22118" lon="-1.04896">
        <ele>93.3</ele>
        <time>2011-07-03T07:55:44Z</time>
      </trkpt>
      <trkpt lat="47.2212" lon="-1.04895">
        <ele>93.3</ele>
        <time>2011-07-03T07:55:45Z</time>
      </trkpt>
      <trkpt lat="47.2212" lon="-1.04892">
        <ele>93.2</ele>
        <time>2011-07-03T07:55:46Z</time>
      </trkpt>
      <trkpt lat="47.2212" lon="-1.04889">
        <ele>93.2</ele>
        <time>2011-07-03T07:55:47Z</time>
      </trkpt>
      <trkpt lat="47.2212" lon="-1.04886">
        <ele>93.2</ele>
        <time>2011-07-03T07:55:48Z</time>
      </trkpt>
      <trkpt lat="47.2212" lon="-1.04847">
        <ele>93</ele>
        <time>2011-07-03T07:56:01Z</time>
      </trkpt>
      <trkpt lat="47.2212" lon="-1.04844">
        <ele>93.2</ele>
        <time>2011-07-03T07:56:02Z</time>
      </trkpt>
      <trkpt lat="47.22121" lon="-1.04841">
        <ele>93.2</ele>
        <time>2011-07-03T07:56:03Z</time>
      </trkpt>
      <trkpt lat="47.22123" lon="-1.04832">
        <ele>93.9</ele>
        <time>2011-07-03T07:56:06Z</time>
      </trkpt>
      <trkpt lat="47.22124" lon="-1.04829">
        <ele>93.6</ele>
        <time>2011-07-03T07:56:07Z</time>
      </trkpt>
      <trkpt lat="47.22134" lon="-1.04818">
        <ele>93.2</ele>
        <time>2011-07-03T07:56:12Z</time>
      </trkpt>
      <trkpt lat="47.22228" lon="-1.04761">
        <ele>96.2</ele>
        <time>2011-07-03T07:56:50Z</time>
      </trkpt>
      <trkpt lat="47.22252" lon="-1.04752">
        <ele>96.6</ele>
        <time>2011-07-03T07:56:56Z</time>
      </trkpt>
      <trkpt lat="47.22256" lon="-1.04749">
        <ele>96.7</ele>
        <time>2011-07-03T07:56:57Z</time>
      </trkpt>
      <trkpt lat="47.2226" lon="-1.04746">
        <ele>96.6</ele>
        <time>2011-07-03T07:56:58Z</time>
      </trkpt>
      <trkpt lat="47.22264" lon="-1.04741">
        <ele>96.6</ele>
        <time>2011-07-03T07:56:59Z</time>
      </trkpt>
      <trkpt lat="47.22267" lon="-1.04736">
        <ele>96.5</ele>
        <time>2011-07-03T07:57:00Z</time>
      </trkpt>
      <trkpt lat="47.22269" lon="-1.0473">
        <ele>96.5</ele>
        <time>2011-07-03T07:57:01Z</time>
      </trkpt>
      <trkpt lat="47.2227" lon="-1.04724">
        <ele>96.5</ele>
        <time>2011-07-03T07:57:02Z</time>
      </trkpt>
      <trkpt lat="47.22271" lon="-1.04717">
        <ele>96.5</ele>
        <time>2011-07-03T07:57:03Z</time>
      </trkpt>
      <trkpt lat="47.2227" lon="-1.0471">
        <ele>96.6</ele>
        <time>2011-07-03T07:57:04Z</time>
      </trkpt>
      <trkpt lat="47.22234" lon="-1.04513">
        <ele>95.3</ele>
        <time>2011-07-03T07:57:30Z</time>
      </trkpt>
      <trkpt lat="47.22233" lon="-1.04505">
        <ele>94.9</ele>
        <time>2011-07-03T07:57:31Z</time>
      </trkpt>
      <trkpt lat="47.22234" lon="-1.04497">
        <ele>94.7</ele>
        <time>2011-07-03T07:57:32Z</time>
      </trkpt>
      <trkpt lat="47.22235" lon="-1.04489">
        <ele>94.7</ele>
        <time>2011-07-03T07:57:33Z</time>
      </trkpt>
      <trkpt lat="47.22238" lon="-1.04484">
        <ele>94.7</ele>
        <time>2011-07-03T07:57:34Z</time>
      </trkpt>
      <trkpt lat="47.22242" lon="-1.0448">
        <ele>94.7</ele>
        <time>2011-07-03T07:57:35Z</time>
      </trkpt>
      <trkpt lat="47.22246" lon="-1.04477">
        <ele>94.1</ele>
        <time>2011-07-03T07:57:36Z</time>
      </trkpt>
      <trkpt lat="47.2225" lon="-1.04475">
        <ele>93.7</ele>
        <time>2011-07-03T07:57:37Z</time>
      </trkpt>
      <trkpt lat="47.22291" lon="-1.04462">
        <ele>93.7</ele>
        <time>2011-07-03T07:57:46Z</time>
      </trkpt>
      <trkpt lat="47.22295" lon="-1.0446">
        <ele>93.8</ele>
        <time>2011-07-03T07:57:47Z</time>
      </trkpt>
      <trkpt lat="47.22298" lon="-1.04456">
        <ele>93.8</ele>
        <time>2011-07-03T07:57:48Z</time>
      </trkpt>
      <trkpt lat="47.22302" lon="-1.04451">
        <ele>93.9</ele>
        <time>2011-07-03T07:57:49Z</time>
      </trkpt>
      <trkpt lat="47.22304" lon="-1.04445">
        <ele>94</ele>
        <time>2011-07-03T07:57:50Z</time>
      </trkpt>
      <trkpt lat="47.22306" lon="-1.04439">
        <ele>94.1</ele>
        <time>2011-07-03T07:57:51Z</time>
      </trkpt>
      <trkpt lat="47.22307" lon="-1.04432">
        <ele>94.2</ele>
        <time>2011-07-03T07:57:52Z</time>
      </trkpt>
      <trkpt lat="47.22308" lon="-1.04425">
        <ele>94.3</ele>
        <time>2011-07-03T07:57:53Z</time>
      </trkpt>
      <trkpt lat="47.22307" lon="-1.04418">
        <ele>94.4</ele>
        <time>2011-07-03T07:57:54Z</time>
      </trkpt>
      <trkpt lat="47.22306" lon="-1.04411">
        <ele>94.5</ele>
        <time>2011-07-03T07:57:55Z</time>
      </trkpt>
      <trkpt lat="47.22298" lon="-1.0437">
        <ele>94.2</ele>
        <time>2011-07-03T07:58:01Z</time>
      </trkpt>
      <trkpt lat="47.22287" lon="-1.0433">
        <ele>93.1</ele>
        <time>2011-07-03T07:58:07Z</time>
      </trkpt>
      <trkpt lat="47.22278" lon="-1.04306">
        <ele>92.9</ele>
        <time>2011-07-03T07:58:11Z</time>
      </trkpt>
      <trkpt lat="47.22274" lon="-1.04302">
        <ele>92.9</ele>
        <time>2011-07-03T07:58:12Z</time>
      </trkpt>
      <trkpt lat="47.2227" lon="-1.043">
        <ele>92.9</ele>
        <time>2011-07-03T07:58:13Z</time>
      </trkpt>
      <trkpt lat="47.22265" lon="-1.04301">
        <ele>92.9</ele>
        <time>2011-07-03T07:58:14Z</time>
      </trkpt>
      <trkpt lat="47.22254" lon="-1.04306">
        <ele>92.1</ele>
        <time>2011-07-03T07:58:16Z</time>
      </trkpt>
      <trkpt lat="47.22249" lon="-1.04307">
        <ele>91.9</ele>
        <time>2011-07-03T07:58:17Z</time>
      </trkpt>
      <trkpt lat="47.22244" lon="-1.04305">
        <ele>91.4</ele>
        <time>2011-07-03T07:58:18Z</time>
      </trkpt>
      <trkpt lat="47.2224" lon="-1.04301">
        <ele>91.1</ele>
        <time>2011-07-03T07:58:19Z</time>
      </trkpt>
      <trkpt lat="47.22237" lon="-1.04295">
        <ele>90.9</ele>
        <time>2011-07-03T07:58:20Z</time>
      </trkpt>
      <trkpt lat="47.22234" lon="-1.04288">
        <ele>90.7</ele>
        <time>2011-07-03T07:58:21Z</time>
      </trkpt>
      <trkpt lat="47.22231" lon="-1.04281">
        <ele>90.5</ele>
        <time>2011-07-03T07:58:22Z</time>
      </trkpt>
      <trkpt lat="47.22229" lon="-1.04274">
        <ele>90.4</ele>
        <time>2011-07-03T07:58:23Z</time>
      </trkpt>
      <trkpt lat="47.22228" lon="-1.04267">
        <ele>89.4</ele>
        <time>2011-07-03T07:58:24Z</time>
      </trkpt>
      <trkpt lat="47.22221" lon="-1.04219">
        <ele>86.3</ele>
        <time>2011-07-03T07:58:32Z</time>
      </trkpt>
      <trkpt lat="47.22221" lon="-1.04216">
        <ele>86</ele>
        <time>2011-07-03T07:58:33Z</time>
      </trkpt>
      <trkpt lat="47.22222" lon="-1.04213">
        <ele>85.7</ele>
        <time>2011-07-03T07:58:34Z</time>
      </trkpt>
      <trkpt lat="47.22223" lon="-1.0421">
        <ele>85.5</ele>
        <time>2011-07-03T07:58:35Z</time>
      </trkpt>
      <trkpt lat="47.22225" lon="-1.04208">
        <ele>85.3</ele>
        <time>2011-07-03T07:58:36Z</time>
      </trkpt>
      <trkpt lat="47.22227" lon="-1.04206">
        <ele>85</ele>
        <time>2011-07-03T07:58:37Z</time>
      </trkpt>
      <trkpt lat="47.22229" lon="-1.04206">
        <ele>84.7</ele>
        <time>2011-07-03T07:58:38Z</time>
      </trkpt>
      <trkpt lat="47.22235" lon="-1.04203">
        <ele>84.6</ele>
        <time>2011-07-03T07:58:40Z</time>
      </trkpt>
      <trkpt lat="47.22363" lon="-1.04125">
        <ele>91.7</ele>
        <time>2011-07-03T07:59:14Z</time>
      </trkpt>
      <trkpt lat="47.22366" lon="-1.04121">
        <ele>91.4</ele>
        <time>2011-07-03T07:59:15Z</time>
      </trkpt>
      <trkpt lat="47.22368" lon="-1.04115">
        <ele>91.1</ele>
        <time>2011-07-03T07:59:16Z</time>
      </trkpt>
      <trkpt lat="47.22368" lon="-1.04109">
        <ele>91</ele>
        <time>2011-07-03T07:59:17Z</time>
      </trkpt>
      <trkpt lat="47.22366" lon="-1.04104">
        <ele>90.7</ele>
        <time>2011-07-03T07:59:18Z</time>
      </trkpt>
      <trkpt lat="47.22356" lon="-1.0407">
        <ele>90.3</ele>
        <time>2011-07-03T07:59:24Z</time>
      </trkpt>
      <trkpt lat="47.22355" lon="-1.04064">
        <ele>90.9</ele>
        <time>2011-07-03T07:59:25Z</time>
      </trkpt>
      <trkpt lat="47.22354" lon="-1.04051">
        <ele>91.7</ele>
        <time>2011-07-03T07:59:27Z</time>
      </trkpt>
      <trkpt lat="47.22355" lon="-1.04045">
        <ele>91.9</ele>
        <time>2011-07-03T07:59:28Z</time>
      </trkpt>
      <trkpt lat="47.22355" lon="-1.04039">
        <ele>92</ele>
        <time>2011-07-03T07:59:29Z</time>
      </trkpt>
      <trkpt lat="47.22357" lon="-1.04033">
        <ele>92.1</ele>
        <time>2011-07-03T07:59:30Z</time>
      </trkpt>
      <trkpt lat="47.22372" lon="-1.03979">
        <ele>92.7</ele>
        <time>2011-07-03T07:59:39Z</time>
      </trkpt>
      <trkpt lat="47.22373" lon="-1.03972">
        <ele>92.8</ele>
        <time>2011-07-03T07:59:40Z</time>
      </trkpt>
      <trkpt lat="47.22372" lon="-1.03966">
        <ele>93.3</ele>
        <time>2011-07-03T07:59:41Z</time>
      </trkpt>
      <trkpt lat="47.22371" lon="-1.03959">
        <ele>93.6</ele>
        <time>2011-07-03T07:59:42Z</time>
      </trkpt>
      <trkpt lat="47.22361" lon="-1.0391">
        <ele>92.7</ele>
        <time>2011-07-03T07:59:50Z</time>
      </trkpt>
      <trkpt lat="47.22358" lon="-1.03897">
        <ele>92.8</ele>
        <time>2011-07-03T07:59:52Z</time>
      </trkpt>
      <trkpt lat="47.22345" lon="-1.03862">
        <ele>93.6</ele>
        <time>2011-07-03T07:59:58Z</time>
      </trkpt>
      <trkpt lat="47.22344" lon="-1.03857">
        <ele>93.8</ele>
        <time>2011-07-03T07:59:59Z</time>
      </trkpt>
      <trkpt lat="47.22345" lon="-1.03851">
        <ele>93.7</ele>
        <time>2011-07-03T08:00:00Z</time>
      </trkpt>
      <trkpt lat="47.22347" lon="-1.03845">
        <ele>93.6</ele>
        <time>2011-07-03T08:00:01Z</time>
      </trkpt>
      <trkpt lat="47.2235" lon="-1.0384">
        <ele>93.5</ele>
        <time>2011-07-03T08:00:02Z</time>
      </trkpt>
      <trkpt lat="47.22353" lon="-1.03836">
        <ele>93.3</ele>
        <time>2011-07-03T08:00:03Z</time>
      </trkpt>
      <trkpt lat="47.22406" lon="-1.03783">
        <ele>91.9</ele>
        <time>2011-07-03T08:00:18Z</time>
      </trkpt>
      <trkpt lat="47.22408" lon="-1.03779">
        <ele>91.3</ele>
        <time>2011-07-03T08:00:19Z</time>
      </trkpt>
      <trkpt lat="47.2241" lon="-1.03773">
        <ele>90.8</ele>
        <time>2011-07-03T08:00:20Z</time>
      </trkpt>
      <trkpt lat="47.2241" lon="-1.03767">
        <ele>90.5</ele>
        <time>2011-07-03T08:00:21Z</time>
      </trkpt>
      <trkpt lat="47.2241" lon="-1.03761">
        <ele>90.8</ele>
        <time>2011-07-03T08:00:22Z</time>
      </trkpt>
      <trkpt lat="47.2239" lon="-1.03618">
        <ele>87.3</ele>
        <time>2011-07-03T08:00:41Z</time>
      </trkpt>
      <trkpt lat="47.22389" lon="-1.03612">
        <ele>86.8</ele>
        <time>2011-07-03T08:00:42Z</time>
      </trkpt>
      <trkpt lat="47.22388" lon="-1.03609">
        <ele>86.5</ele>
        <time>2011-07-03T08:00:43Z</time>
      </trkpt>
      <trkpt lat="47.22387" lon="-1.03605">
        <ele>85.1</ele>
        <time>2011-07-03T08:00:47Z</time>
      </trkpt>
      <trkpt lat="47.22387" lon="-1.03604">
        <ele>84.7</ele>
        <time>2011-07-03T08:00:48Z</time>
      </trkpt>
      <trkpt lat="47.22386" lon="-1.03603">
        <ele>84.5</ele>
        <time>2011-07-03T08:00:49Z</time>
      </trkpt>
      <trkpt lat="47.22386" lon="-1.03601">
        <ele>83.8</ele>
        <time>2011-07-03T08:00:51Z</time>
      </trkpt>
      <trkpt lat="47.22386" lon="-1.036">
        <ele>83.2</ele>
        <time>2011-07-03T08:00:53Z</time>
      </trkpt>
      <trkpt lat="47.22386" lon="-1.03599">
        <ele>83.1</ele>
        <time>2011-07-03T08:00:54Z</time>
      </trkpt>
      <trkpt lat="47.22386" lon="-1.03597">
        <ele>82.9</ele>
        <time>2011-07-03T08:00:56Z</time>
      </trkpt>
      <trkpt lat="47.22385" lon="-1.03597">
        <ele>82.4</ele>
        <time>2011-07-03T08:00:57Z</time>
      </trkpt>
      <trkpt lat="47.22385" lon="-1.03596">
        <ele>82</ele>
        <time>2011-07-03T08:00:58Z</time>
      </trkpt>
      <trkpt lat="47.22385" lon="-1.03595">
        <ele>81.8</ele>
        <time>2011-07-03T08:00:59Z</time>
      </trkpt>
      <trkpt lat="47.22385" lon="-1.03591">
        <ele>81.9</ele>
        <time>2011-07-03T08:01:02Z</time>
      </trkpt>
      <trkpt lat="47.22385" lon="-1.0359">
        <ele>82</ele>
        <time>2011-07-03T08:01:03Z</time>
      </trkpt>
      <trkpt lat="47.22385" lon="-1.03588">
        <ele>81.6</ele>
        <time>2011-07-03T08:01:04Z</time>
      </trkpt>
      <trkpt lat="47.22385" lon="-1.03585">
        <ele>81.4</ele>
        <time>2011-07-03T08:01:05Z</time>
      </trkpt>
      <trkpt lat="47.22384" lon="-1.03582">
        <ele>81.2</ele>
        <time>2011-07-03T08:01:06Z</time>
      </trkpt>
      <trkpt lat="47.22381" lon="-1.0358">
        <ele>80.6</ele>
        <time>2011-07-03T08:01:07Z</time>
      </trkpt>
      <trkpt lat="47.22373" lon="-1.0358">
        <ele>80</ele>
        <time>2011-07-03T08:01:10Z</time>
      </trkpt>
      <trkpt lat="47.2237" lon="-1.03578">
        <ele>80.1</ele>
        <time>2011-07-03T08:01:11Z</time>
      </trkpt>
      <trkpt lat="47.22367" lon="-1.03575">
        <ele>80.2</ele>
        <time>2011-07-03T08:01:12Z</time>
      </trkpt>
      <trkpt lat="47.22365" lon="-1.0357">
        <ele>80.4</ele>
        <time>2011-07-03T08:01:13Z</time>
      </trkpt>
      <trkpt lat="47.22334" lon="-1.0349">
        <ele>78.3</ele>
        <time>2011-07-03T08:01:22Z</time>
      </trkpt>
      <trkpt lat="47.22331" lon="-1.03478">
        <ele>77.7</ele>
        <time>2011-07-03T08:01:23Z</time>
      </trkpt>
      <trkpt lat="47.22329" lon="-1.03465">
        <ele>77.2</ele>
        <time>2011-07-03T08:01:24Z</time>
      </trkpt>
      <trkpt lat="47.22329" lon="-1.03453">
        <ele>76.9</ele>
        <time>2011-07-03T08:01:25Z</time>
      </trkpt>
      <trkpt lat="47.2233" lon="-1.03442">
        <ele>75.3</ele>
        <time>2011-07-03T08:01:26Z</time>
      </trkpt>
      <trkpt lat="47.22336" lon="-1.03387">
        <ele>70.3</ele>
        <time>2011-07-03T08:01:31Z</time>
      </trkpt>
      <trkpt lat="47.22339" lon="-1.03364">
        <ele>67.1</ele>
        <time>2011-07-03T08:01:33Z</time>
      </trkpt>
      <trkpt lat="47.22339" lon="-1.03353">
        <ele>66.1</ele>
        <time>2011-07-03T08:01:34Z</time>
      </trkpt>
      <trkpt lat="47.22337" lon="-1.03342">
        <ele>65.3</ele>
        <time>2011-07-03T08:01:35Z</time>
      </trkpt>
      <trkpt lat="47.22319" lon="-1.03289">
        <ele>57.3</ele>
        <time>2011-07-03T08:01:40Z</time>
      </trkpt>
      <trkpt lat="47.22315" lon="-1.03266">
        <ele>51.9</ele>
        <time>2011-07-03T08:01:43Z</time>
      </trkpt>
      <trkpt lat="47.22315" lon="-1.03261">
        <ele>50.5</ele>
        <time>2011-07-03T08:01:44Z</time>
      </trkpt>
      <trkpt lat="47.22317" lon="-1.03258">
        <ele>48.4</ele>
        <time>2011-07-03T08:01:45Z</time>
      </trkpt>
      <trkpt lat="47.22321" lon="-1.03256">
        <ele>46.8</ele>
        <time>2011-07-03T08:01:46Z</time>
      </trkpt>
      <trkpt lat="47.22325" lon="-1.03255">
        <ele>45.6</ele>
        <time>2011-07-03T08:01:47Z</time>
      </trkpt>
      <trkpt lat="47.2233" lon="-1.03255">
        <ele>44.3</ele>
        <time>2011-07-03T08:01:48Z</time>
      </trkpt>
      <trkpt lat="47.22333" lon="-1.03257">
        <ele>43.3</ele>
        <time>2011-07-03T08:01:49Z</time>
      </trkpt>
      <trkpt lat="47.22336" lon="-1.03261">
        <ele>42.5</ele>
        <time>2011-07-03T08:01:50Z</time>
      </trkpt>
      <trkpt lat="47.2234" lon="-1.03266">
        <ele>42</ele>
        <time>2011-07-03T08:01:51Z</time>
      </trkpt>
      <trkpt lat="47.22342" lon="-1.03271">
        <ele>40.9</ele>
        <time>2011-07-03T08:01:52Z</time>
      </trkpt>
      <trkpt lat="47.22348" lon="-1.03295">
        <ele>38</ele>
        <time>2011-07-03T08:01:56Z</time>
      </trkpt>
      <trkpt lat="47.2235" lon="-1.03298">
        <ele>37.5</ele>
        <time>2011-07-03T08:01:57Z</time>
      </trkpt>
      <trkpt lat="47.22351" lon="-1.033">
        <ele>37.9</ele>
        <time>2011-07-03T08:01:58Z</time>
      </trkpt>
      <trkpt lat="47.22353" lon="-1.03302">
        <ele>38.2</ele>
        <time>2011-07-03T08:01:59Z</time>
      </trkpt>
      <trkpt lat="47.22356" lon="-1.03303">
        <ele>38.4</ele>
        <time>2011-07-03T08:02:00Z</time>
      </trkpt>
      <trkpt lat="47.22366" lon="-1.03302">
        <ele>38.9</ele>
        <time>2011-07-03T08:02:03Z</time>
      </trkpt>
      <trkpt lat="47.22371" lon="-1.03302">
        <ele>38.7</ele>
        <time>2011-07-03T08:02:04Z</time>
      </trkpt>
      <trkpt lat="47.22377" lon="-1.03303">
        <ele>38.5</ele>
        <time>2011-07-03T08:02:05Z</time>
      </trkpt>
      <trkpt lat="47.22383" lon="-1.03305">
        <ele>38.4</ele>
        <time>2011-07-03T08:02:06Z</time>
      </trkpt>
      <trkpt lat="47.22433" lon="-1.03331">
        <ele>37.4</ele>
        <time>2011-07-03T08:02:17Z</time>
      </trkpt>
      <trkpt lat="47.22447" lon="-1.03337">
        <ele>36.9</ele>
        <time>2011-07-03T08:02:21Z</time>
      </trkpt>
      <trkpt lat="47.22473" lon="-1.03345">
        <ele>36.9</ele>
        <time>2011-07-03T08:02:28Z</time>
      </trkpt>
      <trkpt lat="47.22477" lon="-1.03345">
        <ele>37</ele>
        <time>2011-07-03T08:02:29Z</time>
      </trkpt>
      <trkpt lat="47.22503" lon="-1.03344">
        <ele>36.6</ele>
        <time>2011-07-03T08:02:35Z</time>
      </trkpt>
      <trkpt lat="47.22506" lon="-1.03343">
        <ele>36.9</ele>
        <time>2011-07-03T08:02:36Z</time>
      </trkpt>
      <trkpt lat="47.22521" lon="-1.03338">
        <ele>37.4</ele>
        <time>2011-07-03T08:02:39Z</time>
      </trkpt>
      <trkpt lat="47.22526" lon="-1.03335">
        <ele>37.5</ele>
        <time>2011-07-03T08:02:40Z</time>
      </trkpt>
      <trkpt lat="47.22561" lon="-1.03312">
        <ele>36.2</ele>
        <time>2011-07-03T08:02:47Z</time>
      </trkpt>
      <trkpt lat="47.22566" lon="-1.03307">
        <ele>36</ele>
        <time>2011-07-03T08:02:48Z</time>
      </trkpt>
      <trkpt lat="47.22581" lon="-1.03288">
        <ele>36.4</ele>
        <time>2011-07-03T08:02:52Z</time>
      </trkpt>
      <trkpt lat="47.22608" lon="-1.03252">
        <ele>35.8</ele>
        <time>2011-07-03T08:03:00Z</time>
      </trkpt>
      <trkpt lat="47.22655" lon="-1.03172">
        <ele>36.4</ele>
        <time>2011-07-03T08:03:16Z</time>
      </trkpt>
      <trkpt lat="47.22669" lon="-1.03136">
        <ele>35.9</ele>
        <time>2011-07-03T08:03:22Z</time>
      </trkpt>
      <trkpt lat="47.22678" lon="-1.03107">
        <ele>35.6</ele>
        <time>2011-07-03T08:03:27Z</time>
      </trkpt>
      <trkpt lat="47.22683" lon="-1.03078">
        <ele>35.7</ele>
        <time>2011-07-03T08:03:32Z</time>
      </trkpt>
      <trkpt lat="47.22684" lon="-1.03055">
        <ele>36.5</ele>
        <time>2011-07-03T08:03:36Z</time>
      </trkpt>
      <trkpt lat="47.22684" lon="-1.03042">
        <ele>35.8</ele>
        <time>2011-07-03T08:03:38Z</time>
      </trkpt>
      <trkpt lat="47.2268" lon="-1.03013">
        <ele>36.4</ele>
        <time>2011-07-03T08:03:43Z</time>
      </trkpt>
      <trkpt lat="47.22679" lon="-1.03011">
        <ele>36.3</ele>
        <time>2011-07-03T08:03:44Z</time>
      </trkpt>
      <trkpt lat="47.22678" lon="-1.03008">
        <ele>36.2</ele>
        <time>2011-07-03T08:03:45Z</time>
      </trkpt>
      <trkpt lat="47.22671" lon="-1.02971">
        <ele>36</ele>
        <time>2011-07-03T08:03:52Z</time>
      </trkpt>
      <trkpt lat="47.22668" lon="-1.02962">
        <ele>36</ele>
        <time>2011-07-03T08:03:54Z</time>
      </trkpt>
      <trkpt lat="47.22657" lon="-1.02925">
        <ele>35.3</ele>
        <time>2011-07-03T08:04:04Z</time>
      </trkpt>
      <trkpt lat="47.22656" lon="-1.02923">
        <ele>35.1</ele>
        <time>2011-07-03T08:04:05Z</time>
      </trkpt>
      <trkpt lat="47.22655" lon="-1.02917">
        <ele>35.3</ele>
        <time>2011-07-03T08:04:08Z</time>
      </trkpt>
      <trkpt lat="47.22655" lon="-1.02914">
        <ele>35.3</ele>
        <time>2011-07-03T08:04:11Z</time>
      </trkpt>
      <trkpt lat="47.22655" lon="-1.02913">
        <ele>35.5</ele>
        <time>2011-07-03T08:04:12Z</time>
      </trkpt>
      <trkpt lat="47.22654" lon="-1.02912">
        <ele>35.7</ele>
        <time>2011-07-03T08:04:13Z</time>
      </trkpt>
      <trkpt lat="47.22654" lon="-1.0291">
        <ele>36</ele>
        <time>2011-07-03T08:04:15Z</time>
      </trkpt>
      <trkpt lat="47.22654" lon="-1.02909">
        <ele>36.1</ele>
        <time>2011-07-03T08:04:16Z</time>
      </trkpt>
      <trkpt lat="47.22653" lon="-1.02908">
        <ele>36.2</ele>
        <time>2011-07-03T08:04:17Z</time>
      </trkpt>
      <trkpt lat="47.22653" lon="-1.02905">
        <ele>36.4</ele>
        <time>2011-07-03T08:04:19Z</time>
      </trkpt>
      <trkpt lat="47.22652" lon="-1.02904">
        <ele>36.5</ele>
        <time>2011-07-03T08:04:20Z</time>
      </trkpt>
      <trkpt lat="47.22652" lon="-1.02903">
        <ele>36.6</ele>
        <time>2011-07-03T08:04:21Z</time>
      </trkpt>
      <trkpt lat="47.22652" lon="-1.02902">
        <ele>36.4</ele>
        <time>2011-07-03T08:04:22Z</time>
      </trkpt>
      <trkpt lat="47.22651" lon="-1.029">
        <ele>36.2</ele>
        <time>2011-07-03T08:04:24Z</time>
      </trkpt>
      <trkpt lat="47.22651" lon="-1.02899">
        <ele>36.2</ele>
        <time>2011-07-03T08:04:25Z</time>
      </trkpt>
      <trkpt lat="47.2265" lon="-1.02888">
        <ele>38.8</ele>
        <time>2011-07-03T08:04:35Z</time>
      </trkpt>
      <trkpt lat="47.22645" lon="-1.02875">
        <ele>41.7</ele>
        <time>2011-07-03T08:04:49Z</time>
      </trkpt>
      <trkpt lat="47.22645" lon="-1.02874">
        <ele>42</ele>
        <time>2011-07-03T08:04:50Z</time>
      </trkpt>
      <trkpt lat="47.22645" lon="-1.02873">
        <ele>42.3</ele>
        <time>2011-07-03T08:04:51Z</time>
      </trkpt>
      <trkpt lat="47.22645" lon="-1.02872">
        <ele>42.5</ele>
        <time>2011-07-03T08:04:52Z</time>
      </trkpt>
      <trkpt lat="47.22645" lon="-1.02872">
        <ele>42.5</ele>
        <time>2011-07-03T08:04:53Z</time>
      </trkpt>
      <trkpt lat="47.22644" lon="-1.02871">
        <ele>42.6</ele>
        <time>2011-07-03T08:04:54Z</time>
      </trkpt>
      <trkpt lat="47.22644" lon="-1.0287">
        <ele>42.6</ele>
        <time>2011-07-03T08:04:55Z</time>
      </trkpt>
      <trkpt lat="47.22644" lon="-1.0287">
        <ele>42.6</ele>
        <time>2011-07-03T08:04:56Z</time>
      </trkpt>
      <trkpt lat="47.22643" lon="-1.02869">
        <ele>42.9</ele>
        <time>2011-07-03T08:04:57Z</time>
      </trkpt>
      <trkpt lat="47.22643" lon="-1.02868">
        <ele>43.1</ele>
        <time>2011-07-03T08:04:58Z</time>
      </trkpt>
      <trkpt lat="47.22642" lon="-1.02867">
        <ele>43.6</ele>
        <time>2011-07-03T08:05:00Z</time>
      </trkpt>
      <trkpt lat="47.22642" lon="-1.02866">
        <ele>43.9</ele>
        <time>2011-07-03T08:05:01Z</time>
      </trkpt>
      <trkpt lat="47.22642" lon="-1.02866">
        <ele>44.1</ele>
        <time>2011-07-03T08:05:02Z</time>
      </trkpt>
      <trkpt lat="47.22641" lon="-1.02866">
        <ele>44.5</ele>
        <time>2011-07-03T08:05:03Z</time>
      </trkpt>
      <trkpt lat="47.22641" lon="-1.02865">
        <ele>44.7</ele>
        <time>2011-07-03T08:05:04Z</time>
      </trkpt>
      <trkpt lat="47.2264" lon="-1.02864">
        <ele>45.2</ele>
        <time>2011-07-03T08:05:06Z</time>
      </trkpt>
      <trkpt lat="47.22639" lon="-1.02863">
        <ele>45.6</ele>
        <time>2011-07-03T08:05:08Z</time>
      </trkpt>
      <trkpt lat="47.22638" lon="-1.02863">
        <ele>46</ele>
        <time>2011-07-03T08:05:09Z</time>
      </trkpt>
      <trkpt lat="47.22638" lon="-1.02862">
        <ele>46.3</ele>
        <time>2011-07-03T08:05:10Z</time>
      </trkpt>
      <trkpt lat="47.22637" lon="-1.02861">
        <ele>46.8</ele>
        <time>2011-07-03T08:05:13Z</time>
      </trkpt>
      <trkpt lat="47.22637" lon="-1.0286">
        <ele>46.9</ele>
        <time>2011-07-03T08:05:14Z</time>
      </trkpt>
      <trkpt lat="47.22637" lon="-1.0286">
        <ele>46.9</ele>
        <time>2011-07-03T08:05:15Z</time>
      </trkpt>
      <trkpt lat="47.22636" lon="-1.02859">
        <ele>47.6</ele>
        <time>2011-07-03T08:05:16Z</time>
      </trkpt>
      <trkpt lat="47.22636" lon="-1.02858">
        <ele>48.5</ele>
        <time>2011-07-03T08:05:19Z</time>
      </trkpt>
      <trkpt lat="47.22635" lon="-1.02857">
        <ele>48.6</ele>
        <time>2011-07-03T08:05:21Z</time>
      </trkpt>
      <trkpt lat="47.22635" lon="-1.02856">
        <ele>49</ele>
        <time>2011-07-03T08:05:22Z</time>
      </trkpt>
      <trkpt lat="47.22635" lon="-1.02856">
        <ele>49.2</ele>
        <time>2011-07-03T08:05:23Z</time>
      </trkpt>
      <trkpt lat="47.22634" lon="-1.02856">
        <ele>49.5</ele>
        <time>2011-07-03T08:05:24Z</time>
      </trkpt>
      <trkpt lat="47.22634" lon="-1.02856">
        <ele>49.5</ele>
        <time>2011-07-03T08:05:25Z</time>
      </trkpt>
      <trkpt lat="47.22633" lon="-1.02856">
        <ele>49.5</ele>
        <time>2011-07-03T08:05:26Z</time>
      </trkpt>
      <trkpt lat="47.22632" lon="-1.02856">
        <ele>49.5</ele>
        <time>2011-07-03T08:05:27Z</time>
      </trkpt>
      <trkpt lat="47.22632" lon="-1.02856">
        <ele>49.5</ele>
        <time>2011-07-03T08:05:28Z</time>
      </trkpt>
      <trkpt lat="47.22631" lon="-1.02855">
        <ele>49.9</ele>
        <time>2011-07-03T08:05:29Z</time>
      </trkpt>
      <trkpt lat="47.22631" lon="-1.02854">
        <ele>50.2</ele>
        <time>2011-07-03T08:05:30Z</time>
      </trkpt>
      <trkpt lat="47.22631" lon="-1.02853">
        <ele>50.7</ele>
        <time>2011-07-03T08:05:32Z</time>
      </trkpt>
      <trkpt lat="47.2263" lon="-1.02852">
        <ele>50.9</ele>
        <time>2011-07-03T08:05:33Z</time>
      </trkpt>
      <trkpt lat="47.2263" lon="-1.0285">
        <ele>51.2</ele>
        <time>2011-07-03T08:05:35Z</time>
      </trkpt>
      <trkpt lat="47.2263" lon="-1.02849">
        <ele>51.3</ele>
        <time>2011-07-03T08:05:36Z</time>
      </trkpt>
      <trkpt lat="47.2263" lon="-1.02848">
        <ele>51.4</ele>
        <time>2011-07-03T08:05:37Z</time>
      </trkpt>
      <trkpt lat="47.2263" lon="-1.02847">
        <ele>51.6</ele>
        <time>2011-07-03T08:05:38Z</time>
      </trkpt>
      <trkpt lat="47.2263" lon="-1.02846">
        <ele>51.7</ele>
        <time>2011-07-03T08:05:39Z</time>
      </trkpt>
      <trkpt lat="47.22631" lon="-1.02845">
        <ele>51.8</ele>
        <time>2011-07-03T08:05:40Z</time>
      </trkpt>
      <trkpt lat="47.22631" lon="-1.02844">
        <ele>51.9</ele>
        <time>2011-07-03T08:05:41Z</time>
      </trkpt>
      <trkpt lat="47.22632" lon="-1.02844">
        <ele>52</ele>
        <time>2011-07-03T08:05:42Z</time>
      </trkpt>
      <trkpt lat="47.22634" lon="-1.02843">
        <ele>52</ele>
        <time>2011-07-03T08:05:43Z</time>
      </trkpt>
      <trkpt lat="47.22636" lon="-1.02843">
        <ele>52.2</ele>
        <time>2011-07-03T08:05:45Z</time>
      </trkpt>
      <trkpt lat="47.22638" lon="-1.02843">
        <ele>52.3</ele>
        <time>2011-07-03T08:05:46Z</time>
      </trkpt>
      <trkpt lat="47.22639" lon="-1.02844">
        <ele>52.4</ele>
        <time>2011-07-03T08:05:47Z</time>
      </trkpt>
      <trkpt lat="47.2264" lon="-1.02845">
        <ele>53.1</ele>
        <time>2011-07-03T08:05:48Z</time>
      </trkpt>
      <trkpt lat="47.22645" lon="-1.02849">
        <ele>53.9</ele>
        <time>2011-07-03T08:05:51Z</time>
      </trkpt>
      <trkpt lat="47.22647" lon="-1.02851">
        <ele>53.9</ele>
        <time>2011-07-03T08:05:52Z</time>
      </trkpt>
      <trkpt lat="47.22649" lon="-1.02852">
        <ele>53.9</ele>
        <time>2011-07-03T08:05:53Z</time>
      </trkpt>
      <trkpt lat="47.22651" lon="-1.02851">
        <ele>54.1</ele>
        <time>2011-07-03T08:05:54Z</time>
      </trkpt>
      <trkpt lat="47.22652" lon="-1.02851">
        <ele>54.1</ele>
        <time>2011-07-03T08:05:55Z</time>
      </trkpt>
      <trkpt lat="47.22654" lon="-1.02851">
        <ele>54.2</ele>
        <time>2011-07-03T08:05:56Z</time>
      </trkpt>
      <trkpt lat="47.22655" lon="-1.02853">
        <ele>54.2</ele>
        <time>2011-07-03T08:05:57Z</time>
      </trkpt>
      <trkpt lat="47.22656" lon="-1.02854">
        <ele>54.2</ele>
        <time>2011-07-03T08:05:58Z</time>
      </trkpt>
      <trkpt lat="47.22665" lon="-1.02864">
        <ele>55.6</ele>
        <time>2011-07-03T08:06:03Z</time>
      </trkpt>
      <trkpt lat="47.22674" lon="-1.02878">
        <ele>55.5</ele>
        <time>2011-07-03T08:06:07Z</time>
      </trkpt>
      <trkpt lat="47.22677" lon="-1.02882">
        <ele>55.4</ele>
        <time>2011-07-03T08:06:08Z</time>
      </trkpt>
      <trkpt lat="47.22684" lon="-1.02898">
        <ele>55</ele>
        <time>2011-07-03T08:06:12Z</time>
      </trkpt>
      <trkpt lat="47.22694" lon="-1.02916">
        <ele>55.8</ele>
        <time>2011-07-03T08:06:18Z</time>
      </trkpt>
      <trkpt lat="47.22699" lon="-1.02927">
        <ele>55.6</ele>
        <time>2011-07-03T08:06:20Z</time>
      </trkpt>
      <trkpt lat="47.22705" lon="-1.02945">
        <ele>55</ele>
        <time>2011-07-03T08:06:23Z</time>
      </trkpt>
      <trkpt lat="47.22711" lon="-1.02959">
        <ele>54.5</ele>
        <time>2011-07-03T08:06:27Z</time>
      </trkpt>
      <trkpt lat="47.22711" lon="-1.02962">
        <ele>54.6</ele>
        <time>2011-07-03T08:06:28Z</time>
      </trkpt>
      <trkpt lat="47.22729" lon="-1.03037">
        <ele>54.9</ele>
        <time>2011-07-03T08:06:46Z</time>
      </trkpt>
      <trkpt lat="47.2273" lon="-1.03046">
        <ele>55.5</ele>
        <time>2011-07-03T08:06:49Z</time>
      </trkpt>
      <trkpt lat="47.22729" lon="-1.03048">
        <ele>55.6</ele>
        <time>2011-07-03T08:06:50Z</time>
      </trkpt>
      <trkpt lat="47.22729" lon="-1.03052">
        <ele>55.4</ele>
        <time>2011-07-03T08:06:52Z</time>
      </trkpt>
      <trkpt lat="47.2273" lon="-1.03055">
        <ele>55.1</ele>
        <time>2011-07-03T08:06:54Z</time>
      </trkpt>
      <trkpt lat="47.2273" lon="-1.03057">
        <ele>55.5</ele>
        <time>2011-07-03T08:06:55Z</time>
      </trkpt>
      <trkpt lat="47.2273" lon="-1.03059">
        <ele>55.8</ele>
        <time>2011-07-03T08:06:56Z</time>
      </trkpt>
      <trkpt lat="47.2273" lon="-1.03063">
        <ele>56</ele>
        <time>2011-07-03T08:06:58Z</time>
      </trkpt>
      <trkpt lat="47.2273" lon="-1.03064">
        <ele>56</ele>
        <time>2011-07-03T08:06:59Z</time>
      </trkpt>
      <trkpt lat="47.22731" lon="-1.0307">
        <ele>56.5</ele>
        <time>2011-07-03T08:07:02Z</time>
      </trkpt>
      <trkpt lat="47.22731" lon="-1.03071">
        <ele>56.7</ele>
        <time>2011-07-03T08:07:03Z</time>
      </trkpt>
      <trkpt lat="47.22731" lon="-1.03073">
        <ele>56.7</ele>
        <time>2011-07-03T08:07:04Z</time>
      </trkpt>
      <trkpt lat="47.22732" lon="-1.03074">
        <ele>56.7</ele>
        <time>2011-07-03T08:07:05Z</time>
      </trkpt>
      <trkpt lat="47.22732" lon="-1.03074">
        <ele>56.6</ele>
        <time>2011-07-03T08:07:06Z</time>
      </trkpt>
      <trkpt lat="47.22732" lon="-1.03075">
        <ele>57.5</ele>
        <time>2011-07-03T08:07:09Z</time>
      </trkpt>
      <trkpt lat="47.22733" lon="-1.03075">
        <ele>58.7</ele>
        <time>2011-07-03T08:07:12Z</time>
      </trkpt>
      <trkpt lat="47.22733" lon="-1.03075">
        <ele>59</ele>
        <time>2011-07-03T08:07:13Z</time>
      </trkpt>
      <trkpt lat="47.22734" lon="-1.03074">
        <ele>59.3</ele>
        <time>2011-07-03T08:07:14Z</time>
      </trkpt>
      <trkpt lat="47.22734" lon="-1.03074">
        <ele>59.5</ele>
        <time>2011-07-03T08:07:15Z</time>
      </trkpt>
      <trkpt lat="47.22738" lon="-1.03072">
        <ele>60</ele>
        <time>2011-07-03T08:07:20Z</time>
      </trkpt>
      <trkpt lat="47.22739" lon="-1.03072">
        <ele>60.3</ele>
        <time>2011-07-03T08:07:21Z</time>
      </trkpt>
      <trkpt lat="47.2274" lon="-1.03071">
        <ele>60.9</ele>
        <time>2011-07-03T08:07:23Z</time>
      </trkpt>
      <trkpt lat="47.22744" lon="-1.03068">
        <ele>61.5</ele>
        <time>2011-07-03T08:07:28Z</time>
      </trkpt>
      <trkpt lat="47.22745" lon="-1.03068">
        <ele>61.5</ele>
        <time>2011-07-03T08:07:29Z</time>
      </trkpt>
      <trkpt lat="47.22746" lon="-1.03068">
        <ele>61.9</ele>
        <time>2011-07-03T08:07:30Z</time>
      </trkpt>
      <trkpt lat="47.22747" lon="-1.03069">
        <ele>62.1</ele>
        <time>2011-07-03T08:07:31Z</time>
      </trkpt>
      <trkpt lat="47.22747" lon="-1.0307">
        <ele>62.3</ele>
        <time>2011-07-03T08:07:32Z</time>
      </trkpt>
      <trkpt lat="47.22747" lon="-1.03071">
        <ele>62.5</ele>
        <time>2011-07-03T08:07:33Z</time>
      </trkpt>
      <trkpt lat="47.22747" lon="-1.03072">
        <ele>62.7</ele>
        <time>2011-07-03T08:07:35Z</time>
      </trkpt>
      <trkpt lat="47.22747" lon="-1.03073">
        <ele>62.9</ele>
        <time>2011-07-03T08:07:36Z</time>
      </trkpt>
      <trkpt lat="47.22747" lon="-1.03074">
        <ele>63.1</ele>
        <time>2011-07-03T08:07:37Z</time>
      </trkpt>
      <trkpt lat="47.22746" lon="-1.03075">
        <ele>63.2</ele>
        <time>2011-07-03T08:07:38Z</time>
      </trkpt>
      <trkpt lat="47.22746" lon="-1.03077">
        <ele>63.5</ele>
        <time>2011-07-03T08:07:39Z</time>
      </trkpt>
      <trkpt lat="47.22741" lon="-1.03098">
        <ele>64.3</ele>
        <time>2011-07-03T08:07:48Z</time>
      </trkpt>
      <trkpt lat="47.22739" lon="-1.03101">
        <ele>64.5</ele>
        <time>2011-07-03T08:07:49Z</time>
      </trkpt>
      <trkpt lat="47.22716" lon="-1.03169">
        <ele>69.5</ele>
        <time>2011-07-03T08:08:08Z</time>
      </trkpt>
      <trkpt lat="47.22716" lon="-1.03173">
        <ele>69.8</ele>
        <time>2011-07-03T08:08:09Z</time>
      </trkpt>
      <trkpt lat="47.22714" lon="-1.03194">
        <ele>71.4</ele>
        <time>2011-07-03T08:08:14Z</time>
      </trkpt>
      <trkpt lat="47.22713" lon="-1.03198">
        <ele>72</ele>
        <time>2011-07-03T08:08:15Z</time>
      </trkpt>
      <trkpt lat="47.22714" lon="-1.0323">
        <ele>74.6</ele>
        <time>2011-07-03T08:08:23Z</time>
      </trkpt>
      <trkpt lat="47.22714" lon="-1.03235">
        <ele>74.8</ele>
        <time>2011-07-03T08:08:24Z</time>
      </trkpt>
      <trkpt lat="47.22716" lon="-1.03238">
        <ele>74.9</ele>
        <time>2011-07-03T08:08:25Z</time>
      </trkpt>
      <trkpt lat="47.22718" lon="-1.03241">
        <ele>75.1</ele>
        <time>2011-07-03T08:08:26Z</time>
      </trkpt>
      <trkpt lat="47.2272" lon="-1.03243">
        <ele>76</ele>
        <time>2011-07-03T08:08:27Z</time>
      </trkpt>
      <trkpt lat="47.22723" lon="-1.03244">
        <ele>76.7</ele>
        <time>2011-07-03T08:08:28Z</time>
      </trkpt>
      <trkpt lat="47.22726" lon="-1.03244">
        <ele>77.2</ele>
        <time>2011-07-03T08:08:29Z</time>
      </trkpt>
      <trkpt lat="47.22729" lon="-1.03243">
        <ele>77.6</ele>
        <time>2011-07-03T08:08:30Z</time>
      </trkpt>
      <trkpt lat="47.23014" lon="-1.03163">
        <ele>65.6</ele>
        <time>2011-07-03T08:09:21Z</time>
      </trkpt>
      <trkpt lat="47.23046" lon="-1.03144">
        <ele>65.2</ele>
        <time>2011-07-03T08:09:27Z</time>
      </trkpt>
      <trkpt lat="47.23052" lon="-1.03142">
        <ele>65.1</ele>
        <time>2011-07-03T08:09:28Z</time>
      </trkpt>
      <trkpt lat="47.23074" lon="-1.03137">
        <ele>64.1</ele>
        <time>2011-07-03T08:09:32Z</time>
      </trkpt>
      <trkpt lat="47.23079" lon="-1.03137">
        <ele>63.8</ele>
        <time>2011-07-03T08:09:33Z</time>
      </trkpt>
      <trkpt lat="47.23084" lon="-1.03139">
        <ele>63.8</ele>
        <time>2011-07-03T08:09:34Z</time>
      </trkpt>
      <trkpt lat="47.23088" lon="-1.03141">
        <ele>63.8</ele>
        <time>2011-07-03T08:09:35Z</time>
      </trkpt>
      <trkpt lat="47.23092" lon="-1.03144">
        <ele>63.8</ele>
        <time>2011-07-03T08:09:36Z</time>
      </trkpt>
      <trkpt lat="47.23101" lon="-1.03152">
        <ele>63.8</ele>
        <time>2011-07-03T08:09:39Z</time>
      </trkpt>
      <trkpt lat="47.23111" lon="-1.03163">
        <ele>64.6</ele>
        <time>2011-07-03T08:09:43Z</time>
      </trkpt>
      <trkpt lat="47.23113" lon="-1.03165">
        <ele>64.6</ele>
        <time>2011-07-03T08:09:44Z</time>
      </trkpt>
      <trkpt lat="47.23118" lon="-1.03168">
        <ele>64.6</ele>
        <time>2011-07-03T08:09:46Z</time>
      </trkpt>
      <trkpt lat="47.23164" lon="-1.0321">
        <ele>75</ele>
        <time>2011-07-03T08:10:08Z</time>
      </trkpt>
      <trkpt lat="47.23176" lon="-1.03223">
        <ele>78.1</ele>
        <time>2011-07-03T08:10:14Z</time>
      </trkpt>
      <trkpt lat="47.23184" lon="-1.03236">
        <ele>79.1</ele>
        <time>2011-07-03T08:10:19Z</time>
      </trkpt>
      <trkpt lat="47.23186" lon="-1.03238">
        <ele>79.5</ele>
        <time>2011-07-03T08:10:20Z</time>
      </trkpt>
      <trkpt lat="47.23189" lon="-1.03239">
        <ele>79.7</ele>
        <time>2011-07-03T08:10:21Z</time>
      </trkpt>
      <trkpt lat="47.23191" lon="-1.03238">
        <ele>80.3</ele>
        <time>2011-07-03T08:10:22Z</time>
      </trkpt>
      <trkpt lat="47.23193" lon="-1.03236">
        <ele>80.8</ele>
        <time>2011-07-03T08:10:23Z</time>
      </trkpt>
      <trkpt lat="47.23195" lon="-1.03234">
        <ele>81.1</ele>
        <time>2011-07-03T08:10:24Z</time>
      </trkpt>
      <trkpt lat="47.23197" lon="-1.03231">
        <ele>81.6</ele>
        <time>2011-07-03T08:10:25Z</time>
      </trkpt>
      <trkpt lat="47.23265" lon="-1.03149">
        <ele>84.9</ele>
        <time>2011-07-03T08:10:53Z</time>
      </trkpt>
      <trkpt lat="47.2331" lon="-1.0308">
        <ele>87.3</ele>
        <time>2011-07-03T08:11:09Z</time>
      </trkpt>
      <trkpt lat="47.23313" lon="-1.03076">
        <ele>87.4</ele>
        <time>2011-07-03T08:11:10Z</time>
      </trkpt>
      <trkpt lat="47.23423" lon="-1.02967">
        <ele>83.3</ele>
        <time>2011-07-03T08:11:36Z</time>
      </trkpt>
      <trkpt lat="47.23427" lon="-1.02965">
        <ele>82.9</ele>
        <time>2011-07-03T08:11:37Z</time>
      </trkpt>
      <trkpt lat="47.23431" lon="-1.02965">
        <ele>81.8</ele>
        <time>2011-07-03T08:11:38Z</time>
      </trkpt>
      <trkpt lat="47.23434" lon="-1.02968">
        <ele>81.1</ele>
        <time>2011-07-03T08:11:39Z</time>
      </trkpt>
      <trkpt lat="47.23436" lon="-1.02972">
        <ele>80.5</ele>
        <time>2011-07-03T08:11:40Z</time>
      </trkpt>
      <trkpt lat="47.23438" lon="-1.02977">
        <ele>80.1</ele>
        <time>2011-07-03T08:11:41Z</time>
      </trkpt>
      <trkpt lat="47.23446" lon="-1.03006">
        <ele>78.7</ele>
        <time>2011-07-03T08:11:46Z</time>
      </trkpt>
      <trkpt lat="47.23447" lon="-1.03012">
        <ele>78.7</ele>
        <time>2011-07-03T08:11:47Z</time>
      </trkpt>
      <trkpt lat="47.23447" lon="-1.03017">
        <ele>78.3</ele>
        <time>2011-07-03T08:11:48Z</time>
      </trkpt>
      <trkpt lat="47.23448" lon="-1.03025">
        <ele>77.8</ele>
        <time>2011-07-03T08:11:50Z</time>
      </trkpt>
      <trkpt lat="47.2345" lon="-1.03027">
        <ele>77.7</ele>
        <time>2011-07-03T08:11:51Z</time>
      </trkpt>
      <trkpt lat="47.23451" lon="-1.03027">
        <ele>77.5</ele>
        <time>2011-07-03T08:11:52Z</time>
      </trkpt>
      <trkpt lat="47.23453" lon="-1.03025">
        <ele>77.4</ele>
        <time>2011-07-03T08:11:53Z</time>
      </trkpt>
      <trkpt lat="47.23455" lon="-1.03021">
        <ele>77.3</ele>
        <time>2011-07-03T08:11:54Z</time>
      </trkpt>
      <trkpt lat="47.2346" lon="-1.0301">
        <ele>76.2</ele>
        <time>2011-07-03T08:11:56Z</time>
      </trkpt>
      <trkpt lat="47.23472" lon="-1.02971">
        <ele>71.1</ele>
        <time>2011-07-03T08:12:03Z</time>
      </trkpt>
      <trkpt lat="47.23475" lon="-1.02963">
        <ele>69.1</ele>
        <time>2011-07-03T08:12:05Z</time>
      </trkpt>
      <trkpt lat="47.23481" lon="-1.02951">
        <ele>67.4</ele>
        <time>2011-07-03T08:12:09Z</time>
      </trkpt>
      <trkpt lat="47.23482" lon="-1.02951">
        <ele>67.2</ele>
        <time>2011-07-03T08:12:10Z</time>
      </trkpt>
      <trkpt lat="47.23483" lon="-1.02951">
        <ele>67</ele>
        <time>2011-07-03T08:12:11Z</time>
      </trkpt>
      <trkpt lat="47.23484" lon="-1.02953">
        <ele>66.8</ele>
        <time>2011-07-03T08:12:12Z</time>
      </trkpt>
      <trkpt lat="47.23484" lon="-1.02954">
        <ele>66.6</ele>
        <time>2011-07-03T08:12:13Z</time>
      </trkpt>
      <trkpt lat="47.2348" lon="-1.0299">
        <ele>64.5</ele>
        <time>2011-07-03T08:12:20Z</time>
      </trkpt>
      <trkpt lat="47.2348" lon="-1.02997">
        <ele>64</ele>
        <time>2011-07-03T08:12:21Z</time>
      </trkpt>
      <trkpt lat="47.23485" lon="-1.03016">
        <ele>62.2</ele>
        <time>2011-07-03T08:12:24Z</time>
      </trkpt>
      <trkpt lat="47.2349" lon="-1.03028">
        <ele>61.4</ele>
        <time>2011-07-03T08:12:26Z</time>
      </trkpt>
      <trkpt lat="47.23493" lon="-1.03037">
        <ele>61.1</ele>
        <time>2011-07-03T08:12:28Z</time>
      </trkpt>
      <trkpt lat="47.23494" lon="-1.03041">
        <ele>61</ele>
        <time>2011-07-03T08:12:29Z</time>
      </trkpt>
      <trkpt lat="47.23496" lon="-1.03045">
        <ele>61</ele>
        <time>2011-07-03T08:12:30Z</time>
      </trkpt>
      <trkpt lat="47.23498" lon="-1.03048">
        <ele>61</ele>
        <time>2011-07-03T08:12:31Z</time>
      </trkpt>
      <trkpt lat="47.23528" lon="-1.03095">
        <ele>59.1</ele>
        <time>2011-07-03T08:12:40Z</time>
      </trkpt>
      <trkpt lat="47.2353" lon="-1.03096">
        <ele>58.9</ele>
        <time>2011-07-03T08:12:41Z</time>
      </trkpt>
      <trkpt lat="47.2353" lon="-1.03095">
        <ele>58.5</ele>
        <time>2011-07-03T08:12:42Z</time>
      </trkpt>
      <trkpt lat="47.2353" lon="-1.03094">
        <ele>58.2</ele>
        <time>2011-07-03T08:12:43Z</time>
      </trkpt>
      <trkpt lat="47.23527" lon="-1.03086">
        <ele>57.4</ele>
        <time>2011-07-03T08:12:46Z</time>
      </trkpt>
      <trkpt lat="47.23527" lon="-1.03082">
        <ele>57.1</ele>
        <time>2011-07-03T08:12:47Z</time>
      </trkpt>
      <trkpt lat="47.23526" lon="-1.03078">
        <ele>56.8</ele>
        <time>2011-07-03T08:12:48Z</time>
      </trkpt>
      <trkpt lat="47.23526" lon="-1.03061">
        <ele>55.6</ele>
        <time>2011-07-03T08:12:50Z</time>
      </trkpt>
      <trkpt lat="47.23524" lon="-1.03054">
        <ele>55.2</ele>
        <time>2011-07-03T08:12:51Z</time>
      </trkpt>
      <trkpt lat="47.23521" lon="-1.03036">
        <ele>51.8</ele>
        <time>2011-07-03T08:12:54Z</time>
      </trkpt>
      <trkpt lat="47.2352" lon="-1.03011">
        <ele>48.6</ele>
        <time>2011-07-03T08:12:57Z</time>
      </trkpt>
      <trkpt lat="47.23521" lon="-1.03003">
        <ele>48.1</ele>
        <time>2011-07-03T08:12:58Z</time>
      </trkpt>
      <trkpt lat="47.23521" lon="-1.02999">
        <ele>47.1</ele>
        <time>2011-07-03T08:12:59Z</time>
      </trkpt>
      <trkpt lat="47.23522" lon="-1.02996">
        <ele>46.4</ele>
        <time>2011-07-03T08:13:00Z</time>
      </trkpt>
      <trkpt lat="47.23522" lon="-1.02994">
        <ele>46.2</ele>
        <time>2011-07-03T08:13:02Z</time>
      </trkpt>
      <trkpt lat="47.23522" lon="-1.02993">
        <ele>46.4</ele>
        <time>2011-07-03T08:13:03Z</time>
      </trkpt>
      <trkpt lat="47.23521" lon="-1.02993">
        <ele>46.5</ele>
        <time>2011-07-03T08:13:04Z</time>
      </trkpt>
      <trkpt lat="47.23521" lon="-1.02992">
        <ele>47.1</ele>
        <time>2011-07-03T08:13:05Z</time>
      </trkpt>
      <trkpt lat="47.23521" lon="-1.02991">
        <ele>47.9</ele>
        <time>2011-07-03T08:13:07Z</time>
      </trkpt>
      <trkpt lat="47.23521" lon="-1.02989">
        <ele>47.7</ele>
        <time>2011-07-03T08:13:08Z</time>
      </trkpt>
      <trkpt lat="47.23522" lon="-1.02988">
        <ele>47.6</ele>
        <time>2011-07-03T08:13:09Z</time>
      </trkpt>
      <trkpt lat="47.23522" lon="-1.02983">
        <ele>47.7</ele>
        <time>2011-07-03T08:13:12Z</time>
      </trkpt>
      <trkpt lat="47.23524" lon="-1.02976">
        <ele>48.3</ele>
        <time>2011-07-03T08:13:17Z</time>
      </trkpt>
      <trkpt lat="47.23524" lon="-1.02975">
        <ele>48.6</ele>
        <time>2011-07-03T08:13:18Z</time>
      </trkpt>
      <trkpt lat="47.23525" lon="-1.02973">
        <ele>48.9</ele>
        <time>2011-07-03T08:13:20Z</time>
      </trkpt>
      <trkpt lat="47.23527" lon="-1.02959">
        <ele>48.9</ele>
        <time>2011-07-03T08:13:25Z</time>
      </trkpt>
      <trkpt lat="47.23527" lon="-1.02953">
        <ele>49</ele>
        <time>2011-07-03T08:13:27Z</time>
      </trkpt>
      <trkpt lat="47.23525" lon="-1.02933">
        <ele>49.1</ele>
        <time>2011-07-03T08:13:30Z</time>
      </trkpt>
      <trkpt lat="47.23525" lon="-1.02927">
        <ele>49.3</ele>
        <time>2011-07-03T08:13:31Z</time>
      </trkpt>
      <trkpt lat="47.23527" lon="-1.02923">
        <ele>49.4</ele>
        <time>2011-07-03T08:13:32Z</time>
      </trkpt>
      <trkpt lat="47.23548" lon="-1.02882">
        <ele>49.7</ele>
        <time>2011-07-03T08:13:44Z</time>
      </trkpt>
      <trkpt lat="47.23554" lon="-1.02863">
        <ele>49.4</ele>
        <time>2011-07-03T08:13:50Z</time>
      </trkpt>
      <trkpt lat="47.23557" lon="-1.02857">
        <ele>49.7</ele>
        <time>2011-07-03T08:13:52Z</time>
      </trkpt>
      <trkpt lat="47.23559" lon="-1.02846">
        <ele>50.8</ele>
        <time>2011-07-03T08:13:56Z</time>
      </trkpt>
      <trkpt lat="47.23559" lon="-1.02844">
        <ele>51.1</ele>
        <time>2011-07-03T08:13:57Z</time>
      </trkpt>
      <trkpt lat="47.23559" lon="-1.02842">
        <ele>51.3</ele>
        <time>2011-07-03T08:13:58Z</time>
      </trkpt>
      <trkpt lat="47.23558" lon="-1.02836">
        <ele>52.2</ele>
        <time>2011-07-03T08:14:01Z</time>
      </trkpt>
      <trkpt lat="47.23556" lon="-1.02831">
        <ele>53.6</ele>
        <time>2011-07-03T08:14:04Z</time>
      </trkpt>
      <trkpt lat="47.23556" lon="-1.02829">
        <ele>53.8</ele>
        <time>2011-07-03T08:14:05Z</time>
      </trkpt>
      <trkpt lat="47.23557" lon="-1.02817">
        <ele>55.3</ele>
        <time>2011-07-03T08:14:11Z</time>
      </trkpt>
      <trkpt lat="47.23563" lon="-1.02797">
        <ele>57</ele>
        <time>2011-07-03T08:14:20Z</time>
      </trkpt>
      <trkpt lat="47.23564" lon="-1.02796">
        <ele>57.1</ele>
        <time>2011-07-03T08:14:21Z</time>
      </trkpt>
      <trkpt lat="47.23566" lon="-1.02794">
        <ele>57.3</ele>
        <time>2011-07-03T08:14:22Z</time>
      </trkpt>
      <trkpt lat="47.23569" lon="-1.02793">
        <ele>57.5</ele>
        <time>2011-07-03T08:14:23Z</time>
      </trkpt>
      <trkpt lat="47.23581" lon="-1.0279">
        <ele>57.5</ele>
        <time>2011-07-03T08:14:26Z</time>
      </trkpt>
      <trkpt lat="47.23635" lon="-1.02783">
        <ele>54.7</ele>
        <time>2011-07-03T08:14:34Z</time>
      </trkpt>
      <trkpt lat="47.23642" lon="-1.02781">
        <ele>53.9</ele>
        <time>2011-07-03T08:14:35Z</time>
      </trkpt>
      <trkpt lat="47.23649" lon="-1.02777">
        <ele>53.3</ele>
        <time>2011-07-03T08:14:36Z</time>
      </trkpt>
      <trkpt lat="47.23655" lon="-1.02772">
        <ele>52.9</ele>
        <time>2011-07-03T08:14:37Z</time>
      </trkpt>
      <trkpt lat="47.23661" lon="-1.02765">
        <ele>52</ele>
        <time>2011-07-03T08:14:38Z</time>
      </trkpt>
      <trkpt lat="47.23687" lon="-1.0273">
        <ele>47.3</ele>
        <time>2011-07-03T08:14:43Z</time>
      </trkpt>
      <trkpt lat="47.23692" lon="-1.02726">
        <ele>45.7</ele>
        <time>2011-07-03T08:14:44Z</time>
      </trkpt>
      <trkpt lat="47.23697" lon="-1.02723">
        <ele>44.5</ele>
        <time>2011-07-03T08:14:45Z</time>
      </trkpt>
      <trkpt lat="47.23703" lon="-1.0272">
        <ele>43.6</ele>
        <time>2011-07-03T08:14:46Z</time>
      </trkpt>
      <trkpt lat="47.2371" lon="-1.0272">
        <ele>42.7</ele>
        <time>2011-07-03T08:14:47Z</time>
      </trkpt>
      <trkpt lat="47.23748" lon="-1.02725">
        <ele>39.5</ele>
        <time>2011-07-03T08:14:52Z</time>
      </trkpt>
      <trkpt lat="47.23754" lon="-1.02725">
        <ele>39.2</ele>
        <time>2011-07-03T08:14:53Z</time>
      </trkpt>
      <trkpt lat="47.23758" lon="-1.02724">
        <ele>37.6</ele>
        <time>2011-07-03T08:14:54Z</time>
      </trkpt>
      <trkpt lat="47.23766" lon="-1.0272">
        <ele>33.7</ele>
        <time>2011-07-03T08:14:58Z</time>
      </trkpt>
      <trkpt lat="47.23767" lon="-1.0272">
        <ele>33.1</ele>
        <time>2011-07-03T08:14:59Z</time>
      </trkpt>
      <trkpt lat="47.23767" lon="-1.0272">
        <ele>32.6</ele>
        <time>2011-07-03T08:15:00Z</time>
      </trkpt>
      <trkpt lat="47.23769" lon="-1.0272">
        <ele>32.1</ele>
        <time>2011-07-03T08:15:01Z</time>
      </trkpt>
      <trkpt lat="47.2377" lon="-1.02719">
        <ele>31.8</ele>
        <time>2011-07-03T08:15:02Z</time>
      </trkpt>
      <trkpt lat="47.23772" lon="-1.02718">
        <ele>31.7</ele>
        <time>2011-07-03T08:15:04Z</time>
      </trkpt>
      <trkpt lat="47.23773" lon="-1.02717">
        <ele>31.7</ele>
        <time>2011-07-03T08:15:05Z</time>
      </trkpt>
      <trkpt lat="47.23774" lon="-1.02716">
        <ele>31.5</ele>
        <time>2011-07-03T08:15:06Z</time>
      </trkpt>
      <trkpt lat="47.23775" lon="-1.02715">
        <ele>31.4</ele>
        <time>2011-07-03T08:15:07Z</time>
      </trkpt>
      <trkpt lat="47.23775" lon="-1.02715">
        <ele>31.2</ele>
        <time>2011-07-03T08:15:09Z</time>
      </trkpt>
      <trkpt lat="47.23776" lon="-1.02714">
        <ele>31.2</ele>
        <time>2011-07-03T08:15:10Z</time>
      </trkpt>
      <trkpt lat="47.23777" lon="-1.02713">
        <ele>31.3</ele>
        <time>2011-07-03T08:15:11Z</time>
      </trkpt>
      <trkpt lat="47.23778" lon="-1.02712">
        <ele>31.3</ele>
        <time>2011-07-03T08:15:12Z</time>
      </trkpt>
      <trkpt lat="47.2379" lon="-1.02704">
        <ele>33</ele>
        <time>2011-07-03T08:15:25Z</time>
      </trkpt>
      <trkpt lat="47.2379" lon="-1.02704">
        <ele>32.8</ele>
        <time>2011-07-03T08:15:28Z</time>
      </trkpt>
      <trkpt lat="47.23791" lon="-1.02703">
        <ele>32.9</ele>
        <time>2011-07-03T08:15:30Z</time>
      </trkpt>
      <trkpt lat="47.23791" lon="-1.02703">
        <ele>33</ele>
        <time>2011-07-03T08:15:31Z</time>
      </trkpt>
      <trkpt lat="47.23791" lon="-1.02703">
        <ele>33.5</ele>
        <time>2011-07-03T08:15:32Z</time>
      </trkpt>
      <trkpt lat="47.23792" lon="-1.02702">
        <ele>33.8</ele>
        <time>2011-07-03T08:15:33Z</time>
      </trkpt>
      <trkpt lat="47.23792" lon="-1.02702">
        <ele>33.9</ele>
        <time>2011-07-03T08:15:35Z</time>
      </trkpt>
      <trkpt lat="47.23793" lon="-1.02702">
        <ele>33.2</ele>
        <time>2011-07-03T08:15:38Z</time>
      </trkpt>
      <trkpt lat="47.23793" lon="-1.02702">
        <ele>32.8</ele>
        <time>2011-07-03T08:15:39Z</time>
      </trkpt>
      <trkpt lat="47.23793" lon="-1.02702">
        <ele>32.6</ele>
        <time>2011-07-03T08:15:40Z</time>
      </trkpt>
      <trkpt lat="47.23794" lon="-1.02702">
        <ele>32.6</ele>
        <time>2011-07-03T08:15:42Z</time>
      </trkpt>
      <trkpt lat="47.23794" lon="-1.02702">
        <ele>32.6</ele>
        <time>2011-07-03T08:15:43Z</time>
      </trkpt>
      <trkpt lat="47.23795" lon="-1.02702">
        <ele>32.4</ele>
        <time>2011-07-03T08:15:45Z</time>
      </trkpt>
      <trkpt lat="47.23795" lon="-1.02702">
        <ele>32.3</ele>
        <time>2011-07-03T08:15:46Z</time>
      </trkpt>
      <trkpt lat="47.23795" lon="-1.02702">
        <ele>32.3</ele>
        <time>2011-07-03T08:15:47Z</time>
      </trkpt>
      <trkpt lat="47.23794" lon="-1.02701">
        <ele>32.2</ele>
        <time>2011-07-03T08:15:49Z</time>
      </trkpt>
      <trkpt lat="47.23795" lon="-1.02701">
        <ele>32.1</ele>
        <time>2011-07-03T08:15:50Z</time>
      </trkpt>
      <trkpt lat="47.23795" lon="-1.02701">
        <ele>32.1</ele>
        <time>2011-07-03T08:15:51Z</time>
      </trkpt>
      <trkpt lat="47.23795" lon="-1.02701">
        <ele>32</ele>
        <time>2011-07-03T08:15:52Z</time>
      </trkpt>
      <trkpt lat="47.23795" lon="-1.027">
        <ele>32</ele>
        <time>2011-07-03T08:15:53Z</time>
      </trkpt>
      <trkpt lat="47.23796" lon="-1.027">
        <ele>31.9</ele>
        <time>2011-07-03T08:15:54Z</time>
      </trkpt>
      <trkpt lat="47.23796" lon="-1.027">
        <ele>31.8</ele>
        <time>2011-07-03T08:15:55Z</time>
      </trkpt>
      <trkpt lat="47.23796" lon="-1.027">
        <ele>31.7</ele>
        <time>2011-07-03T08:15:56Z</time>
      </trkpt>
      <trkpt lat="47.23797" lon="-1.027">
        <ele>31.6</ele>
        <time>2011-07-03T08:15:58Z</time>
      </trkpt>
      <trkpt lat="47.23797" lon="-1.027">
        <ele>31.6</ele>
        <time>2011-07-03T08:15:59Z</time>
      </trkpt>
      <trkpt lat="47.23797" lon="-1.027">
        <ele>31.6</ele>
        <time>2011-07-03T08:16:00Z</time>
      </trkpt>
      <trkpt lat="47.23798" lon="-1.02699">
        <ele>32</ele>
        <time>2011-07-03T08:16:01Z</time>
      </trkpt>
      <trkpt lat="47.23799" lon="-1.02699">
        <ele>32.2</ele>
        <time>2011-07-03T08:16:02Z</time>
      </trkpt>
      <trkpt lat="47.23799" lon="-1.027">
        <ele>32.4</ele>
        <time>2011-07-03T08:16:03Z</time>
      </trkpt>
      <trkpt lat="47.238" lon="-1.027">
        <ele>32.4</ele>
        <time>2011-07-03T08:16:04Z</time>
      </trkpt>
      <trkpt lat="47.238" lon="-1.02699">
        <ele>32.4</ele>
        <time>2011-07-03T08:16:05Z</time>
      </trkpt>
      <trkpt lat="47.238" lon="-1.02698">
        <ele>32.4</ele>
        <time>2011-07-03T08:16:06Z</time>
      </trkpt>
      <trkpt lat="47.238" lon="-1.02697">
        <ele>32.5</ele>
        <time>2011-07-03T08:16:08Z</time>
      </trkpt>
      <trkpt lat="47.238" lon="-1.02697">
        <ele>32.5</ele>
        <time>2011-07-03T08:16:09Z</time>
      </trkpt>
      <trkpt lat="47.238" lon="-1.02695">
        <ele>32.6</ele>
        <time>2011-07-03T08:16:12Z</time>
      </trkpt>
      <trkpt lat="47.23801" lon="-1.02695">
        <ele>32.7</ele>
        <time>2011-07-03T08:16:13Z</time>
      </trkpt>
      <trkpt lat="47.23801" lon="-1.02694">
        <ele>32.7</ele>
        <time>2011-07-03T08:16:15Z</time>
      </trkpt>
      <trkpt lat="47.23803" lon="-1.0269">
        <ele>33.3</ele>
        <time>2011-07-03T08:16:18Z</time>
      </trkpt>
      <trkpt lat="47.23805" lon="-1.0268">
        <ele>33.8</ele>
        <time>2011-07-03T08:16:23Z</time>
      </trkpt>
      <trkpt lat="47.23807" lon="-1.02673">
        <ele>35.5</ele>
        <time>2011-07-03T08:16:27Z</time>
      </trkpt>
      <trkpt lat="47.23807" lon="-1.02671">
        <ele>35.8</ele>
        <time>2011-07-03T08:16:28Z</time>
      </trkpt>
      <trkpt lat="47.23808" lon="-1.02667">
        <ele>36.6</ele>
        <time>2011-07-03T08:16:30Z</time>
      </trkpt>
      <trkpt lat="47.23809" lon="-1.02652">
        <ele>37.8</ele>
        <time>2011-07-03T08:16:36Z</time>
      </trkpt>
      <trkpt lat="47.23809" lon="-1.0265">
        <ele>37.8</ele>
        <time>2011-07-03T08:16:37Z</time>
      </trkpt>
      <trkpt lat="47.23808" lon="-1.02645">
        <ele>38.5</ele>
        <time>2011-07-03T08:16:39Z</time>
      </trkpt>
      <trkpt lat="47.23807" lon="-1.02636">
        <ele>40</ele>
        <time>2011-07-03T08:16:44Z</time>
      </trkpt>
      <trkpt lat="47.23808" lon="-1.02634">
        <ele>40.8</ele>
        <time>2011-07-03T08:16:45Z</time>
      </trkpt>
      <trkpt lat="47.23808" lon="-1.02632">
        <ele>41.3</ele>
        <time>2011-07-03T08:16:46Z</time>
      </trkpt>
      <trkpt lat="47.23809" lon="-1.02631">
        <ele>41.7</ele>
        <time>2011-07-03T08:16:47Z</time>
      </trkpt>
      <trkpt lat="47.23812" lon="-1.02631">
        <ele>41.9</ele>
        <time>2011-07-03T08:16:49Z</time>
      </trkpt>
      <trkpt lat="47.23813" lon="-1.02631">
        <ele>41.9</ele>
        <time>2011-07-03T08:16:50Z</time>
      </trkpt>
      <trkpt lat="47.23814" lon="-1.02631">
        <ele>41.9</ele>
        <time>2011-07-03T08:16:51Z</time>
      </trkpt>
      <trkpt lat="47.23817" lon="-1.02634">
        <ele>42.4</ele>
        <time>2011-07-03T08:16:54Z</time>
      </trkpt>
      <trkpt lat="47.23819" lon="-1.02637">
        <ele>43</ele>
        <time>2011-07-03T08:16:56Z</time>
      </trkpt>
      <trkpt lat="47.23822" lon="-1.0264">
        <ele>43.4</ele>
        <time>2011-07-03T08:16:59Z</time>
      </trkpt>
      <trkpt lat="47.23824" lon="-1.02642">
        <ele>43.8</ele>
        <time>2011-07-03T08:17:01Z</time>
      </trkpt>
      <trkpt lat="47.23828" lon="-1.02645">
        <ele>44.9</ele>
        <time>2011-07-03T08:17:04Z</time>
      </trkpt>
      <trkpt lat="47.23834" lon="-1.02647">
        <ele>46.1</ele>
        <time>2011-07-03T08:17:08Z</time>
      </trkpt>
      <trkpt lat="47.23835" lon="-1.02648">
        <ele>46</ele>
        <time>2011-07-03T08:17:09Z</time>
      </trkpt>
      <trkpt lat="47.23836" lon="-1.02648">
        <ele>45.9</ele>
        <time>2011-07-03T08:17:10Z</time>
      </trkpt>
      <trkpt lat="47.23838" lon="-1.02649">
        <ele>46</ele>
        <time>2011-07-03T08:17:11Z</time>
      </trkpt>
      <trkpt lat="47.23839" lon="-1.02649">
        <ele>46</ele>
        <time>2011-07-03T08:17:12Z</time>
      </trkpt>
      <trkpt lat="47.23854" lon="-1.02647">
        <ele>47.5</ele>
        <time>2011-07-03T08:17:22Z</time>
      </trkpt>
      <trkpt lat="47.23911" lon="-1.02629">
        <ele>53.7</ele>
        <time>2011-07-03T08:17:54Z</time>
      </trkpt>
      <trkpt lat="47.23913" lon="-1.02629">
        <ele>54.4</ele>
        <time>2011-07-03T08:17:55Z</time>
      </trkpt>
      <trkpt lat="47.23944" lon="-1.02624">
        <ele>57.4</ele>
        <time>2011-07-03T08:18:12Z</time>
      </trkpt>
      <trkpt lat="47.23964" lon="-1.0262">
        <ele>61.3</ele>
        <time>2011-07-03T08:18:24Z</time>
      </trkpt>
      <trkpt lat="47.23969" lon="-1.0262">
        <ele>62.4</ele>
        <time>2011-07-03T08:18:27Z</time>
      </trkpt>
      <trkpt lat="47.23992" lon="-1.02626">
        <ele>64.9</ele>
        <time>2011-07-03T08:18:40Z</time>
      </trkpt>
      <trkpt lat="47.23998" lon="-1.02628">
        <ele>65.2</ele>
        <time>2011-07-03T08:18:45Z</time>
      </trkpt>
      <trkpt lat="47.24" lon="-1.02629">
        <ele>65.8</ele>
        <time>2011-07-03T08:18:47Z</time>
      </trkpt>
      <trkpt lat="47.24001" lon="-1.0263">
        <ele>66.5</ele>
        <time>2011-07-03T08:18:49Z</time>
      </trkpt>
      <trkpt lat="47.24001" lon="-1.0263">
        <ele>66.9</ele>
        <time>2011-07-03T08:18:50Z</time>
      </trkpt>
      <trkpt lat="47.24002" lon="-1.02631">
        <ele>67.3</ele>
        <time>2011-07-03T08:18:51Z</time>
      </trkpt>
      <trkpt lat="47.24002" lon="-1.02631">
        <ele>67.5</ele>
        <time>2011-07-03T08:18:52Z</time>
      </trkpt>
      <trkpt lat="47.24002" lon="-1.02631">
        <ele>67.5</ele>
        <time>2011-07-03T08:18:53Z</time>
      </trkpt>
      <trkpt lat="47.24003" lon="-1.02632">
        <ele>67.4</ele>
        <time>2011-07-03T08:18:55Z</time>
      </trkpt>
      <trkpt lat="47.24005" lon="-1.02633">
        <ele>67.5</ele>
        <time>2011-07-03T08:18:56Z</time>
      </trkpt>
      <trkpt lat="47.24007" lon="-1.02635">
        <ele>67.7</ele>
        <time>2011-07-03T08:18:58Z</time>
      </trkpt>
      <trkpt lat="47.24008" lon="-1.02635">
        <ele>67.9</ele>
        <time>2011-07-03T08:18:59Z</time>
      </trkpt>
      <trkpt lat="47.2401" lon="-1.02633">
        <ele>68.1</ele>
        <time>2011-07-03T08:19:00Z</time>
      </trkpt>
      <trkpt lat="47.24018" lon="-1.02607">
        <ele>69.3</ele>
        <time>2011-07-03T08:19:11Z</time>
      </trkpt>
      <trkpt lat="47.24025" lon="-1.02583">
        <ele>69.9</ele>
        <time>2011-07-03T08:19:23Z</time>
      </trkpt>
      <trkpt lat="47.24026" lon="-1.02579">
        <ele>70.1</ele>
        <time>2011-07-03T08:19:25Z</time>
      </trkpt>
      <trkpt lat="47.24026" lon="-1.02574">
        <ele>70.3</ele>
        <time>2011-07-03T08:19:28Z</time>
      </trkpt>
      <trkpt lat="47.24026" lon="-1.02573">
        <ele>70.3</ele>
        <time>2011-07-03T08:19:29Z</time>
      </trkpt>
      <trkpt lat="47.24027" lon="-1.02569">
        <ele>70.6</ele>
        <time>2011-07-03T08:19:31Z</time>
      </trkpt>
      <trkpt lat="47.24027" lon="-1.02567">
        <ele>70.7</ele>
        <time>2011-07-03T08:19:32Z</time>
      </trkpt>
      <trkpt lat="47.24031" lon="-1.02554">
        <ele>71.6</ele>
        <time>2011-07-03T08:19:39Z</time>
      </trkpt>
      <trkpt lat="47.24032" lon="-1.02551">
        <ele>71.8</ele>
        <time>2011-07-03T08:19:41Z</time>
      </trkpt>
      <trkpt lat="47.24033" lon="-1.02545">
        <ele>72.1</ele>
        <time>2011-07-03T08:19:44Z</time>
      </trkpt>
      <trkpt lat="47.24037" lon="-1.02532">
        <ele>72.2</ele>
        <time>2011-07-03T08:19:52Z</time>
      </trkpt>
      <trkpt lat="47.24038" lon="-1.02528">
        <ele>72.4</ele>
        <time>2011-07-03T08:19:54Z</time>
      </trkpt>
      <trkpt lat="47.2404" lon="-1.0252">
        <ele>72.6</ele>
        <time>2011-07-03T08:19:58Z</time>
      </trkpt>
      <trkpt lat="47.24046" lon="-1.02496">
        <ele>73.5</ele>
        <time>2011-07-03T08:20:10Z</time>
      </trkpt>
      <trkpt lat="47.24047" lon="-1.02494">
        <ele>73.7</ele>
        <time>2011-07-03T08:20:11Z</time>
      </trkpt>
      <trkpt lat="47.24048" lon="-1.02492">
        <ele>74</ele>
        <time>2011-07-03T08:20:12Z</time>
      </trkpt>
      <trkpt lat="47.24051" lon="-1.02483">
        <ele>73.9</ele>
        <time>2011-07-03T08:20:17Z</time>
      </trkpt>
      <trkpt lat="47.24052" lon="-1.02476">
        <ele>74.6</ele>
        <time>2011-07-03T08:20:20Z</time>
      </trkpt>
      <trkpt lat="47.24053" lon="-1.02474">
        <ele>74.8</ele>
        <time>2011-07-03T08:20:21Z</time>
      </trkpt>
      <trkpt lat="47.24056" lon="-1.02469">
        <ele>74.2</ele>
        <time>2011-07-03T08:20:24Z</time>
      </trkpt>
      <trkpt lat="47.24056" lon="-1.02467">
        <ele>74.4</ele>
        <time>2011-07-03T08:20:25Z</time>
      </trkpt>
      <trkpt lat="47.24059" lon="-1.02452">
        <ele>74.8</ele>
        <time>2011-07-03T08:20:32Z</time>
      </trkpt>
      <trkpt lat="47.2406" lon="-1.02446">
        <ele>75.3</ele>
        <time>2011-07-03T08:20:35Z</time>
      </trkpt>
      <trkpt lat="47.2407" lon="-1.02417">
        <ele>76.7</ele>
        <time>2011-07-03T08:20:49Z</time>
      </trkpt>
      <trkpt lat="47.24077" lon="-1.02401">
        <ele>77.7</ele>
        <time>2011-07-03T08:20:57Z</time>
      </trkpt>
      <trkpt lat="47.2408" lon="-1.02393">
        <ele>77.9</ele>
        <time>2011-07-03T08:21:01Z</time>
      </trkpt>
      <trkpt lat="47.24084" lon="-1.02386">
        <ele>78.1</ele>
        <time>2011-07-03T08:21:05Z</time>
      </trkpt>
      <trkpt lat="47.24086" lon="-1.02382">
        <ele>78.4</ele>
        <time>2011-07-03T08:21:07Z</time>
      </trkpt>
      <trkpt lat="47.24114" lon="-1.02323">
        <ele>78.4</ele>
        <time>2011-07-03T08:21:37Z</time>
      </trkpt>
      <trkpt lat="47.24116" lon="-1.0232">
        <ele>78.6</ele>
        <time>2011-07-03T08:21:39Z</time>
      </trkpt>
      <trkpt lat="47.24117" lon="-1.02318">
        <ele>78.7</ele>
        <time>2011-07-03T08:21:40Z</time>
      </trkpt>
      <trkpt lat="47.24119" lon="-1.02312">
        <ele>79.1</ele>
        <time>2011-07-03T08:21:43Z</time>
      </trkpt>
      <trkpt lat="47.24121" lon="-1.02309">
        <ele>79.2</ele>
        <time>2011-07-03T08:21:45Z</time>
      </trkpt>
      <trkpt lat="47.24169" lon="-1.02184">
        <ele>83.1</ele>
        <time>2011-07-03T08:22:24Z</time>
      </trkpt>
      <trkpt lat="47.24222" lon="-1.02043">
        <ele>88.8</ele>
        <time>2011-07-03T08:23:02Z</time>
      </trkpt>
      <trkpt lat="47.24273" lon="-1.01863">
        <ele>92.2</ele>
        <time>2011-07-03T08:23:43Z</time>
      </trkpt>
      <trkpt lat="47.24328" lon="-1.01747">
        <ele>94</ele>
        <time>2011-07-03T08:24:10Z</time>
      </trkpt>
      <trkpt lat="47.24348" lon="-1.01673">
        <ele>95.9</ele>
        <time>2011-07-03T08:24:24Z</time>
      </trkpt>
      <trkpt lat="47.2441" lon="-1.01363">
        <ele>98.9</ele>
        <time>2011-07-03T08:25:16Z</time>
      </trkpt>
      <trkpt lat="47.2441" lon="-1.01359">
        <ele>99.3</ele>
        <time>2011-07-03T08:25:17Z</time>
      </trkpt>
      <trkpt lat="47.24417" lon="-1.01336">
        <ele>98.8</ele>
        <time>2011-07-03T08:25:22Z</time>
      </trkpt>
      <trkpt lat="47.24419" lon="-1.01331">
        <ele>98.6</ele>
        <time>2011-07-03T08:25:23Z</time>
      </trkpt>
      <trkpt lat="47.24423" lon="-1.01325">
        <ele>98.4</ele>
        <time>2011-07-03T08:25:24Z</time>
      </trkpt>
      <trkpt lat="47.24889" lon="-1.00771">
        <ele>88.1</ele>
        <time>2011-07-03T08:27:03Z</time>
      </trkpt>
      <trkpt lat="47.24893" lon="-1.00768">
        <ele>87.5</ele>
        <time>2011-07-03T08:27:04Z</time>
      </trkpt>
      <trkpt lat="47.24897" lon="-1.00768">
        <ele>87.1</ele>
        <time>2011-07-03T08:27:05Z</time>
      </trkpt>
      <trkpt lat="47.24902" lon="-1.00768">
        <ele>86.8</ele>
        <time>2011-07-03T08:27:06Z</time>
      </trkpt>
      <trkpt lat="47.24962" lon="-1.00789">
        <ele>84</ele>
        <time>2011-07-03T08:27:15Z</time>
      </trkpt>
      <trkpt lat="47.24978" lon="-1.00789">
        <ele>82.8</ele>
        <time>2011-07-03T08:27:17Z</time>
      </trkpt>
      <trkpt lat="47.24992" lon="-1.00788">
        <ele>81.7</ele>
        <time>2011-07-03T08:27:19Z</time>
      </trkpt>
      <trkpt lat="47.25021" lon="-1.00781">
        <ele>80.6</ele>
        <time>2011-07-03T08:27:23Z</time>
      </trkpt>
      <trkpt lat="47.25055" lon="-1.00768">
        <ele>79.9</ele>
        <time>2011-07-03T08:27:28Z</time>
      </trkpt>
      <trkpt lat="47.25076" lon="-1.00758">
        <ele>78.4</ele>
        <time>2011-07-03T08:27:31Z</time>
      </trkpt>
      <trkpt lat="47.25206" lon="-1.00646">
        <ele>75.8</ele>
        <time>2011-07-03T08:27:53Z</time>
      </trkpt>
      <trkpt lat="47.25296" lon="-1.00588">
        <ele>76.4</ele>
        <time>2011-07-03T08:28:10Z</time>
      </trkpt>
      <trkpt lat="47.253" lon="-1.00584">
        <ele>76.2</ele>
        <time>2011-07-03T08:28:11Z</time>
      </trkpt>
      <trkpt lat="47.25329" lon="-1.00565">
        <ele>76.7</ele>
        <time>2011-07-03T08:28:19Z</time>
      </trkpt>
      <trkpt lat="47.25337" lon="-1.00563">
        <ele>76.9</ele>
        <time>2011-07-03T08:28:21Z</time>
      </trkpt>
      <trkpt lat="47.25341" lon="-1.00563">
        <ele>77</ele>
        <time>2011-07-03T08:28:22Z</time>
      </trkpt>
      <trkpt lat="47.25364" lon="-1.00565">
        <ele>78.1</ele>
        <time>2011-07-03T08:28:28Z</time>
      </trkpt>
      <trkpt lat="47.25417" lon="-1.00568">
        <ele>79.5</ele>
        <time>2011-07-03T08:28:41Z</time>
      </trkpt>
      <trkpt lat="47.25426" lon="-1.00567">
        <ele>79.7</ele>
        <time>2011-07-03T08:28:43Z</time>
      </trkpt>
      <trkpt lat="47.25578" lon="-1.00578">
        <ele>77.1</ele>
        <time>2011-07-03T08:29:13Z</time>
      </trkpt>
      <trkpt lat="47.25585" lon="-1.00578">
        <ele>76.8</ele>
        <time>2011-07-03T08:29:14Z</time>
      </trkpt>
      <trkpt lat="47.25635" lon="-1.00583">
        <ele>71.3</ele>
        <time>2011-07-03T08:29:23Z</time>
      </trkpt>
      <trkpt lat="47.25643" lon="-1.00585">
        <ele>70.7</ele>
        <time>2011-07-03T08:29:25Z</time>
      </trkpt>
      <trkpt lat="47.25646" lon="-1.00585">
        <ele>70.6</ele>
        <time>2011-07-03T08:29:26Z</time>
      </trkpt>
      <trkpt lat="47.25649" lon="-1.00584">
        <ele>70.5</ele>
        <time>2011-07-03T08:29:27Z</time>
      </trkpt>
      <trkpt lat="47.25652" lon="-1.00582">
        <ele>69.9</ele>
        <time>2011-07-03T08:29:28Z</time>
      </trkpt>
      <trkpt lat="47.25655" lon="-1.0058">
        <ele>69.5</ele>
        <time>2011-07-03T08:29:29Z</time>
      </trkpt>
      <trkpt lat="47.25661" lon="-1.00573">
        <ele>68.3</ele>
        <time>2011-07-03T08:29:31Z</time>
      </trkpt>
      <trkpt lat="47.25664" lon="-1.00569">
        <ele>67.6</ele>
        <time>2011-07-03T08:29:32Z</time>
      </trkpt>
      <trkpt lat="47.25672" lon="-1.00556">
        <ele>65.9</ele>
        <time>2011-07-03T08:29:35Z</time>
      </trkpt>
      <trkpt lat="47.25677" lon="-1.00546">
        <ele>65.3</ele>
        <time>2011-07-03T08:29:37Z</time>
      </trkpt>
      <trkpt lat="47.25678" lon="-1.00542">
        <ele>64.6</ele>
        <time>2011-07-03T08:29:38Z</time>
      </trkpt>
      <trkpt lat="47.25679" lon="-1.00538">
        <ele>64.1</ele>
        <time>2011-07-03T08:29:39Z</time>
      </trkpt>
      <trkpt lat="47.25683" lon="-1.00519">
        <ele>60.5</ele>
        <time>2011-07-03T08:29:44Z</time>
      </trkpt>
      <trkpt lat="47.25684" lon="-1.00514">
        <ele>59.8</ele>
        <time>2011-07-03T08:29:45Z</time>
      </trkpt>
      <trkpt lat="47.25684" lon="-1.00509">
        <ele>59.3</ele>
        <time>2011-07-03T08:29:46Z</time>
      </trkpt>
      <trkpt lat="47.25684" lon="-1.00502">
        <ele>58.9</ele>
        <time>2011-07-03T08:29:47Z</time>
      </trkpt>
      <trkpt lat="47.25682" lon="-1.0048">
        <ele>58</ele>
        <time>2011-07-03T08:29:50Z</time>
      </trkpt>
      <trkpt lat="47.25678" lon="-1.00453">
        <ele>56.1</ele>
        <time>2011-07-03T08:29:55Z</time>
      </trkpt>
      <trkpt lat="47.25678" lon="-1.00452">
        <ele>55.8</ele>
        <time>2011-07-03T08:29:56Z</time>
      </trkpt>
      <trkpt lat="47.25678" lon="-1.0045">
        <ele>55.3</ele>
        <time>2011-07-03T08:29:57Z</time>
      </trkpt>
      <trkpt lat="47.25678" lon="-1.00449">
        <ele>54.9</ele>
        <time>2011-07-03T08:29:58Z</time>
      </trkpt>
      <trkpt lat="47.25678" lon="-1.00445">
        <ele>54.3</ele>
        <time>2011-07-03T08:30:00Z</time>
      </trkpt>
      <trkpt lat="47.25678" lon="-1.00444">
        <ele>53.9</ele>
        <time>2011-07-03T08:30:02Z</time>
      </trkpt>
      <trkpt lat="47.25677" lon="-1.00442">
        <ele>53.7</ele>
        <time>2011-07-03T08:30:03Z</time>
      </trkpt>
      <trkpt lat="47.25676" lon="-1.00441">
        <ele>53.6</ele>
        <time>2011-07-03T08:30:04Z</time>
      </trkpt>
      <trkpt lat="47.25674" lon="-1.00437">
        <ele>53.5</ele>
        <time>2011-07-03T08:30:06Z</time>
      </trkpt>
      <trkpt lat="47.25665" lon="-1.00412">
        <ele>53.9</ele>
        <time>2011-07-03T08:30:13Z</time>
      </trkpt>
      <trkpt lat="47.25659" lon="-1.004">
        <ele>53.9</ele>
        <time>2011-07-03T08:30:16Z</time>
      </trkpt>
      <trkpt lat="47.25659" lon="-1.00397">
        <ele>53.8</ele>
        <time>2011-07-03T08:30:17Z</time>
      </trkpt>
      <trkpt lat="47.25657" lon="-1.00393">
        <ele>53.3</ele>
        <time>2011-07-03T08:30:19Z</time>
      </trkpt>
      <trkpt lat="47.25657" lon="-1.00391">
        <ele>52.7</ele>
        <time>2011-07-03T08:30:21Z</time>
      </trkpt>
      <trkpt lat="47.25656" lon="-1.00387">
        <ele>52.5</ele>
        <time>2011-07-03T08:30:24Z</time>
      </trkpt>
      <trkpt lat="47.25656" lon="-1.00385">
        <ele>52.4</ele>
        <time>2011-07-03T08:30:25Z</time>
      </trkpt>
      <trkpt lat="47.25657" lon="-1.0038">
        <ele>52.4</ele>
        <time>2011-07-03T08:30:28Z</time>
      </trkpt>
      <trkpt lat="47.25657" lon="-1.00379">
        <ele>52.2</ele>
        <time>2011-07-03T08:30:29Z</time>
      </trkpt>
      <trkpt lat="47.25657" lon="-1.00377">
        <ele>52</ele>
        <time>2011-07-03T08:30:30Z</time>
      </trkpt>
      <trkpt lat="47.25658" lon="-1.00375">
        <ele>51.9</ele>
        <time>2011-07-03T08:30:31Z</time>
      </trkpt>
      <trkpt lat="47.25661" lon="-1.00357">
        <ele>52.7</ele>
        <time>2011-07-03T08:30:41Z</time>
      </trkpt>
      <trkpt lat="47.25661" lon="-1.00356">
        <ele>52.5</ele>
        <time>2011-07-03T08:30:42Z</time>
      </trkpt>
      <trkpt lat="47.25661" lon="-1.00355">
        <ele>52.3</ele>
        <time>2011-07-03T08:30:43Z</time>
      </trkpt>
      <trkpt lat="47.25661" lon="-1.00354">
        <ele>52.2</ele>
        <time>2011-07-03T08:30:44Z</time>
      </trkpt>
      <trkpt lat="47.25662" lon="-1.00353">
        <ele>52.1</ele>
        <time>2011-07-03T08:30:45Z</time>
      </trkpt>
      <trkpt lat="47.25662" lon="-1.00351">
        <ele>52.1</ele>
        <time>2011-07-03T08:30:46Z</time>
      </trkpt>
      <trkpt lat="47.25663" lon="-1.00346">
        <ele>52.5</ele>
        <time>2011-07-03T08:30:50Z</time>
      </trkpt>
      <trkpt lat="47.25663" lon="-1.00343">
        <ele>52.3</ele>
        <time>2011-07-03T08:30:52Z</time>
      </trkpt>
      <trkpt lat="47.25664" lon="-1.00341">
        <ele>52.3</ele>
        <time>2011-07-03T08:30:53Z</time>
      </trkpt>
      <trkpt lat="47.25665" lon="-1.00339">
        <ele>52</ele>
        <time>2011-07-03T08:30:54Z</time>
      </trkpt>
      <trkpt lat="47.25667" lon="-1.00316">
        <ele>53.3</ele>
        <time>2011-07-03T08:31:02Z</time>
      </trkpt>
      <trkpt lat="47.25675" lon="-1.00268">
        <ele>53.1</ele>
        <time>2011-07-03T08:31:16Z</time>
      </trkpt>
      <trkpt lat="47.25677" lon="-1.00261">
        <ele>53.6</ele>
        <time>2011-07-03T08:31:18Z</time>
      </trkpt>
      <trkpt lat="47.25685" lon="-1.00226">
        <ele>56.5</ele>
        <time>2011-07-03T08:31:32Z</time>
      </trkpt>
      <trkpt lat="47.25689" lon="-1.00213">
        <ele>58</ele>
        <time>2011-07-03T08:31:37Z</time>
      </trkpt>
      <trkpt lat="47.25691" lon="-1.00208">
        <ele>58.5</ele>
        <time>2011-07-03T08:31:39Z</time>
      </trkpt>
      <trkpt lat="47.25694" lon="-1.00191">
        <ele>59.8</ele>
        <time>2011-07-03T08:31:45Z</time>
      </trkpt>
      <trkpt lat="47.25695" lon="-1.00169">
        <ele>61.2</ele>
        <time>2011-07-03T08:31:53Z</time>
      </trkpt>
      <trkpt lat="47.25695" lon="-1.00167">
        <ele>61.3</ele>
        <time>2011-07-03T08:31:54Z</time>
      </trkpt>
      <trkpt lat="47.25696" lon="-1.00165">
        <ele>61.6</ele>
        <time>2011-07-03T08:31:55Z</time>
      </trkpt>
      <trkpt lat="47.25696" lon="-1.00162">
        <ele>61.9</ele>
        <time>2011-07-03T08:31:56Z</time>
      </trkpt>
      <trkpt lat="47.25695" lon="-1.00151">
        <ele>63.3</ele>
        <time>2011-07-03T08:32:00Z</time>
      </trkpt>
      <trkpt lat="47.25694" lon="-1.0014">
        <ele>64.1</ele>
        <time>2011-07-03T08:32:04Z</time>
      </trkpt>
      <trkpt lat="47.25692" lon="-1.00131">
        <ele>65.6</ele>
        <time>2011-07-03T08:32:08Z</time>
      </trkpt>
      <trkpt lat="47.25677" lon="-1.00081">
        <ele>70.3</ele>
        <time>2011-07-03T08:32:27Z</time>
      </trkpt>
      <trkpt lat="47.25677" lon="-1.00076">
        <ele>70.5</ele>
        <time>2011-07-03T08:32:28Z</time>
      </trkpt>
      <trkpt lat="47.25676" lon="-1.00072">
        <ele>70.7</ele>
        <time>2011-07-03T08:32:29Z</time>
      </trkpt>
      <trkpt lat="47.25657" lon="-1.0001">
        <ele>74.2</ele>
        <time>2011-07-03T08:32:49Z</time>
      </trkpt>
      <trkpt lat="47.25655" lon="-1.00007">
        <ele>74.5</ele>
        <time>2011-07-03T08:32:50Z</time>
      </trkpt>
      <trkpt lat="47.25622" lon="-0.99934">
        <ele>77.7</ele>
        <time>2011-07-03T08:33:15Z</time>
      </trkpt>
      <trkpt lat="47.25553" lon="-0.99805">
        <ele>83.8</ele>
        <time>2011-07-03T08:33:55Z</time>
      </trkpt>
      <trkpt lat="47.25529" lon="-0.9974">
        <ele>83.4</ele>
        <time>2011-07-03T08:34:10Z</time>
      </trkpt>
      <trkpt lat="47.25526" lon="-0.9973">
        <ele>83.3</ele>
        <time>2011-07-03T08:34:12Z</time>
      </trkpt>
      <trkpt lat="47.25517" lon="-0.9969">
        <ele>84.4</ele>
        <time>2011-07-03T08:34:20Z</time>
      </trkpt>
      <trkpt lat="47.25509" lon="-0.99638">
        <ele>85.7</ele>
        <time>2011-07-03T08:34:29Z</time>
      </trkpt>
      <trkpt lat="47.25508" lon="-0.99621">
        <ele>86</ele>
        <time>2011-07-03T08:34:32Z</time>
      </trkpt>
      <trkpt lat="47.25507" lon="-0.9961">
        <ele>86.1</ele>
        <time>2011-07-03T08:34:34Z</time>
      </trkpt>
      <trkpt lat="47.25508" lon="-0.99593">
        <ele>86.1</ele>
        <time>2011-07-03T08:34:37Z</time>
      </trkpt>
      <trkpt lat="47.25508" lon="-0.99587">
        <ele>86.1</ele>
        <time>2011-07-03T08:34:38Z</time>
      </trkpt>
      <trkpt lat="47.25509" lon="-0.99582">
        <ele>86.2</ele>
        <time>2011-07-03T08:34:39Z</time>
      </trkpt>
      <trkpt lat="47.2551" lon="-0.99577">
        <ele>86.2</ele>
        <time>2011-07-03T08:34:40Z</time>
      </trkpt>
      <trkpt lat="47.25514" lon="-0.99564">
        <ele>87.9</ele>
        <time>2011-07-03T08:34:43Z</time>
      </trkpt>
      <trkpt lat="47.25566" lon="-0.99426">
        <ele>87.5</ele>
        <time>2011-07-03T08:35:11Z</time>
      </trkpt>
      <trkpt lat="47.25628" lon="-0.99141">
        <ele>84.6</ele>
        <time>2011-07-03T08:35:53Z</time>
      </trkpt>
      <trkpt lat="47.2563" lon="-0.99126">
        <ele>85.3</ele>
        <time>2011-07-03T08:35:55Z</time>
      </trkpt>
      <trkpt lat="47.25636" lon="-0.99046">
        <ele>86.9</ele>
        <time>2011-07-03T08:36:06Z</time>
      </trkpt>
      <trkpt lat="47.25637" lon="-0.98996">
        <ele>87.3</ele>
        <time>2011-07-03T08:36:13Z</time>
      </trkpt>
      <trkpt lat="47.25637" lon="-0.98988">
        <ele>87.5</ele>
        <time>2011-07-03T08:36:14Z</time>
      </trkpt>
      <trkpt lat="47.25639" lon="-0.98938">
        <ele>88.4</ele>
        <time>2011-07-03T08:36:21Z</time>
      </trkpt>
      <trkpt lat="47.25669" lon="-0.98775">
        <ele>91.1</ele>
        <time>2011-07-03T08:36:48Z</time>
      </trkpt>
      <trkpt lat="47.25672" lon="-0.98763">
        <ele>91.1</ele>
        <time>2011-07-03T08:36:52Z</time>
      </trkpt>
      <trkpt lat="47.25672" lon="-0.98762">
        <ele>90.9</ele>
        <time>2011-07-03T08:36:53Z</time>
      </trkpt>
      <trkpt lat="47.25672" lon="-0.98761">
        <ele>90.8</ele>
        <time>2011-07-03T08:36:54Z</time>
      </trkpt>
      <trkpt lat="47.25672" lon="-0.98759">
        <ele>91.2</ele>
        <time>2011-07-03T08:36:56Z</time>
      </trkpt>
      <trkpt lat="47.25672" lon="-0.98759">
        <ele>90.9</ele>
        <time>2011-07-03T08:37:00Z</time>
      </trkpt>
      <trkpt lat="47.25673" lon="-0.98758">
        <ele>90.4</ele>
        <time>2011-07-03T08:37:02Z</time>
      </trkpt>
      <trkpt lat="47.25673" lon="-0.98756">
        <ele>90.6</ele>
        <time>2011-07-03T08:37:04Z</time>
      </trkpt>
      <trkpt lat="47.25673" lon="-0.98755">
        <ele>90.8</ele>
        <time>2011-07-03T08:37:05Z</time>
      </trkpt>
      <trkpt lat="47.25674" lon="-0.98751">
        <ele>91.1</ele>
        <time>2011-07-03T08:37:08Z</time>
      </trkpt>
      <trkpt lat="47.25674" lon="-0.9875">
        <ele>91.1</ele>
        <time>2011-07-03T08:37:09Z</time>
      </trkpt>
      <trkpt lat="47.25673" lon="-0.98747">
        <ele>90.9</ele>
        <time>2011-07-03T08:37:12Z</time>
      </trkpt>
      <trkpt lat="47.25672" lon="-0.98745">
        <ele>90.8</ele>
        <time>2011-07-03T08:37:13Z</time>
      </trkpt>
      <trkpt lat="47.25672" lon="-0.98744">
        <ele>90.7</ele>
        <time>2011-07-03T08:37:14Z</time>
      </trkpt>
      <trkpt lat="47.25672" lon="-0.98743">
        <ele>90.6</ele>
        <time>2011-07-03T08:37:15Z</time>
      </trkpt>
      <trkpt lat="47.25672" lon="-0.9874">
        <ele>90</ele>
        <time>2011-07-03T08:37:17Z</time>
      </trkpt>
      <trkpt lat="47.25671" lon="-0.98739">
        <ele>89.5</ele>
        <time>2011-07-03T08:37:18Z</time>
      </trkpt>
      <trkpt lat="47.2567" lon="-0.98736">
        <ele>89.2</ele>
        <time>2011-07-03T08:37:20Z</time>
      </trkpt>
      <trkpt lat="47.2567" lon="-0.98735">
        <ele>89.3</ele>
        <time>2011-07-03T08:37:22Z</time>
      </trkpt>
      <trkpt lat="47.2567" lon="-0.98734">
        <ele>89.3</ele>
        <time>2011-07-03T08:37:23Z</time>
      </trkpt>
      <trkpt lat="47.25671" lon="-0.98733">
        <ele>89.3</ele>
        <time>2011-07-03T08:37:24Z</time>
      </trkpt>
      <trkpt lat="47.25671" lon="-0.98733">
        <ele>89.4</ele>
        <time>2011-07-03T08:37:25Z</time>
      </trkpt>
      <trkpt lat="47.25671" lon="-0.98733">
        <ele>89.3</ele>
        <time>2011-07-03T08:38:29Z</time>
      </trkpt>
      <trkpt lat="47.2567" lon="-0.98733">
        <ele>89.9</ele>
        <time>2011-07-03T08:38:44Z</time>
      </trkpt>
      <trkpt lat="47.2567" lon="-0.98734">
        <ele>90.5</ele>
        <time>2011-07-03T08:39:59Z</time>
      </trkpt>
      <trkpt lat="47.25671" lon="-0.98733">
        <ele>89.4</ele>
        <time>2011-07-03T08:40:07Z</time>
      </trkpt>
      <trkpt lat="47.25676" lon="-0.98727">
        <ele>88.7</ele>
        <time>2011-07-03T08:40:27Z</time>
      </trkpt>
      <trkpt lat="47.25676" lon="-0.98727">
        <ele>88.7</ele>
        <time>2011-07-03T08:40:28Z</time>
      </trkpt>
      <trkpt lat="47.25676" lon="-0.98727">
        <ele>89.1</ele>
        <time>2011-07-03T08:40:29Z</time>
      </trkpt>
      <trkpt lat="47.25676" lon="-0.98728">
        <ele>89.6</ele>
        <time>2011-07-03T08:40:33Z</time>
      </trkpt>
      <trkpt lat="47.25675" lon="-0.98728">
        <ele>90.2</ele>
        <time>2011-07-03T08:40:37Z</time>
      </trkpt>
      <trkpt lat="47.25675" lon="-0.98729">
        <ele>90.3</ele>
        <time>2011-07-03T08:40:39Z</time>
      </trkpt>
      <trkpt lat="47.25674" lon="-0.9873">
        <ele>90.5</ele>
        <time>2011-07-03T08:40:49Z</time>
      </trkpt>
      <trkpt lat="47.25674" lon="-0.98731">
        <ele>90.3</ele>
        <time>2011-07-03T08:40:55Z</time>
      </trkpt>
      <trkpt lat="47.25674" lon="-0.98731">
        <ele>89.9</ele>
        <time>2011-07-03T08:40:58Z</time>
      </trkpt>
      <trkpt lat="47.25673" lon="-0.98732">
        <ele>89.2</ele>
        <time>2011-07-03T08:41:12Z</time>
      </trkpt>
      <trkpt lat="47.25673" lon="-0.98733">
        <ele>89</ele>
        <time>2011-07-03T08:41:26Z</time>
      </trkpt>
      <trkpt lat="47.25673" lon="-0.98734">
        <ele>89.1</ele>
        <time>2011-07-03T08:41:36Z</time>
      </trkpt>
      <trkpt lat="47.25672" lon="-0.98734">
        <ele>89.6</ele>
        <time>2011-07-03T08:41:41Z</time>
      </trkpt>
      <trkpt lat="47.25672" lon="-0.98734">
        <ele>89.5</ele>
        <time>2011-07-03T08:41:57Z</time>
      </trkpt>
      <trkpt lat="47.25672" lon="-0.98734">
        <ele>90.3</ele>
        <time>2011-07-03T08:42:34Z</time>
      </trkpt>
      <trkpt lat="47.25671" lon="-0.98734">
        <ele>88.8</ele>
        <time>2011-07-03T08:43:09Z</time>
      </trkpt>
      <trkpt lat="47.25671" lon="-0.98733">
        <ele>89.2</ele>
        <time>2011-07-03T08:43:17Z</time>
      </trkpt>
      <trkpt lat="47.25671" lon="-0.98732">
        <ele>89.1</ele>
        <time>2011-07-03T08:43:18Z</time>
      </trkpt>
      <trkpt lat="47.25672" lon="-0.98729">
        <ele>89</ele>
        <time>2011-07-03T08:43:20Z</time>
      </trkpt>
      <trkpt lat="47.25673" lon="-0.98727">
        <ele>89.3</ele>
        <time>2011-07-03T08:43:21Z</time>
      </trkpt>
      <trkpt lat="47.25682" lon="-0.98714">
        <ele>88.9</ele>
        <time>2011-07-03T08:43:29Z</time>
      </trkpt>
      <trkpt lat="47.25684" lon="-0.98713">
        <ele>88.9</ele>
        <time>2011-07-03T08:43:30Z</time>
      </trkpt>
      <trkpt lat="47.25686" lon="-0.98713">
        <ele>88.8</ele>
        <time>2011-07-03T08:43:31Z</time>
      </trkpt>
      <trkpt lat="47.25688" lon="-0.98714">
        <ele>88.7</ele>
        <time>2011-07-03T08:43:32Z</time>
      </trkpt>
      <trkpt lat="47.25723" lon="-0.98734">
        <ele>91.1</ele>
        <time>2011-07-03T08:43:46Z</time>
      </trkpt>
      <trkpt lat="47.25726" lon="-0.98736">
        <ele>91.5</ele>
        <time>2011-07-03T08:43:47Z</time>
      </trkpt>
      <trkpt lat="47.25824" lon="-0.98815">
        <ele>93.9</ele>
        <time>2011-07-03T08:44:19Z</time>
      </trkpt>
      <trkpt lat="47.25835" lon="-0.98827">
        <ele>93.8</ele>
        <time>2011-07-03T08:44:22Z</time>
      </trkpt>
      <trkpt lat="47.25979" lon="-0.98999">
        <ele>92.9</ele>
        <time>2011-07-03T08:44:54Z</time>
      </trkpt>
      <trkpt lat="47.25983" lon="-0.99005">
        <ele>93</ele>
        <time>2011-07-03T08:44:55Z</time>
      </trkpt>
      <trkpt lat="47.26084" lon="-0.99125">
        <ele>92.2</ele>
        <time>2011-07-03T08:45:19Z</time>
      </trkpt>
      <trkpt lat="47.26088" lon="-0.99127">
        <ele>91.9</ele>
        <time>2011-07-03T08:45:20Z</time>
      </trkpt>
      <trkpt lat="47.26092" lon="-0.99125">
        <ele>91.6</ele>
        <time>2011-07-03T08:45:21Z</time>
      </trkpt>
      <trkpt lat="47.26093" lon="-0.99122">
        <ele>91.4</ele>
        <time>2011-07-03T08:45:22Z</time>
      </trkpt>
      <trkpt lat="47.26094" lon="-0.9912">
        <ele>91.3</ele>
        <time>2011-07-03T08:45:23Z</time>
      </trkpt>
      <trkpt lat="47.26094" lon="-0.9912">
        <ele>91.1</ele>
        <time>2011-07-03T08:45:24Z</time>
      </trkpt>
      <trkpt lat="47.26094" lon="-0.9912">
        <ele>90.5</ele>
        <time>2011-07-03T08:45:27Z</time>
      </trkpt>
      <trkpt lat="47.26094" lon="-0.9912">
        <ele>89.9</ele>
        <time>2011-07-03T08:45:29Z</time>
      </trkpt>
      <trkpt lat="47.26094" lon="-0.9912">
        <ele>89.8</ele>
        <time>2011-07-03T08:45:50Z</time>
      </trkpt>
      <trkpt lat="47.26094" lon="-0.9912">
        <ele>89.6</ele>
        <time>2011-07-03T08:45:56Z</time>
      </trkpt>
      <trkpt lat="47.26094" lon="-0.9912">
        <ele>88.4</ele>
        <time>2011-07-03T08:46:06Z</time>
      </trkpt>
      <trkpt lat="47.26093" lon="-0.99119">
        <ele>88.9</ele>
        <time>2011-07-03T08:46:17Z</time>
      </trkpt>
      <trkpt lat="47.26093" lon="-0.99119">
        <ele>87.7</ele>
        <time>2011-07-03T08:46:35Z</time>
      </trkpt>
      <trkpt lat="47.26093" lon="-0.9912">
        <ele>88.6</ele>
        <time>2011-07-03T08:46:44Z</time>
      </trkpt>
      <trkpt lat="47.26094" lon="-0.9912">
        <ele>88.7</ele>
        <time>2011-07-03T08:46:45Z</time>
      </trkpt>
      <trkpt lat="47.26094" lon="-0.9912">
        <ele>88.8</ele>
        <time>2011-07-03T08:46:46Z</time>
      </trkpt>
      <trkpt lat="47.26094" lon="-0.9912">
        <ele>88.9</ele>
        <time>2011-07-03T08:46:51Z</time>
      </trkpt>
      <trkpt lat="47.26094" lon="-0.9912">
        <ele>89.4</ele>
        <time>2011-07-03T08:46:54Z</time>
      </trkpt>
      <trkpt lat="47.26094" lon="-0.99121">
        <ele>89.9</ele>
        <time>2011-07-03T08:46:57Z</time>
      </trkpt>
      <trkpt lat="47.26095" lon="-0.99122">
        <ele>90</ele>
        <time>2011-07-03T08:46:58Z</time>
      </trkpt>
      <trkpt lat="47.26094" lon="-0.99123">
        <ele>90</ele>
        <time>2011-07-03T08:46:59Z</time>
      </trkpt>
      <trkpt lat="47.26093" lon="-0.99128">
        <ele>89.7</ele>
        <time>2011-07-03T08:47:01Z</time>
      </trkpt>
      <trkpt lat="47.26092" lon="-0.9913">
        <ele>89.4</ele>
        <time>2011-07-03T08:47:02Z</time>
      </trkpt>
      <trkpt lat="47.26093" lon="-0.99133">
        <ele>89.2</ele>
        <time>2011-07-03T08:47:03Z</time>
      </trkpt>
      <trkpt lat="47.26094" lon="-0.99137">
        <ele>89</ele>
        <time>2011-07-03T08:47:04Z</time>
      </trkpt>
      <trkpt lat="47.26209" lon="-0.99355">
        <ele>84.8</ele>
        <time>2011-07-03T08:47:35Z</time>
      </trkpt>
      <trkpt lat="47.26288" lon="-0.99465">
        <ele>82.2</ele>
        <time>2011-07-03T08:47:51Z</time>
      </trkpt>
      <trkpt lat="47.26374" lon="-0.99632">
        <ele>84.3</ele>
        <time>2011-07-03T08:48:19Z</time>
      </trkpt>
      <trkpt lat="47.26377" lon="-0.99636">
        <ele>84.2</ele>
        <time>2011-07-03T08:48:20Z</time>
      </trkpt>
      <trkpt lat="47.2638" lon="-0.99636">
        <ele>84.4</ele>
        <time>2011-07-03T08:48:21Z</time>
      </trkpt>
      <trkpt lat="47.26382" lon="-0.99634">
        <ele>84.5</ele>
        <time>2011-07-03T08:48:22Z</time>
      </trkpt>
      <trkpt lat="47.26383" lon="-0.99631">
        <ele>84.6</ele>
        <time>2011-07-03T08:48:23Z</time>
      </trkpt>
      <trkpt lat="47.26385" lon="-0.99624">
        <ele>84.6</ele>
        <time>2011-07-03T08:48:25Z</time>
      </trkpt>
      <trkpt lat="47.26387" lon="-0.99621">
        <ele>84.6</ele>
        <time>2011-07-03T08:48:26Z</time>
      </trkpt>
      <trkpt lat="47.26429" lon="-0.99559">
        <ele>86.2</ele>
        <time>2011-07-03T08:48:43Z</time>
      </trkpt>
      <trkpt lat="47.26431" lon="-0.99554">
        <ele>86.3</ele>
        <time>2011-07-03T08:48:44Z</time>
      </trkpt>
      <trkpt lat="47.26433" lon="-0.9955">
        <ele>86.4</ele>
        <time>2011-07-03T08:48:45Z</time>
      </trkpt>
      <trkpt lat="47.26434" lon="-0.99545">
        <ele>86.5</ele>
        <time>2011-07-03T08:48:46Z</time>
      </trkpt>
      <trkpt lat="47.26436" lon="-0.99534">
        <ele>87.1</ele>
        <time>2011-07-03T08:48:48Z</time>
      </trkpt>
      <trkpt lat="47.2645" lon="-0.99445">
        <ele>86.8</ele>
        <time>2011-07-03T08:49:03Z</time>
      </trkpt>
      <trkpt lat="47.26452" lon="-0.9944">
        <ele>86.7</ele>
        <time>2011-07-03T08:49:04Z</time>
      </trkpt>
      <trkpt lat="47.26455" lon="-0.99436">
        <ele>86.6</ele>
        <time>2011-07-03T08:49:05Z</time>
      </trkpt>
      <trkpt lat="47.26544" lon="-0.99335">
        <ele>89</ele>
        <time>2011-07-03T08:49:36Z</time>
      </trkpt>
      <trkpt lat="47.26547" lon="-0.99332">
        <ele>89.2</ele>
        <time>2011-07-03T08:49:37Z</time>
      </trkpt>
      <trkpt lat="47.26559" lon="-0.99311">
        <ele>88.8</ele>
        <time>2011-07-03T08:49:42Z</time>
      </trkpt>
      <trkpt lat="47.26597" lon="-0.99238">
        <ele>88.8</ele>
        <time>2011-07-03T08:49:59Z</time>
      </trkpt>
      <trkpt lat="47.266" lon="-0.99235">
        <ele>88.9</ele>
        <time>2011-07-03T08:50:00Z</time>
      </trkpt>
      <trkpt lat="47.26603" lon="-0.99235">
        <ele>89</ele>
        <time>2011-07-03T08:50:01Z</time>
      </trkpt>
      <trkpt lat="47.26605" lon="-0.99236">
        <ele>89.1</ele>
        <time>2011-07-03T08:50:02Z</time>
      </trkpt>
      <trkpt lat="47.26607" lon="-0.99238">
        <ele>88.5</ele>
        <time>2011-07-03T08:50:03Z</time>
      </trkpt>
      <trkpt lat="47.26618" lon="-0.99252">
        <ele>87.6</ele>
        <time>2011-07-03T08:50:07Z</time>
      </trkpt>
      <trkpt lat="47.26623" lon="-0.99259">
        <ele>87.5</ele>
        <time>2011-07-03T08:50:09Z</time>
      </trkpt>
      <trkpt lat="47.2665" lon="-0.99284">
        <ele>88.9</ele>
        <time>2011-07-03T08:50:16Z</time>
      </trkpt>
      <trkpt lat="47.26692" lon="-0.99317">
        <ele>90.1</ele>
        <time>2011-07-03T08:50:26Z</time>
      </trkpt>
      <trkpt lat="47.2672" lon="-0.99348">
        <ele>92.2</ele>
        <time>2011-07-03T08:50:34Z</time>
      </trkpt>
      <trkpt lat="47.26738" lon="-0.99358">
        <ele>92.4</ele>
        <time>2011-07-03T08:50:38Z</time>
      </trkpt>
      <trkpt lat="47.26746" lon="-0.99365">
        <ele>92.1</ele>
        <time>2011-07-03T08:50:40Z</time>
      </trkpt>
      <trkpt lat="47.26753" lon="-0.99373">
        <ele>92.5</ele>
        <time>2011-07-03T08:50:42Z</time>
      </trkpt>
      <trkpt lat="47.26763" lon="-0.99387">
        <ele>92.6</ele>
        <time>2011-07-03T08:50:45Z</time>
      </trkpt>
      <trkpt lat="47.26821" lon="-0.99476">
        <ele>93.1</ele>
        <time>2011-07-03T08:51:02Z</time>
      </trkpt>
      <trkpt lat="47.26828" lon="-0.99487">
        <ele>93</ele>
        <time>2011-07-03T08:51:04Z</time>
      </trkpt>
      <trkpt lat="47.26832" lon="-0.99492">
        <ele>92.9</ele>
        <time>2011-07-03T08:51:05Z</time>
      </trkpt>
      <trkpt lat="47.26837" lon="-0.99495">
        <ele>92.9</ele>
        <time>2011-07-03T08:51:06Z</time>
      </trkpt>
      <trkpt lat="47.26846" lon="-0.99501">
        <ele>93.3</ele>
        <time>2011-07-03T08:51:08Z</time>
      </trkpt>
      <trkpt lat="47.26852" lon="-0.99503">
        <ele>93.4</ele>
        <time>2011-07-03T08:51:09Z</time>
      </trkpt>
      <trkpt lat="47.2704" lon="-0.99561">
        <ele>91.2</ele>
        <time>2011-07-03T08:51:46Z</time>
      </trkpt>
      <trkpt lat="47.27154" lon="-0.99582">
        <ele>91.9</ele>
        <time>2011-07-03T08:52:11Z</time>
      </trkpt>
      <trkpt lat="47.27158" lon="-0.99582">
        <ele>91.8</ele>
        <time>2011-07-03T08:52:12Z</time>
      </trkpt>
      <trkpt lat="47.27289" lon="-0.99564">
        <ele>91.8</ele>
        <time>2011-07-03T08:52:45Z</time>
      </trkpt>
      <trkpt lat="47.27293" lon="-0.99563">
        <ele>91.7</ele>
        <time>2011-07-03T08:52:46Z</time>
      </trkpt>
      <trkpt lat="47.273" lon="-0.99561">
        <ele>91.6</ele>
        <time>2011-07-03T08:52:48Z</time>
      </trkpt>
      <trkpt lat="47.27304" lon="-0.99561">
        <ele>91.3</ele>
        <time>2011-07-03T08:52:49Z</time>
      </trkpt>
      <trkpt lat="47.27313" lon="-0.9956">
        <ele>91.5</ele>
        <time>2011-07-03T08:52:52Z</time>
      </trkpt>
      <trkpt lat="47.2739" lon="-0.99546">
        <ele>91.6</ele>
        <time>2011-07-03T08:53:13Z</time>
      </trkpt>
      <trkpt lat="47.27398" lon="-0.99546">
        <ele>91.7</ele>
        <time>2011-07-03T08:53:15Z</time>
      </trkpt>
      <trkpt lat="47.27407" lon="-0.99547">
        <ele>91.9</ele>
        <time>2011-07-03T08:53:17Z</time>
      </trkpt>
      <trkpt lat="47.27411" lon="-0.99549">
        <ele>91.8</ele>
        <time>2011-07-03T08:53:18Z</time>
      </trkpt>
      <trkpt lat="47.27414" lon="-0.99551">
        <ele>91.7</ele>
        <time>2011-07-03T08:53:19Z</time>
      </trkpt>
      <trkpt lat="47.27423" lon="-0.9956">
        <ele>90.4</ele>
        <time>2011-07-03T08:53:22Z</time>
      </trkpt>
      <trkpt lat="47.27508" lon="-0.9961">
        <ele>90.9</ele>
        <time>2011-07-03T08:53:41Z</time>
      </trkpt>
      <trkpt lat="47.27556" lon="-0.99633">
        <ele>90</ele>
        <time>2011-07-03T08:53:50Z</time>
      </trkpt>
      <trkpt lat="47.27584" lon="-0.99642">
        <ele>88.6</ele>
        <time>2011-07-03T08:53:55Z</time>
      </trkpt>
      <trkpt lat="47.27588" lon="-0.9964">
        <ele>88.2</ele>
        <time>2011-07-03T08:53:56Z</time>
      </trkpt>
      <trkpt lat="47.27591" lon="-0.99636">
        <ele>88</ele>
        <time>2011-07-03T08:53:57Z</time>
      </trkpt>
      <trkpt lat="47.27612" lon="-0.99604">
        <ele>87.5</ele>
        <time>2011-07-03T08:54:05Z</time>
      </trkpt>
      <trkpt lat="47.27668" lon="-0.99513">
        <ele>89.1</ele>
        <time>2011-07-03T08:54:27Z</time>
      </trkpt>
      <trkpt lat="47.27744" lon="-0.99425">
        <ele>88.7</ele>
        <time>2011-07-03T08:54:52Z</time>
      </trkpt>
      <trkpt lat="47.27747" lon="-0.99422">
        <ele>88.8</ele>
        <time>2011-07-03T08:54:53Z</time>
      </trkpt>
      <trkpt lat="47.27751" lon="-0.99421">
        <ele>88.2</ele>
        <time>2011-07-03T08:54:54Z</time>
      </trkpt>
      <trkpt lat="47.27754" lon="-0.99423">
        <ele>87.9</ele>
        <time>2011-07-03T08:54:55Z</time>
      </trkpt>
      <trkpt lat="47.27757" lon="-0.99426">
        <ele>87.6</ele>
        <time>2011-07-03T08:54:56Z</time>
      </trkpt>
      <trkpt lat="47.27809" lon="-0.99494">
        <ele>85.5</ele>
        <time>2011-07-03T08:55:13Z</time>
      </trkpt>
      <trkpt lat="47.27824" lon="-0.99522">
        <ele>85</ele>
        <time>2011-07-03T08:55:18Z</time>
      </trkpt>
      <trkpt lat="47.27826" lon="-0.99528">
        <ele>84.6</ele>
        <time>2011-07-03T08:55:19Z</time>
      </trkpt>
      <trkpt lat="47.27827" lon="-0.99535">
        <ele>84.4</ele>
        <time>2011-07-03T08:55:20Z</time>
      </trkpt>
      <trkpt lat="47.27827" lon="-0.99542">
        <ele>84.2</ele>
        <time>2011-07-03T08:55:21Z</time>
      </trkpt>
      <trkpt lat="47.27829" lon="-0.99572">
        <ele>84.3</ele>
        <time>2011-07-03T08:55:25Z</time>
      </trkpt>
      <trkpt lat="47.27829" lon="-0.9958">
        <ele>83.9</ele>
        <time>2011-07-03T08:55:26Z</time>
      </trkpt>
      <trkpt lat="47.27828" lon="-0.99587">
        <ele>83.7</ele>
        <time>2011-07-03T08:55:27Z</time>
      </trkpt>
      <trkpt lat="47.27826" lon="-0.99593">
        <ele>83.5</ele>
        <time>2011-07-03T08:55:28Z</time>
      </trkpt>
      <trkpt lat="47.27814" lon="-0.99624">
        <ele>83.1</ele>
        <time>2011-07-03T08:55:33Z</time>
      </trkpt>
      <trkpt lat="47.27812" lon="-0.9963">
        <ele>83</ele>
        <time>2011-07-03T08:55:34Z</time>
      </trkpt>
      <trkpt lat="47.27811" lon="-0.99636">
        <ele>83.2</ele>
        <time>2011-07-03T08:55:35Z</time>
      </trkpt>
      <trkpt lat="47.2781" lon="-0.99656">
        <ele>83.3</ele>
        <time>2011-07-03T08:55:38Z</time>
      </trkpt>
      <trkpt lat="47.27811" lon="-0.99669">
        <ele>83.1</ele>
        <time>2011-07-03T08:55:40Z</time>
      </trkpt>
      <trkpt lat="47.27812" lon="-0.99676">
        <ele>82.8</ele>
        <time>2011-07-03T08:55:41Z</time>
      </trkpt>
      <trkpt lat="47.27814" lon="-0.99683">
        <ele>82.5</ele>
        <time>2011-07-03T08:55:42Z</time>
      </trkpt>
      <trkpt lat="47.27815" lon="-0.9969">
        <ele>82.4</ele>
        <time>2011-07-03T08:55:43Z</time>
      </trkpt>
      <trkpt lat="47.27818" lon="-0.99697">
        <ele>82.2</ele>
        <time>2011-07-03T08:55:44Z</time>
      </trkpt>
      <trkpt lat="47.2782" lon="-0.99703">
        <ele>82.3</ele>
        <time>2011-07-03T08:55:45Z</time>
      </trkpt>
      <trkpt lat="47.27978" lon="-1.00025">
        <ele>83.2</ele>
        <time>2011-07-03T08:56:40Z</time>
      </trkpt>
      <trkpt lat="47.27984" lon="-1.00033">
        <ele>83.4</ele>
        <time>2011-07-03T08:56:42Z</time>
      </trkpt>
      <trkpt lat="47.27994" lon="-1.00043">
        <ele>84</ele>
        <time>2011-07-03T08:56:45Z</time>
      </trkpt>
      <trkpt lat="47.28057" lon="-1.00097">
        <ele>86.2</ele>
        <time>2011-07-03T08:57:03Z</time>
      </trkpt>
      <trkpt lat="47.28074" lon="-1.00108">
        <ele>86.7</ele>
        <time>2011-07-03T08:57:08Z</time>
      </trkpt>
      <trkpt lat="47.28077" lon="-1.00109">
        <ele>86.6</ele>
        <time>2011-07-03T08:57:09Z</time>
      </trkpt>
      <trkpt lat="47.28092" lon="-1.00111">
        <ele>86.5</ele>
        <time>2011-07-03T08:57:13Z</time>
      </trkpt>
      <trkpt lat="47.28096" lon="-1.00113">
        <ele>86.7</ele>
        <time>2011-07-03T08:57:14Z</time>
      </trkpt>
      <trkpt lat="47.281" lon="-1.00115">
        <ele>86.8</ele>
        <time>2011-07-03T08:57:15Z</time>
      </trkpt>
      <trkpt lat="47.28181" lon="-1.0017">
        <ele>84.4</ele>
        <time>2011-07-03T08:57:34Z</time>
      </trkpt>
      <trkpt lat="47.28287" lon="-1.0027">
        <ele>79.5</ele>
        <time>2011-07-03T08:57:56Z</time>
      </trkpt>
      <trkpt lat="47.28347" lon="-1.00352">
        <ele>77.1</ele>
        <time>2011-07-03T08:58:07Z</time>
      </trkpt>
      <trkpt lat="47.28352" lon="-1.0036">
        <ele>76.3</ele>
        <time>2011-07-03T08:58:08Z</time>
      </trkpt>
      <trkpt lat="47.28389" lon="-1.00433">
        <ele>72.3</ele>
        <time>2011-07-03T08:58:16Z</time>
      </trkpt>
      <trkpt lat="47.28393" lon="-1.00443">
        <ele>72</ele>
        <time>2011-07-03T08:58:17Z</time>
      </trkpt>
      <trkpt lat="47.28404" lon="-1.00474">
        <ele>70.4</ele>
        <time>2011-07-03T08:58:20Z</time>
      </trkpt>
      <trkpt lat="47.28418" lon="-1.00532">
        <ele>68.1</ele>
        <time>2011-07-03T08:58:26Z</time>
      </trkpt>
      <trkpt lat="47.28421" lon="-1.00537">
        <ele>67.8</ele>
        <time>2011-07-03T08:58:27Z</time>
      </trkpt>
      <trkpt lat="47.28425" lon="-1.00541">
        <ele>67.5</ele>
        <time>2011-07-03T08:58:28Z</time>
      </trkpt>
      <trkpt lat="47.28448" lon="-1.00561">
        <ele>66.1</ele>
        <time>2011-07-03T08:58:33Z</time>
      </trkpt>
      <trkpt lat="47.28453" lon="-1.00568">
        <ele>65.8</ele>
        <time>2011-07-03T08:58:34Z</time>
      </trkpt>
      <trkpt lat="47.28456" lon="-1.00576">
        <ele>65.5</ele>
        <time>2011-07-03T08:58:35Z</time>
      </trkpt>
      <trkpt lat="47.28459" lon="-1.00585">
        <ele>65.3</ele>
        <time>2011-07-03T08:58:36Z</time>
      </trkpt>
      <trkpt lat="47.28468" lon="-1.00679">
        <ele>60.2</ele>
        <time>2011-07-03T08:58:45Z</time>
      </trkpt>
      <trkpt lat="47.2847" lon="-1.00684">
        <ele>59.8</ele>
        <time>2011-07-03T08:58:46Z</time>
      </trkpt>
      <trkpt lat="47.28473" lon="-1.00688">
        <ele>58.9</ele>
        <time>2011-07-03T08:58:47Z</time>
      </trkpt>
      <trkpt lat="47.28477" lon="-1.0069">
        <ele>58.3</ele>
        <time>2011-07-03T08:58:48Z</time>
      </trkpt>
      <trkpt lat="47.28481" lon="-1.0069">
        <ele>57.8</ele>
        <time>2011-07-03T08:58:49Z</time>
      </trkpt>
      <trkpt lat="47.28485" lon="-1.0069">
        <ele>57.3</ele>
        <time>2011-07-03T08:58:50Z</time>
      </trkpt>
      <trkpt lat="47.2849" lon="-1.0069">
        <ele>57</ele>
        <time>2011-07-03T08:58:51Z</time>
      </trkpt>
      <trkpt lat="47.28552" lon="-1.00662">
        <ele>55.9</ele>
        <time>2011-07-03T08:59:04Z</time>
      </trkpt>
      <trkpt lat="47.28687" lon="-1.00568">
        <ele>54.8</ele>
        <time>2011-07-03T08:59:35Z</time>
      </trkpt>
      <trkpt lat="47.28692" lon="-1.00567">
        <ele>54.5</ele>
        <time>2011-07-03T08:59:36Z</time>
      </trkpt>
      <trkpt lat="47.28709" lon="-1.00566">
        <ele>53</ele>
        <time>2011-07-03T08:59:39Z</time>
      </trkpt>
      <trkpt lat="47.28715" lon="-1.00566">
        <ele>52.7</ele>
        <time>2011-07-03T08:59:40Z</time>
      </trkpt>
      <trkpt lat="47.28721" lon="-1.00568">
        <ele>51.3</ele>
        <time>2011-07-03T08:59:41Z</time>
      </trkpt>
      <trkpt lat="47.28731" lon="-1.00571">
        <ele>49.4</ele>
        <time>2011-07-03T08:59:43Z</time>
      </trkpt>
      <trkpt lat="47.28735" lon="-1.0057">
        <ele>47.8</ele>
        <time>2011-07-03T08:59:44Z</time>
      </trkpt>
      <trkpt lat="47.28778" lon="-1.00557">
        <ele>40</ele>
        <time>2011-07-03T08:59:51Z</time>
      </trkpt>
      <trkpt lat="47.28816" lon="-1.00552">
        <ele>37.3</ele>
        <time>2011-07-03T08:59:56Z</time>
      </trkpt>
      <trkpt lat="47.28835" lon="-1.00551">
        <ele>34.7</ele>
        <time>2011-07-03T08:59:59Z</time>
      </trkpt>
      <trkpt lat="47.2884" lon="-1.00548">
        <ele>33.4</ele>
        <time>2011-07-03T09:00:00Z</time>
      </trkpt>
      <trkpt lat="47.28844" lon="-1.00543">
        <ele>32.3</ele>
        <time>2011-07-03T09:00:01Z</time>
      </trkpt>
      <trkpt lat="47.28846" lon="-1.00536">
        <ele>31.6</ele>
        <time>2011-07-03T09:00:02Z</time>
      </trkpt>
      <trkpt lat="47.28848" lon="-1.00529">
        <ele>30.5</ele>
        <time>2011-07-03T09:00:03Z</time>
      </trkpt>
      <trkpt lat="47.2885" lon="-1.00525">
        <ele>29.6</ele>
        <time>2011-07-03T09:00:04Z</time>
      </trkpt>
      <trkpt lat="47.28852" lon="-1.00521">
        <ele>29</ele>
        <time>2011-07-03T09:00:05Z</time>
      </trkpt>
      <trkpt lat="47.28856" lon="-1.00518">
        <ele>27.3</ele>
        <time>2011-07-03T09:00:07Z</time>
      </trkpt>
      <trkpt lat="47.28858" lon="-1.00516">
        <ele>26.7</ele>
        <time>2011-07-03T09:00:08Z</time>
      </trkpt>
      <trkpt lat="47.28859" lon="-1.00514">
        <ele>26.3</ele>
        <time>2011-07-03T09:00:09Z</time>
      </trkpt>
      <trkpt lat="47.28859" lon="-1.00512">
        <ele>25.6</ele>
        <time>2011-07-03T09:00:10Z</time>
      </trkpt>
      <trkpt lat="47.28859" lon="-1.00509">
        <ele>24.7</ele>
        <time>2011-07-03T09:00:12Z</time>
      </trkpt>
      <trkpt lat="47.28858" lon="-1.00507">
        <ele>24.7</ele>
        <time>2011-07-03T09:00:13Z</time>
      </trkpt>
      <trkpt lat="47.28858" lon="-1.00506">
        <ele>24.7</ele>
        <time>2011-07-03T09:00:14Z</time>
      </trkpt>
      <trkpt lat="47.28856" lon="-1.00505">
        <ele>24.6</ele>
        <time>2011-07-03T09:00:15Z</time>
      </trkpt>
      <trkpt lat="47.28855" lon="-1.00504">
        <ele>24.4</ele>
        <time>2011-07-03T09:00:16Z</time>
      </trkpt>
      <trkpt lat="47.28855" lon="-1.00503">
        <ele>24.2</ele>
        <time>2011-07-03T09:00:17Z</time>
      </trkpt>
      <trkpt lat="47.28854" lon="-1.00503">
        <ele>24.1</ele>
        <time>2011-07-03T09:00:18Z</time>
      </trkpt>
      <trkpt lat="47.28854" lon="-1.00501">
        <ele>24.3</ele>
        <time>2011-07-03T09:00:19Z</time>
      </trkpt>
      <trkpt lat="47.28854" lon="-1.00499">
        <ele>24.5</ele>
        <time>2011-07-03T09:00:20Z</time>
      </trkpt>
      <trkpt lat="47.28853" lon="-1.00497">
        <ele>24.6</ele>
        <time>2011-07-03T09:00:21Z</time>
      </trkpt>
      <trkpt lat="47.28853" lon="-1.00495">
        <ele>24.8</ele>
        <time>2011-07-03T09:00:22Z</time>
      </trkpt>
      <trkpt lat="47.28852" lon="-1.00491">
        <ele>24.9</ele>
        <time>2011-07-03T09:00:23Z</time>
      </trkpt>
      <trkpt lat="47.28851" lon="-1.00487">
        <ele>25</ele>
        <time>2011-07-03T09:00:24Z</time>
      </trkpt>
      <trkpt lat="47.28851" lon="-1.00483">
        <ele>25.1</ele>
        <time>2011-07-03T09:00:25Z</time>
      </trkpt>
      <trkpt lat="47.28852" lon="-1.0048">
        <ele>25.3</ele>
        <time>2011-07-03T09:00:26Z</time>
      </trkpt>
      <trkpt lat="47.28855" lon="-1.0047">
        <ele>25.4</ele>
        <time>2011-07-03T09:00:29Z</time>
      </trkpt>
      <trkpt lat="47.28857" lon="-1.00468">
        <ele>25.3</ele>
        <time>2011-07-03T09:00:30Z</time>
      </trkpt>
      <trkpt lat="47.28859" lon="-1.00465">
        <ele>25.2</ele>
        <time>2011-07-03T09:00:31Z</time>
      </trkpt>
      <trkpt lat="47.28862" lon="-1.00459">
        <ele>25.5</ele>
        <time>2011-07-03T09:00:33Z</time>
      </trkpt>
      <trkpt lat="47.28863" lon="-1.00459">
        <ele>25.5</ele>
        <time>2011-07-03T09:00:34Z</time>
      </trkpt>
      <trkpt lat="47.28864" lon="-1.00458">
        <ele>25.3</ele>
        <time>2011-07-03T09:00:35Z</time>
      </trkpt>
      <trkpt lat="47.28864" lon="-1.00458">
        <ele>25.1</ele>
        <time>2011-07-03T09:00:36Z</time>
      </trkpt>
      <trkpt lat="47.28865" lon="-1.00459">
        <ele>25</ele>
        <time>2011-07-03T09:00:37Z</time>
      </trkpt>
      <trkpt lat="47.28865" lon="-1.00459">
        <ele>24.9</ele>
        <time>2011-07-03T09:00:38Z</time>
      </trkpt>
      <trkpt lat="47.28865" lon="-1.00459">
        <ele>24.9</ele>
        <time>2011-07-03T09:00:39Z</time>
      </trkpt>
      <trkpt lat="47.28865" lon="-1.00459">
        <ele>24.8</ele>
        <time>2011-07-03T09:00:41Z</time>
      </trkpt>
      <trkpt lat="47.28865" lon="-1.00459">
        <ele>24.9</ele>
        <time>2011-07-03T09:00:42Z</time>
      </trkpt>
      <trkpt lat="47.28865" lon="-1.00459">
        <ele>25</ele>
        <time>2011-07-03T09:00:43Z</time>
      </trkpt>
      <trkpt lat="47.28865" lon="-1.0046">
        <ele>25.1</ele>
        <time>2011-07-03T09:00:45Z</time>
      </trkpt>
      <trkpt lat="47.28866" lon="-1.00461">
        <ele>25.2</ele>
        <time>2011-07-03T09:00:46Z</time>
      </trkpt>
      <trkpt lat="47.28866" lon="-1.00461">
        <ele>25.3</ele>
        <time>2011-07-03T09:00:47Z</time>
      </trkpt>
      <trkpt lat="47.28869" lon="-1.00461">
        <ele>25.7</ele>
        <time>2011-07-03T09:00:50Z</time>
      </trkpt>
      <trkpt lat="47.28869" lon="-1.00461">
        <ele>26</ele>
        <time>2011-07-03T09:00:51Z</time>
      </trkpt>
      <trkpt lat="47.28869" lon="-1.00461">
        <ele>26.2</ele>
        <time>2011-07-03T09:00:52Z</time>
      </trkpt>
      <trkpt lat="47.2887" lon="-1.00461">
        <ele>26.4</ele>
        <time>2011-07-03T09:00:53Z</time>
      </trkpt>
      <trkpt lat="47.2887" lon="-1.0046">
        <ele>26.3</ele>
        <time>2011-07-03T09:00:54Z</time>
      </trkpt>
      <trkpt lat="47.2887" lon="-1.0046">
        <ele>26.1</ele>
        <time>2011-07-03T09:00:56Z</time>
      </trkpt>
      <trkpt lat="47.2887" lon="-1.0046">
        <ele>26.2</ele>
        <time>2011-07-03T09:00:57Z</time>
      </trkpt>
      <trkpt lat="47.28871" lon="-1.0046">
        <ele>26.3</ele>
        <time>2011-07-03T09:01:01Z</time>
      </trkpt>
      <trkpt lat="47.2887" lon="-1.0046">
        <ele>26.2</ele>
        <time>2011-07-03T09:01:02Z</time>
      </trkpt>
      <trkpt lat="47.28871" lon="-1.00459">
        <ele>26.2</ele>
        <time>2011-07-03T09:01:03Z</time>
      </trkpt>
      <trkpt lat="47.28871" lon="-1.00459">
        <ele>25.9</ele>
        <time>2011-07-03T09:01:04Z</time>
      </trkpt>
      <trkpt lat="47.28871" lon="-1.00459">
        <ele>25.5</ele>
        <time>2011-07-03T09:01:06Z</time>
      </trkpt>
      <trkpt lat="47.28872" lon="-1.00459">
        <ele>25.1</ele>
        <time>2011-07-03T09:01:13Z</time>
      </trkpt>
      <trkpt lat="47.28872" lon="-1.00459">
        <ele>25.3</ele>
        <time>2011-07-03T09:01:15Z</time>
      </trkpt>
      <trkpt lat="47.28872" lon="-1.0046">
        <ele>25.9</ele>
        <time>2011-07-03T09:01:19Z</time>
      </trkpt>
      <trkpt lat="47.28872" lon="-1.0046">
        <ele>25.5</ele>
        <time>2011-07-03T09:01:22Z</time>
      </trkpt>
      <trkpt lat="47.28873" lon="-1.0046">
        <ele>25.6</ele>
        <time>2011-07-03T09:01:28Z</time>
      </trkpt>
      <trkpt lat="47.28873" lon="-1.00461">
        <ele>25.5</ele>
        <time>2011-07-03T09:01:29Z</time>
      </trkpt>
      <trkpt lat="47.28875" lon="-1.00475">
        <ele>26</ele>
        <time>2011-07-03T09:01:36Z</time>
      </trkpt>
      <trkpt lat="47.28876" lon="-1.00478">
        <ele>26</ele>
        <time>2011-07-03T09:01:37Z</time>
      </trkpt>
      <trkpt lat="47.28883" lon="-1.00495">
        <ele>25.7</ele>
        <time>2011-07-03T09:01:42Z</time>
      </trkpt>
      <trkpt lat="47.28884" lon="-1.00498">
        <ele>25.6</ele>
        <time>2011-07-03T09:01:43Z</time>
      </trkpt>
      <trkpt lat="47.28897" lon="-1.00534">
        <ele>26.1</ele>
        <time>2011-07-03T09:01:53Z</time>
      </trkpt>
      <trkpt lat="47.28897" lon="-1.00537">
        <ele>26.5</ele>
        <time>2011-07-03T09:01:54Z</time>
      </trkpt>
      <trkpt lat="47.28897" lon="-1.00553">
        <ele>26.1</ele>
        <time>2011-07-03T09:01:58Z</time>
      </trkpt>
      <trkpt lat="47.28896" lon="-1.00557">
        <ele>26.2</ele>
        <time>2011-07-03T09:01:59Z</time>
      </trkpt>
      <trkpt lat="47.28894" lon="-1.00568">
        <ele>26.5</ele>
        <time>2011-07-03T09:02:01Z</time>
      </trkpt>
      <trkpt lat="47.28892" lon="-1.00578">
        <ele>26.6</ele>
        <time>2011-07-03T09:02:03Z</time>
      </trkpt>
      <trkpt lat="47.28888" lon="-1.00589">
        <ele>26.5</ele>
        <time>2011-07-03T09:02:05Z</time>
      </trkpt>
      <trkpt lat="47.28886" lon="-1.00594">
        <ele>26.4</ele>
        <time>2011-07-03T09:02:06Z</time>
      </trkpt>
      <trkpt lat="47.28879" lon="-1.00606">
        <ele>26.1</ele>
        <time>2011-07-03T09:02:09Z</time>
      </trkpt>
      <trkpt lat="47.28874" lon="-1.00611">
        <ele>25.9</ele>
        <time>2011-07-03T09:02:11Z</time>
      </trkpt>
      <trkpt lat="47.28843" lon="-1.00627">
        <ele>25.6</ele>
        <time>2011-07-03T09:02:21Z</time>
      </trkpt>
      <trkpt lat="47.28809" lon="-1.00642">
        <ele>25.4</ele>
        <time>2011-07-03T09:02:29Z</time>
      </trkpt>
      <trkpt lat="47.28806" lon="-1.00645">
        <ele>25.4</ele>
        <time>2011-07-03T09:02:30Z</time>
      </trkpt>
      <trkpt lat="47.28792" lon="-1.00662">
        <ele>24.9</ele>
        <time>2011-07-03T09:02:35Z</time>
      </trkpt>
      <trkpt lat="47.28789" lon="-1.00665">
        <ele>24.8</ele>
        <time>2011-07-03T09:02:36Z</time>
      </trkpt>
      <trkpt lat="47.28787" lon="-1.00669">
        <ele>24.6</ele>
        <time>2011-07-03T09:02:37Z</time>
      </trkpt>
      <trkpt lat="47.28785" lon="-1.00673">
        <ele>24.5</ele>
        <time>2011-07-03T09:02:38Z</time>
      </trkpt>
      <trkpt lat="47.2878" lon="-1.00687">
        <ele>24.5</ele>
        <time>2011-07-03T09:02:41Z</time>
      </trkpt>
      <trkpt lat="47.28778" lon="-1.00692">
        <ele>24.5</ele>
        <time>2011-07-03T09:02:42Z</time>
      </trkpt>
      <trkpt lat="47.28776" lon="-1.00713">
        <ele>24.4</ele>
        <time>2011-07-03T09:02:46Z</time>
      </trkpt>
      <trkpt lat="47.2877" lon="-1.00749">
        <ele>24</ele>
        <time>2011-07-03T09:02:53Z</time>
      </trkpt>
      <trkpt lat="47.2877" lon="-1.00755">
        <ele>23.9</ele>
        <time>2011-07-03T09:02:54Z</time>
      </trkpt>
      <trkpt lat="47.2877" lon="-1.0076">
        <ele>23.9</ele>
        <time>2011-07-03T09:02:55Z</time>
      </trkpt>
      <trkpt lat="47.28771" lon="-1.00765">
        <ele>23.8</ele>
        <time>2011-07-03T09:02:56Z</time>
      </trkpt>
      <trkpt lat="47.28781" lon="-1.00811">
        <ele>22.9</ele>
        <time>2011-07-03T09:03:05Z</time>
      </trkpt>
      <trkpt lat="47.28784" lon="-1.00847">
        <ele>21.5</ele>
        <time>2011-07-03T09:03:13Z</time>
      </trkpt>
      <trkpt lat="47.28784" lon="-1.00849">
        <ele>21.4</ele>
        <time>2011-07-03T09:03:14Z</time>
      </trkpt>
      <trkpt lat="47.28785" lon="-1.00852">
        <ele>21.4</ele>
        <time>2011-07-03T09:03:16Z</time>
      </trkpt>
      <trkpt lat="47.28785" lon="-1.00853">
        <ele>21.3</ele>
        <time>2011-07-03T09:03:17Z</time>
      </trkpt>
      <trkpt lat="47.28785" lon="-1.00854">
        <ele>21.2</ele>
        <time>2011-07-03T09:03:18Z</time>
      </trkpt>
      <trkpt lat="47.28785" lon="-1.00856">
        <ele>21.1</ele>
        <time>2011-07-03T09:03:19Z</time>
      </trkpt>
      <trkpt lat="47.28785" lon="-1.0086">
        <ele>21.2</ele>
        <time>2011-07-03T09:03:22Z</time>
      </trkpt>
      <trkpt lat="47.28785" lon="-1.00861">
        <ele>21.3</ele>
        <time>2011-07-03T09:03:23Z</time>
      </trkpt>
      <trkpt lat="47.28785" lon="-1.00862">
        <ele>21.5</ele>
        <time>2011-07-03T09:03:24Z</time>
      </trkpt>
      <trkpt lat="47.28785" lon="-1.00863">
        <ele>21.7</ele>
        <time>2011-07-03T09:03:25Z</time>
      </trkpt>
      <trkpt lat="47.28786" lon="-1.00864">
        <ele>21.9</ele>
        <time>2011-07-03T09:03:26Z</time>
      </trkpt>
      <trkpt lat="47.28786" lon="-1.00865">
        <ele>22</ele>
        <time>2011-07-03T09:03:27Z</time>
      </trkpt>
      <trkpt lat="47.28786" lon="-1.00866">
        <ele>22.3</ele>
        <time>2011-07-03T09:03:28Z</time>
      </trkpt>
      <trkpt lat="47.28786" lon="-1.0087">
        <ele>22.5</ele>
        <time>2011-07-03T09:03:31Z</time>
      </trkpt>
      <trkpt lat="47.28786" lon="-1.00874">
        <ele>22.3</ele>
        <time>2011-07-03T09:03:33Z</time>
      </trkpt>
      <trkpt lat="47.28786" lon="-1.00875">
        <ele>22.8</ele>
        <time>2011-07-03T09:03:34Z</time>
      </trkpt>
      <trkpt lat="47.28787" lon="-1.00876">
        <ele>23.2</ele>
        <time>2011-07-03T09:03:35Z</time>
      </trkpt>
      <trkpt lat="47.28787" lon="-1.00877">
        <ele>23.5</ele>
        <time>2011-07-03T09:03:36Z</time>
      </trkpt>
      <trkpt lat="47.28787" lon="-1.00878">
        <ele>23.5</ele>
        <time>2011-07-03T09:03:37Z</time>
      </trkpt>
      <trkpt lat="47.28786" lon="-1.00879">
        <ele>23.4</ele>
        <time>2011-07-03T09:03:38Z</time>
      </trkpt>
      <trkpt lat="47.28787" lon="-1.0088">
        <ele>23.4</ele>
        <time>2011-07-03T09:03:39Z</time>
      </trkpt>
      <trkpt lat="47.28787" lon="-1.00882">
        <ele>23.9</ele>
        <time>2011-07-03T09:03:40Z</time>
      </trkpt>
      <trkpt lat="47.28787" lon="-1.00893">
        <ele>24.7</ele>
        <time>2011-07-03T09:03:45Z</time>
      </trkpt>
      <trkpt lat="47.28788" lon="-1.00896">
        <ele>25.1</ele>
        <time>2011-07-03T09:03:47Z</time>
      </trkpt>
      <trkpt lat="47.28788" lon="-1.00897">
        <ele>25.6</ele>
        <time>2011-07-03T09:03:49Z</time>
      </trkpt>
      <trkpt lat="47.28788" lon="-1.00899">
        <ele>25.7</ele>
        <time>2011-07-03T09:03:51Z</time>
      </trkpt>
      <trkpt lat="47.28789" lon="-1.00902">
        <ele>26</ele>
        <time>2011-07-03T09:03:53Z</time>
      </trkpt>
      <trkpt lat="47.28789" lon="-1.00903">
        <ele>26.2</ele>
        <time>2011-07-03T09:03:54Z</time>
      </trkpt>
      <trkpt lat="47.28789" lon="-1.00904">
        <ele>26.3</ele>
        <time>2011-07-03T09:03:55Z</time>
      </trkpt>
      <trkpt lat="47.28789" lon="-1.00905">
        <ele>27</ele>
        <time>2011-07-03T09:03:56Z</time>
      </trkpt>
      <trkpt lat="47.2879" lon="-1.00906">
        <ele>27.5</ele>
        <time>2011-07-03T09:03:57Z</time>
      </trkpt>
      <trkpt lat="47.2879" lon="-1.00907">
        <ele>27.8</ele>
        <time>2011-07-03T09:03:58Z</time>
      </trkpt>
      <trkpt lat="47.2879" lon="-1.00908">
        <ele>28.1</ele>
        <time>2011-07-03T09:03:59Z</time>
      </trkpt>
      <trkpt lat="47.2879" lon="-1.00908">
        <ele>28.2</ele>
        <time>2011-07-03T09:04:00Z</time>
      </trkpt>
      <trkpt lat="47.2879" lon="-1.00909">
        <ele>28.4</ele>
        <time>2011-07-03T09:04:01Z</time>
      </trkpt>
      <trkpt lat="47.2879" lon="-1.00912">
        <ele>28.4</ele>
        <time>2011-07-03T09:04:03Z</time>
      </trkpt>
      <trkpt lat="47.2879" lon="-1.00913">
        <ele>28.4</ele>
        <time>2011-07-03T09:04:04Z</time>
      </trkpt>
      <trkpt lat="47.2879" lon="-1.00913">
        <ele>28.4</ele>
        <time>2011-07-03T09:04:05Z</time>
      </trkpt>
      <trkpt lat="47.2879" lon="-1.00914">
        <ele>28.4</ele>
        <time>2011-07-03T09:04:07Z</time>
      </trkpt>
      <trkpt lat="47.2879" lon="-1.00917">
        <ele>27.4</ele>
        <time>2011-07-03T09:04:11Z</time>
      </trkpt>
      <trkpt lat="47.2879" lon="-1.00919">
        <ele>27.8</ele>
        <time>2011-07-03T09:04:12Z</time>
      </trkpt>
      <trkpt lat="47.2879" lon="-1.00921">
        <ele>28.1</ele>
        <time>2011-07-03T09:04:13Z</time>
      </trkpt>
      <trkpt lat="47.2879" lon="-1.00922">
        <ele>28.3</ele>
        <time>2011-07-03T09:04:14Z</time>
      </trkpt>
      <trkpt lat="47.2879" lon="-1.00924">
        <ele>28.6</ele>
        <time>2011-07-03T09:04:15Z</time>
      </trkpt>
      <trkpt lat="47.2879" lon="-1.00926">
        <ele>28.8</ele>
        <time>2011-07-03T09:04:16Z</time>
      </trkpt>
      <trkpt lat="47.28786" lon="-1.00942">
        <ele>30.8</ele>
        <time>2011-07-03T09:04:24Z</time>
      </trkpt>
      <trkpt lat="47.28786" lon="-1.00943">
        <ele>31.3</ele>
        <time>2011-07-03T09:04:25Z</time>
      </trkpt>
      <trkpt lat="47.28785" lon="-1.00944">
        <ele>31.7</ele>
        <time>2011-07-03T09:04:26Z</time>
      </trkpt>
      <trkpt lat="47.28785" lon="-1.00944">
        <ele>32</ele>
        <time>2011-07-03T09:04:27Z</time>
      </trkpt>
      <trkpt lat="47.28784" lon="-1.00944">
        <ele>32.9</ele>
        <time>2011-07-03T09:04:29Z</time>
      </trkpt>
      <trkpt lat="47.28783" lon="-1.00945">
        <ele>33.5</ele>
        <time>2011-07-03T09:04:31Z</time>
      </trkpt>
      <trkpt lat="47.28782" lon="-1.00945">
        <ele>33.7</ele>
        <time>2011-07-03T09:04:32Z</time>
      </trkpt>
      <trkpt lat="47.28781" lon="-1.00945">
        <ele>34</ele>
        <time>2011-07-03T09:04:34Z</time>
      </trkpt>
      <trkpt lat="47.2878" lon="-1.00946">
        <ele>34.1</ele>
        <time>2011-07-03T09:04:35Z</time>
      </trkpt>
      <trkpt lat="47.28779" lon="-1.00947">
        <ele>34.2</ele>
        <time>2011-07-03T09:04:36Z</time>
      </trkpt>
      <trkpt lat="47.28778" lon="-1.00948">
        <ele>34.3</ele>
        <time>2011-07-03T09:04:37Z</time>
      </trkpt>
      <trkpt lat="47.28777" lon="-1.0095">
        <ele>34.4</ele>
        <time>2011-07-03T09:04:38Z</time>
      </trkpt>
      <trkpt lat="47.28776" lon="-1.00952">
        <ele>34.4</ele>
        <time>2011-07-03T09:04:39Z</time>
      </trkpt>
      <trkpt lat="47.28776" lon="-1.00955">
        <ele>34.5</ele>
        <time>2011-07-03T09:04:40Z</time>
      </trkpt>
      <trkpt lat="47.28776" lon="-1.00957">
        <ele>34.5</ele>
        <time>2011-07-03T09:04:41Z</time>
      </trkpt>
      <trkpt lat="47.28776" lon="-1.00959">
        <ele>34.5</ele>
        <time>2011-07-03T09:04:42Z</time>
      </trkpt>
      <trkpt lat="47.28779" lon="-1.00965">
        <ele>35</ele>
        <time>2011-07-03T09:04:45Z</time>
      </trkpt>
      <trkpt lat="47.28782" lon="-1.00985">
        <ele>35.8</ele>
        <time>2011-07-03T09:04:52Z</time>
      </trkpt>
      <trkpt lat="47.28783" lon="-1.00997">
        <ele>36</ele>
        <time>2011-07-03T09:04:54Z</time>
      </trkpt>
      <trkpt lat="47.28784" lon="-1.01004">
        <ele>36</ele>
        <time>2011-07-03T09:04:55Z</time>
      </trkpt>
      <trkpt lat="47.288" lon="-1.01069">
        <ele>29.9</ele>
        <time>2011-07-03T09:05:04Z</time>
      </trkpt>
      <trkpt lat="47.28802" lon="-1.01075">
        <ele>27.3</ele>
        <time>2011-07-03T09:05:07Z</time>
      </trkpt>
      <trkpt lat="47.28802" lon="-1.01077">
        <ele>26.8</ele>
        <time>2011-07-03T09:05:08Z</time>
      </trkpt>
      <trkpt lat="47.28802" lon="-1.01081">
        <ele>26.3</ele>
        <time>2011-07-03T09:05:09Z</time>
      </trkpt>
      <trkpt lat="47.28802" lon="-1.01084">
        <ele>26.3</ele>
        <time>2011-07-03T09:05:10Z</time>
      </trkpt>
      <trkpt lat="47.28808" lon="-1.01108">
        <ele>25.1</ele>
        <time>2011-07-03T09:05:15Z</time>
      </trkpt>
      <trkpt lat="47.28811" lon="-1.01116">
        <ele>24</ele>
        <time>2011-07-03T09:05:17Z</time>
      </trkpt>
      <trkpt lat="47.28812" lon="-1.01119">
        <ele>23.7</ele>
        <time>2011-07-03T09:05:18Z</time>
      </trkpt>
      <trkpt lat="47.28813" lon="-1.01125">
        <ele>22.4</ele>
        <time>2011-07-03T09:05:20Z</time>
      </trkpt>
      <trkpt lat="47.28813" lon="-1.01127">
        <ele>22</ele>
        <time>2011-07-03T09:05:21Z</time>
      </trkpt>
      <trkpt lat="47.28815" lon="-1.01131">
        <ele>21.8</ele>
        <time>2011-07-03T09:05:23Z</time>
      </trkpt>
      <trkpt lat="47.28816" lon="-1.01137">
        <ele>21.7</ele>
        <time>2011-07-03T09:05:25Z</time>
      </trkpt>
      <trkpt lat="47.28818" lon="-1.01148">
        <ele>21</ele>
        <time>2011-07-03T09:05:28Z</time>
      </trkpt>
      <trkpt lat="47.2882" lon="-1.01151">
        <ele>20.8</ele>
        <time>2011-07-03T09:05:29Z</time>
      </trkpt>
      <trkpt lat="47.28821" lon="-1.01154">
        <ele>20.6</ele>
        <time>2011-07-03T09:05:30Z</time>
      </trkpt>
      <trkpt lat="47.2883" lon="-1.01166">
        <ele>20.3</ele>
        <time>2011-07-03T09:05:34Z</time>
      </trkpt>
      <trkpt lat="47.28831" lon="-1.01169">
        <ele>20.2</ele>
        <time>2011-07-03T09:05:35Z</time>
      </trkpt>
      <trkpt lat="47.28834" lon="-1.01176">
        <ele>20.2</ele>
        <time>2011-07-03T09:05:37Z</time>
      </trkpt>
      <trkpt lat="47.28836" lon="-1.0118">
        <ele>20.1</ele>
        <time>2011-07-03T09:05:38Z</time>
      </trkpt>
      <trkpt lat="47.28846" lon="-1.01217">
        <ele>20.7</ele>
        <time>2011-07-03T09:05:46Z</time>
      </trkpt>
      <trkpt lat="47.28859" lon="-1.01252">
        <ele>20.3</ele>
        <time>2011-07-03T09:05:54Z</time>
      </trkpt>
      <trkpt lat="47.28862" lon="-1.01256">
        <ele>20.2</ele>
        <time>2011-07-03T09:05:55Z</time>
      </trkpt>
      <trkpt lat="47.28864" lon="-1.01259">
        <ele>20.2</ele>
        <time>2011-07-03T09:05:56Z</time>
      </trkpt>
      <trkpt lat="47.28866" lon="-1.01262">
        <ele>20.3</ele>
        <time>2011-07-03T09:05:57Z</time>
      </trkpt>
      <trkpt lat="47.28868" lon="-1.01265">
        <ele>20.4</ele>
        <time>2011-07-03T09:05:58Z</time>
      </trkpt>
      <trkpt lat="47.28873" lon="-1.01276">
        <ele>20.6</ele>
        <time>2011-07-03T09:06:01Z</time>
      </trkpt>
      <trkpt lat="47.28877" lon="-1.01294">
        <ele>20.7</ele>
        <time>2011-07-03T09:06:05Z</time>
      </trkpt>
      <trkpt lat="47.28884" lon="-1.01334">
        <ele>20.6</ele>
        <time>2011-07-03T09:06:12Z</time>
      </trkpt>
      <trkpt lat="47.28892" lon="-1.01354">
        <ele>20.9</ele>
        <time>2011-07-03T09:06:16Z</time>
      </trkpt>
      <trkpt lat="47.28912" lon="-1.01397">
        <ele>20.9</ele>
        <time>2011-07-03T09:06:26Z</time>
      </trkpt>
      <trkpt lat="47.28926" lon="-1.01444">
        <ele>20.6</ele>
        <time>2011-07-03T09:06:35Z</time>
      </trkpt>
      <trkpt lat="47.28944" lon="-1.01476">
        <ele>20.6</ele>
        <time>2011-07-03T09:06:41Z</time>
      </trkpt>
      <trkpt lat="47.28948" lon="-1.01481">
        <ele>20.6</ele>
        <time>2011-07-03T09:06:42Z</time>
      </trkpt>
      <trkpt lat="47.29007" lon="-1.0154">
        <ele>20.8</ele>
        <time>2011-07-03T09:06:58Z</time>
      </trkpt>
      <trkpt lat="47.29012" lon="-1.01543">
        <ele>20.8</ele>
        <time>2011-07-03T09:06:59Z</time>
      </trkpt>
      <trkpt lat="47.29017" lon="-1.01545">
        <ele>20.8</ele>
        <time>2011-07-03T09:07:00Z</time>
      </trkpt>
      <trkpt lat="47.29022" lon="-1.01547">
        <ele>20.5</ele>
        <time>2011-07-03T09:07:01Z</time>
      </trkpt>
      <trkpt lat="47.29031" lon="-1.01548">
        <ele>20.2</ele>
        <time>2011-07-03T09:07:03Z</time>
      </trkpt>
      <trkpt lat="47.29055" lon="-1.01568">
        <ele>20.4</ele>
        <time>2011-07-03T09:07:10Z</time>
      </trkpt>
      <trkpt lat="47.29057" lon="-1.01569">
        <ele>20.2</ele>
        <time>2011-07-03T09:07:11Z</time>
      </trkpt>
      <trkpt lat="47.2906" lon="-1.01569">
        <ele>19.8</ele>
        <time>2011-07-03T09:07:13Z</time>
      </trkpt>
      <trkpt lat="47.29061" lon="-1.0157">
        <ele>19.5</ele>
        <time>2011-07-03T09:07:14Z</time>
      </trkpt>
      <trkpt lat="47.29061" lon="-1.01571">
        <ele>19.2</ele>
        <time>2011-07-03T09:07:16Z</time>
      </trkpt>
      <trkpt lat="47.29062" lon="-1.01571">
        <ele>19</ele>
        <time>2011-07-03T09:07:17Z</time>
      </trkpt>
      <trkpt lat="47.29062" lon="-1.01571">
        <ele>18.9</ele>
        <time>2011-07-03T09:07:18Z</time>
      </trkpt>
      <trkpt lat="47.29063" lon="-1.01572">
        <ele>18.7</ele>
        <time>2011-07-03T09:07:19Z</time>
      </trkpt>
      <trkpt lat="47.29064" lon="-1.01575">
        <ele>19</ele>
        <time>2011-07-03T09:07:21Z</time>
      </trkpt>
      <trkpt lat="47.29067" lon="-1.01577">
        <ele>19.2</ele>
        <time>2011-07-03T09:07:24Z</time>
      </trkpt>
      <trkpt lat="47.29067" lon="-1.01578">
        <ele>19.3</ele>
        <time>2011-07-03T09:07:26Z</time>
      </trkpt>
      <trkpt lat="47.29068" lon="-1.0158">
        <ele>19</ele>
        <time>2011-07-03T09:07:27Z</time>
      </trkpt>
      <trkpt lat="47.29069" lon="-1.01581">
        <ele>18.7</ele>
        <time>2011-07-03T09:07:28Z</time>
      </trkpt>
      <trkpt lat="47.2907" lon="-1.01582">
        <ele>18.5</ele>
        <time>2011-07-03T09:07:29Z</time>
      </trkpt>
      <trkpt lat="47.29083" lon="-1.01593">
        <ele>19.1</ele>
        <time>2011-07-03T09:07:36Z</time>
      </trkpt>
      <trkpt lat="47.29085" lon="-1.01594">
        <ele>19.6</ele>
        <time>2011-07-03T09:07:38Z</time>
      </trkpt>
      <trkpt lat="47.29085" lon="-1.01595">
        <ele>19.4</ele>
        <time>2011-07-03T09:07:40Z</time>
      </trkpt>
      <trkpt lat="47.29085" lon="-1.01595">
        <ele>19.1</ele>
        <time>2011-07-03T09:07:41Z</time>
      </trkpt>
      <trkpt lat="47.29085" lon="-1.01595">
        <ele>18.9</ele>
        <time>2011-07-03T09:07:42Z</time>
      </trkpt>
      <trkpt lat="47.29085" lon="-1.01596">
        <ele>19.1</ele>
        <time>2011-07-03T09:07:43Z</time>
      </trkpt>
      <trkpt lat="47.29085" lon="-1.01596">
        <ele>19.3</ele>
        <time>2011-07-03T09:07:45Z</time>
      </trkpt>
      <trkpt lat="47.29086" lon="-1.01596">
        <ele>19</ele>
        <time>2011-07-03T09:07:46Z</time>
      </trkpt>
      <trkpt lat="47.29086" lon="-1.01596">
        <ele>18.8</ele>
        <time>2011-07-03T09:07:47Z</time>
      </trkpt>
      <trkpt lat="47.29086" lon="-1.01597">
        <ele>19</ele>
        <time>2011-07-03T09:07:50Z</time>
      </trkpt>
      <trkpt lat="47.29086" lon="-1.01597">
        <ele>19.1</ele>
        <time>2011-07-03T09:07:51Z</time>
      </trkpt>
      <trkpt lat="47.29086" lon="-1.01598">
        <ele>19.6</ele>
        <time>2011-07-03T09:07:55Z</time>
      </trkpt>
      <trkpt lat="47.29087" lon="-1.01598">
        <ele>18.8</ele>
        <time>2011-07-03T09:07:57Z</time>
      </trkpt>
      <trkpt lat="47.29088" lon="-1.01599">
        <ele>19.1</ele>
        <time>2011-07-03T09:08:03Z</time>
      </trkpt>
      <trkpt lat="47.29106" lon="-1.01615">
        <ele>18.8</ele>
        <time>2011-07-03T09:08:11Z</time>
      </trkpt>
      <trkpt lat="47.29144" lon="-1.01636">
        <ele>19.5</ele>
        <time>2011-07-03T09:08:20Z</time>
      </trkpt>
      <trkpt lat="47.29147" lon="-1.01638">
        <ele>19.7</ele>
        <time>2011-07-03T09:08:21Z</time>
      </trkpt>
      <trkpt lat="47.29151" lon="-1.01642">
        <ele>19.8</ele>
        <time>2011-07-03T09:08:22Z</time>
      </trkpt>
      <trkpt lat="47.29167" lon="-1.0166">
        <ele>19.8</ele>
        <time>2011-07-03T09:08:26Z</time>
      </trkpt>
      <trkpt lat="47.29194" lon="-1.01699">
        <ele>20.1</ele>
        <time>2011-07-03T09:08:34Z</time>
      </trkpt>
      <trkpt lat="47.29196" lon="-1.01704">
        <ele>20</ele>
        <time>2011-07-03T09:08:35Z</time>
      </trkpt>
      <trkpt lat="47.29198" lon="-1.0171">
        <ele>19.9</ele>
        <time>2011-07-03T09:08:36Z</time>
      </trkpt>
      <trkpt lat="47.29199" lon="-1.01716">
        <ele>19.9</ele>
        <time>2011-07-03T09:08:37Z</time>
      </trkpt>
      <trkpt lat="47.29202" lon="-1.01734">
        <ele>19.9</ele>
        <time>2011-07-03T09:08:40Z</time>
      </trkpt>
      <trkpt lat="47.29202" lon="-1.01739">
        <ele>19.9</ele>
        <time>2011-07-03T09:08:41Z</time>
      </trkpt>
      <trkpt lat="47.29203" lon="-1.01775">
        <ele>20.5</ele>
        <time>2011-07-03T09:08:48Z</time>
      </trkpt>
      <trkpt lat="47.29203" lon="-1.01801">
        <ele>20.2</ele>
        <time>2011-07-03T09:08:53Z</time>
      </trkpt>
      <trkpt lat="47.29214" lon="-1.01888">
        <ele>23.1</ele>
        <time>2011-07-03T09:09:09Z</time>
      </trkpt>
      <trkpt lat="47.29214" lon="-1.01894">
        <ele>23.4</ele>
        <time>2011-07-03T09:09:10Z</time>
      </trkpt>
      <trkpt lat="47.29213" lon="-1.01943">
        <ele>23.1</ele>
        <time>2011-07-03T09:09:19Z</time>
      </trkpt>
      <trkpt lat="47.29219" lon="-1.01993">
        <ele>23.2</ele>
        <time>2011-07-03T09:09:27Z</time>
      </trkpt>
      <trkpt lat="47.29224" lon="-1.02015">
        <ele>22.3</ele>
        <time>2011-07-03T09:09:31Z</time>
      </trkpt>
      <trkpt lat="47.29226" lon="-1.02026">
        <ele>22.3</ele>
        <time>2011-07-03T09:09:33Z</time>
      </trkpt>
      <trkpt lat="47.29228" lon="-1.0203">
        <ele>22.4</ele>
        <time>2011-07-03T09:09:34Z</time>
      </trkpt>
      <trkpt lat="47.29231" lon="-1.02037">
        <ele>22.7</ele>
        <time>2011-07-03T09:09:36Z</time>
      </trkpt>
      <trkpt lat="47.29232" lon="-1.0204">
        <ele>22.8</ele>
        <time>2011-07-03T09:09:37Z</time>
      </trkpt>
      <trkpt lat="47.29235" lon="-1.02045">
        <ele>22.6</ele>
        <time>2011-07-03T09:09:39Z</time>
      </trkpt>
      <trkpt lat="47.29237" lon="-1.02047">
        <ele>22.6</ele>
        <time>2011-07-03T09:09:40Z</time>
      </trkpt>
      <trkpt lat="47.29239" lon="-1.02049">
        <ele>22.9</ele>
        <time>2011-07-03T09:09:41Z</time>
      </trkpt>
      <trkpt lat="47.29262" lon="-1.02061">
        <ele>26.1</ele>
        <time>2011-07-03T09:09:53Z</time>
      </trkpt>
      <trkpt lat="47.29268" lon="-1.02062">
        <ele>26.5</ele>
        <time>2011-07-03T09:09:56Z</time>
      </trkpt>
      <trkpt lat="47.29269" lon="-1.02062">
        <ele>26.9</ele>
        <time>2011-07-03T09:09:57Z</time>
      </trkpt>
      <trkpt lat="47.29271" lon="-1.02061">
        <ele>27.2</ele>
        <time>2011-07-03T09:09:58Z</time>
      </trkpt>
      <trkpt lat="47.29275" lon="-1.02057">
        <ele>27.6</ele>
        <time>2011-07-03T09:10:00Z</time>
      </trkpt>
      <trkpt lat="47.2932" lon="-1.01984">
        <ele>29.6</ele>
        <time>2011-07-03T09:10:20Z</time>
      </trkpt>
      <trkpt lat="47.29323" lon="-1.01982">
        <ele>29.6</ele>
        <time>2011-07-03T09:10:21Z</time>
      </trkpt>
      <trkpt lat="47.29326" lon="-1.01979">
        <ele>29.8</ele>
        <time>2011-07-03T09:10:22Z</time>
      </trkpt>
      <trkpt lat="47.29339" lon="-1.0197">
        <ele>30.7</ele>
        <time>2011-07-03T09:10:26Z</time>
      </trkpt>
      <trkpt lat="47.29342" lon="-1.0197">
        <ele>31.1</ele>
        <time>2011-07-03T09:10:27Z</time>
      </trkpt>
      <trkpt lat="47.29345" lon="-1.01973">
        <ele>31.4</ele>
        <time>2011-07-03T09:10:28Z</time>
      </trkpt>
      <trkpt lat="47.29347" lon="-1.01977">
        <ele>31.5</ele>
        <time>2011-07-03T09:10:29Z</time>
      </trkpt>
      <trkpt lat="47.29347" lon="-1.01982">
        <ele>31.5</ele>
        <time>2011-07-03T09:10:30Z</time>
      </trkpt>
      <trkpt lat="47.29348" lon="-1.01988">
        <ele>31.5</ele>
        <time>2011-07-03T09:10:31Z</time>
      </trkpt>
      <trkpt lat="47.29347" lon="-1.01993">
        <ele>31.5</ele>
        <time>2011-07-03T09:10:32Z</time>
      </trkpt>
      <trkpt lat="47.29346" lon="-1.01998">
        <ele>31.5</ele>
        <time>2011-07-03T09:10:33Z</time>
      </trkpt>
      <trkpt lat="47.29345" lon="-1.02003">
        <ele>31.5</ele>
        <time>2011-07-03T09:10:34Z</time>
      </trkpt>
      <trkpt lat="47.29343" lon="-1.02007">
        <ele>31.4</ele>
        <time>2011-07-03T09:10:35Z</time>
      </trkpt>
      <trkpt lat="47.2932" lon="-1.02053">
        <ele>28.7</ele>
        <time>2011-07-03T09:10:42Z</time>
      </trkpt>
      <trkpt lat="47.29317" lon="-1.02061">
        <ele>28.3</ele>
        <time>2011-07-03T09:10:43Z</time>
      </trkpt>
      <trkpt lat="47.29317" lon="-1.0207">
        <ele>28</ele>
        <time>2011-07-03T09:10:44Z</time>
      </trkpt>
      <trkpt lat="47.29318" lon="-1.02084">
        <ele>27.1</ele>
        <time>2011-07-03T09:10:46Z</time>
      </trkpt>
      <trkpt lat="47.29317" lon="-1.02089">
        <ele>26.8</ele>
        <time>2011-07-03T09:10:47Z</time>
      </trkpt>
      <trkpt lat="47.29316" lon="-1.02094">
        <ele>26.2</ele>
        <time>2011-07-03T09:10:48Z</time>
      </trkpt>
      <trkpt lat="47.29311" lon="-1.02129">
        <ele>24.5</ele>
        <time>2011-07-03T09:10:54Z</time>
      </trkpt>
      <trkpt lat="47.2931" lon="-1.02135">
        <ele>24.3</ele>
        <time>2011-07-03T09:10:55Z</time>
      </trkpt>
      <trkpt lat="47.29311" lon="-1.0214">
        <ele>24.2</ele>
        <time>2011-07-03T09:10:56Z</time>
      </trkpt>
      <trkpt lat="47.29313" lon="-1.02144">
        <ele>24.1</ele>
        <time>2011-07-03T09:10:57Z</time>
      </trkpt>
      <trkpt lat="47.29317" lon="-1.02149">
        <ele>23.6</ele>
        <time>2011-07-03T09:10:58Z</time>
      </trkpt>
      <trkpt lat="47.29428" lon="-1.0227">
        <ele>19.1</ele>
        <time>2011-07-03T09:11:24Z</time>
      </trkpt>
      <trkpt lat="47.29432" lon="-1.02273">
        <ele>19.2</ele>
        <time>2011-07-03T09:11:25Z</time>
      </trkpt>
      <trkpt lat="47.29483" lon="-1.02316">
        <ele>19.3</ele>
        <time>2011-07-03T09:11:37Z</time>
      </trkpt>
      <trkpt lat="47.29517" lon="-1.02355">
        <ele>17.6</ele>
        <time>2011-07-03T09:11:45Z</time>
      </trkpt>
      <trkpt lat="47.2952" lon="-1.02357">
        <ele>17.5</ele>
        <time>2011-07-03T09:11:46Z</time>
      </trkpt>
      <trkpt lat="47.29568" lon="-1.02393">
        <ele>22.3</ele>
        <time>2011-07-03T09:12:12Z</time>
      </trkpt>
      <trkpt lat="47.29574" lon="-1.02396">
        <ele>23.3</ele>
        <time>2011-07-03T09:12:15Z</time>
      </trkpt>
      <trkpt lat="47.29577" lon="-1.02398">
        <ele>23.8</ele>
        <time>2011-07-03T09:12:17Z</time>
      </trkpt>
      <trkpt lat="47.29579" lon="-1.02398">
        <ele>24</ele>
        <time>2011-07-03T09:12:18Z</time>
      </trkpt>
      <trkpt lat="47.29581" lon="-1.02398">
        <ele>24.1</ele>
        <time>2011-07-03T09:12:19Z</time>
      </trkpt>
      <trkpt lat="47.29588" lon="-1.02398">
        <ele>24.3</ele>
        <time>2011-07-03T09:12:22Z</time>
      </trkpt>
      <trkpt lat="47.2959" lon="-1.02397">
        <ele>24.4</ele>
        <time>2011-07-03T09:12:23Z</time>
      </trkpt>
      <trkpt lat="47.29592" lon="-1.02396">
        <ele>24.2</ele>
        <time>2011-07-03T09:12:24Z</time>
      </trkpt>
      <trkpt lat="47.29596" lon="-1.02393">
        <ele>24</ele>
        <time>2011-07-03T09:12:26Z</time>
      </trkpt>
      <trkpt lat="47.29597" lon="-1.02391">
        <ele>24.2</ele>
        <time>2011-07-03T09:12:27Z</time>
      </trkpt>
      <trkpt lat="47.29599" lon="-1.02389">
        <ele>24.4</ele>
        <time>2011-07-03T09:12:28Z</time>
      </trkpt>
      <trkpt lat="47.29603" lon="-1.02382">
        <ele>25.2</ele>
        <time>2011-07-03T09:12:31Z</time>
      </trkpt>
      <trkpt lat="47.29606" lon="-1.02377">
        <ele>25.8</ele>
        <time>2011-07-03T09:12:33Z</time>
      </trkpt>
      <trkpt lat="47.29608" lon="-1.02371">
        <ele>26.7</ele>
        <time>2011-07-03T09:12:36Z</time>
      </trkpt>
      <trkpt lat="47.29614" lon="-1.02361">
        <ele>27.2</ele>
        <time>2011-07-03T09:12:42Z</time>
      </trkpt>
      <trkpt lat="47.29618" lon="-1.02355">
        <ele>27.9</ele>
        <time>2011-07-03T09:12:46Z</time>
      </trkpt>
      <trkpt lat="47.29619" lon="-1.02354">
        <ele>28.1</ele>
        <time>2011-07-03T09:12:47Z</time>
      </trkpt>
      <trkpt lat="47.29619" lon="-1.02352">
        <ele>28.3</ele>
        <time>2011-07-03T09:12:48Z</time>
      </trkpt>
      <trkpt lat="47.29623" lon="-1.02343">
        <ele>29.2</ele>
        <time>2011-07-03T09:12:53Z</time>
      </trkpt>
      <trkpt lat="47.29633" lon="-1.02328">
        <ele>30.9</ele>
        <time>2011-07-03T09:13:03Z</time>
      </trkpt>
      <trkpt lat="47.29645" lon="-1.02301">
        <ele>35</ele>
        <time>2011-07-03T09:13:18Z</time>
      </trkpt>
      <trkpt lat="47.29652" lon="-1.02287">
        <ele>36.2</ele>
        <time>2011-07-03T09:13:26Z</time>
      </trkpt>
      <trkpt lat="47.29655" lon="-1.02283">
        <ele>36.4</ele>
        <time>2011-07-03T09:13:29Z</time>
      </trkpt>
      <trkpt lat="47.2966" lon="-1.02274">
        <ele>37.2</ele>
        <time>2011-07-03T09:13:35Z</time>
      </trkpt>
      <trkpt lat="47.29662" lon="-1.02272">
        <ele>37.3</ele>
        <time>2011-07-03T09:13:36Z</time>
      </trkpt>
      <trkpt lat="47.29667" lon="-1.02264">
        <ele>39.1</ele>
        <time>2011-07-03T09:13:42Z</time>
      </trkpt>
      <trkpt lat="47.29671" lon="-1.02258">
        <ele>40.1</ele>
        <time>2011-07-03T09:13:46Z</time>
      </trkpt>
      <trkpt lat="47.29672" lon="-1.02257">
        <ele>40.2</ele>
        <time>2011-07-03T09:13:47Z</time>
      </trkpt>
      <trkpt lat="47.29701" lon="-1.02222">
        <ele>44.5</ele>
        <time>2011-07-03T09:14:14Z</time>
      </trkpt>
      <trkpt lat="47.29703" lon="-1.0222">
        <ele>45</ele>
        <time>2011-07-03T09:14:16Z</time>
      </trkpt>
      <trkpt lat="47.29705" lon="-1.02219">
        <ele>45.2</ele>
        <time>2011-07-03T09:14:17Z</time>
      </trkpt>
      <trkpt lat="47.29708" lon="-1.02217">
        <ele>45.5</ele>
        <time>2011-07-03T09:14:20Z</time>
      </trkpt>
      <trkpt lat="47.29724" lon="-1.02211">
        <ele>46.6</ele>
        <time>2011-07-03T09:14:31Z</time>
      </trkpt>
      <trkpt lat="47.2973" lon="-1.02209">
        <ele>47.5</ele>
        <time>2011-07-03T09:14:35Z</time>
      </trkpt>
      <trkpt lat="47.29735" lon="-1.02208">
        <ele>48.1</ele>
        <time>2011-07-03T09:14:38Z</time>
      </trkpt>
      <trkpt lat="47.29756" lon="-1.02204">
        <ele>50.4</ele>
        <time>2011-07-03T09:14:52Z</time>
      </trkpt>
      <trkpt lat="47.29779" lon="-1.02199">
        <ele>53.8</ele>
        <time>2011-07-03T09:15:10Z</time>
      </trkpt>
      <trkpt lat="47.29782" lon="-1.02197">
        <ele>54.8</ele>
        <time>2011-07-03T09:15:13Z</time>
      </trkpt>
      <trkpt lat="47.29783" lon="-1.02197">
        <ele>55.1</ele>
        <time>2011-07-03T09:15:14Z</time>
      </trkpt>
      <trkpt lat="47.29787" lon="-1.02195">
        <ele>55.9</ele>
        <time>2011-07-03T09:15:17Z</time>
      </trkpt>
      <trkpt lat="47.29805" lon="-1.02186">
        <ele>58.1</ele>
        <time>2011-07-03T09:15:32Z</time>
      </trkpt>
      <trkpt lat="47.29807" lon="-1.02185">
        <ele>58.3</ele>
        <time>2011-07-03T09:15:34Z</time>
      </trkpt>
      <trkpt lat="47.29808" lon="-1.02184">
        <ele>58.4</ele>
        <time>2011-07-03T09:15:35Z</time>
      </trkpt>
      <trkpt lat="47.29809" lon="-1.02183">
        <ele>58.6</ele>
        <time>2011-07-03T09:15:36Z</time>
      </trkpt>
      <trkpt lat="47.29809" lon="-1.02183">
        <ele>58.7</ele>
        <time>2011-07-03T09:15:37Z</time>
      </trkpt>
      <trkpt lat="47.29811" lon="-1.02182">
        <ele>59.4</ele>
        <time>2011-07-03T09:15:39Z</time>
      </trkpt>
      <trkpt lat="47.29811" lon="-1.02182">
        <ele>59.6</ele>
        <time>2011-07-03T09:15:40Z</time>
      </trkpt>
      <trkpt lat="47.29812" lon="-1.02182">
        <ele>59.8</ele>
        <time>2011-07-03T09:15:41Z</time>
      </trkpt>
      <trkpt lat="47.29812" lon="-1.02182">
        <ele>59.8</ele>
        <time>2011-07-03T09:15:42Z</time>
      </trkpt>
      <trkpt lat="47.29812" lon="-1.02182">
        <ele>59.8</ele>
        <time>2011-07-03T09:15:43Z</time>
      </trkpt>
      <trkpt lat="47.29812" lon="-1.02182">
        <ele>59.7</ele>
        <time>2011-07-03T09:15:45Z</time>
      </trkpt>
      <trkpt lat="47.29812" lon="-1.02184">
        <ele>59.6</ele>
        <time>2011-07-03T09:15:48Z</time>
      </trkpt>
      <trkpt lat="47.29812" lon="-1.02185">
        <ele>59.5</ele>
        <time>2011-07-03T09:15:49Z</time>
      </trkpt>
      <trkpt lat="47.2981" lon="-1.02196">
        <ele>58.9</ele>
        <time>2011-07-03T09:15:52Z</time>
      </trkpt>
      <trkpt lat="47.29811" lon="-1.02201">
        <ele>58.8</ele>
        <time>2011-07-03T09:15:53Z</time>
      </trkpt>
      <trkpt lat="47.29812" lon="-1.02204">
        <ele>58</ele>
        <time>2011-07-03T09:15:54Z</time>
      </trkpt>
      <trkpt lat="47.29813" lon="-1.02205">
        <ele>57.4</ele>
        <time>2011-07-03T09:15:55Z</time>
      </trkpt>
      <trkpt lat="47.29814" lon="-1.02204">
        <ele>57</ele>
        <time>2011-07-03T09:15:56Z</time>
      </trkpt>
      <trkpt lat="47.29845" lon="-1.02199">
        <ele>57.7</ele>
        <time>2011-07-03T09:16:16Z</time>
      </trkpt>
      <trkpt lat="47.29851" lon="-1.02199">
        <ele>59.1</ele>
        <time>2011-07-03T09:16:20Z</time>
      </trkpt>
      <trkpt lat="47.29856" lon="-1.02197">
        <ele>60.6</ele>
        <time>2011-07-03T09:16:24Z</time>
      </trkpt>
      <trkpt lat="47.29861" lon="-1.02196">
        <ele>61.7</ele>
        <time>2011-07-03T09:16:27Z</time>
      </trkpt>
      <trkpt lat="47.29862" lon="-1.02197">
        <ele>61.9</ele>
        <time>2011-07-03T09:16:28Z</time>
      </trkpt>
      <trkpt lat="47.29863" lon="-1.02197">
        <ele>62.4</ele>
        <time>2011-07-03T09:16:29Z</time>
      </trkpt>
      <trkpt lat="47.29864" lon="-1.02198">
        <ele>62.7</ele>
        <time>2011-07-03T09:16:30Z</time>
      </trkpt>
      <trkpt lat="47.29864" lon="-1.022">
        <ele>63</ele>
        <time>2011-07-03T09:16:31Z</time>
      </trkpt>
      <trkpt lat="47.29865" lon="-1.02201">
        <ele>63.2</ele>
        <time>2011-07-03T09:16:32Z</time>
      </trkpt>
      <trkpt lat="47.29865" lon="-1.0221">
        <ele>64.9</ele>
        <time>2011-07-03T09:16:37Z</time>
      </trkpt>
      <trkpt lat="47.29867" lon="-1.02219">
        <ele>66</ele>
        <time>2011-07-03T09:16:42Z</time>
      </trkpt>
      <trkpt lat="47.29868" lon="-1.02221">
        <ele>66.4</ele>
        <time>2011-07-03T09:16:43Z</time>
      </trkpt>
      <trkpt lat="47.29867" lon="-1.02223">
        <ele>66.6</ele>
        <time>2011-07-03T09:16:44Z</time>
      </trkpt>
      <trkpt lat="47.29866" lon="-1.02225">
        <ele>66.4</ele>
        <time>2011-07-03T09:16:45Z</time>
      </trkpt>
      <trkpt lat="47.29864" lon="-1.02228">
        <ele>66.2</ele>
        <time>2011-07-03T09:16:46Z</time>
      </trkpt>
      <trkpt lat="47.29775" lon="-1.02313">
        <ele>70.4</ele>
        <time>2011-07-03T09:17:32Z</time>
      </trkpt>
      <trkpt lat="47.29756" lon="-1.02338">
        <ele>70</ele>
        <time>2011-07-03T09:17:40Z</time>
      </trkpt>
      <trkpt lat="47.29752" lon="-1.02346">
        <ele>69.9</ele>
        <time>2011-07-03T09:17:42Z</time>
      </trkpt>
      <trkpt lat="47.29722" lon="-1.02408">
        <ele>68.7</ele>
        <time>2011-07-03T09:17:56Z</time>
      </trkpt>
      <trkpt lat="47.29717" lon="-1.02421">
        <ele>68.4</ele>
        <time>2011-07-03T09:17:58Z</time>
      </trkpt>
      <trkpt lat="47.29715" lon="-1.02429">
        <ele>68.2</ele>
        <time>2011-07-03T09:17:59Z</time>
      </trkpt>
      <trkpt lat="47.29715" lon="-1.02438">
        <ele>68</ele>
        <time>2011-07-03T09:18:00Z</time>
      </trkpt>
      <trkpt lat="47.29717" lon="-1.02475">
        <ele>66.9</ele>
        <time>2011-07-03T09:18:05Z</time>
      </trkpt>
      <trkpt lat="47.29717" lon="-1.02479">
        <ele>66.6</ele>
        <time>2011-07-03T09:18:06Z</time>
      </trkpt>
      <trkpt lat="47.29718" lon="-1.02482">
        <ele>66.4</ele>
        <time>2011-07-03T09:18:07Z</time>
      </trkpt>
      <trkpt lat="47.29729" lon="-1.02497">
        <ele>64.6</ele>
        <time>2011-07-03T09:18:13Z</time>
      </trkpt>
      <trkpt lat="47.29738" lon="-1.02515">
        <ele>63.4</ele>
        <time>2011-07-03T09:18:18Z</time>
      </trkpt>
      <trkpt lat="47.29738" lon="-1.02517">
        <ele>62.5</ele>
        <time>2011-07-03T09:18:20Z</time>
      </trkpt>
      <trkpt lat="47.29738" lon="-1.02518">
        <ele>62.3</ele>
        <time>2011-07-03T09:18:21Z</time>
      </trkpt>
      <trkpt lat="47.29738" lon="-1.02521">
        <ele>62.1</ele>
        <time>2011-07-03T09:18:22Z</time>
      </trkpt>
      <trkpt lat="47.29738" lon="-1.02524">
        <ele>62</ele>
        <time>2011-07-03T09:18:23Z</time>
      </trkpt>
      <trkpt lat="47.29737" lon="-1.02526">
        <ele>61.8</ele>
        <time>2011-07-03T09:18:24Z</time>
      </trkpt>
      <trkpt lat="47.29735" lon="-1.02527">
        <ele>61.6</ele>
        <time>2011-07-03T09:18:25Z</time>
      </trkpt>
      <trkpt lat="47.29734" lon="-1.02529">
        <ele>61.5</ele>
        <time>2011-07-03T09:18:26Z</time>
      </trkpt>
      <trkpt lat="47.29732" lon="-1.02531">
        <ele>61.4</ele>
        <time>2011-07-03T09:18:27Z</time>
      </trkpt>
      <trkpt lat="47.2973" lon="-1.02535">
        <ele>61.2</ele>
        <time>2011-07-03T09:18:28Z</time>
      </trkpt>
      <trkpt lat="47.2973" lon="-1.02537">
        <ele>61</ele>
        <time>2011-07-03T09:18:29Z</time>
      </trkpt>
      <trkpt lat="47.2973" lon="-1.0254">
        <ele>60.9</ele>
        <time>2011-07-03T09:18:30Z</time>
      </trkpt>
      <trkpt lat="47.2973" lon="-1.02547">
        <ele>60.3</ele>
        <time>2011-07-03T09:18:32Z</time>
      </trkpt>
      <trkpt lat="47.29732" lon="-1.02558">
        <ele>59.4</ele>
        <time>2011-07-03T09:18:37Z</time>
      </trkpt>
      <trkpt lat="47.29733" lon="-1.0256">
        <ele>59.5</ele>
        <time>2011-07-03T09:18:38Z</time>
      </trkpt>
      <trkpt lat="47.29733" lon="-1.02562">
        <ele>59.5</ele>
        <time>2011-07-03T09:18:39Z</time>
      </trkpt>
      <trkpt lat="47.29734" lon="-1.02563">
        <ele>59.8</ele>
        <time>2011-07-03T09:18:40Z</time>
      </trkpt>
      <trkpt lat="47.29739" lon="-1.02571">
        <ele>61.3</ele>
        <time>2011-07-03T09:18:45Z</time>
      </trkpt>
      <trkpt lat="47.29742" lon="-1.02578">
        <ele>62.7</ele>
        <time>2011-07-03T09:18:49Z</time>
      </trkpt>
      <trkpt lat="47.29745" lon="-1.02583">
        <ele>63.7</ele>
        <time>2011-07-03T09:18:53Z</time>
      </trkpt>
      <trkpt lat="47.29746" lon="-1.02584">
        <ele>64</ele>
        <time>2011-07-03T09:18:54Z</time>
      </trkpt>
      <trkpt lat="47.29749" lon="-1.02586">
        <ele>64.9</ele>
        <time>2011-07-03T09:18:56Z</time>
      </trkpt>
      <trkpt lat="47.2975" lon="-1.02586">
        <ele>65.5</ele>
        <time>2011-07-03T09:18:57Z</time>
      </trkpt>
      <trkpt lat="47.29751" lon="-1.02586">
        <ele>65.9</ele>
        <time>2011-07-03T09:18:58Z</time>
      </trkpt>
      <trkpt lat="47.29753" lon="-1.02586">
        <ele>66.2</ele>
        <time>2011-07-03T09:18:59Z</time>
      </trkpt>
      <trkpt lat="47.29754" lon="-1.02586">
        <ele>66.5</ele>
        <time>2011-07-03T09:19:00Z</time>
      </trkpt>
      <trkpt lat="47.29759" lon="-1.02588">
        <ele>67.5</ele>
        <time>2011-07-03T09:19:04Z</time>
      </trkpt>
      <trkpt lat="47.29762" lon="-1.02588">
        <ele>68</ele>
        <time>2011-07-03T09:19:06Z</time>
      </trkpt>
      <trkpt lat="47.29763" lon="-1.02589">
        <ele>68.2</ele>
        <time>2011-07-03T09:19:07Z</time>
      </trkpt>
      <trkpt lat="47.29765" lon="-1.0259">
        <ele>68.6</ele>
        <time>2011-07-03T09:19:09Z</time>
      </trkpt>
      <trkpt lat="47.29767" lon="-1.02591">
        <ele>68.9</ele>
        <time>2011-07-03T09:19:10Z</time>
      </trkpt>
      <trkpt lat="47.29768" lon="-1.02591">
        <ele>69.1</ele>
        <time>2011-07-03T09:19:11Z</time>
      </trkpt>
      <trkpt lat="47.29774" lon="-1.02591">
        <ele>70</ele>
        <time>2011-07-03T09:19:15Z</time>
      </trkpt>
      <trkpt lat="47.29775" lon="-1.02591">
        <ele>70.3</ele>
        <time>2011-07-03T09:19:16Z</time>
      </trkpt>
      <trkpt lat="47.29776" lon="-1.02592">
        <ele>70.5</ele>
        <time>2011-07-03T09:19:17Z</time>
      </trkpt>
      <trkpt lat="47.29777" lon="-1.02593">
        <ele>70.7</ele>
        <time>2011-07-03T09:19:18Z</time>
      </trkpt>
      <trkpt lat="47.29778" lon="-1.02594">
        <ele>71</ele>
        <time>2011-07-03T09:19:19Z</time>
      </trkpt>
      <trkpt lat="47.29778" lon="-1.02596">
        <ele>71.3</ele>
        <time>2011-07-03T09:19:20Z</time>
      </trkpt>
      <trkpt lat="47.29779" lon="-1.02597">
        <ele>71.5</ele>
        <time>2011-07-03T09:19:21Z</time>
      </trkpt>
      <trkpt lat="47.29779" lon="-1.02599">
        <ele>71.7</ele>
        <time>2011-07-03T09:19:22Z</time>
      </trkpt>
      <trkpt lat="47.29779" lon="-1.026">
        <ele>71.9</ele>
        <time>2011-07-03T09:19:23Z</time>
      </trkpt>
      <trkpt lat="47.29778" lon="-1.02602">
        <ele>72.1</ele>
        <time>2011-07-03T09:19:24Z</time>
      </trkpt>
      <trkpt lat="47.29778" lon="-1.02604">
        <ele>72.1</ele>
        <time>2011-07-03T09:19:25Z</time>
      </trkpt>
      <trkpt lat="47.29776" lon="-1.02606">
        <ele>72.1</ele>
        <time>2011-07-03T09:19:26Z</time>
      </trkpt>
      <trkpt lat="47.29775" lon="-1.02609">
        <ele>72.1</ele>
        <time>2011-07-03T09:19:27Z</time>
      </trkpt>
      <trkpt lat="47.29773" lon="-1.02611">
        <ele>71.9</ele>
        <time>2011-07-03T09:19:28Z</time>
      </trkpt>
      <trkpt lat="47.2977" lon="-1.02613">
        <ele>71.8</ele>
        <time>2011-07-03T09:19:29Z</time>
      </trkpt>
      <trkpt lat="47.29769" lon="-1.02614">
        <ele>71.4</ele>
        <time>2011-07-03T09:19:31Z</time>
      </trkpt>
      <trkpt lat="47.29769" lon="-1.02614">
        <ele>71</ele>
        <time>2011-07-03T09:19:54Z</time>
      </trkpt>
      <trkpt lat="47.29769" lon="-1.02615">
        <ele>70.1</ele>
        <time>2011-07-03T09:20:19Z</time>
      </trkpt>
      <trkpt lat="47.29769" lon="-1.02615">
        <ele>69.9</ele>
        <time>2011-07-03T09:20:23Z</time>
      </trkpt>
      <trkpt lat="47.29769" lon="-1.02615">
        <ele>70.6</ele>
        <time>2011-07-03T09:20:38Z</time>
      </trkpt>
      <trkpt lat="47.29769" lon="-1.02615">
        <ele>70.3</ele>
        <time>2011-07-03T09:20:51Z</time>
      </trkpt>
      <trkpt lat="47.29769" lon="-1.02614">
        <ele>70.2</ele>
        <time>2011-07-03T09:20:59Z</time>
      </trkpt>
      <trkpt lat="47.29769" lon="-1.02614">
        <ele>70.1</ele>
        <time>2011-07-03T09:21:00Z</time>
      </trkpt>
      <trkpt lat="47.29767" lon="-1.02615">
        <ele>69.9</ele>
        <time>2011-07-03T09:21:01Z</time>
      </trkpt>
      <trkpt lat="47.29766" lon="-1.02616">
        <ele>69.8</ele>
        <time>2011-07-03T09:21:02Z</time>
      </trkpt>
      <trkpt lat="47.29764" lon="-1.02618">
        <ele>69.7</ele>
        <time>2011-07-03T09:21:03Z</time>
      </trkpt>
      <trkpt lat="47.29758" lon="-1.02631">
        <ele>69.7</ele>
        <time>2011-07-03T09:21:07Z</time>
      </trkpt>
      <trkpt lat="47.29755" lon="-1.02634">
        <ele>69.6</ele>
        <time>2011-07-03T09:21:08Z</time>
      </trkpt>
      <trkpt lat="47.29745" lon="-1.02641">
        <ele>68.8</ele>
        <time>2011-07-03T09:21:11Z</time>
      </trkpt>
      <trkpt lat="47.29743" lon="-1.02644">
        <ele>68.6</ele>
        <time>2011-07-03T09:21:12Z</time>
      </trkpt>
      <trkpt lat="47.2974" lon="-1.0265">
        <ele>67.7</ele>
        <time>2011-07-03T09:21:14Z</time>
      </trkpt>
      <trkpt lat="47.29738" lon="-1.02652">
        <ele>67.4</ele>
        <time>2011-07-03T09:21:15Z</time>
      </trkpt>
      <trkpt lat="47.29729" lon="-1.02655">
        <ele>66</ele>
        <time>2011-07-03T09:21:18Z</time>
      </trkpt>
      <trkpt lat="47.29712" lon="-1.02677">
        <ele>62.5</ele>
        <time>2011-07-03T09:21:25Z</time>
      </trkpt>
      <trkpt lat="47.29702" lon="-1.02685">
        <ele>61.7</ele>
        <time>2011-07-03T09:21:29Z</time>
      </trkpt>
      <trkpt lat="47.29701" lon="-1.02687">
        <ele>61.7</ele>
        <time>2011-07-03T09:21:30Z</time>
      </trkpt>
      <trkpt lat="47.29699" lon="-1.02692">
        <ele>61.8</ele>
        <time>2011-07-03T09:21:32Z</time>
      </trkpt>
      <trkpt lat="47.29696" lon="-1.02694">
        <ele>61.8</ele>
        <time>2011-07-03T09:21:33Z</time>
      </trkpt>
      <trkpt lat="47.2969" lon="-1.02698">
        <ele>61.9</ele>
        <time>2011-07-03T09:21:35Z</time>
      </trkpt>
      <trkpt lat="47.29675" lon="-1.02716">
        <ele>60.1</ele>
        <time>2011-07-03T09:21:39Z</time>
      </trkpt>
      <trkpt lat="47.2965" lon="-1.02741">
        <ele>58.3</ele>
        <time>2011-07-03T09:21:44Z</time>
      </trkpt>
      <trkpt lat="47.29576" lon="-1.02802">
        <ele>53</ele>
        <time>2011-07-03T09:21:57Z</time>
      </trkpt>
      <trkpt lat="47.29572" lon="-1.02806">
        <ele>51.2</ele>
        <time>2011-07-03T09:21:58Z</time>
      </trkpt>
      <trkpt lat="47.2957" lon="-1.02811">
        <ele>49.8</ele>
        <time>2011-07-03T09:21:59Z</time>
      </trkpt>
      <trkpt lat="47.2957" lon="-1.02816">
        <ele>48.8</ele>
        <time>2011-07-03T09:22:00Z</time>
      </trkpt>
      <trkpt lat="47.2957" lon="-1.0282">
        <ele>47.4</ele>
        <time>2011-07-03T09:22:01Z</time>
      </trkpt>
      <trkpt lat="47.29571" lon="-1.02823">
        <ele>46.3</ele>
        <time>2011-07-03T09:22:02Z</time>
      </trkpt>
      <trkpt lat="47.29579" lon="-1.02849">
        <ele>45.2</ele>
        <time>2011-07-03T09:22:11Z</time>
      </trkpt>
      <trkpt lat="47.2958" lon="-1.02852">
        <ele>45.2</ele>
        <time>2011-07-03T09:22:12Z</time>
      </trkpt>
      <trkpt lat="47.29582" lon="-1.02858">
        <ele>45.7</ele>
        <time>2011-07-03T09:22:14Z</time>
      </trkpt>
      <trkpt lat="47.29589" lon="-1.0288">
        <ele>46.9</ele>
        <time>2011-07-03T09:22:21Z</time>
      </trkpt>
      <trkpt lat="47.29589" lon="-1.02883">
        <ele>46.7</ele>
        <time>2011-07-03T09:22:22Z</time>
      </trkpt>
      <trkpt lat="47.29589" lon="-1.02892">
        <ele>46.8</ele>
        <time>2011-07-03T09:22:24Z</time>
      </trkpt>
      <trkpt lat="47.2959" lon="-1.02896">
        <ele>47</ele>
        <time>2011-07-03T09:22:25Z</time>
      </trkpt>
      <trkpt lat="47.29591" lon="-1.029">
        <ele>47.1</ele>
        <time>2011-07-03T09:22:26Z</time>
      </trkpt>
      <trkpt lat="47.29605" lon="-1.02938">
        <ele>47.7</ele>
        <time>2011-07-03T09:22:35Z</time>
      </trkpt>
      <trkpt lat="47.29605" lon="-1.02942">
        <ele>47.8</ele>
        <time>2011-07-03T09:22:36Z</time>
      </trkpt>
      <trkpt lat="47.29606" lon="-1.02949">
        <ele>46.9</ele>
        <time>2011-07-03T09:22:39Z</time>
      </trkpt>
      <trkpt lat="47.29606" lon="-1.0295">
        <ele>47</ele>
        <time>2011-07-03T09:22:43Z</time>
      </trkpt>
      <trkpt lat="47.29606" lon="-1.02951">
        <ele>47.2</ele>
        <time>2011-07-03T09:22:56Z</time>
      </trkpt>
      <trkpt lat="47.29604" lon="-1.02952">
        <ele>46.9</ele>
        <time>2011-07-03T09:22:59Z</time>
      </trkpt>
      <trkpt lat="47.29603" lon="-1.02952">
        <ele>46.7</ele>
        <time>2011-07-03T09:23:00Z</time>
      </trkpt>
      <trkpt lat="47.29603" lon="-1.02953">
        <ele>46.5</ele>
        <time>2011-07-03T09:23:05Z</time>
      </trkpt>
      <trkpt lat="47.29603" lon="-1.02953">
        <ele>46.6</ele>
        <time>2011-07-03T09:23:06Z</time>
      </trkpt>
      <trkpt lat="47.29602" lon="-1.02952">
        <ele>46.7</ele>
        <time>2011-07-03T09:23:07Z</time>
      </trkpt>
      <trkpt lat="47.29602" lon="-1.02951">
        <ele>46.6</ele>
        <time>2011-07-03T09:23:08Z</time>
      </trkpt>
      <trkpt lat="47.29601" lon="-1.02951">
        <ele>46.5</ele>
        <time>2011-07-03T09:23:09Z</time>
      </trkpt>
      <trkpt lat="47.29601" lon="-1.0295">
        <ele>46.4</ele>
        <time>2011-07-03T09:23:10Z</time>
      </trkpt>
      <trkpt lat="47.29601" lon="-1.0295">
        <ele>46.3</ele>
        <time>2011-07-03T09:23:11Z</time>
      </trkpt>
      <trkpt lat="47.29601" lon="-1.0295">
        <ele>46.2</ele>
        <time>2011-07-03T09:23:14Z</time>
      </trkpt>
      <trkpt lat="47.29601" lon="-1.0295">
        <ele>46.1</ele>
        <time>2011-07-03T09:23:22Z</time>
      </trkpt>
      <trkpt lat="47.29598" lon="-1.0295">
        <ele>45.9</ele>
        <time>2011-07-03T09:23:24Z</time>
      </trkpt>
      <trkpt lat="47.29596" lon="-1.02951">
        <ele>45.8</ele>
        <time>2011-07-03T09:23:25Z</time>
      </trkpt>
      <trkpt lat="47.29594" lon="-1.02952">
        <ele>45.7</ele>
        <time>2011-07-03T09:23:26Z</time>
      </trkpt>
      <trkpt lat="47.29591" lon="-1.02954">
        <ele>45.6</ele>
        <time>2011-07-03T09:23:27Z</time>
      </trkpt>
      <trkpt lat="47.29581" lon="-1.02965">
        <ele>43.8</ele>
        <time>2011-07-03T09:23:31Z</time>
      </trkpt>
      <trkpt lat="47.29579" lon="-1.02968">
        <ele>42.9</ele>
        <time>2011-07-03T09:23:32Z</time>
      </trkpt>
      <trkpt lat="47.29577" lon="-1.02973">
        <ele>42.2</ele>
        <time>2011-07-03T09:23:33Z</time>
      </trkpt>
      <trkpt lat="47.29577" lon="-1.02979">
        <ele>40.7</ele>
        <time>2011-07-03T09:23:34Z</time>
      </trkpt>
      <trkpt lat="47.29577" lon="-1.02984">
        <ele>39.6</ele>
        <time>2011-07-03T09:23:35Z</time>
      </trkpt>
      <trkpt lat="47.29578" lon="-1.02988">
        <ele>38.8</ele>
        <time>2011-07-03T09:23:36Z</time>
      </trkpt>
      <trkpt lat="47.29581" lon="-1.02996">
        <ele>37</ele>
        <time>2011-07-03T09:23:39Z</time>
      </trkpt>
      <trkpt lat="47.29582" lon="-1.02998">
        <ele>37.2</ele>
        <time>2011-07-03T09:23:40Z</time>
      </trkpt>
      <trkpt lat="47.29583" lon="-1.03">
        <ele>37.4</ele>
        <time>2011-07-03T09:23:41Z</time>
      </trkpt>
      <trkpt lat="47.29589" lon="-1.03007">
        <ele>38.9</ele>
        <time>2011-07-03T09:23:47Z</time>
      </trkpt>
      <trkpt lat="47.29593" lon="-1.03014">
        <ele>39.4</ele>
        <time>2011-07-03T09:23:51Z</time>
      </trkpt>
      <trkpt lat="47.29598" lon="-1.03025">
        <ele>39.3</ele>
        <time>2011-07-03T09:23:56Z</time>
      </trkpt>
      <trkpt lat="47.296" lon="-1.03039">
        <ele>37.9</ele>
        <time>2011-07-03T09:24:02Z</time>
      </trkpt>
      <trkpt lat="47.29602" lon="-1.03056">
        <ele>36.3</ele>
        <time>2011-07-03T09:24:06Z</time>
      </trkpt>
      <trkpt lat="47.29602" lon="-1.03062">
        <ele>35.6</ele>
        <time>2011-07-03T09:24:07Z</time>
      </trkpt>
      <trkpt lat="47.29603" lon="-1.03073">
        <ele>34.1</ele>
        <time>2011-07-03T09:24:09Z</time>
      </trkpt>
      <trkpt lat="47.29605" lon="-1.03078">
        <ele>33.3</ele>
        <time>2011-07-03T09:24:10Z</time>
      </trkpt>
      <trkpt lat="47.29607" lon="-1.03081">
        <ele>32.7</ele>
        <time>2011-07-03T09:24:11Z</time>
      </trkpt>
      <trkpt lat="47.29616" lon="-1.03084">
        <ele>29.5</ele>
        <time>2011-07-03T09:24:15Z</time>
      </trkpt>
      <trkpt lat="47.29619" lon="-1.03086">
        <ele>29</ele>
        <time>2011-07-03T09:24:16Z</time>
      </trkpt>
      <trkpt lat="47.29628" lon="-1.03095">
        <ele>27.8</ele>
        <time>2011-07-03T09:24:19Z</time>
      </trkpt>
      <trkpt lat="47.29632" lon="-1.03097">
        <ele>27.5</ele>
        <time>2011-07-03T09:24:20Z</time>
      </trkpt>
      <trkpt lat="47.29636" lon="-1.03097">
        <ele>27.3</ele>
        <time>2011-07-03T09:24:21Z</time>
      </trkpt>
      <trkpt lat="47.29639" lon="-1.03096">
        <ele>26.4</ele>
        <time>2011-07-03T09:24:22Z</time>
      </trkpt>
      <trkpt lat="47.29646" lon="-1.03094">
        <ele>25.2</ele>
        <time>2011-07-03T09:24:24Z</time>
      </trkpt>
      <trkpt lat="47.29649" lon="-1.03092">
        <ele>24.9</ele>
        <time>2011-07-03T09:24:25Z</time>
      </trkpt>
      <trkpt lat="47.29667" lon="-1.03078">
        <ele>24</ele>
        <time>2011-07-03T09:24:34Z</time>
      </trkpt>
      <trkpt lat="47.29674" lon="-1.03074">
        <ele>24</ele>
        <time>2011-07-03T09:24:37Z</time>
      </trkpt>
      <trkpt lat="47.29675" lon="-1.03073">
        <ele>23.8</ele>
        <time>2011-07-03T09:24:38Z</time>
      </trkpt>
      <trkpt lat="47.29676" lon="-1.03071">
        <ele>23.7</ele>
        <time>2011-07-03T09:24:39Z</time>
      </trkpt>
      <trkpt lat="47.29682" lon="-1.0306">
        <ele>24.9</ele>
        <time>2011-07-03T09:24:46Z</time>
      </trkpt>
      <trkpt lat="47.29685" lon="-1.03055">
        <ele>26.1</ele>
        <time>2011-07-03T09:24:49Z</time>
      </trkpt>
      <trkpt lat="47.29686" lon="-1.03051">
        <ele>26.9</ele>
        <time>2011-07-03T09:24:51Z</time>
      </trkpt>
      <trkpt lat="47.29688" lon="-1.03048">
        <ele>27.3</ele>
        <time>2011-07-03T09:24:53Z</time>
      </trkpt>
      <trkpt lat="47.29698" lon="-1.03031">
        <ele>30.4</ele>
        <time>2011-07-03T09:25:04Z</time>
      </trkpt>
      <trkpt lat="47.29702" lon="-1.03022">
        <ele>31.9</ele>
        <time>2011-07-03T09:25:10Z</time>
      </trkpt>
      <trkpt lat="47.29712" lon="-1.0301">
        <ele>33.6</ele>
        <time>2011-07-03T09:25:19Z</time>
      </trkpt>
      <trkpt lat="47.29715" lon="-1.03003">
        <ele>34.4</ele>
        <time>2011-07-03T09:25:23Z</time>
      </trkpt>
      <trkpt lat="47.2973" lon="-1.02982">
        <ele>37.6</ele>
        <time>2011-07-03T09:25:39Z</time>
      </trkpt>
      <trkpt lat="47.29739" lon="-1.02967">
        <ele>40.9</ele>
        <time>2011-07-03T09:25:50Z</time>
      </trkpt>
      <trkpt lat="47.29745" lon="-1.02956">
        <ele>43.4</ele>
        <time>2011-07-03T09:25:58Z</time>
      </trkpt>
      <trkpt lat="47.29746" lon="-1.02954">
        <ele>43.7</ele>
        <time>2011-07-03T09:25:59Z</time>
      </trkpt>
      <trkpt lat="47.29747" lon="-1.02953">
        <ele>43.9</ele>
        <time>2011-07-03T09:26:00Z</time>
      </trkpt>
      <trkpt lat="47.29747" lon="-1.02948">
        <ele>44.7</ele>
        <time>2011-07-03T09:26:03Z</time>
      </trkpt>
      <trkpt lat="47.29748" lon="-1.0294">
        <ele>45.5</ele>
        <time>2011-07-03T09:26:08Z</time>
      </trkpt>
      <trkpt lat="47.29749" lon="-1.02938">
        <ele>45.8</ele>
        <time>2011-07-03T09:26:09Z</time>
      </trkpt>
      <trkpt lat="47.2975" lon="-1.02936">
        <ele>46.1</ele>
        <time>2011-07-03T09:26:10Z</time>
      </trkpt>
      <trkpt lat="47.29751" lon="-1.02936">
        <ele>46.3</ele>
        <time>2011-07-03T09:26:11Z</time>
      </trkpt>
      <trkpt lat="47.29755" lon="-1.02933">
        <ele>46.9</ele>
        <time>2011-07-03T09:26:14Z</time>
      </trkpt>
      <trkpt lat="47.29757" lon="-1.02932">
        <ele>47.2</ele>
        <time>2011-07-03T09:26:17Z</time>
      </trkpt>
      <trkpt lat="47.29758" lon="-1.02931">
        <ele>47.3</ele>
        <time>2011-07-03T09:26:18Z</time>
      </trkpt>
      <trkpt lat="47.29759" lon="-1.0293">
        <ele>47.4</ele>
        <time>2011-07-03T09:26:19Z</time>
      </trkpt>
      <trkpt lat="47.29765" lon="-1.02927">
        <ele>47.3</ele>
        <time>2011-07-03T09:26:22Z</time>
      </trkpt>
      <trkpt lat="47.29766" lon="-1.02926">
        <ele>47.1</ele>
        <time>2011-07-03T09:26:23Z</time>
      </trkpt>
      <trkpt lat="47.29776" lon="-1.02923">
        <ele>46.6</ele>
        <time>2011-07-03T09:26:27Z</time>
      </trkpt>
      <trkpt lat="47.29797" lon="-1.0292">
        <ele>45.9</ele>
        <time>2011-07-03T09:26:32Z</time>
      </trkpt>
      <trkpt lat="47.29802" lon="-1.02921">
        <ele>45.4</ele>
        <time>2011-07-03T09:26:33Z</time>
      </trkpt>
      <trkpt lat="47.2982" lon="-1.02929">
        <ele>43.9</ele>
        <time>2011-07-03T09:26:40Z</time>
      </trkpt>
      <trkpt lat="47.29854" lon="-1.02935">
        <ele>45.5</ele>
        <time>2011-07-03T09:26:54Z</time>
      </trkpt>
      <trkpt lat="47.29857" lon="-1.02935">
        <ele>45.5</ele>
        <time>2011-07-03T09:26:55Z</time>
      </trkpt>
      <trkpt lat="47.29859" lon="-1.02935">
        <ele>45.4</ele>
        <time>2011-07-03T09:26:56Z</time>
      </trkpt>
      <trkpt lat="47.29863" lon="-1.02934">
        <ele>45.5</ele>
        <time>2011-07-03T09:26:58Z</time>
      </trkpt>
      <trkpt lat="47.29865" lon="-1.02933">
        <ele>45.5</ele>
        <time>2011-07-03T09:26:59Z</time>
      </trkpt>
      <trkpt lat="47.29867" lon="-1.02933">
        <ele>45.6</ele>
        <time>2011-07-03T09:27:00Z</time>
      </trkpt>
      <trkpt lat="47.2987" lon="-1.02933">
        <ele>45.5</ele>
        <time>2011-07-03T09:27:01Z</time>
      </trkpt>
      <trkpt lat="47.29872" lon="-1.02936">
        <ele>45.5</ele>
        <time>2011-07-03T09:27:03Z</time>
      </trkpt>
      <trkpt lat="47.29874" lon="-1.02937">
        <ele>45.5</ele>
        <time>2011-07-03T09:27:04Z</time>
      </trkpt>
      <trkpt lat="47.29875" lon="-1.02937">
        <ele>44.9</ele>
        <time>2011-07-03T09:27:05Z</time>
      </trkpt>
      <trkpt lat="47.29877" lon="-1.02938">
        <ele>44.5</ele>
        <time>2011-07-03T09:27:06Z</time>
      </trkpt>
      <trkpt lat="47.29878" lon="-1.02939">
        <ele>44.1</ele>
        <time>2011-07-03T09:27:07Z</time>
      </trkpt>
      <trkpt lat="47.2988" lon="-1.02941">
        <ele>43.8</ele>
        <time>2011-07-03T09:27:08Z</time>
      </trkpt>
      <trkpt lat="47.29881" lon="-1.02944">
        <ele>43.5</ele>
        <time>2011-07-03T09:27:09Z</time>
      </trkpt>
      <trkpt lat="47.29882" lon="-1.02948">
        <ele>43.3</ele>
        <time>2011-07-03T09:27:10Z</time>
      </trkpt>
      <trkpt lat="47.29884" lon="-1.02951">
        <ele>42.9</ele>
        <time>2011-07-03T09:27:11Z</time>
      </trkpt>
      <trkpt lat="47.29886" lon="-1.02953">
        <ele>42.5</ele>
        <time>2011-07-03T09:27:12Z</time>
      </trkpt>
      <trkpt lat="47.29888" lon="-1.02954">
        <ele>42.2</ele>
        <time>2011-07-03T09:27:13Z</time>
      </trkpt>
      <trkpt lat="47.2989" lon="-1.02953">
        <ele>41.6</ele>
        <time>2011-07-03T09:27:14Z</time>
      </trkpt>
      <trkpt lat="47.29892" lon="-1.02952">
        <ele>41.1</ele>
        <time>2011-07-03T09:27:15Z</time>
      </trkpt>
      <trkpt lat="47.29894" lon="-1.0295">
        <ele>40.7</ele>
        <time>2011-07-03T09:27:16Z</time>
      </trkpt>
      <trkpt lat="47.29898" lon="-1.02946">
        <ele>39.9</ele>
        <time>2011-07-03T09:27:18Z</time>
      </trkpt>
      <trkpt lat="47.29927" lon="-1.02919">
        <ele>37.9</ele>
        <time>2011-07-03T09:27:27Z</time>
      </trkpt>
      <trkpt lat="47.2994" lon="-1.02909">
        <ele>34.3</ele>
        <time>2011-07-03T09:27:33Z</time>
      </trkpt>
      <trkpt lat="47.29942" lon="-1.02909">
        <ele>33.9</ele>
        <time>2011-07-03T09:27:34Z</time>
      </trkpt>
      <trkpt lat="47.2995" lon="-1.02908">
        <ele>32.7</ele>
        <time>2011-07-03T09:27:38Z</time>
      </trkpt>
      <trkpt lat="47.29954" lon="-1.02908">
        <ele>32.6</ele>
        <time>2011-07-03T09:27:40Z</time>
      </trkpt>
      <trkpt lat="47.29956" lon="-1.02909">
        <ele>32.6</ele>
        <time>2011-07-03T09:27:42Z</time>
      </trkpt>
      <trkpt lat="47.29957" lon="-1.02909">
        <ele>33.2</ele>
        <time>2011-07-03T09:27:43Z</time>
      </trkpt>
      <trkpt lat="47.29957" lon="-1.02909">
        <ele>33.6</ele>
        <time>2011-07-03T09:27:44Z</time>
      </trkpt>
      <trkpt lat="47.29958" lon="-1.02908">
        <ele>33.9</ele>
        <time>2011-07-03T09:27:45Z</time>
      </trkpt>
      <trkpt lat="47.29958" lon="-1.02908">
        <ele>34.3</ele>
        <time>2011-07-03T09:27:46Z</time>
      </trkpt>
      <trkpt lat="47.29959" lon="-1.02908">
        <ele>34.7</ele>
        <time>2011-07-03T09:27:47Z</time>
      </trkpt>
      <trkpt lat="47.2996" lon="-1.02909">
        <ele>35</ele>
        <time>2011-07-03T09:27:48Z</time>
      </trkpt>
      <trkpt lat="47.2996" lon="-1.0291">
        <ele>35.2</ele>
        <time>2011-07-03T09:27:49Z</time>
      </trkpt>
      <trkpt lat="47.29961" lon="-1.02911">
        <ele>35.3</ele>
        <time>2011-07-03T09:27:50Z</time>
      </trkpt>
      <trkpt lat="47.29961" lon="-1.02912">
        <ele>35.4</ele>
        <time>2011-07-03T09:27:51Z</time>
      </trkpt>
      <trkpt lat="47.29961" lon="-1.02915">
        <ele>35.6</ele>
        <time>2011-07-03T09:27:54Z</time>
      </trkpt>
      <trkpt lat="47.29961" lon="-1.02917">
        <ele>35.9</ele>
        <time>2011-07-03T09:27:56Z</time>
      </trkpt>
      <trkpt lat="47.2996" lon="-1.02917">
        <ele>36.5</ele>
        <time>2011-07-03T09:28:06Z</time>
      </trkpt>
      <trkpt lat="47.29961" lon="-1.02917">
        <ele>37.6</ele>
        <time>2011-07-03T09:28:14Z</time>
      </trkpt>
      <trkpt lat="47.29961" lon="-1.02916">
        <ele>37.1</ele>
        <time>2011-07-03T09:28:20Z</time>
      </trkpt>
      <trkpt lat="47.29961" lon="-1.02917">
        <ele>37.1</ele>
        <time>2011-07-03T09:28:21Z</time>
      </trkpt>
      <trkpt lat="47.29961" lon="-1.02918">
        <ele>37</ele>
        <time>2011-07-03T09:28:23Z</time>
      </trkpt>
      <trkpt lat="47.29961" lon="-1.02919">
        <ele>37</ele>
        <time>2011-07-03T09:28:24Z</time>
      </trkpt>
      <trkpt lat="47.29961" lon="-1.02919">
        <ele>36.9</ele>
        <time>2011-07-03T09:28:25Z</time>
      </trkpt>
      <trkpt lat="47.29961" lon="-1.02921">
        <ele>36.9</ele>
        <time>2011-07-03T09:28:26Z</time>
      </trkpt>
      <trkpt lat="47.29961" lon="-1.02922">
        <ele>36.9</ele>
        <time>2011-07-03T09:28:27Z</time>
      </trkpt>
      <trkpt lat="47.29962" lon="-1.02936">
        <ele>37.7</ele>
        <time>2011-07-03T09:28:34Z</time>
      </trkpt>
      <trkpt lat="47.29962" lon="-1.02939">
        <ele>37.9</ele>
        <time>2011-07-03T09:28:35Z</time>
      </trkpt>
      <trkpt lat="47.29966" lon="-1.02963">
        <ele>39.5</ele>
        <time>2011-07-03T09:28:43Z</time>
      </trkpt>
      <trkpt lat="47.29967" lon="-1.02966">
        <ele>39.8</ele>
        <time>2011-07-03T09:28:44Z</time>
      </trkpt>
      <trkpt lat="47.29969" lon="-1.02968">
        <ele>40</ele>
        <time>2011-07-03T09:28:45Z</time>
      </trkpt>
      <trkpt lat="47.29976" lon="-1.02976">
        <ele>40.6</ele>
        <time>2011-07-03T09:28:49Z</time>
      </trkpt>
      <trkpt lat="47.2998" lon="-1.02979">
        <ele>40.9</ele>
        <time>2011-07-03T09:28:51Z</time>
      </trkpt>
      <trkpt lat="47.29987" lon="-1.02984">
        <ele>42</ele>
        <time>2011-07-03T09:28:54Z</time>
      </trkpt>
      <trkpt lat="47.29989" lon="-1.02984">
        <ele>42.3</ele>
        <time>2011-07-03T09:28:55Z</time>
      </trkpt>
      <trkpt lat="47.29992" lon="-1.02984">
        <ele>42.3</ele>
        <time>2011-07-03T09:28:56Z</time>
      </trkpt>
      <trkpt lat="47.30002" lon="-1.02969">
        <ele>43.4</ele>
        <time>2011-07-03T09:29:03Z</time>
      </trkpt>
      <trkpt lat="47.30026" lon="-1.0295">
        <ele>43.7</ele>
        <time>2011-07-03T09:29:12Z</time>
      </trkpt>
      <trkpt lat="47.30037" lon="-1.02941">
        <ele>43.4</ele>
        <time>2011-07-03T09:29:16Z</time>
      </trkpt>
      <trkpt lat="47.30041" lon="-1.02939">
        <ele>43.3</ele>
        <time>2011-07-03T09:29:17Z</time>
      </trkpt>
      <trkpt lat="47.30045" lon="-1.02939">
        <ele>43.2</ele>
        <time>2011-07-03T09:29:18Z</time>
      </trkpt>
      <trkpt lat="47.30049" lon="-1.02941">
        <ele>43</ele>
        <time>2011-07-03T09:29:19Z</time>
      </trkpt>
      <trkpt lat="47.30053" lon="-1.02945">
        <ele>42.8</ele>
        <time>2011-07-03T09:29:20Z</time>
      </trkpt>
      <trkpt lat="47.30054" lon="-1.02951">
        <ele>42.7</ele>
        <time>2011-07-03T09:29:21Z</time>
      </trkpt>
      <trkpt lat="47.30052" lon="-1.02956">
        <ele>42.4</ele>
        <time>2011-07-03T09:29:22Z</time>
      </trkpt>
      <trkpt lat="47.30034" lon="-1.0298">
        <ele>40</ele>
        <time>2011-07-03T09:29:27Z</time>
      </trkpt>
      <trkpt lat="47.30032" lon="-1.02986">
        <ele>38.6</ele>
        <time>2011-07-03T09:29:28Z</time>
      </trkpt>
      <trkpt lat="47.3003" lon="-1.02992">
        <ele>37.6</ele>
        <time>2011-07-03T09:29:29Z</time>
      </trkpt>
      <trkpt lat="47.30029" lon="-1.02997">
        <ele>36.9</ele>
        <time>2011-07-03T09:29:30Z</time>
      </trkpt>
      <trkpt lat="47.30024" lon="-1.03036">
        <ele>32.1</ele>
        <time>2011-07-03T09:29:34Z</time>
      </trkpt>
      <trkpt lat="47.30011" lon="-1.03079">
        <ele>26.2</ele>
        <time>2011-07-03T09:29:38Z</time>
      </trkpt>
      <trkpt lat="47.30011" lon="-1.03087">
        <ele>24.5</ele>
        <time>2011-07-03T09:29:39Z</time>
      </trkpt>
      <trkpt lat="47.30013" lon="-1.03094">
        <ele>22.5</ele>
        <time>2011-07-03T09:29:40Z</time>
      </trkpt>
      <trkpt lat="47.30015" lon="-1.03101">
        <ele>21</ele>
        <time>2011-07-03T09:29:41Z</time>
      </trkpt>
      <trkpt lat="47.30019" lon="-1.03108">
        <ele>19.8</ele>
        <time>2011-07-03T09:29:42Z</time>
      </trkpt>
      <trkpt lat="47.3008" lon="-1.03197">
        <ele>13</ele>
        <time>2011-07-03T09:30:03Z</time>
      </trkpt>
      <trkpt lat="47.30083" lon="-1.032">
        <ele>13</ele>
        <time>2011-07-03T09:30:04Z</time>
      </trkpt>
      <trkpt lat="47.30086" lon="-1.03203">
        <ele>12.9</ele>
        <time>2011-07-03T09:30:05Z</time>
      </trkpt>
      <trkpt lat="47.3009" lon="-1.03205">
        <ele>12.8</ele>
        <time>2011-07-03T09:30:06Z</time>
      </trkpt>
      <trkpt lat="47.30096" lon="-1.03207">
        <ele>12.6</ele>
        <time>2011-07-03T09:30:08Z</time>
      </trkpt>
      <trkpt lat="47.30098" lon="-1.03209">
        <ele>12.6</ele>
        <time>2011-07-03T09:30:09Z</time>
      </trkpt>
      <trkpt lat="47.30101" lon="-1.0321">
        <ele>12.3</ele>
        <time>2011-07-03T09:30:10Z</time>
      </trkpt>
      <trkpt lat="47.30103" lon="-1.03212">
        <ele>12.1</ele>
        <time>2011-07-03T09:30:11Z</time>
      </trkpt>
      <trkpt lat="47.30106" lon="-1.03214">
        <ele>12</ele>
        <time>2011-07-03T09:30:12Z</time>
      </trkpt>
      <trkpt lat="47.30111" lon="-1.03215">
        <ele>11.9</ele>
        <time>2011-07-03T09:30:15Z</time>
      </trkpt>
      <trkpt lat="47.30115" lon="-1.03216">
        <ele>12.6</ele>
        <time>2011-07-03T09:30:17Z</time>
      </trkpt>
      <trkpt lat="47.30118" lon="-1.03216">
        <ele>12.8</ele>
        <time>2011-07-03T09:30:18Z</time>
      </trkpt>
      <trkpt lat="47.30124" lon="-1.03215">
        <ele>13.3</ele>
        <time>2011-07-03T09:30:20Z</time>
      </trkpt>
      <trkpt lat="47.30149" lon="-1.03215">
        <ele>13.3</ele>
        <time>2011-07-03T09:30:28Z</time>
      </trkpt>
      <trkpt lat="47.30179" lon="-1.03204">
        <ele>13.3</ele>
        <time>2011-07-03T09:30:37Z</time>
      </trkpt>
      <trkpt lat="47.30228" lon="-1.03195">
        <ele>13.1</ele>
        <time>2011-07-03T09:30:48Z</time>
      </trkpt>
      <trkpt lat="47.30249" lon="-1.03188">
        <ele>12.2</ele>
        <time>2011-07-03T09:30:52Z</time>
      </trkpt>
      <trkpt lat="47.30285" lon="-1.03187">
        <ele>12.6</ele>
        <time>2011-07-03T09:31:00Z</time>
      </trkpt>
      <trkpt lat="47.30318" lon="-1.03173">
        <ele>14.3</ele>
        <time>2011-07-03T09:31:10Z</time>
      </trkpt>
      <trkpt lat="47.30323" lon="-1.03172">
        <ele>15</ele>
        <time>2011-07-03T09:31:12Z</time>
      </trkpt>
      <trkpt lat="47.30334" lon="-1.03168">
        <ele>16.3</ele>
        <time>2011-07-03T09:31:17Z</time>
      </trkpt>
      <trkpt lat="47.30357" lon="-1.03151">
        <ele>18.2</ele>
        <time>2011-07-03T09:31:27Z</time>
      </trkpt>
      <trkpt lat="47.30366" lon="-1.03146">
        <ele>18.8</ele>
        <time>2011-07-03T09:31:31Z</time>
      </trkpt>
      <trkpt lat="47.30368" lon="-1.03145">
        <ele>18.8</ele>
        <time>2011-07-03T09:31:32Z</time>
      </trkpt>
      <trkpt lat="47.30372" lon="-1.03144">
        <ele>19</ele>
        <time>2011-07-03T09:31:34Z</time>
      </trkpt>
      <trkpt lat="47.30378" lon="-1.03143">
        <ele>19.7</ele>
        <time>2011-07-03T09:31:37Z</time>
      </trkpt>
      <trkpt lat="47.30382" lon="-1.03143">
        <ele>19.5</ele>
        <time>2011-07-03T09:31:39Z</time>
      </trkpt>
      <trkpt lat="47.3039" lon="-1.03144">
        <ele>19.5</ele>
        <time>2011-07-03T09:31:44Z</time>
      </trkpt>
      <trkpt lat="47.30393" lon="-1.03144">
        <ele>20.6</ele>
        <time>2011-07-03T09:31:47Z</time>
      </trkpt>
      <trkpt lat="47.30393" lon="-1.03144">
        <ele>20.8</ele>
        <time>2011-07-03T09:31:48Z</time>
      </trkpt>
      <trkpt lat="47.30393" lon="-1.03144">
        <ele>20.9</ele>
        <time>2011-07-03T09:31:50Z</time>
      </trkpt>
      <trkpt lat="47.30394" lon="-1.03144">
        <ele>21</ele>
        <time>2011-07-03T09:31:51Z</time>
      </trkpt>
      <trkpt lat="47.30394" lon="-1.03144">
        <ele>20.4</ele>
        <time>2011-07-03T09:31:53Z</time>
      </trkpt>
      <trkpt lat="47.30394" lon="-1.03144">
        <ele>20.1</ele>
        <time>2011-07-03T09:31:55Z</time>
      </trkpt>
      <trkpt lat="47.30394" lon="-1.03143">
        <ele>20</ele>
        <time>2011-07-03T09:31:56Z</time>
      </trkpt>
      <trkpt lat="47.30395" lon="-1.03143">
        <ele>20.2</ele>
        <time>2011-07-03T09:31:59Z</time>
      </trkpt>
      <trkpt lat="47.30395" lon="-1.03142">
        <ele>20.3</ele>
        <time>2011-07-03T09:32:00Z</time>
      </trkpt>
      <trkpt lat="47.30396" lon="-1.03142">
        <ele>20.3</ele>
        <time>2011-07-03T09:32:01Z</time>
      </trkpt>
      <trkpt lat="47.30461" lon="-1.03134">
        <ele>18</ele>
        <time>2011-07-03T09:32:14Z</time>
      </trkpt>
      <trkpt lat="47.30541" lon="-1.03095">
        <ele>17</ele>
        <time>2011-07-03T09:32:32Z</time>
      </trkpt>
      <trkpt lat="47.30546" lon="-1.03094">
        <ele>16.7</ele>
        <time>2011-07-03T09:32:33Z</time>
      </trkpt>
      <trkpt lat="47.30557" lon="-1.03096">
        <ele>16.4</ele>
        <time>2011-07-03T09:32:35Z</time>
      </trkpt>
      <trkpt lat="47.30563" lon="-1.03096">
        <ele>16.3</ele>
        <time>2011-07-03T09:32:36Z</time>
      </trkpt>
      <trkpt lat="47.30569" lon="-1.03095">
        <ele>16.2</ele>
        <time>2011-07-03T09:32:37Z</time>
      </trkpt>
      <trkpt lat="47.30598" lon="-1.03086">
        <ele>15.5</ele>
        <time>2011-07-03T09:32:42Z</time>
      </trkpt>
      <trkpt lat="47.30635" lon="-1.03072">
        <ele>14.4</ele>
        <time>2011-07-03T09:32:48Z</time>
      </trkpt>
      <trkpt lat="47.3068" lon="-1.03048">
        <ele>13.3</ele>
        <time>2011-07-03T09:32:56Z</time>
      </trkpt>
      <trkpt lat="47.30684" lon="-1.03044">
        <ele>13.5</ele>
        <time>2011-07-03T09:32:57Z</time>
      </trkpt>
      <trkpt lat="47.30688" lon="-1.0304">
        <ele>13.7</ele>
        <time>2011-07-03T09:32:58Z</time>
      </trkpt>
      <trkpt lat="47.30694" lon="-1.03031">
        <ele>13.3</ele>
        <time>2011-07-03T09:33:00Z</time>
      </trkpt>
      <trkpt lat="47.30703" lon="-1.0302">
        <ele>13.8</ele>
        <time>2011-07-03T09:33:03Z</time>
      </trkpt>
      <trkpt lat="47.30705" lon="-1.03015">
        <ele>14</ele>
        <time>2011-07-03T09:33:04Z</time>
      </trkpt>
      <trkpt lat="47.30707" lon="-1.03009">
        <ele>14</ele>
        <time>2011-07-03T09:33:05Z</time>
      </trkpt>
      <trkpt lat="47.30712" lon="-1.0299">
        <ele>14.3</ele>
        <time>2011-07-03T09:33:09Z</time>
      </trkpt>
      <trkpt lat="47.30715" lon="-1.02986">
        <ele>14.5</ele>
        <time>2011-07-03T09:33:10Z</time>
      </trkpt>
      <trkpt lat="47.30718" lon="-1.02983">
        <ele>14.6</ele>
        <time>2011-07-03T09:33:11Z</time>
      </trkpt>
      <trkpt lat="47.30722" lon="-1.02982">
        <ele>14.4</ele>
        <time>2011-07-03T09:33:12Z</time>
      </trkpt>
      <trkpt lat="47.30725" lon="-1.02984">
        <ele>14.3</ele>
        <time>2011-07-03T09:33:13Z</time>
      </trkpt>
      <trkpt lat="47.30732" lon="-1.02992">
        <ele>14.4</ele>
        <time>2011-07-03T09:33:15Z</time>
      </trkpt>
      <trkpt lat="47.30761" lon="-1.03029">
        <ele>15.3</ele>
        <time>2011-07-03T09:33:23Z</time>
      </trkpt>
      <trkpt lat="47.30766" lon="-1.03033">
        <ele>14.7</ele>
        <time>2011-07-03T09:33:24Z</time>
      </trkpt>
      <trkpt lat="47.30825" lon="-1.03058">
        <ele>15</ele>
        <time>2011-07-03T09:33:36Z</time>
      </trkpt>
      <trkpt lat="47.30829" lon="-1.03059">
        <ele>15.4</ele>
        <time>2011-07-03T09:33:37Z</time>
      </trkpt>
      <trkpt lat="47.30835" lon="-1.03059">
        <ele>15.9</ele>
        <time>2011-07-03T09:33:39Z</time>
      </trkpt>
      <trkpt lat="47.30841" lon="-1.03058">
        <ele>16.6</ele>
        <time>2011-07-03T09:33:41Z</time>
      </trkpt>
      <trkpt lat="47.30858" lon="-1.03055">
        <ele>17.3</ele>
        <time>2011-07-03T09:33:47Z</time>
      </trkpt>
      <trkpt lat="47.30863" lon="-1.03053">
        <ele>17.5</ele>
        <time>2011-07-03T09:33:49Z</time>
      </trkpt>
      <trkpt lat="47.30868" lon="-1.03051">
        <ele>17.9</ele>
        <time>2011-07-03T09:33:51Z</time>
      </trkpt>
      <trkpt lat="47.3087" lon="-1.03049">
        <ele>18</ele>
        <time>2011-07-03T09:33:52Z</time>
      </trkpt>
      <trkpt lat="47.3088" lon="-1.03042">
        <ele>20.1</ele>
        <time>2011-07-03T09:33:57Z</time>
      </trkpt>
      <trkpt lat="47.30882" lon="-1.03042">
        <ele>20.4</ele>
        <time>2011-07-03T09:33:58Z</time>
      </trkpt>
      <trkpt lat="47.30884" lon="-1.03041">
        <ele>20.7</ele>
        <time>2011-07-03T09:33:59Z</time>
      </trkpt>
      <trkpt lat="47.30902" lon="-1.03036">
        <ele>22.5</ele>
        <time>2011-07-03T09:34:10Z</time>
      </trkpt>
      <trkpt lat="47.3095" lon="-1.03031">
        <ele>29.8</ele>
        <time>2011-07-03T09:34:40Z</time>
      </trkpt>
      <trkpt lat="47.30951" lon="-1.03031">
        <ele>30.2</ele>
        <time>2011-07-03T09:34:41Z</time>
      </trkpt>
      <trkpt lat="47.3097" lon="-1.03024">
        <ele>32.3</ele>
        <time>2011-07-03T09:34:53Z</time>
      </trkpt>
      <trkpt lat="47.30972" lon="-1.03022">
        <ele>32.6</ele>
        <time>2011-07-03T09:34:54Z</time>
      </trkpt>
      <trkpt lat="47.30978" lon="-1.03019">
        <ele>32.9</ele>
        <time>2011-07-03T09:34:57Z</time>
      </trkpt>
      <trkpt lat="47.30981" lon="-1.03015">
        <ele>32.8</ele>
        <time>2011-07-03T09:34:59Z</time>
      </trkpt>
      <trkpt lat="47.30985" lon="-1.03012">
        <ele>32.5</ele>
        <time>2011-07-03T09:35:01Z</time>
      </trkpt>
      <trkpt lat="47.30986" lon="-1.0301">
        <ele>32.4</ele>
        <time>2011-07-03T09:35:02Z</time>
      </trkpt>
      <trkpt lat="47.30998" lon="-1.03">
        <ele>34.1</ele>
        <time>2011-07-03T09:35:08Z</time>
      </trkpt>
      <trkpt lat="47.31002" lon="-1.02998">
        <ele>34.5</ele>
        <time>2011-07-03T09:35:10Z</time>
      </trkpt>
      <trkpt lat="47.31101" lon="-1.02945">
        <ele>41.7</ele>
        <time>2011-07-03T09:36:00Z</time>
      </trkpt>
      <trkpt lat="47.31105" lon="-1.02942">
        <ele>42.1</ele>
        <time>2011-07-03T09:36:02Z</time>
      </trkpt>
      <trkpt lat="47.3111" lon="-1.02936">
        <ele>42</ele>
        <time>2011-07-03T09:36:05Z</time>
      </trkpt>
      <trkpt lat="47.31119" lon="-1.02924">
        <ele>42.6</ele>
        <time>2011-07-03T09:36:10Z</time>
      </trkpt>
      <trkpt lat="47.31123" lon="-1.02919">
        <ele>42.7</ele>
        <time>2011-07-03T09:36:12Z</time>
      </trkpt>
      <trkpt lat="47.31132" lon="-1.02902">
        <ele>43.8</ele>
        <time>2011-07-03T09:36:18Z</time>
      </trkpt>
      <trkpt lat="47.31135" lon="-1.02897">
        <ele>43.8</ele>
        <time>2011-07-03T09:36:20Z</time>
      </trkpt>
      <trkpt lat="47.31152" lon="-1.02873">
        <ele>44.5</ele>
        <time>2011-07-03T09:36:29Z</time>
      </trkpt>
      <trkpt lat="47.31156" lon="-1.02868">
        <ele>44.4</ele>
        <time>2011-07-03T09:36:31Z</time>
      </trkpt>
      <trkpt lat="47.31207" lon="-1.02812">
        <ele>48.7</ele>
        <time>2011-07-03T09:36:55Z</time>
      </trkpt>
      <trkpt lat="47.31242" lon="-1.02764">
        <ele>50.5</ele>
        <time>2011-07-03T09:37:11Z</time>
      </trkpt>
      <trkpt lat="47.31244" lon="-1.02761">
        <ele>50.5</ele>
        <time>2011-07-03T09:37:12Z</time>
      </trkpt>
      <trkpt lat="47.31278" lon="-1.02691">
        <ele>51.6</ele>
        <time>2011-07-03T09:37:30Z</time>
      </trkpt>
      <trkpt lat="47.31284" lon="-1.02673">
        <ele>51.8</ele>
        <time>2011-07-03T09:37:35Z</time>
      </trkpt>
      <trkpt lat="47.31285" lon="-1.02669">
        <ele>51.7</ele>
        <time>2011-07-03T09:37:36Z</time>
      </trkpt>
      <trkpt lat="47.31286" lon="-1.02665">
        <ele>51.6</ele>
        <time>2011-07-03T09:37:37Z</time>
      </trkpt>
      <trkpt lat="47.31286" lon="-1.02661">
        <ele>51.6</ele>
        <time>2011-07-03T09:37:38Z</time>
      </trkpt>
      <trkpt lat="47.31287" lon="-1.02654">
        <ele>52</ele>
        <time>2011-07-03T09:37:40Z</time>
      </trkpt>
      <trkpt lat="47.31287" lon="-1.02652">
        <ele>52.3</ele>
        <time>2011-07-03T09:37:41Z</time>
      </trkpt>
      <trkpt lat="47.31288" lon="-1.02649">
        <ele>52.6</ele>
        <time>2011-07-03T09:37:42Z</time>
      </trkpt>
      <trkpt lat="47.31295" lon="-1.02636">
        <ele>53.3</ele>
        <time>2011-07-03T09:37:47Z</time>
      </trkpt>
      <trkpt lat="47.31297" lon="-1.02631">
        <ele>53.2</ele>
        <time>2011-07-03T09:37:48Z</time>
      </trkpt>
      <trkpt lat="47.31317" lon="-1.02579">
        <ele>52.3</ele>
        <time>2011-07-03T09:37:56Z</time>
      </trkpt>
      <trkpt lat="47.31324" lon="-1.02565">
        <ele>51.9</ele>
        <time>2011-07-03T09:37:58Z</time>
      </trkpt>
      <trkpt lat="47.31327" lon="-1.02559">
        <ele>51.6</ele>
        <time>2011-07-03T09:37:59Z</time>
      </trkpt>
      <trkpt lat="47.3133" lon="-1.02554">
        <ele>51.5</ele>
        <time>2011-07-03T09:38:00Z</time>
      </trkpt>
      <trkpt lat="47.31356" lon="-1.02523">
        <ele>51.8</ele>
        <time>2011-07-03T09:38:11Z</time>
      </trkpt>
      <trkpt lat="47.31359" lon="-1.02519">
        <ele>51.7</ele>
        <time>2011-07-03T09:38:13Z</time>
      </trkpt>
      <trkpt lat="47.3136" lon="-1.02517">
        <ele>51.6</ele>
        <time>2011-07-03T09:38:14Z</time>
      </trkpt>
      <trkpt lat="47.31361" lon="-1.02515">
        <ele>51.5</ele>
        <time>2011-07-03T09:38:15Z</time>
      </trkpt>
      <trkpt lat="47.31363" lon="-1.02513">
        <ele>51.5</ele>
        <time>2011-07-03T09:38:16Z</time>
      </trkpt>
      <trkpt lat="47.31377" lon="-1.02497">
        <ele>52.8</ele>
        <time>2011-07-03T09:38:27Z</time>
      </trkpt>
      <trkpt lat="47.31381" lon="-1.02493">
        <ele>53.1</ele>
        <time>2011-07-03T09:38:30Z</time>
      </trkpt>
      <trkpt lat="47.31382" lon="-1.02491">
        <ele>53.4</ele>
        <time>2011-07-03T09:38:31Z</time>
      </trkpt>
      <trkpt lat="47.31384" lon="-1.02488">
        <ele>53.8</ele>
        <time>2011-07-03T09:38:33Z</time>
      </trkpt>
      <trkpt lat="47.31385" lon="-1.02487">
        <ele>53.8</ele>
        <time>2011-07-03T09:38:34Z</time>
      </trkpt>
      <trkpt lat="47.31392" lon="-1.0248">
        <ele>54.9</ele>
        <time>2011-07-03T09:38:39Z</time>
      </trkpt>
      <trkpt lat="47.31402" lon="-1.02467">
        <ele>55.2</ele>
        <time>2011-07-03T09:38:46Z</time>
      </trkpt>
      <trkpt lat="47.31405" lon="-1.02463">
        <ele>55.6</ele>
        <time>2011-07-03T09:38:48Z</time>
      </trkpt>
      <trkpt lat="47.31414" lon="-1.02452">
        <ele>54.7</ele>
        <time>2011-07-03T09:38:54Z</time>
      </trkpt>
      <trkpt lat="47.31421" lon="-1.02441">
        <ele>55.7</ele>
        <time>2011-07-03T09:38:59Z</time>
      </trkpt>
      <trkpt lat="47.31424" lon="-1.02435">
        <ele>55.2</ele>
        <time>2011-07-03T09:39:01Z</time>
      </trkpt>
      <trkpt lat="47.31448" lon="-1.02381">
        <ele>54.2</ele>
        <time>2011-07-03T09:39:13Z</time>
      </trkpt>
      <trkpt lat="47.31456" lon="-1.0237">
        <ele>53.9</ele>
        <time>2011-07-03T09:39:16Z</time>
      </trkpt>
      <trkpt lat="47.31461" lon="-1.02364">
        <ele>53.5</ele>
        <time>2011-07-03T09:39:18Z</time>
      </trkpt>
      <trkpt lat="47.31465" lon="-1.02361">
        <ele>53.5</ele>
        <time>2011-07-03T09:39:19Z</time>
      </trkpt>
      <trkpt lat="47.31479" lon="-1.02352">
        <ele>53.2</ele>
        <time>2011-07-03T09:39:23Z</time>
      </trkpt>
      <trkpt lat="47.31544" lon="-1.02321">
        <ele>57.6</ele>
        <time>2011-07-03T09:39:42Z</time>
      </trkpt>
      <trkpt lat="47.31547" lon="-1.02319">
        <ele>57.7</ele>
        <time>2011-07-03T09:39:43Z</time>
      </trkpt>
      <trkpt lat="47.31565" lon="-1.02304">
        <ele>58</ele>
        <time>2011-07-03T09:39:48Z</time>
      </trkpt>
      <trkpt lat="47.31568" lon="-1.023">
        <ele>58</ele>
        <time>2011-07-03T09:39:49Z</time>
      </trkpt>
      <trkpt lat="47.31575" lon="-1.02291">
        <ele>57.8</ele>
        <time>2011-07-03T09:39:51Z</time>
      </trkpt>
      <trkpt lat="47.31585" lon="-1.02275">
        <ele>57.4</ele>
        <time>2011-07-03T09:39:54Z</time>
      </trkpt>
      <trkpt lat="47.31605" lon="-1.02237">
        <ele>56.7</ele>
        <time>2011-07-03T09:40:00Z</time>
      </trkpt>
      <trkpt lat="47.31609" lon="-1.02231">
        <ele>56.6</ele>
        <time>2011-07-03T09:40:01Z</time>
      </trkpt>
      <trkpt lat="47.31617" lon="-1.02221">
        <ele>55.9</ele>
        <time>2011-07-03T09:40:03Z</time>
      </trkpt>
      <trkpt lat="47.31621" lon="-1.02218">
        <ele>55.6</ele>
        <time>2011-07-03T09:40:04Z</time>
      </trkpt>
      <trkpt lat="47.31625" lon="-1.02217">
        <ele>55.3</ele>
        <time>2011-07-03T09:40:05Z</time>
      </trkpt>
      <trkpt lat="47.31629" lon="-1.02219">
        <ele>55</ele>
        <time>2011-07-03T09:40:06Z</time>
      </trkpt>
      <trkpt lat="47.31633" lon="-1.02222">
        <ele>54.8</ele>
        <time>2011-07-03T09:40:07Z</time>
      </trkpt>
      <trkpt lat="47.31637" lon="-1.02226">
        <ele>54.6</ele>
        <time>2011-07-03T09:40:08Z</time>
      </trkpt>
      <trkpt lat="47.31645" lon="-1.02236">
        <ele>54.4</ele>
        <time>2011-07-03T09:40:10Z</time>
      </trkpt>
      <trkpt lat="47.31649" lon="-1.02242">
        <ele>54.4</ele>
        <time>2011-07-03T09:40:11Z</time>
      </trkpt>
      <trkpt lat="47.31652" lon="-1.02248">
        <ele>54.3</ele>
        <time>2011-07-03T09:40:12Z</time>
      </trkpt>
      <trkpt lat="47.31657" lon="-1.02262">
        <ele>54.7</ele>
        <time>2011-07-03T09:40:14Z</time>
      </trkpt>
      <trkpt lat="47.31661" lon="-1.02269">
        <ele>54.8</ele>
        <time>2011-07-03T09:40:15Z</time>
      </trkpt>
      <trkpt lat="47.31665" lon="-1.02275">
        <ele>54.8</ele>
        <time>2011-07-03T09:40:16Z</time>
      </trkpt>
      <trkpt lat="47.31691" lon="-1.02307">
        <ele>53.7</ele>
        <time>2011-07-03T09:40:21Z</time>
      </trkpt>
      <trkpt lat="47.31695" lon="-1.02315">
        <ele>53.2</ele>
        <time>2011-07-03T09:40:22Z</time>
      </trkpt>
      <trkpt lat="47.31698" lon="-1.02325">
        <ele>52.8</ele>
        <time>2011-07-03T09:40:23Z</time>
      </trkpt>
      <trkpt lat="47.31699" lon="-1.02335">
        <ele>52.5</ele>
        <time>2011-07-03T09:40:24Z</time>
      </trkpt>
      <trkpt lat="47.31699" lon="-1.02344">
        <ele>52.2</ele>
        <time>2011-07-03T09:40:25Z</time>
      </trkpt>
      <trkpt lat="47.31698" lon="-1.02354">
        <ele>51.7</ele>
        <time>2011-07-03T09:40:26Z</time>
      </trkpt>
      <trkpt lat="47.31692" lon="-1.02456">
        <ele>49.6</ele>
        <time>2011-07-03T09:40:38Z</time>
      </trkpt>
      <trkpt lat="47.31693" lon="-1.02463">
        <ele>49.6</ele>
        <time>2011-07-03T09:40:39Z</time>
      </trkpt>
      <trkpt lat="47.31694" lon="-1.02468">
        <ele>49.6</ele>
        <time>2011-07-03T09:40:40Z</time>
      </trkpt>
      <trkpt lat="47.31697" lon="-1.02471">
        <ele>49.6</ele>
        <time>2011-07-03T09:40:41Z</time>
      </trkpt>
      <trkpt lat="47.317" lon="-1.02472">
        <ele>49.7</ele>
        <time>2011-07-03T09:40:42Z</time>
      </trkpt>
      <trkpt lat="47.31703" lon="-1.02471">
        <ele>49.7</ele>
        <time>2011-07-03T09:40:43Z</time>
      </trkpt>
      <trkpt lat="47.3179" lon="-1.02411">
        <ele>48.1</ele>
        <time>2011-07-03T09:41:04Z</time>
      </trkpt>
      <trkpt lat="47.31828" lon="-1.02379">
        <ele>47.8</ele>
        <time>2011-07-03T09:41:14Z</time>
      </trkpt>
      <trkpt lat="47.31889" lon="-1.02345">
        <ele>49.9</ele>
        <time>2011-07-03T09:41:36Z</time>
      </trkpt>
      <trkpt lat="47.31958" lon="-1.02294">
        <ele>53.5</ele>
        <time>2011-07-03T09:41:59Z</time>
      </trkpt>
      <trkpt lat="47.31961" lon="-1.02292">
        <ele>53.4</ele>
        <time>2011-07-03T09:42:00Z</time>
      </trkpt>
      <trkpt lat="47.32025" lon="-1.0226">
        <ele>55.6</ele>
        <time>2011-07-03T09:42:19Z</time>
      </trkpt>
      <trkpt lat="47.32037" lon="-1.02253">
        <ele>55.6</ele>
        <time>2011-07-03T09:42:23Z</time>
      </trkpt>
      <trkpt lat="47.3204" lon="-1.02253">
        <ele>55.4</ele>
        <time>2011-07-03T09:42:24Z</time>
      </trkpt>
      <trkpt lat="47.32043" lon="-1.02253">
        <ele>55.3</ele>
        <time>2011-07-03T09:42:25Z</time>
      </trkpt>
      <trkpt lat="47.32047" lon="-1.02254">
        <ele>55.2</ele>
        <time>2011-07-03T09:42:26Z</time>
      </trkpt>
      <trkpt lat="47.3205" lon="-1.02257">
        <ele>55.3</ele>
        <time>2011-07-03T09:42:27Z</time>
      </trkpt>
      <trkpt lat="47.32052" lon="-1.02262">
        <ele>55.3</ele>
        <time>2011-07-03T09:42:28Z</time>
      </trkpt>
      <trkpt lat="47.32054" lon="-1.02267">
        <ele>55.4</ele>
        <time>2011-07-03T09:42:29Z</time>
      </trkpt>
      <trkpt lat="47.32083" lon="-1.02362">
        <ele>52.6</ele>
        <time>2011-07-03T09:42:41Z</time>
      </trkpt>
      <trkpt lat="47.32087" lon="-1.02372">
        <ele>52.2</ele>
        <time>2011-07-03T09:42:42Z</time>
      </trkpt>
      <trkpt lat="47.32098" lon="-1.02392">
        <ele>50.5</ele>
        <time>2011-07-03T09:42:44Z</time>
      </trkpt>
      <trkpt lat="47.32107" lon="-1.02409">
        <ele>49.2</ele>
        <time>2011-07-03T09:42:46Z</time>
      </trkpt>
      <trkpt lat="47.32111" lon="-1.02414">
        <ele>48.6</ele>
        <time>2011-07-03T09:42:47Z</time>
      </trkpt>
      <trkpt lat="47.32115" lon="-1.02417">
        <ele>48.1</ele>
        <time>2011-07-03T09:42:48Z</time>
      </trkpt>
      <trkpt lat="47.32119" lon="-1.02417">
        <ele>47.2</ele>
        <time>2011-07-03T09:42:49Z</time>
      </trkpt>
      <trkpt lat="47.32123" lon="-1.02416">
        <ele>46.5</ele>
        <time>2011-07-03T09:42:50Z</time>
      </trkpt>
      <trkpt lat="47.32127" lon="-1.02414">
        <ele>46</ele>
        <time>2011-07-03T09:42:51Z</time>
      </trkpt>
      <trkpt lat="47.32286" lon="-1.02307">
        <ele>43.9</ele>
        <time>2011-07-03T09:43:25Z</time>
      </trkpt>
      <trkpt lat="47.32351" lon="-1.02278">
        <ele>42.2</ele>
        <time>2011-07-03T09:43:37Z</time>
      </trkpt>
      <trkpt lat="47.32356" lon="-1.02274">
        <ele>41.9</ele>
        <time>2011-07-03T09:43:38Z</time>
      </trkpt>
      <trkpt lat="47.32368" lon="-1.02261">
        <ele>41.4</ele>
        <time>2011-07-03T09:43:41Z</time>
      </trkpt>
      <trkpt lat="47.32373" lon="-1.02259">
        <ele>41.3</ele>
        <time>2011-07-03T09:43:42Z</time>
      </trkpt>
      <trkpt lat="47.32379" lon="-1.02259">
        <ele>41</ele>
        <time>2011-07-03T09:43:43Z</time>
      </trkpt>
      <trkpt lat="47.32384" lon="-1.0226">
        <ele>40.8</ele>
        <time>2011-07-03T09:43:44Z</time>
      </trkpt>
      <trkpt lat="47.32388" lon="-1.02263">
        <ele>40.7</ele>
        <time>2011-07-03T09:43:45Z</time>
      </trkpt>
      <trkpt lat="47.324" lon="-1.02272">
        <ele>36.7</ele>
        <time>2011-07-03T09:43:50Z</time>
      </trkpt>
      <trkpt lat="47.32402" lon="-1.02275">
        <ele>35.8</ele>
        <time>2011-07-03T09:43:51Z</time>
      </trkpt>
      <trkpt lat="47.32408" lon="-1.0228">
        <ele>34.1</ele>
        <time>2011-07-03T09:43:53Z</time>
      </trkpt>
      <trkpt lat="47.32435" lon="-1.02306">
        <ele>27.2</ele>
        <time>2011-07-03T09:44:00Z</time>
      </trkpt>
      <trkpt lat="47.32439" lon="-1.02308">
        <ele>25.8</ele>
        <time>2011-07-03T09:44:01Z</time>
      </trkpt>
      <trkpt lat="47.32442" lon="-1.02306">
        <ele>24.7</ele>
        <time>2011-07-03T09:44:02Z</time>
      </trkpt>
      <trkpt lat="47.32445" lon="-1.02303">
        <ele>23</ele>
        <time>2011-07-03T09:44:03Z</time>
      </trkpt>
      <trkpt lat="47.32449" lon="-1.02298">
        <ele>21.6</ele>
        <time>2011-07-03T09:44:04Z</time>
      </trkpt>
      <trkpt lat="47.32453" lon="-1.0229">
        <ele>20.6</ele>
        <time>2011-07-03T09:44:05Z</time>
      </trkpt>
      <trkpt lat="47.32455" lon="-1.02282">
        <ele>18.7</ele>
        <time>2011-07-03T09:44:06Z</time>
      </trkpt>
      <trkpt lat="47.32458" lon="-1.02266">
        <ele>16.2</ele>
        <time>2011-07-03T09:44:08Z</time>
      </trkpt>
      <trkpt lat="47.32459" lon="-1.02259">
        <ele>15.1</ele>
        <time>2011-07-03T09:44:09Z</time>
      </trkpt>
      <trkpt lat="47.32458" lon="-1.02253">
        <ele>14.3</ele>
        <time>2011-07-03T09:44:10Z</time>
      </trkpt>
      <trkpt lat="47.32458" lon="-1.02244">
        <ele>13.1</ele>
        <time>2011-07-03T09:44:12Z</time>
      </trkpt>
      <trkpt lat="47.32457" lon="-1.02237">
        <ele>12.4</ele>
        <time>2011-07-03T09:44:14Z</time>
      </trkpt>
      <trkpt lat="47.32457" lon="-1.02233">
        <ele>12.2</ele>
        <time>2011-07-03T09:44:15Z</time>
      </trkpt>
      <trkpt lat="47.32458" lon="-1.0223">
        <ele>12.2</ele>
        <time>2011-07-03T09:44:16Z</time>
      </trkpt>
      <trkpt lat="47.32459" lon="-1.02227">
        <ele>12.3</ele>
        <time>2011-07-03T09:44:17Z</time>
      </trkpt>
      <trkpt lat="47.3246" lon="-1.02225">
        <ele>12.3</ele>
        <time>2011-07-03T09:44:18Z</time>
      </trkpt>
      <trkpt lat="47.3246" lon="-1.02224">
        <ele>12.2</ele>
        <time>2011-07-03T09:44:19Z</time>
      </trkpt>
      <trkpt lat="47.3246" lon="-1.02224">
        <ele>12.2</ele>
        <time>2011-07-03T09:44:21Z</time>
      </trkpt>
      <trkpt lat="47.32461" lon="-1.02224">
        <ele>11.6</ele>
        <time>2011-07-03T09:44:23Z</time>
      </trkpt>
      <trkpt lat="47.32462" lon="-1.02224">
        <ele>11.4</ele>
        <time>2011-07-03T09:44:24Z</time>
      </trkpt>
      <trkpt lat="47.32463" lon="-1.02224">
        <ele>11.2</ele>
        <time>2011-07-03T09:44:27Z</time>
      </trkpt>
      <trkpt lat="47.32463" lon="-1.02224">
        <ele>11.1</ele>
        <time>2011-07-03T09:44:28Z</time>
      </trkpt>
      <trkpt lat="47.32464" lon="-1.02224">
        <ele>11.2</ele>
        <time>2011-07-03T09:44:31Z</time>
      </trkpt>
      <trkpt lat="47.32465" lon="-1.02224">
        <ele>11.7</ele>
        <time>2011-07-03T09:44:35Z</time>
      </trkpt>
      <trkpt lat="47.32465" lon="-1.02223">
        <ele>11.8</ele>
        <time>2011-07-03T09:44:36Z</time>
      </trkpt>
      <trkpt lat="47.32465" lon="-1.02223">
        <ele>11.8</ele>
        <time>2011-07-03T09:44:37Z</time>
      </trkpt>
      <trkpt lat="47.32465" lon="-1.02223">
        <ele>11.5</ele>
        <time>2011-07-03T09:44:38Z</time>
      </trkpt>
      <trkpt lat="47.32466" lon="-1.02224">
        <ele>11.1</ele>
        <time>2011-07-03T09:44:43Z</time>
      </trkpt>
      <trkpt lat="47.32466" lon="-1.02223">
        <ele>11.1</ele>
        <time>2011-07-03T09:44:45Z</time>
      </trkpt>
      <trkpt lat="47.32466" lon="-1.02222">
        <ele>10.9</ele>
        <time>2011-07-03T09:44:49Z</time>
      </trkpt>
      <trkpt lat="47.32466" lon="-1.02221">
        <ele>10.8</ele>
        <time>2011-07-03T09:44:50Z</time>
      </trkpt>
      <trkpt lat="47.32467" lon="-1.0222">
        <ele>11.1</ele>
        <time>2011-07-03T09:44:51Z</time>
      </trkpt>
      <trkpt lat="47.32467" lon="-1.0222">
        <ele>11.3</ele>
        <time>2011-07-03T09:44:52Z</time>
      </trkpt>
      <trkpt lat="47.32467" lon="-1.0222">
        <ele>10.6</ele>
        <time>2011-07-03T09:44:58Z</time>
      </trkpt>
      <trkpt lat="47.32467" lon="-1.02219">
        <ele>10.2</ele>
        <time>2011-07-03T09:45:02Z</time>
      </trkpt>
      <trkpt lat="47.32466" lon="-1.02219">
        <ele>10.5</ele>
        <time>2011-07-03T09:45:03Z</time>
      </trkpt>
      <trkpt lat="47.32466" lon="-1.02219">
        <ele>11.1</ele>
        <time>2011-07-03T09:45:06Z</time>
      </trkpt>
      <trkpt lat="47.32466" lon="-1.02218">
        <ele>10.9</ele>
        <time>2011-07-03T09:45:07Z</time>
      </trkpt>
      <trkpt lat="47.32465" lon="-1.02218">
        <ele>10.7</ele>
        <time>2011-07-03T09:45:08Z</time>
      </trkpt>
      <trkpt lat="47.32465" lon="-1.02217">
        <ele>10.6</ele>
        <time>2011-07-03T09:45:09Z</time>
      </trkpt>
      <trkpt lat="47.32465" lon="-1.02218">
        <ele>10.9</ele>
        <time>2011-07-03T09:45:11Z</time>
      </trkpt>
      <trkpt lat="47.32465" lon="-1.02217">
        <ele>11.1</ele>
        <time>2011-07-03T09:45:12Z</time>
      </trkpt>
      <trkpt lat="47.32465" lon="-1.02217">
        <ele>11.2</ele>
        <time>2011-07-03T09:45:16Z</time>
      </trkpt>
      <trkpt lat="47.32466" lon="-1.02216">
        <ele>11.5</ele>
        <time>2011-07-03T09:45:19Z</time>
      </trkpt>
      <trkpt lat="47.32467" lon="-1.02215">
        <ele>11.5</ele>
        <time>2011-07-03T09:45:20Z</time>
      </trkpt>
      <trkpt lat="47.32472" lon="-1.02198">
        <ele>11.4</ele>
        <time>2011-07-03T09:45:28Z</time>
      </trkpt>
      <trkpt lat="47.32473" lon="-1.02195">
        <ele>11.4</ele>
        <time>2011-07-03T09:45:29Z</time>
      </trkpt>
      <trkpt lat="47.32478" lon="-1.02166">
        <ele>11.9</ele>
        <time>2011-07-03T09:45:37Z</time>
      </trkpt>
      <trkpt lat="47.32479" lon="-1.02162">
        <ele>12</ele>
        <time>2011-07-03T09:45:38Z</time>
      </trkpt>
      <trkpt lat="47.32481" lon="-1.02158">
        <ele>12.1</ele>
        <time>2011-07-03T09:45:39Z</time>
      </trkpt>
      <trkpt lat="47.32483" lon="-1.02155">
        <ele>12.2</ele>
        <time>2011-07-03T09:45:40Z</time>
      </trkpt>
      <trkpt lat="47.32486" lon="-1.02152">
        <ele>12.3</ele>
        <time>2011-07-03T09:45:41Z</time>
      </trkpt>
      <trkpt lat="47.32488" lon="-1.0215">
        <ele>12</ele>
        <time>2011-07-03T09:45:42Z</time>
      </trkpt>
      <trkpt lat="47.32491" lon="-1.02149">
        <ele>11.9</ele>
        <time>2011-07-03T09:45:43Z</time>
      </trkpt>
      <trkpt lat="47.32494" lon="-1.02149">
        <ele>11.7</ele>
        <time>2011-07-03T09:45:44Z</time>
      </trkpt>
      <trkpt lat="47.32496" lon="-1.02151">
        <ele>11.7</ele>
        <time>2011-07-03T09:45:45Z</time>
      </trkpt>
      <trkpt lat="47.32497" lon="-1.02152">
        <ele>11.7</ele>
        <time>2011-07-03T09:45:46Z</time>
      </trkpt>
      <trkpt lat="47.32499" lon="-1.02153">
        <ele>11.7</ele>
        <time>2011-07-03T09:45:47Z</time>
      </trkpt>
      <trkpt lat="47.325" lon="-1.02156">
        <ele>13.1</ele>
        <time>2011-07-03T09:45:49Z</time>
      </trkpt>
      <trkpt lat="47.32501" lon="-1.02158">
        <ele>13.6</ele>
        <time>2011-07-03T09:45:50Z</time>
      </trkpt>
      <trkpt lat="47.32502" lon="-1.02162">
        <ele>14</ele>
        <time>2011-07-03T09:45:51Z</time>
      </trkpt>
      <trkpt lat="47.32503" lon="-1.02165">
        <ele>14.4</ele>
        <time>2011-07-03T09:45:52Z</time>
      </trkpt>
      <trkpt lat="47.32504" lon="-1.02168">
        <ele>14.6</ele>
        <time>2011-07-03T09:45:53Z</time>
      </trkpt>
      <trkpt lat="47.32505" lon="-1.02172">
        <ele>14.6</ele>
        <time>2011-07-03T09:45:54Z</time>
      </trkpt>
      <trkpt lat="47.32509" lon="-1.02229">
        <ele>14.2</ele>
        <time>2011-07-03T09:46:09Z</time>
      </trkpt>
      <trkpt lat="47.32511" lon="-1.02246">
        <ele>14.2</ele>
        <time>2011-07-03T09:46:13Z</time>
      </trkpt>
      <trkpt lat="47.32512" lon="-1.02251">
        <ele>14.2</ele>
        <time>2011-07-03T09:46:14Z</time>
      </trkpt>
      <trkpt lat="47.32515" lon="-1.02258">
        <ele>14.2</ele>
        <time>2011-07-03T09:46:16Z</time>
      </trkpt>
      <trkpt lat="47.32515" lon="-1.02262">
        <ele>14.3</ele>
        <time>2011-07-03T09:46:17Z</time>
      </trkpt>
      <trkpt lat="47.32514" lon="-1.02265">
        <ele>14.4</ele>
        <time>2011-07-03T09:46:18Z</time>
      </trkpt>
      <trkpt lat="47.32512" lon="-1.02269">
        <ele>14.4</ele>
        <time>2011-07-03T09:46:19Z</time>
      </trkpt>
      <trkpt lat="47.32511" lon="-1.02273">
        <ele>13.7</ele>
        <time>2011-07-03T09:46:20Z</time>
      </trkpt>
      <trkpt lat="47.32512" lon="-1.02275">
        <ele>13.2</ele>
        <time>2011-07-03T09:46:21Z</time>
      </trkpt>
      <trkpt lat="47.32513" lon="-1.02276">
        <ele>12.8</ele>
        <time>2011-07-03T09:46:22Z</time>
      </trkpt>
      <trkpt lat="47.32515" lon="-1.02277">
        <ele>12.6</ele>
        <time>2011-07-03T09:46:23Z</time>
      </trkpt>
      <trkpt lat="47.32517" lon="-1.02278">
        <ele>12.3</ele>
        <time>2011-07-03T09:46:24Z</time>
      </trkpt>
      <trkpt lat="47.32519" lon="-1.02278">
        <ele>12.2</ele>
        <time>2011-07-03T09:46:25Z</time>
      </trkpt>
      <trkpt lat="47.32521" lon="-1.02277">
        <ele>12.2</ele>
        <time>2011-07-03T09:46:26Z</time>
      </trkpt>
      <trkpt lat="47.32523" lon="-1.02276">
        <ele>12.3</ele>
        <time>2011-07-03T09:46:27Z</time>
      </trkpt>
      <trkpt lat="47.32532" lon="-1.0227">
        <ele>11.8</ele>
        <time>2011-07-03T09:46:31Z</time>
      </trkpt>
      <trkpt lat="47.3254" lon="-1.02263">
        <ele>11.9</ele>
        <time>2011-07-03T09:46:34Z</time>
      </trkpt>
      <trkpt lat="47.32569" lon="-1.02236">
        <ele>12.8</ele>
        <time>2011-07-03T09:46:46Z</time>
      </trkpt>
      <trkpt lat="47.32571" lon="-1.02233">
        <ele>13.1</ele>
        <time>2011-07-03T09:46:47Z</time>
      </trkpt>
      <trkpt lat="47.32581" lon="-1.02218">
        <ele>14.6</ele>
        <time>2011-07-03T09:46:54Z</time>
      </trkpt>
      <trkpt lat="47.32584" lon="-1.02213">
        <ele>14.5</ele>
        <time>2011-07-03T09:46:56Z</time>
      </trkpt>
      <trkpt lat="47.32586" lon="-1.02211">
        <ele>14.5</ele>
        <time>2011-07-03T09:46:57Z</time>
      </trkpt>
      <trkpt lat="47.32617" lon="-1.022">
        <ele>15.2</ele>
        <time>2011-07-03T09:47:09Z</time>
      </trkpt>
      <trkpt lat="47.32623" lon="-1.02196">
        <ele>16</ele>
        <time>2011-07-03T09:47:12Z</time>
      </trkpt>
      <trkpt lat="47.32626" lon="-1.02192">
        <ele>16.4</ele>
        <time>2011-07-03T09:47:14Z</time>
      </trkpt>
      <trkpt lat="47.32629" lon="-1.02191">
        <ele>16.5</ele>
        <time>2011-07-03T09:47:15Z</time>
      </trkpt>
      <trkpt lat="47.32646" lon="-1.02179">
        <ele>17.5</ele>
        <time>2011-07-03T09:47:23Z</time>
      </trkpt>
      <trkpt lat="47.32652" lon="-1.02176">
        <ele>18</ele>
        <time>2011-07-03T09:47:26Z</time>
      </trkpt>
      <trkpt lat="47.32655" lon="-1.02176">
        <ele>18.1</ele>
        <time>2011-07-03T09:47:27Z</time>
      </trkpt>
      <trkpt lat="47.32657" lon="-1.02176">
        <ele>18.2</ele>
        <time>2011-07-03T09:47:28Z</time>
      </trkpt>
      <trkpt lat="47.32659" lon="-1.02179">
        <ele>18.3</ele>
        <time>2011-07-03T09:47:29Z</time>
      </trkpt>
      <trkpt lat="47.32659" lon="-1.02182">
        <ele>18.1</ele>
        <time>2011-07-03T09:47:30Z</time>
      </trkpt>
      <trkpt lat="47.32658" lon="-1.02186">
        <ele>17.9</ele>
        <time>2011-07-03T09:47:31Z</time>
      </trkpt>
      <trkpt lat="47.32656" lon="-1.02189">
        <ele>17.8</ele>
        <time>2011-07-03T09:47:32Z</time>
      </trkpt>
      <trkpt lat="47.32571" lon="-1.02251">
        <ele>14.5</ele>
        <time>2011-07-03T09:47:52Z</time>
      </trkpt>
      <trkpt lat="47.32567" lon="-1.02257">
        <ele>14.3</ele>
        <time>2011-07-03T09:47:53Z</time>
      </trkpt>
      <trkpt lat="47.32564" lon="-1.02263">
        <ele>14.2</ele>
        <time>2011-07-03T09:47:54Z</time>
      </trkpt>
      <trkpt lat="47.32561" lon="-1.02269">
        <ele>14.1</ele>
        <time>2011-07-03T09:47:55Z</time>
      </trkpt>
      <trkpt lat="47.32559" lon="-1.02275">
        <ele>14</ele>
        <time>2011-07-03T09:47:56Z</time>
      </trkpt>
      <trkpt lat="47.32558" lon="-1.02281">
        <ele>13.9</ele>
        <time>2011-07-03T09:47:57Z</time>
      </trkpt>
      <trkpt lat="47.32558" lon="-1.02286">
        <ele>13.7</ele>
        <time>2011-07-03T09:47:58Z</time>
      </trkpt>
      <trkpt lat="47.32559" lon="-1.02288">
        <ele>13.5</ele>
        <time>2011-07-03T09:47:59Z</time>
      </trkpt>
      <trkpt lat="47.32559" lon="-1.02289">
        <ele>13.4</ele>
        <time>2011-07-03T09:48:00Z</time>
      </trkpt>
      <trkpt lat="47.32559" lon="-1.02289">
        <ele>13.3</ele>
        <time>2011-07-03T09:48:01Z</time>
      </trkpt>
      <trkpt lat="47.32559" lon="-1.0229">
        <ele>13</ele>
        <time>2011-07-03T09:48:03Z</time>
      </trkpt>
      <trkpt lat="47.32559" lon="-1.02291">
        <ele>12.9</ele>
        <time>2011-07-03T09:48:04Z</time>
      </trkpt>
      <trkpt lat="47.3256" lon="-1.02294">
        <ele>13.3</ele>
        <time>2011-07-03T09:48:07Z</time>
      </trkpt>
      <trkpt lat="47.3256" lon="-1.02295">
        <ele>13.4</ele>
        <time>2011-07-03T09:48:08Z</time>
      </trkpt>
      <trkpt lat="47.3256" lon="-1.02295">
        <ele>13.4</ele>
        <time>2011-07-03T09:48:09Z</time>
      </trkpt>
      <trkpt lat="47.32561" lon="-1.02295">
        <ele>13.4</ele>
        <time>2011-07-03T09:48:10Z</time>
      </trkpt>
      <trkpt lat="47.32564" lon="-1.02299">
        <ele>13.2</ele>
        <time>2011-07-03T09:48:14Z</time>
      </trkpt>
      <trkpt lat="47.32567" lon="-1.02303">
        <ele>13.5</ele>
        <time>2011-07-03T09:48:16Z</time>
      </trkpt>
      <trkpt lat="47.32569" lon="-1.02305">
        <ele>13.6</ele>
        <time>2011-07-03T09:48:17Z</time>
      </trkpt>
      <trkpt lat="47.32577" lon="-1.02312">
        <ele>12.6</ele>
        <time>2011-07-03T09:48:20Z</time>
      </trkpt>
      <trkpt lat="47.32585" lon="-1.02318">
        <ele>12.3</ele>
        <time>2011-07-03T09:48:22Z</time>
      </trkpt>
      <trkpt lat="47.32589" lon="-1.0232">
        <ele>12.3</ele>
        <time>2011-07-03T09:48:23Z</time>
      </trkpt>
      <trkpt lat="47.32608" lon="-1.02325">
        <ele>12.5</ele>
        <time>2011-07-03T09:48:28Z</time>
      </trkpt>
      <trkpt lat="47.32611" lon="-1.02327">
        <ele>12.3</ele>
        <time>2011-07-03T09:48:29Z</time>
      </trkpt>
      <trkpt lat="47.32614" lon="-1.0233">
        <ele>12.1</ele>
        <time>2011-07-03T09:48:30Z</time>
      </trkpt>
      <trkpt lat="47.32627" lon="-1.02342">
        <ele>11.9</ele>
        <time>2011-07-03T09:48:34Z</time>
      </trkpt>
      <trkpt lat="47.32631" lon="-1.02344">
        <ele>11.9</ele>
        <time>2011-07-03T09:48:35Z</time>
      </trkpt>
      <trkpt lat="47.32635" lon="-1.02346">
        <ele>11.9</ele>
        <time>2011-07-03T09:48:36Z</time>
      </trkpt>
      <trkpt lat="47.32654" lon="-1.02351">
        <ele>11.9</ele>
        <time>2011-07-03T09:48:41Z</time>
      </trkpt>
      <trkpt lat="47.32668" lon="-1.02359">
        <ele>11.4</ele>
        <time>2011-07-03T09:48:45Z</time>
      </trkpt>
      <trkpt lat="47.3271" lon="-1.02366">
        <ele>12.2</ele>
        <time>2011-07-03T09:48:57Z</time>
      </trkpt>
      <trkpt lat="47.32721" lon="-1.02364">
        <ele>12.7</ele>
        <time>2011-07-03T09:49:01Z</time>
      </trkpt>
      <trkpt lat="47.32727" lon="-1.02364">
        <ele>12.7</ele>
        <time>2011-07-03T09:49:03Z</time>
      </trkpt>
      <trkpt lat="47.32733" lon="-1.02364">
        <ele>12.6</ele>
        <time>2011-07-03T09:49:05Z</time>
      </trkpt>
      <trkpt lat="47.3274" lon="-1.02364">
        <ele>12</ele>
        <time>2011-07-03T09:49:07Z</time>
      </trkpt>
      <trkpt lat="47.32747" lon="-1.02364">
        <ele>12.1</ele>
        <time>2011-07-03T09:49:09Z</time>
      </trkpt>
      <trkpt lat="47.32783" lon="-1.0237">
        <ele>12.4</ele>
        <time>2011-07-03T09:49:20Z</time>
      </trkpt>
      <trkpt lat="47.32825" lon="-1.02383">
        <ele>12.9</ele>
        <time>2011-07-03T09:49:32Z</time>
      </trkpt>
      <trkpt lat="47.32839" lon="-1.02387">
        <ele>12.4</ele>
        <time>2011-07-03T09:49:36Z</time>
      </trkpt>
      <trkpt lat="47.3292" lon="-1.02431">
        <ele>12.1</ele>
        <time>2011-07-03T09:50:01Z</time>
      </trkpt>
      <trkpt lat="47.32927" lon="-1.02434">
        <ele>12</ele>
        <time>2011-07-03T09:50:03Z</time>
      </trkpt>
      <trkpt lat="47.3303" lon="-1.02453">
        <ele>12.8</ele>
        <time>2011-07-03T09:50:37Z</time>
      </trkpt>
      <trkpt lat="47.33033" lon="-1.02454">
        <ele>13</ele>
        <time>2011-07-03T09:50:38Z</time>
      </trkpt>
      <trkpt lat="47.33042" lon="-1.02461">
        <ele>13.5</ele>
        <time>2011-07-03T09:50:41Z</time>
      </trkpt>
      <trkpt lat="47.33068" lon="-1.02484">
        <ele>12.3</ele>
        <time>2011-07-03T09:50:52Z</time>
      </trkpt>
      <trkpt lat="47.33073" lon="-1.02492">
        <ele>12.8</ele>
        <time>2011-07-03T09:50:56Z</time>
      </trkpt>
      <trkpt lat="47.33074" lon="-1.02492">
        <ele>12.9</ele>
        <time>2011-07-03T09:50:57Z</time>
      </trkpt>
      <trkpt lat="47.33074" lon="-1.02492">
        <ele>12.8</ele>
        <time>2011-07-03T09:50:58Z</time>
      </trkpt>
      <trkpt lat="47.33076" lon="-1.02494">
        <ele>12.7</ele>
        <time>2011-07-03T09:51:00Z</time>
      </trkpt>
      <trkpt lat="47.33077" lon="-1.02495">
        <ele>13.2</ele>
        <time>2011-07-03T09:51:01Z</time>
      </trkpt>
      <trkpt lat="47.33077" lon="-1.02495">
        <ele>13.5</ele>
        <time>2011-07-03T09:51:02Z</time>
      </trkpt>
      <trkpt lat="47.33078" lon="-1.02496">
        <ele>13.8</ele>
        <time>2011-07-03T09:51:03Z</time>
      </trkpt>
      <trkpt lat="47.33078" lon="-1.02496">
        <ele>14</ele>
        <time>2011-07-03T09:51:04Z</time>
      </trkpt>
      <trkpt lat="47.3308" lon="-1.02497">
        <ele>14.7</ele>
        <time>2011-07-03T09:51:07Z</time>
      </trkpt>
      <trkpt lat="47.3308" lon="-1.02497">
        <ele>15</ele>
        <time>2011-07-03T09:51:08Z</time>
      </trkpt>
      <trkpt lat="47.33081" lon="-1.02497">
        <ele>15.2</ele>
        <time>2011-07-03T09:51:09Z</time>
      </trkpt>
      <trkpt lat="47.33081" lon="-1.02498">
        <ele>15.2</ele>
        <time>2011-07-03T09:51:10Z</time>
      </trkpt>
      <trkpt lat="47.33082" lon="-1.025">
        <ele>15.3</ele>
        <time>2011-07-03T09:51:12Z</time>
      </trkpt>
      <trkpt lat="47.33082" lon="-1.02501">
        <ele>15.4</ele>
        <time>2011-07-03T09:51:13Z</time>
      </trkpt>
      <trkpt lat="47.33084" lon="-1.02504">
        <ele>16.1</ele>
        <time>2011-07-03T09:51:16Z</time>
      </trkpt>
      <trkpt lat="47.33084" lon="-1.02505">
        <ele>16.4</ele>
        <time>2011-07-03T09:51:17Z</time>
      </trkpt>
      <trkpt lat="47.33085" lon="-1.02507">
        <ele>16.7</ele>
        <time>2011-07-03T09:51:19Z</time>
      </trkpt>
      <trkpt lat="47.33086" lon="-1.02508">
        <ele>16.8</ele>
        <time>2011-07-03T09:51:20Z</time>
      </trkpt>
      <trkpt lat="47.33086" lon="-1.02508">
        <ele>16.9</ele>
        <time>2011-07-03T09:51:21Z</time>
      </trkpt>
      <trkpt lat="47.33086" lon="-1.02509">
        <ele>16.9</ele>
        <time>2011-07-03T09:51:22Z</time>
      </trkpt>
      <trkpt lat="47.33087" lon="-1.02509">
        <ele>16.9</ele>
        <time>2011-07-03T09:51:23Z</time>
      </trkpt>
      <trkpt lat="47.33089" lon="-1.02511">
        <ele>16.8</ele>
        <time>2011-07-03T09:51:25Z</time>
      </trkpt>
      <trkpt lat="47.3309" lon="-1.02512">
        <ele>16.9</ele>
        <time>2011-07-03T09:51:26Z</time>
      </trkpt>
      <trkpt lat="47.33099" lon="-1.02517">
        <ele>17.9</ele>
        <time>2011-07-03T09:51:32Z</time>
      </trkpt>
      <trkpt lat="47.331" lon="-1.02519">
        <ele>17.8</ele>
        <time>2011-07-03T09:51:33Z</time>
      </trkpt>
      <trkpt lat="47.33101" lon="-1.02521">
        <ele>17.8</ele>
        <time>2011-07-03T09:51:34Z</time>
      </trkpt>
      <trkpt lat="47.33103" lon="-1.02522">
        <ele>17.7</ele>
        <time>2011-07-03T09:51:35Z</time>
      </trkpt>
      <trkpt lat="47.33104" lon="-1.02523">
        <ele>17.7</ele>
        <time>2011-07-03T09:51:36Z</time>
      </trkpt>
      <trkpt lat="47.33107" lon="-1.02528">
        <ele>17.9</ele>
        <time>2011-07-03T09:51:39Z</time>
      </trkpt>
      <trkpt lat="47.33112" lon="-1.02533">
        <ele>18.6</ele>
        <time>2011-07-03T09:51:42Z</time>
      </trkpt>
      <trkpt lat="47.33133" lon="-1.02551">
        <ele>20.2</ele>
        <time>2011-07-03T09:51:53Z</time>
      </trkpt>
      <trkpt lat="47.33134" lon="-1.02552">
        <ele>20.3</ele>
        <time>2011-07-03T09:51:54Z</time>
      </trkpt>
      <trkpt lat="47.33135" lon="-1.02552">
        <ele>20.1</ele>
        <time>2011-07-03T09:51:55Z</time>
      </trkpt>
      <trkpt lat="47.33136" lon="-1.02552">
        <ele>19.9</ele>
        <time>2011-07-03T09:51:56Z</time>
      </trkpt>
      <trkpt lat="47.3314" lon="-1.02555">
        <ele>19.2</ele>
        <time>2011-07-03T09:51:59Z</time>
      </trkpt>
      <trkpt lat="47.33142" lon="-1.02558">
        <ele>19</ele>
        <time>2011-07-03T09:52:00Z</time>
      </trkpt>
      <trkpt lat="47.33144" lon="-1.02561">
        <ele>19.3</ele>
        <time>2011-07-03T09:52:01Z</time>
      </trkpt>
      <trkpt lat="47.33146" lon="-1.02565">
        <ele>19.5</ele>
        <time>2011-07-03T09:52:02Z</time>
      </trkpt>
      <trkpt lat="47.33154" lon="-1.0259">
        <ele>17.9</ele>
        <time>2011-07-03T09:52:10Z</time>
      </trkpt>
      <trkpt lat="47.33155" lon="-1.02595">
        <ele>18.1</ele>
        <time>2011-07-03T09:52:12Z</time>
      </trkpt>
      <trkpt lat="47.33155" lon="-1.02598">
        <ele>18.1</ele>
        <time>2011-07-03T09:52:13Z</time>
      </trkpt>
      <trkpt lat="47.33155" lon="-1.02605">
        <ele>19.6</ele>
        <time>2011-07-03T09:52:16Z</time>
      </trkpt>
      <trkpt lat="47.33154" lon="-1.02619">
        <ele>20.8</ele>
        <time>2011-07-03T09:52:21Z</time>
      </trkpt>
      <trkpt lat="47.33154" lon="-1.02635">
        <ele>21.3</ele>
        <time>2011-07-03T09:52:24Z</time>
      </trkpt>
      <trkpt lat="47.33154" lon="-1.02643">
        <ele>21.5</ele>
        <time>2011-07-03T09:52:25Z</time>
      </trkpt>
      <trkpt lat="47.33155" lon="-1.0265">
        <ele>21.6</ele>
        <time>2011-07-03T09:52:26Z</time>
      </trkpt>
      <trkpt lat="47.33157" lon="-1.02664">
        <ele>20.2</ele>
        <time>2011-07-03T09:52:28Z</time>
      </trkpt>
      <trkpt lat="47.33159" lon="-1.0267">
        <ele>19.7</ele>
        <time>2011-07-03T09:52:29Z</time>
      </trkpt>
      <trkpt lat="47.33162" lon="-1.02675">
        <ele>19</ele>
        <time>2011-07-03T09:52:30Z</time>
      </trkpt>
      <trkpt lat="47.33165" lon="-1.02678">
        <ele>18.4</ele>
        <time>2011-07-03T09:52:31Z</time>
      </trkpt>
      <trkpt lat="47.33202" lon="-1.02712">
        <ele>16.8</ele>
        <time>2011-07-03T09:52:45Z</time>
      </trkpt>
      <trkpt lat="47.33213" lon="-1.02721">
        <ele>16.7</ele>
        <time>2011-07-03T09:52:49Z</time>
      </trkpt>
      <trkpt lat="47.33217" lon="-1.02723">
        <ele>17</ele>
        <time>2011-07-03T09:52:50Z</time>
      </trkpt>
      <trkpt lat="47.33221" lon="-1.02724">
        <ele>17.2</ele>
        <time>2011-07-03T09:52:51Z</time>
      </trkpt>
      <trkpt lat="47.33225" lon="-1.02725">
        <ele>17.1</ele>
        <time>2011-07-03T09:52:52Z</time>
      </trkpt>
      <trkpt lat="47.33229" lon="-1.02724">
        <ele>17</ele>
        <time>2011-07-03T09:52:53Z</time>
      </trkpt>
      <trkpt lat="47.33232" lon="-1.02723">
        <ele>17</ele>
        <time>2011-07-03T09:52:54Z</time>
      </trkpt>
      <trkpt lat="47.33241" lon="-1.02715">
        <ele>17.1</ele>
        <time>2011-07-03T09:52:59Z</time>
      </trkpt>
      <trkpt lat="47.33256" lon="-1.02695">
        <ele>19.7</ele>
        <time>2011-07-03T09:53:13Z</time>
      </trkpt>
      <trkpt lat="47.33263" lon="-1.02683">
        <ele>20.4</ele>
        <time>2011-07-03T09:53:20Z</time>
      </trkpt>
      <trkpt lat="47.33263" lon="-1.02681">
        <ele>21.1</ele>
        <time>2011-07-03T09:53:21Z</time>
      </trkpt>
      <trkpt lat="47.33274" lon="-1.02666">
        <ele>23.7</ele>
        <time>2011-07-03T09:53:31Z</time>
      </trkpt>
      <trkpt lat="47.33275" lon="-1.02663">
        <ele>24.1</ele>
        <time>2011-07-03T09:53:33Z</time>
      </trkpt>
      <trkpt lat="47.33277" lon="-1.0266">
        <ele>24.5</ele>
        <time>2011-07-03T09:53:35Z</time>
      </trkpt>
      <trkpt lat="47.33277" lon="-1.02658">
        <ele>24.7</ele>
        <time>2011-07-03T09:53:36Z</time>
      </trkpt>
      <trkpt lat="47.33287" lon="-1.0264">
        <ele>27.1</ele>
        <time>2011-07-03T09:53:46Z</time>
      </trkpt>
      <trkpt lat="47.33299" lon="-1.02615">
        <ele>30.4</ele>
        <time>2011-07-03T09:53:59Z</time>
      </trkpt>
      <trkpt lat="47.333" lon="-1.02611">
        <ele>30.4</ele>
        <time>2011-07-03T09:54:01Z</time>
      </trkpt>
      <trkpt lat="47.33304" lon="-1.02603">
        <ele>31</ele>
        <time>2011-07-03T09:54:05Z</time>
      </trkpt>
      <trkpt lat="47.33306" lon="-1.02598">
        <ele>31</ele>
        <time>2011-07-03T09:54:08Z</time>
      </trkpt>
      <trkpt lat="47.33307" lon="-1.02596">
        <ele>31.2</ele>
        <time>2011-07-03T09:54:09Z</time>
      </trkpt>
      <trkpt lat="47.33309" lon="-1.0259">
        <ele>31.8</ele>
        <time>2011-07-03T09:54:12Z</time>
      </trkpt>
      <trkpt lat="47.3331" lon="-1.02589">
        <ele>32.1</ele>
        <time>2011-07-03T09:54:13Z</time>
      </trkpt>
      <trkpt lat="47.33311" lon="-1.02587">
        <ele>32.4</ele>
        <time>2011-07-03T09:54:14Z</time>
      </trkpt>
      <trkpt lat="47.33312" lon="-1.02585">
        <ele>32.6</ele>
        <time>2011-07-03T09:54:15Z</time>
      </trkpt>
      <trkpt lat="47.33313" lon="-1.02583">
        <ele>32.6</ele>
        <time>2011-07-03T09:54:16Z</time>
      </trkpt>
      <trkpt lat="47.33317" lon="-1.02576">
        <ele>33.1</ele>
        <time>2011-07-03T09:54:20Z</time>
      </trkpt>
      <trkpt lat="47.33318" lon="-1.02575">
        <ele>33.2</ele>
        <time>2011-07-03T09:54:21Z</time>
      </trkpt>
      <trkpt lat="47.3332" lon="-1.02573">
        <ele>33.5</ele>
        <time>2011-07-03T09:54:22Z</time>
      </trkpt>
      <trkpt lat="47.33323" lon="-1.02568">
        <ele>33.8</ele>
        <time>2011-07-03T09:54:24Z</time>
      </trkpt>
      <trkpt lat="47.33324" lon="-1.02566">
        <ele>33.9</ele>
        <time>2011-07-03T09:54:25Z</time>
      </trkpt>
      <trkpt lat="47.33325" lon="-1.02564">
        <ele>33.9</ele>
        <time>2011-07-03T09:54:26Z</time>
      </trkpt>
      <trkpt lat="47.33332" lon="-1.02555">
        <ele>34.1</ele>
        <time>2011-07-03T09:54:30Z</time>
      </trkpt>
      <trkpt lat="47.33336" lon="-1.02549">
        <ele>34.2</ele>
        <time>2011-07-03T09:54:33Z</time>
      </trkpt>
      <trkpt lat="47.33337" lon="-1.02548">
        <ele>34.2</ele>
        <time>2011-07-03T09:54:34Z</time>
      </trkpt>
      <trkpt lat="47.33357" lon="-1.02527">
        <ele>36.5</ele>
        <time>2011-07-03T09:54:46Z</time>
      </trkpt>
      <trkpt lat="47.3336" lon="-1.02523">
        <ele>37.2</ele>
        <time>2011-07-03T09:54:48Z</time>
      </trkpt>
      <trkpt lat="47.33377" lon="-1.025">
        <ele>39.5</ele>
        <time>2011-07-03T09:55:00Z</time>
      </trkpt>
      <trkpt lat="47.33382" lon="-1.02495">
        <ele>40.5</ele>
        <time>2011-07-03T09:55:04Z</time>
      </trkpt>
      <trkpt lat="47.33401" lon="-1.02472">
        <ele>40.7</ele>
        <time>2011-07-03T09:55:16Z</time>
      </trkpt>
      <trkpt lat="47.33407" lon="-1.02464">
        <ele>40.9</ele>
        <time>2011-07-03T09:55:20Z</time>
      </trkpt>
      <trkpt lat="47.33408" lon="-1.02461">
        <ele>40.9</ele>
        <time>2011-07-03T09:55:21Z</time>
      </trkpt>
      <trkpt lat="47.33409" lon="-1.02459">
        <ele>41.1</ele>
        <time>2011-07-03T09:55:22Z</time>
      </trkpt>
      <trkpt lat="47.33409" lon="-1.02457">
        <ele>41.2</ele>
        <time>2011-07-03T09:55:23Z</time>
      </trkpt>
      <trkpt lat="47.33427" lon="-1.02349">
        <ele>48.7</ele>
        <time>2011-07-03T09:56:03Z</time>
      </trkpt>
      <trkpt lat="47.33427" lon="-1.02343">
        <ele>49.1</ele>
        <time>2011-07-03T09:56:05Z</time>
      </trkpt>
      <trkpt lat="47.33427" lon="-1.0234">
        <ele>49.2</ele>
        <time>2011-07-03T09:56:06Z</time>
      </trkpt>
      <trkpt lat="47.33426" lon="-1.02337">
        <ele>49.5</ele>
        <time>2011-07-03T09:56:07Z</time>
      </trkpt>
      <trkpt lat="47.33426" lon="-1.02334">
        <ele>49.7</ele>
        <time>2011-07-03T09:56:08Z</time>
      </trkpt>
      <trkpt lat="47.33427" lon="-1.02332">
        <ele>49.8</ele>
        <time>2011-07-03T09:56:09Z</time>
      </trkpt>
      <trkpt lat="47.33429" lon="-1.0233">
        <ele>50</ele>
        <time>2011-07-03T09:56:10Z</time>
      </trkpt>
      <trkpt lat="47.3343" lon="-1.02331">
        <ele>50.1</ele>
        <time>2011-07-03T09:56:11Z</time>
      </trkpt>
      <trkpt lat="47.33431" lon="-1.02332">
        <ele>50.2</ele>
        <time>2011-07-03T09:56:12Z</time>
      </trkpt>
      <trkpt lat="47.33433" lon="-1.02334">
        <ele>50.2</ele>
        <time>2011-07-03T09:56:13Z</time>
      </trkpt>
      <trkpt lat="47.33434" lon="-1.02336">
        <ele>50.4</ele>
        <time>2011-07-03T09:56:14Z</time>
      </trkpt>
      <trkpt lat="47.33435" lon="-1.02339">
        <ele>50.5</ele>
        <time>2011-07-03T09:56:15Z</time>
      </trkpt>
      <trkpt lat="47.33437" lon="-1.02352">
        <ele>50.3</ele>
        <time>2011-07-03T09:56:19Z</time>
      </trkpt>
      <trkpt lat="47.33453" lon="-1.02454">
        <ele>49.4</ele>
        <time>2011-07-03T09:56:44Z</time>
      </trkpt>
      <trkpt lat="47.33453" lon="-1.02458">
        <ele>49.2</ele>
        <time>2011-07-03T09:56:45Z</time>
      </trkpt>
      <trkpt lat="47.33457" lon="-1.02479">
        <ele>49.1</ele>
        <time>2011-07-03T09:56:50Z</time>
      </trkpt>
      <trkpt lat="47.33459" lon="-1.02486">
        <ele>49</ele>
        <time>2011-07-03T09:56:52Z</time>
      </trkpt>
      <trkpt lat="47.33462" lon="-1.02507">
        <ele>48.8</ele>
        <time>2011-07-03T09:56:57Z</time>
      </trkpt>
      <trkpt lat="47.33466" lon="-1.02521">
        <ele>48.3</ele>
        <time>2011-07-03T09:57:00Z</time>
      </trkpt>
      <trkpt lat="47.33552" lon="-1.02772">
        <ele>48.4</ele>
        <time>2011-07-03T09:57:43Z</time>
      </trkpt>
      <trkpt lat="47.33555" lon="-1.02778">
        <ele>48.3</ele>
        <time>2011-07-03T09:57:44Z</time>
      </trkpt>
      <trkpt lat="47.33564" lon="-1.02796">
        <ele>47.5</ele>
        <time>2011-07-03T09:57:47Z</time>
      </trkpt>
      <trkpt lat="47.33568" lon="-1.02801">
        <ele>47.2</ele>
        <time>2011-07-03T09:57:48Z</time>
      </trkpt>
      <trkpt lat="47.33572" lon="-1.02805">
        <ele>47.4</ele>
        <time>2011-07-03T09:57:49Z</time>
      </trkpt>
      <trkpt lat="47.33576" lon="-1.02809">
        <ele>47.5</ele>
        <time>2011-07-03T09:57:50Z</time>
      </trkpt>
      <trkpt lat="47.33581" lon="-1.02812">
        <ele>47.6</ele>
        <time>2011-07-03T09:57:51Z</time>
      </trkpt>
      <trkpt lat="47.33623" lon="-1.02837">
        <ele>46.5</ele>
        <time>2011-07-03T09:58:00Z</time>
      </trkpt>
      <trkpt lat="47.33627" lon="-1.02841">
        <ele>46.5</ele>
        <time>2011-07-03T09:58:01Z</time>
      </trkpt>
      <trkpt lat="47.33629" lon="-1.02847">
        <ele>46.6</ele>
        <time>2011-07-03T09:58:02Z</time>
      </trkpt>
      <trkpt lat="47.3363" lon="-1.02854">
        <ele>46.6</ele>
        <time>2011-07-03T09:58:03Z</time>
      </trkpt>
      <trkpt lat="47.33635" lon="-1.02956">
        <ele>46.1</ele>
        <time>2011-07-03T09:58:17Z</time>
      </trkpt>
      <trkpt lat="47.33634" lon="-1.02964">
        <ele>46.2</ele>
        <time>2011-07-03T09:58:18Z</time>
      </trkpt>
      <trkpt lat="47.33633" lon="-1.02971">
        <ele>46.2</ele>
        <time>2011-07-03T09:58:19Z</time>
      </trkpt>
      <trkpt lat="47.33618" lon="-1.03037">
        <ele>45.6</ele>
        <time>2011-07-03T09:58:28Z</time>
      </trkpt>
      <trkpt lat="47.33612" lon="-1.03058">
        <ele>45.7</ele>
        <time>2011-07-03T09:58:31Z</time>
      </trkpt>
      <trkpt lat="47.33607" lon="-1.03071">
        <ele>46.1</ele>
        <time>2011-07-03T09:58:33Z</time>
      </trkpt>
      <trkpt lat="47.33601" lon="-1.03084">
        <ele>45.8</ele>
        <time>2011-07-03T09:58:35Z</time>
      </trkpt>
      <trkpt lat="47.33498" lon="-1.03262">
        <ele>44</ele>
        <time>2011-07-03T09:59:03Z</time>
      </trkpt>
      <trkpt lat="47.33429" lon="-1.03378">
        <ele>38.6</ele>
        <time>2011-07-03T09:59:14Z</time>
      </trkpt>
      <trkpt lat="47.3337" lon="-1.03562">
        <ele>19.5</ele>
        <time>2011-07-03T09:59:26Z</time>
      </trkpt>
      <trkpt lat="47.33367" lon="-1.03566">
        <ele>18</ele>
        <time>2011-07-03T09:59:27Z</time>
      </trkpt>
      <trkpt lat="47.33363" lon="-1.03567">
        <ele>16.5</ele>
        <time>2011-07-03T09:59:28Z</time>
      </trkpt>
      <trkpt lat="47.33354" lon="-1.03569">
        <ele>14.4</ele>
        <time>2011-07-03T09:59:30Z</time>
      </trkpt>
      <trkpt lat="47.33338" lon="-1.03574">
        <ele>12.6</ele>
        <time>2011-07-03T09:59:34Z</time>
      </trkpt>
      <trkpt lat="47.33333" lon="-1.03577">
        <ele>12.1</ele>
        <time>2011-07-03T09:59:35Z</time>
      </trkpt>
      <trkpt lat="47.3333" lon="-1.03581">
        <ele>11.8</ele>
        <time>2011-07-03T09:59:36Z</time>
      </trkpt>
      <trkpt lat="47.33328" lon="-1.03587">
        <ele>11.5</ele>
        <time>2011-07-03T09:59:37Z</time>
      </trkpt>
      <trkpt lat="47.33327" lon="-1.03592">
        <ele>11.2</ele>
        <time>2011-07-03T09:59:38Z</time>
      </trkpt>
      <trkpt lat="47.33326" lon="-1.03596">
        <ele>10.9</ele>
        <time>2011-07-03T09:59:39Z</time>
      </trkpt>
      <trkpt lat="47.33327" lon="-1.03599">
        <ele>10.7</ele>
        <time>2011-07-03T09:59:40Z</time>
      </trkpt>
      <trkpt lat="47.33327" lon="-1.03601">
        <ele>10.3</ele>
        <time>2011-07-03T09:59:41Z</time>
      </trkpt>
      <trkpt lat="47.33329" lon="-1.03604">
        <ele>9.9</ele>
        <time>2011-07-03T09:59:42Z</time>
      </trkpt>
      <trkpt lat="47.3333" lon="-1.03605">
        <ele>9.7</ele>
        <time>2011-07-03T09:59:43Z</time>
      </trkpt>
      <trkpt lat="47.33332" lon="-1.03607">
        <ele>9.7</ele>
        <time>2011-07-03T09:59:44Z</time>
      </trkpt>
      <trkpt lat="47.33334" lon="-1.0361">
        <ele>9.8</ele>
        <time>2011-07-03T09:59:46Z</time>
      </trkpt>
      <trkpt lat="47.33334" lon="-1.0361">
        <ele>9.5</ele>
        <time>2011-07-03T09:59:47Z</time>
      </trkpt>
      <trkpt lat="47.33334" lon="-1.03611">
        <ele>9</ele>
        <time>2011-07-03T09:59:49Z</time>
      </trkpt>
      <trkpt lat="47.33335" lon="-1.03612">
        <ele>8.9</ele>
        <time>2011-07-03T09:59:50Z</time>
      </trkpt>
      <trkpt lat="47.33338" lon="-1.03615">
        <ele>8.9</ele>
        <time>2011-07-03T09:59:52Z</time>
      </trkpt>
      <trkpt lat="47.33342" lon="-1.0362">
        <ele>9</ele>
        <time>2011-07-03T09:59:55Z</time>
      </trkpt>
      <trkpt lat="47.33358" lon="-1.03633">
        <ele>10.1</ele>
        <time>2011-07-03T10:00:04Z</time>
      </trkpt>
      <trkpt lat="47.33359" lon="-1.03634">
        <ele>10.1</ele>
        <time>2011-07-03T10:00:05Z</time>
      </trkpt>
      <trkpt lat="47.33359" lon="-1.03634">
        <ele>10.1</ele>
        <time>2011-07-03T10:00:06Z</time>
      </trkpt>
      <trkpt lat="47.3336" lon="-1.03635">
        <ele>9.9</ele>
        <time>2011-07-03T10:00:07Z</time>
      </trkpt>
      <trkpt lat="47.3336" lon="-1.03635">
        <ele>9.7</ele>
        <time>2011-07-03T10:00:08Z</time>
      </trkpt>
      <trkpt lat="47.33361" lon="-1.03636">
        <ele>9.5</ele>
        <time>2011-07-03T10:00:09Z</time>
      </trkpt>
      <trkpt lat="47.33362" lon="-1.03636">
        <ele>9.7</ele>
        <time>2011-07-03T10:00:10Z</time>
      </trkpt>
      <trkpt lat="47.33363" lon="-1.03637">
        <ele>9.9</ele>
        <time>2011-07-03T10:00:12Z</time>
      </trkpt>
      <trkpt lat="47.33365" lon="-1.03638">
        <ele>10.2</ele>
        <time>2011-07-03T10:00:14Z</time>
      </trkpt>
      <trkpt lat="47.33365" lon="-1.03639">
        <ele>10.3</ele>
        <time>2011-07-03T10:00:15Z</time>
      </trkpt>
      <trkpt lat="47.33366" lon="-1.0364">
        <ele>10.5</ele>
        <time>2011-07-03T10:00:17Z</time>
      </trkpt>
      <trkpt lat="47.33367" lon="-1.03643">
        <ele>10.4</ele>
        <time>2011-07-03T10:00:19Z</time>
      </trkpt>
      <trkpt lat="47.33371" lon="-1.03648">
        <ele>10.1</ele>
        <time>2011-07-03T10:00:22Z</time>
      </trkpt>
      <trkpt lat="47.33374" lon="-1.0365">
        <ele>9.6</ele>
        <time>2011-07-03T10:00:24Z</time>
      </trkpt>
      <trkpt lat="47.33379" lon="-1.03654">
        <ele>9.5</ele>
        <time>2011-07-03T10:00:27Z</time>
      </trkpt>
      <trkpt lat="47.33383" lon="-1.03658">
        <ele>9.8</ele>
        <time>2011-07-03T10:00:29Z</time>
      </trkpt>
      <trkpt lat="47.33384" lon="-1.03661">
        <ele>10</ele>
        <time>2011-07-03T10:00:30Z</time>
      </trkpt>
      <trkpt lat="47.33385" lon="-1.03664">
        <ele>10.1</ele>
        <time>2011-07-03T10:00:31Z</time>
      </trkpt>
      <trkpt lat="47.33386" lon="-1.03667">
        <ele>10.2</ele>
        <time>2011-07-03T10:00:32Z</time>
      </trkpt>
      <trkpt lat="47.33386" lon="-1.0367">
        <ele>10.3</ele>
        <time>2011-07-03T10:00:33Z</time>
      </trkpt>
      <trkpt lat="47.33385" lon="-1.03672">
        <ele>10.3</ele>
        <time>2011-07-03T10:00:34Z</time>
      </trkpt>
      <trkpt lat="47.33378" lon="-1.03699">
        <ele>11.2</ele>
        <time>2011-07-03T10:00:43Z</time>
      </trkpt>
      <trkpt lat="47.33377" lon="-1.03709">
        <ele>11.9</ele>
        <time>2011-07-03T10:00:46Z</time>
      </trkpt>
      <trkpt lat="47.33378" lon="-1.03712">
        <ele>12.1</ele>
        <time>2011-07-03T10:00:47Z</time>
      </trkpt>
      <trkpt lat="47.33379" lon="-1.03715">
        <ele>12</ele>
        <time>2011-07-03T10:00:48Z</time>
      </trkpt>
      <trkpt lat="47.33387" lon="-1.03721">
        <ele>11.3</ele>
        <time>2011-07-03T10:00:52Z</time>
      </trkpt>
      <trkpt lat="47.33389" lon="-1.03723">
        <ele>11.2</ele>
        <time>2011-07-03T10:00:53Z</time>
      </trkpt>
      <trkpt lat="47.33398" lon="-1.0374">
        <ele>10.6</ele>
        <time>2011-07-03T10:01:00Z</time>
      </trkpt>
      <trkpt lat="47.33399" lon="-1.03742">
        <ele>10.4</ele>
        <time>2011-07-03T10:01:01Z</time>
      </trkpt>
      <trkpt lat="47.334" lon="-1.03745">
        <ele>10.4</ele>
        <time>2011-07-03T10:01:04Z</time>
      </trkpt>
      <trkpt lat="47.334" lon="-1.03746">
        <ele>10.6</ele>
        <time>2011-07-03T10:01:05Z</time>
      </trkpt>
      <trkpt lat="47.33401" lon="-1.03749">
        <ele>10.9</ele>
        <time>2011-07-03T10:01:07Z</time>
      </trkpt>
      <trkpt lat="47.33401" lon="-1.0375">
        <ele>11</ele>
        <time>2011-07-03T10:01:08Z</time>
      </trkpt>
      <trkpt lat="47.33401" lon="-1.03752">
        <ele>11.1</ele>
        <time>2011-07-03T10:01:09Z</time>
      </trkpt>
      <trkpt lat="47.33402" lon="-1.03755">
        <ele>11.1</ele>
        <time>2011-07-03T10:01:11Z</time>
      </trkpt>
      <trkpt lat="47.33403" lon="-1.03762">
        <ele>11.7</ele>
        <time>2011-07-03T10:01:15Z</time>
      </trkpt>
      <trkpt lat="47.33403" lon="-1.03764">
        <ele>11.9</ele>
        <time>2011-07-03T10:01:16Z</time>
      </trkpt>
      <trkpt lat="47.33403" lon="-1.03766">
        <ele>11.7</ele>
        <time>2011-07-03T10:01:17Z</time>
      </trkpt>
      <trkpt lat="47.33402" lon="-1.03767">
        <ele>11.6</ele>
        <time>2011-07-03T10:01:18Z</time>
      </trkpt>
      <trkpt lat="47.33402" lon="-1.0377">
        <ele>11.5</ele>
        <time>2011-07-03T10:01:20Z</time>
      </trkpt>
      <trkpt lat="47.334" lon="-1.03773">
        <ele>11.6</ele>
        <time>2011-07-03T10:01:22Z</time>
      </trkpt>
      <trkpt lat="47.33391" lon="-1.03784">
        <ele>12.9</ele>
        <time>2011-07-03T10:01:30Z</time>
      </trkpt>
      <trkpt lat="47.33391" lon="-1.03788">
        <ele>12.7</ele>
        <time>2011-07-03T10:01:32Z</time>
      </trkpt>
      <trkpt lat="47.33391" lon="-1.03789">
        <ele>13.1</ele>
        <time>2011-07-03T10:01:33Z</time>
      </trkpt>
      <trkpt lat="47.33392" lon="-1.03791">
        <ele>13.4</ele>
        <time>2011-07-03T10:01:34Z</time>
      </trkpt>
      <trkpt lat="47.33393" lon="-1.03792">
        <ele>13.6</ele>
        <time>2011-07-03T10:01:35Z</time>
      </trkpt>
      <trkpt lat="47.33394" lon="-1.03792">
        <ele>13.7</ele>
        <time>2011-07-03T10:01:36Z</time>
      </trkpt>
      <trkpt lat="47.33395" lon="-1.03791">
        <ele>13.8</ele>
        <time>2011-07-03T10:01:37Z</time>
      </trkpt>
      <trkpt lat="47.33395" lon="-1.0379">
        <ele>13.9</ele>
        <time>2011-07-03T10:01:38Z</time>
      </trkpt>
      <trkpt lat="47.33394" lon="-1.0379">
        <ele>14.4</ele>
        <time>2011-07-03T10:01:39Z</time>
      </trkpt>
      <trkpt lat="47.33393" lon="-1.03789">
        <ele>15</ele>
        <time>2011-07-03T10:01:41Z</time>
      </trkpt>
      <trkpt lat="47.33392" lon="-1.03789">
        <ele>14.6</ele>
        <time>2011-07-03T10:01:42Z</time>
      </trkpt>
      <trkpt lat="47.33391" lon="-1.0379">
        <ele>14.3</ele>
        <time>2011-07-03T10:01:43Z</time>
      </trkpt>
      <trkpt lat="47.33384" lon="-1.03792">
        <ele>14</ele>
        <time>2011-07-03T10:01:46Z</time>
      </trkpt>
      <trkpt lat="47.33377" lon="-1.03796">
        <ele>13.8</ele>
        <time>2011-07-03T10:01:49Z</time>
      </trkpt>
      <trkpt lat="47.33345" lon="-1.03806">
        <ele>12.2</ele>
        <time>2011-07-03T10:02:02Z</time>
      </trkpt>
      <trkpt lat="47.33345" lon="-1.03806">
        <ele>12.2</ele>
        <time>2011-07-03T10:02:03Z</time>
      </trkpt>
      <trkpt lat="47.33344" lon="-1.03806">
        <ele>12.5</ele>
        <time>2011-07-03T10:02:05Z</time>
      </trkpt>
      <trkpt lat="47.33343" lon="-1.03806">
        <ele>12.9</ele>
        <time>2011-07-03T10:02:07Z</time>
      </trkpt>
      <trkpt lat="47.33342" lon="-1.03807">
        <ele>12.7</ele>
        <time>2011-07-03T10:02:09Z</time>
      </trkpt>
      <trkpt lat="47.33338" lon="-1.03808">
        <ele>13</ele>
        <time>2011-07-03T10:02:13Z</time>
      </trkpt>
      <trkpt lat="47.33337" lon="-1.03808">
        <ele>13</ele>
        <time>2011-07-03T10:02:14Z</time>
      </trkpt>
      <trkpt lat="47.33336" lon="-1.03808">
        <ele>13</ele>
        <time>2011-07-03T10:02:15Z</time>
      </trkpt>
      <trkpt lat="47.33336" lon="-1.03808">
        <ele>13.1</ele>
        <time>2011-07-03T10:02:17Z</time>
      </trkpt>
      <trkpt lat="47.33335" lon="-1.03808">
        <ele>13.2</ele>
        <time>2011-07-03T10:02:18Z</time>
      </trkpt>
      <trkpt lat="47.33334" lon="-1.03808">
        <ele>13.2</ele>
        <time>2011-07-03T10:02:19Z</time>
      </trkpt>
      <trkpt lat="47.33334" lon="-1.03809">
        <ele>13.1</ele>
        <time>2011-07-03T10:02:21Z</time>
      </trkpt>
      <trkpt lat="47.33334" lon="-1.03809">
        <ele>12.9</ele>
        <time>2011-07-03T10:02:23Z</time>
      </trkpt>
      <trkpt lat="47.33332" lon="-1.03809">
        <ele>13.2</ele>
        <time>2011-07-03T10:02:25Z</time>
      </trkpt>
      <trkpt lat="47.33332" lon="-1.0381">
        <ele>13.2</ele>
        <time>2011-07-03T10:02:27Z</time>
      </trkpt>
      <trkpt lat="47.33331" lon="-1.0381">
        <ele>13.1</ele>
        <time>2011-07-03T10:02:29Z</time>
      </trkpt>
      <trkpt lat="47.33331" lon="-1.0381">
        <ele>13.1</ele>
        <time>2011-07-03T10:02:30Z</time>
      </trkpt>
      <trkpt lat="47.33329" lon="-1.03809">
        <ele>13.2</ele>
        <time>2011-07-03T10:02:33Z</time>
      </trkpt>
      <trkpt lat="47.33329" lon="-1.03808">
        <ele>13.3</ele>
        <time>2011-07-03T10:02:35Z</time>
      </trkpt>
      <trkpt lat="47.33328" lon="-1.03807">
        <ele>13.3</ele>
        <time>2011-07-03T10:02:36Z</time>
      </trkpt>
      <trkpt lat="47.33323" lon="-1.03797">
        <ele>12.7</ele>
        <time>2011-07-03T10:02:43Z</time>
      </trkpt>
      <trkpt lat="47.33323" lon="-1.03797">
        <ele>12.6</ele>
        <time>2011-07-03T10:02:44Z</time>
      </trkpt>
      <trkpt lat="47.33322" lon="-1.03795">
        <ele>12.1</ele>
        <time>2011-07-03T10:02:47Z</time>
      </trkpt>
      <trkpt lat="47.33322" lon="-1.03795">
        <ele>12</ele>
        <time>2011-07-03T10:02:48Z</time>
      </trkpt>
      <trkpt lat="47.33322" lon="-1.03794">
        <ele>11.9</ele>
        <time>2011-07-03T10:02:49Z</time>
      </trkpt>
      <trkpt lat="47.33321" lon="-1.03794">
        <ele>11.8</ele>
        <time>2011-07-03T10:02:51Z</time>
      </trkpt>
      <trkpt lat="47.33321" lon="-1.03794">
        <ele>11.7</ele>
        <time>2011-07-03T10:02:52Z</time>
      </trkpt>
      <trkpt lat="47.33321" lon="-1.03794">
        <ele>11.7</ele>
        <time>2011-07-03T10:02:54Z</time>
      </trkpt>
      <trkpt lat="47.33321" lon="-1.03793">
        <ele>11.7</ele>
        <time>2011-07-03T10:02:55Z</time>
      </trkpt>
      <trkpt lat="47.3332" lon="-1.03793">
        <ele>11.8</ele>
        <time>2011-07-03T10:02:56Z</time>
      </trkpt>
      <trkpt lat="47.3332" lon="-1.03793">
        <ele>11.8</ele>
        <time>2011-07-03T10:02:57Z</time>
      </trkpt>
      <trkpt lat="47.33319" lon="-1.03792">
        <ele>11.8</ele>
        <time>2011-07-03T10:02:58Z</time>
      </trkpt>
      <trkpt lat="47.33319" lon="-1.03791">
        <ele>11.9</ele>
        <time>2011-07-03T10:02:59Z</time>
      </trkpt>
      <trkpt lat="47.33319" lon="-1.03789">
        <ele>12</ele>
        <time>2011-07-03T10:03:00Z</time>
      </trkpt>
      <trkpt lat="47.33317" lon="-1.03781">
        <ele>12.6</ele>
        <time>2011-07-03T10:03:05Z</time>
      </trkpt>
      <trkpt lat="47.33317" lon="-1.0378">
        <ele>12.6</ele>
        <time>2011-07-03T10:03:06Z</time>
      </trkpt>
      <trkpt lat="47.33317" lon="-1.03778">
        <ele>12.5</ele>
        <time>2011-07-03T10:03:07Z</time>
      </trkpt>
      <trkpt lat="47.33313" lon="-1.03761">
        <ele>11.8</ele>
        <time>2011-07-03T10:03:18Z</time>
      </trkpt>
      <trkpt lat="47.33313" lon="-1.0376">
        <ele>12</ele>
        <time>2011-07-03T10:03:19Z</time>
      </trkpt>
      <trkpt lat="47.33313" lon="-1.03759">
        <ele>11.8</ele>
        <time>2011-07-03T10:03:21Z</time>
      </trkpt>
      <trkpt lat="47.33313" lon="-1.03758">
        <ele>11.7</ele>
        <time>2011-07-03T10:03:22Z</time>
      </trkpt>
      <trkpt lat="47.33313" lon="-1.03757">
        <ele>11.7</ele>
        <time>2011-07-03T10:03:23Z</time>
      </trkpt>
      <trkpt lat="47.33313" lon="-1.03756">
        <ele>11.9</ele>
        <time>2011-07-03T10:03:24Z</time>
      </trkpt>
      <trkpt lat="47.33313" lon="-1.03756">
        <ele>12.1</ele>
        <time>2011-07-03T10:03:25Z</time>
      </trkpt>
      <trkpt lat="47.33313" lon="-1.03755">
        <ele>12.3</ele>
        <time>2011-07-03T10:03:26Z</time>
      </trkpt>
      <trkpt lat="47.33313" lon="-1.03755">
        <ele>12.4</ele>
        <time>2011-07-03T10:03:27Z</time>
      </trkpt>
      <trkpt lat="47.33313" lon="-1.03754">
        <ele>12.4</ele>
        <time>2011-07-03T10:03:28Z</time>
      </trkpt>
      <trkpt lat="47.33312" lon="-1.03754">
        <ele>12.4</ele>
        <time>2011-07-03T10:03:30Z</time>
      </trkpt>
      <trkpt lat="47.33312" lon="-1.03753">
        <ele>12.5</ele>
        <time>2011-07-03T10:03:31Z</time>
      </trkpt>
      <trkpt lat="47.33312" lon="-1.03751">
        <ele>13.1</ele>
        <time>2011-07-03T10:03:35Z</time>
      </trkpt>
      <trkpt lat="47.33312" lon="-1.0375">
        <ele>13.2</ele>
        <time>2011-07-03T10:03:36Z</time>
      </trkpt>
      <trkpt lat="47.33311" lon="-1.0375">
        <ele>13</ele>
        <time>2011-07-03T10:03:37Z</time>
      </trkpt>
      <trkpt lat="47.33312" lon="-1.03749">
        <ele>12.8</ele>
        <time>2011-07-03T10:03:38Z</time>
      </trkpt>
      <trkpt lat="47.33312" lon="-1.03749">
        <ele>12.7</ele>
        <time>2011-07-03T10:03:39Z</time>
      </trkpt>
      <trkpt lat="47.33312" lon="-1.03749">
        <ele>13</ele>
        <time>2011-07-03T10:03:40Z</time>
      </trkpt>
      <trkpt lat="47.33312" lon="-1.03748">
        <ele>13.2</ele>
        <time>2011-07-03T10:03:41Z</time>
      </trkpt>
      <trkpt lat="47.33312" lon="-1.03748">
        <ele>13.3</ele>
        <time>2011-07-03T10:03:42Z</time>
      </trkpt>
      <trkpt lat="47.33312" lon="-1.03748">
        <ele>13.4</ele>
        <time>2011-07-03T10:03:43Z</time>
      </trkpt>
      <trkpt lat="47.33312" lon="-1.03748">
        <ele>13.6</ele>
        <time>2011-07-03T10:03:44Z</time>
      </trkpt>
      <trkpt lat="47.33312" lon="-1.03747">
        <ele>14.2</ele>
        <time>2011-07-03T10:03:47Z</time>
      </trkpt>
      <trkpt lat="47.33312" lon="-1.03746">
        <ele>14.7</ele>
        <time>2011-07-03T10:03:49Z</time>
      </trkpt>
      <trkpt lat="47.33312" lon="-1.03746">
        <ele>15</ele>
        <time>2011-07-03T10:03:50Z</time>
      </trkpt>
      <trkpt lat="47.33312" lon="-1.03745">
        <ele>15.3</ele>
        <time>2011-07-03T10:03:51Z</time>
      </trkpt>
      <trkpt lat="47.33312" lon="-1.03745">
        <ele>15.5</ele>
        <time>2011-07-03T10:03:52Z</time>
      </trkpt>
      <trkpt lat="47.33312" lon="-1.03745">
        <ele>16</ele>
        <time>2011-07-03T10:03:53Z</time>
      </trkpt>
      <trkpt lat="47.33313" lon="-1.03743">
        <ele>16.5</ele>
        <time>2011-07-03T10:03:56Z</time>
      </trkpt>
      <trkpt lat="47.33313" lon="-1.03743">
        <ele>16.5</ele>
        <time>2011-07-03T10:03:57Z</time>
      </trkpt>
      <trkpt lat="47.33314" lon="-1.03742">
        <ele>16.5</ele>
        <time>2011-07-03T10:03:58Z</time>
      </trkpt>
      <trkpt lat="47.33314" lon="-1.0374">
        <ele>16.5</ele>
        <time>2011-07-03T10:04:00Z</time>
      </trkpt>
      <trkpt lat="47.33315" lon="-1.0374">
        <ele>16.6</ele>
        <time>2011-07-03T10:04:01Z</time>
      </trkpt>
      <trkpt lat="47.33315" lon="-1.03739">
        <ele>16.6</ele>
        <time>2011-07-03T10:04:02Z</time>
      </trkpt>
      <trkpt lat="47.33315" lon="-1.03738">
        <ele>17.5</ele>
        <time>2011-07-03T10:04:04Z</time>
      </trkpt>
      <trkpt lat="47.33315" lon="-1.03737">
        <ele>18</ele>
        <time>2011-07-03T10:04:06Z</time>
      </trkpt>
      <trkpt lat="47.33315" lon="-1.03737">
        <ele>18.4</ele>
        <time>2011-07-03T10:04:08Z</time>
      </trkpt>
      <trkpt lat="47.33315" lon="-1.03737">
        <ele>18.5</ele>
        <time>2011-07-03T10:04:09Z</time>
      </trkpt>
      <trkpt lat="47.33315" lon="-1.03737">
        <ele>18.6</ele>
        <time>2011-07-03T10:04:10Z</time>
      </trkpt>
      <trkpt lat="47.33315" lon="-1.03737">
        <ele>18.7</ele>
        <time>2011-07-03T10:04:11Z</time>
      </trkpt>
      <trkpt lat="47.33315" lon="-1.03736">
        <ele>19.2</ele>
        <time>2011-07-03T10:04:13Z</time>
      </trkpt>
      <trkpt lat="47.33315" lon="-1.03737">
        <ele>19.5</ele>
        <time>2011-07-03T10:04:15Z</time>
      </trkpt>
      <trkpt lat="47.33316" lon="-1.03736">
        <ele>19.3</ele>
        <time>2011-07-03T10:04:16Z</time>
      </trkpt>
      <trkpt lat="47.33316" lon="-1.03736">
        <ele>19.2</ele>
        <time>2011-07-03T10:04:17Z</time>
      </trkpt>
      <trkpt lat="47.33316" lon="-1.03735">
        <ele>19.2</ele>
        <time>2011-07-03T10:04:18Z</time>
      </trkpt>
      <trkpt lat="47.33317" lon="-1.03733">
        <ele>19.7</ele>
        <time>2011-07-03T10:04:20Z</time>
      </trkpt>
      <trkpt lat="47.33317" lon="-1.03732">
        <ele>19.9</ele>
        <time>2011-07-03T10:04:21Z</time>
      </trkpt>
      <trkpt lat="47.33318" lon="-1.03732">
        <ele>20.1</ele>
        <time>2011-07-03T10:04:22Z</time>
      </trkpt>
      <trkpt lat="47.33319" lon="-1.0373">
        <ele>20.9</ele>
        <time>2011-07-03T10:04:25Z</time>
      </trkpt>
      <trkpt lat="47.33319" lon="-1.03729">
        <ele>21.3</ele>
        <time>2011-07-03T10:04:26Z</time>
      </trkpt>
      <trkpt lat="47.33319" lon="-1.03728">
        <ele>21.6</ele>
        <time>2011-07-03T10:04:28Z</time>
      </trkpt>
      <trkpt lat="47.33319" lon="-1.03727">
        <ele>21.6</ele>
        <time>2011-07-03T10:04:29Z</time>
      </trkpt>
      <trkpt lat="47.33319" lon="-1.03726">
        <ele>21.6</ele>
        <time>2011-07-03T10:04:30Z</time>
      </trkpt>
      <trkpt lat="47.33319" lon="-1.03726">
        <ele>21.4</ele>
        <time>2011-07-03T10:04:31Z</time>
      </trkpt>
      <trkpt lat="47.33319" lon="-1.03725">
        <ele>21.3</ele>
        <time>2011-07-03T10:04:32Z</time>
      </trkpt>
      <trkpt lat="47.33319" lon="-1.03725">
        <ele>21.1</ele>
        <time>2011-07-03T10:04:33Z</time>
      </trkpt>
      <trkpt lat="47.3332" lon="-1.03724">
        <ele>21.1</ele>
        <time>2011-07-03T10:04:34Z</time>
      </trkpt>
      <trkpt lat="47.3332" lon="-1.03722">
        <ele>21.9</ele>
        <time>2011-07-03T10:04:37Z</time>
      </trkpt>
      <trkpt lat="47.3332" lon="-1.03721">
        <ele>22.3</ele>
        <time>2011-07-03T10:04:38Z</time>
      </trkpt>
      <trkpt lat="47.3332" lon="-1.0372">
        <ele>22.6</ele>
        <time>2011-07-03T10:04:39Z</time>
      </trkpt>
      <trkpt lat="47.33321" lon="-1.03719">
        <ele>22.8</ele>
        <time>2011-07-03T10:04:40Z</time>
      </trkpt>
      <trkpt lat="47.33321" lon="-1.03718">
        <ele>22.9</ele>
        <time>2011-07-03T10:04:41Z</time>
      </trkpt>
      <trkpt lat="47.33321" lon="-1.03717">
        <ele>23</ele>
        <time>2011-07-03T10:04:42Z</time>
      </trkpt>
      <trkpt lat="47.3332" lon="-1.03717">
        <ele>23</ele>
        <time>2011-07-03T10:04:43Z</time>
      </trkpt>
      <trkpt lat="47.3332" lon="-1.03717">
        <ele>23.2</ele>
        <time>2011-07-03T10:04:44Z</time>
      </trkpt>
      <trkpt lat="47.33319" lon="-1.03717">
        <ele>23.4</ele>
        <time>2011-07-03T10:04:53Z</time>
      </trkpt>
      <trkpt lat="47.33319" lon="-1.03717">
        <ele>23.5</ele>
        <time>2011-07-03T10:04:54Z</time>
      </trkpt>
      <trkpt lat="47.33318" lon="-1.03717">
        <ele>23.6</ele>
        <time>2011-07-03T10:04:55Z</time>
      </trkpt>
      <trkpt lat="47.33318" lon="-1.03717">
        <ele>23.7</ele>
        <time>2011-07-03T10:05:01Z</time>
      </trkpt>
      <trkpt lat="47.33318" lon="-1.03718">
        <ele>23.5</ele>
        <time>2011-07-03T10:05:02Z</time>
      </trkpt>
      <trkpt lat="47.33318" lon="-1.03718">
        <ele>23.7</ele>
        <time>2011-07-03T10:05:03Z</time>
      </trkpt>
      <trkpt lat="47.33318" lon="-1.03717">
        <ele>24</ele>
        <time>2011-07-03T10:05:06Z</time>
      </trkpt>
      <trkpt lat="47.33318" lon="-1.03717">
        <ele>24.1</ele>
        <time>2011-07-03T10:05:08Z</time>
      </trkpt>
      <trkpt lat="47.33317" lon="-1.03717">
        <ele>24.1</ele>
        <time>2011-07-03T10:05:09Z</time>
      </trkpt>
      <trkpt lat="47.33316" lon="-1.03717">
        <ele>24.1</ele>
        <time>2011-07-03T10:05:10Z</time>
      </trkpt>
      <trkpt lat="47.33297" lon="-1.0372">
        <ele>26.5</ele>
        <time>2011-07-03T10:05:21Z</time>
      </trkpt>
      <trkpt lat="47.33296" lon="-1.03721">
        <ele>26.7</ele>
        <time>2011-07-03T10:05:22Z</time>
      </trkpt>
      <trkpt lat="47.33291" lon="-1.0372">
        <ele>28.3</ele>
        <time>2011-07-03T10:05:26Z</time>
      </trkpt>
      <trkpt lat="47.33287" lon="-1.0372">
        <ele>29.5</ele>
        <time>2011-07-03T10:05:29Z</time>
      </trkpt>
      <trkpt lat="47.33285" lon="-1.03719">
        <ele>29.7</ele>
        <time>2011-07-03T10:05:31Z</time>
      </trkpt>
      <trkpt lat="47.33284" lon="-1.03719">
        <ele>30.1</ele>
        <time>2011-07-03T10:05:32Z</time>
      </trkpt>
      <trkpt lat="47.33283" lon="-1.03719">
        <ele>30.5</ele>
        <time>2011-07-03T10:05:33Z</time>
      </trkpt>
      <trkpt lat="47.33281" lon="-1.03719">
        <ele>31.2</ele>
        <time>2011-07-03T10:05:35Z</time>
      </trkpt>
      <trkpt lat="47.3328" lon="-1.03718">
        <ele>31.6</ele>
        <time>2011-07-03T10:05:36Z</time>
      </trkpt>
      <trkpt lat="47.33278" lon="-1.03717">
        <ele>31.9</ele>
        <time>2011-07-03T10:05:39Z</time>
      </trkpt>
      <trkpt lat="47.33277" lon="-1.03717">
        <ele>31.9</ele>
        <time>2011-07-03T10:05:40Z</time>
      </trkpt>
      <trkpt lat="47.33277" lon="-1.03716">
        <ele>31.9</ele>
        <time>2011-07-03T10:05:41Z</time>
      </trkpt>
      <trkpt lat="47.33275" lon="-1.03715">
        <ele>32.2</ele>
        <time>2011-07-03T10:05:43Z</time>
      </trkpt>
      <trkpt lat="47.33274" lon="-1.03714">
        <ele>32.3</ele>
        <time>2011-07-03T10:05:44Z</time>
      </trkpt>
      <trkpt lat="47.33273" lon="-1.03713">
        <ele>32.8</ele>
        <time>2011-07-03T10:05:45Z</time>
      </trkpt>
      <trkpt lat="47.33273" lon="-1.03713">
        <ele>33.3</ele>
        <time>2011-07-03T10:05:46Z</time>
      </trkpt>
      <trkpt lat="47.33272" lon="-1.03712">
        <ele>33.6</ele>
        <time>2011-07-03T10:05:47Z</time>
      </trkpt>
      <trkpt lat="47.33269" lon="-1.03708">
        <ele>35.6</ele>
        <time>2011-07-03T10:05:51Z</time>
      </trkpt>
      <trkpt lat="47.33268" lon="-1.03706">
        <ele>36.1</ele>
        <time>2011-07-03T10:05:53Z</time>
      </trkpt>
      <trkpt lat="47.33265" lon="-1.03698">
        <ele>37.2</ele>
        <time>2011-07-03T10:05:58Z</time>
      </trkpt>
      <trkpt lat="47.33263" lon="-1.03696">
        <ele>37.6</ele>
        <time>2011-07-03T10:06:00Z</time>
      </trkpt>
      <trkpt lat="47.33262" lon="-1.03695">
        <ele>38</ele>
        <time>2011-07-03T10:06:01Z</time>
      </trkpt>
      <trkpt lat="47.3326" lon="-1.03694">
        <ele>39</ele>
        <time>2011-07-03T10:06:04Z</time>
      </trkpt>
      <trkpt lat="47.33259" lon="-1.03693">
        <ele>39.3</ele>
        <time>2011-07-03T10:06:05Z</time>
      </trkpt>
      <trkpt lat="47.33258" lon="-1.03693">
        <ele>39.6</ele>
        <time>2011-07-03T10:06:06Z</time>
      </trkpt>
      <trkpt lat="47.33257" lon="-1.03692">
        <ele>39.7</ele>
        <time>2011-07-03T10:06:07Z</time>
      </trkpt>
      <trkpt lat="47.33254" lon="-1.03692">
        <ele>40</ele>
        <time>2011-07-03T10:06:09Z</time>
      </trkpt>
      <trkpt lat="47.33252" lon="-1.03692">
        <ele>40.1</ele>
        <time>2011-07-03T10:06:10Z</time>
      </trkpt>
      <trkpt lat="47.33249" lon="-1.03693">
        <ele>40.2</ele>
        <time>2011-07-03T10:06:12Z</time>
      </trkpt>
      <trkpt lat="47.33248" lon="-1.03694">
        <ele>40.2</ele>
        <time>2011-07-03T10:06:13Z</time>
      </trkpt>
      <trkpt lat="47.33232" lon="-1.0371">
        <ele>41.9</ele>
        <time>2011-07-03T10:06:25Z</time>
      </trkpt>
      <trkpt lat="47.3323" lon="-1.03712">
        <ele>42.1</ele>
        <time>2011-07-03T10:06:26Z</time>
      </trkpt>
      <trkpt lat="47.33213" lon="-1.03729">
        <ele>42.5</ele>
        <time>2011-07-03T10:06:36Z</time>
      </trkpt>
      <trkpt lat="47.33193" lon="-1.03744">
        <ele>44</ele>
        <time>2011-07-03T10:06:46Z</time>
      </trkpt>
      <trkpt lat="47.33189" lon="-1.03746">
        <ele>44.1</ele>
        <time>2011-07-03T10:06:48Z</time>
      </trkpt>
      <trkpt lat="47.33183" lon="-1.03747">
        <ele>45.2</ele>
        <time>2011-07-03T10:06:52Z</time>
      </trkpt>
      <trkpt lat="47.33181" lon="-1.03747">
        <ele>45.1</ele>
        <time>2011-07-03T10:06:53Z</time>
      </trkpt>
      <trkpt lat="47.33179" lon="-1.03747">
        <ele>45.6</ele>
        <time>2011-07-03T10:06:55Z</time>
      </trkpt>
      <trkpt lat="47.33178" lon="-1.03746">
        <ele>46.1</ele>
        <time>2011-07-03T10:06:56Z</time>
      </trkpt>
      <trkpt lat="47.33178" lon="-1.03746">
        <ele>46.4</ele>
        <time>2011-07-03T10:06:57Z</time>
      </trkpt>
      <trkpt lat="47.33178" lon="-1.03745">
        <ele>46.5</ele>
        <time>2011-07-03T10:06:58Z</time>
      </trkpt>
      <trkpt lat="47.33177" lon="-1.03744">
        <ele>46.6</ele>
        <time>2011-07-03T10:06:59Z</time>
      </trkpt>
      <trkpt lat="47.33174" lon="-1.03742">
        <ele>47.1</ele>
        <time>2011-07-03T10:07:02Z</time>
      </trkpt>
      <trkpt lat="47.33172" lon="-1.03741">
        <ele>47.5</ele>
        <time>2011-07-03T10:07:04Z</time>
      </trkpt>
      <trkpt lat="47.33171" lon="-1.0374">
        <ele>47.6</ele>
        <time>2011-07-03T10:07:05Z</time>
      </trkpt>
      <trkpt lat="47.3317" lon="-1.03739">
        <ele>47.7</ele>
        <time>2011-07-03T10:07:06Z</time>
      </trkpt>
      <trkpt lat="47.33169" lon="-1.03737">
        <ele>47.8</ele>
        <time>2011-07-03T10:07:07Z</time>
      </trkpt>
      <trkpt lat="47.33161" lon="-1.0373">
        <ele>49.9</ele>
        <time>2011-07-03T10:07:14Z</time>
      </trkpt>
      <trkpt lat="47.33146" lon="-1.03713">
        <ele>54.3</ele>
        <time>2011-07-03T10:07:29Z</time>
      </trkpt>
      <trkpt lat="47.33145" lon="-1.03712">
        <ele>54.5</ele>
        <time>2011-07-03T10:07:30Z</time>
      </trkpt>
      <trkpt lat="47.33132" lon="-1.03696">
        <ele>55.8</ele>
        <time>2011-07-03T10:07:43Z</time>
      </trkpt>
      <trkpt lat="47.33131" lon="-1.03695">
        <ele>55.7</ele>
        <time>2011-07-03T10:07:44Z</time>
      </trkpt>
      <trkpt lat="47.33128" lon="-1.03693">
        <ele>56</ele>
        <time>2011-07-03T10:07:46Z</time>
      </trkpt>
      <trkpt lat="47.33127" lon="-1.03692">
        <ele>56.2</ele>
        <time>2011-07-03T10:07:47Z</time>
      </trkpt>
      <trkpt lat="47.33126" lon="-1.0369">
        <ele>56.4</ele>
        <time>2011-07-03T10:07:48Z</time>
      </trkpt>
      <trkpt lat="47.33125" lon="-1.03688">
        <ele>56.7</ele>
        <time>2011-07-03T10:07:49Z</time>
      </trkpt>
      <trkpt lat="47.33117" lon="-1.03666">
        <ele>57.8</ele>
        <time>2011-07-03T10:07:56Z</time>
      </trkpt>
      <trkpt lat="47.33115" lon="-1.03663">
        <ele>57.9</ele>
        <time>2011-07-03T10:07:57Z</time>
      </trkpt>
      <trkpt lat="47.33112" lon="-1.03659">
        <ele>57.9</ele>
        <time>2011-07-03T10:07:58Z</time>
      </trkpt>
      <trkpt lat="47.33105" lon="-1.03649">
        <ele>58</ele>
        <time>2011-07-03T10:08:01Z</time>
      </trkpt>
      <trkpt lat="47.32987" lon="-1.03513">
        <ele>57.7</ele>
        <time>2011-07-03T10:08:30Z</time>
      </trkpt>
      <trkpt lat="47.3295" lon="-1.0348">
        <ele>57.4</ele>
        <time>2011-07-03T10:08:38Z</time>
      </trkpt>
      <trkpt lat="47.32947" lon="-1.03481">
        <ele>57.3</ele>
        <time>2011-07-03T10:08:39Z</time>
      </trkpt>
      <trkpt lat="47.32944" lon="-1.03483">
        <ele>57.2</ele>
        <time>2011-07-03T10:08:40Z</time>
      </trkpt>
      <trkpt lat="47.32938" lon="-1.03496">
        <ele>56.8</ele>
        <time>2011-07-03T10:08:44Z</time>
      </trkpt>
      <trkpt lat="47.32923" lon="-1.03525">
        <ele>58.2</ele>
        <time>2011-07-03T10:08:52Z</time>
      </trkpt>
      <trkpt lat="47.32853" lon="-1.0364">
        <ele>64.9</ele>
        <time>2011-07-03T10:09:25Z</time>
      </trkpt>
      <trkpt lat="47.32851" lon="-1.03643">
        <ele>65.1</ele>
        <time>2011-07-03T10:09:26Z</time>
      </trkpt>
      <trkpt lat="47.32851" lon="-1.03646">
        <ele>65.2</ele>
        <time>2011-07-03T10:09:27Z</time>
      </trkpt>
      <trkpt lat="47.3285" lon="-1.03649">
        <ele>65.2</ele>
        <time>2011-07-03T10:09:28Z</time>
      </trkpt>
      <trkpt lat="47.32849" lon="-1.03651">
        <ele>65.3</ele>
        <time>2011-07-03T10:09:29Z</time>
      </trkpt>
      <trkpt lat="47.32843" lon="-1.03658">
        <ele>65.5</ele>
        <time>2011-07-03T10:09:32Z</time>
      </trkpt>
      <trkpt lat="47.32829" lon="-1.03682">
        <ele>65.8</ele>
        <time>2011-07-03T10:09:39Z</time>
      </trkpt>
      <trkpt lat="47.32828" lon="-1.03685">
        <ele>66</ele>
        <time>2011-07-03T10:09:40Z</time>
      </trkpt>
      <trkpt lat="47.32827" lon="-1.03689">
        <ele>66.2</ele>
        <time>2011-07-03T10:09:41Z</time>
      </trkpt>
      <trkpt lat="47.32827" lon="-1.03693">
        <ele>66.3</ele>
        <time>2011-07-03T10:09:42Z</time>
      </trkpt>
      <trkpt lat="47.32827" lon="-1.03696">
        <ele>66.5</ele>
        <time>2011-07-03T10:09:43Z</time>
      </trkpt>
      <trkpt lat="47.32829" lon="-1.037">
        <ele>66.9</ele>
        <time>2011-07-03T10:09:44Z</time>
      </trkpt>
      <trkpt lat="47.3283" lon="-1.03703">
        <ele>67.2</ele>
        <time>2011-07-03T10:09:45Z</time>
      </trkpt>
      <trkpt lat="47.32848" lon="-1.03732">
        <ele>69</ele>
        <time>2011-07-03T10:09:55Z</time>
      </trkpt>
      <trkpt lat="47.32849" lon="-1.03735">
        <ele>69</ele>
        <time>2011-07-03T10:09:56Z</time>
      </trkpt>
      <trkpt lat="47.3285" lon="-1.03739">
        <ele>69.4</ele>
        <time>2011-07-03T10:09:57Z</time>
      </trkpt>
      <trkpt lat="47.3285" lon="-1.03743">
        <ele>69.7</ele>
        <time>2011-07-03T10:09:58Z</time>
      </trkpt>
      <trkpt lat="47.32849" lon="-1.03746">
        <ele>69.9</ele>
        <time>2011-07-03T10:09:59Z</time>
      </trkpt>
      <trkpt lat="47.32848" lon="-1.03748">
        <ele>70</ele>
        <time>2011-07-03T10:10:00Z</time>
      </trkpt>
      <trkpt lat="47.3284" lon="-1.03752">
        <ele>70</ele>
        <time>2011-07-03T10:10:03Z</time>
      </trkpt>
      <trkpt lat="47.32728" lon="-1.03852">
        <ele>73</ele>
        <time>2011-07-03T10:10:41Z</time>
      </trkpt>
      <trkpt lat="47.32724" lon="-1.03854">
        <ele>72.8</ele>
        <time>2011-07-03T10:10:42Z</time>
      </trkpt>
      <trkpt lat="47.3272" lon="-1.03855">
        <ele>72.7</ele>
        <time>2011-07-03T10:10:43Z</time>
      </trkpt>
      <trkpt lat="47.32716" lon="-1.03855">
        <ele>72.6</ele>
        <time>2011-07-03T10:10:44Z</time>
      </trkpt>
      <trkpt lat="47.32711" lon="-1.03854">
        <ele>72.6</ele>
        <time>2011-07-03T10:10:45Z</time>
      </trkpt>
      <trkpt lat="47.32686" lon="-1.03846">
        <ele>73.3</ele>
        <time>2011-07-03T10:10:50Z</time>
      </trkpt>
      <trkpt lat="47.32681" lon="-1.03846">
        <ele>72.8</ele>
        <time>2011-07-03T10:10:51Z</time>
      </trkpt>
      <trkpt lat="47.32676" lon="-1.03847">
        <ele>72.4</ele>
        <time>2011-07-03T10:10:52Z</time>
      </trkpt>
      <trkpt lat="47.32672" lon="-1.03849">
        <ele>72.1</ele>
        <time>2011-07-03T10:10:53Z</time>
      </trkpt>
      <trkpt lat="47.32582" lon="-1.03903">
        <ele>73.4</ele>
        <time>2011-07-03T10:11:13Z</time>
      </trkpt>
      <trkpt lat="47.32579" lon="-1.03906">
        <ele>73.1</ele>
        <time>2011-07-03T10:11:14Z</time>
      </trkpt>
      <trkpt lat="47.32577" lon="-1.03911">
        <ele>72.9</ele>
        <time>2011-07-03T10:11:15Z</time>
      </trkpt>
      <trkpt lat="47.32577" lon="-1.03916">
        <ele>72.8</ele>
        <time>2011-07-03T10:11:16Z</time>
      </trkpt>
      <trkpt lat="47.32578" lon="-1.03921">
        <ele>73</ele>
        <time>2011-07-03T10:11:17Z</time>
      </trkpt>
      <trkpt lat="47.32579" lon="-1.03926">
        <ele>73.2</ele>
        <time>2011-07-03T10:11:18Z</time>
      </trkpt>
      <trkpt lat="47.32581" lon="-1.03932">
        <ele>73.3</ele>
        <time>2011-07-03T10:11:19Z</time>
      </trkpt>
      <trkpt lat="47.32588" lon="-1.03952">
        <ele>73.3</ele>
        <time>2011-07-03T10:11:23Z</time>
      </trkpt>
      <trkpt lat="47.32589" lon="-1.03957">
        <ele>73.4</ele>
        <time>2011-07-03T10:11:24Z</time>
      </trkpt>
      <trkpt lat="47.32589" lon="-1.03963">
        <ele>73.5</ele>
        <time>2011-07-03T10:11:25Z</time>
      </trkpt>
      <trkpt lat="47.3259" lon="-1.03969">
        <ele>73.7</ele>
        <time>2011-07-03T10:11:26Z</time>
      </trkpt>
      <trkpt lat="47.32589" lon="-1.03975">
        <ele>73.9</ele>
        <time>2011-07-03T10:11:27Z</time>
      </trkpt>
      <trkpt lat="47.32589" lon="-1.03981">
        <ele>74</ele>
        <time>2011-07-03T10:11:28Z</time>
      </trkpt>
      <trkpt lat="47.32587" lon="-1.03987">
        <ele>74.1</ele>
        <time>2011-07-03T10:11:29Z</time>
      </trkpt>
      <trkpt lat="47.32585" lon="-1.03999">
        <ele>74.9</ele>
        <time>2011-07-03T10:11:31Z</time>
      </trkpt>
      <trkpt lat="47.32583" lon="-1.04004">
        <ele>75.2</ele>
        <time>2011-07-03T10:11:32Z</time>
      </trkpt>
      <trkpt lat="47.32559" lon="-1.04066">
        <ele>75.9</ele>
        <time>2011-07-03T10:11:44Z</time>
      </trkpt>
      <trkpt lat="47.32557" lon="-1.04072">
        <ele>76</ele>
        <time>2011-07-03T10:11:45Z</time>
      </trkpt>
      <trkpt lat="47.32553" lon="-1.04089">
        <ele>76.3</ele>
        <time>2011-07-03T10:11:48Z</time>
      </trkpt>
      <trkpt lat="47.32546" lon="-1.04133">
        <ele>77.7</ele>
        <time>2011-07-03T10:11:56Z</time>
      </trkpt>
      <trkpt lat="47.32542" lon="-1.04149">
        <ele>78.7</ele>
        <time>2011-07-03T10:11:59Z</time>
      </trkpt>
      <trkpt lat="47.3254" lon="-1.04154">
        <ele>79</ele>
        <time>2011-07-03T10:12:00Z</time>
      </trkpt>
      <trkpt lat="47.32533" lon="-1.04169">
        <ele>79.5</ele>
        <time>2011-07-03T10:12:03Z</time>
      </trkpt>
      <trkpt lat="47.32527" lon="-1.04178">
        <ele>79.7</ele>
        <time>2011-07-03T10:12:05Z</time>
      </trkpt>
      <trkpt lat="47.32518" lon="-1.04191">
        <ele>79.9</ele>
        <time>2011-07-03T10:12:08Z</time>
      </trkpt>
      <trkpt lat="47.32509" lon="-1.04203">
        <ele>79.9</ele>
        <time>2011-07-03T10:12:11Z</time>
      </trkpt>
      <trkpt lat="47.32505" lon="-1.04207">
        <ele>79.8</ele>
        <time>2011-07-03T10:12:12Z</time>
      </trkpt>
      <trkpt lat="47.32419" lon="-1.04277">
        <ele>80.6</ele>
        <time>2011-07-03T10:12:33Z</time>
      </trkpt>
      <trkpt lat="47.32401" lon="-1.04298">
        <ele>79.8</ele>
        <time>2011-07-03T10:12:38Z</time>
      </trkpt>
      <trkpt lat="47.32392" lon="-1.04312">
        <ele>80.5</ele>
        <time>2011-07-03T10:12:41Z</time>
      </trkpt>
      <trkpt lat="47.32377" lon="-1.04339">
        <ele>81.1</ele>
        <time>2011-07-03T10:12:47Z</time>
      </trkpt>
      <trkpt lat="47.32337" lon="-1.0442">
        <ele>81</ele>
        <time>2011-07-03T10:13:02Z</time>
      </trkpt>
      <trkpt lat="47.32335" lon="-1.04427">
        <ele>80.8</ele>
        <time>2011-07-03T10:13:03Z</time>
      </trkpt>
      <trkpt lat="47.32333" lon="-1.04434">
        <ele>80.6</ele>
        <time>2011-07-03T10:13:04Z</time>
      </trkpt>
      <trkpt lat="47.32333" lon="-1.04441">
        <ele>80.5</ele>
        <time>2011-07-03T10:13:05Z</time>
      </trkpt>
      <trkpt lat="47.32331" lon="-1.04506">
        <ele>81.1</ele>
        <time>2011-07-03T10:13:15Z</time>
      </trkpt>
      <trkpt lat="47.32321" lon="-1.04616">
        <ele>84.2</ele>
        <time>2011-07-03T10:13:32Z</time>
      </trkpt>
      <trkpt lat="47.32321" lon="-1.04649">
        <ele>84.6</ele>
        <time>2011-07-03T10:13:37Z</time>
      </trkpt>
      <trkpt lat="47.32322" lon="-1.04669">
        <ele>84.6</ele>
        <time>2011-07-03T10:13:40Z</time>
      </trkpt>
      <trkpt lat="47.32324" lon="-1.04676">
        <ele>84.7</ele>
        <time>2011-07-03T10:13:41Z</time>
      </trkpt>
      <trkpt lat="47.32373" lon="-1.04813">
        <ele>85.1</ele>
        <time>2011-07-03T10:14:06Z</time>
      </trkpt>
      <trkpt lat="47.32376" lon="-1.04819">
        <ele>84.9</ele>
        <time>2011-07-03T10:14:07Z</time>
      </trkpt>
      <trkpt lat="47.32379" lon="-1.04825">
        <ele>84.7</ele>
        <time>2011-07-03T10:14:08Z</time>
      </trkpt>
      <trkpt lat="47.32384" lon="-1.04831">
        <ele>84.6</ele>
        <time>2011-07-03T10:14:09Z</time>
      </trkpt>
      <trkpt lat="47.32388" lon="-1.04836">
        <ele>84.5</ele>
        <time>2011-07-03T10:14:10Z</time>
      </trkpt>
      <trkpt lat="47.32428" lon="-1.04868">
        <ele>82.7</ele>
        <time>2011-07-03T10:14:19Z</time>
      </trkpt>
      <trkpt lat="47.32432" lon="-1.04872">
        <ele>82.7</ele>
        <time>2011-07-03T10:14:20Z</time>
      </trkpt>
      <trkpt lat="47.32443" lon="-1.04886">
        <ele>81.7</ele>
        <time>2011-07-03T10:14:23Z</time>
      </trkpt>
      <trkpt lat="47.32449" lon="-1.04896">
        <ele>81.3</ele>
        <time>2011-07-03T10:14:25Z</time>
      </trkpt>
      <trkpt lat="47.32453" lon="-1.04904">
        <ele>81.1</ele>
        <time>2011-07-03T10:14:27Z</time>
      </trkpt>
      <trkpt lat="47.32455" lon="-1.04908">
        <ele>81.3</ele>
        <time>2011-07-03T10:14:28Z</time>
      </trkpt>
      <trkpt lat="47.32455" lon="-1.04912">
        <ele>81.4</ele>
        <time>2011-07-03T10:14:29Z</time>
      </trkpt>
      <trkpt lat="47.32454" lon="-1.04916">
        <ele>81.6</ele>
        <time>2011-07-03T10:14:30Z</time>
      </trkpt>
      <trkpt lat="47.32452" lon="-1.04918">
        <ele>81.6</ele>
        <time>2011-07-03T10:14:31Z</time>
      </trkpt>
      <trkpt lat="47.32449" lon="-1.0492">
        <ele>81.7</ele>
        <time>2011-07-03T10:14:32Z</time>
      </trkpt>
      <trkpt lat="47.32443" lon="-1.04924">
        <ele>81.7</ele>
        <time>2011-07-03T10:14:34Z</time>
      </trkpt>
      <trkpt lat="47.32361" lon="-1.0499">
        <ele>84.4</ele>
        <time>2011-07-03T10:15:06Z</time>
      </trkpt>
      <trkpt lat="47.32341" lon="-1.05004">
        <ele>85.9</ele>
        <time>2011-07-03T10:15:14Z</time>
      </trkpt>
      <trkpt lat="47.32339" lon="-1.05005">
        <ele>86.1</ele>
        <time>2011-07-03T10:15:15Z</time>
      </trkpt>
      <trkpt lat="47.32309" lon="-1.05026">
        <ele>88.2</ele>
        <time>2011-07-03T10:15:27Z</time>
      </trkpt>
      <trkpt lat="47.32306" lon="-1.05032">
        <ele>88.3</ele>
        <time>2011-07-03T10:15:29Z</time>
      </trkpt>
      <trkpt lat="47.32304" lon="-1.05035">
        <ele>88.3</ele>
        <time>2011-07-03T10:15:30Z</time>
      </trkpt>
      <trkpt lat="47.32302" lon="-1.05038">
        <ele>88.2</ele>
        <time>2011-07-03T10:15:31Z</time>
      </trkpt>
      <trkpt lat="47.32292" lon="-1.05047">
        <ele>88.2</ele>
        <time>2011-07-03T10:15:35Z</time>
      </trkpt>
      <trkpt lat="47.32183" lon="-1.05146">
        <ele>88.3</ele>
        <time>2011-07-03T10:16:12Z</time>
      </trkpt>
      <trkpt lat="47.32181" lon="-1.05147">
        <ele>88.2</ele>
        <time>2011-07-03T10:16:13Z</time>
      </trkpt>
      <trkpt lat="47.32178" lon="-1.05147">
        <ele>88.5</ele>
        <time>2011-07-03T10:16:14Z</time>
      </trkpt>
      <trkpt lat="47.32176" lon="-1.05146">
        <ele>88.7</ele>
        <time>2011-07-03T10:16:15Z</time>
      </trkpt>
      <trkpt lat="47.32174" lon="-1.05144">
        <ele>88.9</ele>
        <time>2011-07-03T10:16:16Z</time>
      </trkpt>
      <trkpt lat="47.32174" lon="-1.05141">
        <ele>88.8</ele>
        <time>2011-07-03T10:16:17Z</time>
      </trkpt>
      <trkpt lat="47.32173" lon="-1.05137">
        <ele>88.8</ele>
        <time>2011-07-03T10:16:19Z</time>
      </trkpt>
      <trkpt lat="47.32172" lon="-1.05136">
        <ele>88.9</ele>
        <time>2011-07-03T10:16:20Z</time>
      </trkpt>
      <trkpt lat="47.32171" lon="-1.05135">
        <ele>89</ele>
        <time>2011-07-03T10:16:22Z</time>
      </trkpt>
      <trkpt lat="47.3217" lon="-1.05135">
        <ele>89</ele>
        <time>2011-07-03T10:16:23Z</time>
      </trkpt>
      <trkpt lat="47.3217" lon="-1.05135">
        <ele>88.6</ele>
        <time>2011-07-03T10:16:27Z</time>
      </trkpt>
      <trkpt lat="47.3217" lon="-1.05134">
        <ele>88.5</ele>
        <time>2011-07-03T10:16:28Z</time>
      </trkpt>
      <trkpt lat="47.3217" lon="-1.05133">
        <ele>88.4</ele>
        <time>2011-07-03T10:16:29Z</time>
      </trkpt>
      <trkpt lat="47.32169" lon="-1.05132">
        <ele>88.6</ele>
        <time>2011-07-03T10:16:30Z</time>
      </trkpt>
      <trkpt lat="47.32169" lon="-1.05132">
        <ele>88.8</ele>
        <time>2011-07-03T10:16:31Z</time>
      </trkpt>
      <trkpt lat="47.32169" lon="-1.05132">
        <ele>88.9</ele>
        <time>2011-07-03T10:16:32Z</time>
      </trkpt>
      <trkpt lat="47.32169" lon="-1.05131">
        <ele>88.9</ele>
        <time>2011-07-03T10:16:33Z</time>
      </trkpt>
      <trkpt lat="47.32168" lon="-1.05131">
        <ele>88.5</ele>
        <time>2011-07-03T10:16:38Z</time>
      </trkpt>
      <trkpt lat="47.32168" lon="-1.05131">
        <ele>88.8</ele>
        <time>2011-07-03T10:16:39Z</time>
      </trkpt>
      <trkpt lat="47.32169" lon="-1.05128">
        <ele>87.9</ele>
        <time>2011-07-03T10:23:14Z</time>
      </trkpt>
      <trkpt lat="47.32169" lon="-1.05128">
        <ele>87.7</ele>
        <time>2011-07-03T10:23:15Z</time>
      </trkpt>
      <trkpt lat="47.32168" lon="-1.05128">
        <ele>87.6</ele>
        <time>2011-07-03T10:23:20Z</time>
      </trkpt>
      <trkpt lat="47.32168" lon="-1.05128">
        <ele>87.8</ele>
        <time>2011-07-03T10:23:28Z</time>
      </trkpt>
      <trkpt lat="47.32168" lon="-1.05128">
        <ele>87.6</ele>
        <time>2011-07-03T10:23:31Z</time>
      </trkpt>
      <trkpt lat="47.32168" lon="-1.0513">
        <ele>87.9</ele>
        <time>2011-07-03T10:23:55Z</time>
      </trkpt>
      <trkpt lat="47.32168" lon="-1.0513">
        <ele>87.8</ele>
        <time>2011-07-03T10:23:57Z</time>
      </trkpt>
      <trkpt lat="47.32168" lon="-1.0513">
        <ele>87.3</ele>
        <time>2011-07-03T10:24:11Z</time>
      </trkpt>
      <trkpt lat="47.32168" lon="-1.05131">
        <ele>87.7</ele>
        <time>2011-07-03T10:24:25Z</time>
      </trkpt>
      <trkpt lat="47.32167" lon="-1.05132">
        <ele>87.7</ele>
        <time>2011-07-03T10:24:27Z</time>
      </trkpt>
      <trkpt lat="47.32167" lon="-1.05132">
        <ele>87.5</ele>
        <time>2011-07-03T10:24:28Z</time>
      </trkpt>
      <trkpt lat="47.32167" lon="-1.05133">
        <ele>87.3</ele>
        <time>2011-07-03T10:24:29Z</time>
      </trkpt>
      <trkpt lat="47.32166" lon="-1.05135">
        <ele>87.3</ele>
        <time>2011-07-03T10:24:32Z</time>
      </trkpt>
      <trkpt lat="47.32166" lon="-1.05135">
        <ele>87.4</ele>
        <time>2011-07-03T10:24:33Z</time>
      </trkpt>
      <trkpt lat="47.32166" lon="-1.05135">
        <ele>87.5</ele>
        <time>2011-07-03T10:24:34Z</time>
      </trkpt>
      <trkpt lat="47.32165" lon="-1.05136">
        <ele>87.7</ele>
        <time>2011-07-03T10:24:36Z</time>
      </trkpt>
      <trkpt lat="47.32163" lon="-1.05139">
        <ele>87.5</ele>
        <time>2011-07-03T10:24:38Z</time>
      </trkpt>
      <trkpt lat="47.32155" lon="-1.05149">
        <ele>87.5</ele>
        <time>2011-07-03T10:24:42Z</time>
      </trkpt>
      <trkpt lat="47.32152" lon="-1.05153">
        <ele>87.6</ele>
        <time>2011-07-03T10:24:43Z</time>
      </trkpt>
      <trkpt lat="47.3215" lon="-1.05158">
        <ele>87.6</ele>
        <time>2011-07-03T10:24:44Z</time>
      </trkpt>
      <trkpt lat="47.32149" lon="-1.05163">
        <ele>87.7</ele>
        <time>2011-07-03T10:24:45Z</time>
      </trkpt>
      <trkpt lat="47.32147" lon="-1.05168">
        <ele>87.7</ele>
        <time>2011-07-03T10:24:46Z</time>
      </trkpt>
      <trkpt lat="47.32143" lon="-1.05186">
        <ele>87.2</ele>
        <time>2011-07-03T10:24:50Z</time>
      </trkpt>
      <trkpt lat="47.32141" lon="-1.05189">
        <ele>87.2</ele>
        <time>2011-07-03T10:24:51Z</time>
      </trkpt>
      <trkpt lat="47.32139" lon="-1.05192">
        <ele>87.2</ele>
        <time>2011-07-03T10:24:52Z</time>
      </trkpt>
      <trkpt lat="47.32127" lon="-1.05206">
        <ele>86.9</ele>
        <time>2011-07-03T10:24:57Z</time>
      </trkpt>
      <trkpt lat="47.32125" lon="-1.05208">
        <ele>86.9</ele>
        <time>2011-07-03T10:24:58Z</time>
      </trkpt>
      <trkpt lat="47.32122" lon="-1.0521">
        <ele>87</ele>
        <time>2011-07-03T10:24:59Z</time>
      </trkpt>
      <trkpt lat="47.32119" lon="-1.05211">
        <ele>87.2</ele>
        <time>2011-07-03T10:25:00Z</time>
      </trkpt>
      <trkpt lat="47.32116" lon="-1.05211">
        <ele>87.4</ele>
        <time>2011-07-03T10:25:01Z</time>
      </trkpt>
      <trkpt lat="47.32113" lon="-1.05211">
        <ele>87.5</ele>
        <time>2011-07-03T10:25:02Z</time>
      </trkpt>
      <trkpt lat="47.3211" lon="-1.0521">
        <ele>87.5</ele>
        <time>2011-07-03T10:25:03Z</time>
      </trkpt>
      <trkpt lat="47.32106" lon="-1.05208">
        <ele>87.5</ele>
        <time>2011-07-03T10:25:04Z</time>
      </trkpt>
      <trkpt lat="47.32103" lon="-1.05205">
        <ele>87.5</ele>
        <time>2011-07-03T10:25:05Z</time>
      </trkpt>
      <trkpt lat="47.321" lon="-1.05202">
        <ele>87.5</ele>
        <time>2011-07-03T10:25:06Z</time>
      </trkpt>
      <trkpt lat="47.32098" lon="-1.05198">
        <ele>87.5</ele>
        <time>2011-07-03T10:25:07Z</time>
      </trkpt>
      <trkpt lat="47.32076" lon="-1.05157">
        <ele>87.5</ele>
        <time>2011-07-03T10:25:15Z</time>
      </trkpt>
      <trkpt lat="47.32066" lon="-1.05145">
        <ele>87</ele>
        <time>2011-07-03T10:25:18Z</time>
      </trkpt>
      <trkpt lat="47.32064" lon="-1.05141">
        <ele>86.8</ele>
        <time>2011-07-03T10:25:19Z</time>
      </trkpt>
      <trkpt lat="47.32065" lon="-1.05136">
        <ele>86.6</ele>
        <time>2011-07-03T10:25:20Z</time>
      </trkpt>
      <trkpt lat="47.32066" lon="-1.05132">
        <ele>86.5</ele>
        <time>2011-07-03T10:25:21Z</time>
      </trkpt>
      <trkpt lat="47.32071" lon="-1.05122">
        <ele>85.9</ele>
        <time>2011-07-03T10:25:23Z</time>
      </trkpt>
      <trkpt lat="47.32074" lon="-1.05118">
        <ele>85.5</ele>
        <time>2011-07-03T10:25:24Z</time>
      </trkpt>
      <trkpt lat="47.32095" lon="-1.05085">
        <ele>85.2</ele>
        <time>2011-07-03T10:25:31Z</time>
      </trkpt>
      <trkpt lat="47.32097" lon="-1.0508">
        <ele>85</ele>
        <time>2011-07-03T10:25:32Z</time>
      </trkpt>
      <trkpt lat="47.32096" lon="-1.05073">
        <ele>84.8</ele>
        <time>2011-07-03T10:25:33Z</time>
      </trkpt>
      <trkpt lat="47.32095" lon="-1.05067">
        <ele>84.7</ele>
        <time>2011-07-03T10:25:34Z</time>
      </trkpt>
      <trkpt lat="47.32092" lon="-1.05061">
        <ele>84.6</ele>
        <time>2011-07-03T10:25:35Z</time>
      </trkpt>
      <trkpt lat="47.32087" lon="-1.05047">
        <ele>84.5</ele>
        <time>2011-07-03T10:25:37Z</time>
      </trkpt>
      <trkpt lat="47.32083" lon="-1.0504">
        <ele>84.5</ele>
        <time>2011-07-03T10:25:38Z</time>
      </trkpt>
      <trkpt lat="47.32056" lon="-1.05001">
        <ele>82.5</ele>
        <time>2011-07-03T10:25:44Z</time>
      </trkpt>
      <trkpt lat="47.32053" lon="-1.04994">
        <ele>82</ele>
        <time>2011-07-03T10:25:45Z</time>
      </trkpt>
      <trkpt lat="47.32053" lon="-1.04987">
        <ele>81.5</ele>
        <time>2011-07-03T10:25:46Z</time>
      </trkpt>
      <trkpt lat="47.32053" lon="-1.0498">
        <ele>81.2</ele>
        <time>2011-07-03T10:25:47Z</time>
      </trkpt>
      <trkpt lat="47.32055" lon="-1.04975">
        <ele>80.4</ele>
        <time>2011-07-03T10:25:48Z</time>
      </trkpt>
      <trkpt lat="47.32058" lon="-1.04969">
        <ele>79.9</ele>
        <time>2011-07-03T10:25:49Z</time>
      </trkpt>
      <trkpt lat="47.32086" lon="-1.04921">
        <ele>77.9</ele>
        <time>2011-07-03T10:25:58Z</time>
      </trkpt>
      <trkpt lat="47.32087" lon="-1.04915">
        <ele>77.7</ele>
        <time>2011-07-03T10:25:59Z</time>
      </trkpt>
      <trkpt lat="47.32087" lon="-1.04908">
        <ele>77.5</ele>
        <time>2011-07-03T10:26:00Z</time>
      </trkpt>
      <trkpt lat="47.32084" lon="-1.04902">
        <ele>77.6</ele>
        <time>2011-07-03T10:26:01Z</time>
      </trkpt>
      <trkpt lat="47.32081" lon="-1.04897">
        <ele>77.7</ele>
        <time>2011-07-03T10:26:02Z</time>
      </trkpt>
      <trkpt lat="47.32025" lon="-1.04809">
        <ele>72.6</ele>
        <time>2011-07-03T10:26:13Z</time>
      </trkpt>
      <trkpt lat="47.32018" lon="-1.048">
        <ele>71</ele>
        <time>2011-07-03T10:26:14Z</time>
      </trkpt>
      <trkpt lat="47.31978" lon="-1.04757">
        <ele>66.5</ele>
        <time>2011-07-03T10:26:19Z</time>
      </trkpt>
      <trkpt lat="47.3197" lon="-1.04751">
        <ele>66.2</ele>
        <time>2011-07-03T10:26:20Z</time>
      </trkpt>
      <trkpt lat="47.31935" lon="-1.04729">
        <ele>63.8</ele>
        <time>2011-07-03T10:26:25Z</time>
      </trkpt>
      <trkpt lat="47.3193" lon="-1.04725">
        <ele>63.4</ele>
        <time>2011-07-03T10:26:26Z</time>
      </trkpt>
      <trkpt lat="47.31898" lon="-1.04683">
        <ele>65.8</ele>
        <time>2011-07-03T10:26:36Z</time>
      </trkpt>
      <trkpt lat="47.31896" lon="-1.04679">
        <ele>66.2</ele>
        <time>2011-07-03T10:26:37Z</time>
      </trkpt>
      <trkpt lat="47.31868" lon="-1.04619">
        <ele>66.2</ele>
        <time>2011-07-03T10:26:48Z</time>
      </trkpt>
      <trkpt lat="47.31825" lon="-1.04548">
        <ele>61.7</ele>
        <time>2011-07-03T10:27:01Z</time>
      </trkpt>
      <trkpt lat="47.31782" lon="-1.0451">
        <ele>53.5</ele>
        <time>2011-07-03T10:27:11Z</time>
      </trkpt>
      <trkpt lat="47.31777" lon="-1.04504">
        <ele>52.7</ele>
        <time>2011-07-03T10:27:12Z</time>
      </trkpt>
      <trkpt lat="47.31754" lon="-1.04479">
        <ele>45.5</ele>
        <time>2011-07-03T10:27:17Z</time>
      </trkpt>
      <trkpt lat="47.31749" lon="-1.04476">
        <ele>43.8</ele>
        <time>2011-07-03T10:27:18Z</time>
      </trkpt>
      <trkpt lat="47.31743" lon="-1.04474">
        <ele>42.6</ele>
        <time>2011-07-03T10:27:19Z</time>
      </trkpt>
      <trkpt lat="47.31737" lon="-1.04473">
        <ele>41.7</ele>
        <time>2011-07-03T10:27:20Z</time>
      </trkpt>
      <trkpt lat="47.3173" lon="-1.04474">
        <ele>40.1</ele>
        <time>2011-07-03T10:27:21Z</time>
      </trkpt>
      <trkpt lat="47.31724" lon="-1.04477">
        <ele>38.9</ele>
        <time>2011-07-03T10:27:22Z</time>
      </trkpt>
      <trkpt lat="47.31719" lon="-1.04482">
        <ele>38</ele>
        <time>2011-07-03T10:27:23Z</time>
      </trkpt>
      <trkpt lat="47.31693" lon="-1.04512">
        <ele>35.1</ele>
        <time>2011-07-03T10:27:32Z</time>
      </trkpt>
      <trkpt lat="47.31684" lon="-1.04522">
        <ele>35.1</ele>
        <time>2011-07-03T10:27:36Z</time>
      </trkpt>
      <trkpt lat="47.31682" lon="-1.04525">
        <ele>35</ele>
        <time>2011-07-03T10:27:37Z</time>
      </trkpt>
      <trkpt lat="47.31652" lon="-1.04588">
        <ele>35.1</ele>
        <time>2011-07-03T10:27:55Z</time>
      </trkpt>
      <trkpt lat="47.31649" lon="-1.04591">
        <ele>35.4</ele>
        <time>2011-07-03T10:27:56Z</time>
      </trkpt>
      <trkpt lat="47.31612" lon="-1.04625">
        <ele>32.4</ele>
        <time>2011-07-03T10:28:03Z</time>
      </trkpt>
      <trkpt lat="47.31609" lon="-1.04629">
        <ele>31.6</ele>
        <time>2011-07-03T10:28:04Z</time>
      </trkpt>
      <trkpt lat="47.31597" lon="-1.04649">
        <ele>29.1</ele>
        <time>2011-07-03T10:28:09Z</time>
      </trkpt>
      <trkpt lat="47.31554" lon="-1.047">
        <ele>30.5</ele>
        <time>2011-07-03T10:28:29Z</time>
      </trkpt>
      <trkpt lat="47.31552" lon="-1.04703">
        <ele>30.7</ele>
        <time>2011-07-03T10:28:30Z</time>
      </trkpt>
      <trkpt lat="47.31549" lon="-1.04709">
        <ele>31.1</ele>
        <time>2011-07-03T10:28:32Z</time>
      </trkpt>
      <trkpt lat="47.31547" lon="-1.04716">
        <ele>31</ele>
        <time>2011-07-03T10:28:34Z</time>
      </trkpt>
      <trkpt lat="47.31546" lon="-1.04724">
        <ele>30.8</ele>
        <time>2011-07-03T10:28:36Z</time>
      </trkpt>
      <trkpt lat="47.31546" lon="-1.04728">
        <ele>30.9</ele>
        <time>2011-07-03T10:28:37Z</time>
      </trkpt>
      <trkpt lat="47.31546" lon="-1.04732">
        <ele>30.9</ele>
        <time>2011-07-03T10:28:38Z</time>
      </trkpt>
      <trkpt lat="47.31547" lon="-1.0474">
        <ele>30.9</ele>
        <time>2011-07-03T10:28:40Z</time>
      </trkpt>
      <trkpt lat="47.31547" lon="-1.04743">
        <ele>30.8</ele>
        <time>2011-07-03T10:28:41Z</time>
      </trkpt>
      <trkpt lat="47.31557" lon="-1.04779">
        <ele>31.9</ele>
        <time>2011-07-03T10:28:51Z</time>
      </trkpt>
      <trkpt lat="47.31561" lon="-1.04789">
        <ele>32</ele>
        <time>2011-07-03T10:28:55Z</time>
      </trkpt>
      <trkpt lat="47.31566" lon="-1.04796">
        <ele>32.3</ele>
        <time>2011-07-03T10:28:58Z</time>
      </trkpt>
      <trkpt lat="47.31569" lon="-1.04801">
        <ele>32.5</ele>
        <time>2011-07-03T10:29:00Z</time>
      </trkpt>
      <trkpt lat="47.31596" lon="-1.04832">
        <ele>35.8</ele>
        <time>2011-07-03T10:29:16Z</time>
      </trkpt>
      <trkpt lat="47.31598" lon="-1.04833">
        <ele>35.6</ele>
        <time>2011-07-03T10:29:17Z</time>
      </trkpt>
      <trkpt lat="47.31602" lon="-1.04837">
        <ele>36.2</ele>
        <time>2011-07-03T10:29:20Z</time>
      </trkpt>
      <trkpt lat="47.31605" lon="-1.04838">
        <ele>36.4</ele>
        <time>2011-07-03T10:29:22Z</time>
      </trkpt>
      <trkpt lat="47.31608" lon="-1.0484">
        <ele>36.4</ele>
        <time>2011-07-03T10:29:24Z</time>
      </trkpt>
      <trkpt lat="47.3162" lon="-1.04844">
        <ele>37.2</ele>
        <time>2011-07-03T10:29:31Z</time>
      </trkpt>
      <trkpt lat="47.31628" lon="-1.04844">
        <ele>37.7</ele>
        <time>2011-07-03T10:29:36Z</time>
      </trkpt>
      <trkpt lat="47.31629" lon="-1.04844">
        <ele>37.9</ele>
        <time>2011-07-03T10:29:37Z</time>
      </trkpt>
      <trkpt lat="47.31634" lon="-1.04845">
        <ele>39.1</ele>
        <time>2011-07-03T10:29:40Z</time>
      </trkpt>
      <trkpt lat="47.3164" lon="-1.04845">
        <ele>39.6</ele>
        <time>2011-07-03T10:29:44Z</time>
      </trkpt>
      <trkpt lat="47.31644" lon="-1.04845">
        <ele>39.5</ele>
        <time>2011-07-03T10:29:46Z</time>
      </trkpt>
      <trkpt lat="47.31655" lon="-1.04846">
        <ele>40.8</ele>
        <time>2011-07-03T10:29:53Z</time>
      </trkpt>
      <trkpt lat="47.31659" lon="-1.04847">
        <ele>41.5</ele>
        <time>2011-07-03T10:29:56Z</time>
      </trkpt>
      <trkpt lat="47.31661" lon="-1.04847">
        <ele>41.4</ele>
        <time>2011-07-03T10:29:57Z</time>
      </trkpt>
      <trkpt lat="47.31674" lon="-1.04846">
        <ele>42.1</ele>
        <time>2011-07-03T10:30:04Z</time>
      </trkpt>
      <trkpt lat="47.31683" lon="-1.04846">
        <ele>42</ele>
        <time>2011-07-03T10:30:09Z</time>
      </trkpt>
      <trkpt lat="47.31687" lon="-1.04846">
        <ele>42.3</ele>
        <time>2011-07-03T10:30:11Z</time>
      </trkpt>
      <trkpt lat="47.31688" lon="-1.04846">
        <ele>42.4</ele>
        <time>2011-07-03T10:30:12Z</time>
      </trkpt>
      <trkpt lat="47.3169" lon="-1.04847">
        <ele>42.6</ele>
        <time>2011-07-03T10:30:13Z</time>
      </trkpt>
      <trkpt lat="47.31692" lon="-1.04847">
        <ele>42.7</ele>
        <time>2011-07-03T10:30:14Z</time>
      </trkpt>
      <trkpt lat="47.31704" lon="-1.04848">
        <ele>43.9</ele>
        <time>2011-07-03T10:30:20Z</time>
      </trkpt>
      <trkpt lat="47.31707" lon="-1.04848">
        <ele>44.2</ele>
        <time>2011-07-03T10:30:22Z</time>
      </trkpt>
      <trkpt lat="47.31732" lon="-1.04853">
        <ele>47</ele>
        <time>2011-07-03T10:30:35Z</time>
      </trkpt>
      <trkpt lat="47.31739" lon="-1.04856">
        <ele>47.8</ele>
        <time>2011-07-03T10:30:39Z</time>
      </trkpt>
      <trkpt lat="47.3176" lon="-1.0487">
        <ele>48.3</ele>
        <time>2011-07-03T10:30:51Z</time>
      </trkpt>
      <trkpt lat="47.31763" lon="-1.04873">
        <ele>48.3</ele>
        <time>2011-07-03T10:30:53Z</time>
      </trkpt>
      <trkpt lat="47.31764" lon="-1.04874">
        <ele>48.3</ele>
        <time>2011-07-03T10:30:54Z</time>
      </trkpt>
      <trkpt lat="47.31767" lon="-1.04878">
        <ele>48.5</ele>
        <time>2011-07-03T10:30:56Z</time>
      </trkpt>
      <trkpt lat="47.31781" lon="-1.04907">
        <ele>50.1</ele>
        <time>2011-07-03T10:31:07Z</time>
      </trkpt>
      <trkpt lat="47.3179" lon="-1.04933">
        <ele>51.7</ele>
        <time>2011-07-03T10:31:18Z</time>
      </trkpt>
      <trkpt lat="47.31791" lon="-1.04935">
        <ele>51.8</ele>
        <time>2011-07-03T10:31:19Z</time>
      </trkpt>
      <trkpt lat="47.31808" lon="-1.04964">
        <ele>55.4</ele>
        <time>2011-07-03T10:31:37Z</time>
      </trkpt>
      <trkpt lat="47.31809" lon="-1.04965">
        <ele>55.7</ele>
        <time>2011-07-03T10:31:38Z</time>
      </trkpt>
      <trkpt lat="47.3183" lon="-1.04992">
        <ele>60.7</ele>
        <time>2011-07-03T10:31:58Z</time>
      </trkpt>
      <trkpt lat="47.31837" lon="-1.05003">
        <ele>63</ele>
        <time>2011-07-03T10:32:06Z</time>
      </trkpt>
      <trkpt lat="47.31845" lon="-1.05013">
        <ele>64.9</ele>
        <time>2011-07-03T10:32:14Z</time>
      </trkpt>
      <trkpt lat="47.31847" lon="-1.05015">
        <ele>65.2</ele>
        <time>2011-07-03T10:32:16Z</time>
      </trkpt>
      <trkpt lat="47.31849" lon="-1.05017">
        <ele>65.4</ele>
        <time>2011-07-03T10:32:18Z</time>
      </trkpt>
      <trkpt lat="47.3185" lon="-1.05018">
        <ele>65.4</ele>
        <time>2011-07-03T10:32:19Z</time>
      </trkpt>
      <trkpt lat="47.31851" lon="-1.05021">
        <ele>65.9</ele>
        <time>2011-07-03T10:32:21Z</time>
      </trkpt>
      <trkpt lat="47.31852" lon="-1.05022">
        <ele>66.2</ele>
        <time>2011-07-03T10:32:22Z</time>
      </trkpt>
      <trkpt lat="47.31857" lon="-1.05029">
        <ele>68.2</ele>
        <time>2011-07-03T10:32:28Z</time>
      </trkpt>
      <trkpt lat="47.3186" lon="-1.05032">
        <ele>69.5</ele>
        <time>2011-07-03T10:32:31Z</time>
      </trkpt>
      <trkpt lat="47.31861" lon="-1.05035">
        <ele>69.9</ele>
        <time>2011-07-03T10:32:33Z</time>
      </trkpt>
      <trkpt lat="47.31864" lon="-1.05038">
        <ele>70.5</ele>
        <time>2011-07-03T10:32:36Z</time>
      </trkpt>
      <trkpt lat="47.3187" lon="-1.05045">
        <ele>71.6</ele>
        <time>2011-07-03T10:32:42Z</time>
      </trkpt>
      <trkpt lat="47.31871" lon="-1.05047">
        <ele>71.7</ele>
        <time>2011-07-03T10:32:43Z</time>
      </trkpt>
      <trkpt lat="47.31896" lon="-1.05081">
        <ele>74</ele>
        <time>2011-07-03T10:33:04Z</time>
      </trkpt>
      <trkpt lat="47.31961" lon="-1.05183">
        <ele>81.9</ele>
        <time>2011-07-03T10:33:48Z</time>
      </trkpt>
      <trkpt lat="47.31962" lon="-1.05186">
        <ele>81.9</ele>
        <time>2011-07-03T10:33:49Z</time>
      </trkpt>
      <trkpt lat="47.31962" lon="-1.05189">
        <ele>82.4</ele>
        <time>2011-07-03T10:33:50Z</time>
      </trkpt>
      <trkpt lat="47.31962" lon="-1.05191">
        <ele>82.8</ele>
        <time>2011-07-03T10:33:51Z</time>
      </trkpt>
      <trkpt lat="47.3196" lon="-1.05194">
        <ele>83.1</ele>
        <time>2011-07-03T10:33:52Z</time>
      </trkpt>
      <trkpt lat="47.31902" lon="-1.05249">
        <ele>81.6</ele>
        <time>2011-07-03T10:34:07Z</time>
      </trkpt>
      <trkpt lat="47.31883" lon="-1.05271">
        <ele>81.2</ele>
        <time>2011-07-03T10:34:11Z</time>
      </trkpt>
      <trkpt lat="47.31879" lon="-1.05274">
        <ele>80.7</ele>
        <time>2011-07-03T10:34:12Z</time>
      </trkpt>
      <trkpt lat="47.31876" lon="-1.05275">
        <ele>80.3</ele>
        <time>2011-07-03T10:34:13Z</time>
      </trkpt>
      <trkpt lat="47.31873" lon="-1.05275">
        <ele>80</ele>
        <time>2011-07-03T10:34:14Z</time>
      </trkpt>
      <trkpt lat="47.3187" lon="-1.05274">
        <ele>79.8</ele>
        <time>2011-07-03T10:34:15Z</time>
      </trkpt>
      <trkpt lat="47.31867" lon="-1.05273">
        <ele>79.7</ele>
        <time>2011-07-03T10:34:16Z</time>
      </trkpt>
      <trkpt lat="47.31842" lon="-1.05258">
        <ele>79.2</ele>
        <time>2011-07-03T10:34:22Z</time>
      </trkpt>
      <trkpt lat="47.31838" lon="-1.05257">
        <ele>79</ele>
        <time>2011-07-03T10:34:23Z</time>
      </trkpt>
      <trkpt lat="47.31827" lon="-1.05254">
        <ele>78.3</ele>
        <time>2011-07-03T10:34:25Z</time>
      </trkpt>
      <trkpt lat="47.31821" lon="-1.05253">
        <ele>77.9</ele>
        <time>2011-07-03T10:34:26Z</time>
      </trkpt>
      <trkpt lat="47.31809" lon="-1.05253">
        <ele>77.2</ele>
        <time>2011-07-03T10:34:28Z</time>
      </trkpt>
      <trkpt lat="47.31795" lon="-1.05255">
        <ele>76.8</ele>
        <time>2011-07-03T10:34:30Z</time>
      </trkpt>
      <trkpt lat="47.31695" lon="-1.05285">
        <ele>72.9</ele>
        <time>2011-07-03T10:34:42Z</time>
      </trkpt>
      <trkpt lat="47.31685" lon="-1.05285">
        <ele>72.6</ele>
        <time>2011-07-03T10:34:43Z</time>
      </trkpt>
      <trkpt lat="47.31675" lon="-1.05283">
        <ele>71.9</ele>
        <time>2011-07-03T10:34:44Z</time>
      </trkpt>
      <trkpt lat="47.31665" lon="-1.05279">
        <ele>71.3</ele>
        <time>2011-07-03T10:34:45Z</time>
      </trkpt>
      <trkpt lat="47.31656" lon="-1.05273">
        <ele>70.9</ele>
        <time>2011-07-03T10:34:46Z</time>
      </trkpt>
      <trkpt lat="47.31647" lon="-1.05265">
        <ele>70.6</ele>
        <time>2011-07-03T10:34:47Z</time>
      </trkpt>
      <trkpt lat="47.31639" lon="-1.05257">
        <ele>69.7</ele>
        <time>2011-07-03T10:34:48Z</time>
      </trkpt>
      <trkpt lat="47.31597" lon="-1.05201">
        <ele>66.3</ele>
        <time>2011-07-03T10:34:54Z</time>
      </trkpt>
      <trkpt lat="47.3159" lon="-1.05194">
        <ele>65.9</ele>
        <time>2011-07-03T10:34:55Z</time>
      </trkpt>
      <trkpt lat="47.31576" lon="-1.05183">
        <ele>65.5</ele>
        <time>2011-07-03T10:34:57Z</time>
      </trkpt>
      <trkpt lat="47.3157" lon="-1.0518">
        <ele>65.4</ele>
        <time>2011-07-03T10:34:58Z</time>
      </trkpt>
      <trkpt lat="47.31566" lon="-1.0518">
        <ele>65.3</ele>
        <time>2011-07-03T10:34:59Z</time>
      </trkpt>
      <trkpt lat="47.31564" lon="-1.05183">
        <ele>64.5</ele>
        <time>2011-07-03T10:35:00Z</time>
      </trkpt>
      <trkpt lat="47.31563" lon="-1.05186">
        <ele>63.9</ele>
        <time>2011-07-03T10:35:01Z</time>
      </trkpt>
      <trkpt lat="47.31562" lon="-1.05191">
        <ele>63.5</ele>
        <time>2011-07-03T10:35:02Z</time>
      </trkpt>
      <trkpt lat="47.31563" lon="-1.05196">
        <ele>63.1</ele>
        <time>2011-07-03T10:35:03Z</time>
      </trkpt>
      <trkpt lat="47.31565" lon="-1.05201">
        <ele>63.2</ele>
        <time>2011-07-03T10:35:04Z</time>
      </trkpt>
      <trkpt lat="47.31581" lon="-1.05247">
        <ele>62.9</ele>
        <time>2011-07-03T10:35:16Z</time>
      </trkpt>
      <trkpt lat="47.31586" lon="-1.05256">
        <ele>63.6</ele>
        <time>2011-07-03T10:35:20Z</time>
      </trkpt>
      <trkpt lat="47.31587" lon="-1.05258">
        <ele>63.9</ele>
        <time>2011-07-03T10:35:21Z</time>
      </trkpt>
      <trkpt lat="47.31613" lon="-1.05341">
        <ele>69</ele>
        <time>2011-07-03T10:35:57Z</time>
      </trkpt>
      <trkpt lat="47.31613" lon="-1.05343">
        <ele>69.1</ele>
        <time>2011-07-03T10:35:58Z</time>
      </trkpt>
      <trkpt lat="47.31619" lon="-1.0536">
        <ele>70.4</ele>
        <time>2011-07-03T10:36:05Z</time>
      </trkpt>
      <trkpt lat="47.31628" lon="-1.05401">
        <ele>72.4</ele>
        <time>2011-07-03T10:36:22Z</time>
      </trkpt>
      <trkpt lat="47.31631" lon="-1.05415">
        <ele>73.2</ele>
        <time>2011-07-03T10:36:28Z</time>
      </trkpt>
      <trkpt lat="47.31633" lon="-1.0542">
        <ele>73.7</ele>
        <time>2011-07-03T10:36:30Z</time>
      </trkpt>
      <trkpt lat="47.31634" lon="-1.05422">
        <ele>74.1</ele>
        <time>2011-07-03T10:36:31Z</time>
      </trkpt>
      <trkpt lat="47.31638" lon="-1.05441">
        <ele>75</ele>
        <time>2011-07-03T10:36:39Z</time>
      </trkpt>
      <trkpt lat="47.31642" lon="-1.05453">
        <ele>76.1</ele>
        <time>2011-07-03T10:36:44Z</time>
      </trkpt>
      <trkpt lat="47.31653" lon="-1.05479">
        <ele>76.3</ele>
        <time>2011-07-03T10:36:55Z</time>
      </trkpt>
      <trkpt lat="47.31657" lon="-1.05488">
        <ele>76.2</ele>
        <time>2011-07-03T10:36:59Z</time>
      </trkpt>
      <trkpt lat="47.3167" lon="-1.05512">
        <ele>78.4</ele>
        <time>2011-07-03T10:37:11Z</time>
      </trkpt>
      <trkpt lat="47.31671" lon="-1.05514">
        <ele>78.5</ele>
        <time>2011-07-03T10:37:12Z</time>
      </trkpt>
      <trkpt lat="47.31672" lon="-1.05517">
        <ele>78.6</ele>
        <time>2011-07-03T10:37:13Z</time>
      </trkpt>
      <trkpt lat="47.31683" lon="-1.0554">
        <ele>79.4</ele>
        <time>2011-07-03T10:37:23Z</time>
      </trkpt>
      <trkpt lat="47.31684" lon="-1.05542">
        <ele>79.2</ele>
        <time>2011-07-03T10:37:24Z</time>
      </trkpt>
      <trkpt lat="47.31686" lon="-1.05544">
        <ele>79.1</ele>
        <time>2011-07-03T10:37:25Z</time>
      </trkpt>
      <trkpt lat="47.31707" lon="-1.05586">
        <ele>81.4</ele>
        <time>2011-07-03T10:37:43Z</time>
      </trkpt>
      <trkpt lat="47.31712" lon="-1.05599">
        <ele>81.8</ele>
        <time>2011-07-03T10:37:48Z</time>
      </trkpt>
      <trkpt lat="47.31724" lon="-1.05621">
        <ele>82.3</ele>
        <time>2011-07-03T10:37:56Z</time>
      </trkpt>
      <trkpt lat="47.3173" lon="-1.05636">
        <ele>83.4</ele>
        <time>2011-07-03T10:38:01Z</time>
      </trkpt>
      <trkpt lat="47.31731" lon="-1.05639">
        <ele>83.3</ele>
        <time>2011-07-03T10:38:02Z</time>
      </trkpt>
      <trkpt lat="47.31755" lon="-1.05688">
        <ele>85.4</ele>
        <time>2011-07-03T10:38:21Z</time>
      </trkpt>
      <trkpt lat="47.31771" lon="-1.05715">
        <ele>86.2</ele>
        <time>2011-07-03T10:38:33Z</time>
      </trkpt>
      <trkpt lat="47.31782" lon="-1.05729">
        <ele>85.6</ele>
        <time>2011-07-03T10:38:39Z</time>
      </trkpt>
      <trkpt lat="47.31786" lon="-1.05738">
        <ele>85.7</ele>
        <time>2011-07-03T10:38:42Z</time>
      </trkpt>
      <trkpt lat="47.31814" lon="-1.05785">
        <ele>85.7</ele>
        <time>2011-07-03T10:38:57Z</time>
      </trkpt>
      <trkpt lat="47.3184" lon="-1.05809">
        <ele>85.4</ele>
        <time>2011-07-03T10:39:08Z</time>
      </trkpt>
      <trkpt lat="47.31841" lon="-1.05812">
        <ele>85.9</ele>
        <time>2011-07-03T10:39:09Z</time>
      </trkpt>
      <trkpt lat="47.31844" lon="-1.05816">
        <ele>86.5</ele>
        <time>2011-07-03T10:39:11Z</time>
      </trkpt>
      <trkpt lat="47.31852" lon="-1.05824">
        <ele>87.8</ele>
        <time>2011-07-03T10:39:16Z</time>
      </trkpt>
      <trkpt lat="47.31861" lon="-1.05834">
        <ele>88.7</ele>
        <time>2011-07-03T10:39:23Z</time>
      </trkpt>
      <trkpt lat="47.31866" lon="-1.05839">
        <ele>89.4</ele>
        <time>2011-07-03T10:39:26Z</time>
      </trkpt>
      <trkpt lat="47.3187" lon="-1.05842">
        <ele>89.5</ele>
        <time>2011-07-03T10:39:28Z</time>
      </trkpt>
      <trkpt lat="47.31933" lon="-1.05904">
        <ele>91.9</ele>
        <time>2011-07-03T10:40:00Z</time>
      </trkpt>
      <trkpt lat="47.31936" lon="-1.05909">
        <ele>92.4</ele>
        <time>2011-07-03T10:40:02Z</time>
      </trkpt>
      <trkpt lat="47.31941" lon="-1.05916">
        <ele>93.5</ele>
        <time>2011-07-03T10:40:05Z</time>
      </trkpt>
      <trkpt lat="47.31943" lon="-1.05919">
        <ele>93.8</ele>
        <time>2011-07-03T10:40:06Z</time>
      </trkpt>
      <trkpt lat="47.31944" lon="-1.05921">
        <ele>93.6</ele>
        <time>2011-07-03T10:40:07Z</time>
      </trkpt>
      <trkpt lat="47.31944" lon="-1.05924">
        <ele>93.4</ele>
        <time>2011-07-03T10:40:08Z</time>
      </trkpt>
      <trkpt lat="47.31944" lon="-1.05927">
        <ele>93.3</ele>
        <time>2011-07-03T10:40:09Z</time>
      </trkpt>
      <trkpt lat="47.31944" lon="-1.05931">
        <ele>93.2</ele>
        <time>2011-07-03T10:40:10Z</time>
      </trkpt>
      <trkpt lat="47.31943" lon="-1.05934">
        <ele>93.1</ele>
        <time>2011-07-03T10:40:11Z</time>
      </trkpt>
      <trkpt lat="47.31943" lon="-1.05937">
        <ele>93</ele>
        <time>2011-07-03T10:40:12Z</time>
      </trkpt>
      <trkpt lat="47.31939" lon="-1.05947">
        <ele>93.4</ele>
        <time>2011-07-03T10:40:15Z</time>
      </trkpt>
      <trkpt lat="47.31939" lon="-1.05951">
        <ele>93.5</ele>
        <time>2011-07-03T10:40:16Z</time>
      </trkpt>
      <trkpt lat="47.31936" lon="-1.05965">
        <ele>93.3</ele>
        <time>2011-07-03T10:40:21Z</time>
      </trkpt>
      <trkpt lat="47.31932" lon="-1.05977">
        <ele>94</ele>
        <time>2011-07-03T10:40:25Z</time>
      </trkpt>
      <trkpt lat="47.3193" lon="-1.05988">
        <ele>93.8</ele>
        <time>2011-07-03T10:40:28Z</time>
      </trkpt>
      <trkpt lat="47.31918" lon="-1.06021">
        <ele>93.6</ele>
        <time>2011-07-03T10:40:37Z</time>
      </trkpt>
      <trkpt lat="47.31917" lon="-1.06025">
        <ele>93.6</ele>
        <time>2011-07-03T10:40:38Z</time>
      </trkpt>
      <trkpt lat="47.31906" lon="-1.0606">
        <ele>94</ele>
        <time>2011-07-03T10:40:46Z</time>
      </trkpt>
      <trkpt lat="47.31884" lon="-1.0612">
        <ele>93.7</ele>
        <time>2011-07-03T10:40:59Z</time>
      </trkpt>
      <trkpt lat="47.31873" lon="-1.06145">
        <ele>94.4</ele>
        <time>2011-07-03T10:41:05Z</time>
      </trkpt>
      <trkpt lat="47.31857" lon="-1.06185">
        <ele>94.3</ele>
        <time>2011-07-03T10:41:14Z</time>
      </trkpt>
      <trkpt lat="47.31855" lon="-1.06191">
        <ele>94.2</ele>
        <time>2011-07-03T10:41:15Z</time>
      </trkpt>
      <trkpt lat="47.3185" lon="-1.06261">
        <ele>93.5</ele>
        <time>2011-07-03T10:41:26Z</time>
      </trkpt>
      <trkpt lat="47.31824" lon="-1.06353">
        <ele>93.5</ele>
        <time>2011-07-03T10:41:39Z</time>
      </trkpt>
      <trkpt lat="47.31823" lon="-1.06361">
        <ele>93.4</ele>
        <time>2011-07-03T10:41:40Z</time>
      </trkpt>
      <trkpt lat="47.31797" lon="-1.06493">
        <ele>93.9</ele>
        <time>2011-07-03T10:42:00Z</time>
      </trkpt>
      <trkpt lat="47.31797" lon="-1.06498">
        <ele>94</ele>
        <time>2011-07-03T10:42:01Z</time>
      </trkpt>
      <trkpt lat="47.31799" lon="-1.06503">
        <ele>94</ele>
        <time>2011-07-03T10:42:02Z</time>
      </trkpt>
      <trkpt lat="47.31801" lon="-1.06507">
        <ele>93.9</ele>
        <time>2011-07-03T10:42:03Z</time>
      </trkpt>
      <trkpt lat="47.31804" lon="-1.06509">
        <ele>93.9</ele>
        <time>2011-07-03T10:42:04Z</time>
      </trkpt>
      <trkpt lat="47.31818" lon="-1.06512">
        <ele>95.3</ele>
        <time>2011-07-03T10:42:08Z</time>
      </trkpt>
      <trkpt lat="47.31821" lon="-1.06513">
        <ele>95.8</ele>
        <time>2011-07-03T10:42:09Z</time>
      </trkpt>
      <trkpt lat="47.31828" lon="-1.06516">
        <ele>95.9</ele>
        <time>2011-07-03T10:42:11Z</time>
      </trkpt>
      <trkpt lat="47.31923" lon="-1.06572">
        <ele>97.3</ele>
        <time>2011-07-03T10:42:38Z</time>
      </trkpt>
      <trkpt lat="47.31927" lon="-1.06574">
        <ele>97.4</ele>
        <time>2011-07-03T10:42:39Z</time>
      </trkpt>
      <trkpt lat="47.32008" lon="-1.06594">
        <ele>98.9</ele>
        <time>2011-07-03T10:43:00Z</time>
      </trkpt>
      <trkpt lat="47.32015" lon="-1.06598">
        <ele>99</ele>
        <time>2011-07-03T10:43:02Z</time>
      </trkpt>
      <trkpt lat="47.32095" lon="-1.06642">
        <ele>99.3</ele>
        <time>2011-07-03T10:43:24Z</time>
      </trkpt>
      <trkpt lat="47.32098" lon="-1.06645">
        <ele>98.9</ele>
        <time>2011-07-03T10:43:25Z</time>
      </trkpt>
      <trkpt lat="47.32101" lon="-1.06648">
        <ele>98.6</ele>
        <time>2011-07-03T10:43:26Z</time>
      </trkpt>
      <trkpt lat="47.32104" lon="-1.06651">
        <ele>98.4</ele>
        <time>2011-07-03T10:43:27Z</time>
      </trkpt>
      <trkpt lat="47.32105" lon="-1.06656">
        <ele>98.6</ele>
        <time>2011-07-03T10:43:28Z</time>
      </trkpt>
      <trkpt lat="47.32106" lon="-1.0666">
        <ele>98.7</ele>
        <time>2011-07-03T10:43:29Z</time>
      </trkpt>
      <trkpt lat="47.32105" lon="-1.06664">
        <ele>98.8</ele>
        <time>2011-07-03T10:43:30Z</time>
      </trkpt>
      <trkpt lat="47.32103" lon="-1.06669">
        <ele>98.3</ele>
        <time>2011-07-03T10:43:31Z</time>
      </trkpt>
      <trkpt lat="47.321" lon="-1.06673">
        <ele>97.9</ele>
        <time>2011-07-03T10:43:32Z</time>
      </trkpt>
      <trkpt lat="47.32097" lon="-1.06676">
        <ele>97.6</ele>
        <time>2011-07-03T10:43:33Z</time>
      </trkpt>
      <trkpt lat="47.31944" lon="-1.0688">
        <ele>98.8</ele>
        <time>2011-07-03T10:44:17Z</time>
      </trkpt>
      <trkpt lat="47.31815" lon="-1.07079">
        <ele>97.2</ele>
        <time>2011-07-03T10:44:46Z</time>
      </trkpt>
      <trkpt lat="47.31809" lon="-1.07084">
        <ele>97.1</ele>
        <time>2011-07-03T10:44:47Z</time>
      </trkpt>
      <trkpt lat="47.31804" lon="-1.07087">
        <ele>96.9</ele>
        <time>2011-07-03T10:44:48Z</time>
      </trkpt>
      <trkpt lat="47.31798" lon="-1.07087">
        <ele>96.8</ele>
        <time>2011-07-03T10:44:49Z</time>
      </trkpt>
      <trkpt lat="47.31794" lon="-1.07084">
        <ele>96.7</ele>
        <time>2011-07-03T10:44:50Z</time>
      </trkpt>
      <trkpt lat="47.31791" lon="-1.07079">
        <ele>96.7</ele>
        <time>2011-07-03T10:44:51Z</time>
      </trkpt>
      <trkpt lat="47.31787" lon="-1.07067">
        <ele>96.6</ele>
        <time>2011-07-03T10:44:53Z</time>
      </trkpt>
      <trkpt lat="47.31784" lon="-1.07061">
        <ele>96.3</ele>
        <time>2011-07-03T10:44:54Z</time>
      </trkpt>
      <trkpt lat="47.3178" lon="-1.07057">
        <ele>96</ele>
        <time>2011-07-03T10:44:55Z</time>
      </trkpt>
      <trkpt lat="47.31775" lon="-1.07054">
        <ele>95.8</ele>
        <time>2011-07-03T10:44:56Z</time>
      </trkpt>
      <trkpt lat="47.3177" lon="-1.07052">
        <ele>95.7</ele>
        <time>2011-07-03T10:44:57Z</time>
      </trkpt>
      <trkpt lat="47.31764" lon="-1.0705">
        <ele>95.7</ele>
        <time>2011-07-03T10:44:58Z</time>
      </trkpt>
      <trkpt lat="47.31753" lon="-1.0705">
        <ele>95.3</ele>
        <time>2011-07-03T10:45:00Z</time>
      </trkpt>
      <trkpt lat="47.31681" lon="-1.07052">
        <ele>94.7</ele>
        <time>2011-07-03T10:45:12Z</time>
      </trkpt>
      <trkpt lat="47.31624" lon="-1.07061">
        <ele>94.4</ele>
        <time>2011-07-03T10:45:26Z</time>
      </trkpt>
      <trkpt lat="47.31621" lon="-1.07061">
        <ele>94.6</ele>
        <time>2011-07-03T10:45:27Z</time>
      </trkpt>
      <trkpt lat="47.31582" lon="-1.07054">
        <ele>95.9</ele>
        <time>2011-07-03T10:45:38Z</time>
      </trkpt>
      <trkpt lat="47.31579" lon="-1.07052">
        <ele>96</ele>
        <time>2011-07-03T10:45:39Z</time>
      </trkpt>
      <trkpt lat="47.31572" lon="-1.07046">
        <ele>96</ele>
        <time>2011-07-03T10:45:41Z</time>
      </trkpt>
      <trkpt lat="47.31568" lon="-1.07045">
        <ele>95.8</ele>
        <time>2011-07-03T10:45:42Z</time>
      </trkpt>
      <trkpt lat="47.31451" lon="-1.07021">
        <ele>92.3</ele>
        <time>2011-07-03T10:46:07Z</time>
      </trkpt>
      <trkpt lat="47.31319" lon="-1.06954">
        <ele>90.6</ele>
        <time>2011-07-03T10:46:32Z</time>
      </trkpt>
      <trkpt lat="47.31314" lon="-1.06953">
        <ele>90.3</ele>
        <time>2011-07-03T10:46:33Z</time>
      </trkpt>
      <trkpt lat="47.31309" lon="-1.06953">
        <ele>90.2</ele>
        <time>2011-07-03T10:46:34Z</time>
      </trkpt>
      <trkpt lat="47.31293" lon="-1.06954">
        <ele>89.8</ele>
        <time>2011-07-03T10:46:37Z</time>
      </trkpt>
      <trkpt lat="47.31283" lon="-1.06956">
        <ele>90</ele>
        <time>2011-07-03T10:46:39Z</time>
      </trkpt>
      <trkpt lat="47.31202" lon="-1.06986">
        <ele>89.8</ele>
        <time>2011-07-03T10:46:55Z</time>
      </trkpt>
      <trkpt lat="47.31197" lon="-1.06986">
        <ele>89.2</ele>
        <time>2011-07-03T10:46:56Z</time>
      </trkpt>
      <trkpt lat="47.31193" lon="-1.06985">
        <ele>88.7</ele>
        <time>2011-07-03T10:46:57Z</time>
      </trkpt>
      <trkpt lat="47.31188" lon="-1.06983">
        <ele>88.3</ele>
        <time>2011-07-03T10:46:58Z</time>
      </trkpt>
      <trkpt lat="47.31184" lon="-1.0698">
        <ele>88.6</ele>
        <time>2011-07-03T10:46:59Z</time>
      </trkpt>
      <trkpt lat="47.31179" lon="-1.06976">
        <ele>88.7</ele>
        <time>2011-07-03T10:47:00Z</time>
      </trkpt>
      <trkpt lat="47.3117" lon="-1.06967">
        <ele>88.7</ele>
        <time>2011-07-03T10:47:02Z</time>
      </trkpt>
      <trkpt lat="47.31165" lon="-1.06964">
        <ele>88.5</ele>
        <time>2011-07-03T10:47:03Z</time>
      </trkpt>
      <trkpt lat="47.3116" lon="-1.06962">
        <ele>88.4</ele>
        <time>2011-07-03T10:47:04Z</time>
      </trkpt>
      <trkpt lat="47.31154" lon="-1.06962">
        <ele>88.2</ele>
        <time>2011-07-03T10:47:05Z</time>
      </trkpt>
      <trkpt lat="47.31148" lon="-1.06963">
        <ele>88.1</ele>
        <time>2011-07-03T10:47:06Z</time>
      </trkpt>
      <trkpt lat="47.31142" lon="-1.06966">
        <ele>88</ele>
        <time>2011-07-03T10:47:07Z</time>
      </trkpt>
      <trkpt lat="47.31136" lon="-1.06969">
        <ele>87.6</ele>
        <time>2011-07-03T10:47:08Z</time>
      </trkpt>
      <trkpt lat="47.31089" lon="-1.07003">
        <ele>85.5</ele>
        <time>2011-07-03T10:47:16Z</time>
      </trkpt>
      <trkpt lat="47.31083" lon="-1.07009">
        <ele>85.5</ele>
        <time>2011-07-03T10:47:17Z</time>
      </trkpt>
      <trkpt lat="47.31078" lon="-1.07015">
        <ele>85</ele>
        <time>2011-07-03T10:47:18Z</time>
      </trkpt>
      <trkpt lat="47.31073" lon="-1.07022">
        <ele>84.7</ele>
        <time>2011-07-03T10:47:19Z</time>
      </trkpt>
      <trkpt lat="47.31069" lon="-1.0703">
        <ele>84.5</ele>
        <time>2011-07-03T10:47:20Z</time>
      </trkpt>
      <trkpt lat="47.30997" lon="-1.07189">
        <ele>87.6</ele>
        <time>2011-07-03T10:47:46Z</time>
      </trkpt>
      <trkpt lat="47.30994" lon="-1.07193">
        <ele>87.6</ele>
        <time>2011-07-03T10:47:47Z</time>
      </trkpt>
      <trkpt lat="47.30991" lon="-1.07196">
        <ele>87.5</ele>
        <time>2011-07-03T10:47:48Z</time>
      </trkpt>
      <trkpt lat="47.30987" lon="-1.07198">
        <ele>87.5</ele>
        <time>2011-07-03T10:47:49Z</time>
      </trkpt>
      <trkpt lat="47.3098" lon="-1.07202">
        <ele>87.7</ele>
        <time>2011-07-03T10:47:51Z</time>
      </trkpt>
      <trkpt lat="47.30954" lon="-1.07213">
        <ele>89.2</ele>
        <time>2011-07-03T10:47:58Z</time>
      </trkpt>
      <trkpt lat="47.30859" lon="-1.07223">
        <ele>88.2</ele>
        <time>2011-07-03T10:48:17Z</time>
      </trkpt>
      <trkpt lat="47.30796" lon="-1.07218">
        <ele>87.2</ele>
        <time>2011-07-03T10:48:28Z</time>
      </trkpt>
      <trkpt lat="47.30779" lon="-1.07218">
        <ele>87</ele>
        <time>2011-07-03T10:48:31Z</time>
      </trkpt>
      <trkpt lat="47.305" lon="-1.07148">
        <ele>78.1</ele>
        <time>2011-07-03T10:49:21Z</time>
      </trkpt>
      <trkpt lat="47.30497" lon="-1.07148">
        <ele>77.9</ele>
        <time>2011-07-03T10:49:22Z</time>
      </trkpt>
      <trkpt lat="47.30496" lon="-1.0715">
        <ele>77.7</ele>
        <time>2011-07-03T10:49:23Z</time>
      </trkpt>
      <trkpt lat="47.30495" lon="-1.07152">
        <ele>77.6</ele>
        <time>2011-07-03T10:49:24Z</time>
      </trkpt>
      <trkpt lat="47.30494" lon="-1.07156">
        <ele>77.7</ele>
        <time>2011-07-03T10:49:25Z</time>
      </trkpt>
      <trkpt lat="47.30467" lon="-1.07279">
        <ele>78.3</ele>
        <time>2011-07-03T10:49:53Z</time>
      </trkpt>
      <trkpt lat="47.30465" lon="-1.07282">
        <ele>77.5</ele>
        <time>2011-07-03T10:49:54Z</time>
      </trkpt>
      <trkpt lat="47.30463" lon="-1.07286">
        <ele>76.8</ele>
        <time>2011-07-03T10:49:55Z</time>
      </trkpt>
      <trkpt lat="47.30461" lon="-1.07289">
        <ele>76.3</ele>
        <time>2011-07-03T10:49:56Z</time>
      </trkpt>
      <trkpt lat="47.30458" lon="-1.0729">
        <ele>75.6</ele>
        <time>2011-07-03T10:49:57Z</time>
      </trkpt>
      <trkpt lat="47.30393" lon="-1.07302">
        <ele>69.7</ele>
        <time>2011-07-03T10:50:11Z</time>
      </trkpt>
      <trkpt lat="47.30376" lon="-1.07295">
        <ele>67.3</ele>
        <time>2011-07-03T10:50:16Z</time>
      </trkpt>
      <trkpt lat="47.30372" lon="-1.07294">
        <ele>67.4</ele>
        <time>2011-07-03T10:50:17Z</time>
      </trkpt>
      <trkpt lat="47.3037" lon="-1.07294">
        <ele>67.4</ele>
        <time>2011-07-03T10:50:18Z</time>
      </trkpt>
      <trkpt lat="47.30369" lon="-1.07294">
        <ele>67.5</ele>
        <time>2011-07-03T10:50:19Z</time>
      </trkpt>
      <trkpt lat="47.30368" lon="-1.07295">
        <ele>67.3</ele>
        <time>2011-07-03T10:50:20Z</time>
      </trkpt>
      <trkpt lat="47.30367" lon="-1.07296">
        <ele>67.3</ele>
        <time>2011-07-03T10:50:21Z</time>
      </trkpt>
      <trkpt lat="47.30367" lon="-1.07298">
        <ele>67.2</ele>
        <time>2011-07-03T10:50:22Z</time>
      </trkpt>
      <trkpt lat="47.30366" lon="-1.073">
        <ele>66.5</ele>
        <time>2011-07-03T10:50:23Z</time>
      </trkpt>
      <trkpt lat="47.30365" lon="-1.07301">
        <ele>66</ele>
        <time>2011-07-03T10:50:24Z</time>
      </trkpt>
      <trkpt lat="47.30364" lon="-1.07303">
        <ele>65.6</ele>
        <time>2011-07-03T10:50:25Z</time>
      </trkpt>
      <trkpt lat="47.30364" lon="-1.07305">
        <ele>65.5</ele>
        <time>2011-07-03T10:50:26Z</time>
      </trkpt>
      <trkpt lat="47.30364" lon="-1.07306">
        <ele>65.5</ele>
        <time>2011-07-03T10:50:27Z</time>
      </trkpt>
      <trkpt lat="47.30363" lon="-1.07308">
        <ele>65.4</ele>
        <time>2011-07-03T10:50:28Z</time>
      </trkpt>
      <trkpt lat="47.30362" lon="-1.0731">
        <ele>63.9</ele>
        <time>2011-07-03T10:50:30Z</time>
      </trkpt>
      <trkpt lat="47.30361" lon="-1.07312">
        <ele>63.4</ele>
        <time>2011-07-03T10:50:31Z</time>
      </trkpt>
      <trkpt lat="47.30361" lon="-1.07314">
        <ele>62.7</ele>
        <time>2011-07-03T10:50:32Z</time>
      </trkpt>
      <trkpt lat="47.30361" lon="-1.07316">
        <ele>62.1</ele>
        <time>2011-07-03T10:50:33Z</time>
      </trkpt>
      <trkpt lat="47.30361" lon="-1.07318">
        <ele>61.7</ele>
        <time>2011-07-03T10:50:34Z</time>
      </trkpt>
      <trkpt lat="47.30361" lon="-1.07319">
        <ele>60.9</ele>
        <time>2011-07-03T10:50:35Z</time>
      </trkpt>
      <trkpt lat="47.3036" lon="-1.07321">
        <ele>60.4</ele>
        <time>2011-07-03T10:50:36Z</time>
      </trkpt>
      <trkpt lat="47.30359" lon="-1.07326">
        <ele>59.6</ele>
        <time>2011-07-03T10:50:38Z</time>
      </trkpt>
      <trkpt lat="47.30358" lon="-1.07328">
        <ele>58.9</ele>
        <time>2011-07-03T10:50:39Z</time>
      </trkpt>
      <trkpt lat="47.30356" lon="-1.07329">
        <ele>58.3</ele>
        <time>2011-07-03T10:50:40Z</time>
      </trkpt>
      <trkpt lat="47.30354" lon="-1.07329">
        <ele>57.9</ele>
        <time>2011-07-03T10:50:41Z</time>
      </trkpt>
      <trkpt lat="47.30349" lon="-1.0733">
        <ele>56.1</ele>
        <time>2011-07-03T10:50:43Z</time>
      </trkpt>
      <trkpt lat="47.30347" lon="-1.07331">
        <ele>55.5</ele>
        <time>2011-07-03T10:50:44Z</time>
      </trkpt>
      <trkpt lat="47.30346" lon="-1.07333">
        <ele>54.4</ele>
        <time>2011-07-03T10:50:45Z</time>
      </trkpt>
      <trkpt lat="47.30343" lon="-1.0734">
        <ele>52.5</ele>
        <time>2011-07-03T10:50:48Z</time>
      </trkpt>
      <trkpt lat="47.30342" lon="-1.07341">
        <ele>52.1</ele>
        <time>2011-07-03T10:50:49Z</time>
      </trkpt>
      <trkpt lat="47.30333" lon="-1.07342">
        <ele>49.4</ele>
        <time>2011-07-03T10:50:54Z</time>
      </trkpt>
      <trkpt lat="47.30332" lon="-1.07344">
        <ele>48.5</ele>
        <time>2011-07-03T10:50:55Z</time>
      </trkpt>
      <trkpt lat="47.30331" lon="-1.07346">
        <ele>47.8</ele>
        <time>2011-07-03T10:50:56Z</time>
      </trkpt>
      <trkpt lat="47.30331" lon="-1.07347">
        <ele>47.2</ele>
        <time>2011-07-03T10:50:57Z</time>
      </trkpt>
      <trkpt lat="47.30327" lon="-1.07349">
        <ele>46</ele>
        <time>2011-07-03T10:51:00Z</time>
      </trkpt>
      <trkpt lat="47.30325" lon="-1.07351">
        <ele>45.3</ele>
        <time>2011-07-03T10:51:02Z</time>
      </trkpt>
      <trkpt lat="47.30316" lon="-1.07358">
        <ele>40.4</ele>
        <time>2011-07-03T10:51:10Z</time>
      </trkpt>
      <trkpt lat="47.30315" lon="-1.07359">
        <ele>40.3</ele>
        <time>2011-07-03T10:51:11Z</time>
      </trkpt>
      <trkpt lat="47.30314" lon="-1.0736">
        <ele>40.3</ele>
        <time>2011-07-03T10:51:12Z</time>
      </trkpt>
      <trkpt lat="47.30314" lon="-1.07361">
        <ele>40.3</ele>
        <time>2011-07-03T10:51:13Z</time>
      </trkpt>
      <trkpt lat="47.30313" lon="-1.07362">
        <ele>39.5</ele>
        <time>2011-07-03T10:51:14Z</time>
      </trkpt>
      <trkpt lat="47.30313" lon="-1.07362">
        <ele>39</ele>
        <time>2011-07-03T10:51:15Z</time>
      </trkpt>
      <trkpt lat="47.30311" lon="-1.07364">
        <ele>37.7</ele>
        <time>2011-07-03T10:51:17Z</time>
      </trkpt>
      <trkpt lat="47.30303" lon="-1.07373">
        <ele>31.8</ele>
        <time>2011-07-03T10:51:24Z</time>
      </trkpt>
      <trkpt lat="47.30302" lon="-1.07374">
        <ele>31</ele>
        <time>2011-07-03T10:51:25Z</time>
      </trkpt>
      <trkpt lat="47.30302" lon="-1.07374">
        <ele>30.6</ele>
        <time>2011-07-03T10:51:26Z</time>
      </trkpt>
      <trkpt lat="47.30301" lon="-1.07375">
        <ele>30.1</ele>
        <time>2011-07-03T10:51:28Z</time>
      </trkpt>
      <trkpt lat="47.30299" lon="-1.07376">
        <ele>29.3</ele>
        <time>2011-07-03T10:51:30Z</time>
      </trkpt>
      <trkpt lat="47.30299" lon="-1.07376">
        <ele>28.9</ele>
        <time>2011-07-03T10:51:31Z</time>
      </trkpt>
      <trkpt lat="47.30298" lon="-1.07376">
        <ele>28.6</ele>
        <time>2011-07-03T10:51:32Z</time>
      </trkpt>
      <trkpt lat="47.30298" lon="-1.07376">
        <ele>28.4</ele>
        <time>2011-07-03T10:51:33Z</time>
      </trkpt>
      <trkpt lat="47.30298" lon="-1.07376">
        <ele>28.3</ele>
        <time>2011-07-03T10:51:34Z</time>
      </trkpt>
      <trkpt lat="47.30297" lon="-1.07377">
        <ele>28.3</ele>
        <time>2011-07-03T10:51:35Z</time>
      </trkpt>
      <trkpt lat="47.30297" lon="-1.07377">
        <ele>28</ele>
        <time>2011-07-03T10:51:36Z</time>
      </trkpt>
      <trkpt lat="47.30296" lon="-1.07377">
        <ele>27.8</ele>
        <time>2011-07-03T10:51:37Z</time>
      </trkpt>
      <trkpt lat="47.30296" lon="-1.07378">
        <ele>28.2</ele>
        <time>2011-07-03T10:51:39Z</time>
      </trkpt>
      <trkpt lat="47.30295" lon="-1.07378">
        <ele>28.5</ele>
        <time>2011-07-03T10:51:40Z</time>
      </trkpt>
      <trkpt lat="47.30295" lon="-1.07379">
        <ele>28.8</ele>
        <time>2011-07-03T10:51:41Z</time>
      </trkpt>
      <trkpt lat="47.30294" lon="-1.07379">
        <ele>29</ele>
        <time>2011-07-03T10:51:42Z</time>
      </trkpt>
      <trkpt lat="47.30294" lon="-1.0738">
        <ele>28.9</ele>
        <time>2011-07-03T10:51:43Z</time>
      </trkpt>
      <trkpt lat="47.30294" lon="-1.0738">
        <ele>28.8</ele>
        <time>2011-07-03T10:51:44Z</time>
      </trkpt>
      <trkpt lat="47.30292" lon="-1.07381">
        <ele>27.9</ele>
        <time>2011-07-03T10:51:47Z</time>
      </trkpt>
      <trkpt lat="47.30292" lon="-1.07381">
        <ele>27.6</ele>
        <time>2011-07-03T10:51:48Z</time>
      </trkpt>
      <trkpt lat="47.30291" lon="-1.07382">
        <ele>27.4</ele>
        <time>2011-07-03T10:51:49Z</time>
      </trkpt>
      <trkpt lat="47.30291" lon="-1.07381">
        <ele>27.2</ele>
        <time>2011-07-03T10:51:50Z</time>
      </trkpt>
      <trkpt lat="47.30291" lon="-1.07381">
        <ele>27</ele>
        <time>2011-07-03T10:51:51Z</time>
      </trkpt>
      <trkpt lat="47.3029" lon="-1.07381">
        <ele>26.9</ele>
        <time>2011-07-03T10:51:52Z</time>
      </trkpt>
      <trkpt lat="47.3029" lon="-1.07381">
        <ele>26.9</ele>
        <time>2011-07-03T10:51:53Z</time>
      </trkpt>
      <trkpt lat="47.3029" lon="-1.07381">
        <ele>26.9</ele>
        <time>2011-07-03T10:51:54Z</time>
      </trkpt>
      <trkpt lat="47.3029" lon="-1.07382">
        <ele>26.5</ele>
        <time>2011-07-03T10:51:55Z</time>
      </trkpt>
      <trkpt lat="47.30289" lon="-1.07384">
        <ele>25.9</ele>
        <time>2011-07-03T10:51:58Z</time>
      </trkpt>
      <trkpt lat="47.3029" lon="-1.07386">
        <ele>25.9</ele>
        <time>2011-07-03T10:51:59Z</time>
      </trkpt>
      <trkpt lat="47.3029" lon="-1.07389">
        <ele>25.8</ele>
        <time>2011-07-03T10:52:01Z</time>
      </trkpt>
      <trkpt lat="47.30291" lon="-1.0739">
        <ele>25.8</ele>
        <time>2011-07-03T10:52:02Z</time>
      </trkpt>
      <trkpt lat="47.30291" lon="-1.0739">
        <ele>25.8</ele>
        <time>2011-07-03T10:52:03Z</time>
      </trkpt>
      <trkpt lat="47.30291" lon="-1.0739">
        <ele>25.8</ele>
        <time>2011-07-03T10:52:04Z</time>
      </trkpt>
      <trkpt lat="47.30291" lon="-1.07391">
        <ele>25.4</ele>
        <time>2011-07-03T10:52:05Z</time>
      </trkpt>
      <trkpt lat="47.30291" lon="-1.07391">
        <ele>25.1</ele>
        <time>2011-07-03T10:52:06Z</time>
      </trkpt>
      <trkpt lat="47.30292" lon="-1.07392">
        <ele>24.9</ele>
        <time>2011-07-03T10:52:07Z</time>
      </trkpt>
      <trkpt lat="47.30293" lon="-1.07392">
        <ele>24.6</ele>
        <time>2011-07-03T10:52:09Z</time>
      </trkpt>
      <trkpt lat="47.30293" lon="-1.07393">
        <ele>24.4</ele>
        <time>2011-07-03T10:52:10Z</time>
      </trkpt>
      <trkpt lat="47.30294" lon="-1.07394">
        <ele>24.5</ele>
        <time>2011-07-03T10:52:12Z</time>
      </trkpt>
      <trkpt lat="47.30294" lon="-1.07395">
        <ele>24.5</ele>
        <time>2011-07-03T10:52:13Z</time>
      </trkpt>
      <trkpt lat="47.30295" lon="-1.07395">
        <ele>24.8</ele>
        <time>2011-07-03T10:52:14Z</time>
      </trkpt>
      <trkpt lat="47.30295" lon="-1.07395">
        <ele>25</ele>
        <time>2011-07-03T10:52:15Z</time>
      </trkpt>
      <trkpt lat="47.30295" lon="-1.07395">
        <ele>25.2</ele>
        <time>2011-07-03T10:52:16Z</time>
      </trkpt>
      <trkpt lat="47.30296" lon="-1.07396">
        <ele>25.3</ele>
        <time>2011-07-03T10:52:17Z</time>
      </trkpt>
      <trkpt lat="47.30296" lon="-1.07397">
        <ele>25.3</ele>
        <time>2011-07-03T10:52:19Z</time>
      </trkpt>
      <trkpt lat="47.30296" lon="-1.07398">
        <ele>25.4</ele>
        <time>2011-07-03T10:52:20Z</time>
      </trkpt>
      <trkpt lat="47.30296" lon="-1.07398">
        <ele>25</ele>
        <time>2011-07-03T10:52:21Z</time>
      </trkpt>
      <trkpt lat="47.30296" lon="-1.07399">
        <ele>24.8</ele>
        <time>2011-07-03T10:52:22Z</time>
      </trkpt>
      <trkpt lat="47.30297" lon="-1.074">
        <ele>24.6</ele>
        <time>2011-07-03T10:52:23Z</time>
      </trkpt>
      <trkpt lat="47.30297" lon="-1.074">
        <ele>24.2</ele>
        <time>2011-07-03T10:52:24Z</time>
      </trkpt>
      <trkpt lat="47.30298" lon="-1.07401">
        <ele>24</ele>
        <time>2011-07-03T10:52:25Z</time>
      </trkpt>
      <trkpt lat="47.30299" lon="-1.07402">
        <ele>24.8</ele>
        <time>2011-07-03T10:52:28Z</time>
      </trkpt>
      <trkpt lat="47.303" lon="-1.07403">
        <ele>25.1</ele>
        <time>2011-07-03T10:52:29Z</time>
      </trkpt>
      <trkpt lat="47.30301" lon="-1.07403">
        <ele>25.4</ele>
        <time>2011-07-03T10:52:31Z</time>
      </trkpt>
      <trkpt lat="47.30301" lon="-1.07403">
        <ele>25.4</ele>
        <time>2011-07-03T10:52:32Z</time>
      </trkpt>
      <trkpt lat="47.30302" lon="-1.07403">
        <ele>26</ele>
        <time>2011-07-03T10:52:34Z</time>
      </trkpt>
      <trkpt lat="47.30303" lon="-1.07404">
        <ele>26.4</ele>
        <time>2011-07-03T10:52:35Z</time>
      </trkpt>
      <trkpt lat="47.30303" lon="-1.07404">
        <ele>26.7</ele>
        <time>2011-07-03T10:52:36Z</time>
      </trkpt>
      <trkpt lat="47.30304" lon="-1.07403">
        <ele>26.6</ele>
        <time>2011-07-03T10:52:37Z</time>
      </trkpt>
      <trkpt lat="47.30304" lon="-1.07403">
        <ele>26.5</ele>
        <time>2011-07-03T10:52:38Z</time>
      </trkpt>
      <trkpt lat="47.30305" lon="-1.07403">
        <ele>26.4</ele>
        <time>2011-07-03T10:52:39Z</time>
      </trkpt>
      <trkpt lat="47.30306" lon="-1.07402">
        <ele>26.7</ele>
        <time>2011-07-03T10:52:41Z</time>
      </trkpt>
      <trkpt lat="47.30307" lon="-1.07402">
        <ele>26.8</ele>
        <time>2011-07-03T10:52:42Z</time>
      </trkpt>
      <trkpt lat="47.30307" lon="-1.07402">
        <ele>27.3</ele>
        <time>2011-07-03T10:52:43Z</time>
      </trkpt>
      <trkpt lat="47.30309" lon="-1.07402">
        <ele>28</ele>
        <time>2011-07-03T10:52:46Z</time>
      </trkpt>
      <trkpt lat="47.30309" lon="-1.07402">
        <ele>28</ele>
        <time>2011-07-03T10:52:47Z</time>
      </trkpt>
      <trkpt lat="47.3031" lon="-1.07402">
        <ele>28.1</ele>
        <time>2011-07-03T10:52:48Z</time>
      </trkpt>
      <trkpt lat="47.30311" lon="-1.07402">
        <ele>28</ele>
        <time>2011-07-03T10:52:51Z</time>
      </trkpt>
      <trkpt lat="47.30312" lon="-1.07402">
        <ele>27.9</ele>
        <time>2011-07-03T10:52:52Z</time>
      </trkpt>
      <trkpt lat="47.30313" lon="-1.07402">
        <ele>27.9</ele>
        <time>2011-07-03T10:52:55Z</time>
      </trkpt>
      <trkpt lat="47.30313" lon="-1.07402">
        <ele>27.9</ele>
        <time>2011-07-03T10:52:56Z</time>
      </trkpt>
      <trkpt lat="47.30313" lon="-1.07402">
        <ele>27.9</ele>
        <time>2011-07-03T10:52:57Z</time>
      </trkpt>
      <trkpt lat="47.30314" lon="-1.07402">
        <ele>28.2</ele>
        <time>2011-07-03T10:53:00Z</time>
      </trkpt>
      <trkpt lat="47.30315" lon="-1.07402">
        <ele>28.3</ele>
        <time>2011-07-03T10:53:01Z</time>
      </trkpt>
      <trkpt lat="47.30315" lon="-1.07402">
        <ele>28.4</ele>
        <time>2011-07-03T10:53:02Z</time>
      </trkpt>
      <trkpt lat="47.30315" lon="-1.07402">
        <ele>28.4</ele>
        <time>2011-07-03T10:53:03Z</time>
      </trkpt>
      <trkpt lat="47.30316" lon="-1.07401">
        <ele>28.4</ele>
        <time>2011-07-03T10:53:04Z</time>
      </trkpt>
      <trkpt lat="47.30316" lon="-1.07401">
        <ele>28.3</ele>
        <time>2011-07-03T10:53:06Z</time>
      </trkpt>
      <trkpt lat="47.30316" lon="-1.07401">
        <ele>28.2</ele>
        <time>2011-07-03T10:53:07Z</time>
      </trkpt>
      <trkpt lat="47.30317" lon="-1.07401">
        <ele>28.8</ele>
        <time>2011-07-03T10:53:10Z</time>
      </trkpt>
      <trkpt lat="47.30318" lon="-1.07401">
        <ele>29</ele>
        <time>2011-07-03T10:53:11Z</time>
      </trkpt>
      <trkpt lat="47.30318" lon="-1.07401">
        <ele>29</ele>
        <time>2011-07-03T10:53:12Z</time>
      </trkpt>
      <trkpt lat="47.30318" lon="-1.07401">
        <ele>29</ele>
        <time>2011-07-03T10:53:13Z</time>
      </trkpt>
      <trkpt lat="47.30319" lon="-1.07401">
        <ele>29</ele>
        <time>2011-07-03T10:53:14Z</time>
      </trkpt>
      <trkpt lat="47.30319" lon="-1.074">
        <ele>28.8</ele>
        <time>2011-07-03T10:53:16Z</time>
      </trkpt>
      <trkpt lat="47.3032" lon="-1.074">
        <ele>28.7</ele>
        <time>2011-07-03T10:53:17Z</time>
      </trkpt>
      <trkpt lat="47.30321" lon="-1.074">
        <ele>28.8</ele>
        <time>2011-07-03T10:53:19Z</time>
      </trkpt>
      <trkpt lat="47.30321" lon="-1.07399">
        <ele>28.8</ele>
        <time>2011-07-03T10:53:20Z</time>
      </trkpt>
      <trkpt lat="47.30323" lon="-1.07398">
        <ele>29.3</ele>
        <time>2011-07-03T10:53:23Z</time>
      </trkpt>
      <trkpt lat="47.30323" lon="-1.07398">
        <ele>29.4</ele>
        <time>2011-07-03T10:53:24Z</time>
      </trkpt>
      <trkpt lat="47.30325" lon="-1.07396">
        <ele>29.4</ele>
        <time>2011-07-03T10:53:27Z</time>
      </trkpt>
      <trkpt lat="47.30325" lon="-1.07396">
        <ele>29.6</ele>
        <time>2011-07-03T10:53:28Z</time>
      </trkpt>
      <trkpt lat="47.30326" lon="-1.07395">
        <ele>29.8</ele>
        <time>2011-07-03T10:53:29Z</time>
      </trkpt>
      <trkpt lat="47.30326" lon="-1.07395">
        <ele>29.9</ele>
        <time>2011-07-03T10:53:30Z</time>
      </trkpt>
      <trkpt lat="47.30328" lon="-1.07393">
        <ele>30.4</ele>
        <time>2011-07-03T10:53:33Z</time>
      </trkpt>
      <trkpt lat="47.30328" lon="-1.07392">
        <ele>30.5</ele>
        <time>2011-07-03T10:53:34Z</time>
      </trkpt>
      <trkpt lat="47.3033" lon="-1.07391">
        <ele>30.9</ele>
        <time>2011-07-03T10:53:37Z</time>
      </trkpt>
      <trkpt lat="47.3033" lon="-1.07391">
        <ele>30.9</ele>
        <time>2011-07-03T10:53:38Z</time>
      </trkpt>
      <trkpt lat="47.30331" lon="-1.07392">
        <ele>30.9</ele>
        <time>2011-07-03T10:53:39Z</time>
      </trkpt>
      <trkpt lat="47.30332" lon="-1.07392">
        <ele>30.9</ele>
        <time>2011-07-03T10:53:41Z</time>
      </trkpt>
      <trkpt lat="47.30332" lon="-1.07392">
        <ele>30.8</ele>
        <time>2011-07-03T10:53:43Z</time>
      </trkpt>
      <trkpt lat="47.30333" lon="-1.07392">
        <ele>31.3</ele>
        <time>2011-07-03T10:53:45Z</time>
      </trkpt>
      <trkpt lat="47.30333" lon="-1.07391">
        <ele>31.4</ele>
        <time>2011-07-03T10:53:46Z</time>
      </trkpt>
      <trkpt lat="47.30334" lon="-1.07391">
        <ele>31.4</ele>
        <time>2011-07-03T10:53:47Z</time>
      </trkpt>
      <trkpt lat="47.30334" lon="-1.07391">
        <ele>31.4</ele>
        <time>2011-07-03T10:53:48Z</time>
      </trkpt>
      <trkpt lat="47.30335" lon="-1.07391">
        <ele>31.4</ele>
        <time>2011-07-03T10:53:49Z</time>
      </trkpt>
      <trkpt lat="47.30337" lon="-1.07389">
        <ele>31.6</ele>
        <time>2011-07-03T10:53:52Z</time>
      </trkpt>
      <trkpt lat="47.30337" lon="-1.07389">
        <ele>32</ele>
        <time>2011-07-03T10:53:53Z</time>
      </trkpt>
      <trkpt lat="47.30338" lon="-1.07389">
        <ele>32.3</ele>
        <time>2011-07-03T10:53:54Z</time>
      </trkpt>
      <trkpt lat="47.30339" lon="-1.07388">
        <ele>32.7</ele>
        <time>2011-07-03T10:53:56Z</time>
      </trkpt>
      <trkpt lat="47.30341" lon="-1.07388">
        <ele>32.8</ele>
        <time>2011-07-03T10:53:58Z</time>
      </trkpt>
      <trkpt lat="47.30342" lon="-1.07387">
        <ele>32.8</ele>
        <time>2011-07-03T10:53:59Z</time>
      </trkpt>
      <trkpt lat="47.30343" lon="-1.07387">
        <ele>32.9</ele>
        <time>2011-07-03T10:54:00Z</time>
      </trkpt>
      <trkpt lat="47.30344" lon="-1.07386">
        <ele>33</ele>
        <time>2011-07-03T10:54:02Z</time>
      </trkpt>
      <trkpt lat="47.30345" lon="-1.07386">
        <ele>33.3</ele>
        <time>2011-07-03T10:54:03Z</time>
      </trkpt>
      <trkpt lat="47.30346" lon="-1.07386">
        <ele>33.5</ele>
        <time>2011-07-03T10:54:04Z</time>
      </trkpt>
      <trkpt lat="47.30347" lon="-1.07386">
        <ele>33.7</ele>
        <time>2011-07-03T10:54:05Z</time>
      </trkpt>
      <trkpt lat="47.30347" lon="-1.07386">
        <ele>33.7</ele>
        <time>2011-07-03T10:54:06Z</time>
      </trkpt>
      <trkpt lat="47.30351" lon="-1.07386">
        <ele>34.2</ele>
        <time>2011-07-03T10:54:11Z</time>
      </trkpt>
      <trkpt lat="47.30352" lon="-1.07386">
        <ele>34.3</ele>
        <time>2011-07-03T10:54:12Z</time>
      </trkpt>
      <trkpt lat="47.30353" lon="-1.07385">
        <ele>34.3</ele>
        <time>2011-07-03T10:54:14Z</time>
      </trkpt>
      <trkpt lat="47.30354" lon="-1.07384">
        <ele>34.3</ele>
        <time>2011-07-03T10:54:15Z</time>
      </trkpt>
      <trkpt lat="47.30355" lon="-1.07384">
        <ele>34.3</ele>
        <time>2011-07-03T10:54:16Z</time>
      </trkpt>
      <trkpt lat="47.30355" lon="-1.07384">
        <ele>34.3</ele>
        <time>2011-07-03T10:54:17Z</time>
      </trkpt>
      <trkpt lat="47.30356" lon="-1.07383">
        <ele>34.3</ele>
        <time>2011-07-03T10:54:18Z</time>
      </trkpt>
      <trkpt lat="47.30357" lon="-1.07383">
        <ele>34.7</ele>
        <time>2011-07-03T10:54:19Z</time>
      </trkpt>
      <trkpt lat="47.30357" lon="-1.07382">
        <ele>34.9</ele>
        <time>2011-07-03T10:54:20Z</time>
      </trkpt>
      <trkpt lat="47.30358" lon="-1.07382">
        <ele>35.1</ele>
        <time>2011-07-03T10:54:21Z</time>
      </trkpt>
      <trkpt lat="47.30359" lon="-1.07382">
        <ele>35.1</ele>
        <time>2011-07-03T10:54:22Z</time>
      </trkpt>
      <trkpt lat="47.3036" lon="-1.07382">
        <ele>35.1</ele>
        <time>2011-07-03T10:54:23Z</time>
      </trkpt>
      <trkpt lat="47.3036" lon="-1.07383">
        <ele>35.1</ele>
        <time>2011-07-03T10:54:24Z</time>
      </trkpt>
      <trkpt lat="47.30362" lon="-1.07383">
        <ele>34.9</ele>
        <time>2011-07-03T10:54:25Z</time>
      </trkpt>
      <trkpt lat="47.30362" lon="-1.07383">
        <ele>34.8</ele>
        <time>2011-07-03T10:54:26Z</time>
      </trkpt>
      <trkpt lat="47.30363" lon="-1.07382">
        <ele>34.6</ele>
        <time>2011-07-03T10:54:28Z</time>
      </trkpt>
      <trkpt lat="47.30364" lon="-1.07382">
        <ele>34.5</ele>
        <time>2011-07-03T10:54:29Z</time>
      </trkpt>
      <trkpt lat="47.30365" lon="-1.07382">
        <ele>34.4</ele>
        <time>2011-07-03T10:54:30Z</time>
      </trkpt>
      <trkpt lat="47.30367" lon="-1.07383">
        <ele>34.6</ele>
        <time>2011-07-03T10:54:32Z</time>
      </trkpt>
      <trkpt lat="47.30368" lon="-1.07383">
        <ele>34.8</ele>
        <time>2011-07-03T10:54:34Z</time>
      </trkpt>
      <trkpt lat="47.30369" lon="-1.07383">
        <ele>35</ele>
        <time>2011-07-03T10:54:35Z</time>
      </trkpt>
      <trkpt lat="47.3037" lon="-1.07384">
        <ele>35.1</ele>
        <time>2011-07-03T10:54:36Z</time>
      </trkpt>
      <trkpt lat="47.3037" lon="-1.07384">
        <ele>35.2</ele>
        <time>2011-07-03T10:54:37Z</time>
      </trkpt>
      <trkpt lat="47.30372" lon="-1.07384">
        <ele>35.3</ele>
        <time>2011-07-03T10:54:39Z</time>
      </trkpt>
      <trkpt lat="47.30373" lon="-1.07384">
        <ele>35.4</ele>
        <time>2011-07-03T10:54:40Z</time>
      </trkpt>
      <trkpt lat="47.30374" lon="-1.07384">
        <ele>35.3</ele>
        <time>2011-07-03T10:54:41Z</time>
      </trkpt>
      <trkpt lat="47.30375" lon="-1.07384">
        <ele>35.2</ele>
        <time>2011-07-03T10:54:42Z</time>
      </trkpt>
      <trkpt lat="47.30375" lon="-1.07384">
        <ele>35.1</ele>
        <time>2011-07-03T10:54:43Z</time>
      </trkpt>
      <trkpt lat="47.30376" lon="-1.07384">
        <ele>35.4</ele>
        <time>2011-07-03T10:54:44Z</time>
      </trkpt>
      <trkpt lat="47.30377" lon="-1.07385">
        <ele>35.7</ele>
        <time>2011-07-03T10:54:45Z</time>
      </trkpt>
      <trkpt lat="47.30379" lon="-1.07386">
        <ele>36</ele>
        <time>2011-07-03T10:54:47Z</time>
      </trkpt>
      <trkpt lat="47.30379" lon="-1.07385">
        <ele>35.9</ele>
        <time>2011-07-03T10:54:48Z</time>
      </trkpt>
      <trkpt lat="47.3038" lon="-1.07385">
        <ele>35.8</ele>
        <time>2011-07-03T10:54:49Z</time>
      </trkpt>
      <trkpt lat="47.30381" lon="-1.07385">
        <ele>36.3</ele>
        <time>2011-07-03T10:54:51Z</time>
      </trkpt>
      <trkpt lat="47.30381" lon="-1.07385">
        <ele>36.7</ele>
        <time>2011-07-03T10:54:52Z</time>
      </trkpt>
      <trkpt lat="47.30381" lon="-1.07385">
        <ele>36.9</ele>
        <time>2011-07-03T10:54:53Z</time>
      </trkpt>
      <trkpt lat="47.30382" lon="-1.07385">
        <ele>36.9</ele>
        <time>2011-07-03T10:54:54Z</time>
      </trkpt>
      <trkpt lat="47.30382" lon="-1.07385">
        <ele>37</ele>
        <time>2011-07-03T10:54:55Z</time>
      </trkpt>
      <trkpt lat="47.30382" lon="-1.07384">
        <ele>37.5</ele>
        <time>2011-07-03T10:54:58Z</time>
      </trkpt>
      <trkpt lat="47.30382" lon="-1.07384">
        <ele>37.7</ele>
        <time>2011-07-03T10:55:00Z</time>
      </trkpt>
      <trkpt lat="47.30382" lon="-1.07384">
        <ele>37.8</ele>
        <time>2011-07-03T10:55:02Z</time>
      </trkpt>
      <trkpt lat="47.30383" lon="-1.07384">
        <ele>37.4</ele>
        <time>2011-07-03T10:55:05Z</time>
      </trkpt>
      <trkpt lat="47.30383" lon="-1.07384">
        <ele>37.2</ele>
        <time>2011-07-03T10:55:06Z</time>
      </trkpt>
      <trkpt lat="47.30383" lon="-1.07384">
        <ele>37.2</ele>
        <time>2011-07-03T10:55:08Z</time>
      </trkpt>
      <trkpt lat="47.30383" lon="-1.07383">
        <ele>37.2</ele>
        <time>2011-07-03T10:55:09Z</time>
      </trkpt>
      <trkpt lat="47.30384" lon="-1.07382">
        <ele>37.2</ele>
        <time>2011-07-03T10:55:10Z</time>
      </trkpt>
      <trkpt lat="47.30385" lon="-1.0738">
        <ele>37.3</ele>
        <time>2011-07-03T10:55:12Z</time>
      </trkpt>
      <trkpt lat="47.30388" lon="-1.07376">
        <ele>37</ele>
        <time>2011-07-03T10:55:15Z</time>
      </trkpt>
      <trkpt lat="47.30389" lon="-1.07375">
        <ele>37.7</ele>
        <time>2011-07-03T10:55:16Z</time>
      </trkpt>
      <trkpt lat="47.30389" lon="-1.07374">
        <ele>38.2</ele>
        <time>2011-07-03T10:55:17Z</time>
      </trkpt>
      <trkpt lat="47.3039" lon="-1.07372">
        <ele>38.6</ele>
        <time>2011-07-03T10:55:18Z</time>
      </trkpt>
      <trkpt lat="47.30391" lon="-1.07371">
        <ele>38.9</ele>
        <time>2011-07-03T10:55:19Z</time>
      </trkpt>
      <trkpt lat="47.30392" lon="-1.0737">
        <ele>38.9</ele>
        <time>2011-07-03T10:55:20Z</time>
      </trkpt>
      <trkpt lat="47.30393" lon="-1.07369">
        <ele>39</ele>
        <time>2011-07-03T10:55:21Z</time>
      </trkpt>
      <trkpt lat="47.30395" lon="-1.07367">
        <ele>39.5</ele>
        <time>2011-07-03T10:55:23Z</time>
      </trkpt>
      <trkpt lat="47.304" lon="-1.07364">
        <ele>40.7</ele>
        <time>2011-07-03T10:55:27Z</time>
      </trkpt>
      <trkpt lat="47.30404" lon="-1.07364">
        <ele>40.8</ele>
        <time>2011-07-03T10:55:29Z</time>
      </trkpt>
      <trkpt lat="47.30405" lon="-1.07365">
        <ele>40.8</ele>
        <time>2011-07-03T10:55:30Z</time>
      </trkpt>
      <trkpt lat="47.30407" lon="-1.07366">
        <ele>40.8</ele>
        <time>2011-07-03T10:55:31Z</time>
      </trkpt>
      <trkpt lat="47.30411" lon="-1.07366">
        <ele>40.9</ele>
        <time>2011-07-03T10:55:34Z</time>
      </trkpt>
      <trkpt lat="47.30416" lon="-1.07366">
        <ele>41.3</ele>
        <time>2011-07-03T10:55:37Z</time>
      </trkpt>
      <trkpt lat="47.30421" lon="-1.07367">
        <ele>41.6</ele>
        <time>2011-07-03T10:55:41Z</time>
      </trkpt>
      <trkpt lat="47.30426" lon="-1.0737">
        <ele>42.1</ele>
        <time>2011-07-03T10:55:44Z</time>
      </trkpt>
      <trkpt lat="47.30433" lon="-1.07374">
        <ele>43</ele>
        <time>2011-07-03T10:55:47Z</time>
      </trkpt>
      <trkpt lat="47.30434" lon="-1.07376">
        <ele>42.7</ele>
        <time>2011-07-03T10:55:48Z</time>
      </trkpt>
      <trkpt lat="47.30436" lon="-1.07378">
        <ele>42.6</ele>
        <time>2011-07-03T10:55:49Z</time>
      </trkpt>
      <trkpt lat="47.30446" lon="-1.0739">
        <ele>42.3</ele>
        <time>2011-07-03T10:55:54Z</time>
      </trkpt>
      <trkpt lat="47.30455" lon="-1.074">
        <ele>43.5</ele>
        <time>2011-07-03T10:56:01Z</time>
      </trkpt>
      <trkpt lat="47.30456" lon="-1.07401">
        <ele>43.5</ele>
        <time>2011-07-03T10:56:02Z</time>
      </trkpt>
      <trkpt lat="47.30459" lon="-1.07405">
        <ele>44.3</ele>
        <time>2011-07-03T10:56:05Z</time>
      </trkpt>
      <trkpt lat="47.30469" lon="-1.07419">
        <ele>44.9</ele>
        <time>2011-07-03T10:56:13Z</time>
      </trkpt>
      <trkpt lat="47.30472" lon="-1.07421">
        <ele>44.9</ele>
        <time>2011-07-03T10:56:15Z</time>
      </trkpt>
      <trkpt lat="47.30476" lon="-1.07424">
        <ele>45.1</ele>
        <time>2011-07-03T10:56:18Z</time>
      </trkpt>
      <trkpt lat="47.30481" lon="-1.07428">
        <ele>45.6</ele>
        <time>2011-07-03T10:56:22Z</time>
      </trkpt>
      <trkpt lat="47.30482" lon="-1.07429">
        <ele>46.2</ele>
        <time>2011-07-03T10:56:23Z</time>
      </trkpt>
      <trkpt lat="47.30489" lon="-1.07435">
        <ele>48.1</ele>
        <time>2011-07-03T10:56:29Z</time>
      </trkpt>
      <trkpt lat="47.30517" lon="-1.07453">
        <ele>49.9</ele>
        <time>2011-07-03T10:56:45Z</time>
      </trkpt>
      <trkpt lat="47.30519" lon="-1.07453">
        <ele>50.1</ele>
        <time>2011-07-03T10:56:46Z</time>
      </trkpt>
      <trkpt lat="47.30521" lon="-1.07454">
        <ele>50.2</ele>
        <time>2011-07-03T10:56:47Z</time>
      </trkpt>
      <trkpt lat="47.30529" lon="-1.07455">
        <ele>50.9</ele>
        <time>2011-07-03T10:56:51Z</time>
      </trkpt>
      <trkpt lat="47.30534" lon="-1.07455">
        <ele>50.7</ele>
        <time>2011-07-03T10:56:54Z</time>
      </trkpt>
      <trkpt lat="47.30545" lon="-1.07452">
        <ele>53</ele>
        <time>2011-07-03T10:57:00Z</time>
      </trkpt>
      <trkpt lat="47.30552" lon="-1.07451">
        <ele>52.9</ele>
        <time>2011-07-03T10:57:04Z</time>
      </trkpt>
      <trkpt lat="47.30559" lon="-1.07452">
        <ele>53.1</ele>
        <time>2011-07-03T10:57:08Z</time>
      </trkpt>
      <trkpt lat="47.30564" lon="-1.07452">
        <ele>53.2</ele>
        <time>2011-07-03T10:57:10Z</time>
      </trkpt>
      <trkpt lat="47.30571" lon="-1.07455">
        <ele>53.9</ele>
        <time>2011-07-03T10:57:13Z</time>
      </trkpt>
      <trkpt lat="47.30572" lon="-1.07456">
        <ele>54.1</ele>
        <time>2011-07-03T10:57:14Z</time>
      </trkpt>
      <trkpt lat="47.30582" lon="-1.07464">
        <ele>54.8</ele>
        <time>2011-07-03T10:57:21Z</time>
      </trkpt>
      <trkpt lat="47.3059" lon="-1.07472">
        <ele>55.1</ele>
        <time>2011-07-03T10:57:26Z</time>
      </trkpt>
      <trkpt lat="47.30605" lon="-1.07487">
        <ele>57.5</ele>
        <time>2011-07-03T10:57:36Z</time>
      </trkpt>
      <trkpt lat="47.30606" lon="-1.07488">
        <ele>57.7</ele>
        <time>2011-07-03T10:57:37Z</time>
      </trkpt>
      <trkpt lat="47.30607" lon="-1.07489">
        <ele>57.9</ele>
        <time>2011-07-03T10:57:38Z</time>
      </trkpt>
      <trkpt lat="47.3061" lon="-1.07492">
        <ele>58.2</ele>
        <time>2011-07-03T10:57:42Z</time>
      </trkpt>
      <trkpt lat="47.30612" lon="-1.07496">
        <ele>58.3</ele>
        <time>2011-07-03T10:57:55Z</time>
      </trkpt>
      <trkpt lat="47.30612" lon="-1.07496">
        <ele>58.4</ele>
        <time>2011-07-03T10:57:56Z</time>
      </trkpt>
      <trkpt lat="47.30612" lon="-1.07496">
        <ele>58.6</ele>
        <time>2011-07-03T10:57:57Z</time>
      </trkpt>
      <trkpt lat="47.30612" lon="-1.07497">
        <ele>58.7</ele>
        <time>2011-07-03T10:57:58Z</time>
      </trkpt>
      <trkpt lat="47.30613" lon="-1.07499">
        <ele>58.1</ele>
        <time>2011-07-03T10:58:04Z</time>
      </trkpt>
      <trkpt lat="47.30613" lon="-1.075">
        <ele>58.1</ele>
        <time>2011-07-03T10:58:05Z</time>
      </trkpt>
      <trkpt lat="47.30614" lon="-1.07501">
        <ele>58.3</ele>
        <time>2011-07-03T10:58:08Z</time>
      </trkpt>
      <trkpt lat="47.30614" lon="-1.07502">
        <ele>58.4</ele>
        <time>2011-07-03T10:58:09Z</time>
      </trkpt>
      <trkpt lat="47.30615" lon="-1.07502">
        <ele>58.6</ele>
        <time>2011-07-03T10:58:10Z</time>
      </trkpt>
      <trkpt lat="47.30616" lon="-1.07503">
        <ele>58.4</ele>
        <time>2011-07-03T10:58:13Z</time>
      </trkpt>
      <trkpt lat="47.30616" lon="-1.07504">
        <ele>58.4</ele>
        <time>2011-07-03T10:58:14Z</time>
      </trkpt>
      <trkpt lat="47.30616" lon="-1.07504">
        <ele>58.4</ele>
        <time>2011-07-03T10:58:15Z</time>
      </trkpt>
      <trkpt lat="47.30616" lon="-1.07504">
        <ele>58.6</ele>
        <time>2011-07-03T10:58:17Z</time>
      </trkpt>
      <trkpt lat="47.30616" lon="-1.07505">
        <ele>58.6</ele>
        <time>2011-07-03T10:58:18Z</time>
      </trkpt>
      <trkpt lat="47.30617" lon="-1.07505">
        <ele>58.6</ele>
        <time>2011-07-03T10:58:20Z</time>
      </trkpt>
      <trkpt lat="47.30617" lon="-1.07506">
        <ele>58.6</ele>
        <time>2011-07-03T10:58:22Z</time>
      </trkpt>
      <trkpt lat="47.30617" lon="-1.07507">
        <ele>58.9</ele>
        <time>2011-07-03T10:58:25Z</time>
      </trkpt>
      <trkpt lat="47.30617" lon="-1.07508">
        <ele>59.1</ele>
        <time>2011-07-03T10:58:26Z</time>
      </trkpt>
      <trkpt lat="47.30618" lon="-1.07508">
        <ele>59.3</ele>
        <time>2011-07-03T10:58:27Z</time>
      </trkpt>
      <trkpt lat="47.30619" lon="-1.07509">
        <ele>59.5</ele>
        <time>2011-07-03T10:58:29Z</time>
      </trkpt>
      <trkpt lat="47.3062" lon="-1.0751">
        <ele>59.6</ele>
        <time>2011-07-03T10:58:30Z</time>
      </trkpt>
      <trkpt lat="47.30622" lon="-1.07512">
        <ele>59.5</ele>
        <time>2011-07-03T10:58:33Z</time>
      </trkpt>
      <trkpt lat="47.30623" lon="-1.07512">
        <ele>59.7</ele>
        <time>2011-07-03T10:58:34Z</time>
      </trkpt>
      <trkpt lat="47.30624" lon="-1.07515">
        <ele>59.8</ele>
        <time>2011-07-03T10:58:36Z</time>
      </trkpt>
      <trkpt lat="47.30625" lon="-1.07516">
        <ele>59.6</ele>
        <time>2011-07-03T10:58:37Z</time>
      </trkpt>
      <trkpt lat="47.30626" lon="-1.07517">
        <ele>59.5</ele>
        <time>2011-07-03T10:58:38Z</time>
      </trkpt>
      <trkpt lat="47.30627" lon="-1.07518">
        <ele>59.3</ele>
        <time>2011-07-03T10:58:40Z</time>
      </trkpt>
      <trkpt lat="47.30628" lon="-1.07519">
        <ele>60.5</ele>
        <time>2011-07-03T10:58:42Z</time>
      </trkpt>
      <trkpt lat="47.30629" lon="-1.0752">
        <ele>60.8</ele>
        <time>2011-07-03T10:58:43Z</time>
      </trkpt>
      <trkpt lat="47.3063" lon="-1.07521">
        <ele>61</ele>
        <time>2011-07-03T10:58:45Z</time>
      </trkpt>
      <trkpt lat="47.3063" lon="-1.07521">
        <ele>61.1</ele>
        <time>2011-07-03T10:58:46Z</time>
      </trkpt>
      <trkpt lat="47.3063" lon="-1.07521">
        <ele>60.8</ele>
        <time>2011-07-03T10:58:47Z</time>
      </trkpt>
      <trkpt lat="47.30631" lon="-1.07522">
        <ele>60.5</ele>
        <time>2011-07-03T10:58:49Z</time>
      </trkpt>
      <trkpt lat="47.30633" lon="-1.07523">
        <ele>59.9</ele>
        <time>2011-07-03T10:58:51Z</time>
      </trkpt>
      <trkpt lat="47.30633" lon="-1.07524">
        <ele>59.7</ele>
        <time>2011-07-03T10:58:52Z</time>
      </trkpt>
      <trkpt lat="47.30634" lon="-1.07525">
        <ele>60.2</ele>
        <time>2011-07-03T10:58:54Z</time>
      </trkpt>
      <trkpt lat="47.30634" lon="-1.07526">
        <ele>60.3</ele>
        <time>2011-07-03T10:58:55Z</time>
      </trkpt>
      <trkpt lat="47.30634" lon="-1.07527">
        <ele>60.4</ele>
        <time>2011-07-03T10:58:56Z</time>
      </trkpt>
      <trkpt lat="47.30634" lon="-1.07527">
        <ele>59.9</ele>
        <time>2011-07-03T10:58:57Z</time>
      </trkpt>
      <trkpt lat="47.30634" lon="-1.07528">
        <ele>59.5</ele>
        <time>2011-07-03T10:58:58Z</time>
      </trkpt>
      <trkpt lat="47.30635" lon="-1.07528">
        <ele>59.2</ele>
        <time>2011-07-03T10:59:00Z</time>
      </trkpt>
      <trkpt lat="47.30635" lon="-1.07529">
        <ele>59.2</ele>
        <time>2011-07-03T10:59:02Z</time>
      </trkpt>
      <trkpt lat="47.30635" lon="-1.07529">
        <ele>59.2</ele>
        <time>2011-07-03T10:59:03Z</time>
      </trkpt>
      <trkpt lat="47.30636" lon="-1.07529">
        <ele>59.2</ele>
        <time>2011-07-03T10:59:04Z</time>
      </trkpt>
      <trkpt lat="47.30636" lon="-1.07529">
        <ele>59.2</ele>
        <time>2011-07-03T10:59:05Z</time>
      </trkpt>
      <trkpt lat="47.30636" lon="-1.07529">
        <ele>59.3</ele>
        <time>2011-07-03T10:59:06Z</time>
      </trkpt>
      <trkpt lat="47.30636" lon="-1.07529">
        <ele>59.4</ele>
        <time>2011-07-03T10:59:08Z</time>
      </trkpt>
      <trkpt lat="47.30637" lon="-1.0753">
        <ele>59.6</ele>
        <time>2011-07-03T10:59:09Z</time>
      </trkpt>
      <trkpt lat="47.30637" lon="-1.0753">
        <ele>59.7</ele>
        <time>2011-07-03T10:59:10Z</time>
      </trkpt>
      <trkpt lat="47.30638" lon="-1.07531">
        <ele>59.7</ele>
        <time>2011-07-03T10:59:11Z</time>
      </trkpt>
      <trkpt lat="47.30638" lon="-1.07532">
        <ele>59.8</ele>
        <time>2011-07-03T10:59:12Z</time>
      </trkpt>
      <trkpt lat="47.30638" lon="-1.07533">
        <ele>60.1</ele>
        <time>2011-07-03T10:59:13Z</time>
      </trkpt>
      <trkpt lat="47.30642" lon="-1.07539">
        <ele>60.2</ele>
        <time>2011-07-03T10:59:18Z</time>
      </trkpt>
      <trkpt lat="47.30642" lon="-1.07539">
        <ele>60</ele>
        <time>2011-07-03T10:59:20Z</time>
      </trkpt>
      <trkpt lat="47.30644" lon="-1.07546">
        <ele>59.4</ele>
        <time>2011-07-03T10:59:24Z</time>
      </trkpt>
      <trkpt lat="47.30646" lon="-1.07548">
        <ele>60.7</ele>
        <time>2011-07-03T10:59:26Z</time>
      </trkpt>
      <trkpt lat="47.30647" lon="-1.07549">
        <ele>61.2</ele>
        <time>2011-07-03T10:59:27Z</time>
      </trkpt>
      <trkpt lat="47.30647" lon="-1.0755">
        <ele>61.5</ele>
        <time>2011-07-03T10:59:28Z</time>
      </trkpt>
      <trkpt lat="47.30647" lon="-1.0755">
        <ele>61.1</ele>
        <time>2011-07-03T10:59:29Z</time>
      </trkpt>
      <trkpt lat="47.30648" lon="-1.07551">
        <ele>60.8</ele>
        <time>2011-07-03T10:59:30Z</time>
      </trkpt>
      <trkpt lat="47.30648" lon="-1.07552">
        <ele>60.6</ele>
        <time>2011-07-03T10:59:33Z</time>
      </trkpt>
      <trkpt lat="47.30648" lon="-1.07552">
        <ele>60.6</ele>
        <time>2011-07-03T10:59:34Z</time>
      </trkpt>
      <trkpt lat="47.30648" lon="-1.07553">
        <ele>60.7</ele>
        <time>2011-07-03T10:59:35Z</time>
      </trkpt>
      <trkpt lat="47.30649" lon="-1.07553">
        <ele>60.8</ele>
        <time>2011-07-03T10:59:37Z</time>
      </trkpt>
      <trkpt lat="47.30649" lon="-1.07554">
        <ele>60.7</ele>
        <time>2011-07-03T10:59:38Z</time>
      </trkpt>
      <trkpt lat="47.3065" lon="-1.07554">
        <ele>60.7</ele>
        <time>2011-07-03T10:59:40Z</time>
      </trkpt>
      <trkpt lat="47.30651" lon="-1.07554">
        <ele>60.7</ele>
        <time>2011-07-03T10:59:41Z</time>
      </trkpt>
      <trkpt lat="47.30652" lon="-1.07554">
        <ele>60.8</ele>
        <time>2011-07-03T10:59:42Z</time>
      </trkpt>
      <trkpt lat="47.30652" lon="-1.07554">
        <ele>60.8</ele>
        <time>2011-07-03T10:59:43Z</time>
      </trkpt>
      <trkpt lat="47.30652" lon="-1.07555">
        <ele>61</ele>
        <time>2011-07-03T10:59:44Z</time>
      </trkpt>
      <trkpt lat="47.30652" lon="-1.07555">
        <ele>61.2</ele>
        <time>2011-07-03T10:59:45Z</time>
      </trkpt>
      <trkpt lat="47.30652" lon="-1.07555">
        <ele>61.3</ele>
        <time>2011-07-03T10:59:46Z</time>
      </trkpt>
      <trkpt lat="47.30653" lon="-1.07556">
        <ele>61.3</ele>
        <time>2011-07-03T10:59:47Z</time>
      </trkpt>
      <trkpt lat="47.30654" lon="-1.07557">
        <ele>61.7</ele>
        <time>2011-07-03T10:59:49Z</time>
      </trkpt>
      <trkpt lat="47.30654" lon="-1.07557">
        <ele>61.8</ele>
        <time>2011-07-03T10:59:50Z</time>
      </trkpt>
      <trkpt lat="47.30655" lon="-1.07557">
        <ele>62.4</ele>
        <time>2011-07-03T10:59:51Z</time>
      </trkpt>
      <trkpt lat="47.30655" lon="-1.07558">
        <ele>63.3</ele>
        <time>2011-07-03T10:59:53Z</time>
      </trkpt>
      <trkpt lat="47.30655" lon="-1.07558">
        <ele>63.5</ele>
        <time>2011-07-03T10:59:54Z</time>
      </trkpt>
      <trkpt lat="47.30656" lon="-1.07558">
        <ele>63.9</ele>
        <time>2011-07-03T10:59:56Z</time>
      </trkpt>
      <trkpt lat="47.30657" lon="-1.07559">
        <ele>63.5</ele>
        <time>2011-07-03T10:59:57Z</time>
      </trkpt>
      <trkpt lat="47.30658" lon="-1.07559">
        <ele>63.3</ele>
        <time>2011-07-03T10:59:58Z</time>
      </trkpt>
      <trkpt lat="47.30661" lon="-1.07561">
        <ele>62.7</ele>
        <time>2011-07-03T11:00:01Z</time>
      </trkpt>
      <trkpt lat="47.30661" lon="-1.07562">
        <ele>62.6</ele>
        <time>2011-07-03T11:00:02Z</time>
      </trkpt>
      <trkpt lat="47.30663" lon="-1.07562">
        <ele>62.4</ele>
        <time>2011-07-03T11:00:05Z</time>
      </trkpt>
      <trkpt lat="47.30664" lon="-1.07563">
        <ele>62.4</ele>
        <time>2011-07-03T11:00:06Z</time>
      </trkpt>
      <trkpt lat="47.30664" lon="-1.07563">
        <ele>62.6</ele>
        <time>2011-07-03T11:00:07Z</time>
      </trkpt>
      <trkpt lat="47.30665" lon="-1.07563">
        <ele>62.7</ele>
        <time>2011-07-03T11:00:08Z</time>
      </trkpt>
      <trkpt lat="47.30665" lon="-1.07564">
        <ele>62.8</ele>
        <time>2011-07-03T11:00:09Z</time>
      </trkpt>
      <trkpt lat="47.30666" lon="-1.07565">
        <ele>62.8</ele>
        <time>2011-07-03T11:00:10Z</time>
      </trkpt>
      <trkpt lat="47.30667" lon="-1.07565">
        <ele>62.8</ele>
        <time>2011-07-03T11:00:11Z</time>
      </trkpt>
      <trkpt lat="47.30668" lon="-1.07565">
        <ele>62.8</ele>
        <time>2011-07-03T11:00:12Z</time>
      </trkpt>
      <trkpt lat="47.30668" lon="-1.07566">
        <ele>62.7</ele>
        <time>2011-07-03T11:00:13Z</time>
      </trkpt>
      <trkpt lat="47.30669" lon="-1.07567">
        <ele>62.4</ele>
        <time>2011-07-03T11:00:15Z</time>
      </trkpt>
      <trkpt lat="47.30669" lon="-1.07568">
        <ele>62.4</ele>
        <time>2011-07-03T11:00:16Z</time>
      </trkpt>
      <trkpt lat="47.30669" lon="-1.07569">
        <ele>62.4</ele>
        <time>2011-07-03T11:00:18Z</time>
      </trkpt>
      <trkpt lat="47.30671" lon="-1.0757">
        <ele>62.7</ele>
        <time>2011-07-03T11:00:21Z</time>
      </trkpt>
      <trkpt lat="47.30673" lon="-1.0757">
        <ele>62.8</ele>
        <time>2011-07-03T11:00:22Z</time>
      </trkpt>
      <trkpt lat="47.30685" lon="-1.07573">
        <ele>63.1</ele>
        <time>2011-07-03T11:00:29Z</time>
      </trkpt>
      <trkpt lat="47.30687" lon="-1.07574">
        <ele>63.5</ele>
        <time>2011-07-03T11:00:30Z</time>
      </trkpt>
      <trkpt lat="47.30694" lon="-1.0758">
        <ele>63.8</ele>
        <time>2011-07-03T11:00:35Z</time>
      </trkpt>
      <trkpt lat="47.30695" lon="-1.07582">
        <ele>64</ele>
        <time>2011-07-03T11:00:36Z</time>
      </trkpt>
      <trkpt lat="47.30699" lon="-1.07587">
        <ele>64.3</ele>
        <time>2011-07-03T11:00:39Z</time>
      </trkpt>
      <trkpt lat="47.30723" lon="-1.07601">
        <ele>66.4</ele>
        <time>2011-07-03T11:00:51Z</time>
      </trkpt>
      <trkpt lat="47.30733" lon="-1.07605">
        <ele>65.9</ele>
        <time>2011-07-03T11:00:56Z</time>
      </trkpt>
      <trkpt lat="47.30744" lon="-1.07608">
        <ele>67</ele>
        <time>2011-07-03T11:01:01Z</time>
      </trkpt>
      <trkpt lat="47.30746" lon="-1.07608">
        <ele>67.1</ele>
        <time>2011-07-03T11:01:02Z</time>
      </trkpt>
      <trkpt lat="47.30755" lon="-1.07612">
        <ele>67.7</ele>
        <time>2011-07-03T11:01:07Z</time>
      </trkpt>
      <trkpt lat="47.30756" lon="-1.07613">
        <ele>67.7</ele>
        <time>2011-07-03T11:01:08Z</time>
      </trkpt>
      <trkpt lat="47.30763" lon="-1.07616">
        <ele>68.2</ele>
        <time>2011-07-03T11:01:12Z</time>
      </trkpt>
      <trkpt lat="47.30765" lon="-1.07616">
        <ele>68.3</ele>
        <time>2011-07-03T11:01:13Z</time>
      </trkpt>
      <trkpt lat="47.30776" lon="-1.07624">
        <ele>68.2</ele>
        <time>2011-07-03T11:01:20Z</time>
      </trkpt>
      <trkpt lat="47.30778" lon="-1.07626">
        <ele>68.7</ele>
        <time>2011-07-03T11:01:22Z</time>
      </trkpt>
      <trkpt lat="47.3078" lon="-1.07628">
        <ele>68.9</ele>
        <time>2011-07-03T11:01:24Z</time>
      </trkpt>
      <trkpt lat="47.30781" lon="-1.07629">
        <ele>69</ele>
        <time>2011-07-03T11:01:25Z</time>
      </trkpt>
      <trkpt lat="47.30803" lon="-1.0764">
        <ele>70.1</ele>
        <time>2011-07-03T11:01:36Z</time>
      </trkpt>
      <trkpt lat="47.30821" lon="-1.07647">
        <ele>71.5</ele>
        <time>2011-07-03T11:01:44Z</time>
      </trkpt>
      <trkpt lat="47.30832" lon="-1.07648">
        <ele>72</ele>
        <time>2011-07-03T11:01:49Z</time>
      </trkpt>
      <trkpt lat="47.30836" lon="-1.07648">
        <ele>71.8</ele>
        <time>2011-07-03T11:01:51Z</time>
      </trkpt>
      <trkpt lat="47.3084" lon="-1.07649">
        <ele>72</ele>
        <time>2011-07-03T11:01:53Z</time>
      </trkpt>
      <trkpt lat="47.30848" lon="-1.07649">
        <ele>71.7</ele>
        <time>2011-07-03T11:01:57Z</time>
      </trkpt>
      <trkpt lat="47.30849" lon="-1.07649">
        <ele>71.6</ele>
        <time>2011-07-03T11:01:58Z</time>
      </trkpt>
      <trkpt lat="47.3085" lon="-1.07649">
        <ele>71.9</ele>
        <time>2011-07-03T11:01:59Z</time>
      </trkpt>
      <trkpt lat="47.30851" lon="-1.0765">
        <ele>72.3</ele>
        <time>2011-07-03T11:02:01Z</time>
      </trkpt>
      <trkpt lat="47.30851" lon="-1.0765">
        <ele>72.4</ele>
        <time>2011-07-03T11:02:02Z</time>
      </trkpt>
      <trkpt lat="47.30852" lon="-1.0765">
        <ele>72.5</ele>
        <time>2011-07-03T11:02:03Z</time>
      </trkpt>
      <trkpt lat="47.30853" lon="-1.0765">
        <ele>72.5</ele>
        <time>2011-07-03T11:02:04Z</time>
      </trkpt>
      <trkpt lat="47.30854" lon="-1.0765">
        <ele>72.8</ele>
        <time>2011-07-03T11:02:06Z</time>
      </trkpt>
      <trkpt lat="47.30854" lon="-1.07651">
        <ele>72.8</ele>
        <time>2011-07-03T11:02:07Z</time>
      </trkpt>
      <trkpt lat="47.30855" lon="-1.0765">
        <ele>72.7</ele>
        <time>2011-07-03T11:02:08Z</time>
      </trkpt>
      <trkpt lat="47.30855" lon="-1.0765">
        <ele>72.6</ele>
        <time>2011-07-03T11:02:09Z</time>
      </trkpt>
      <trkpt lat="47.30856" lon="-1.0765">
        <ele>72.5</ele>
        <time>2011-07-03T11:02:10Z</time>
      </trkpt>
      <trkpt lat="47.30856" lon="-1.0765">
        <ele>72.5</ele>
        <time>2011-07-03T11:02:11Z</time>
      </trkpt>
      <trkpt lat="47.30857" lon="-1.07649">
        <ele>72.6</ele>
        <time>2011-07-03T11:02:13Z</time>
      </trkpt>
      <trkpt lat="47.30858" lon="-1.07649">
        <ele>72.8</ele>
        <time>2011-07-03T11:02:14Z</time>
      </trkpt>
      <trkpt lat="47.30859" lon="-1.07649">
        <ele>72.9</ele>
        <time>2011-07-03T11:02:15Z</time>
      </trkpt>
      <trkpt lat="47.3086" lon="-1.07647">
        <ele>73.1</ele>
        <time>2011-07-03T11:02:17Z</time>
      </trkpt>
      <trkpt lat="47.30861" lon="-1.07646">
        <ele>73.1</ele>
        <time>2011-07-03T11:02:18Z</time>
      </trkpt>
      <trkpt lat="47.30866" lon="-1.07641">
        <ele>73.1</ele>
        <time>2011-07-03T11:02:23Z</time>
      </trkpt>
      <trkpt lat="47.30866" lon="-1.07639">
        <ele>73.4</ele>
        <time>2011-07-03T11:02:24Z</time>
      </trkpt>
      <trkpt lat="47.30867" lon="-1.07638">
        <ele>73.5</ele>
        <time>2011-07-03T11:02:25Z</time>
      </trkpt>
      <trkpt lat="47.30868" lon="-1.07636">
        <ele>73.7</ele>
        <time>2011-07-03T11:02:26Z</time>
      </trkpt>
      <trkpt lat="47.30868" lon="-1.07634">
        <ele>73.9</ele>
        <time>2011-07-03T11:02:27Z</time>
      </trkpt>
      <trkpt lat="47.30869" lon="-1.07629">
        <ele>74.2</ele>
        <time>2011-07-03T11:02:30Z</time>
      </trkpt>
      <trkpt lat="47.3087" lon="-1.07628">
        <ele>74.5</ele>
        <time>2011-07-03T11:02:31Z</time>
      </trkpt>
      <trkpt lat="47.30872" lon="-1.07625">
        <ele>74.8</ele>
        <time>2011-07-03T11:02:33Z</time>
      </trkpt>
      <trkpt lat="47.30874" lon="-1.07624">
        <ele>75.1</ele>
        <time>2011-07-03T11:02:34Z</time>
      </trkpt>
      <trkpt lat="47.30875" lon="-1.07623">
        <ele>75.3</ele>
        <time>2011-07-03T11:02:35Z</time>
      </trkpt>
      <trkpt lat="47.3088" lon="-1.07623">
        <ele>75.2</ele>
        <time>2011-07-03T11:02:37Z</time>
      </trkpt>
      <trkpt lat="47.30884" lon="-1.07623">
        <ele>74.8</ele>
        <time>2011-07-03T11:02:39Z</time>
      </trkpt>
      <trkpt lat="47.30887" lon="-1.07623">
        <ele>75.1</ele>
        <time>2011-07-03T11:02:40Z</time>
      </trkpt>
      <trkpt lat="47.30894" lon="-1.07624">
        <ele>75.7</ele>
        <time>2011-07-03T11:02:43Z</time>
      </trkpt>
      <trkpt lat="47.30903" lon="-1.07627">
        <ele>76.5</ele>
        <time>2011-07-03T11:02:47Z</time>
      </trkpt>
      <trkpt lat="47.30914" lon="-1.07633">
        <ele>76.7</ele>
        <time>2011-07-03T11:02:51Z</time>
      </trkpt>
      <trkpt lat="47.30937" lon="-1.07651">
        <ele>76.5</ele>
        <time>2011-07-03T11:03:01Z</time>
      </trkpt>
      <trkpt lat="47.30949" lon="-1.07657">
        <ele>76.5</ele>
        <time>2011-07-03T11:03:06Z</time>
      </trkpt>
      <trkpt lat="47.30951" lon="-1.07659">
        <ele>76.8</ele>
        <time>2011-07-03T11:03:07Z</time>
      </trkpt>
      <trkpt lat="47.30953" lon="-1.07662">
        <ele>77</ele>
        <time>2011-07-03T11:03:08Z</time>
      </trkpt>
      <trkpt lat="47.30957" lon="-1.07667">
        <ele>76.9</ele>
        <time>2011-07-03T11:03:10Z</time>
      </trkpt>
      <trkpt lat="47.30959" lon="-1.0767">
        <ele>76.9</ele>
        <time>2011-07-03T11:03:11Z</time>
      </trkpt>
      <trkpt lat="47.3096" lon="-1.07672">
        <ele>77.1</ele>
        <time>2011-07-03T11:03:12Z</time>
      </trkpt>
      <trkpt lat="47.30961" lon="-1.07674">
        <ele>77.3</ele>
        <time>2011-07-03T11:03:13Z</time>
      </trkpt>
      <trkpt lat="47.30962" lon="-1.07676">
        <ele>77.4</ele>
        <time>2011-07-03T11:03:14Z</time>
      </trkpt>
      <trkpt lat="47.30962" lon="-1.07683">
        <ele>78.1</ele>
        <time>2011-07-03T11:03:17Z</time>
      </trkpt>
      <trkpt lat="47.30963" lon="-1.07684">
        <ele>77.1</ele>
        <time>2011-07-03T11:03:21Z</time>
      </trkpt>
      <trkpt lat="47.30963" lon="-1.07684">
        <ele>77.2</ele>
        <time>2011-07-03T11:03:23Z</time>
      </trkpt>
      <trkpt lat="47.30963" lon="-1.07685">
        <ele>77.2</ele>
        <time>2011-07-03T11:03:24Z</time>
      </trkpt>
      <trkpt lat="47.30963" lon="-1.07685">
        <ele>77.2</ele>
        <time>2011-07-03T11:03:25Z</time>
      </trkpt>
      <trkpt lat="47.30963" lon="-1.07685">
        <ele>77.1</ele>
        <time>2011-07-03T11:03:26Z</time>
      </trkpt>
      <trkpt lat="47.30964" lon="-1.07686">
        <ele>77.1</ele>
        <time>2011-07-03T11:03:27Z</time>
      </trkpt>
      <trkpt lat="47.30965" lon="-1.07688">
        <ele>76.8</ele>
        <time>2011-07-03T11:03:30Z</time>
      </trkpt>
      <trkpt lat="47.30966" lon="-1.07689">
        <ele>76.4</ele>
        <time>2011-07-03T11:03:32Z</time>
      </trkpt>
      <trkpt lat="47.30966" lon="-1.07689">
        <ele>76.3</ele>
        <time>2011-07-03T11:03:33Z</time>
      </trkpt>
      <trkpt lat="47.30966" lon="-1.07689">
        <ele>76.7</ele>
        <time>2011-07-03T11:03:34Z</time>
      </trkpt>
      <trkpt lat="47.30966" lon="-1.0769">
        <ele>76.9</ele>
        <time>2011-07-03T11:03:35Z</time>
      </trkpt>
      <trkpt lat="47.30966" lon="-1.07691">
        <ele>78</ele>
        <time>2011-07-03T11:03:39Z</time>
      </trkpt>
      <trkpt lat="47.30966" lon="-1.07692">
        <ele>78.2</ele>
        <time>2011-07-03T11:03:40Z</time>
      </trkpt>
      <trkpt lat="47.30965" lon="-1.07693">
        <ele>78.2</ele>
        <time>2011-07-03T11:03:41Z</time>
      </trkpt>
      <trkpt lat="47.30964" lon="-1.07695">
        <ele>78.2</ele>
        <time>2011-07-03T11:03:43Z</time>
      </trkpt>
      <trkpt lat="47.30963" lon="-1.07696">
        <ele>78.1</ele>
        <time>2011-07-03T11:03:44Z</time>
      </trkpt>
      <trkpt lat="47.30963" lon="-1.07697">
        <ele>78.1</ele>
        <time>2011-07-03T11:03:45Z</time>
      </trkpt>
      <trkpt lat="47.30964" lon="-1.07698">
        <ele>78.1</ele>
        <time>2011-07-03T11:03:46Z</time>
      </trkpt>
      <trkpt lat="47.30964" lon="-1.07699">
        <ele>78.2</ele>
        <time>2011-07-03T11:03:47Z</time>
      </trkpt>
      <trkpt lat="47.30966" lon="-1.07701">
        <ele>78.3</ele>
        <time>2011-07-03T11:03:49Z</time>
      </trkpt>
      <trkpt lat="47.30967" lon="-1.07701">
        <ele>78</ele>
        <time>2011-07-03T11:03:50Z</time>
      </trkpt>
      <trkpt lat="47.30969" lon="-1.07699">
        <ele>77.7</ele>
        <time>2011-07-03T11:03:52Z</time>
      </trkpt>
      <trkpt lat="47.31001" lon="-1.07637">
        <ele>83.7</ele>
        <time>2011-07-03T11:04:21Z</time>
      </trkpt>
      <trkpt lat="47.31002" lon="-1.07636">
        <ele>84.2</ele>
        <time>2011-07-03T11:04:22Z</time>
      </trkpt>
      <trkpt lat="47.31003" lon="-1.07635">
        <ele>84.6</ele>
        <time>2011-07-03T11:04:23Z</time>
      </trkpt>
      <trkpt lat="47.31005" lon="-1.07634">
        <ele>84.9</ele>
        <time>2011-07-03T11:04:24Z</time>
      </trkpt>
      <trkpt lat="47.31008" lon="-1.07634">
        <ele>85.8</ele>
        <time>2011-07-03T11:04:26Z</time>
      </trkpt>
      <trkpt lat="47.3101" lon="-1.07635">
        <ele>86.1</ele>
        <time>2011-07-03T11:04:27Z</time>
      </trkpt>
      <trkpt lat="47.31012" lon="-1.07636">
        <ele>86.4</ele>
        <time>2011-07-03T11:04:28Z</time>
      </trkpt>
      <trkpt lat="47.31014" lon="-1.07637">
        <ele>86.1</ele>
        <time>2011-07-03T11:04:29Z</time>
      </trkpt>
      <trkpt lat="47.31063" lon="-1.07688">
        <ele>86.7</ele>
        <time>2011-07-03T11:04:47Z</time>
      </trkpt>
      <trkpt lat="47.31066" lon="-1.07689">
        <ele>86.1</ele>
        <time>2011-07-03T11:04:48Z</time>
      </trkpt>
      <trkpt lat="47.31087" lon="-1.07679">
        <ele>86.5</ele>
        <time>2011-07-03T11:04:58Z</time>
      </trkpt>
      <trkpt lat="47.31169" lon="-1.07619">
        <ele>90.1</ele>
        <time>2011-07-03T11:05:37Z</time>
      </trkpt>
      <trkpt lat="47.31172" lon="-1.07618">
        <ele>90.3</ele>
        <time>2011-07-03T11:05:38Z</time>
      </trkpt>
      <trkpt lat="47.31202" lon="-1.07603">
        <ele>91.9</ele>
        <time>2011-07-03T11:05:50Z</time>
      </trkpt>
      <trkpt lat="47.31204" lon="-1.07602">
        <ele>91.9</ele>
        <time>2011-07-03T11:05:51Z</time>
      </trkpt>
      <trkpt lat="47.3121" lon="-1.07602">
        <ele>92.3</ele>
        <time>2011-07-03T11:05:53Z</time>
      </trkpt>
      <trkpt lat="47.31212" lon="-1.076">
        <ele>92.4</ele>
        <time>2011-07-03T11:05:54Z</time>
      </trkpt>
      <trkpt lat="47.31218" lon="-1.07596">
        <ele>92.5</ele>
        <time>2011-07-03T11:05:57Z</time>
      </trkpt>
      <trkpt lat="47.31253" lon="-1.07568">
        <ele>93.1</ele>
        <time>2011-07-03T11:06:12Z</time>
      </trkpt>
      <trkpt lat="47.31256" lon="-1.07567">
        <ele>93</ele>
        <time>2011-07-03T11:06:13Z</time>
      </trkpt>
      <trkpt lat="47.31336" lon="-1.07514">
        <ele>95.7</ele>
        <time>2011-07-03T11:06:41Z</time>
      </trkpt>
      <trkpt lat="47.31344" lon="-1.07507">
        <ele>96.2</ele>
        <time>2011-07-03T11:06:44Z</time>
      </trkpt>
      <trkpt lat="47.31347" lon="-1.07507">
        <ele>96.3</ele>
        <time>2011-07-03T11:06:45Z</time>
      </trkpt>
      <trkpt lat="47.31348" lon="-1.07508">
        <ele>96.3</ele>
        <time>2011-07-03T11:06:46Z</time>
      </trkpt>
      <trkpt lat="47.3135" lon="-1.07511">
        <ele>96.3</ele>
        <time>2011-07-03T11:06:47Z</time>
      </trkpt>
      <trkpt lat="47.31351" lon="-1.07514">
        <ele>96.3</ele>
        <time>2011-07-03T11:06:48Z</time>
      </trkpt>
      <trkpt lat="47.31358" lon="-1.07529">
        <ele>96.6</ele>
        <time>2011-07-03T11:06:52Z</time>
      </trkpt>
      <trkpt lat="47.3141" lon="-1.07656">
        <ele>99.3</ele>
        <time>2011-07-03T11:07:25Z</time>
      </trkpt>
      <trkpt lat="47.31461" lon="-1.07756">
        <ele>98.9</ele>
        <time>2011-07-03T11:07:48Z</time>
      </trkpt>
      <trkpt lat="47.31462" lon="-1.0776">
        <ele>98.8</ele>
        <time>2011-07-03T11:07:49Z</time>
      </trkpt>
      <trkpt lat="47.31463" lon="-1.07763">
        <ele>98.5</ele>
        <time>2011-07-03T11:07:50Z</time>
      </trkpt>
      <trkpt lat="47.31463" lon="-1.07767">
        <ele>98.2</ele>
        <time>2011-07-03T11:07:51Z</time>
      </trkpt>
      <trkpt lat="47.31463" lon="-1.0777">
        <ele>98</ele>
        <time>2011-07-03T11:07:52Z</time>
      </trkpt>
      <trkpt lat="47.31462" lon="-1.07774">
        <ele>98</ele>
        <time>2011-07-03T11:07:53Z</time>
      </trkpt>
      <trkpt lat="47.3146" lon="-1.07777">
        <ele>97.9</ele>
        <time>2011-07-03T11:07:54Z</time>
      </trkpt>
      <trkpt lat="47.31458" lon="-1.0778">
        <ele>97.9</ele>
        <time>2011-07-03T11:07:55Z</time>
      </trkpt>
      <trkpt lat="47.31457" lon="-1.07783">
        <ele>97.9</ele>
        <time>2011-07-03T11:07:56Z</time>
      </trkpt>
      <trkpt lat="47.31456" lon="-1.07787">
        <ele>97.9</ele>
        <time>2011-07-03T11:07:57Z</time>
      </trkpt>
      <trkpt lat="47.31456" lon="-1.07798">
        <ele>97.9</ele>
        <time>2011-07-03T11:08:00Z</time>
      </trkpt>
      <trkpt lat="47.31456" lon="-1.07801">
        <ele>97.9</ele>
        <time>2011-07-03T11:08:01Z</time>
      </trkpt>
      <trkpt lat="47.31455" lon="-1.07804">
        <ele>98</ele>
        <time>2011-07-03T11:08:02Z</time>
      </trkpt>
      <trkpt lat="47.31453" lon="-1.0781">
        <ele>98.3</ele>
        <time>2011-07-03T11:08:05Z</time>
      </trkpt>
      <trkpt lat="47.31397" lon="-1.07934">
        <ele>95.6</ele>
        <time>2011-07-03T11:08:47Z</time>
      </trkpt>
      <trkpt lat="47.31396" lon="-1.07938">
        <ele>95.6</ele>
        <time>2011-07-03T11:08:48Z</time>
      </trkpt>
      <trkpt lat="47.31396" lon="-1.07943">
        <ele>95.7</ele>
        <time>2011-07-03T11:08:49Z</time>
      </trkpt>
      <trkpt lat="47.31397" lon="-1.07946">
        <ele>95.7</ele>
        <time>2011-07-03T11:08:50Z</time>
      </trkpt>
      <trkpt lat="47.31398" lon="-1.07949">
        <ele>95.7</ele>
        <time>2011-07-03T11:08:51Z</time>
      </trkpt>
      <trkpt lat="47.31402" lon="-1.07952">
        <ele>96.3</ele>
        <time>2011-07-03T11:08:53Z</time>
      </trkpt>
      <trkpt lat="47.31405" lon="-1.07955">
        <ele>97</ele>
        <time>2011-07-03T11:08:55Z</time>
      </trkpt>
      <trkpt lat="47.31464" lon="-1.07994">
        <ele>98.2</ele>
        <time>2011-07-03T11:09:20Z</time>
      </trkpt>
      <trkpt lat="47.31467" lon="-1.07996">
        <ele>98.2</ele>
        <time>2011-07-03T11:09:21Z</time>
      </trkpt>
      <trkpt lat="47.3147" lon="-1.08001">
        <ele>97.6</ele>
        <time>2011-07-03T11:09:23Z</time>
      </trkpt>
      <trkpt lat="47.31475" lon="-1.08008">
        <ele>97.8</ele>
        <time>2011-07-03T11:09:26Z</time>
      </trkpt>
      <trkpt lat="47.31505" lon="-1.08064">
        <ele>99.2</ele>
        <time>2011-07-03T11:09:45Z</time>
      </trkpt>
      <trkpt lat="47.31507" lon="-1.08067">
        <ele>99.4</ele>
        <time>2011-07-03T11:09:46Z</time>
      </trkpt>
      <trkpt lat="47.31513" lon="-1.08075">
        <ele>99.6</ele>
        <time>2011-07-03T11:09:49Z</time>
      </trkpt>
      <trkpt lat="47.31525" lon="-1.08088">
        <ele>99.5</ele>
        <time>2011-07-03T11:09:54Z</time>
      </trkpt>
      <trkpt lat="47.31554" lon="-1.08113">
        <ele>99.7</ele>
        <time>2011-07-03T11:10:07Z</time>
      </trkpt>
      <trkpt lat="47.31603" lon="-1.08146">
        <ele>100.1</ele>
        <time>2011-07-03T11:10:27Z</time>
      </trkpt>
      <trkpt lat="47.31606" lon="-1.08149">
        <ele>100.1</ele>
        <time>2011-07-03T11:10:28Z</time>
      </trkpt>
      <trkpt lat="47.31607" lon="-1.08151">
        <ele>100</ele>
        <time>2011-07-03T11:10:29Z</time>
      </trkpt>
      <trkpt lat="47.31608" lon="-1.08153">
        <ele>99.9</ele>
        <time>2011-07-03T11:10:30Z</time>
      </trkpt>
      <trkpt lat="47.31608" lon="-1.08156">
        <ele>99.8</ele>
        <time>2011-07-03T11:10:31Z</time>
      </trkpt>
      <trkpt lat="47.31607" lon="-1.08157">
        <ele>99.6</ele>
        <time>2011-07-03T11:10:32Z</time>
      </trkpt>
      <trkpt lat="47.31601" lon="-1.08165">
        <ele>98.3</ele>
        <time>2011-07-03T11:10:37Z</time>
      </trkpt>
      <trkpt lat="47.3158" lon="-1.08188">
        <ele>99.2</ele>
        <time>2011-07-03T11:10:50Z</time>
      </trkpt>
      <trkpt lat="47.31578" lon="-1.08191">
        <ele>99.2</ele>
        <time>2011-07-03T11:10:51Z</time>
      </trkpt>
      <trkpt lat="47.31576" lon="-1.08196">
        <ele>99.4</ele>
        <time>2011-07-03T11:10:53Z</time>
      </trkpt>
      <trkpt lat="47.31574" lon="-1.08205">
        <ele>100.1</ele>
        <time>2011-07-03T11:10:56Z</time>
      </trkpt>
      <trkpt lat="47.31573" lon="-1.08208">
        <ele>100.2</ele>
        <time>2011-07-03T11:10:57Z</time>
      </trkpt>
      <trkpt lat="47.31573" lon="-1.08211">
        <ele>99.9</ele>
        <time>2011-07-03T11:10:58Z</time>
      </trkpt>
      <trkpt lat="47.31573" lon="-1.08216">
        <ele>99.5</ele>
        <time>2011-07-03T11:11:00Z</time>
      </trkpt>
      <trkpt lat="47.31573" lon="-1.08219">
        <ele>99.7</ele>
        <time>2011-07-03T11:11:01Z</time>
      </trkpt>
      <trkpt lat="47.31566" lon="-1.08306">
        <ele>102.2</ele>
        <time>2011-07-03T11:11:28Z</time>
      </trkpt>
      <trkpt lat="47.31566" lon="-1.08313">
        <ele>102.6</ele>
        <time>2011-07-03T11:11:30Z</time>
      </trkpt>
      <trkpt lat="47.31567" lon="-1.08343">
        <ele>103.8</ele>
        <time>2011-07-03T11:11:38Z</time>
      </trkpt>
      <trkpt lat="47.31575" lon="-1.0844">
        <ele>105.2</ele>
        <time>2011-07-03T11:12:05Z</time>
      </trkpt>
      <trkpt lat="47.3158" lon="-1.08465">
        <ele>104.5</ele>
        <time>2011-07-03T11:12:13Z</time>
      </trkpt>
      <trkpt lat="47.31581" lon="-1.08468">
        <ele>104.4</ele>
        <time>2011-07-03T11:12:15Z</time>
      </trkpt>
      <trkpt lat="47.31582" lon="-1.0847">
        <ele>104.4</ele>
        <time>2011-07-03T11:12:16Z</time>
      </trkpt>
      <trkpt lat="47.31596" lon="-1.08491">
        <ele>104.8</ele>
        <time>2011-07-03T11:12:28Z</time>
      </trkpt>
      <trkpt lat="47.31599" lon="-1.08493">
        <ele>104.7</ele>
        <time>2011-07-03T11:12:30Z</time>
      </trkpt>
      <trkpt lat="47.31601" lon="-1.08499">
        <ele>104.7</ele>
        <time>2011-07-03T11:12:33Z</time>
      </trkpt>
      <trkpt lat="47.31609" lon="-1.0852">
        <ele>105.5</ele>
        <time>2011-07-03T11:12:45Z</time>
      </trkpt>
      <trkpt lat="47.3161" lon="-1.08525">
        <ele>105.1</ele>
        <time>2011-07-03T11:12:48Z</time>
      </trkpt>
      <trkpt lat="47.3161" lon="-1.08526">
        <ele>105</ele>
        <time>2011-07-03T11:12:49Z</time>
      </trkpt>
      <trkpt lat="47.31608" lon="-1.08531">
        <ele>105.1</ele>
        <time>2011-07-03T11:12:52Z</time>
      </trkpt>
      <trkpt lat="47.31605" lon="-1.08534">
        <ele>105.2</ele>
        <time>2011-07-03T11:12:54Z</time>
      </trkpt>
      <trkpt lat="47.31595" lon="-1.08539">
        <ele>104.3</ele>
        <time>2011-07-03T11:12:59Z</time>
      </trkpt>
      <trkpt lat="47.31593" lon="-1.08541">
        <ele>104.4</ele>
        <time>2011-07-03T11:13:00Z</time>
      </trkpt>
      <trkpt lat="47.31592" lon="-1.08544">
        <ele>104.4</ele>
        <time>2011-07-03T11:13:01Z</time>
      </trkpt>
      <trkpt lat="47.31591" lon="-1.08547">
        <ele>104.8</ele>
        <time>2011-07-03T11:13:02Z</time>
      </trkpt>
      <trkpt lat="47.31591" lon="-1.0855">
        <ele>105.1</ele>
        <time>2011-07-03T11:13:03Z</time>
      </trkpt>
      <trkpt lat="47.31593" lon="-1.08559">
        <ele>105.4</ele>
        <time>2011-07-03T11:13:06Z</time>
      </trkpt>
      <trkpt lat="47.31594" lon="-1.08561">
        <ele>105.3</ele>
        <time>2011-07-03T11:13:07Z</time>
      </trkpt>
      <trkpt lat="47.31594" lon="-1.08563">
        <ele>105.2</ele>
        <time>2011-07-03T11:13:08Z</time>
      </trkpt>
      <trkpt lat="47.31596" lon="-1.08575">
        <ele>105.7</ele>
        <time>2011-07-03T11:13:13Z</time>
      </trkpt>
      <trkpt lat="47.31596" lon="-1.08577">
        <ele>105.5</ele>
        <time>2011-07-03T11:13:14Z</time>
      </trkpt>
      <trkpt lat="47.31596" lon="-1.08582">
        <ele>104.5</ele>
        <time>2011-07-03T11:13:16Z</time>
      </trkpt>
      <trkpt lat="47.31597" lon="-1.08585">
        <ele>104.1</ele>
        <time>2011-07-03T11:13:17Z</time>
      </trkpt>
      <trkpt lat="47.31598" lon="-1.08592">
        <ele>104.6</ele>
        <time>2011-07-03T11:13:19Z</time>
      </trkpt>
      <trkpt lat="47.31624" lon="-1.08846">
        <ele>102.3</ele>
        <time>2011-07-03T11:14:05Z</time>
      </trkpt>
      <trkpt lat="47.31625" lon="-1.08851">
        <ele>102.5</ele>
        <time>2011-07-03T11:14:06Z</time>
      </trkpt>
      <trkpt lat="47.31628" lon="-1.08866">
        <ele>102.6</ele>
        <time>2011-07-03T11:14:09Z</time>
      </trkpt>
      <trkpt lat="47.31636" lon="-1.0892">
        <ele>101.8</ele>
        <time>2011-07-03T11:14:18Z</time>
      </trkpt>
      <trkpt lat="47.31636" lon="-1.08926">
        <ele>101.5</ele>
        <time>2011-07-03T11:14:19Z</time>
      </trkpt>
      <trkpt lat="47.31639" lon="-1.08978">
        <ele>102.7</ele>
        <time>2011-07-03T11:14:27Z</time>
      </trkpt>
      <trkpt lat="47.31684" lon="-1.09393">
        <ele>100.7</ele>
        <time>2011-07-03T11:15:23Z</time>
      </trkpt>
      <trkpt lat="47.31685" lon="-1.09399">
        <ele>100.7</ele>
        <time>2011-07-03T11:15:24Z</time>
      </trkpt>
      <trkpt lat="47.31697" lon="-1.09516">
        <ele>100.1</ele>
        <time>2011-07-03T11:15:44Z</time>
      </trkpt>
      <trkpt lat="47.31696" lon="-1.09541">
        <ele>100.1</ele>
        <time>2011-07-03T11:15:48Z</time>
      </trkpt>
      <trkpt lat="47.31685" lon="-1.09657">
        <ele>99.3</ele>
        <time>2011-07-03T11:16:06Z</time>
      </trkpt>
      <trkpt lat="47.31685" lon="-1.09663">
        <ele>99.3</ele>
        <time>2011-07-03T11:16:07Z</time>
      </trkpt>
      <trkpt lat="47.31686" lon="-1.09676">
        <ele>98.8</ele>
        <time>2011-07-03T11:16:10Z</time>
      </trkpt>
      <trkpt lat="47.31686" lon="-1.0968">
        <ele>98.9</ele>
        <time>2011-07-03T11:16:11Z</time>
      </trkpt>
      <trkpt lat="47.31685" lon="-1.09684">
        <ele>99</ele>
        <time>2011-07-03T11:16:13Z</time>
      </trkpt>
      <trkpt lat="47.31685" lon="-1.09687">
        <ele>99.4</ele>
        <time>2011-07-03T11:16:14Z</time>
      </trkpt>
      <trkpt lat="47.31686" lon="-1.09698">
        <ele>99.8</ele>
        <time>2011-07-03T11:16:17Z</time>
      </trkpt>
      <trkpt lat="47.31685" lon="-1.09757">
        <ele>99.7</ele>
        <time>2011-07-03T11:16:27Z</time>
      </trkpt>
      <trkpt lat="47.31684" lon="-1.09763">
        <ele>99.7</ele>
        <time>2011-07-03T11:16:28Z</time>
      </trkpt>
      <trkpt lat="47.31684" lon="-1.09788">
        <ele>99.7</ele>
        <time>2011-07-03T11:16:33Z</time>
      </trkpt>
      <trkpt lat="47.31686" lon="-1.09839">
        <ele>99.5</ele>
        <time>2011-07-03T11:16:41Z</time>
      </trkpt>
      <trkpt lat="47.31682" lon="-1.09993">
        <ele>98.5</ele>
        <time>2011-07-03T11:17:04Z</time>
      </trkpt>
      <trkpt lat="47.3168" lon="-1.10024">
        <ele>97.9</ele>
        <time>2011-07-03T11:17:09Z</time>
      </trkpt>
      <trkpt lat="47.31679" lon="-1.10029">
        <ele>97.8</ele>
        <time>2011-07-03T11:17:10Z</time>
      </trkpt>
      <trkpt lat="47.31677" lon="-1.10034">
        <ele>97.5</ele>
        <time>2011-07-03T11:17:11Z</time>
      </trkpt>
      <trkpt lat="47.31676" lon="-1.10039">
        <ele>97.4</ele>
        <time>2011-07-03T11:17:12Z</time>
      </trkpt>
      <trkpt lat="47.31673" lon="-1.10042">
        <ele>97.2</ele>
        <time>2011-07-03T11:17:13Z</time>
      </trkpt>
      <trkpt lat="47.31614" lon="-1.10081">
        <ele>98.9</ele>
        <time>2011-07-03T11:17:39Z</time>
      </trkpt>
      <trkpt lat="47.31612" lon="-1.10082">
        <ele>98.7</ele>
        <time>2011-07-03T11:17:40Z</time>
      </trkpt>
      <trkpt lat="47.31596" lon="-1.10091">
        <ele>97</ele>
        <time>2011-07-03T11:17:49Z</time>
      </trkpt>
      <trkpt lat="47.31484" lon="-1.10166">
        <ele>94.8</ele>
        <time>2011-07-03T11:18:23Z</time>
      </trkpt>
      <trkpt lat="47.31222" lon="-1.10274">
        <ele>89.8</ele>
        <time>2011-07-03T11:19:09Z</time>
      </trkpt>
      <trkpt lat="47.31217" lon="-1.10277">
        <ele>89.9</ele>
        <time>2011-07-03T11:19:10Z</time>
      </trkpt>
      <trkpt lat="47.31213" lon="-1.10281">
        <ele>90</ele>
        <time>2011-07-03T11:19:11Z</time>
      </trkpt>
      <trkpt lat="47.31069" lon="-1.10438">
        <ele>90</ele>
        <time>2011-07-03T11:19:44Z</time>
      </trkpt>
      <trkpt lat="47.31065" lon="-1.10441">
        <ele>90</ele>
        <time>2011-07-03T11:19:45Z</time>
      </trkpt>
      <trkpt lat="47.3106" lon="-1.10443">
        <ele>89.9</ele>
        <time>2011-07-03T11:19:46Z</time>
      </trkpt>
      <trkpt lat="47.31055" lon="-1.10443">
        <ele>89.9</ele>
        <time>2011-07-03T11:19:47Z</time>
      </trkpt>
      <trkpt lat="47.3105" lon="-1.10441">
        <ele>90.1</ele>
        <time>2011-07-03T11:19:48Z</time>
      </trkpt>
      <trkpt lat="47.31038" lon="-1.10436">
        <ele>90.3</ele>
        <time>2011-07-03T11:19:51Z</time>
      </trkpt>
      <trkpt lat="47.31026" lon="-1.10429">
        <ele>90.3</ele>
        <time>2011-07-03T11:19:54Z</time>
      </trkpt>
      <trkpt lat="47.31022" lon="-1.10427">
        <ele>90.3</ele>
        <time>2011-07-03T11:19:55Z</time>
      </trkpt>
      <trkpt lat="47.31018" lon="-1.10423">
        <ele>90.3</ele>
        <time>2011-07-03T11:19:56Z</time>
      </trkpt>
      <trkpt lat="47.31012" lon="-1.10415">
        <ele>89.2</ele>
        <time>2011-07-03T11:19:58Z</time>
      </trkpt>
      <trkpt lat="47.30978" lon="-1.10363">
        <ele>89.4</ele>
        <time>2011-07-03T11:20:09Z</time>
      </trkpt>
      <trkpt lat="47.30975" lon="-1.10359">
        <ele>89.4</ele>
        <time>2011-07-03T11:20:10Z</time>
      </trkpt>
      <trkpt lat="47.3097" lon="-1.10356">
        <ele>89.4</ele>
        <time>2011-07-03T11:20:11Z</time>
      </trkpt>
      <trkpt lat="47.30966" lon="-1.10354">
        <ele>89.5</ele>
        <time>2011-07-03T11:20:12Z</time>
      </trkpt>
      <trkpt lat="47.30888" lon="-1.10315">
        <ele>90</ele>
        <time>2011-07-03T11:20:28Z</time>
      </trkpt>
      <trkpt lat="47.30761" lon="-1.10224">
        <ele>92.3</ele>
        <time>2011-07-03T11:20:58Z</time>
      </trkpt>
      <trkpt lat="47.30752" lon="-1.1022">
        <ele>92.6</ele>
        <time>2011-07-03T11:21:00Z</time>
      </trkpt>
      <trkpt lat="47.30736" lon="-1.10214">
        <ele>92.9</ele>
        <time>2011-07-03T11:21:04Z</time>
      </trkpt>
      <trkpt lat="47.30664" lon="-1.10195">
        <ele>93.7</ele>
        <time>2011-07-03T11:21:22Z</time>
      </trkpt>
      <trkpt lat="47.30662" lon="-1.10193">
        <ele>93.8</ele>
        <time>2011-07-03T11:21:23Z</time>
      </trkpt>
      <trkpt lat="47.30661" lon="-1.10191">
        <ele>93.7</ele>
        <time>2011-07-03T11:21:24Z</time>
      </trkpt>
      <trkpt lat="47.30659" lon="-1.10188">
        <ele>93.6</ele>
        <time>2011-07-03T11:21:25Z</time>
      </trkpt>
      <trkpt lat="47.30658" lon="-1.10186">
        <ele>93.6</ele>
        <time>2011-07-03T11:21:26Z</time>
      </trkpt>
      <trkpt lat="47.30658" lon="-1.10182">
        <ele>93.8</ele>
        <time>2011-07-03T11:21:27Z</time>
      </trkpt>
      <trkpt lat="47.30659" lon="-1.10179">
        <ele>93.9</ele>
        <time>2011-07-03T11:21:28Z</time>
      </trkpt>
      <trkpt lat="47.30661" lon="-1.10166">
        <ele>93.9</ele>
        <time>2011-07-03T11:21:31Z</time>
      </trkpt>
      <trkpt lat="47.30684" lon="-1.10081">
        <ele>97</ele>
        <time>2011-07-03T11:21:49Z</time>
      </trkpt>
      <trkpt lat="47.30698" lon="-1.10001">
        <ele>97</ele>
        <time>2011-07-03T11:22:06Z</time>
      </trkpt>
      <trkpt lat="47.30708" lon="-1.09961">
        <ele>99</ele>
        <time>2011-07-03T11:22:15Z</time>
      </trkpt>
      <trkpt lat="47.30708" lon="-1.09956">
        <ele>99</ele>
        <time>2011-07-03T11:22:16Z</time>
      </trkpt>
      <trkpt lat="47.3071" lon="-1.09947">
        <ele>98.9</ele>
        <time>2011-07-03T11:22:18Z</time>
      </trkpt>
      <trkpt lat="47.30715" lon="-1.09929">
        <ele>98.7</ele>
        <time>2011-07-03T11:22:22Z</time>
      </trkpt>
      <trkpt lat="47.30728" lon="-1.09885">
        <ele>98.7</ele>
        <time>2011-07-03T11:22:32Z</time>
      </trkpt>
      <trkpt lat="47.30854" lon="-1.0951">
        <ele>96.8</ele>
        <time>2011-07-03T11:23:38Z</time>
      </trkpt>
      <trkpt lat="47.30868" lon="-1.0945">
        <ele>97.6</ele>
        <time>2011-07-03T11:23:47Z</time>
      </trkpt>
      <trkpt lat="47.3089" lon="-1.09263">
        <ele>97.9</ele>
        <time>2011-07-03T11:24:15Z</time>
      </trkpt>
      <trkpt lat="47.30892" lon="-1.09257">
        <ele>97.8</ele>
        <time>2011-07-03T11:24:16Z</time>
      </trkpt>
      <trkpt lat="47.30911" lon="-1.09187">
        <ele>95.4</ele>
        <time>2011-07-03T11:24:30Z</time>
      </trkpt>
      <trkpt lat="47.30911" lon="-1.09182">
        <ele>95.3</ele>
        <time>2011-07-03T11:24:31Z</time>
      </trkpt>
      <trkpt lat="47.30918" lon="-1.09123">
        <ele>94.8</ele>
        <time>2011-07-03T11:24:44Z</time>
      </trkpt>
      <trkpt lat="47.30918" lon="-1.0912">
        <ele>94.8</ele>
        <time>2011-07-03T11:24:45Z</time>
      </trkpt>
      <trkpt lat="47.30919" lon="-1.09119">
        <ele>94.9</ele>
        <time>2011-07-03T11:24:46Z</time>
      </trkpt>
      <trkpt lat="47.30919" lon="-1.09118">
        <ele>94.9</ele>
        <time>2011-07-03T11:24:47Z</time>
      </trkpt>
      <trkpt lat="47.30919" lon="-1.09117">
        <ele>94.7</ele>
        <time>2011-07-03T11:24:48Z</time>
      </trkpt>
      <trkpt lat="47.30919" lon="-1.09115">
        <ele>93.9</ele>
        <time>2011-07-03T11:24:52Z</time>
      </trkpt>
      <trkpt lat="47.30919" lon="-1.09115">
        <ele>93.6</ele>
        <time>2011-07-03T11:24:53Z</time>
      </trkpt>
      <trkpt lat="47.3092" lon="-1.09115">
        <ele>93.6</ele>
        <time>2011-07-03T11:24:54Z</time>
      </trkpt>
      <trkpt lat="47.3092" lon="-1.09114">
        <ele>93.6</ele>
        <time>2011-07-03T11:24:55Z</time>
      </trkpt>
      <trkpt lat="47.3092" lon="-1.09114">
        <ele>93.6</ele>
        <time>2011-07-03T11:24:56Z</time>
      </trkpt>
      <trkpt lat="47.3092" lon="-1.09113">
        <ele>93.3</ele>
        <time>2011-07-03T11:24:57Z</time>
      </trkpt>
      <trkpt lat="47.3092" lon="-1.09113">
        <ele>93.1</ele>
        <time>2011-07-03T11:24:58Z</time>
      </trkpt>
      <trkpt lat="47.3092" lon="-1.09113">
        <ele>92.9</ele>
        <time>2011-07-03T11:24:59Z</time>
      </trkpt>
      <trkpt lat="47.3092" lon="-1.09112">
        <ele>92.8</ele>
        <time>2011-07-03T11:25:00Z</time>
      </trkpt>
      <trkpt lat="47.30921" lon="-1.09112">
        <ele>92.6</ele>
        <time>2011-07-03T11:25:01Z</time>
      </trkpt>
      <trkpt lat="47.30921" lon="-1.09112">
        <ele>92.4</ele>
        <time>2011-07-03T11:25:02Z</time>
      </trkpt>
      <trkpt lat="47.30921" lon="-1.09111">
        <ele>92.5</ele>
        <time>2011-07-03T11:25:04Z</time>
      </trkpt>
      <trkpt lat="47.30921" lon="-1.0911">
        <ele>92.8</ele>
        <time>2011-07-03T11:25:09Z</time>
      </trkpt>
      <trkpt lat="47.30921" lon="-1.09108">
        <ele>92.6</ele>
        <time>2011-07-03T11:25:15Z</time>
      </trkpt>
      <trkpt lat="47.30921" lon="-1.09108">
        <ele>93</ele>
        <time>2011-07-03T11:25:18Z</time>
      </trkpt>
      <trkpt lat="47.3092" lon="-1.09107">
        <ele>92.1</ele>
        <time>2011-07-03T11:25:29Z</time>
      </trkpt>
      <trkpt lat="47.30921" lon="-1.09107">
        <ele>92.4</ele>
        <time>2011-07-03T11:25:33Z</time>
      </trkpt>
      <trkpt lat="47.3092" lon="-1.09107">
        <ele>92.2</ele>
        <time>2011-07-03T11:25:40Z</time>
      </trkpt>
      <trkpt lat="47.3092" lon="-1.09106">
        <ele>92.5</ele>
        <time>2011-07-03T11:25:50Z</time>
      </trkpt>
      <trkpt lat="47.3092" lon="-1.09106">
        <ele>92.9</ele>
        <time>2011-07-03T11:25:58Z</time>
      </trkpt>
      <trkpt lat="47.3092" lon="-1.09105">
        <ele>92</ele>
        <time>2011-07-03T11:26:16Z</time>
      </trkpt>
      <trkpt lat="47.30919" lon="-1.09105">
        <ele>93.6</ele>
        <time>2011-07-03T11:26:19Z</time>
      </trkpt>
      <trkpt lat="47.30919" lon="-1.09105">
        <ele>92.7</ele>
        <time>2011-07-03T11:26:44Z</time>
      </trkpt>
      <trkpt lat="47.30919" lon="-1.09105">
        <ele>92.7</ele>
        <time>2011-07-03T11:26:45Z</time>
      </trkpt>
      <trkpt lat="47.30919" lon="-1.09105">
        <ele>92.2</ele>
        <time>2011-07-03T11:26:53Z</time>
      </trkpt>
      <trkpt lat="47.30919" lon="-1.09105">
        <ele>93.2</ele>
        <time>2011-07-03T11:27:00Z</time>
      </trkpt>
      <trkpt lat="47.30919" lon="-1.09106">
        <ele>93.2</ele>
        <time>2011-07-03T11:27:01Z</time>
      </trkpt>
      <trkpt lat="47.30919" lon="-1.09106">
        <ele>93.2</ele>
        <time>2011-07-03T11:27:05Z</time>
      </trkpt>
      <trkpt lat="47.3092" lon="-1.09106">
        <ele>92.5</ele>
        <time>2011-07-03T11:27:16Z</time>
      </trkpt>
      <trkpt lat="47.3092" lon="-1.09108">
        <ele>92.6</ele>
        <time>2011-07-03T11:27:28Z</time>
      </trkpt>
      <trkpt lat="47.3092" lon="-1.09108">
        <ele>92.6</ele>
        <time>2011-07-03T11:27:31Z</time>
      </trkpt>
      <trkpt lat="47.30921" lon="-1.09108">
        <ele>92.2</ele>
        <time>2011-07-03T11:27:36Z</time>
      </trkpt>
      <trkpt lat="47.30921" lon="-1.09108">
        <ele>92.4</ele>
        <time>2011-07-03T11:27:38Z</time>
      </trkpt>
      <trkpt lat="47.30921" lon="-1.09108">
        <ele>92.4</ele>
        <time>2011-07-03T11:27:40Z</time>
      </trkpt>
      <trkpt lat="47.30922" lon="-1.09108">
        <ele>92.2</ele>
        <time>2011-07-03T11:27:45Z</time>
      </trkpt>
      <trkpt lat="47.30922" lon="-1.09108">
        <ele>92.4</ele>
        <time>2011-07-03T11:27:47Z</time>
      </trkpt>
      <trkpt lat="47.30922" lon="-1.09107">
        <ele>92.8</ele>
        <time>2011-07-03T11:27:51Z</time>
      </trkpt>
      <trkpt lat="47.30922" lon="-1.09107">
        <ele>92.5</ele>
        <time>2011-07-03T11:27:54Z</time>
      </trkpt>
      <trkpt lat="47.30922" lon="-1.09107">
        <ele>92.5</ele>
        <time>2011-07-03T11:28:19Z</time>
      </trkpt>
      <trkpt lat="47.30921" lon="-1.09107">
        <ele>92.9</ele>
        <time>2011-07-03T11:28:41Z</time>
      </trkpt>
      <trkpt lat="47.30922" lon="-1.09107">
        <ele>92.4</ele>
        <time>2011-07-03T11:28:52Z</time>
      </trkpt>
      <trkpt lat="47.30922" lon="-1.09107">
        <ele>92.1</ele>
        <time>2011-07-03T11:28:59Z</time>
      </trkpt>
      <trkpt lat="47.30922" lon="-1.09107">
        <ele>92.6</ele>
        <time>2011-07-03T11:29:01Z</time>
      </trkpt>
      <trkpt lat="47.30923" lon="-1.09107">
        <ele>93.3</ele>
        <time>2011-07-03T11:29:08Z</time>
      </trkpt>
      <trkpt lat="47.30923" lon="-1.09108">
        <ele>92.7</ele>
        <time>2011-07-03T11:29:31Z</time>
      </trkpt>
      <trkpt lat="47.30923" lon="-1.09108">
        <ele>92.9</ele>
        <time>2011-07-03T11:29:35Z</time>
      </trkpt>
      <trkpt lat="47.30923" lon="-1.09108">
        <ele>92.1</ele>
        <time>2011-07-03T11:29:45Z</time>
      </trkpt>
      <trkpt lat="47.30923" lon="-1.09108">
        <ele>92.5</ele>
        <time>2011-07-03T11:29:47Z</time>
      </trkpt>
      <trkpt lat="47.30923" lon="-1.09108">
        <ele>92.6</ele>
        <time>2011-07-03T11:29:53Z</time>
      </trkpt>
      <trkpt lat="47.30922" lon="-1.09108">
        <ele>92.1</ele>
        <time>2011-07-03T11:29:56Z</time>
      </trkpt>
      <trkpt lat="47.30922" lon="-1.09107">
        <ele>92.7</ele>
        <time>2011-07-03T11:30:01Z</time>
      </trkpt>
      <trkpt lat="47.30922" lon="-1.09107">
        <ele>92.8</ele>
        <time>2011-07-03T11:30:06Z</time>
      </trkpt>
      <trkpt lat="47.30921" lon="-1.09103">
        <ele>93.4</ele>
        <time>2011-07-03T11:34:13Z</time>
      </trkpt>
      <trkpt lat="47.30922" lon="-1.09102">
        <ele>93.2</ele>
        <time>2011-07-03T11:34:30Z</time>
      </trkpt>
      <trkpt lat="47.30922" lon="-1.09102">
        <ele>92.6</ele>
        <time>2011-07-03T11:34:38Z</time>
      </trkpt>
      <trkpt lat="47.30922" lon="-1.09102">
        <ele>93.1</ele>
        <time>2011-07-03T11:34:51Z</time>
      </trkpt>
      <trkpt lat="47.30922" lon="-1.09102">
        <ele>93.2</ele>
        <time>2011-07-03T11:34:55Z</time>
      </trkpt>
      <trkpt lat="47.30923" lon="-1.09103">
        <ele>93.2</ele>
        <time>2011-07-03T11:34:56Z</time>
      </trkpt>
      <trkpt lat="47.30923" lon="-1.09103">
        <ele>93.2</ele>
        <time>2011-07-03T11:34:58Z</time>
      </trkpt>
      <trkpt lat="47.30923" lon="-1.09103">
        <ele>93.2</ele>
        <time>2011-07-03T11:34:59Z</time>
      </trkpt>
      <trkpt lat="47.30924" lon="-1.09103">
        <ele>93</ele>
        <time>2011-07-03T11:35:01Z</time>
      </trkpt>
      <trkpt lat="47.30924" lon="-1.09103">
        <ele>92.5</ele>
        <time>2011-07-03T11:35:04Z</time>
      </trkpt>
      <trkpt lat="47.30924" lon="-1.09103">
        <ele>92.7</ele>
        <time>2011-07-03T11:35:09Z</time>
      </trkpt>
      <trkpt lat="47.30925" lon="-1.09103">
        <ele>92.3</ele>
        <time>2011-07-03T11:35:13Z</time>
      </trkpt>
      <trkpt lat="47.30925" lon="-1.09103">
        <ele>92.4</ele>
        <time>2011-07-03T11:35:14Z</time>
      </trkpt>
      <trkpt lat="47.30925" lon="-1.09103">
        <ele>93</ele>
        <time>2011-07-03T11:35:18Z</time>
      </trkpt>
      <trkpt lat="47.30925" lon="-1.09103">
        <ele>93.2</ele>
        <time>2011-07-03T11:35:19Z</time>
      </trkpt>
      <trkpt lat="47.30925" lon="-1.09103">
        <ele>92.7</ele>
        <time>2011-07-03T11:35:25Z</time>
      </trkpt>
      <trkpt lat="47.30924" lon="-1.09103">
        <ele>93.1</ele>
        <time>2011-07-03T11:35:26Z</time>
      </trkpt>
      <trkpt lat="47.30924" lon="-1.09103">
        <ele>93.4</ele>
        <time>2011-07-03T11:35:27Z</time>
      </trkpt>
      <trkpt lat="47.30924" lon="-1.09104">
        <ele>93.7</ele>
        <time>2011-07-03T11:35:28Z</time>
      </trkpt>
      <trkpt lat="47.30923" lon="-1.09104">
        <ele>93.4</ele>
        <time>2011-07-03T11:35:29Z</time>
      </trkpt>
      <trkpt lat="47.30923" lon="-1.09104">
        <ele>93.1</ele>
        <time>2011-07-03T11:35:30Z</time>
      </trkpt>
      <trkpt lat="47.30923" lon="-1.09104">
        <ele>92.9</ele>
        <time>2011-07-03T11:35:31Z</time>
      </trkpt>
      <trkpt lat="47.30923" lon="-1.09104">
        <ele>92.8</ele>
        <time>2011-07-03T11:35:32Z</time>
      </trkpt>
      <trkpt lat="47.30922" lon="-1.09104">
        <ele>93</ele>
        <time>2011-07-03T11:35:35Z</time>
      </trkpt>
      <trkpt lat="47.30922" lon="-1.09104">
        <ele>92.7</ele>
        <time>2011-07-03T11:35:37Z</time>
      </trkpt>
      <trkpt lat="47.30922" lon="-1.09104">
        <ele>92.6</ele>
        <time>2011-07-03T11:35:38Z</time>
      </trkpt>
      <trkpt lat="47.30921" lon="-1.09103">
        <ele>93.4</ele>
        <time>2011-07-03T11:35:46Z</time>
      </trkpt>
      <trkpt lat="47.30922" lon="-1.09103">
        <ele>93.2</ele>
        <time>2011-07-03T11:35:48Z</time>
      </trkpt>
      <trkpt lat="47.30922" lon="-1.09103">
        <ele>92.9</ele>
        <time>2011-07-03T11:35:49Z</time>
      </trkpt>
      <trkpt lat="47.30922" lon="-1.09103">
        <ele>92.7</ele>
        <time>2011-07-03T11:35:50Z</time>
      </trkpt>
      <trkpt lat="47.30922" lon="-1.09103">
        <ele>92.6</ele>
        <time>2011-07-03T11:35:51Z</time>
      </trkpt>
      <trkpt lat="47.30922" lon="-1.09103">
        <ele>92.7</ele>
        <time>2011-07-03T11:35:52Z</time>
      </trkpt>
      <trkpt lat="47.30922" lon="-1.09102">
        <ele>93</ele>
        <time>2011-07-03T11:35:57Z</time>
      </trkpt>
      <trkpt lat="47.30922" lon="-1.09102">
        <ele>93.1</ele>
        <time>2011-07-03T11:35:58Z</time>
      </trkpt>
      <trkpt lat="47.30922" lon="-1.09101">
        <ele>93.3</ele>
        <time>2011-07-03T11:35:59Z</time>
      </trkpt>
      <trkpt lat="47.30922" lon="-1.09101">
        <ele>93.4</ele>
        <time>2011-07-03T11:36:00Z</time>
      </trkpt>
      <trkpt lat="47.30922" lon="-1.09101">
        <ele>93</ele>
        <time>2011-07-03T11:36:01Z</time>
      </trkpt>
      <trkpt lat="47.30922" lon="-1.09101">
        <ele>92.8</ele>
        <time>2011-07-03T11:36:02Z</time>
      </trkpt>
      <trkpt lat="47.30923" lon="-1.091">
        <ele>92.7</ele>
        <time>2011-07-03T11:36:04Z</time>
      </trkpt>
      <trkpt lat="47.30922" lon="-1.091">
        <ele>92.9</ele>
        <time>2011-07-03T11:36:07Z</time>
      </trkpt>
      <trkpt lat="47.30922" lon="-1.091">
        <ele>92.3</ele>
        <time>2011-07-03T11:36:13Z</time>
      </trkpt>
      <trkpt lat="47.30922" lon="-1.091">
        <ele>92.4</ele>
        <time>2011-07-03T11:36:15Z</time>
      </trkpt>
      <trkpt lat="47.30921" lon="-1.09101">
        <ele>92.5</ele>
        <time>2011-07-03T11:36:16Z</time>
      </trkpt>
      <trkpt lat="47.3092" lon="-1.09102">
        <ele>92.4</ele>
        <time>2011-07-03T11:36:17Z</time>
      </trkpt>
      <trkpt lat="47.3092" lon="-1.09103">
        <ele>92.4</ele>
        <time>2011-07-03T11:36:18Z</time>
      </trkpt>
      <trkpt lat="47.3092" lon="-1.09104">
        <ele>92.4</ele>
        <time>2011-07-03T11:36:19Z</time>
      </trkpt>
      <trkpt lat="47.30919" lon="-1.09104">
        <ele>92.7</ele>
        <time>2011-07-03T11:36:20Z</time>
      </trkpt>
      <trkpt lat="47.30919" lon="-1.09105">
        <ele>92.9</ele>
        <time>2011-07-03T11:36:21Z</time>
      </trkpt>
      <trkpt lat="47.30919" lon="-1.09105">
        <ele>93.3</ele>
        <time>2011-07-03T11:36:23Z</time>
      </trkpt>
      <trkpt lat="47.30919" lon="-1.09106">
        <ele>92.8</ele>
        <time>2011-07-03T11:36:25Z</time>
      </trkpt>
      <trkpt lat="47.30918" lon="-1.09106">
        <ele>92.6</ele>
        <time>2011-07-03T11:36:26Z</time>
      </trkpt>
      <trkpt lat="47.30918" lon="-1.09107">
        <ele>92.8</ele>
        <time>2011-07-03T11:36:27Z</time>
      </trkpt>
      <trkpt lat="47.30918" lon="-1.09107">
        <ele>92.9</ele>
        <time>2011-07-03T11:36:29Z</time>
      </trkpt>
      <trkpt lat="47.30918" lon="-1.09108">
        <ele>92.8</ele>
        <time>2011-07-03T11:36:37Z</time>
      </trkpt>
      <trkpt lat="47.30918" lon="-1.09108">
        <ele>92.9</ele>
        <time>2011-07-03T11:36:38Z</time>
      </trkpt>
      <trkpt lat="47.30918" lon="-1.09108">
        <ele>92.5</ele>
        <time>2011-07-03T11:36:39Z</time>
      </trkpt>
      <trkpt lat="47.30918" lon="-1.09107">
        <ele>92.3</ele>
        <time>2011-07-03T11:36:40Z</time>
      </trkpt>
      <trkpt lat="47.30918" lon="-1.09107">
        <ele>92.1</ele>
        <time>2011-07-03T11:36:41Z</time>
      </trkpt>
      <trkpt lat="47.30918" lon="-1.09107">
        <ele>91.9</ele>
        <time>2011-07-03T11:36:42Z</time>
      </trkpt>
      <trkpt lat="47.30917" lon="-1.09107">
        <ele>92</ele>
        <time>2011-07-03T11:36:45Z</time>
      </trkpt>
      <trkpt lat="47.30917" lon="-1.09108">
        <ele>92.2</ele>
        <time>2011-07-03T11:36:46Z</time>
      </trkpt>
      <trkpt lat="47.30916" lon="-1.09109">
        <ele>92.4</ele>
        <time>2011-07-03T11:36:47Z</time>
      </trkpt>
      <trkpt lat="47.30916" lon="-1.09111">
        <ele>92.5</ele>
        <time>2011-07-03T11:36:51Z</time>
      </trkpt>
      <trkpt lat="47.30916" lon="-1.09111">
        <ele>92.2</ele>
        <time>2011-07-03T11:36:52Z</time>
      </trkpt>
      <trkpt lat="47.30917" lon="-1.09111">
        <ele>92</ele>
        <time>2011-07-03T11:36:53Z</time>
      </trkpt>
      <trkpt lat="47.30917" lon="-1.09111">
        <ele>91.7</ele>
        <time>2011-07-03T11:36:55Z</time>
      </trkpt>
      <trkpt lat="47.30916" lon="-1.09113">
        <ele>92.7</ele>
        <time>2011-07-03T11:36:57Z</time>
      </trkpt>
      <trkpt lat="47.30916" lon="-1.09114">
        <ele>93</ele>
        <time>2011-07-03T11:36:58Z</time>
      </trkpt>
      <trkpt lat="47.30915" lon="-1.09115">
        <ele>92.7</ele>
        <time>2011-07-03T11:36:59Z</time>
      </trkpt>
      <trkpt lat="47.30915" lon="-1.09115">
        <ele>92.5</ele>
        <time>2011-07-03T11:37:00Z</time>
      </trkpt>
      <trkpt lat="47.30915" lon="-1.09116">
        <ele>92.3</ele>
        <time>2011-07-03T11:37:01Z</time>
      </trkpt>
      <trkpt lat="47.30915" lon="-1.09115">
        <ele>92.7</ele>
        <time>2011-07-03T11:37:02Z</time>
      </trkpt>
      <trkpt lat="47.30915" lon="-1.09114">
        <ele>93</ele>
        <time>2011-07-03T11:37:03Z</time>
      </trkpt>
      <trkpt lat="47.30915" lon="-1.09114">
        <ele>93.2</ele>
        <time>2011-07-03T11:37:04Z</time>
      </trkpt>
      <trkpt lat="47.30916" lon="-1.09113">
        <ele>93.4</ele>
        <time>2011-07-03T11:37:05Z</time>
      </trkpt>
      <trkpt lat="47.30916" lon="-1.09113">
        <ele>93.5</ele>
        <time>2011-07-03T11:37:06Z</time>
      </trkpt>
      <trkpt lat="47.30916" lon="-1.09112">
        <ele>93.6</ele>
        <time>2011-07-03T11:37:07Z</time>
      </trkpt>
      <trkpt lat="47.30916" lon="-1.09111">
        <ele>93.1</ele>
        <time>2011-07-03T11:37:09Z</time>
      </trkpt>
      <trkpt lat="47.30917" lon="-1.09111">
        <ele>93</ele>
        <time>2011-07-03T11:37:10Z</time>
      </trkpt>
      <trkpt lat="47.30917" lon="-1.0911">
        <ele>93</ele>
        <time>2011-07-03T11:37:11Z</time>
      </trkpt>
      <trkpt lat="47.30917" lon="-1.09109">
        <ele>93.1</ele>
        <time>2011-07-03T11:37:12Z</time>
      </trkpt>
      <trkpt lat="47.30917" lon="-1.09109">
        <ele>93.1</ele>
        <time>2011-07-03T11:37:13Z</time>
      </trkpt>
      <trkpt lat="47.30917" lon="-1.09109">
        <ele>93.1</ele>
        <time>2011-07-03T11:37:14Z</time>
      </trkpt>
      <trkpt lat="47.30917" lon="-1.09108">
        <ele>92.8</ele>
        <time>2011-07-03T11:37:15Z</time>
      </trkpt>
      <trkpt lat="47.30918" lon="-1.09108">
        <ele>92.5</ele>
        <time>2011-07-03T11:37:16Z</time>
      </trkpt>
      <trkpt lat="47.30918" lon="-1.09107">
        <ele>92.3</ele>
        <time>2011-07-03T11:37:18Z</time>
      </trkpt>
      <trkpt lat="47.30918" lon="-1.09106">
        <ele>92.3</ele>
        <time>2011-07-03T11:37:19Z</time>
      </trkpt>
      <trkpt lat="47.30919" lon="-1.09105">
        <ele>92.8</ele>
        <time>2011-07-03T11:37:21Z</time>
      </trkpt>
      <trkpt lat="47.30919" lon="-1.09105">
        <ele>93.3</ele>
        <time>2011-07-03T11:37:22Z</time>
      </trkpt>
      <trkpt lat="47.30918" lon="-1.09105">
        <ele>93.2</ele>
        <time>2011-07-03T11:37:48Z</time>
      </trkpt>
      <trkpt lat="47.30919" lon="-1.09105">
        <ele>93.3</ele>
        <time>2011-07-03T11:37:50Z</time>
      </trkpt>
      <trkpt lat="47.30919" lon="-1.09105">
        <ele>93.4</ele>
        <time>2011-07-03T11:37:51Z</time>
      </trkpt>
      <trkpt lat="47.30919" lon="-1.09104">
        <ele>92.9</ele>
        <time>2011-07-03T11:37:53Z</time>
      </trkpt>
      <trkpt lat="47.30919" lon="-1.09104">
        <ele>92.4</ele>
        <time>2011-07-03T11:37:54Z</time>
      </trkpt>
      <trkpt lat="47.30919" lon="-1.09104">
        <ele>92</ele>
        <time>2011-07-03T11:37:57Z</time>
      </trkpt>
      <trkpt lat="47.30919" lon="-1.09103">
        <ele>92.7</ele>
        <time>2011-07-03T11:38:03Z</time>
      </trkpt>
      <trkpt lat="47.3092" lon="-1.09103">
        <ele>92.5</ele>
        <time>2011-07-03T11:38:05Z</time>
      </trkpt>
      <trkpt lat="47.30919" lon="-1.09103">
        <ele>92.1</ele>
        <time>2011-07-03T11:38:09Z</time>
      </trkpt>
      <trkpt lat="47.30919" lon="-1.09103">
        <ele>91.9</ele>
        <time>2011-07-03T11:38:11Z</time>
      </trkpt>
      <trkpt lat="47.30919" lon="-1.09103">
        <ele>92</ele>
        <time>2011-07-03T11:38:12Z</time>
      </trkpt>
      <trkpt lat="47.30918" lon="-1.09103">
        <ele>92.5</ele>
        <time>2011-07-03T11:38:16Z</time>
      </trkpt>
      <trkpt lat="47.30918" lon="-1.09103">
        <ele>92.5</ele>
        <time>2011-07-03T11:38:18Z</time>
      </trkpt>
      <trkpt lat="47.30918" lon="-1.09102">
        <ele>92.5</ele>
        <time>2011-07-03T11:38:20Z</time>
      </trkpt>
      <trkpt lat="47.30918" lon="-1.09102">
        <ele>92.2</ele>
        <time>2011-07-03T11:38:23Z</time>
      </trkpt>
      <trkpt lat="47.30918" lon="-1.09102">
        <ele>92.1</ele>
        <time>2011-07-03T11:38:24Z</time>
      </trkpt>
      <trkpt lat="47.30917" lon="-1.09103">
        <ele>92.5</ele>
        <time>2011-07-03T11:38:26Z</time>
      </trkpt>
      <trkpt lat="47.30916" lon="-1.09103">
        <ele>92.8</ele>
        <time>2011-07-03T11:38:30Z</time>
      </trkpt>
      <trkpt lat="47.30915" lon="-1.09103">
        <ele>92.9</ele>
        <time>2011-07-03T11:38:32Z</time>
      </trkpt>
      <trkpt lat="47.30916" lon="-1.09102">
        <ele>93</ele>
        <time>2011-07-03T11:38:33Z</time>
      </trkpt>
      <trkpt lat="47.30915" lon="-1.09102">
        <ele>92.3</ele>
        <time>2011-07-03T11:38:39Z</time>
      </trkpt>
      <trkpt lat="47.30915" lon="-1.09102">
        <ele>92.7</ele>
        <time>2011-07-03T11:38:51Z</time>
      </trkpt>
      <trkpt lat="47.30916" lon="-1.09103">
        <ele>93</ele>
        <time>2011-07-03T11:38:56Z</time>
      </trkpt>
      <trkpt lat="47.30916" lon="-1.09103">
        <ele>93.1</ele>
        <time>2011-07-03T11:39:03Z</time>
      </trkpt>
      <trkpt lat="47.30916" lon="-1.09103">
        <ele>93</ele>
        <time>2011-07-03T11:39:05Z</time>
      </trkpt>
      <trkpt lat="47.30916" lon="-1.09103">
        <ele>93.2</ele>
        <time>2011-07-03T11:39:08Z</time>
      </trkpt>
      <trkpt lat="47.30917" lon="-1.09103">
        <ele>92.9</ele>
        <time>2011-07-03T11:39:12Z</time>
      </trkpt>
      <trkpt lat="47.30917" lon="-1.09103">
        <ele>92.7</ele>
        <time>2011-07-03T11:39:13Z</time>
      </trkpt>
      <trkpt lat="47.30917" lon="-1.09103">
        <ele>93.2</ele>
        <time>2011-07-03T11:39:17Z</time>
      </trkpt>
      <trkpt lat="47.30917" lon="-1.09103">
        <ele>93.5</ele>
        <time>2011-07-03T11:39:20Z</time>
      </trkpt>
      <trkpt lat="47.30917" lon="-1.09103">
        <ele>92.7</ele>
        <time>2011-07-03T11:39:23Z</time>
      </trkpt>
      <trkpt lat="47.30916" lon="-1.09103">
        <ele>92.9</ele>
        <time>2011-07-03T11:39:25Z</time>
      </trkpt>
      <trkpt lat="47.30917" lon="-1.09103">
        <ele>93.5</ele>
        <time>2011-07-03T11:39:27Z</time>
      </trkpt>
      <trkpt lat="47.30918" lon="-1.09103">
        <ele>93.7</ele>
        <time>2011-07-03T11:39:28Z</time>
      </trkpt>
      <trkpt lat="47.30918" lon="-1.09102">
        <ele>93.9</ele>
        <time>2011-07-03T11:39:29Z</time>
      </trkpt>
      <trkpt lat="47.30919" lon="-1.09102">
        <ele>94</ele>
        <time>2011-07-03T11:39:34Z</time>
      </trkpt>
      <trkpt lat="47.3092" lon="-1.09102">
        <ele>94.7</ele>
        <time>2011-07-03T11:39:37Z</time>
      </trkpt>
      <trkpt lat="47.3092" lon="-1.09102">
        <ele>94.6</ele>
        <time>2011-07-03T11:39:38Z</time>
      </trkpt>
      <trkpt lat="47.3092" lon="-1.09101">
        <ele>94.6</ele>
        <time>2011-07-03T11:39:39Z</time>
      </trkpt>
      <trkpt lat="47.30921" lon="-1.09101">
        <ele>94.6</ele>
        <time>2011-07-03T11:39:40Z</time>
      </trkpt>
      <trkpt lat="47.30921" lon="-1.09101">
        <ele>94.8</ele>
        <time>2011-07-03T11:39:41Z</time>
      </trkpt>
      <trkpt lat="47.30922" lon="-1.09101">
        <ele>94.9</ele>
        <time>2011-07-03T11:39:42Z</time>
      </trkpt>
      <trkpt lat="47.30922" lon="-1.09099">
        <ele>95</ele>
        <time>2011-07-03T11:39:43Z</time>
      </trkpt>
      <trkpt lat="47.30923" lon="-1.09098">
        <ele>95.1</ele>
        <time>2011-07-03T11:39:44Z</time>
      </trkpt>
      <trkpt lat="47.30923" lon="-1.09095">
        <ele>95.1</ele>
        <time>2011-07-03T11:39:45Z</time>
      </trkpt>
      <trkpt lat="47.30922" lon="-1.09093">
        <ele>95</ele>
        <time>2011-07-03T11:39:46Z</time>
      </trkpt>
      <trkpt lat="47.30921" lon="-1.0909">
        <ele>95</ele>
        <time>2011-07-03T11:39:47Z</time>
      </trkpt>
      <trkpt lat="47.30817" lon="-1.08959">
        <ele>92.1</ele>
        <time>2011-07-03T11:40:21Z</time>
      </trkpt>
      <trkpt lat="47.30812" lon="-1.08955">
        <ele>91.5</ele>
        <time>2011-07-03T11:40:23Z</time>
      </trkpt>
      <trkpt lat="47.30809" lon="-1.08952">
        <ele>90.9</ele>
        <time>2011-07-03T11:40:25Z</time>
      </trkpt>
      <trkpt lat="47.30807" lon="-1.0895">
        <ele>91</ele>
        <time>2011-07-03T11:40:26Z</time>
      </trkpt>
      <trkpt lat="47.30807" lon="-1.08948">
        <ele>91.1</ele>
        <time>2011-07-03T11:40:27Z</time>
      </trkpt>
      <trkpt lat="47.30804" lon="-1.08939">
        <ele>91.5</ele>
        <time>2011-07-03T11:40:30Z</time>
      </trkpt>
      <trkpt lat="47.30789" lon="-1.08913">
        <ele>91.5</ele>
        <time>2011-07-03T11:40:37Z</time>
      </trkpt>
      <trkpt lat="47.30569" lon="-1.08579">
        <ele>89.8</ele>
        <time>2011-07-03T11:41:44Z</time>
      </trkpt>
      <trkpt lat="47.30565" lon="-1.08577">
        <ele>89.8</ele>
        <time>2011-07-03T11:41:45Z</time>
      </trkpt>
      <trkpt lat="47.30561" lon="-1.08577">
        <ele>89.4</ele>
        <time>2011-07-03T11:41:46Z</time>
      </trkpt>
      <trkpt lat="47.30556" lon="-1.08579">
        <ele>89.1</ele>
        <time>2011-07-03T11:41:47Z</time>
      </trkpt>
      <trkpt lat="47.30552" lon="-1.08582">
        <ele>88.9</ele>
        <time>2011-07-03T11:41:48Z</time>
      </trkpt>
      <trkpt lat="47.30467" lon="-1.08633">
        <ele>86.7</ele>
        <time>2011-07-03T11:42:04Z</time>
      </trkpt>
      <trkpt lat="47.30455" lon="-1.08639">
        <ele>86.2</ele>
        <time>2011-07-03T11:42:06Z</time>
      </trkpt>
      <trkpt lat="47.30449" lon="-1.0864">
        <ele>86</ele>
        <time>2011-07-03T11:42:07Z</time>
      </trkpt>
      <trkpt lat="47.30436" lon="-1.08642">
        <ele>86</ele>
        <time>2011-07-03T11:42:09Z</time>
      </trkpt>
      <trkpt lat="47.3039" lon="-1.08641">
        <ele>84.1</ele>
        <time>2011-07-03T11:42:17Z</time>
      </trkpt>
      <trkpt lat="47.30375" lon="-1.08636">
        <ele>84</ele>
        <time>2011-07-03T11:42:20Z</time>
      </trkpt>
      <trkpt lat="47.30371" lon="-1.08636">
        <ele>84</ele>
        <time>2011-07-03T11:42:21Z</time>
      </trkpt>
      <trkpt lat="47.30366" lon="-1.08638">
        <ele>83.9</ele>
        <time>2011-07-03T11:42:22Z</time>
      </trkpt>
      <trkpt lat="47.30187" lon="-1.08691">
        <ele>82.8</ele>
        <time>2011-07-03T11:42:57Z</time>
      </trkpt>
      <trkpt lat="47.30044" lon="-1.08713">
        <ele>82.1</ele>
        <time>2011-07-03T11:43:25Z</time>
      </trkpt>
      <trkpt lat="47.30041" lon="-1.08714">
        <ele>81.8</ele>
        <time>2011-07-03T11:43:26Z</time>
      </trkpt>
      <trkpt lat="47.30039" lon="-1.08716">
        <ele>81.6</ele>
        <time>2011-07-03T11:43:27Z</time>
      </trkpt>
      <trkpt lat="47.30038" lon="-1.08719">
        <ele>81.4</ele>
        <time>2011-07-03T11:43:28Z</time>
      </trkpt>
      <trkpt lat="47.30039" lon="-1.08724">
        <ele>81.3</ele>
        <time>2011-07-03T11:43:29Z</time>
      </trkpt>
      <trkpt lat="47.3004" lon="-1.08729">
        <ele>81.2</ele>
        <time>2011-07-03T11:43:30Z</time>
      </trkpt>
      <trkpt lat="47.30042" lon="-1.0874">
        <ele>81.8</ele>
        <time>2011-07-03T11:43:32Z</time>
      </trkpt>
      <trkpt lat="47.30043" lon="-1.08747">
        <ele>82</ele>
        <time>2011-07-03T11:43:33Z</time>
      </trkpt>
      <trkpt lat="47.30042" lon="-1.08753">
        <ele>82.2</ele>
        <time>2011-07-03T11:43:34Z</time>
      </trkpt>
      <trkpt lat="47.3004" lon="-1.08757">
        <ele>81.7</ele>
        <time>2011-07-03T11:43:35Z</time>
      </trkpt>
      <trkpt lat="47.30037" lon="-1.08759">
        <ele>81.4</ele>
        <time>2011-07-03T11:43:36Z</time>
      </trkpt>
      <trkpt lat="47.30034" lon="-1.0876">
        <ele>81.1</ele>
        <time>2011-07-03T11:43:37Z</time>
      </trkpt>
      <trkpt lat="47.3003" lon="-1.0876">
        <ele>80.7</ele>
        <time>2011-07-03T11:43:38Z</time>
      </trkpt>
      <trkpt lat="47.30021" lon="-1.0876">
        <ele>80.7</ele>
        <time>2011-07-03T11:43:41Z</time>
      </trkpt>
      <trkpt lat="47.29961" lon="-1.08754">
        <ele>81.9</ele>
        <time>2011-07-03T11:43:57Z</time>
      </trkpt>
      <trkpt lat="47.29957" lon="-1.08754">
        <ele>81.9</ele>
        <time>2011-07-03T11:43:58Z</time>
      </trkpt>
      <trkpt lat="47.29943" lon="-1.08758">
        <ele>82</ele>
        <time>2011-07-03T11:44:01Z</time>
      </trkpt>
      <trkpt lat="47.29939" lon="-1.0876">
        <ele>82</ele>
        <time>2011-07-03T11:44:02Z</time>
      </trkpt>
      <trkpt lat="47.29917" lon="-1.08769">
        <ele>81.4</ele>
        <time>2011-07-03T11:44:07Z</time>
      </trkpt>
      <trkpt lat="47.29905" lon="-1.08778">
        <ele>81.4</ele>
        <time>2011-07-03T11:44:10Z</time>
      </trkpt>
      <trkpt lat="47.29901" lon="-1.0878">
        <ele>81.4</ele>
        <time>2011-07-03T11:44:11Z</time>
      </trkpt>
      <trkpt lat="47.29877" lon="-1.08789">
        <ele>81.5</ele>
        <time>2011-07-03T11:44:16Z</time>
      </trkpt>
      <trkpt lat="47.29861" lon="-1.08793">
        <ele>81.2</ele>
        <time>2011-07-03T11:44:19Z</time>
      </trkpt>
      <trkpt lat="47.29856" lon="-1.08793">
        <ele>80.9</ele>
        <time>2011-07-03T11:44:20Z</time>
      </trkpt>
      <trkpt lat="47.2985" lon="-1.08793">
        <ele>80.7</ele>
        <time>2011-07-03T11:44:21Z</time>
      </trkpt>
      <trkpt lat="47.29845" lon="-1.08792">
        <ele>80.7</ele>
        <time>2011-07-03T11:44:22Z</time>
      </trkpt>
      <trkpt lat="47.2983" lon="-1.08791">
        <ele>80.7</ele>
        <time>2011-07-03T11:44:25Z</time>
      </trkpt>
      <trkpt lat="47.29825" lon="-1.08791">
        <ele>80.8</ele>
        <time>2011-07-03T11:44:26Z</time>
      </trkpt>
      <trkpt lat="47.2982" lon="-1.08792">
        <ele>81</ele>
        <time>2011-07-03T11:44:27Z</time>
      </trkpt>
      <trkpt lat="47.29758" lon="-1.08815">
        <ele>79.9</ele>
        <time>2011-07-03T11:44:40Z</time>
      </trkpt>
      <trkpt lat="47.29674" lon="-1.08827">
        <ele>79.8</ele>
        <time>2011-07-03T11:44:57Z</time>
      </trkpt>
      <trkpt lat="47.29668" lon="-1.08826">
        <ele>79.6</ele>
        <time>2011-07-03T11:44:58Z</time>
      </trkpt>
      <trkpt lat="47.29663" lon="-1.08823">
        <ele>79.5</ele>
        <time>2011-07-03T11:44:59Z</time>
      </trkpt>
      <trkpt lat="47.29659" lon="-1.0882">
        <ele>79.3</ele>
        <time>2011-07-03T11:45:00Z</time>
      </trkpt>
      <trkpt lat="47.29655" lon="-1.08817">
        <ele>79.2</ele>
        <time>2011-07-03T11:45:01Z</time>
      </trkpt>
      <trkpt lat="47.29644" lon="-1.08803">
        <ele>78.4</ele>
        <time>2011-07-03T11:45:04Z</time>
      </trkpt>
      <trkpt lat="47.2964" lon="-1.08801">
        <ele>77.9</ele>
        <time>2011-07-03T11:45:05Z</time>
      </trkpt>
      <trkpt lat="47.29578" lon="-1.08772">
        <ele>73.4</ele>
        <time>2011-07-03T11:45:17Z</time>
      </trkpt>
      <trkpt lat="47.29573" lon="-1.08771">
        <ele>72.9</ele>
        <time>2011-07-03T11:45:18Z</time>
      </trkpt>
      <trkpt lat="47.29568" lon="-1.08772">
        <ele>72.5</ele>
        <time>2011-07-03T11:45:19Z</time>
      </trkpt>
      <trkpt lat="47.2951" lon="-1.08787">
        <ele>67</ele>
        <time>2011-07-03T11:45:29Z</time>
      </trkpt>
      <trkpt lat="47.29502" lon="-1.08787">
        <ele>66.8</ele>
        <time>2011-07-03T11:45:30Z</time>
      </trkpt>
      <trkpt lat="47.29494" lon="-1.08785">
        <ele>66.7</ele>
        <time>2011-07-03T11:45:31Z</time>
      </trkpt>
      <trkpt lat="47.29471" lon="-1.08775">
        <ele>65.6</ele>
        <time>2011-07-03T11:45:34Z</time>
      </trkpt>
      <trkpt lat="47.29463" lon="-1.08773">
        <ele>65.2</ele>
        <time>2011-07-03T11:45:35Z</time>
      </trkpt>
      <trkpt lat="47.29379" lon="-1.08765">
        <ele>60</ele>
        <time>2011-07-03T11:45:44Z</time>
      </trkpt>
      <trkpt lat="47.29369" lon="-1.08766">
        <ele>58.7</ele>
        <time>2011-07-03T11:45:45Z</time>
      </trkpt>
      <trkpt lat="47.2932" lon="-1.08785">
        <ele>54.6</ele>
        <time>2011-07-03T11:45:50Z</time>
      </trkpt>
      <trkpt lat="47.29308" lon="-1.08787">
        <ele>54</ele>
        <time>2011-07-03T11:45:51Z</time>
      </trkpt>
      <trkpt lat="47.29298" lon="-1.08787">
        <ele>52.4</ele>
        <time>2011-07-03T11:45:52Z</time>
      </trkpt>
      <trkpt lat="47.29281" lon="-1.08785">
        <ele>50.3</ele>
        <time>2011-07-03T11:45:54Z</time>
      </trkpt>
      <trkpt lat="47.29274" lon="-1.08783">
        <ele>49.1</ele>
        <time>2011-07-03T11:45:55Z</time>
      </trkpt>
      <trkpt lat="47.29268" lon="-1.0878">
        <ele>48.3</ele>
        <time>2011-07-03T11:45:56Z</time>
      </trkpt>
      <trkpt lat="47.29264" lon="-1.08775">
        <ele>47.6</ele>
        <time>2011-07-03T11:45:57Z</time>
      </trkpt>
      <trkpt lat="47.2926" lon="-1.08771">
        <ele>46.4</ele>
        <time>2011-07-03T11:45:58Z</time>
      </trkpt>
      <trkpt lat="47.29256" lon="-1.08768">
        <ele>45.5</ele>
        <time>2011-07-03T11:45:59Z</time>
      </trkpt>
      <trkpt lat="47.29247" lon="-1.08764">
        <ele>44.1</ele>
        <time>2011-07-03T11:46:01Z</time>
      </trkpt>
      <trkpt lat="47.29243" lon="-1.0876">
        <ele>43.6</ele>
        <time>2011-07-03T11:46:02Z</time>
      </trkpt>
      <trkpt lat="47.2924" lon="-1.08755">
        <ele>43.2</ele>
        <time>2011-07-03T11:46:03Z</time>
      </trkpt>
      <trkpt lat="47.29238" lon="-1.08749">
        <ele>42.6</ele>
        <time>2011-07-03T11:46:04Z</time>
      </trkpt>
      <trkpt lat="47.29225" lon="-1.08698">
        <ele>39.4</ele>
        <time>2011-07-03T11:46:12Z</time>
      </trkpt>
      <trkpt lat="47.29202" lon="-1.0859">
        <ele>36.4</ele>
        <time>2011-07-03T11:46:31Z</time>
      </trkpt>
      <trkpt lat="47.29198" lon="-1.08522">
        <ele>35.2</ele>
        <time>2011-07-03T11:46:46Z</time>
      </trkpt>
      <trkpt lat="47.29198" lon="-1.08518">
        <ele>35.2</ele>
        <time>2011-07-03T11:46:47Z</time>
      </trkpt>
      <trkpt lat="47.29199" lon="-1.08514">
        <ele>35.2</ele>
        <time>2011-07-03T11:46:48Z</time>
      </trkpt>
      <trkpt lat="47.29199" lon="-1.08511">
        <ele>35.1</ele>
        <time>2011-07-03T11:46:49Z</time>
      </trkpt>
      <trkpt lat="47.29199" lon="-1.08509">
        <ele>35</ele>
        <time>2011-07-03T11:46:50Z</time>
      </trkpt>
      <trkpt lat="47.29199" lon="-1.08508">
        <ele>35</ele>
        <time>2011-07-03T11:46:51Z</time>
      </trkpt>
      <trkpt lat="47.29199" lon="-1.08507">
        <ele>34.9</ele>
        <time>2011-07-03T11:46:52Z</time>
      </trkpt>
      <trkpt lat="47.29199" lon="-1.08506">
        <ele>34.8</ele>
        <time>2011-07-03T11:46:53Z</time>
      </trkpt>
      <trkpt lat="47.29198" lon="-1.08505">
        <ele>34.8</ele>
        <time>2011-07-03T11:46:54Z</time>
      </trkpt>
      <trkpt lat="47.29193" lon="-1.08498">
        <ele>34.7</ele>
        <time>2011-07-03T11:46:58Z</time>
      </trkpt>
      <trkpt lat="47.29193" lon="-1.08496">
        <ele>34</ele>
        <time>2011-07-03T11:47:01Z</time>
      </trkpt>
      <trkpt lat="47.29193" lon="-1.08495">
        <ele>33.9</ele>
        <time>2011-07-03T11:47:02Z</time>
      </trkpt>
      <trkpt lat="47.29193" lon="-1.08495">
        <ele>33.8</ele>
        <time>2011-07-03T11:47:03Z</time>
      </trkpt>
      <trkpt lat="47.29193" lon="-1.08494">
        <ele>33.7</ele>
        <time>2011-07-03T11:47:04Z</time>
      </trkpt>
      <trkpt lat="47.29194" lon="-1.08494">
        <ele>34</ele>
        <time>2011-07-03T11:47:05Z</time>
      </trkpt>
      <trkpt lat="47.29193" lon="-1.08493">
        <ele>34.2</ele>
        <time>2011-07-03T11:47:06Z</time>
      </trkpt>
      <trkpt lat="47.29193" lon="-1.08492">
        <ele>34.3</ele>
        <time>2011-07-03T11:47:07Z</time>
      </trkpt>
      <trkpt lat="47.29192" lon="-1.0849">
        <ele>34.2</ele>
        <time>2011-07-03T11:47:10Z</time>
      </trkpt>
      <trkpt lat="47.29192" lon="-1.0849">
        <ele>34.2</ele>
        <time>2011-07-03T11:47:11Z</time>
      </trkpt>
      <trkpt lat="47.29192" lon="-1.0849">
        <ele>33.9</ele>
        <time>2011-07-03T11:47:12Z</time>
      </trkpt>
      <trkpt lat="47.29192" lon="-1.08489">
        <ele>33.6</ele>
        <time>2011-07-03T11:47:14Z</time>
      </trkpt>
      <trkpt lat="47.29191" lon="-1.08488">
        <ele>34</ele>
        <time>2011-07-03T11:47:16Z</time>
      </trkpt>
      <trkpt lat="47.29191" lon="-1.08487">
        <ele>34.1</ele>
        <time>2011-07-03T11:47:17Z</time>
      </trkpt>
      <trkpt lat="47.29191" lon="-1.08487">
        <ele>34</ele>
        <time>2011-07-03T11:47:21Z</time>
      </trkpt>
      <trkpt lat="47.29191" lon="-1.08488">
        <ele>33.9</ele>
        <time>2011-07-03T11:47:22Z</time>
      </trkpt>
      <trkpt lat="47.29191" lon="-1.08487">
        <ele>33.7</ele>
        <time>2011-07-03T11:47:23Z</time>
      </trkpt>
      <trkpt lat="47.2919" lon="-1.08487">
        <ele>33.7</ele>
        <time>2011-07-03T11:47:24Z</time>
      </trkpt>
      <trkpt lat="47.29189" lon="-1.08487">
        <ele>33.7</ele>
        <time>2011-07-03T11:47:25Z</time>
      </trkpt>
      <trkpt lat="47.29188" lon="-1.08488">
        <ele>33.7</ele>
        <time>2011-07-03T11:47:26Z</time>
      </trkpt>
      <trkpt lat="47.29187" lon="-1.08489">
        <ele>33.6</ele>
        <time>2011-07-03T11:47:28Z</time>
      </trkpt>
      <trkpt lat="47.29185" lon="-1.08489">
        <ele>33.3</ele>
        <time>2011-07-03T11:47:51Z</time>
      </trkpt>
      <trkpt lat="47.29182" lon="-1.08494">
        <ele>33.7</ele>
        <time>2011-07-03T11:48:04Z</time>
      </trkpt>
      <trkpt lat="47.29181" lon="-1.08496">
        <ele>33.8</ele>
        <time>2011-07-03T11:48:05Z</time>
      </trkpt>
      <trkpt lat="47.29175" lon="-1.0851">
        <ele>33.9</ele>
        <time>2011-07-03T11:48:10Z</time>
      </trkpt>
      <trkpt lat="47.29174" lon="-1.08513">
        <ele>33.9</ele>
        <time>2011-07-03T11:48:11Z</time>
      </trkpt>
      <trkpt lat="47.29172" lon="-1.08516">
        <ele>33.8</ele>
        <time>2011-07-03T11:48:12Z</time>
      </trkpt>
      <trkpt lat="47.29168" lon="-1.0852">
        <ele>33.8</ele>
        <time>2011-07-03T11:48:14Z</time>
      </trkpt>
      <trkpt lat="47.29164" lon="-1.08523">
        <ele>33.9</ele>
        <time>2011-07-03T11:48:17Z</time>
      </trkpt>
      <trkpt lat="47.29153" lon="-1.08529">
        <ele>35.7</ele>
        <time>2011-07-03T11:48:26Z</time>
      </trkpt>
      <trkpt lat="47.29152" lon="-1.0853">
        <ele>35.8</ele>
        <time>2011-07-03T11:48:27Z</time>
      </trkpt>
      <trkpt lat="47.29147" lon="-1.08534">
        <ele>37.6</ele>
        <time>2011-07-03T11:48:31Z</time>
      </trkpt>
      <trkpt lat="47.29146" lon="-1.08535">
        <ele>38</ele>
        <time>2011-07-03T11:48:32Z</time>
      </trkpt>
      <trkpt lat="47.29143" lon="-1.08534">
        <ele>38.8</ele>
        <time>2011-07-03T11:48:34Z</time>
      </trkpt>
      <trkpt lat="47.29142" lon="-1.08534">
        <ele>39.1</ele>
        <time>2011-07-03T11:48:35Z</time>
      </trkpt>
      <trkpt lat="47.29138" lon="-1.08536">
        <ele>39.4</ele>
        <time>2011-07-03T11:48:38Z</time>
      </trkpt>
      <trkpt lat="47.2913" lon="-1.0854">
        <ele>40.1</ele>
        <time>2011-07-03T11:48:45Z</time>
      </trkpt>
      <trkpt lat="47.29096" lon="-1.08562">
        <ele>47.2</ele>
        <time>2011-07-03T11:49:19Z</time>
      </trkpt>
      <trkpt lat="47.29094" lon="-1.08562">
        <ele>47.5</ele>
        <time>2011-07-03T11:49:20Z</time>
      </trkpt>
      <trkpt lat="47.29087" lon="-1.08566">
        <ele>49.1</ele>
        <time>2011-07-03T11:49:27Z</time>
      </trkpt>
      <trkpt lat="47.29078" lon="-1.08569">
        <ele>50.7</ele>
        <time>2011-07-03T11:49:36Z</time>
      </trkpt>
      <trkpt lat="47.29076" lon="-1.0857">
        <ele>50.9</ele>
        <time>2011-07-03T11:49:38Z</time>
      </trkpt>
      <trkpt lat="47.29075" lon="-1.0857">
        <ele>50.9</ele>
        <time>2011-07-03T11:49:39Z</time>
      </trkpt>
      <trkpt lat="47.29072" lon="-1.08576">
        <ele>51.3</ele>
        <time>2011-07-03T11:49:44Z</time>
      </trkpt>
      <trkpt lat="47.29071" lon="-1.08576">
        <ele>51.8</ele>
        <time>2011-07-03T11:49:45Z</time>
      </trkpt>
      <trkpt lat="47.2907" lon="-1.08577">
        <ele>52.1</ele>
        <time>2011-07-03T11:49:46Z</time>
      </trkpt>
      <trkpt lat="47.29066" lon="-1.08582">
        <ele>52.7</ele>
        <time>2011-07-03T11:49:51Z</time>
      </trkpt>
      <trkpt lat="47.29063" lon="-1.08586">
        <ele>53.9</ele>
        <time>2011-07-03T11:49:55Z</time>
      </trkpt>
      <trkpt lat="47.29062" lon="-1.08587">
        <ele>54.2</ele>
        <time>2011-07-03T11:49:56Z</time>
      </trkpt>
      <trkpt lat="47.29059" lon="-1.08589">
        <ele>54.9</ele>
        <time>2011-07-03T11:49:59Z</time>
      </trkpt>
      <trkpt lat="47.29058" lon="-1.08589">
        <ele>55</ele>
        <time>2011-07-03T11:50:00Z</time>
      </trkpt>
      <trkpt lat="47.29049" lon="-1.08588">
        <ele>57.6</ele>
        <time>2011-07-03T11:50:08Z</time>
      </trkpt>
      <trkpt lat="47.29048" lon="-1.08589">
        <ele>57.8</ele>
        <time>2011-07-03T11:50:09Z</time>
      </trkpt>
      <trkpt lat="47.29043" lon="-1.0859">
        <ele>59.4</ele>
        <time>2011-07-03T11:50:14Z</time>
      </trkpt>
      <trkpt lat="47.2904" lon="-1.08591">
        <ele>60.2</ele>
        <time>2011-07-03T11:50:16Z</time>
      </trkpt>
      <trkpt lat="47.29039" lon="-1.08591">
        <ele>60.2</ele>
        <time>2011-07-03T11:50:17Z</time>
      </trkpt>
      <trkpt lat="47.29039" lon="-1.08592">
        <ele>60.2</ele>
        <time>2011-07-03T11:50:18Z</time>
      </trkpt>
      <trkpt lat="47.29037" lon="-1.08592">
        <ele>60.2</ele>
        <time>2011-07-03T11:50:19Z</time>
      </trkpt>
      <trkpt lat="47.29036" lon="-1.08593">
        <ele>60.4</ele>
        <time>2011-07-03T11:50:20Z</time>
      </trkpt>
      <trkpt lat="47.29035" lon="-1.08593">
        <ele>60.5</ele>
        <time>2011-07-03T11:50:21Z</time>
      </trkpt>
      <trkpt lat="47.29034" lon="-1.08594">
        <ele>60.7</ele>
        <time>2011-07-03T11:50:22Z</time>
      </trkpt>
      <trkpt lat="47.29033" lon="-1.08595">
        <ele>60.6</ele>
        <time>2011-07-03T11:50:23Z</time>
      </trkpt>
      <trkpt lat="47.2903" lon="-1.08596">
        <ele>60.7</ele>
        <time>2011-07-03T11:50:26Z</time>
      </trkpt>
      <trkpt lat="47.29028" lon="-1.08596">
        <ele>61</ele>
        <time>2011-07-03T11:50:28Z</time>
      </trkpt>
      <trkpt lat="47.29019" lon="-1.08601">
        <ele>63</ele>
        <time>2011-07-03T11:50:37Z</time>
      </trkpt>
      <trkpt lat="47.29013" lon="-1.08603">
        <ele>63.9</ele>
        <time>2011-07-03T11:50:43Z</time>
      </trkpt>
      <trkpt lat="47.29013" lon="-1.08604">
        <ele>64.1</ele>
        <time>2011-07-03T11:50:44Z</time>
      </trkpt>
      <trkpt lat="47.29012" lon="-1.08605">
        <ele>64.2</ele>
        <time>2011-07-03T11:50:45Z</time>
      </trkpt>
      <trkpt lat="47.29011" lon="-1.08606">
        <ele>64.2</ele>
        <time>2011-07-03T11:50:46Z</time>
      </trkpt>
      <trkpt lat="47.29011" lon="-1.08606">
        <ele>64.2</ele>
        <time>2011-07-03T11:50:47Z</time>
      </trkpt>
      <trkpt lat="47.2901" lon="-1.08606">
        <ele>64.2</ele>
        <time>2011-07-03T11:50:48Z</time>
      </trkpt>
      <trkpt lat="47.29007" lon="-1.08603">
        <ele>65.2</ele>
        <time>2011-07-03T11:50:51Z</time>
      </trkpt>
      <trkpt lat="47.29006" lon="-1.08603">
        <ele>65.5</ele>
        <time>2011-07-03T11:50:52Z</time>
      </trkpt>
      <trkpt lat="47.29005" lon="-1.08603">
        <ele>65.8</ele>
        <time>2011-07-03T11:50:53Z</time>
      </trkpt>
      <trkpt lat="47.29004" lon="-1.08604">
        <ele>66</ele>
        <time>2011-07-03T11:50:54Z</time>
      </trkpt>
      <trkpt lat="47.29003" lon="-1.08604">
        <ele>66.4</ele>
        <time>2011-07-03T11:50:55Z</time>
      </trkpt>
      <trkpt lat="47.29002" lon="-1.08605">
        <ele>66.7</ele>
        <time>2011-07-03T11:50:56Z</time>
      </trkpt>
      <trkpt lat="47.29001" lon="-1.08604">
        <ele>66.9</ele>
        <time>2011-07-03T11:50:57Z</time>
      </trkpt>
      <trkpt lat="47.28994" lon="-1.08603">
        <ele>68.3</ele>
        <time>2011-07-03T11:51:03Z</time>
      </trkpt>
      <trkpt lat="47.2899" lon="-1.08601">
        <ele>69.1</ele>
        <time>2011-07-03T11:51:07Z</time>
      </trkpt>
      <trkpt lat="47.28986" lon="-1.08599">
        <ele>70.2</ele>
        <time>2011-07-03T11:51:11Z</time>
      </trkpt>
      <trkpt lat="47.28985" lon="-1.08599">
        <ele>70.4</ele>
        <time>2011-07-03T11:51:12Z</time>
      </trkpt>
      <trkpt lat="47.28979" lon="-1.08597">
        <ele>71.2</ele>
        <time>2011-07-03T11:51:17Z</time>
      </trkpt>
      <trkpt lat="47.28978" lon="-1.08596">
        <ele>71.4</ele>
        <time>2011-07-03T11:51:18Z</time>
      </trkpt>
      <trkpt lat="47.28974" lon="-1.08595">
        <ele>71.8</ele>
        <time>2011-07-03T11:51:22Z</time>
      </trkpt>
      <trkpt lat="47.28973" lon="-1.08595">
        <ele>71.9</ele>
        <time>2011-07-03T11:51:23Z</time>
      </trkpt>
      <trkpt lat="47.2897" lon="-1.08595">
        <ele>72.5</ele>
        <time>2011-07-03T11:51:25Z</time>
      </trkpt>
      <trkpt lat="47.28966" lon="-1.08595">
        <ele>72.9</ele>
        <time>2011-07-03T11:51:29Z</time>
      </trkpt>
      <trkpt lat="47.28964" lon="-1.08596">
        <ele>73.2</ele>
        <time>2011-07-03T11:51:30Z</time>
      </trkpt>
      <trkpt lat="47.28963" lon="-1.08596">
        <ele>73.4</ele>
        <time>2011-07-03T11:51:31Z</time>
      </trkpt>
      <trkpt lat="47.28961" lon="-1.08598">
        <ele>73.8</ele>
        <time>2011-07-03T11:51:33Z</time>
      </trkpt>
      <trkpt lat="47.28957" lon="-1.086">
        <ele>74.6</ele>
        <time>2011-07-03T11:51:36Z</time>
      </trkpt>
      <trkpt lat="47.28955" lon="-1.086">
        <ele>74.9</ele>
        <time>2011-07-03T11:51:37Z</time>
      </trkpt>
      <trkpt lat="47.28954" lon="-1.086">
        <ele>75.2</ele>
        <time>2011-07-03T11:51:38Z</time>
      </trkpt>
      <trkpt lat="47.28953" lon="-1.08599">
        <ele>75.4</ele>
        <time>2011-07-03T11:51:39Z</time>
      </trkpt>
      <trkpt lat="47.28951" lon="-1.08598">
        <ele>75.3</ele>
        <time>2011-07-03T11:51:40Z</time>
      </trkpt>
      <trkpt lat="47.2895" lon="-1.08597">
        <ele>75.2</ele>
        <time>2011-07-03T11:51:41Z</time>
      </trkpt>
      <trkpt lat="47.28945" lon="-1.08594">
        <ele>75</ele>
        <time>2011-07-03T11:51:45Z</time>
      </trkpt>
      <trkpt lat="47.28944" lon="-1.08593">
        <ele>75.4</ele>
        <time>2011-07-03T11:51:46Z</time>
      </trkpt>
      <trkpt lat="47.28934" lon="-1.08589">
        <ele>76</ele>
        <time>2011-07-03T11:51:52Z</time>
      </trkpt>
      <trkpt lat="47.28926" lon="-1.08588">
        <ele>76.3</ele>
        <time>2011-07-03T11:51:57Z</time>
      </trkpt>
      <trkpt lat="47.28864" lon="-1.08585">
        <ele>79.7</ele>
        <time>2011-07-03T11:52:27Z</time>
      </trkpt>
      <trkpt lat="47.28743" lon="-1.08582">
        <ele>81.6</ele>
        <time>2011-07-03T11:53:12Z</time>
      </trkpt>
      <trkpt lat="47.28702" lon="-1.08588">
        <ele>81.1</ele>
        <time>2011-07-03T11:53:24Z</time>
      </trkpt>
      <trkpt lat="47.28699" lon="-1.08587">
        <ele>80.8</ele>
        <time>2011-07-03T11:53:25Z</time>
      </trkpt>
      <trkpt lat="47.28696" lon="-1.08586">
        <ele>80.6</ele>
        <time>2011-07-03T11:53:26Z</time>
      </trkpt>
      <trkpt lat="47.28693" lon="-1.08584">
        <ele>80.4</ele>
        <time>2011-07-03T11:53:27Z</time>
      </trkpt>
      <trkpt lat="47.2869" lon="-1.08581">
        <ele>80.2</ele>
        <time>2011-07-03T11:53:28Z</time>
      </trkpt>
      <trkpt lat="47.28665" lon="-1.08552">
        <ele>80.3</ele>
        <time>2011-07-03T11:53:39Z</time>
      </trkpt>
      <trkpt lat="47.28649" lon="-1.08538">
        <ele>79.3</ele>
        <time>2011-07-03T11:53:46Z</time>
      </trkpt>
      <trkpt lat="47.28555" lon="-1.08474">
        <ele>82.6</ele>
        <time>2011-07-03T11:54:22Z</time>
      </trkpt>
      <trkpt lat="47.2854" lon="-1.08458">
        <ele>83.1</ele>
        <time>2011-07-03T11:54:31Z</time>
      </trkpt>
      <trkpt lat="47.28538" lon="-1.08457">
        <ele>83</ele>
        <time>2011-07-03T11:54:32Z</time>
      </trkpt>
      <trkpt lat="47.28521" lon="-1.08447">
        <ele>82.4</ele>
        <time>2011-07-03T11:54:41Z</time>
      </trkpt>
      <trkpt lat="47.28501" lon="-1.08432">
        <ele>82.1</ele>
        <time>2011-07-03T11:54:48Z</time>
      </trkpt>
      <trkpt lat="47.28497" lon="-1.08431">
        <ele>82.2</ele>
        <time>2011-07-03T11:54:49Z</time>
      </trkpt>
      <trkpt lat="47.28493" lon="-1.08432">
        <ele>82.2</ele>
        <time>2011-07-03T11:54:50Z</time>
      </trkpt>
      <trkpt lat="47.28484" lon="-1.08438">
        <ele>81.7</ele>
        <time>2011-07-03T11:54:52Z</time>
      </trkpt>
      <trkpt lat="47.28479" lon="-1.08442">
        <ele>81.6</ele>
        <time>2011-07-03T11:54:53Z</time>
      </trkpt>
      <trkpt lat="47.28475" lon="-1.08448">
        <ele>81.1</ele>
        <time>2011-07-03T11:54:54Z</time>
      </trkpt>
      <trkpt lat="47.28468" lon="-1.08461">
        <ele>80.5</ele>
        <time>2011-07-03T11:54:56Z</time>
      </trkpt>
      <trkpt lat="47.28463" lon="-1.08466">
        <ele>80.5</ele>
        <time>2011-07-03T11:54:57Z</time>
      </trkpt>
      <trkpt lat="47.28459" lon="-1.0847">
        <ele>80.4</ele>
        <time>2011-07-03T11:54:58Z</time>
      </trkpt>
      <trkpt lat="47.28454" lon="-1.08473">
        <ele>80.4</ele>
        <time>2011-07-03T11:54:59Z</time>
      </trkpt>
      <trkpt lat="47.28445" lon="-1.08476">
        <ele>80</ele>
        <time>2011-07-03T11:55:01Z</time>
      </trkpt>
      <trkpt lat="47.28441" lon="-1.08479">
        <ele>79.7</ele>
        <time>2011-07-03T11:55:02Z</time>
      </trkpt>
      <trkpt lat="47.28439" lon="-1.08482">
        <ele>79.5</ele>
        <time>2011-07-03T11:55:03Z</time>
      </trkpt>
      <trkpt lat="47.28437" lon="-1.08486">
        <ele>79.1</ele>
        <time>2011-07-03T11:55:04Z</time>
      </trkpt>
      <trkpt lat="47.28431" lon="-1.08517">
        <ele>79.7</ele>
        <time>2011-07-03T11:55:11Z</time>
      </trkpt>
      <trkpt lat="47.28427" lon="-1.08532">
        <ele>79.9</ele>
        <time>2011-07-03T11:55:15Z</time>
      </trkpt>
      <trkpt lat="47.28426" lon="-1.08535">
        <ele>79.9</ele>
        <time>2011-07-03T11:55:16Z</time>
      </trkpt>
      <trkpt lat="47.28422" lon="-1.08542">
        <ele>80.4</ele>
        <time>2011-07-03T11:55:18Z</time>
      </trkpt>
      <trkpt lat="47.28419" lon="-1.08545">
        <ele>80.5</ele>
        <time>2011-07-03T11:55:19Z</time>
      </trkpt>
      <trkpt lat="47.28411" lon="-1.08554">
        <ele>81.2</ele>
        <time>2011-07-03T11:55:23Z</time>
      </trkpt>
      <trkpt lat="47.28397" lon="-1.08568">
        <ele>83.4</ele>
        <time>2011-07-03T11:55:30Z</time>
      </trkpt>
      <trkpt lat="47.28388" lon="-1.08578">
        <ele>84.2</ele>
        <time>2011-07-03T11:55:34Z</time>
      </trkpt>
      <trkpt lat="47.28384" lon="-1.08585">
        <ele>84.5</ele>
        <time>2011-07-03T11:55:36Z</time>
      </trkpt>
      <trkpt lat="47.28379" lon="-1.08591">
        <ele>84.6</ele>
        <time>2011-07-03T11:55:38Z</time>
      </trkpt>
      <trkpt lat="47.28335" lon="-1.08631">
        <ele>86.8</ele>
        <time>2011-07-03T11:55:53Z</time>
      </trkpt>
      <trkpt lat="47.28333" lon="-1.08635">
        <ele>87</ele>
        <time>2011-07-03T11:55:54Z</time>
      </trkpt>
      <trkpt lat="47.28308" lon="-1.08663">
        <ele>87.4</ele>
        <time>2011-07-03T11:56:04Z</time>
      </trkpt>
      <trkpt lat="47.28227" lon="-1.08745">
        <ele>90.8</ele>
        <time>2011-07-03T11:56:33Z</time>
      </trkpt>
      <trkpt lat="47.28224" lon="-1.08749">
        <ele>90.9</ele>
        <time>2011-07-03T11:56:34Z</time>
      </trkpt>
      <trkpt lat="47.28216" lon="-1.08761">
        <ele>91.1</ele>
        <time>2011-07-03T11:56:37Z</time>
      </trkpt>
      <trkpt lat="47.28213" lon="-1.08764">
        <ele>91.2</ele>
        <time>2011-07-03T11:56:38Z</time>
      </trkpt>
      <trkpt lat="47.28196" lon="-1.08779">
        <ele>91.1</ele>
        <time>2011-07-03T11:56:44Z</time>
      </trkpt>
      <trkpt lat="47.28193" lon="-1.08781">
        <ele>91.1</ele>
        <time>2011-07-03T11:56:45Z</time>
      </trkpt>
      <trkpt lat="47.28162" lon="-1.08799">
        <ele>90.1</ele>
        <time>2011-07-03T11:56:57Z</time>
      </trkpt>
      <trkpt lat="47.28137" lon="-1.0881">
        <ele>90.6</ele>
        <time>2011-07-03T11:57:05Z</time>
      </trkpt>
      <trkpt lat="47.28128" lon="-1.08811">
        <ele>90.3</ele>
        <time>2011-07-03T11:57:08Z</time>
      </trkpt>
      <trkpt lat="47.28122" lon="-1.08811">
        <ele>90.1</ele>
        <time>2011-07-03T11:57:10Z</time>
      </trkpt>
      <trkpt lat="47.28119" lon="-1.0881">
        <ele>90</ele>
        <time>2011-07-03T11:57:11Z</time>
      </trkpt>
      <trkpt lat="47.28117" lon="-1.08808">
        <ele>90</ele>
        <time>2011-07-03T11:57:12Z</time>
      </trkpt>
      <trkpt lat="47.28115" lon="-1.08805">
        <ele>90</ele>
        <time>2011-07-03T11:57:13Z</time>
      </trkpt>
      <trkpt lat="47.28111" lon="-1.08795">
        <ele>90.8</ele>
        <time>2011-07-03T11:57:16Z</time>
      </trkpt>
      <trkpt lat="47.28109" lon="-1.08792">
        <ele>91.1</ele>
        <time>2011-07-03T11:57:17Z</time>
      </trkpt>
      <trkpt lat="47.28092" lon="-1.08735">
        <ele>92.8</ele>
        <time>2011-07-03T11:57:30Z</time>
      </trkpt>
      <trkpt lat="47.2809" lon="-1.08727">
        <ele>92.6</ele>
        <time>2011-07-03T11:57:32Z</time>
      </trkpt>
      <trkpt lat="47.28088" lon="-1.08715">
        <ele>92.2</ele>
        <time>2011-07-03T11:57:35Z</time>
      </trkpt>
      <trkpt lat="47.28086" lon="-1.08703">
        <ele>92.1</ele>
        <time>2011-07-03T11:57:38Z</time>
      </trkpt>
      <trkpt lat="47.28081" lon="-1.08629">
        <ele>94.9</ele>
        <time>2011-07-03T11:57:55Z</time>
      </trkpt>
      <trkpt lat="47.28077" lon="-1.08591">
        <ele>94.3</ele>
        <time>2011-07-03T11:58:03Z</time>
      </trkpt>
      <trkpt lat="47.28076" lon="-1.08587">
        <ele>94.1</ele>
        <time>2011-07-03T11:58:04Z</time>
      </trkpt>
      <trkpt lat="47.28049" lon="-1.08359">
        <ele>93.5</ele>
        <time>2011-07-03T11:58:40Z</time>
      </trkpt>
      <trkpt lat="47.28047" lon="-1.08352">
        <ele>93</ele>
        <time>2011-07-03T11:58:41Z</time>
      </trkpt>
      <trkpt lat="47.28032" lon="-1.08311">
        <ele>91.4</ele>
        <time>2011-07-03T11:58:47Z</time>
      </trkpt>
      <trkpt lat="47.28" lon="-1.08234">
        <ele>91.3</ele>
        <time>2011-07-03T11:59:00Z</time>
      </trkpt>
      <trkpt lat="47.27951" lon="-1.08055">
        <ele>95.1</ele>
        <time>2011-07-03T11:59:43Z</time>
      </trkpt>
      <trkpt lat="47.27951" lon="-1.08052">
        <ele>95.2</ele>
        <time>2011-07-03T11:59:44Z</time>
      </trkpt>
      <trkpt lat="47.27952" lon="-1.08049">
        <ele>95.5</ele>
        <time>2011-07-03T11:59:45Z</time>
      </trkpt>
      <trkpt lat="47.27953" lon="-1.08046">
        <ele>95.7</ele>
        <time>2011-07-03T11:59:46Z</time>
      </trkpt>
      <trkpt lat="47.27955" lon="-1.08045">
        <ele>95.8</ele>
        <time>2011-07-03T11:59:47Z</time>
      </trkpt>
      <trkpt lat="47.27967" lon="-1.08041">
        <ele>96.2</ele>
        <time>2011-07-03T11:59:52Z</time>
      </trkpt>
      <trkpt lat="47.28074" lon="-1.08028">
        <ele>95</ele>
        <time>2011-07-03T12:00:19Z</time>
      </trkpt>
      <trkpt lat="47.28078" lon="-1.08026">
        <ele>94.9</ele>
        <time>2011-07-03T12:00:20Z</time>
      </trkpt>
      <trkpt lat="47.28147" lon="-1.07997">
        <ele>92.9</ele>
        <time>2011-07-03T12:00:35Z</time>
      </trkpt>
      <trkpt lat="47.2815" lon="-1.07995">
        <ele>92.8</ele>
        <time>2011-07-03T12:00:36Z</time>
      </trkpt>
      <trkpt lat="47.28152" lon="-1.07992">
        <ele>92.8</ele>
        <time>2011-07-03T12:00:37Z</time>
      </trkpt>
      <trkpt lat="47.28154" lon="-1.07988">
        <ele>92.7</ele>
        <time>2011-07-03T12:00:38Z</time>
      </trkpt>
      <trkpt lat="47.28154" lon="-1.07984">
        <ele>92.5</ele>
        <time>2011-07-03T12:00:39Z</time>
      </trkpt>
      <trkpt lat="47.28153" lon="-1.07977">
        <ele>92.2</ele>
        <time>2011-07-03T12:00:41Z</time>
      </trkpt>
      <trkpt lat="47.28152" lon="-1.07973">
        <ele>92.1</ele>
        <time>2011-07-03T12:00:42Z</time>
      </trkpt>
      <trkpt lat="47.28149" lon="-1.07962">
        <ele>92</ele>
        <time>2011-07-03T12:00:45Z</time>
      </trkpt>
      <trkpt lat="47.28148" lon="-1.07959">
        <ele>92.1</ele>
        <time>2011-07-03T12:00:46Z</time>
      </trkpt>
      <trkpt lat="47.2812" lon="-1.07873">
        <ele>94.6</ele>
        <time>2011-07-03T12:01:08Z</time>
      </trkpt>
      <trkpt lat="47.28118" lon="-1.07863">
        <ele>94.3</ele>
        <time>2011-07-03T12:01:10Z</time>
      </trkpt>
      <trkpt lat="47.28115" lon="-1.07847">
        <ele>94.3</ele>
        <time>2011-07-03T12:01:13Z</time>
      </trkpt>
      <trkpt lat="47.28088" lon="-1.07626">
        <ele>92.3</ele>
        <time>2011-07-03T12:01:45Z</time>
      </trkpt>
      <trkpt lat="47.28087" lon="-1.07618">
        <ele>92.3</ele>
        <time>2011-07-03T12:01:46Z</time>
      </trkpt>
      <trkpt lat="47.2806" lon="-1.07509">
        <ele>90.9</ele>
        <time>2011-07-03T12:02:00Z</time>
      </trkpt>
      <trkpt lat="47.28011" lon="-1.0739">
        <ele>90.4</ele>
        <time>2011-07-03T12:02:17Z</time>
      </trkpt>
      <trkpt lat="47.27987" lon="-1.0735">
        <ele>89.5</ele>
        <time>2011-07-03T12:02:23Z</time>
      </trkpt>
      <trkpt lat="47.2789" lon="-1.07209">
        <ele>86.1</ele>
        <time>2011-07-03T12:02:51Z</time>
      </trkpt>
      <trkpt lat="47.27777" lon="-1.06993">
        <ele>80.3</ele>
        <time>2011-07-03T12:03:21Z</time>
      </trkpt>
      <trkpt lat="47.27774" lon="-1.06985">
        <ele>79.5</ele>
        <time>2011-07-03T12:03:22Z</time>
      </trkpt>
      <trkpt lat="47.27771" lon="-1.06977">
        <ele>78.9</ele>
        <time>2011-07-03T12:03:23Z</time>
      </trkpt>
      <trkpt lat="47.2777" lon="-1.06969">
        <ele>78.5</ele>
        <time>2011-07-03T12:03:24Z</time>
      </trkpt>
      <trkpt lat="47.27767" lon="-1.06934">
        <ele>78</ele>
        <time>2011-07-03T12:03:28Z</time>
      </trkpt>
      <trkpt lat="47.27764" lon="-1.06927">
        <ele>78</ele>
        <time>2011-07-03T12:03:29Z</time>
      </trkpt>
      <trkpt lat="47.2776" lon="-1.06919">
        <ele>78</ele>
        <time>2011-07-03T12:03:30Z</time>
      </trkpt>
      <trkpt lat="47.27746" lon="-1.06896">
        <ele>76.8</ele>
        <time>2011-07-03T12:03:33Z</time>
      </trkpt>
      <trkpt lat="47.2774" lon="-1.06891">
        <ele>76.5</ele>
        <time>2011-07-03T12:03:34Z</time>
      </trkpt>
      <trkpt lat="47.27689" lon="-1.06858">
        <ele>71.3</ele>
        <time>2011-07-03T12:03:41Z</time>
      </trkpt>
      <trkpt lat="47.27685" lon="-1.06857">
        <ele>70.2</ele>
        <time>2011-07-03T12:03:42Z</time>
      </trkpt>
      <trkpt lat="47.27681" lon="-1.06858">
        <ele>69.3</ele>
        <time>2011-07-03T12:03:43Z</time>
      </trkpt>
      <trkpt lat="47.27668" lon="-1.06868">
        <ele>65.6</ele>
        <time>2011-07-03T12:03:46Z</time>
      </trkpt>
      <trkpt lat="47.27662" lon="-1.06871">
        <ele>64.3</ele>
        <time>2011-07-03T12:03:47Z</time>
      </trkpt>
      <trkpt lat="47.27656" lon="-1.06873">
        <ele>63.4</ele>
        <time>2011-07-03T12:03:48Z</time>
      </trkpt>
      <trkpt lat="47.27651" lon="-1.06872">
        <ele>62.7</ele>
        <time>2011-07-03T12:03:49Z</time>
      </trkpt>
      <trkpt lat="47.27634" lon="-1.06869">
        <ele>61.7</ele>
        <time>2011-07-03T12:03:52Z</time>
      </trkpt>
      <trkpt lat="47.27629" lon="-1.0687">
        <ele>61.5</ele>
        <time>2011-07-03T12:03:53Z</time>
      </trkpt>
      <trkpt lat="47.27626" lon="-1.06874">
        <ele>61.3</ele>
        <time>2011-07-03T12:03:54Z</time>
      </trkpt>
      <trkpt lat="47.27623" lon="-1.06878">
        <ele>61.2</ele>
        <time>2011-07-03T12:03:55Z</time>
      </trkpt>
      <trkpt lat="47.27623" lon="-1.06882">
        <ele>60.6</ele>
        <time>2011-07-03T12:03:56Z</time>
      </trkpt>
      <trkpt lat="47.27623" lon="-1.06888">
        <ele>59.7</ele>
        <time>2011-07-03T12:03:58Z</time>
      </trkpt>
      <trkpt lat="47.27623" lon="-1.0689">
        <ele>59.5</ele>
        <time>2011-07-03T12:03:59Z</time>
      </trkpt>
      <trkpt lat="47.27622" lon="-1.06893">
        <ele>59.9</ele>
        <time>2011-07-03T12:04:00Z</time>
      </trkpt>
      <trkpt lat="47.27621" lon="-1.06895">
        <ele>60.2</ele>
        <time>2011-07-03T12:04:01Z</time>
      </trkpt>
      <trkpt lat="47.2762" lon="-1.06897">
        <ele>60.5</ele>
        <time>2011-07-03T12:04:02Z</time>
      </trkpt>
      <trkpt lat="47.27619" lon="-1.06898">
        <ele>60.5</ele>
        <time>2011-07-03T12:04:03Z</time>
      </trkpt>
      <trkpt lat="47.27552" lon="-1.0696">
        <ele>65.8</ele>
        <time>2011-07-03T12:04:33Z</time>
      </trkpt>
      <trkpt lat="47.27538" lon="-1.06976">
        <ele>65.9</ele>
        <time>2011-07-03T12:04:37Z</time>
      </trkpt>
      <trkpt lat="47.27478" lon="-1.07064">
        <ele>66.9</ele>
        <time>2011-07-03T12:04:55Z</time>
      </trkpt>
      <trkpt lat="47.27449" lon="-1.07095">
        <ele>66.6</ele>
        <time>2011-07-03T12:05:03Z</time>
      </trkpt>
      <trkpt lat="47.27446" lon="-1.07099">
        <ele>66.4</ele>
        <time>2011-07-03T12:05:04Z</time>
      </trkpt>
      <trkpt lat="47.27428" lon="-1.07126">
        <ele>66.5</ele>
        <time>2011-07-03T12:05:10Z</time>
      </trkpt>
      <trkpt lat="47.27426" lon="-1.07127">
        <ele>66.7</ele>
        <time>2011-07-03T12:05:11Z</time>
      </trkpt>
      <trkpt lat="47.27424" lon="-1.07126">
        <ele>66.8</ele>
        <time>2011-07-03T12:05:12Z</time>
      </trkpt>
      <trkpt lat="47.27424" lon="-1.07122">
        <ele>66.7</ele>
        <time>2011-07-03T12:05:13Z</time>
      </trkpt>
      <trkpt lat="47.27424" lon="-1.07117">
        <ele>66.6</ele>
        <time>2011-07-03T12:05:14Z</time>
      </trkpt>
      <trkpt lat="47.27426" lon="-1.07112">
        <ele>66.6</ele>
        <time>2011-07-03T12:05:15Z</time>
      </trkpt>
      <trkpt lat="47.27436" lon="-1.07094">
        <ele>66.4</ele>
        <time>2011-07-03T12:05:19Z</time>
      </trkpt>
      <trkpt lat="47.2744" lon="-1.07089">
        <ele>66.1</ele>
        <time>2011-07-03T12:05:20Z</time>
      </trkpt>
      <trkpt lat="47.27444" lon="-1.07084">
        <ele>65.9</ele>
        <time>2011-07-03T12:05:21Z</time>
      </trkpt>
      <trkpt lat="47.27462" lon="-1.0707">
        <ele>65.6</ele>
        <time>2011-07-03T12:05:25Z</time>
      </trkpt>
      <trkpt lat="47.27547" lon="-1.06957">
        <ele>64.2</ele>
        <time>2011-07-03T12:05:49Z</time>
      </trkpt>
      <trkpt lat="47.27609" lon="-1.06899">
        <ele>62.8</ele>
        <time>2011-07-03T12:06:05Z</time>
      </trkpt>
      <trkpt lat="47.27612" lon="-1.06895">
        <ele>63.1</ele>
        <time>2011-07-03T12:06:06Z</time>
      </trkpt>
      <trkpt lat="47.27614" lon="-1.0689">
        <ele>63.3</ele>
        <time>2011-07-03T12:06:07Z</time>
      </trkpt>
      <trkpt lat="47.27616" lon="-1.06885">
        <ele>62.6</ele>
        <time>2011-07-03T12:06:08Z</time>
      </trkpt>
      <trkpt lat="47.27616" lon="-1.0688">
        <ele>62.1</ele>
        <time>2011-07-03T12:06:09Z</time>
      </trkpt>
      <trkpt lat="47.27614" lon="-1.06876">
        <ele>61.8</ele>
        <time>2011-07-03T12:06:10Z</time>
      </trkpt>
      <trkpt lat="47.27612" lon="-1.06874">
        <ele>61.5</ele>
        <time>2011-07-03T12:06:11Z</time>
      </trkpt>
      <trkpt lat="47.27609" lon="-1.06872">
        <ele>61.3</ele>
        <time>2011-07-03T12:06:12Z</time>
      </trkpt>
      <trkpt lat="47.27606" lon="-1.06871">
        <ele>61.2</ele>
        <time>2011-07-03T12:06:13Z</time>
      </trkpt>
      <trkpt lat="47.27599" lon="-1.06865">
        <ele>59.8</ele>
        <time>2011-07-03T12:06:16Z</time>
      </trkpt>
      <trkpt lat="47.27597" lon="-1.06862">
        <ele>59.5</ele>
        <time>2011-07-03T12:06:17Z</time>
      </trkpt>
      <trkpt lat="47.27595" lon="-1.06859">
        <ele>59.3</ele>
        <time>2011-07-03T12:06:18Z</time>
      </trkpt>
      <trkpt lat="47.27592" lon="-1.06853">
        <ele>59</ele>
        <time>2011-07-03T12:06:20Z</time>
      </trkpt>
      <trkpt lat="47.27591" lon="-1.06851">
        <ele>58.9</ele>
        <time>2011-07-03T12:06:21Z</time>
      </trkpt>
      <trkpt lat="47.27591" lon="-1.06848">
        <ele>58.8</ele>
        <time>2011-07-03T12:06:22Z</time>
      </trkpt>
      <trkpt lat="47.27589" lon="-1.06844">
        <ele>59</ele>
        <time>2011-07-03T12:06:24Z</time>
      </trkpt>
      <trkpt lat="47.27568" lon="-1.06817">
        <ele>61</ele>
        <time>2011-07-03T12:06:38Z</time>
      </trkpt>
      <trkpt lat="47.27564" lon="-1.06812">
        <ele>61.7</ele>
        <time>2011-07-03T12:06:41Z</time>
      </trkpt>
      <trkpt lat="47.27562" lon="-1.0681">
        <ele>62.2</ele>
        <time>2011-07-03T12:06:43Z</time>
      </trkpt>
      <trkpt lat="47.27546" lon="-1.06796">
        <ele>66.1</ele>
        <time>2011-07-03T12:06:56Z</time>
      </trkpt>
      <trkpt lat="47.27537" lon="-1.06788">
        <ele>67.5</ele>
        <time>2011-07-03T12:07:03Z</time>
      </trkpt>
      <trkpt lat="47.27528" lon="-1.06776">
        <ele>69.2</ele>
        <time>2011-07-03T12:07:12Z</time>
      </trkpt>
      <trkpt lat="47.27527" lon="-1.06775">
        <ele>69.2</ele>
        <time>2011-07-03T12:07:13Z</time>
      </trkpt>
      <trkpt lat="47.27514" lon="-1.06758">
        <ele>69.6</ele>
        <time>2011-07-03T12:07:26Z</time>
      </trkpt>
      <trkpt lat="47.27513" lon="-1.06756">
        <ele>69.5</ele>
        <time>2011-07-03T12:07:27Z</time>
      </trkpt>
      <trkpt lat="47.27513" lon="-1.06755">
        <ele>70.2</ele>
        <time>2011-07-03T12:07:28Z</time>
      </trkpt>
      <trkpt lat="47.27511" lon="-1.06753">
        <ele>70.6</ele>
        <time>2011-07-03T12:07:29Z</time>
      </trkpt>
      <trkpt lat="47.2751" lon="-1.06752">
        <ele>71</ele>
        <time>2011-07-03T12:07:30Z</time>
      </trkpt>
      <trkpt lat="47.27505" lon="-1.06745">
        <ele>72.4</ele>
        <time>2011-07-03T12:07:35Z</time>
      </trkpt>
      <trkpt lat="47.27505" lon="-1.06743">
        <ele>72.6</ele>
        <time>2011-07-03T12:07:36Z</time>
      </trkpt>
      <trkpt lat="47.27503" lon="-1.06742">
        <ele>73.4</ele>
        <time>2011-07-03T12:07:37Z</time>
      </trkpt>
      <trkpt lat="47.27502" lon="-1.06741">
        <ele>73.9</ele>
        <time>2011-07-03T12:07:38Z</time>
      </trkpt>
      <trkpt lat="47.27502" lon="-1.06739">
        <ele>74.4</ele>
        <time>2011-07-03T12:07:39Z</time>
      </trkpt>
      <trkpt lat="47.27496" lon="-1.06729">
        <ele>74.2</ele>
        <time>2011-07-03T12:07:45Z</time>
      </trkpt>
      <trkpt lat="47.27493" lon="-1.06725">
        <ele>74.1</ele>
        <time>2011-07-03T12:07:47Z</time>
      </trkpt>
      <trkpt lat="47.27484" lon="-1.0671">
        <ele>76</ele>
        <time>2011-07-03T12:07:56Z</time>
      </trkpt>
      <trkpt lat="47.27467" lon="-1.06681">
        <ele>79.2</ele>
        <time>2011-07-03T12:08:12Z</time>
      </trkpt>
      <trkpt lat="47.2745" lon="-1.06642">
        <ele>79.1</ele>
        <time>2011-07-03T12:08:24Z</time>
      </trkpt>
      <trkpt lat="47.27443" lon="-1.06624">
        <ele>78.9</ele>
        <time>2011-07-03T12:08:28Z</time>
      </trkpt>
      <trkpt lat="47.2744" lon="-1.06602">
        <ele>79.7</ele>
        <time>2011-07-03T12:08:32Z</time>
      </trkpt>
      <trkpt lat="47.27438" lon="-1.06596">
        <ele>80</ele>
        <time>2011-07-03T12:08:33Z</time>
      </trkpt>
      <trkpt lat="47.27434" lon="-1.06584">
        <ele>79.9</ele>
        <time>2011-07-03T12:08:35Z</time>
      </trkpt>
      <trkpt lat="47.27431" lon="-1.06578">
        <ele>79.6</ele>
        <time>2011-07-03T12:08:36Z</time>
      </trkpt>
      <trkpt lat="47.27408" lon="-1.06532">
        <ele>77.7</ele>
        <time>2011-07-03T12:08:43Z</time>
      </trkpt>
      <trkpt lat="47.27405" lon="-1.06526">
        <ele>77</ele>
        <time>2011-07-03T12:08:44Z</time>
      </trkpt>
      <trkpt lat="47.27403" lon="-1.06519">
        <ele>76.5</ele>
        <time>2011-07-03T12:08:45Z</time>
      </trkpt>
      <trkpt lat="47.27402" lon="-1.06513">
        <ele>76.1</ele>
        <time>2011-07-03T12:08:46Z</time>
      </trkpt>
      <trkpt lat="47.274" lon="-1.06502">
        <ele>77</ele>
        <time>2011-07-03T12:08:48Z</time>
      </trkpt>
      <trkpt lat="47.27395" lon="-1.06464">
        <ele>76.7</ele>
        <time>2011-07-03T12:08:58Z</time>
      </trkpt>
      <trkpt lat="47.27395" lon="-1.06458">
        <ele>76.9</ele>
        <time>2011-07-03T12:09:00Z</time>
      </trkpt>
      <trkpt lat="47.27397" lon="-1.06429">
        <ele>80.2</ele>
        <time>2011-07-03T12:09:10Z</time>
      </trkpt>
      <trkpt lat="47.27399" lon="-1.06415">
        <ele>81.1</ele>
        <time>2011-07-03T12:09:14Z</time>
      </trkpt>
      <trkpt lat="47.27403" lon="-1.064">
        <ele>82.1</ele>
        <time>2011-07-03T12:09:18Z</time>
      </trkpt>
      <trkpt lat="47.27404" lon="-1.06396">
        <ele>81.7</ele>
        <time>2011-07-03T12:09:19Z</time>
      </trkpt>
      <trkpt lat="47.27405" lon="-1.06388">
        <ele>81.2</ele>
        <time>2011-07-03T12:09:21Z</time>
      </trkpt>
      <trkpt lat="47.27405" lon="-1.06355">
        <ele>83.1</ele>
        <time>2011-07-03T12:09:28Z</time>
      </trkpt>
      <trkpt lat="47.27405" lon="-1.06349">
        <ele>83</ele>
        <time>2011-07-03T12:09:29Z</time>
      </trkpt>
      <trkpt lat="47.27402" lon="-1.06334">
        <ele>82.8</ele>
        <time>2011-07-03T12:09:32Z</time>
      </trkpt>
      <trkpt lat="47.27401" lon="-1.06329">
        <ele>82.6</ele>
        <time>2011-07-03T12:09:33Z</time>
      </trkpt>
      <trkpt lat="47.2737" lon="-1.06247">
        <ele>81.6</ele>
        <time>2011-07-03T12:09:46Z</time>
      </trkpt>
      <trkpt lat="47.27363" lon="-1.06232">
        <ele>81.1</ele>
        <time>2011-07-03T12:09:48Z</time>
      </trkpt>
      <trkpt lat="47.27355" lon="-1.06217">
        <ele>80.7</ele>
        <time>2011-07-03T12:09:50Z</time>
      </trkpt>
      <trkpt lat="47.27346" lon="-1.06203">
        <ele>80.3</ele>
        <time>2011-07-03T12:09:52Z</time>
      </trkpt>
      <trkpt lat="47.27341" lon="-1.06197">
        <ele>80.1</ele>
        <time>2011-07-03T12:09:53Z</time>
      </trkpt>
      <trkpt lat="47.27264" lon="-1.06117">
        <ele>75</ele>
        <time>2011-07-03T12:10:07Z</time>
      </trkpt>
      <trkpt lat="47.2726" lon="-1.0611">
        <ele>74.5</ele>
        <time>2011-07-03T12:10:08Z</time>
      </trkpt>
      <trkpt lat="47.27256" lon="-1.06102">
        <ele>74.1</ele>
        <time>2011-07-03T12:10:09Z</time>
      </trkpt>
      <trkpt lat="47.27249" lon="-1.06087">
        <ele>73.5</ele>
        <time>2011-07-03T12:10:11Z</time>
      </trkpt>
      <trkpt lat="47.27235" lon="-1.0604">
        <ele>71.2</ele>
        <time>2011-07-03T12:10:17Z</time>
      </trkpt>
      <trkpt lat="47.27194" lon="-1.05956">
        <ele>69.6</ele>
        <time>2011-07-03T12:10:28Z</time>
      </trkpt>
      <trkpt lat="47.2719" lon="-1.05949">
        <ele>69.2</ele>
        <time>2011-07-03T12:10:29Z</time>
      </trkpt>
      <trkpt lat="47.2718" lon="-1.05936">
        <ele>68.8</ele>
        <time>2011-07-03T12:10:31Z</time>
      </trkpt>
      <trkpt lat="47.27142" lon="-1.05897">
        <ele>68.9</ele>
        <time>2011-07-03T12:10:39Z</time>
      </trkpt>
      <trkpt lat="47.27074" lon="-1.05841">
        <ele>73.2</ele>
        <time>2011-07-03T12:11:08Z</time>
      </trkpt>
      <trkpt lat="47.2707" lon="-1.05836">
        <ele>74.4</ele>
        <time>2011-07-03T12:11:11Z</time>
      </trkpt>
      <trkpt lat="47.27062" lon="-1.05831">
        <ele>75.3</ele>
        <time>2011-07-03T12:11:15Z</time>
      </trkpt>
      <trkpt lat="47.27047" lon="-1.05818">
        <ele>76.5</ele>
        <time>2011-07-03T12:11:22Z</time>
      </trkpt>
      <trkpt lat="47.27032" lon="-1.05799">
        <ele>77.4</ele>
        <time>2011-07-03T12:11:30Z</time>
      </trkpt>
      <trkpt lat="47.27019" lon="-1.05781">
        <ele>77.5</ele>
        <time>2011-07-03T12:11:37Z</time>
      </trkpt>
      <trkpt lat="47.27014" lon="-1.05772">
        <ele>78</ele>
        <time>2011-07-03T12:11:41Z</time>
      </trkpt>
      <trkpt lat="47.27012" lon="-1.05769">
        <ele>78.1</ele>
        <time>2011-07-03T12:11:43Z</time>
      </trkpt>
      <trkpt lat="47.27011" lon="-1.05768">
        <ele>78.1</ele>
        <time>2011-07-03T12:11:44Z</time>
      </trkpt>
      <trkpt lat="47.27003" lon="-1.05754">
        <ele>78</ele>
        <time>2011-07-03T12:11:50Z</time>
      </trkpt>
      <trkpt lat="47.27001" lon="-1.05751">
        <ele>78.1</ele>
        <time>2011-07-03T12:11:51Z</time>
      </trkpt>
      <trkpt lat="47.26996" lon="-1.05744">
        <ele>78.6</ele>
        <time>2011-07-03T12:11:53Z</time>
      </trkpt>
      <trkpt lat="47.26993" lon="-1.05742">
        <ele>78.7</ele>
        <time>2011-07-03T12:11:54Z</time>
      </trkpt>
      <trkpt lat="47.2699" lon="-1.05743">
        <ele>78.8</ele>
        <time>2011-07-03T12:11:55Z</time>
      </trkpt>
      <trkpt lat="47.26988" lon="-1.05745">
        <ele>78.3</ele>
        <time>2011-07-03T12:11:56Z</time>
      </trkpt>
      <trkpt lat="47.26986" lon="-1.05748">
        <ele>78</ele>
        <time>2011-07-03T12:11:57Z</time>
      </trkpt>
      <trkpt lat="47.2698" lon="-1.05772">
        <ele>78.7</ele>
        <time>2011-07-03T12:12:03Z</time>
      </trkpt>
      <trkpt lat="47.26949" lon="-1.05922">
        <ele>82.9</ele>
        <time>2011-07-03T12:12:37Z</time>
      </trkpt>
      <trkpt lat="47.26946" lon="-1.05986">
        <ele>83.1</ele>
        <time>2011-07-03T12:12:48Z</time>
      </trkpt>
      <trkpt lat="47.26945" lon="-1.05992">
        <ele>82.9</ele>
        <time>2011-07-03T12:12:49Z</time>
      </trkpt>
      <trkpt lat="47.26943" lon="-1.05998">
        <ele>82.8</ele>
        <time>2011-07-03T12:12:50Z</time>
      </trkpt>
      <trkpt lat="47.26941" lon="-1.06003">
        <ele>82.7</ele>
        <time>2011-07-03T12:12:51Z</time>
      </trkpt>
      <trkpt lat="47.26938" lon="-1.06007">
        <ele>82.6</ele>
        <time>2011-07-03T12:12:52Z</time>
      </trkpt>
      <trkpt lat="47.26935" lon="-1.06011">
        <ele>82.6</ele>
        <time>2011-07-03T12:12:53Z</time>
      </trkpt>
      <trkpt lat="47.26932" lon="-1.06014">
        <ele>82.6</ele>
        <time>2011-07-03T12:12:54Z</time>
      </trkpt>
      <trkpt lat="47.26929" lon="-1.06016">
        <ele>82.6</ele>
        <time>2011-07-03T12:12:55Z</time>
      </trkpt>
      <trkpt lat="47.26926" lon="-1.06017">
        <ele>83</ele>
        <time>2011-07-03T12:12:56Z</time>
      </trkpt>
      <trkpt lat="47.26923" lon="-1.06018">
        <ele>83.3</ele>
        <time>2011-07-03T12:12:57Z</time>
      </trkpt>
      <trkpt lat="47.26921" lon="-1.06018">
        <ele>83.5</ele>
        <time>2011-07-03T12:12:58Z</time>
      </trkpt>
      <trkpt lat="47.26918" lon="-1.06017">
        <ele>84</ele>
        <time>2011-07-03T12:12:59Z</time>
      </trkpt>
      <trkpt lat="47.26916" lon="-1.06015">
        <ele>84.4</ele>
        <time>2011-07-03T12:13:00Z</time>
      </trkpt>
      <trkpt lat="47.26913" lon="-1.06012">
        <ele>84.7</ele>
        <time>2011-07-03T12:13:01Z</time>
      </trkpt>
      <trkpt lat="47.2691" lon="-1.06008">
        <ele>84.9</ele>
        <time>2011-07-03T12:13:02Z</time>
      </trkpt>
      <trkpt lat="47.26908" lon="-1.06003">
        <ele>85.3</ele>
        <time>2011-07-03T12:13:03Z</time>
      </trkpt>
      <trkpt lat="47.26906" lon="-1.05994">
        <ele>85.8</ele>
        <time>2011-07-03T12:13:05Z</time>
      </trkpt>
      <trkpt lat="47.26904" lon="-1.0599">
        <ele>85.9</ele>
        <time>2011-07-03T12:13:06Z</time>
      </trkpt>
      <trkpt lat="47.26901" lon="-1.05987">
        <ele>86</ele>
        <time>2011-07-03T12:13:07Z</time>
      </trkpt>
      <trkpt lat="47.26871" lon="-1.0596">
        <ele>87.7</ele>
        <time>2011-07-03T12:13:20Z</time>
      </trkpt>
      <trkpt lat="47.26866" lon="-1.05956">
        <ele>87.6</ele>
        <time>2011-07-03T12:13:22Z</time>
      </trkpt>
      <trkpt lat="47.268" lon="-1.05931">
        <ele>90.2</ele>
        <time>2011-07-03T12:13:43Z</time>
      </trkpt>
      <trkpt lat="47.26773" lon="-1.05911">
        <ele>90.7</ele>
        <time>2011-07-03T12:13:51Z</time>
      </trkpt>
      <trkpt lat="47.26746" lon="-1.05898">
        <ele>91.3</ele>
        <time>2011-07-03T12:13:58Z</time>
      </trkpt>
      <trkpt lat="47.26658" lon="-1.05868">
        <ele>90.7</ele>
        <time>2011-07-03T12:14:21Z</time>
      </trkpt>
      <trkpt lat="47.26655" lon="-1.05865">
        <ele>90.5</ele>
        <time>2011-07-03T12:14:22Z</time>
      </trkpt>
      <trkpt lat="47.26573" lon="-1.05722">
        <ele>85.1</ele>
        <time>2011-07-03T12:14:46Z</time>
      </trkpt>
      <trkpt lat="47.26567" lon="-1.05715">
        <ele>84.8</ele>
        <time>2011-07-03T12:14:47Z</time>
      </trkpt>
      <trkpt lat="47.26554" lon="-1.05702">
        <ele>83.4</ele>
        <time>2011-07-03T12:14:49Z</time>
      </trkpt>
      <trkpt lat="47.26522" lon="-1.05676">
        <ele>80.8</ele>
        <time>2011-07-03T12:14:54Z</time>
      </trkpt>
      <trkpt lat="47.26493" lon="-1.05656">
        <ele>77.8</ele>
        <time>2011-07-03T12:15:00Z</time>
      </trkpt>
      <trkpt lat="47.26486" lon="-1.05655">
        <ele>76.3</ele>
        <time>2011-07-03T12:15:02Z</time>
      </trkpt>
      <trkpt lat="47.26483" lon="-1.05652">
        <ele>75.9</ele>
        <time>2011-07-03T12:15:03Z</time>
      </trkpt>
      <trkpt lat="47.26468" lon="-1.05639">
        <ele>72.8</ele>
        <time>2011-07-03T12:15:09Z</time>
      </trkpt>
      <trkpt lat="47.26467" lon="-1.05638">
        <ele>72.2</ele>
        <time>2011-07-03T12:15:10Z</time>
      </trkpt>
      <trkpt lat="47.26466" lon="-1.05636">
        <ele>71.8</ele>
        <time>2011-07-03T12:15:11Z</time>
      </trkpt>
      <trkpt lat="47.26465" lon="-1.05633">
        <ele>71.5</ele>
        <time>2011-07-03T12:15:12Z</time>
      </trkpt>
      <trkpt lat="47.26464" lon="-1.05627">
        <ele>70.7</ele>
        <time>2011-07-03T12:15:13Z</time>
      </trkpt>
      <trkpt lat="47.26464" lon="-1.05619">
        <ele>70.1</ele>
        <time>2011-07-03T12:15:14Z</time>
      </trkpt>
      <trkpt lat="47.26467" lon="-1.05612">
        <ele>69.7</ele>
        <time>2011-07-03T12:15:15Z</time>
      </trkpt>
      <trkpt lat="47.26476" lon="-1.05595">
        <ele>68.3</ele>
        <time>2011-07-03T12:15:18Z</time>
      </trkpt>
      <trkpt lat="47.2648" lon="-1.05584">
        <ele>67.5</ele>
        <time>2011-07-03T12:15:20Z</time>
      </trkpt>
      <trkpt lat="47.26484" lon="-1.05574">
        <ele>67.1</ele>
        <time>2011-07-03T12:15:22Z</time>
      </trkpt>
      <trkpt lat="47.26489" lon="-1.05556">
        <ele>66.5</ele>
        <time>2011-07-03T12:15:25Z</time>
      </trkpt>
      <trkpt lat="47.26492" lon="-1.05542">
        <ele>66.3</ele>
        <time>2011-07-03T12:15:27Z</time>
      </trkpt>
      <trkpt lat="47.26495" lon="-1.05528">
        <ele>66.3</ele>
        <time>2011-07-03T12:15:29Z</time>
      </trkpt>
      <trkpt lat="47.26498" lon="-1.055">
        <ele>65.5</ele>
        <time>2011-07-03T12:15:34Z</time>
      </trkpt>
      <trkpt lat="47.26498" lon="-1.05497">
        <ele>65.2</ele>
        <time>2011-07-03T12:15:35Z</time>
      </trkpt>
      <trkpt lat="47.26498" lon="-1.05495">
        <ele>65.1</ele>
        <time>2011-07-03T12:15:36Z</time>
      </trkpt>
      <trkpt lat="47.26498" lon="-1.05493">
        <ele>65.1</ele>
        <time>2011-07-03T12:15:37Z</time>
      </trkpt>
      <trkpt lat="47.26498" lon="-1.05491">
        <ele>65.1</ele>
        <time>2011-07-03T12:15:38Z</time>
      </trkpt>
      <trkpt lat="47.26497" lon="-1.0549">
        <ele>65.1</ele>
        <time>2011-07-03T12:15:39Z</time>
      </trkpt>
      <trkpt lat="47.26497" lon="-1.0549">
        <ele>65.2</ele>
        <time>2011-07-03T12:15:40Z</time>
      </trkpt>
      <trkpt lat="47.26497" lon="-1.0549">
        <ele>65.2</ele>
        <time>2011-07-03T12:15:41Z</time>
      </trkpt>
      <trkpt lat="47.26497" lon="-1.05489">
        <ele>65.2</ele>
        <time>2011-07-03T12:15:42Z</time>
      </trkpt>
      <trkpt lat="47.26497" lon="-1.05489">
        <ele>65.2</ele>
        <time>2011-07-03T12:15:43Z</time>
      </trkpt>
      <trkpt lat="47.26496" lon="-1.05487">
        <ele>65.1</ele>
        <time>2011-07-03T12:15:44Z</time>
      </trkpt>
      <trkpt lat="47.26489" lon="-1.05484">
        <ele>65.1</ele>
        <time>2011-07-03T12:15:47Z</time>
      </trkpt>
      <trkpt lat="47.26484" lon="-1.05479">
        <ele>65</ele>
        <time>2011-07-03T12:15:48Z</time>
      </trkpt>
      <trkpt lat="47.26478" lon="-1.05474">
        <ele>64.8</ele>
        <time>2011-07-03T12:15:49Z</time>
      </trkpt>
      <trkpt lat="47.26399" lon="-1.05422">
        <ele>59</ele>
        <time>2011-07-03T12:16:00Z</time>
      </trkpt>
      <trkpt lat="47.26391" lon="-1.05418">
        <ele>56.9</ele>
        <time>2011-07-03T12:16:02Z</time>
      </trkpt>
      <trkpt lat="47.26389" lon="-1.0542">
        <ele>56.2</ele>
        <time>2011-07-03T12:16:03Z</time>
      </trkpt>
      <trkpt lat="47.26384" lon="-1.05434">
        <ele>54.3</ele>
        <time>2011-07-03T12:16:07Z</time>
      </trkpt>
      <trkpt lat="47.26381" lon="-1.05439">
        <ele>54.1</ele>
        <time>2011-07-03T12:16:08Z</time>
      </trkpt>
      <trkpt lat="47.26379" lon="-1.05443">
        <ele>53.9</ele>
        <time>2011-07-03T12:16:09Z</time>
      </trkpt>
      <trkpt lat="47.26373" lon="-1.0545">
        <ele>53.5</ele>
        <time>2011-07-03T12:16:11Z</time>
      </trkpt>
      <trkpt lat="47.2637" lon="-1.05453">
        <ele>53.2</ele>
        <time>2011-07-03T12:16:12Z</time>
      </trkpt>
      <trkpt lat="47.2636" lon="-1.05459">
        <ele>53</ele>
        <time>2011-07-03T12:16:15Z</time>
      </trkpt>
      <trkpt lat="47.26357" lon="-1.05459">
        <ele>53</ele>
        <time>2011-07-03T12:16:16Z</time>
      </trkpt>
      <trkpt lat="47.26354" lon="-1.0546">
        <ele>52.9</ele>
        <time>2011-07-03T12:16:17Z</time>
      </trkpt>
      <trkpt lat="47.26351" lon="-1.05463">
        <ele>52.9</ele>
        <time>2011-07-03T12:16:18Z</time>
      </trkpt>
      <trkpt lat="47.26329" lon="-1.05482">
        <ele>52.1</ele>
        <time>2011-07-03T12:16:24Z</time>
      </trkpt>
      <trkpt lat="47.26325" lon="-1.05487">
        <ele>51.7</ele>
        <time>2011-07-03T12:16:25Z</time>
      </trkpt>
      <trkpt lat="47.26321" lon="-1.05492">
        <ele>51.4</ele>
        <time>2011-07-03T12:16:26Z</time>
      </trkpt>
      <trkpt lat="47.2631" lon="-1.0551">
        <ele>50.3</ele>
        <time>2011-07-03T12:16:29Z</time>
      </trkpt>
      <trkpt lat="47.26302" lon="-1.05525">
        <ele>46.7</ele>
        <time>2011-07-03T12:16:35Z</time>
      </trkpt>
      <trkpt lat="47.26301" lon="-1.05527">
        <ele>46.5</ele>
        <time>2011-07-03T12:16:36Z</time>
      </trkpt>
      <trkpt lat="47.263" lon="-1.05528">
        <ele>46.3</ele>
        <time>2011-07-03T12:16:37Z</time>
      </trkpt>
      <trkpt lat="47.26293" lon="-1.05532">
        <ele>45.9</ele>
        <time>2011-07-03T12:16:41Z</time>
      </trkpt>
      <trkpt lat="47.26292" lon="-1.05534">
        <ele>45.8</ele>
        <time>2011-07-03T12:16:42Z</time>
      </trkpt>
      <trkpt lat="47.26285" lon="-1.05543">
        <ele>46</ele>
        <time>2011-07-03T12:16:46Z</time>
      </trkpt>
      <trkpt lat="47.26283" lon="-1.05546">
        <ele>45.9</ele>
        <time>2011-07-03T12:16:47Z</time>
      </trkpt>
      <trkpt lat="47.26278" lon="-1.05555">
        <ele>46.5</ele>
        <time>2011-07-03T12:16:51Z</time>
      </trkpt>
      <trkpt lat="47.26277" lon="-1.05556">
        <ele>46.5</ele>
        <time>2011-07-03T12:16:52Z</time>
      </trkpt>
      <trkpt lat="47.26277" lon="-1.05557">
        <ele>46.4</ele>
        <time>2011-07-03T12:16:54Z</time>
      </trkpt>
      <trkpt lat="47.26276" lon="-1.05558">
        <ele>46.4</ele>
        <time>2011-07-03T12:16:55Z</time>
      </trkpt>
      <trkpt lat="47.26276" lon="-1.05559">
        <ele>46.4</ele>
        <time>2011-07-03T12:16:56Z</time>
      </trkpt>
      <trkpt lat="47.26275" lon="-1.05559">
        <ele>46.4</ele>
        <time>2011-07-03T12:16:57Z</time>
      </trkpt>
      <trkpt lat="47.26274" lon="-1.0556">
        <ele>46.5</ele>
        <time>2011-07-03T12:16:58Z</time>
      </trkpt>
      <trkpt lat="47.26274" lon="-1.05561">
        <ele>46.4</ele>
        <time>2011-07-03T12:16:59Z</time>
      </trkpt>
      <trkpt lat="47.26273" lon="-1.05563">
        <ele>46.3</ele>
        <time>2011-07-03T12:17:01Z</time>
      </trkpt>
      <trkpt lat="47.26272" lon="-1.05564">
        <ele>46.4</ele>
        <time>2011-07-03T12:17:02Z</time>
      </trkpt>
      <trkpt lat="47.26271" lon="-1.05564">
        <ele>46.4</ele>
        <time>2011-07-03T12:17:03Z</time>
      </trkpt>
      <trkpt lat="47.26269" lon="-1.05566">
        <ele>46.5</ele>
        <time>2011-07-03T12:17:05Z</time>
      </trkpt>
      <trkpt lat="47.26267" lon="-1.05568">
        <ele>46.6</ele>
        <time>2011-07-03T12:17:07Z</time>
      </trkpt>
      <trkpt lat="47.26266" lon="-1.05569">
        <ele>46.5</ele>
        <time>2011-07-03T12:17:08Z</time>
      </trkpt>
      <trkpt lat="47.26266" lon="-1.0557">
        <ele>46.4</ele>
        <time>2011-07-03T12:17:09Z</time>
      </trkpt>
      <trkpt lat="47.26265" lon="-1.05571">
        <ele>46.4</ele>
        <time>2011-07-03T12:17:12Z</time>
      </trkpt>
      <trkpt lat="47.26264" lon="-1.05572">
        <ele>46.4</ele>
        <time>2011-07-03T12:17:13Z</time>
      </trkpt>
      <trkpt lat="47.26263" lon="-1.05573">
        <ele>46.4</ele>
        <time>2011-07-03T12:17:14Z</time>
      </trkpt>
      <trkpt lat="47.26253" lon="-1.05583">
        <ele>46.6</ele>
        <time>2011-07-03T12:17:21Z</time>
      </trkpt>
      <trkpt lat="47.26251" lon="-1.05586">
        <ele>47.1</ele>
        <time>2011-07-03T12:17:23Z</time>
      </trkpt>
      <trkpt lat="47.26239" lon="-1.056">
        <ele>48.6</ele>
        <time>2011-07-03T12:17:33Z</time>
      </trkpt>
      <trkpt lat="47.26236" lon="-1.05602">
        <ele>48.3</ele>
        <time>2011-07-03T12:17:35Z</time>
      </trkpt>
      <trkpt lat="47.26227" lon="-1.0561">
        <ele>49.9</ele>
        <time>2011-07-03T12:17:42Z</time>
      </trkpt>
      <trkpt lat="47.26226" lon="-1.05611">
        <ele>50</ele>
        <time>2011-07-03T12:17:43Z</time>
      </trkpt>
      <trkpt lat="47.26223" lon="-1.05615">
        <ele>51.3</ele>
        <time>2011-07-03T12:17:46Z</time>
      </trkpt>
      <trkpt lat="47.26222" lon="-1.05618">
        <ele>51.3</ele>
        <time>2011-07-03T12:17:48Z</time>
      </trkpt>
      <trkpt lat="47.26221" lon="-1.05619">
        <ele>51.3</ele>
        <time>2011-07-03T12:17:49Z</time>
      </trkpt>
      <trkpt lat="47.26217" lon="-1.05631">
        <ele>52.8</ele>
        <time>2011-07-03T12:17:56Z</time>
      </trkpt>
      <trkpt lat="47.26216" lon="-1.05632">
        <ele>52.9</ele>
        <time>2011-07-03T12:17:57Z</time>
      </trkpt>
      <trkpt lat="47.26216" lon="-1.05634">
        <ele>53</ele>
        <time>2011-07-03T12:17:58Z</time>
      </trkpt>
      <trkpt lat="47.26216" lon="-1.05634">
        <ele>53.6</ele>
        <time>2011-07-03T12:17:59Z</time>
      </trkpt>
      <trkpt lat="47.26214" lon="-1.05635">
        <ele>54.3</ele>
        <time>2011-07-03T12:18:01Z</time>
      </trkpt>
      <trkpt lat="47.26214" lon="-1.05636">
        <ele>54.6</ele>
        <time>2011-07-03T12:18:02Z</time>
      </trkpt>
      <trkpt lat="47.26213" lon="-1.05636">
        <ele>55.1</ele>
        <time>2011-07-03T12:18:03Z</time>
      </trkpt>
      <trkpt lat="47.26213" lon="-1.05636">
        <ele>55.4</ele>
        <time>2011-07-03T12:18:04Z</time>
      </trkpt>
      <trkpt lat="47.26213" lon="-1.05637">
        <ele>55.7</ele>
        <time>2011-07-03T12:18:05Z</time>
      </trkpt>
      <trkpt lat="47.26212" lon="-1.05637">
        <ele>55.4</ele>
        <time>2011-07-03T12:18:06Z</time>
      </trkpt>
      <trkpt lat="47.26212" lon="-1.05636">
        <ele>55.2</ele>
        <time>2011-07-03T12:18:07Z</time>
      </trkpt>
      <trkpt lat="47.26211" lon="-1.05637">
        <ele>55</ele>
        <time>2011-07-03T12:18:08Z</time>
      </trkpt>
      <trkpt lat="47.2621" lon="-1.05637">
        <ele>55.1</ele>
        <time>2011-07-03T12:18:10Z</time>
      </trkpt>
      <trkpt lat="47.26209" lon="-1.05637">
        <ele>55.6</ele>
        <time>2011-07-03T12:18:12Z</time>
      </trkpt>
      <trkpt lat="47.26208" lon="-1.05637">
        <ele>55.9</ele>
        <time>2011-07-03T12:18:13Z</time>
      </trkpt>
      <trkpt lat="47.26202" lon="-1.05637">
        <ele>57.1</ele>
        <time>2011-07-03T12:18:20Z</time>
      </trkpt>
      <trkpt lat="47.26202" lon="-1.05637">
        <ele>57.1</ele>
        <time>2011-07-03T12:18:21Z</time>
      </trkpt>
      <trkpt lat="47.26202" lon="-1.05638">
        <ele>57.2</ele>
        <time>2011-07-03T12:18:22Z</time>
      </trkpt>
      <trkpt lat="47.26201" lon="-1.05638">
        <ele>57.2</ele>
        <time>2011-07-03T12:18:23Z</time>
      </trkpt>
      <trkpt lat="47.26198" lon="-1.05637">
        <ele>56.9</ele>
        <time>2011-07-03T12:18:26Z</time>
      </trkpt>
      <trkpt lat="47.2618" lon="-1.05633">
        <ele>58.7</ele>
        <time>2011-07-03T12:18:40Z</time>
      </trkpt>
      <trkpt lat="47.26178" lon="-1.05632">
        <ele>59.3</ele>
        <time>2011-07-03T12:18:42Z</time>
      </trkpt>
      <trkpt lat="47.26177" lon="-1.05632">
        <ele>59.5</ele>
        <time>2011-07-03T12:18:43Z</time>
      </trkpt>
      <trkpt lat="47.26176" lon="-1.05632">
        <ele>59.7</ele>
        <time>2011-07-03T12:18:44Z</time>
      </trkpt>
      <trkpt lat="47.26166" lon="-1.05628">
        <ele>60.3</ele>
        <time>2011-07-03T12:18:51Z</time>
      </trkpt>
      <trkpt lat="47.26159" lon="-1.05626">
        <ele>60.5</ele>
        <time>2011-07-03T12:18:56Z</time>
      </trkpt>
      <trkpt lat="47.26124" lon="-1.05614">
        <ele>63.4</ele>
        <time>2011-07-03T12:19:16Z</time>
      </trkpt>
      <trkpt lat="47.26122" lon="-1.05613">
        <ele>63.3</ele>
        <time>2011-07-03T12:19:17Z</time>
      </trkpt>
      <trkpt lat="47.2612" lon="-1.05613">
        <ele>63.3</ele>
        <time>2011-07-03T12:19:18Z</time>
      </trkpt>
      <trkpt lat="47.26118" lon="-1.05613">
        <ele>63.2</ele>
        <time>2011-07-03T12:19:19Z</time>
      </trkpt>
      <trkpt lat="47.26116" lon="-1.05613">
        <ele>63.2</ele>
        <time>2011-07-03T12:19:20Z</time>
      </trkpt>
      <trkpt lat="47.26087" lon="-1.05605">
        <ele>64.4</ele>
        <time>2011-07-03T12:19:31Z</time>
      </trkpt>
      <trkpt lat="47.26085" lon="-1.05603">
        <ele>64.6</ele>
        <time>2011-07-03T12:19:32Z</time>
      </trkpt>
      <trkpt lat="47.26082" lon="-1.05602">
        <ele>64.8</ele>
        <time>2011-07-03T12:19:33Z</time>
      </trkpt>
      <trkpt lat="47.2608" lon="-1.05599">
        <ele>64.9</ele>
        <time>2011-07-03T12:19:34Z</time>
      </trkpt>
      <trkpt lat="47.26079" lon="-1.05594">
        <ele>64.9</ele>
        <time>2011-07-03T12:19:35Z</time>
      </trkpt>
      <trkpt lat="47.26079" lon="-1.05589">
        <ele>64.8</ele>
        <time>2011-07-03T12:19:36Z</time>
      </trkpt>
      <trkpt lat="47.26078" lon="-1.05531">
        <ele>63.5</ele>
        <time>2011-07-03T12:19:44Z</time>
      </trkpt>
      <trkpt lat="47.26077" lon="-1.05505">
        <ele>62.7</ele>
        <time>2011-07-03T12:19:47Z</time>
      </trkpt>
      <trkpt lat="47.26076" lon="-1.05497">
        <ele>62.2</ele>
        <time>2011-07-03T12:19:48Z</time>
      </trkpt>
      <trkpt lat="47.26072" lon="-1.05476">
        <ele>61.1</ele>
        <time>2011-07-03T12:19:51Z</time>
      </trkpt>
      <trkpt lat="47.26068" lon="-1.05438">
        <ele>58.5</ele>
        <time>2011-07-03T12:19:57Z</time>
      </trkpt>
      <trkpt lat="47.26067" lon="-1.05432">
        <ele>58.8</ele>
        <time>2011-07-03T12:19:58Z</time>
      </trkpt>
      <trkpt lat="47.26064" lon="-1.05427">
        <ele>59.1</ele>
        <time>2011-07-03T12:19:59Z</time>
      </trkpt>
      <trkpt lat="47.26061" lon="-1.05422">
        <ele>59.3</ele>
        <time>2011-07-03T12:20:00Z</time>
      </trkpt>
      <trkpt lat="47.26058" lon="-1.05418">
        <ele>59.1</ele>
        <time>2011-07-03T12:20:01Z</time>
      </trkpt>
      <trkpt lat="47.26054" lon="-1.05415">
        <ele>59</ele>
        <time>2011-07-03T12:20:02Z</time>
      </trkpt>
      <trkpt lat="47.26017" lon="-1.05396">
        <ele>57.6</ele>
        <time>2011-07-03T12:20:11Z</time>
      </trkpt>
      <trkpt lat="47.26014" lon="-1.05392">
        <ele>57.4</ele>
        <time>2011-07-03T12:20:12Z</time>
      </trkpt>
      <trkpt lat="47.26012" lon="-1.05388">
        <ele>56.9</ele>
        <time>2011-07-03T12:20:13Z</time>
      </trkpt>
      <trkpt lat="47.26011" lon="-1.05383">
        <ele>56.4</ele>
        <time>2011-07-03T12:20:14Z</time>
      </trkpt>
      <trkpt lat="47.26012" lon="-1.05378">
        <ele>56.1</ele>
        <time>2011-07-03T12:20:15Z</time>
      </trkpt>
      <trkpt lat="47.26014" lon="-1.05373">
        <ele>55.8</ele>
        <time>2011-07-03T12:20:16Z</time>
      </trkpt>
      <trkpt lat="47.26127" lon="-1.05175">
        <ele>50.4</ele>
        <time>2011-07-03T12:20:52Z</time>
      </trkpt>
      <trkpt lat="47.26171" lon="-1.05075">
        <ele>48.7</ele>
        <time>2011-07-03T12:21:07Z</time>
      </trkpt>
      <trkpt lat="47.26173" lon="-1.05067">
        <ele>48.6</ele>
        <time>2011-07-03T12:21:08Z</time>
      </trkpt>
      <trkpt lat="47.26195" lon="-1.04964">
        <ele>46.6</ele>
        <time>2011-07-03T12:21:21Z</time>
      </trkpt>
      <trkpt lat="47.26198" lon="-1.04938">
        <ele>46</ele>
        <time>2011-07-03T12:21:24Z</time>
      </trkpt>
      <trkpt lat="47.26202" lon="-1.04895">
        <ele>45.3</ele>
        <time>2011-07-03T12:21:28Z</time>
      </trkpt>
      <trkpt lat="47.26204" lon="-1.04886">
        <ele>45.2</ele>
        <time>2011-07-03T12:21:29Z</time>
      </trkpt>
      <trkpt lat="47.26208" lon="-1.04879">
        <ele>45</ele>
        <time>2011-07-03T12:21:30Z</time>
      </trkpt>
      <trkpt lat="47.26212" lon="-1.04874">
        <ele>44.9</ele>
        <time>2011-07-03T12:21:31Z</time>
      </trkpt>
      <trkpt lat="47.26217" lon="-1.0487">
        <ele>44.9</ele>
        <time>2011-07-03T12:21:32Z</time>
      </trkpt>
      <trkpt lat="47.26223" lon="-1.04868">
        <ele>44.8</ele>
        <time>2011-07-03T12:21:33Z</time>
      </trkpt>
      <trkpt lat="47.26228" lon="-1.04866">
        <ele>44.7</ele>
        <time>2011-07-03T12:21:34Z</time>
      </trkpt>
      <trkpt lat="47.26234" lon="-1.04865">
        <ele>44.6</ele>
        <time>2011-07-03T12:21:35Z</time>
      </trkpt>
      <trkpt lat="47.2624" lon="-1.04865">
        <ele>43.8</ele>
        <time>2011-07-03T12:21:36Z</time>
      </trkpt>
      <trkpt lat="47.26279" lon="-1.04874">
        <ele>41</ele>
        <time>2011-07-03T12:21:41Z</time>
      </trkpt>
      <trkpt lat="47.26287" lon="-1.04871">
        <ele>40.6</ele>
        <time>2011-07-03T12:21:42Z</time>
      </trkpt>
      <trkpt lat="47.26294" lon="-1.04865">
        <ele>39.7</ele>
        <time>2011-07-03T12:21:43Z</time>
      </trkpt>
      <trkpt lat="47.263" lon="-1.04858">
        <ele>38.9</ele>
        <time>2011-07-03T12:21:44Z</time>
      </trkpt>
      <trkpt lat="47.26306" lon="-1.0485">
        <ele>38.4</ele>
        <time>2011-07-03T12:21:45Z</time>
      </trkpt>
      <trkpt lat="47.26369" lon="-1.04742">
        <ele>37.7</ele>
        <time>2011-07-03T12:22:03Z</time>
      </trkpt>
      <trkpt lat="47.264" lon="-1.04703">
        <ele>37</ele>
        <time>2011-07-03T12:22:11Z</time>
      </trkpt>
      <trkpt lat="47.26401" lon="-1.04698">
        <ele>36.5</ele>
        <time>2011-07-03T12:22:12Z</time>
      </trkpt>
      <trkpt lat="47.264" lon="-1.04693">
        <ele>36.1</ele>
        <time>2011-07-03T12:22:13Z</time>
      </trkpt>
      <trkpt lat="47.26397" lon="-1.04687">
        <ele>35.8</ele>
        <time>2011-07-03T12:22:14Z</time>
      </trkpt>
      <trkpt lat="47.26383" lon="-1.04659">
        <ele>34.9</ele>
        <time>2011-07-03T12:22:20Z</time>
      </trkpt>
      <trkpt lat="47.26379" lon="-1.04652">
        <ele>35.1</ele>
        <time>2011-07-03T12:22:22Z</time>
      </trkpt>
      <trkpt lat="47.26354" lon="-1.04618">
        <ele>35.7</ele>
        <time>2011-07-03T12:22:31Z</time>
      </trkpt>
      <trkpt lat="47.26351" lon="-1.04613">
        <ele>35.8</ele>
        <time>2011-07-03T12:22:32Z</time>
      </trkpt>
      <trkpt lat="47.2635" lon="-1.04607">
        <ele>35.9</ele>
        <time>2011-07-03T12:22:33Z</time>
      </trkpt>
      <trkpt lat="47.26351" lon="-1.04601">
        <ele>35.9</ele>
        <time>2011-07-03T12:22:34Z</time>
      </trkpt>
      <trkpt lat="47.26354" lon="-1.04597">
        <ele>35.9</ele>
        <time>2011-07-03T12:22:35Z</time>
      </trkpt>
      <trkpt lat="47.26357" lon="-1.04594">
        <ele>35.8</ele>
        <time>2011-07-03T12:22:36Z</time>
      </trkpt>
      <trkpt lat="47.26402" lon="-1.04562">
        <ele>35.7</ele>
        <time>2011-07-03T12:22:46Z</time>
      </trkpt>
      <trkpt lat="47.26425" lon="-1.04551">
        <ele>34.5</ele>
        <time>2011-07-03T12:22:51Z</time>
      </trkpt>
      <trkpt lat="47.26429" lon="-1.04547">
        <ele>34.4</ele>
        <time>2011-07-03T12:22:52Z</time>
      </trkpt>
      <trkpt lat="47.26431" lon="-1.04542">
        <ele>34.4</ele>
        <time>2011-07-03T12:22:53Z</time>
      </trkpt>
      <trkpt lat="47.26433" lon="-1.04537">
        <ele>34.4</ele>
        <time>2011-07-03T12:22:54Z</time>
      </trkpt>
      <trkpt lat="47.26435" lon="-1.04533">
        <ele>34.4</ele>
        <time>2011-07-03T12:22:55Z</time>
      </trkpt>
      <trkpt lat="47.26437" lon="-1.04526">
        <ele>34.3</ele>
        <time>2011-07-03T12:22:57Z</time>
      </trkpt>
      <trkpt lat="47.26437" lon="-1.04523">
        <ele>34.3</ele>
        <time>2011-07-03T12:22:58Z</time>
      </trkpt>
      <trkpt lat="47.26439" lon="-1.04497">
        <ele>37.8</ele>
        <time>2011-07-03T12:23:09Z</time>
      </trkpt>
      <trkpt lat="47.26439" lon="-1.04495">
        <ele>38.5</ele>
        <time>2011-07-03T12:23:10Z</time>
      </trkpt>
      <trkpt lat="47.26442" lon="-1.04469">
        <ele>40.6</ele>
        <time>2011-07-03T12:23:20Z</time>
      </trkpt>
      <trkpt lat="47.26445" lon="-1.0445">
        <ele>42.6</ele>
        <time>2011-07-03T12:23:28Z</time>
      </trkpt>
      <trkpt lat="47.26445" lon="-1.04447">
        <ele>42.8</ele>
        <time>2011-07-03T12:23:29Z</time>
      </trkpt>
      <trkpt lat="47.26446" lon="-1.04435">
        <ele>43.2</ele>
        <time>2011-07-03T12:23:34Z</time>
      </trkpt>
      <trkpt lat="47.26445" lon="-1.04432">
        <ele>43.5</ele>
        <time>2011-07-03T12:23:35Z</time>
      </trkpt>
      <trkpt lat="47.26445" lon="-1.0443">
        <ele>43.7</ele>
        <time>2011-07-03T12:23:36Z</time>
      </trkpt>
      <trkpt lat="47.26446" lon="-1.04427">
        <ele>43.8</ele>
        <time>2011-07-03T12:23:37Z</time>
      </trkpt>
      <trkpt lat="47.26445" lon="-1.04425">
        <ele>44.1</ele>
        <time>2011-07-03T12:23:38Z</time>
      </trkpt>
      <trkpt lat="47.26444" lon="-1.04424">
        <ele>44.3</ele>
        <time>2011-07-03T12:23:39Z</time>
      </trkpt>
      <trkpt lat="47.26443" lon="-1.04423">
        <ele>44.4</ele>
        <time>2011-07-03T12:23:40Z</time>
      </trkpt>
      <trkpt lat="47.26441" lon="-1.04421">
        <ele>44.7</ele>
        <time>2011-07-03T12:23:42Z</time>
      </trkpt>
      <trkpt lat="47.26435" lon="-1.04417">
        <ele>45.7</ele>
        <time>2011-07-03T12:23:47Z</time>
      </trkpt>
      <trkpt lat="47.26434" lon="-1.04415">
        <ele>46.1</ele>
        <time>2011-07-03T12:23:49Z</time>
      </trkpt>
      <trkpt lat="47.26433" lon="-1.04414">
        <ele>46.3</ele>
        <time>2011-07-03T12:23:50Z</time>
      </trkpt>
      <trkpt lat="47.26422" lon="-1.04405">
        <ele>48</ele>
        <time>2011-07-03T12:24:00Z</time>
      </trkpt>
      <trkpt lat="47.2642" lon="-1.04403">
        <ele>48</ele>
        <time>2011-07-03T12:24:01Z</time>
      </trkpt>
      <trkpt lat="47.26414" lon="-1.04392">
        <ele>50.3</ele>
        <time>2011-07-03T12:24:09Z</time>
      </trkpt>
      <trkpt lat="47.26413" lon="-1.0439">
        <ele>50.6</ele>
        <time>2011-07-03T12:24:10Z</time>
      </trkpt>
      <trkpt lat="47.26413" lon="-1.04389">
        <ele>50.9</ele>
        <time>2011-07-03T12:24:11Z</time>
      </trkpt>
      <trkpt lat="47.26412" lon="-1.04387">
        <ele>51.1</ele>
        <time>2011-07-03T12:24:12Z</time>
      </trkpt>
      <trkpt lat="47.26412" lon="-1.04386">
        <ele>51.4</ele>
        <time>2011-07-03T12:24:13Z</time>
      </trkpt>
      <trkpt lat="47.26411" lon="-1.04384">
        <ele>51.6</ele>
        <time>2011-07-03T12:24:14Z</time>
      </trkpt>
      <trkpt lat="47.26392" lon="-1.04369">
        <ele>53.4</ele>
        <time>2011-07-03T12:24:26Z</time>
      </trkpt>
      <trkpt lat="47.26387" lon="-1.04367">
        <ele>53.3</ele>
        <time>2011-07-03T12:24:28Z</time>
      </trkpt>
      <trkpt lat="47.26386" lon="-1.04364">
        <ele>53.3</ele>
        <time>2011-07-03T12:24:29Z</time>
      </trkpt>
      <trkpt lat="47.26384" lon="-1.04358">
        <ele>53.4</ele>
        <time>2011-07-03T12:24:31Z</time>
      </trkpt>
      <trkpt lat="47.26383" lon="-1.04355">
        <ele>53.5</ele>
        <time>2011-07-03T12:24:32Z</time>
      </trkpt>
      <trkpt lat="47.26383" lon="-1.04351">
        <ele>53.5</ele>
        <time>2011-07-03T12:24:33Z</time>
      </trkpt>
      <trkpt lat="47.26385" lon="-1.0434">
        <ele>54.8</ele>
        <time>2011-07-03T12:24:36Z</time>
      </trkpt>
      <trkpt lat="47.26389" lon="-1.04325">
        <ele>55.5</ele>
        <time>2011-07-03T12:24:40Z</time>
      </trkpt>
      <trkpt lat="47.26389" lon="-1.04317">
        <ele>55.5</ele>
        <time>2011-07-03T12:24:42Z</time>
      </trkpt>
      <trkpt lat="47.26389" lon="-1.04312">
        <ele>55.5</ele>
        <time>2011-07-03T12:24:43Z</time>
      </trkpt>
      <trkpt lat="47.26388" lon="-1.04304">
        <ele>56</ele>
        <time>2011-07-03T12:24:45Z</time>
      </trkpt>
      <trkpt lat="47.26387" lon="-1.043">
        <ele>56.4</ele>
        <time>2011-07-03T12:24:46Z</time>
      </trkpt>
      <trkpt lat="47.26383" lon="-1.04284">
        <ele>56.4</ele>
        <time>2011-07-03T12:24:50Z</time>
      </trkpt>
      <trkpt lat="47.26359" lon="-1.04207">
        <ele>54.7</ele>
        <time>2011-07-03T12:25:06Z</time>
      </trkpt>
      <trkpt lat="47.26357" lon="-1.04204">
        <ele>54.9</ele>
        <time>2011-07-03T12:25:07Z</time>
      </trkpt>
      <trkpt lat="47.26354" lon="-1.04202">
        <ele>55.1</ele>
        <time>2011-07-03T12:25:08Z</time>
      </trkpt>
      <trkpt lat="47.26341" lon="-1.04198">
        <ele>55.6</ele>
        <time>2011-07-03T12:25:11Z</time>
      </trkpt>
      <trkpt lat="47.26297" lon="-1.04169">
        <ele>53.3</ele>
        <time>2011-07-03T12:25:18Z</time>
      </trkpt>
      <trkpt lat="47.26289" lon="-1.04166">
        <ele>53.1</ele>
        <time>2011-07-03T12:25:19Z</time>
      </trkpt>
      <trkpt lat="47.2628" lon="-1.04166">
        <ele>52.9</ele>
        <time>2011-07-03T12:25:20Z</time>
      </trkpt>
      <trkpt lat="47.26093" lon="-1.04169">
        <ele>41.7</ele>
        <time>2011-07-03T12:25:41Z</time>
      </trkpt>
      <trkpt lat="47.2607" lon="-1.04173">
        <ele>40.9</ele>
        <time>2011-07-03T12:25:45Z</time>
      </trkpt>
      <trkpt lat="47.26067" lon="-1.04172">
        <ele>40.7</ele>
        <time>2011-07-03T12:25:46Z</time>
      </trkpt>
      <trkpt lat="47.26065" lon="-1.0417">
        <ele>40.5</ele>
        <time>2011-07-03T12:25:47Z</time>
      </trkpt>
      <trkpt lat="47.26063" lon="-1.04167">
        <ele>40.4</ele>
        <time>2011-07-03T12:25:48Z</time>
      </trkpt>
      <trkpt lat="47.26062" lon="-1.04164">
        <ele>40.3</ele>
        <time>2011-07-03T12:25:49Z</time>
      </trkpt>
      <trkpt lat="47.26061" lon="-1.04159">
        <ele>40.1</ele>
        <time>2011-07-03T12:25:51Z</time>
      </trkpt>
      <trkpt lat="47.26057" lon="-1.04132">
        <ele>40.7</ele>
        <time>2011-07-03T12:25:59Z</time>
      </trkpt>
      <trkpt lat="47.26056" lon="-1.04129">
        <ele>40.7</ele>
        <time>2011-07-03T12:26:00Z</time>
      </trkpt>
      <trkpt lat="47.26055" lon="-1.04126">
        <ele>40.8</ele>
        <time>2011-07-03T12:26:01Z</time>
      </trkpt>
      <trkpt lat="47.26053" lon="-1.04123">
        <ele>40.8</ele>
        <time>2011-07-03T12:26:02Z</time>
      </trkpt>
      <trkpt lat="47.26051" lon="-1.0412">
        <ele>40.9</ele>
        <time>2011-07-03T12:26:03Z</time>
      </trkpt>
      <trkpt lat="47.26048" lon="-1.04119">
        <ele>40.9</ele>
        <time>2011-07-03T12:26:04Z</time>
      </trkpt>
      <trkpt lat="47.26046" lon="-1.04117">
        <ele>41.3</ele>
        <time>2011-07-03T12:26:05Z</time>
      </trkpt>
      <trkpt lat="47.2604" lon="-1.04115">
        <ele>41.8</ele>
        <time>2011-07-03T12:26:07Z</time>
      </trkpt>
      <trkpt lat="47.26019" lon="-1.04112">
        <ele>42</ele>
        <time>2011-07-03T12:26:15Z</time>
      </trkpt>
      <trkpt lat="47.26006" lon="-1.04111">
        <ele>41.8</ele>
        <time>2011-07-03T12:26:20Z</time>
      </trkpt>
      <trkpt lat="47.25998" lon="-1.04109">
        <ele>42.3</ele>
        <time>2011-07-03T12:26:23Z</time>
      </trkpt>
      <trkpt lat="47.25917" lon="-1.04082">
        <ele>45.6</ele>
        <time>2011-07-03T12:26:50Z</time>
      </trkpt>
      <trkpt lat="47.25912" lon="-1.04079">
        <ele>45.5</ele>
        <time>2011-07-03T12:26:52Z</time>
      </trkpt>
      <trkpt lat="47.259" lon="-1.0407">
        <ele>47.3</ele>
        <time>2011-07-03T12:26:57Z</time>
      </trkpt>
      <trkpt lat="47.25875" lon="-1.04046">
        <ele>49.8</ele>
        <time>2011-07-03T12:27:12Z</time>
      </trkpt>
      <trkpt lat="47.25854" lon="-1.04014">
        <ele>53.7</ele>
        <time>2011-07-03T12:27:29Z</time>
      </trkpt>
      <trkpt lat="47.25846" lon="-1.03998">
        <ele>54.8</ele>
        <time>2011-07-03T12:27:38Z</time>
      </trkpt>
      <trkpt lat="47.25843" lon="-1.03991">
        <ele>55.5</ele>
        <time>2011-07-03T12:27:42Z</time>
      </trkpt>
      <trkpt lat="47.25841" lon="-1.03988">
        <ele>55.7</ele>
        <time>2011-07-03T12:27:44Z</time>
      </trkpt>
      <trkpt lat="47.2584" lon="-1.03986">
        <ele>55.8</ele>
        <time>2011-07-03T12:27:45Z</time>
      </trkpt>
      <trkpt lat="47.25838" lon="-1.03982">
        <ele>56.3</ele>
        <time>2011-07-03T12:27:47Z</time>
      </trkpt>
      <trkpt lat="47.25825" lon="-1.03951">
        <ele>58.1</ele>
        <time>2011-07-03T12:28:03Z</time>
      </trkpt>
      <trkpt lat="47.25824" lon="-1.03949">
        <ele>58.3</ele>
        <time>2011-07-03T12:28:04Z</time>
      </trkpt>
      <trkpt lat="47.25821" lon="-1.03941">
        <ele>58.2</ele>
        <time>2011-07-03T12:28:08Z</time>
      </trkpt>
      <trkpt lat="47.25815" lon="-1.03926">
        <ele>60.1</ele>
        <time>2011-07-03T12:28:15Z</time>
      </trkpt>
      <trkpt lat="47.25807" lon="-1.03905">
        <ele>61.5</ele>
        <time>2011-07-03T12:28:24Z</time>
      </trkpt>
      <trkpt lat="47.25806" lon="-1.03903">
        <ele>62</ele>
        <time>2011-07-03T12:28:25Z</time>
      </trkpt>
      <trkpt lat="47.25795" lon="-1.03879">
        <ele>63</ele>
        <time>2011-07-03T12:28:37Z</time>
      </trkpt>
      <trkpt lat="47.25795" lon="-1.03876">
        <ele>63</ele>
        <time>2011-07-03T12:28:38Z</time>
      </trkpt>
      <trkpt lat="47.2578" lon="-1.03842">
        <ele>66.4</ele>
        <time>2011-07-03T12:28:55Z</time>
      </trkpt>
      <trkpt lat="47.25776" lon="-1.03829">
        <ele>66.5</ele>
        <time>2011-07-03T12:29:01Z</time>
      </trkpt>
      <trkpt lat="47.25775" lon="-1.03827">
        <ele>66.6</ele>
        <time>2011-07-03T12:29:02Z</time>
      </trkpt>
      <trkpt lat="47.25774" lon="-1.03825">
        <ele>66.7</ele>
        <time>2011-07-03T12:29:03Z</time>
      </trkpt>
      <trkpt lat="47.25774" lon="-1.03823">
        <ele>66.8</ele>
        <time>2011-07-03T12:29:04Z</time>
      </trkpt>
      <trkpt lat="47.2577" lon="-1.03812">
        <ele>67.6</ele>
        <time>2011-07-03T12:29:09Z</time>
      </trkpt>
      <trkpt lat="47.25769" lon="-1.0381">
        <ele>67.7</ele>
        <time>2011-07-03T12:29:10Z</time>
      </trkpt>
      <trkpt lat="47.25766" lon="-1.03803">
        <ele>68.2</ele>
        <time>2011-07-03T12:29:13Z</time>
      </trkpt>
      <trkpt lat="47.25765" lon="-1.038">
        <ele>68.5</ele>
        <time>2011-07-03T12:29:14Z</time>
      </trkpt>
      <trkpt lat="47.25758" lon="-1.03772">
        <ele>69.1</ele>
        <time>2011-07-03T12:29:21Z</time>
      </trkpt>
      <trkpt lat="47.25751" lon="-1.03738">
        <ele>69.1</ele>
        <time>2011-07-03T12:29:28Z</time>
      </trkpt>
      <trkpt lat="47.25714" lon="-1.03474">
        <ele>64.6</ele>
        <time>2011-07-03T12:30:05Z</time>
      </trkpt>
      <trkpt lat="47.25712" lon="-1.03467">
        <ele>64.4</ele>
        <time>2011-07-03T12:30:06Z</time>
      </trkpt>
      <trkpt lat="47.25709" lon="-1.0346">
        <ele>63.9</ele>
        <time>2011-07-03T12:30:07Z</time>
      </trkpt>
      <trkpt lat="47.25706" lon="-1.03454">
        <ele>63.6</ele>
        <time>2011-07-03T12:30:08Z</time>
      </trkpt>
      <trkpt lat="47.25684" lon="-1.03413">
        <ele>63.7</ele>
        <time>2011-07-03T12:30:18Z</time>
      </trkpt>
      <trkpt lat="47.25684" lon="-1.03411">
        <ele>63.8</ele>
        <time>2011-07-03T12:30:19Z</time>
      </trkpt>
      <trkpt lat="47.25678" lon="-1.03393">
        <ele>65.8</ele>
        <time>2011-07-03T12:30:27Z</time>
      </trkpt>
      <trkpt lat="47.2567" lon="-1.03373">
        <ele>68.2</ele>
        <time>2011-07-03T12:30:36Z</time>
      </trkpt>
      <trkpt lat="47.25669" lon="-1.03371">
        <ele>68.1</ele>
        <time>2011-07-03T12:30:37Z</time>
      </trkpt>
      <trkpt lat="47.2566" lon="-1.03352">
        <ele>69.2</ele>
        <time>2011-07-03T12:30:46Z</time>
      </trkpt>
      <trkpt lat="47.25595" lon="-1.03249">
        <ele>74.7</ele>
        <time>2011-07-03T12:31:30Z</time>
      </trkpt>
      <trkpt lat="47.25564" lon="-1.03185">
        <ele>77.9</ele>
        <time>2011-07-03T12:31:54Z</time>
      </trkpt>
      <trkpt lat="47.25545" lon="-1.03136">
        <ele>80.1</ele>
        <time>2011-07-03T12:32:11Z</time>
      </trkpt>
      <trkpt lat="47.25544" lon="-1.03133">
        <ele>80.1</ele>
        <time>2011-07-03T12:32:12Z</time>
      </trkpt>
      <trkpt lat="47.25539" lon="-1.03112">
        <ele>79.8</ele>
        <time>2011-07-03T12:32:18Z</time>
      </trkpt>
      <trkpt lat="47.25527" lon="-1.0304">
        <ele>81.5</ele>
        <time>2011-07-03T12:32:36Z</time>
      </trkpt>
      <trkpt lat="47.25491" lon="-1.02789">
        <ele>86.5</ele>
        <time>2011-07-03T12:33:42Z</time>
      </trkpt>
      <trkpt lat="47.25491" lon="-1.02781">
        <ele>86.7</ele>
        <time>2011-07-03T12:33:44Z</time>
      </trkpt>
      <trkpt lat="47.25491" lon="-1.02778">
        <ele>86.8</ele>
        <time>2011-07-03T12:33:45Z</time>
      </trkpt>
      <trkpt lat="47.25492" lon="-1.0277">
        <ele>86.6</ele>
        <time>2011-07-03T12:33:47Z</time>
      </trkpt>
      <trkpt lat="47.25499" lon="-1.02729">
        <ele>87.4</ele>
        <time>2011-07-03T12:33:59Z</time>
      </trkpt>
      <trkpt lat="47.255" lon="-1.02722">
        <ele>87.3</ele>
        <time>2011-07-03T12:34:01Z</time>
      </trkpt>
      <trkpt lat="47.255" lon="-1.02707">
        <ele>87.9</ele>
        <time>2011-07-03T12:34:05Z</time>
      </trkpt>
      <trkpt lat="47.25499" lon="-1.02691">
        <ele>89.3</ele>
        <time>2011-07-03T12:34:10Z</time>
      </trkpt>
      <trkpt lat="47.25496" lon="-1.02663">
        <ele>89.7</ele>
        <time>2011-07-03T12:34:19Z</time>
      </trkpt>
      <trkpt lat="47.25478" lon="-1.02578">
        <ele>91.8</ele>
        <time>2011-07-03T12:34:44Z</time>
      </trkpt>
      <trkpt lat="47.25477" lon="-1.02575">
        <ele>92</ele>
        <time>2011-07-03T12:34:45Z</time>
      </trkpt>
      <trkpt lat="47.25457" lon="-1.02492">
        <ele>96.2</ele>
        <time>2011-07-03T12:35:18Z</time>
      </trkpt>
      <trkpt lat="47.25456" lon="-1.02486">
        <ele>97</ele>
        <time>2011-07-03T12:35:21Z</time>
      </trkpt>
      <trkpt lat="47.25452" lon="-1.02464">
        <ele>98.5</ele>
        <time>2011-07-03T12:35:31Z</time>
      </trkpt>
      <trkpt lat="47.25448" lon="-1.02431">
        <ele>100.7</ele>
        <time>2011-07-03T12:35:45Z</time>
      </trkpt>
      <trkpt lat="47.25431" lon="-1.02304">
        <ele>105.2</ele>
        <time>2011-07-03T12:36:31Z</time>
      </trkpt>
      <trkpt lat="47.25428" lon="-1.02293">
        <ele>105.1</ele>
        <time>2011-07-03T12:36:35Z</time>
      </trkpt>
      <trkpt lat="47.25425" lon="-1.02271">
        <ele>105.9</ele>
        <time>2011-07-03T12:36:42Z</time>
      </trkpt>
      <trkpt lat="47.25425" lon="-1.02268">
        <ele>105.9</ele>
        <time>2011-07-03T12:36:43Z</time>
      </trkpt>
      <trkpt lat="47.25424" lon="-1.0212">
        <ele>108.1</ele>
        <time>2011-07-03T12:37:12Z</time>
      </trkpt>
      <trkpt lat="47.25422" lon="-1.02108">
        <ele>107.7</ele>
        <time>2011-07-03T12:37:14Z</time>
      </trkpt>
      <trkpt lat="47.25395" lon="-1.01929">
        <ele>105.8</ele>
        <time>2011-07-03T12:37:41Z</time>
      </trkpt>
      <trkpt lat="47.25395" lon="-1.01925">
        <ele>105.9</ele>
        <time>2011-07-03T12:37:42Z</time>
      </trkpt>
      <trkpt lat="47.25396" lon="-1.0192">
        <ele>105.9</ele>
        <time>2011-07-03T12:37:43Z</time>
      </trkpt>
      <trkpt lat="47.25398" lon="-1.01915">
        <ele>105.7</ele>
        <time>2011-07-03T12:37:44Z</time>
      </trkpt>
      <trkpt lat="47.254" lon="-1.01911">
        <ele>105.6</ele>
        <time>2011-07-03T12:37:45Z</time>
      </trkpt>
      <trkpt lat="47.25403" lon="-1.01907">
        <ele>105.5</ele>
        <time>2011-07-03T12:37:46Z</time>
      </trkpt>
      <trkpt lat="47.25406" lon="-1.01905">
        <ele>105.7</ele>
        <time>2011-07-03T12:37:47Z</time>
      </trkpt>
      <trkpt lat="47.2541" lon="-1.01904">
        <ele>105.8</ele>
        <time>2011-07-03T12:37:48Z</time>
      </trkpt>
      <trkpt lat="47.25412" lon="-1.01905">
        <ele>106</ele>
        <time>2011-07-03T12:37:49Z</time>
      </trkpt>
      <trkpt lat="47.25452" lon="-1.01927">
        <ele>105.3</ele>
        <time>2011-07-03T12:38:00Z</time>
      </trkpt>
      <trkpt lat="47.25464" lon="-1.01935">
        <ele>105.3</ele>
        <time>2011-07-03T12:38:03Z</time>
      </trkpt>
      <trkpt lat="47.25485" lon="-1.01953">
        <ele>105.3</ele>
        <time>2011-07-03T12:38:09Z</time>
      </trkpt>
      <trkpt lat="47.25489" lon="-1.01954">
        <ele>105.3</ele>
        <time>2011-07-03T12:38:10Z</time>
      </trkpt>
      <trkpt lat="47.25493" lon="-1.01952">
        <ele>105.3</ele>
        <time>2011-07-03T12:38:11Z</time>
      </trkpt>
      <trkpt lat="47.25496" lon="-1.01947">
        <ele>105.6</ele>
        <time>2011-07-03T12:38:12Z</time>
      </trkpt>
      <trkpt lat="47.25498" lon="-1.01943">
        <ele>105.7</ele>
        <time>2011-07-03T12:38:13Z</time>
      </trkpt>
      <trkpt lat="47.25502" lon="-1.01939">
        <ele>105.9</ele>
        <time>2011-07-03T12:38:14Z</time>
      </trkpt>
      <trkpt lat="47.25505" lon="-1.01937">
        <ele>105.6</ele>
        <time>2011-07-03T12:38:15Z</time>
      </trkpt>
      <trkpt lat="47.25509" lon="-1.01936">
        <ele>105.5</ele>
        <time>2011-07-03T12:38:16Z</time>
      </trkpt>
      <trkpt lat="47.25694" lon="-1.0191">
        <ele>96.8</ele>
        <time>2011-07-03T12:38:45Z</time>
      </trkpt>
      <trkpt lat="47.25866" lon="-1.01849">
        <ele>88.7</ele>
        <time>2011-07-03T12:39:13Z</time>
      </trkpt>
      <trkpt lat="47.25872" lon="-1.01845">
        <ele>88.4</ele>
        <time>2011-07-03T12:39:14Z</time>
      </trkpt>
      <trkpt lat="47.25877" lon="-1.01841">
        <ele>88.2</ele>
        <time>2011-07-03T12:39:15Z</time>
      </trkpt>
      <trkpt lat="47.25882" lon="-1.01836">
        <ele>88.1</ele>
        <time>2011-07-03T12:39:16Z</time>
      </trkpt>
      <trkpt lat="47.25893" lon="-1.01819">
        <ele>87.5</ele>
        <time>2011-07-03T12:39:19Z</time>
      </trkpt>
      <trkpt lat="47.25897" lon="-1.01816">
        <ele>87.1</ele>
        <time>2011-07-03T12:39:20Z</time>
      </trkpt>
      <trkpt lat="47.259" lon="-1.01815">
        <ele>86.9</ele>
        <time>2011-07-03T12:39:21Z</time>
      </trkpt>
      <trkpt lat="47.25904" lon="-1.01816">
        <ele>86.7</ele>
        <time>2011-07-03T12:39:22Z</time>
      </trkpt>
      <trkpt lat="47.25908" lon="-1.01819">
        <ele>86.6</ele>
        <time>2011-07-03T12:39:23Z</time>
      </trkpt>
      <trkpt lat="47.25946" lon="-1.01857">
        <ele>87.4</ele>
        <time>2011-07-03T12:39:33Z</time>
      </trkpt>
      <trkpt lat="47.25951" lon="-1.01859">
        <ele>87.5</ele>
        <time>2011-07-03T12:39:34Z</time>
      </trkpt>
      <trkpt lat="47.25956" lon="-1.01859">
        <ele>87.3</ele>
        <time>2011-07-03T12:39:35Z</time>
      </trkpt>
      <trkpt lat="47.25973" lon="-1.01856">
        <ele>87</ele>
        <time>2011-07-03T12:39:38Z</time>
      </trkpt>
      <trkpt lat="47.25986" lon="-1.01853">
        <ele>86.7</ele>
        <time>2011-07-03T12:39:40Z</time>
      </trkpt>
      <trkpt lat="47.26034" lon="-1.01834">
        <ele>83.7</ele>
        <time>2011-07-03T12:39:48Z</time>
      </trkpt>
      <trkpt lat="47.2604" lon="-1.01832">
        <ele>83.2</ele>
        <time>2011-07-03T12:39:49Z</time>
      </trkpt>
      <trkpt lat="47.26091" lon="-1.01816">
        <ele>79.7</ele>
        <time>2011-07-03T12:39:57Z</time>
      </trkpt>
      <trkpt lat="47.26105" lon="-1.01816">
        <ele>79</ele>
        <time>2011-07-03T12:39:59Z</time>
      </trkpt>
      <trkpt lat="47.26193" lon="-1.01825">
        <ele>74.2</ele>
        <time>2011-07-03T12:40:11Z</time>
      </trkpt>
      <trkpt lat="47.26288" lon="-1.01865">
        <ele>72.5</ele>
        <time>2011-07-03T12:40:26Z</time>
      </trkpt>
      <trkpt lat="47.26359" lon="-1.01919">
        <ele>69.4</ele>
        <time>2011-07-03T12:40:38Z</time>
      </trkpt>
      <trkpt lat="47.26365" lon="-1.01925">
        <ele>68.5</ele>
        <time>2011-07-03T12:40:39Z</time>
      </trkpt>
      <trkpt lat="47.26381" lon="-1.01944">
        <ele>67.1</ele>
        <time>2011-07-03T12:40:42Z</time>
      </trkpt>
      <trkpt lat="47.26406" lon="-1.01983">
        <ele>66.7</ele>
        <time>2011-07-03T12:40:49Z</time>
      </trkpt>
      <trkpt lat="47.26409" lon="-1.01986">
        <ele>66.9</ele>
        <time>2011-07-03T12:40:50Z</time>
      </trkpt>
      <trkpt lat="47.26424" lon="-1.02001">
        <ele>66.8</ele>
        <time>2011-07-03T12:40:56Z</time>
      </trkpt>
      <trkpt lat="47.26426" lon="-1.02002">
        <ele>66.7</ele>
        <time>2011-07-03T12:40:57Z</time>
      </trkpt>
      <trkpt lat="47.26443" lon="-1.02014">
        <ele>69.5</ele>
        <time>2011-07-03T12:41:05Z</time>
      </trkpt>
      <trkpt lat="47.2653" lon="-1.02055">
        <ele>73.8</ele>
        <time>2011-07-03T12:41:46Z</time>
      </trkpt>
      <trkpt lat="47.26544" lon="-1.02059">
        <ele>73.7</ele>
        <time>2011-07-03T12:41:51Z</time>
      </trkpt>
      <trkpt lat="47.26548" lon="-1.02061">
        <ele>73.7</ele>
        <time>2011-07-03T12:41:52Z</time>
      </trkpt>
      <trkpt lat="47.26606" lon="-1.02099">
        <ele>73.2</ele>
        <time>2011-07-03T12:42:07Z</time>
      </trkpt>
      <trkpt lat="47.2661" lon="-1.02102">
        <ele>73</ele>
        <time>2011-07-03T12:42:08Z</time>
      </trkpt>
      <trkpt lat="47.26617" lon="-1.02109">
        <ele>73.6</ele>
        <time>2011-07-03T12:42:10Z</time>
      </trkpt>
      <trkpt lat="47.2662" lon="-1.02113">
        <ele>73.8</ele>
        <time>2011-07-03T12:42:11Z</time>
      </trkpt>
      <trkpt lat="47.26622" lon="-1.02118">
        <ele>73.8</ele>
        <time>2011-07-03T12:42:12Z</time>
      </trkpt>
      <trkpt lat="47.26624" lon="-1.02123">
        <ele>73.8</ele>
        <time>2011-07-03T12:42:13Z</time>
      </trkpt>
      <trkpt lat="47.26625" lon="-1.02129">
        <ele>73.8</ele>
        <time>2011-07-03T12:42:14Z</time>
      </trkpt>
      <trkpt lat="47.26627" lon="-1.02139">
        <ele>73.8</ele>
        <time>2011-07-03T12:42:16Z</time>
      </trkpt>
      <trkpt lat="47.26629" lon="-1.02174">
        <ele>73</ele>
        <time>2011-07-03T12:42:23Z</time>
      </trkpt>
      <trkpt lat="47.26631" lon="-1.02178">
        <ele>73.4</ele>
        <time>2011-07-03T12:42:24Z</time>
      </trkpt>
      <trkpt lat="47.26632" lon="-1.02181">
        <ele>73.7</ele>
        <time>2011-07-03T12:42:25Z</time>
      </trkpt>
      <trkpt lat="47.26634" lon="-1.02184">
        <ele>73.9</ele>
        <time>2011-07-03T12:42:26Z</time>
      </trkpt>
      <trkpt lat="47.26636" lon="-1.02186">
        <ele>74.1</ele>
        <time>2011-07-03T12:42:27Z</time>
      </trkpt>
      <trkpt lat="47.26639" lon="-1.02188">
        <ele>74.3</ele>
        <time>2011-07-03T12:42:28Z</time>
      </trkpt>
      <trkpt lat="47.2666" lon="-1.02202">
        <ele>75.4</ele>
        <time>2011-07-03T12:42:35Z</time>
      </trkpt>
      <trkpt lat="47.26663" lon="-1.02205">
        <ele>75.5</ele>
        <time>2011-07-03T12:42:36Z</time>
      </trkpt>
      <trkpt lat="47.26668" lon="-1.02212">
        <ele>75.3</ele>
        <time>2011-07-03T12:42:38Z</time>
      </trkpt>
      <trkpt lat="47.26673" lon="-1.0222">
        <ele>75.4</ele>
        <time>2011-07-03T12:42:40Z</time>
      </trkpt>
      <trkpt lat="47.26691" lon="-1.02259">
        <ele>76.6</ele>
        <time>2011-07-03T12:42:50Z</time>
      </trkpt>
      <trkpt lat="47.26694" lon="-1.02261">
        <ele>76.5</ele>
        <time>2011-07-03T12:42:51Z</time>
      </trkpt>
      <trkpt lat="47.26697" lon="-1.02263">
        <ele>76.5</ele>
        <time>2011-07-03T12:42:52Z</time>
      </trkpt>
      <trkpt lat="47.267" lon="-1.02263">
        <ele>76</ele>
        <time>2011-07-03T12:42:53Z</time>
      </trkpt>
      <trkpt lat="47.26702" lon="-1.02263">
        <ele>75.6</ele>
        <time>2011-07-03T12:42:54Z</time>
      </trkpt>
      <trkpt lat="47.26705" lon="-1.02261">
        <ele>75.3</ele>
        <time>2011-07-03T12:42:55Z</time>
      </trkpt>
      <trkpt lat="47.26734" lon="-1.02231">
        <ele>75.6</ele>
        <time>2011-07-03T12:43:07Z</time>
      </trkpt>
      <trkpt lat="47.26736" lon="-1.02229">
        <ele>75.7</ele>
        <time>2011-07-03T12:43:08Z</time>
      </trkpt>
      <trkpt lat="47.26739" lon="-1.02229">
        <ele>75.6</ele>
        <time>2011-07-03T12:43:09Z</time>
      </trkpt>
      <trkpt lat="47.26741" lon="-1.02229">
        <ele>75.5</ele>
        <time>2011-07-03T12:43:12Z</time>
      </trkpt>
      <trkpt lat="47.26741" lon="-1.02229">
        <ele>75.6</ele>
        <time>2011-07-03T12:43:13Z</time>
      </trkpt>
      <trkpt lat="47.26742" lon="-1.02229">
        <ele>75.2</ele>
        <time>2011-07-03T12:43:17Z</time>
      </trkpt>
      <trkpt lat="47.26742" lon="-1.02229">
        <ele>75.2</ele>
        <time>2011-07-03T12:43:18Z</time>
      </trkpt>
      <trkpt lat="47.26743" lon="-1.0223">
        <ele>74.9</ele>
        <time>2011-07-03T12:43:20Z</time>
      </trkpt>
      <trkpt lat="47.26743" lon="-1.0223">
        <ele>74.8</ele>
        <time>2011-07-03T12:43:21Z</time>
      </trkpt>
      <trkpt lat="47.26744" lon="-1.0223">
        <ele>74.9</ele>
        <time>2011-07-03T12:43:22Z</time>
      </trkpt>
      <trkpt lat="47.26745" lon="-1.02231">
        <ele>75</ele>
        <time>2011-07-03T12:43:23Z</time>
      </trkpt>
      <trkpt lat="47.26746" lon="-1.02233">
        <ele>75.1</ele>
        <time>2011-07-03T12:43:24Z</time>
      </trkpt>
      <trkpt lat="47.26746" lon="-1.02235">
        <ele>75.3</ele>
        <time>2011-07-03T12:43:25Z</time>
      </trkpt>
      <trkpt lat="47.26746" lon="-1.02239">
        <ele>75.5</ele>
        <time>2011-07-03T12:43:26Z</time>
      </trkpt>
      <trkpt lat="47.26746" lon="-1.02242">
        <ele>75.6</ele>
        <time>2011-07-03T12:43:27Z</time>
      </trkpt>
      <trkpt lat="47.26745" lon="-1.02246">
        <ele>75.5</ele>
        <time>2011-07-03T12:43:28Z</time>
      </trkpt>
      <trkpt lat="47.26741" lon="-1.02257">
        <ele>75.4</ele>
        <time>2011-07-03T12:43:31Z</time>
      </trkpt>
      <trkpt lat="47.26644" lon="-1.02537">
        <ele>86.9</ele>
        <time>2011-07-03T12:44:47Z</time>
      </trkpt>
      <trkpt lat="47.26642" lon="-1.02541">
        <ele>86.8</ele>
        <time>2011-07-03T12:44:48Z</time>
      </trkpt>
      <trkpt lat="47.26548" lon="-1.02821">
        <ele>92.4</ele>
        <time>2011-07-03T12:45:49Z</time>
      </trkpt>
      <trkpt lat="47.26548" lon="-1.02826">
        <ele>92.3</ele>
        <time>2011-07-03T12:45:50Z</time>
      </trkpt>
      <trkpt lat="47.26548" lon="-1.02831">
        <ele>92.3</ele>
        <time>2011-07-03T12:45:51Z</time>
      </trkpt>
      <trkpt lat="47.2655" lon="-1.02835">
        <ele>92.6</ele>
        <time>2011-07-03T12:45:52Z</time>
      </trkpt>
      <trkpt lat="47.26551" lon="-1.02839">
        <ele>92.8</ele>
        <time>2011-07-03T12:45:53Z</time>
      </trkpt>
      <trkpt lat="47.26553" lon="-1.02842">
        <ele>93</ele>
        <time>2011-07-03T12:45:54Z</time>
      </trkpt>
      <trkpt lat="47.26556" lon="-1.02843">
        <ele>93.3</ele>
        <time>2011-07-03T12:45:55Z</time>
      </trkpt>
      <trkpt lat="47.26559" lon="-1.02844">
        <ele>93.6</ele>
        <time>2011-07-03T12:45:56Z</time>
      </trkpt>
      <trkpt lat="47.26562" lon="-1.02844">
        <ele>93.7</ele>
        <time>2011-07-03T12:45:57Z</time>
      </trkpt>
      <trkpt lat="47.2665" lon="-1.0283">
        <ele>98.1</ele>
        <time>2011-07-03T12:46:29Z</time>
      </trkpt>
      <trkpt lat="47.26658" lon="-1.02831">
        <ele>98.8</ele>
        <time>2011-07-03T12:46:32Z</time>
      </trkpt>
      <trkpt lat="47.26672" lon="-1.0283">
        <ele>99.5</ele>
        <time>2011-07-03T12:46:37Z</time>
      </trkpt>
      <trkpt lat="47.26677" lon="-1.02831">
        <ele>100</ele>
        <time>2011-07-03T12:46:39Z</time>
      </trkpt>
      <trkpt lat="47.26688" lon="-1.02831">
        <ele>100</ele>
        <time>2011-07-03T12:46:43Z</time>
      </trkpt>
      <trkpt lat="47.26726" lon="-1.02838">
        <ele>102.3</ele>
        <time>2011-07-03T12:46:57Z</time>
      </trkpt>
      <trkpt lat="47.26729" lon="-1.02839">
        <ele>102.3</ele>
        <time>2011-07-03T12:46:58Z</time>
      </trkpt>
      <trkpt lat="47.26793" lon="-1.02868">
        <ele>103.4</ele>
        <time>2011-07-03T12:47:19Z</time>
      </trkpt>
      <trkpt lat="47.26803" lon="-1.02874">
        <ele>104</ele>
        <time>2011-07-03T12:47:22Z</time>
      </trkpt>
      <trkpt lat="47.26812" lon="-1.02882">
        <ele>104.3</ele>
        <time>2011-07-03T12:47:25Z</time>
      </trkpt>
      <trkpt lat="47.26822" lon="-1.02891">
        <ele>104.2</ele>
        <time>2011-07-03T12:47:28Z</time>
      </trkpt>
      <trkpt lat="47.26866" lon="-1.0295">
        <ele>103.3</ele>
        <time>2011-07-03T12:47:42Z</time>
      </trkpt>
      <trkpt lat="47.26868" lon="-1.02955">
        <ele>103.2</ele>
        <time>2011-07-03T12:47:43Z</time>
      </trkpt>
      <trkpt lat="47.2687" lon="-1.0296">
        <ele>103.2</ele>
        <time>2011-07-03T12:47:44Z</time>
      </trkpt>
      <trkpt lat="47.26871" lon="-1.02966">
        <ele>103.2</ele>
        <time>2011-07-03T12:47:45Z</time>
      </trkpt>
      <trkpt lat="47.26871" lon="-1.02972">
        <ele>103.1</ele>
        <time>2011-07-03T12:47:46Z</time>
      </trkpt>
      <trkpt lat="47.26871" lon="-1.02978">
        <ele>103</ele>
        <time>2011-07-03T12:47:47Z</time>
      </trkpt>
      <trkpt lat="47.26869" lon="-1.02991">
        <ele>102.8</ele>
        <time>2011-07-03T12:47:49Z</time>
      </trkpt>
      <trkpt lat="47.26867" lon="-1.02997">
        <ele>102.9</ele>
        <time>2011-07-03T12:47:50Z</time>
      </trkpt>
      <trkpt lat="47.26865" lon="-1.03003">
        <ele>102.9</ele>
        <time>2011-07-03T12:47:51Z</time>
      </trkpt>
      <trkpt lat="47.26851" lon="-1.03032">
        <ele>102.1</ele>
        <time>2011-07-03T12:47:56Z</time>
      </trkpt>
      <trkpt lat="47.26848" lon="-1.03036">
        <ele>101.9</ele>
        <time>2011-07-03T12:47:57Z</time>
      </trkpt>
      <trkpt lat="47.26844" lon="-1.0304">
        <ele>101.7</ele>
        <time>2011-07-03T12:47:58Z</time>
      </trkpt>
      <trkpt lat="47.26841" lon="-1.03041">
        <ele>101.6</ele>
        <time>2011-07-03T12:47:59Z</time>
      </trkpt>
      <trkpt lat="47.26838" lon="-1.03041">
        <ele>101.3</ele>
        <time>2011-07-03T12:48:00Z</time>
      </trkpt>
      <trkpt lat="47.26835" lon="-1.03041">
        <ele>101.1</ele>
        <time>2011-07-03T12:48:02Z</time>
      </trkpt>
      <trkpt lat="47.26833" lon="-1.0304">
        <ele>101.1</ele>
        <time>2011-07-03T12:48:03Z</time>
      </trkpt>
      <trkpt lat="47.26832" lon="-1.03039">
        <ele>101.1</ele>
        <time>2011-07-03T12:48:04Z</time>
      </trkpt>
      <trkpt lat="47.26831" lon="-1.03039">
        <ele>101.1</ele>
        <time>2011-07-03T12:48:05Z</time>
      </trkpt>
      <trkpt lat="47.2683" lon="-1.0304">
        <ele>101</ele>
        <time>2011-07-03T12:48:06Z</time>
      </trkpt>
      <trkpt lat="47.26829" lon="-1.03041">
        <ele>101</ele>
        <time>2011-07-03T12:48:07Z</time>
      </trkpt>
      <trkpt lat="47.26829" lon="-1.03041">
        <ele>101</ele>
        <time>2011-07-03T12:48:08Z</time>
      </trkpt>
    </trkseg>
  </trk>
</gpx>